<?xml version="1.0" encoding="UTF-8" standalone="no" ?>
<gpx xmlns="http://www.topografix.com/GPX/1/1" xmlns:xsi="http://www.w3.org/2001/XMLSchema-instance" xsi:schemaLocation="http://www.topografix.com/GPX/1/1 http://www.topografix.com/GPX/1/1/gpx.xsd" version="1.1" creator="VisuGPX - https://www.visugpx.com">
  <metadata>
    <name>TCL-2ème Boucle</name>
    <desc><![CDATA[Trail de la Cote de Lumières 2025

2ème Boucle permettant de réaliser le 16 kms.]]></desc>
  </metadata>
  <trk>
    <name><![CDATA[visugpx_Nd1DEgsdOZ_1]]></name>
    <extensions>
      <line xmlns="http://www.topografix.com/GPX/gpx_style/0/2">
        <color>0000FF</color>
        <width>4</width>
      </line>
    </extensions>
    <trkseg>
      <trkpt lat="46.72743" lon="-1.98999">
        <ele>4.3</ele>
        <time>2025-01-20T08:02:44.455Z</time>
      </trkpt>
      <trkpt lat="46.72743" lon="-1.98999">
        <ele>4.3</ele>
        <time>2025-01-20T08:02:45.455Z</time>
      </trkpt>
      <trkpt lat="46.72743" lon="-1.99">
        <ele>4.3</ele>
        <time>2025-01-20T08:02:46.455Z</time>
      </trkpt>
      <trkpt lat="46.72743" lon="-1.99001">
        <ele>4.2</ele>
        <time>2025-01-20T08:02:47.455Z</time>
      </trkpt>
      <trkpt lat="46.72754" lon="-1.98998">
        <ele>4.3</ele>
        <time>2025-01-20T08:02:48.455Z</time>
      </trkpt>
      <trkpt lat="46.72751" lon="-1.99">
        <ele>4.1</ele>
        <time>2025-01-20T08:02:49.455Z</time>
      </trkpt>
      <trkpt lat="46.72748" lon="-1.99001">
        <ele>4.1</ele>
        <time>2025-01-20T08:02:50.456Z</time>
      </trkpt>
      <trkpt lat="46.72746" lon="-1.99002">
        <ele>4.1</ele>
        <time>2025-01-20T08:02:51.455Z</time>
      </trkpt>
      <trkpt lat="46.72746" lon="-1.99003">
        <ele>4.1</ele>
        <time>2025-01-20T08:02:52.455Z</time>
      </trkpt>
      <trkpt lat="46.72745" lon="-1.99006">
        <ele>4.1</ele>
        <time>2025-01-20T08:02:53.456Z</time>
      </trkpt>
      <trkpt lat="46.72745" lon="-1.99009">
        <ele>4.1</ele>
        <time>2025-01-20T08:02:54.456Z</time>
      </trkpt>
      <trkpt lat="46.72745" lon="-1.9901">
        <ele>4.1</ele>
        <time>2025-01-20T08:02:55.456Z</time>
      </trkpt>
      <trkpt lat="46.72746" lon="-1.99011">
        <ele>4.1</ele>
        <time>2025-01-20T08:02:56.455Z</time>
      </trkpt>
      <trkpt lat="46.72747" lon="-1.99012">
        <ele>4.1</ele>
        <time>2025-01-20T08:02:57.455Z</time>
      </trkpt>
      <trkpt lat="46.72747" lon="-1.99012">
        <ele>4.1</ele>
        <time>2025-01-20T08:02:58.455Z</time>
      </trkpt>
      <trkpt lat="46.72747" lon="-1.99012">
        <ele>4.1</ele>
        <time>2025-01-20T08:02:59.455Z</time>
      </trkpt>
      <trkpt lat="46.72748" lon="-1.99013">
        <ele>4</ele>
        <time>2025-01-20T08:03:00.455Z</time>
      </trkpt>
      <trkpt lat="46.72748" lon="-1.99013">
        <ele>4</ele>
        <time>2025-01-20T08:03:01.455Z</time>
      </trkpt>
      <trkpt lat="46.72748" lon="-1.99014">
        <ele>4</ele>
        <time>2025-01-20T08:03:02.455Z</time>
      </trkpt>
      <trkpt lat="46.72749" lon="-1.99016">
        <ele>4</ele>
        <time>2025-01-20T08:03:03.456Z</time>
      </trkpt>
      <trkpt lat="46.72748" lon="-1.99017">
        <ele>4</ele>
        <time>2025-01-20T08:03:04.456Z</time>
      </trkpt>
      <trkpt lat="46.72748" lon="-1.99018">
        <ele>4</ele>
        <time>2025-01-20T08:03:05.456Z</time>
      </trkpt>
      <trkpt lat="46.72748" lon="-1.9902">
        <ele>4</ele>
        <time>2025-01-20T08:03:06.456Z</time>
      </trkpt>
      <trkpt lat="46.72748" lon="-1.99021">
        <ele>4</ele>
        <time>2025-01-20T08:03:07.456Z</time>
      </trkpt>
      <trkpt lat="46.72748" lon="-1.99023">
        <ele>4</ele>
        <time>2025-01-20T08:03:08.455Z</time>
      </trkpt>
      <trkpt lat="46.72748" lon="-1.99025">
        <ele>4</ele>
        <time>2025-01-20T08:03:09.455Z</time>
      </trkpt>
      <trkpt lat="46.72748" lon="-1.99026">
        <ele>4</ele>
        <time>2025-01-20T08:03:10.455Z</time>
      </trkpt>
      <trkpt lat="46.72749" lon="-1.99028">
        <ele>4</ele>
        <time>2025-01-20T08:03:11.455Z</time>
      </trkpt>
      <trkpt lat="46.7275" lon="-1.99029">
        <ele>4</ele>
        <time>2025-01-20T08:03:12.455Z</time>
      </trkpt>
      <trkpt lat="46.72751" lon="-1.9903">
        <ele>4</ele>
        <time>2025-01-20T08:03:13.456Z</time>
      </trkpt>
      <trkpt lat="46.72752" lon="-1.99032">
        <ele>4</ele>
        <time>2025-01-20T08:03:14.456Z</time>
      </trkpt>
      <trkpt lat="46.72753" lon="-1.99033">
        <ele>4</ele>
        <time>2025-01-20T08:03:15.456Z</time>
      </trkpt>
      <trkpt lat="46.72753" lon="-1.99034">
        <ele>4</ele>
        <time>2025-01-20T08:03:16.456Z</time>
      </trkpt>
      <trkpt lat="46.72755" lon="-1.99036">
        <ele>4</ele>
        <time>2025-01-20T08:03:17.456Z</time>
      </trkpt>
      <trkpt lat="46.72756" lon="-1.99037">
        <ele>4</ele>
        <time>2025-01-20T08:03:18.455Z</time>
      </trkpt>
      <trkpt lat="46.72757" lon="-1.99039">
        <ele>4</ele>
        <time>2025-01-20T08:03:19.455Z</time>
      </trkpt>
      <trkpt lat="46.72758" lon="-1.9904">
        <ele>4</ele>
        <time>2025-01-20T08:03:20.455Z</time>
      </trkpt>
      <trkpt lat="46.72759" lon="-1.99041">
        <ele>4</ele>
        <time>2025-01-20T08:03:21.455Z</time>
      </trkpt>
      <trkpt lat="46.7276" lon="-1.99043">
        <ele>4</ele>
        <time>2025-01-20T08:03:22.455Z</time>
      </trkpt>
      <trkpt lat="46.72761" lon="-1.99044">
        <ele>4</ele>
        <time>2025-01-20T08:03:23.456Z</time>
      </trkpt>
      <trkpt lat="46.72762" lon="-1.99046">
        <ele>4</ele>
        <time>2025-01-20T08:03:24.455Z</time>
      </trkpt>
      <trkpt lat="46.72763" lon="-1.99048">
        <ele>4</ele>
        <time>2025-01-20T08:03:25.456Z</time>
      </trkpt>
      <trkpt lat="46.72765" lon="-1.99049">
        <ele>4</ele>
        <time>2025-01-20T08:03:26.456Z</time>
      </trkpt>
      <trkpt lat="46.72766" lon="-1.99051">
        <ele>4</ele>
        <time>2025-01-20T08:03:27.456Z</time>
      </trkpt>
      <trkpt lat="46.72767" lon="-1.99051">
        <ele>4</ele>
        <time>2025-01-20T08:03:28.456Z</time>
      </trkpt>
      <trkpt lat="46.72768" lon="-1.99053">
        <ele>4</ele>
        <time>2025-01-20T08:03:29.456Z</time>
      </trkpt>
      <trkpt lat="46.72769" lon="-1.99054">
        <ele>4</ele>
        <time>2025-01-20T08:03:30.455Z</time>
      </trkpt>
      <trkpt lat="46.72771" lon="-1.99055">
        <ele>4</ele>
        <time>2025-01-20T08:03:31.455Z</time>
      </trkpt>
      <trkpt lat="46.72772" lon="-1.99056">
        <ele>4</ele>
        <time>2025-01-20T08:03:32.455Z</time>
      </trkpt>
      <trkpt lat="46.72773" lon="-1.99057">
        <ele>4</ele>
        <time>2025-01-20T08:03:33.455Z</time>
      </trkpt>
      <trkpt lat="46.72774" lon="-1.99059">
        <ele>4</ele>
        <time>2025-01-20T08:03:34.455Z</time>
      </trkpt>
      <trkpt lat="46.72775" lon="-1.9906">
        <ele>4</ele>
        <time>2025-01-20T08:03:35.456Z</time>
      </trkpt>
      <trkpt lat="46.72777" lon="-1.99061">
        <ele>4</ele>
        <time>2025-01-20T08:03:36.455Z</time>
      </trkpt>
      <trkpt lat="46.72778" lon="-1.99063">
        <ele>4</ele>
        <time>2025-01-20T08:03:37.456Z</time>
      </trkpt>
      <trkpt lat="46.72779" lon="-1.99064">
        <ele>4</ele>
        <time>2025-01-20T08:03:38.455Z</time>
      </trkpt>
      <trkpt lat="46.72779" lon="-1.99066">
        <ele>4</ele>
        <time>2025-01-20T08:03:39.456Z</time>
      </trkpt>
      <trkpt lat="46.7278" lon="-1.99068">
        <ele>4</ele>
        <time>2025-01-20T08:03:40.455Z</time>
      </trkpt>
      <trkpt lat="46.72781" lon="-1.99069">
        <ele>4</ele>
        <time>2025-01-20T08:03:41.455Z</time>
      </trkpt>
      <trkpt lat="46.72782" lon="-1.99071">
        <ele>4</ele>
        <time>2025-01-20T08:03:42.455Z</time>
      </trkpt>
      <trkpt lat="46.72783" lon="-1.99072">
        <ele>4</ele>
        <time>2025-01-20T08:03:43.456Z</time>
      </trkpt>
      <trkpt lat="46.72784" lon="-1.99073">
        <ele>4</ele>
        <time>2025-01-20T08:03:44.456Z</time>
      </trkpt>
      <trkpt lat="46.72785" lon="-1.99074">
        <ele>4</ele>
        <time>2025-01-20T08:03:45.456Z</time>
      </trkpt>
      <trkpt lat="46.72787" lon="-1.99075">
        <ele>4</ele>
        <time>2025-01-20T08:03:46.455Z</time>
      </trkpt>
      <trkpt lat="46.72788" lon="-1.99076">
        <ele>4</ele>
        <time>2025-01-20T08:03:47.456Z</time>
      </trkpt>
      <trkpt lat="46.72789" lon="-1.99078">
        <ele>4</ele>
        <time>2025-01-20T08:03:48.456Z</time>
      </trkpt>
      <trkpt lat="46.7279" lon="-1.99079">
        <ele>4</ele>
        <time>2025-01-20T08:03:49.456Z</time>
      </trkpt>
      <trkpt lat="46.72791" lon="-1.9908">
        <ele>4</ele>
        <time>2025-01-20T08:03:50.456Z</time>
      </trkpt>
      <trkpt lat="46.72792" lon="-1.99082">
        <ele>4</ele>
        <time>2025-01-20T08:03:51.455Z</time>
      </trkpt>
      <trkpt lat="46.72793" lon="-1.99083">
        <ele>4</ele>
        <time>2025-01-20T08:03:52.455Z</time>
      </trkpt>
      <trkpt lat="46.72794" lon="-1.99084">
        <ele>4</ele>
        <time>2025-01-20T08:03:53.455Z</time>
      </trkpt>
      <trkpt lat="46.72795" lon="-1.99086">
        <ele>4.1</ele>
        <time>2025-01-20T08:03:54.456Z</time>
      </trkpt>
      <trkpt lat="46.72796" lon="-1.99088">
        <ele>4.2</ele>
        <time>2025-01-20T08:03:55.456Z</time>
      </trkpt>
      <trkpt lat="46.72797" lon="-1.9909">
        <ele>4.2</ele>
        <time>2025-01-20T08:03:56.456Z</time>
      </trkpt>
      <trkpt lat="46.72798" lon="-1.99091">
        <ele>4.3</ele>
        <time>2025-01-20T08:03:57.456Z</time>
      </trkpt>
      <trkpt lat="46.72799" lon="-1.99093">
        <ele>4.3</ele>
        <time>2025-01-20T08:03:58.456Z</time>
      </trkpt>
      <trkpt lat="46.728" lon="-1.99094">
        <ele>4.4</ele>
        <time>2025-01-20T08:03:59.456Z</time>
      </trkpt>
      <trkpt lat="46.72802" lon="-1.99095">
        <ele>4.4</ele>
        <time>2025-01-20T08:04:00.456Z</time>
      </trkpt>
      <trkpt lat="46.72803" lon="-1.99097">
        <ele>4.5</ele>
        <time>2025-01-20T08:04:01.455Z</time>
      </trkpt>
      <trkpt lat="46.72804" lon="-1.99098">
        <ele>4.5</ele>
        <time>2025-01-20T08:04:02.455Z</time>
      </trkpt>
      <trkpt lat="46.72805" lon="-1.99099">
        <ele>4.6</ele>
        <time>2025-01-20T08:04:03.456Z</time>
      </trkpt>
      <trkpt lat="46.72806" lon="-1.991">
        <ele>4.6</ele>
        <time>2025-01-20T08:04:04.456Z</time>
      </trkpt>
      <trkpt lat="46.72806" lon="-1.99101">
        <ele>4.6</ele>
        <time>2025-01-20T08:04:05.456Z</time>
      </trkpt>
      <trkpt lat="46.72807" lon="-1.99102">
        <ele>4.7</ele>
        <time>2025-01-20T08:04:06.455Z</time>
      </trkpt>
      <trkpt lat="46.72808" lon="-1.99103">
        <ele>4.7</ele>
        <time>2025-01-20T08:04:07.455Z</time>
      </trkpt>
      <trkpt lat="46.7281" lon="-1.99105">
        <ele>4.8</ele>
        <time>2025-01-20T08:04:08.455Z</time>
      </trkpt>
      <trkpt lat="46.72811" lon="-1.99106">
        <ele>4.8</ele>
        <time>2025-01-20T08:04:09.455Z</time>
      </trkpt>
      <trkpt lat="46.72812" lon="-1.99108">
        <ele>4.9</ele>
        <time>2025-01-20T08:04:10.455Z</time>
      </trkpt>
      <trkpt lat="46.72814" lon="-1.99109">
        <ele>4.9</ele>
        <time>2025-01-20T08:04:11.456Z</time>
      </trkpt>
      <trkpt lat="46.72815" lon="-1.9911">
        <ele>5</ele>
        <time>2025-01-20T08:04:12.455Z</time>
      </trkpt>
      <trkpt lat="46.72816" lon="-1.99112">
        <ele>5</ele>
        <time>2025-01-20T08:04:13.455Z</time>
      </trkpt>
      <trkpt lat="46.72817" lon="-1.99113">
        <ele>5</ele>
        <time>2025-01-20T08:04:14.455Z</time>
      </trkpt>
      <trkpt lat="46.72818" lon="-1.99115">
        <ele>5</ele>
        <time>2025-01-20T08:04:15.455Z</time>
      </trkpt>
      <trkpt lat="46.72819" lon="-1.99116">
        <ele>5</ele>
        <time>2025-01-20T08:04:16.455Z</time>
      </trkpt>
      <trkpt lat="46.7282" lon="-1.99117">
        <ele>5</ele>
        <time>2025-01-20T08:04:17.456Z</time>
      </trkpt>
      <trkpt lat="46.72821" lon="-1.99119">
        <ele>5</ele>
        <time>2025-01-20T08:04:18.456Z</time>
      </trkpt>
      <trkpt lat="46.72822" lon="-1.9912">
        <ele>5</ele>
        <time>2025-01-20T08:04:19.455Z</time>
      </trkpt>
      <trkpt lat="46.72823" lon="-1.99122">
        <ele>5</ele>
        <time>2025-01-20T08:04:20.455Z</time>
      </trkpt>
      <trkpt lat="46.72824" lon="-1.99123">
        <ele>5</ele>
        <time>2025-01-20T08:04:21.455Z</time>
      </trkpt>
      <trkpt lat="46.72825" lon="-1.99125">
        <ele>5</ele>
        <time>2025-01-20T08:04:22.456Z</time>
      </trkpt>
      <trkpt lat="46.72826" lon="-1.99126">
        <ele>5</ele>
        <time>2025-01-20T08:04:23.455Z</time>
      </trkpt>
      <trkpt lat="46.72827" lon="-1.99128">
        <ele>5</ele>
        <time>2025-01-20T08:04:24.455Z</time>
      </trkpt>
      <trkpt lat="46.72829" lon="-1.99129">
        <ele>5</ele>
        <time>2025-01-20T08:04:25.455Z</time>
      </trkpt>
      <trkpt lat="46.7283" lon="-1.9913">
        <ele>5</ele>
        <time>2025-01-20T08:04:26.455Z</time>
      </trkpt>
      <trkpt lat="46.72831" lon="-1.99131">
        <ele>5</ele>
        <time>2025-01-20T08:04:27.455Z</time>
      </trkpt>
      <trkpt lat="46.72832" lon="-1.99133">
        <ele>5</ele>
        <time>2025-01-20T08:04:28.455Z</time>
      </trkpt>
      <trkpt lat="46.72834" lon="-1.99134">
        <ele>5</ele>
        <time>2025-01-20T08:04:29.455Z</time>
      </trkpt>
      <trkpt lat="46.72835" lon="-1.99135">
        <ele>4.9</ele>
        <time>2025-01-20T08:04:30.455Z</time>
      </trkpt>
      <trkpt lat="46.72836" lon="-1.99137">
        <ele>4.9</ele>
        <time>2025-01-20T08:04:31.456Z</time>
      </trkpt>
      <trkpt lat="46.72837" lon="-1.99138">
        <ele>4.9</ele>
        <time>2025-01-20T08:04:32.456Z</time>
      </trkpt>
      <trkpt lat="46.72838" lon="-1.9914">
        <ele>4.8</ele>
        <time>2025-01-20T08:04:33.455Z</time>
      </trkpt>
      <trkpt lat="46.72838" lon="-1.99142">
        <ele>4.9</ele>
        <time>2025-01-20T08:04:34.456Z</time>
      </trkpt>
      <trkpt lat="46.7284" lon="-1.99143">
        <ele>4.8</ele>
        <time>2025-01-20T08:04:35.455Z</time>
      </trkpt>
      <trkpt lat="46.72841" lon="-1.99145">
        <ele>4.8</ele>
        <time>2025-01-20T08:04:36.456Z</time>
      </trkpt>
      <trkpt lat="46.72842" lon="-1.99146">
        <ele>4.8</ele>
        <time>2025-01-20T08:04:37.456Z</time>
      </trkpt>
      <trkpt lat="46.72843" lon="-1.99148">
        <ele>4.8</ele>
        <time>2025-01-20T08:04:38.455Z</time>
      </trkpt>
      <trkpt lat="46.72844" lon="-1.99149">
        <ele>4.8</ele>
        <time>2025-01-20T08:04:39.455Z</time>
      </trkpt>
      <trkpt lat="46.72845" lon="-1.9915">
        <ele>4.7</ele>
        <time>2025-01-20T08:04:40.455Z</time>
      </trkpt>
      <trkpt lat="46.72846" lon="-1.99152">
        <ele>4.8</ele>
        <time>2025-01-20T08:04:41.456Z</time>
      </trkpt>
      <trkpt lat="46.72848" lon="-1.99154">
        <ele>4.8</ele>
        <time>2025-01-20T08:04:42.456Z</time>
      </trkpt>
      <trkpt lat="46.72849" lon="-1.99156">
        <ele>4.8</ele>
        <time>2025-01-20T08:04:43.456Z</time>
      </trkpt>
      <trkpt lat="46.7285" lon="-1.99157">
        <ele>4.8</ele>
        <time>2025-01-20T08:04:44.455Z</time>
      </trkpt>
      <trkpt lat="46.72852" lon="-1.99159">
        <ele>4.8</ele>
        <time>2025-01-20T08:04:45.456Z</time>
      </trkpt>
      <trkpt lat="46.72853" lon="-1.9916">
        <ele>4.8</ele>
        <time>2025-01-20T08:04:46.456Z</time>
      </trkpt>
      <trkpt lat="46.72854" lon="-1.99161">
        <ele>4.8</ele>
        <time>2025-01-20T08:04:47.455Z</time>
      </trkpt>
      <trkpt lat="46.72855" lon="-1.99163">
        <ele>4.9</ele>
        <time>2025-01-20T08:04:48.455Z</time>
      </trkpt>
      <trkpt lat="46.72856" lon="-1.99164">
        <ele>4.9</ele>
        <time>2025-01-20T08:04:49.455Z</time>
      </trkpt>
      <trkpt lat="46.72857" lon="-1.99165">
        <ele>4.9</ele>
        <time>2025-01-20T08:04:50.456Z</time>
      </trkpt>
      <trkpt lat="46.72858" lon="-1.99167">
        <ele>5</ele>
        <time>2025-01-20T08:04:51.456Z</time>
      </trkpt>
      <trkpt lat="46.72859" lon="-1.99168">
        <ele>5</ele>
        <time>2025-01-20T08:04:52.456Z</time>
      </trkpt>
      <trkpt lat="46.7286" lon="-1.9917">
        <ele>5</ele>
        <time>2025-01-20T08:04:53.455Z</time>
      </trkpt>
      <trkpt lat="46.72861" lon="-1.99171">
        <ele>5</ele>
        <time>2025-01-20T08:04:54.455Z</time>
      </trkpt>
      <trkpt lat="46.72863" lon="-1.99172">
        <ele>4.9</ele>
        <time>2025-01-20T08:04:55.455Z</time>
      </trkpt>
      <trkpt lat="46.72864" lon="-1.99173">
        <ele>4.9</ele>
        <time>2025-01-20T08:04:56.456Z</time>
      </trkpt>
      <trkpt lat="46.72865" lon="-1.99174">
        <ele>4.9</ele>
        <time>2025-01-20T08:04:57.455Z</time>
      </trkpt>
      <trkpt lat="46.72866" lon="-1.99176">
        <ele>4.8</ele>
        <time>2025-01-20T08:04:58.455Z</time>
      </trkpt>
      <trkpt lat="46.72867" lon="-1.99177">
        <ele>4.8</ele>
        <time>2025-01-20T08:04:59.455Z</time>
      </trkpt>
      <trkpt lat="46.72868" lon="-1.99178">
        <ele>4.8</ele>
        <time>2025-01-20T08:05:00.456Z</time>
      </trkpt>
      <trkpt lat="46.72869" lon="-1.9918">
        <ele>4.7</ele>
        <time>2025-01-20T08:05:01.455Z</time>
      </trkpt>
      <trkpt lat="46.72871" lon="-1.99181">
        <ele>4.6</ele>
        <time>2025-01-20T08:05:02.456Z</time>
      </trkpt>
      <trkpt lat="46.72872" lon="-1.99182">
        <ele>4.6</ele>
        <time>2025-01-20T08:05:03.455Z</time>
      </trkpt>
      <trkpt lat="46.72873" lon="-1.99183">
        <ele>4.6</ele>
        <time>2025-01-20T08:05:04.456Z</time>
      </trkpt>
      <trkpt lat="46.72874" lon="-1.99185">
        <ele>4.5</ele>
        <time>2025-01-20T08:05:05.455Z</time>
      </trkpt>
      <trkpt lat="46.72875" lon="-1.99186">
        <ele>4.5</ele>
        <time>2025-01-20T08:05:06.456Z</time>
      </trkpt>
      <trkpt lat="46.72876" lon="-1.99188">
        <ele>4.5</ele>
        <time>2025-01-20T08:05:07.456Z</time>
      </trkpt>
      <trkpt lat="46.72876" lon="-1.99189">
        <ele>4.5</ele>
        <time>2025-01-20T08:05:08.456Z</time>
      </trkpt>
      <trkpt lat="46.72877" lon="-1.99191">
        <ele>4.4</ele>
        <time>2025-01-20T08:05:09.455Z</time>
      </trkpt>
      <trkpt lat="46.72878" lon="-1.99193">
        <ele>4.4</ele>
        <time>2025-01-20T08:05:10.456Z</time>
      </trkpt>
      <trkpt lat="46.72879" lon="-1.99195">
        <ele>4.4</ele>
        <time>2025-01-20T08:05:11.455Z</time>
      </trkpt>
      <trkpt lat="46.7288" lon="-1.99197">
        <ele>4.3</ele>
        <time>2025-01-20T08:05:12.455Z</time>
      </trkpt>
      <trkpt lat="46.72881" lon="-1.99198">
        <ele>4.3</ele>
        <time>2025-01-20T08:05:13.455Z</time>
      </trkpt>
      <trkpt lat="46.72882" lon="-1.992">
        <ele>4.2</ele>
        <time>2025-01-20T08:05:14.455Z</time>
      </trkpt>
      <trkpt lat="46.72883" lon="-1.99202">
        <ele>4.2</ele>
        <time>2025-01-20T08:05:15.456Z</time>
      </trkpt>
      <trkpt lat="46.72884" lon="-1.99203">
        <ele>4.2</ele>
        <time>2025-01-20T08:05:16.456Z</time>
      </trkpt>
      <trkpt lat="46.72885" lon="-1.99205">
        <ele>4.1</ele>
        <time>2025-01-20T08:05:17.456Z</time>
      </trkpt>
      <trkpt lat="46.72886" lon="-1.99207">
        <ele>4.1</ele>
        <time>2025-01-20T08:05:18.455Z</time>
      </trkpt>
      <trkpt lat="46.72888" lon="-1.99209">
        <ele>4</ele>
        <time>2025-01-20T08:05:19.455Z</time>
      </trkpt>
      <trkpt lat="46.72889" lon="-1.9921">
        <ele>4</ele>
        <time>2025-01-20T08:05:20.455Z</time>
      </trkpt>
      <trkpt lat="46.7289" lon="-1.99212">
        <ele>4.1</ele>
        <time>2025-01-20T08:05:21.456Z</time>
      </trkpt>
      <trkpt lat="46.72891" lon="-1.99213">
        <ele>4.1</ele>
        <time>2025-01-20T08:05:22.456Z</time>
      </trkpt>
      <trkpt lat="46.72891" lon="-1.99214">
        <ele>4.1</ele>
        <time>2025-01-20T08:05:23.456Z</time>
      </trkpt>
      <trkpt lat="46.72892" lon="-1.99216">
        <ele>4.2</ele>
        <time>2025-01-20T08:05:24.456Z</time>
      </trkpt>
      <trkpt lat="46.72893" lon="-1.99217">
        <ele>4.3</ele>
        <time>2025-01-20T08:05:25.455Z</time>
      </trkpt>
      <trkpt lat="46.72894" lon="-1.99218">
        <ele>4.3</ele>
        <time>2025-01-20T08:05:26.455Z</time>
      </trkpt>
      <trkpt lat="46.72895" lon="-1.99219">
        <ele>4.4</ele>
        <time>2025-01-20T08:05:27.455Z</time>
      </trkpt>
      <trkpt lat="46.72895" lon="-1.99221">
        <ele>4.4</ele>
        <time>2025-01-20T08:05:28.456Z</time>
      </trkpt>
      <trkpt lat="46.72896" lon="-1.99223">
        <ele>4.5</ele>
        <time>2025-01-20T08:05:29.455Z</time>
      </trkpt>
      <trkpt lat="46.72897" lon="-1.99224">
        <ele>4.6</ele>
        <time>2025-01-20T08:05:30.455Z</time>
      </trkpt>
      <trkpt lat="46.72898" lon="-1.99226">
        <ele>4.6</ele>
        <time>2025-01-20T08:05:31.455Z</time>
      </trkpt>
      <trkpt lat="46.72899" lon="-1.99227">
        <ele>4.7</ele>
        <time>2025-01-20T08:05:32.455Z</time>
      </trkpt>
      <trkpt lat="46.729" lon="-1.99229">
        <ele>4.7</ele>
        <time>2025-01-20T08:05:33.455Z</time>
      </trkpt>
      <trkpt lat="46.72901" lon="-1.9923">
        <ele>4.7</ele>
        <time>2025-01-20T08:05:34.456Z</time>
      </trkpt>
      <trkpt lat="46.72903" lon="-1.99231">
        <ele>4.9</ele>
        <time>2025-01-20T08:05:35.456Z</time>
      </trkpt>
      <trkpt lat="46.72904" lon="-1.99232">
        <ele>4.9</ele>
        <time>2025-01-20T08:05:36.456Z</time>
      </trkpt>
      <trkpt lat="46.72905" lon="-1.99233">
        <ele>4.9</ele>
        <time>2025-01-20T08:05:37.455Z</time>
      </trkpt>
      <trkpt lat="46.72906" lon="-1.99235">
        <ele>4.9</ele>
        <time>2025-01-20T08:05:38.456Z</time>
      </trkpt>
      <trkpt lat="46.72907" lon="-1.99236">
        <ele>5</ele>
        <time>2025-01-20T08:05:39.456Z</time>
      </trkpt>
      <trkpt lat="46.72908" lon="-1.99237">
        <ele>5</ele>
        <time>2025-01-20T08:05:40.455Z</time>
      </trkpt>
      <trkpt lat="46.72909" lon="-1.99239">
        <ele>5</ele>
        <time>2025-01-20T08:05:41.455Z</time>
      </trkpt>
      <trkpt lat="46.7291" lon="-1.9924">
        <ele>5</ele>
        <time>2025-01-20T08:05:42.455Z</time>
      </trkpt>
      <trkpt lat="46.72911" lon="-1.99241">
        <ele>5.1</ele>
        <time>2025-01-20T08:05:43.455Z</time>
      </trkpt>
      <trkpt lat="46.72911" lon="-1.99242">
        <ele>5</ele>
        <time>2025-01-20T08:05:44.456Z</time>
      </trkpt>
      <trkpt lat="46.72913" lon="-1.99243">
        <ele>5.1</ele>
        <time>2025-01-20T08:05:45.456Z</time>
      </trkpt>
      <trkpt lat="46.72914" lon="-1.99245">
        <ele>5.1</ele>
        <time>2025-01-20T08:05:46.455Z</time>
      </trkpt>
      <trkpt lat="46.72915" lon="-1.99246">
        <ele>5.1</ele>
        <time>2025-01-20T08:05:47.455Z</time>
      </trkpt>
      <trkpt lat="46.72915" lon="-1.99248">
        <ele>5</ele>
        <time>2025-01-20T08:05:48.456Z</time>
      </trkpt>
      <trkpt lat="46.72916" lon="-1.99249">
        <ele>5</ele>
        <time>2025-01-20T08:05:49.456Z</time>
      </trkpt>
      <trkpt lat="46.72917" lon="-1.9925">
        <ele>5</ele>
        <time>2025-01-20T08:05:50.455Z</time>
      </trkpt>
      <trkpt lat="46.72918" lon="-1.99251">
        <ele>5.1</ele>
        <time>2025-01-20T08:05:51.455Z</time>
      </trkpt>
      <trkpt lat="46.72919" lon="-1.99252">
        <ele>5.2</ele>
        <time>2025-01-20T08:05:52.456Z</time>
      </trkpt>
      <trkpt lat="46.7292" lon="-1.99253">
        <ele>5.3</ele>
        <time>2025-01-20T08:05:53.456Z</time>
      </trkpt>
      <trkpt lat="46.72921" lon="-1.99254">
        <ele>5.4</ele>
        <time>2025-01-20T08:05:54.456Z</time>
      </trkpt>
      <trkpt lat="46.72922" lon="-1.99255">
        <ele>5.4</ele>
        <time>2025-01-20T08:05:55.456Z</time>
      </trkpt>
      <trkpt lat="46.72922" lon="-1.99256">
        <ele>5.4</ele>
        <time>2025-01-20T08:05:56.455Z</time>
      </trkpt>
      <trkpt lat="46.72923" lon="-1.99257">
        <ele>5.5</ele>
        <time>2025-01-20T08:05:57.456Z</time>
      </trkpt>
      <trkpt lat="46.72924" lon="-1.99258">
        <ele>5.5</ele>
        <time>2025-01-20T08:05:58.456Z</time>
      </trkpt>
      <trkpt lat="46.72925" lon="-1.99259">
        <ele>5.5</ele>
        <time>2025-01-20T08:05:59.456Z</time>
      </trkpt>
      <trkpt lat="46.72926" lon="-1.9926">
        <ele>5.5</ele>
        <time>2025-01-20T08:06:00.456Z</time>
      </trkpt>
      <trkpt lat="46.72927" lon="-1.99261">
        <ele>5.5</ele>
        <time>2025-01-20T08:06:01.456Z</time>
      </trkpt>
      <trkpt lat="46.72928" lon="-1.99262">
        <ele>5.5</ele>
        <time>2025-01-20T08:06:02.455Z</time>
      </trkpt>
      <trkpt lat="46.72929" lon="-1.99263">
        <ele>5.5</ele>
        <time>2025-01-20T08:06:03.455Z</time>
      </trkpt>
      <trkpt lat="46.7293" lon="-1.99264">
        <ele>5.5</ele>
        <time>2025-01-20T08:06:04.455Z</time>
      </trkpt>
      <trkpt lat="46.72931" lon="-1.99266">
        <ele>5.4</ele>
        <time>2025-01-20T08:06:05.455Z</time>
      </trkpt>
      <trkpt lat="46.72931" lon="-1.99267">
        <ele>5.3</ele>
        <time>2025-01-20T08:06:06.455Z</time>
      </trkpt>
      <trkpt lat="46.72932" lon="-1.99269">
        <ele>5.1</ele>
        <time>2025-01-20T08:06:07.456Z</time>
      </trkpt>
      <trkpt lat="46.72933" lon="-1.9927">
        <ele>5.1</ele>
        <time>2025-01-20T08:06:08.456Z</time>
      </trkpt>
      <trkpt lat="46.72934" lon="-1.99271">
        <ele>5</ele>
        <time>2025-01-20T08:06:09.456Z</time>
      </trkpt>
      <trkpt lat="46.72935" lon="-1.99273">
        <ele>4.8</ele>
        <time>2025-01-20T08:06:10.456Z</time>
      </trkpt>
      <trkpt lat="46.72936" lon="-1.99274">
        <ele>4.7</ele>
        <time>2025-01-20T08:06:11.456Z</time>
      </trkpt>
      <trkpt lat="46.72936" lon="-1.99276">
        <ele>4.5</ele>
        <time>2025-01-20T08:06:12.456Z</time>
      </trkpt>
      <trkpt lat="46.72937" lon="-1.99277">
        <ele>4.3</ele>
        <time>2025-01-20T08:06:13.456Z</time>
      </trkpt>
      <trkpt lat="46.72938" lon="-1.99278">
        <ele>4.2</ele>
        <time>2025-01-20T08:06:14.455Z</time>
      </trkpt>
      <trkpt lat="46.72939" lon="-1.9928">
        <ele>4.1</ele>
        <time>2025-01-20T08:06:15.455Z</time>
      </trkpt>
      <trkpt lat="46.72941" lon="-1.99281">
        <ele>4</ele>
        <time>2025-01-20T08:06:16.455Z</time>
      </trkpt>
      <trkpt lat="46.72942" lon="-1.99282">
        <ele>4</ele>
        <time>2025-01-20T08:06:17.456Z</time>
      </trkpt>
      <trkpt lat="46.72943" lon="-1.99283">
        <ele>3.9</ele>
        <time>2025-01-20T08:06:18.456Z</time>
      </trkpt>
      <trkpt lat="46.72944" lon="-1.99285">
        <ele>3.8</ele>
        <time>2025-01-20T08:06:19.456Z</time>
      </trkpt>
      <trkpt lat="46.72945" lon="-1.99286">
        <ele>3.7</ele>
        <time>2025-01-20T08:06:20.456Z</time>
      </trkpt>
      <trkpt lat="46.72946" lon="-1.99288">
        <ele>3.7</ele>
        <time>2025-01-20T08:06:21.455Z</time>
      </trkpt>
      <trkpt lat="46.72947" lon="-1.99289">
        <ele>3.7</ele>
        <time>2025-01-20T08:06:22.456Z</time>
      </trkpt>
      <trkpt lat="46.72948" lon="-1.99291">
        <ele>3.6</ele>
        <time>2025-01-20T08:06:23.455Z</time>
      </trkpt>
      <trkpt lat="46.72948" lon="-1.99292">
        <ele>3.6</ele>
        <time>2025-01-20T08:06:24.455Z</time>
      </trkpt>
      <trkpt lat="46.72949" lon="-1.99293">
        <ele>3.5</ele>
        <time>2025-01-20T08:06:25.455Z</time>
      </trkpt>
      <trkpt lat="46.72951" lon="-1.99295">
        <ele>3.5</ele>
        <time>2025-01-20T08:06:26.455Z</time>
      </trkpt>
      <trkpt lat="46.72951" lon="-1.99296">
        <ele>3.4</ele>
        <time>2025-01-20T08:06:27.455Z</time>
      </trkpt>
      <trkpt lat="46.72953" lon="-1.99298">
        <ele>3.4</ele>
        <time>2025-01-20T08:06:28.456Z</time>
      </trkpt>
      <trkpt lat="46.72953" lon="-1.993">
        <ele>3.3</ele>
        <time>2025-01-20T08:06:29.455Z</time>
      </trkpt>
      <trkpt lat="46.72954" lon="-1.99302">
        <ele>3.2</ele>
        <time>2025-01-20T08:06:30.455Z</time>
      </trkpt>
      <trkpt lat="46.72955" lon="-1.99303">
        <ele>3.1</ele>
        <time>2025-01-20T08:06:31.455Z</time>
      </trkpt>
      <trkpt lat="46.72956" lon="-1.99304">
        <ele>3.1</ele>
        <time>2025-01-20T08:06:32.455Z</time>
      </trkpt>
      <trkpt lat="46.72958" lon="-1.99306">
        <ele>3</ele>
        <time>2025-01-20T08:06:33.455Z</time>
      </trkpt>
      <trkpt lat="46.72959" lon="-1.99307">
        <ele>3</ele>
        <time>2025-01-20T08:06:34.456Z</time>
      </trkpt>
      <trkpt lat="46.7296" lon="-1.99309">
        <ele>3.1</ele>
        <time>2025-01-20T08:06:35.456Z</time>
      </trkpt>
      <trkpt lat="46.72961" lon="-1.9931">
        <ele>3.1</ele>
        <time>2025-01-20T08:06:36.456Z</time>
      </trkpt>
      <trkpt lat="46.72962" lon="-1.99311">
        <ele>3.1</ele>
        <time>2025-01-20T08:06:37.456Z</time>
      </trkpt>
      <trkpt lat="46.72963" lon="-1.99313">
        <ele>3.1</ele>
        <time>2025-01-20T08:06:38.456Z</time>
      </trkpt>
      <trkpt lat="46.72964" lon="-1.99314">
        <ele>3.1</ele>
        <time>2025-01-20T08:06:39.455Z</time>
      </trkpt>
      <trkpt lat="46.72965" lon="-1.99316">
        <ele>3.1</ele>
        <time>2025-01-20T08:06:40.455Z</time>
      </trkpt>
      <trkpt lat="46.72966" lon="-1.99317">
        <ele>3.1</ele>
        <time>2025-01-20T08:06:41.455Z</time>
      </trkpt>
      <trkpt lat="46.72966" lon="-1.99318">
        <ele>3.1</ele>
        <time>2025-01-20T08:06:42.455Z</time>
      </trkpt>
      <trkpt lat="46.72968" lon="-1.99319">
        <ele>3.1</ele>
        <time>2025-01-20T08:06:43.455Z</time>
      </trkpt>
      <trkpt lat="46.72969" lon="-1.99321">
        <ele>3.1</ele>
        <time>2025-01-20T08:06:44.455Z</time>
      </trkpt>
      <trkpt lat="46.7297" lon="-1.99322">
        <ele>3</ele>
        <time>2025-01-20T08:06:45.456Z</time>
      </trkpt>
      <trkpt lat="46.72971" lon="-1.99324">
        <ele>3</ele>
        <time>2025-01-20T08:06:46.456Z</time>
      </trkpt>
      <trkpt lat="46.72972" lon="-1.99325">
        <ele>3</ele>
        <time>2025-01-20T08:06:47.456Z</time>
      </trkpt>
      <trkpt lat="46.72973" lon="-1.99326">
        <ele>3.1</ele>
        <time>2025-01-20T08:06:48.455Z</time>
      </trkpt>
      <trkpt lat="46.72974" lon="-1.99326">
        <ele>3.2</ele>
        <time>2025-01-20T08:06:49.455Z</time>
      </trkpt>
      <trkpt lat="46.72975" lon="-1.99327">
        <ele>3.3</ele>
        <time>2025-01-20T08:06:50.455Z</time>
      </trkpt>
      <trkpt lat="46.72977" lon="-1.99327">
        <ele>3.5</ele>
        <time>2025-01-20T08:06:51.455Z</time>
      </trkpt>
      <trkpt lat="46.72978" lon="-1.99327">
        <ele>3.6</ele>
        <time>2025-01-20T08:06:52.456Z</time>
      </trkpt>
      <trkpt lat="46.72979" lon="-1.99328">
        <ele>3.7</ele>
        <time>2025-01-20T08:06:53.456Z</time>
      </trkpt>
      <trkpt lat="46.7298" lon="-1.9933">
        <ele>3.8</ele>
        <time>2025-01-20T08:06:54.456Z</time>
      </trkpt>
      <trkpt lat="46.7298" lon="-1.99331">
        <ele>3.8</ele>
        <time>2025-01-20T08:06:55.456Z</time>
      </trkpt>
      <trkpt lat="46.72981" lon="-1.99331">
        <ele>3.9</ele>
        <time>2025-01-20T08:06:56.455Z</time>
      </trkpt>
      <trkpt lat="46.72982" lon="-1.99332">
        <ele>4.1</ele>
        <time>2025-01-20T08:06:57.455Z</time>
      </trkpt>
      <trkpt lat="46.72983" lon="-1.99334">
        <ele>4.2</ele>
        <time>2025-01-20T08:06:58.455Z</time>
      </trkpt>
      <trkpt lat="46.72983" lon="-1.99336">
        <ele>4.2</ele>
        <time>2025-01-20T08:06:59.455Z</time>
      </trkpt>
      <trkpt lat="46.72984" lon="-1.99337">
        <ele>4.4</ele>
        <time>2025-01-20T08:07:00.455Z</time>
      </trkpt>
      <trkpt lat="46.72985" lon="-1.99338">
        <ele>4.5</ele>
        <time>2025-01-20T08:07:01.455Z</time>
      </trkpt>
      <trkpt lat="46.72986" lon="-1.99339">
        <ele>4.6</ele>
        <time>2025-01-20T08:07:02.456Z</time>
      </trkpt>
      <trkpt lat="46.72987" lon="-1.9934">
        <ele>4.7</ele>
        <time>2025-01-20T08:07:03.456Z</time>
      </trkpt>
      <trkpt lat="46.72988" lon="-1.99341">
        <ele>4.8</ele>
        <time>2025-01-20T08:07:04.456Z</time>
      </trkpt>
      <trkpt lat="46.72988" lon="-1.99342">
        <ele>4.8</ele>
        <time>2025-01-20T08:07:05.456Z</time>
      </trkpt>
      <trkpt lat="46.72989" lon="-1.99343">
        <ele>4.9</ele>
        <time>2025-01-20T08:07:06.455Z</time>
      </trkpt>
      <trkpt lat="46.7299" lon="-1.99343">
        <ele>4.9</ele>
        <time>2025-01-20T08:07:07.455Z</time>
      </trkpt>
      <trkpt lat="46.72991" lon="-1.99344">
        <ele>5</ele>
        <time>2025-01-20T08:07:08.456Z</time>
      </trkpt>
      <trkpt lat="46.72991" lon="-1.99346">
        <ele>5</ele>
        <time>2025-01-20T08:07:09.455Z</time>
      </trkpt>
      <trkpt lat="46.72992" lon="-1.99348">
        <ele>5.1</ele>
        <time>2025-01-20T08:07:10.456Z</time>
      </trkpt>
      <trkpt lat="46.72992" lon="-1.99349">
        <ele>5.1</ele>
        <time>2025-01-20T08:07:11.456Z</time>
      </trkpt>
      <trkpt lat="46.72992" lon="-1.99351">
        <ele>5</ele>
        <time>2025-01-20T08:07:12.456Z</time>
      </trkpt>
      <trkpt lat="46.72991" lon="-1.99352">
        <ele>5</ele>
        <time>2025-01-20T08:07:13.455Z</time>
      </trkpt>
      <trkpt lat="46.72991" lon="-1.99353">
        <ele>5</ele>
        <time>2025-01-20T08:07:14.455Z</time>
      </trkpt>
      <trkpt lat="46.7299" lon="-1.99354">
        <ele>5</ele>
        <time>2025-01-20T08:07:15.456Z</time>
      </trkpt>
      <trkpt lat="46.7299" lon="-1.99355">
        <ele>5</ele>
        <time>2025-01-20T08:07:16.455Z</time>
      </trkpt>
      <trkpt lat="46.72989" lon="-1.99357">
        <ele>5</ele>
        <time>2025-01-20T08:07:17.456Z</time>
      </trkpt>
      <trkpt lat="46.72988" lon="-1.99358">
        <ele>5</ele>
        <time>2025-01-20T08:07:18.456Z</time>
      </trkpt>
      <trkpt lat="46.72987" lon="-1.99359">
        <ele>5</ele>
        <time>2025-01-20T08:07:19.456Z</time>
      </trkpt>
      <trkpt lat="46.72986" lon="-1.9936">
        <ele>5</ele>
        <time>2025-01-20T08:07:20.455Z</time>
      </trkpt>
      <trkpt lat="46.72985" lon="-1.99361">
        <ele>5</ele>
        <time>2025-01-20T08:07:21.455Z</time>
      </trkpt>
      <trkpt lat="46.72985" lon="-1.99362">
        <ele>5.1</ele>
        <time>2025-01-20T08:07:22.455Z</time>
      </trkpt>
      <trkpt lat="46.72984" lon="-1.99363">
        <ele>5.2</ele>
        <time>2025-01-20T08:07:23.455Z</time>
      </trkpt>
      <trkpt lat="46.72983" lon="-1.99364">
        <ele>5.3</ele>
        <time>2025-01-20T08:07:24.456Z</time>
      </trkpt>
      <trkpt lat="46.72982" lon="-1.99366">
        <ele>5.5</ele>
        <time>2025-01-20T08:07:25.456Z</time>
      </trkpt>
      <trkpt lat="46.72981" lon="-1.99366">
        <ele>5.5</ele>
        <time>2025-01-20T08:07:26.456Z</time>
      </trkpt>
      <trkpt lat="46.7298" lon="-1.99367">
        <ele>5.6</ele>
        <time>2025-01-20T08:07:27.455Z</time>
      </trkpt>
      <trkpt lat="46.72979" lon="-1.99368">
        <ele>5.7</ele>
        <time>2025-01-20T08:07:28.456Z</time>
      </trkpt>
      <trkpt lat="46.72979" lon="-1.99369">
        <ele>5.9</ele>
        <time>2025-01-20T08:07:29.455Z</time>
      </trkpt>
      <trkpt lat="46.72978" lon="-1.9937">
        <ele>6</ele>
        <time>2025-01-20T08:07:30.455Z</time>
      </trkpt>
      <trkpt lat="46.72977" lon="-1.99371">
        <ele>6.2</ele>
        <time>2025-01-20T08:07:31.455Z</time>
      </trkpt>
      <trkpt lat="46.72976" lon="-1.99373">
        <ele>6.5</ele>
        <time>2025-01-20T08:07:32.455Z</time>
      </trkpt>
      <trkpt lat="46.72975" lon="-1.99374">
        <ele>6.7</ele>
        <time>2025-01-20T08:07:33.456Z</time>
      </trkpt>
      <trkpt lat="46.72974" lon="-1.99375">
        <ele>6.9</ele>
        <time>2025-01-20T08:07:34.456Z</time>
      </trkpt>
      <trkpt lat="46.72974" lon="-1.99376">
        <ele>7</ele>
        <time>2025-01-20T08:07:35.456Z</time>
      </trkpt>
      <trkpt lat="46.72973" lon="-1.99377">
        <ele>7.2</ele>
        <time>2025-01-20T08:07:36.456Z</time>
      </trkpt>
      <trkpt lat="46.72972" lon="-1.99379">
        <ele>7.6</ele>
        <time>2025-01-20T08:07:37.456Z</time>
      </trkpt>
      <trkpt lat="46.72971" lon="-1.9938">
        <ele>7.7</ele>
        <time>2025-01-20T08:07:38.456Z</time>
      </trkpt>
      <trkpt lat="46.7297" lon="-1.99381">
        <ele>7.8</ele>
        <time>2025-01-20T08:07:39.455Z</time>
      </trkpt>
      <trkpt lat="46.72969" lon="-1.99381">
        <ele>7.8</ele>
        <time>2025-01-20T08:07:40.455Z</time>
      </trkpt>
      <trkpt lat="46.72969" lon="-1.99382">
        <ele>7.9</ele>
        <time>2025-01-20T08:07:41.455Z</time>
      </trkpt>
      <trkpt lat="46.72968" lon="-1.99383">
        <ele>8</ele>
        <time>2025-01-20T08:07:42.455Z</time>
      </trkpt>
      <trkpt lat="46.72967" lon="-1.99385">
        <ele>8.2</ele>
        <time>2025-01-20T08:07:43.456Z</time>
      </trkpt>
      <trkpt lat="46.72967" lon="-1.99386">
        <ele>8.3</ele>
        <time>2025-01-20T08:07:44.456Z</time>
      </trkpt>
      <trkpt lat="46.72966" lon="-1.99387">
        <ele>8.4</ele>
        <time>2025-01-20T08:07:45.455Z</time>
      </trkpt>
      <trkpt lat="46.72965" lon="-1.99388">
        <ele>8.4</ele>
        <time>2025-01-20T08:07:46.455Z</time>
      </trkpt>
      <trkpt lat="46.72965" lon="-1.99389">
        <ele>8.5</ele>
        <time>2025-01-20T08:07:47.455Z</time>
      </trkpt>
      <trkpt lat="46.72964" lon="-1.9939">
        <ele>8.3</ele>
        <time>2025-01-20T08:07:48.456Z</time>
      </trkpt>
      <trkpt lat="46.72964" lon="-1.9939">
        <ele>8.3</ele>
        <time>2025-01-20T08:07:49.455Z</time>
      </trkpt>
      <trkpt lat="46.72963" lon="-1.99391">
        <ele>8.2</ele>
        <time>2025-01-20T08:07:50.455Z</time>
      </trkpt>
      <trkpt lat="46.72962" lon="-1.99392">
        <ele>8.1</ele>
        <time>2025-01-20T08:07:51.455Z</time>
      </trkpt>
      <trkpt lat="46.72962" lon="-1.99393">
        <ele>8</ele>
        <time>2025-01-20T08:07:52.455Z</time>
      </trkpt>
      <trkpt lat="46.72961" lon="-1.99394">
        <ele>7.9</ele>
        <time>2025-01-20T08:07:53.455Z</time>
      </trkpt>
      <trkpt lat="46.72961" lon="-1.99395">
        <ele>7.8</ele>
        <time>2025-01-20T08:07:54.456Z</time>
      </trkpt>
      <trkpt lat="46.7296" lon="-1.99397">
        <ele>7.6</ele>
        <time>2025-01-20T08:07:55.456Z</time>
      </trkpt>
      <trkpt lat="46.7296" lon="-1.99398">
        <ele>7.5</ele>
        <time>2025-01-20T08:07:56.456Z</time>
      </trkpt>
      <trkpt lat="46.7296" lon="-1.99399">
        <ele>7.4</ele>
        <time>2025-01-20T08:07:57.456Z</time>
      </trkpt>
      <trkpt lat="46.7296" lon="-1.994">
        <ele>7.4</ele>
        <time>2025-01-20T08:07:58.456Z</time>
      </trkpt>
      <trkpt lat="46.72959" lon="-1.99402">
        <ele>7.1</ele>
        <time>2025-01-20T08:07:59.456Z</time>
      </trkpt>
      <trkpt lat="46.72959" lon="-1.99404">
        <ele>7</ele>
        <time>2025-01-20T08:08:00.455Z</time>
      </trkpt>
      <trkpt lat="46.72959" lon="-1.99405">
        <ele>6.9</ele>
        <time>2025-01-20T08:08:01.455Z</time>
      </trkpt>
      <trkpt lat="46.72959" lon="-1.99407">
        <ele>6.8</ele>
        <time>2025-01-20T08:08:02.455Z</time>
      </trkpt>
      <trkpt lat="46.72959" lon="-1.99409">
        <ele>6.6</ele>
        <time>2025-01-20T08:08:03.456Z</time>
      </trkpt>
      <trkpt lat="46.72959" lon="-1.9941">
        <ele>6.6</ele>
        <time>2025-01-20T08:08:04.455Z</time>
      </trkpt>
      <trkpt lat="46.72958" lon="-1.99412">
        <ele>6.3</ele>
        <time>2025-01-20T08:08:05.456Z</time>
      </trkpt>
      <trkpt lat="46.72958" lon="-1.99414">
        <ele>6.1</ele>
        <time>2025-01-20T08:08:06.455Z</time>
      </trkpt>
      <trkpt lat="46.72958" lon="-1.99416">
        <ele>6</ele>
        <time>2025-01-20T08:08:07.455Z</time>
      </trkpt>
      <trkpt lat="46.72957" lon="-1.99418">
        <ele>5.7</ele>
        <time>2025-01-20T08:08:08.455Z</time>
      </trkpt>
      <trkpt lat="46.72957" lon="-1.99421">
        <ele>5.4</ele>
        <time>2025-01-20T08:08:09.456Z</time>
      </trkpt>
      <trkpt lat="46.72957" lon="-1.99423">
        <ele>5.1</ele>
        <time>2025-01-20T08:08:10.455Z</time>
      </trkpt>
      <trkpt lat="46.72958" lon="-1.99424">
        <ele>5.2</ele>
        <time>2025-01-20T08:08:11.456Z</time>
      </trkpt>
      <trkpt lat="46.72959" lon="-1.99426">
        <ele>5.1</ele>
        <time>2025-01-20T08:08:12.455Z</time>
      </trkpt>
      <trkpt lat="46.72959" lon="-1.99428">
        <ele>4.9</ele>
        <time>2025-01-20T08:08:13.455Z</time>
      </trkpt>
      <trkpt lat="46.7296" lon="-1.9943">
        <ele>4.7</ele>
        <time>2025-01-20T08:08:14.456Z</time>
      </trkpt>
      <trkpt lat="46.72961" lon="-1.99431">
        <ele>4.7</ele>
        <time>2025-01-20T08:08:15.456Z</time>
      </trkpt>
      <trkpt lat="46.72962" lon="-1.99433">
        <ele>4.6</ele>
        <time>2025-01-20T08:08:16.456Z</time>
      </trkpt>
      <trkpt lat="46.72963" lon="-1.99435">
        <ele>4.5</ele>
        <time>2025-01-20T08:08:17.455Z</time>
      </trkpt>
      <trkpt lat="46.72964" lon="-1.99437">
        <ele>4.3</ele>
        <time>2025-01-20T08:08:18.455Z</time>
      </trkpt>
      <trkpt lat="46.72964" lon="-1.99438">
        <ele>4.2</ele>
        <time>2025-01-20T08:08:19.456Z</time>
      </trkpt>
      <trkpt lat="46.72966" lon="-1.99439">
        <ele>4.2</ele>
        <time>2025-01-20T08:08:20.456Z</time>
      </trkpt>
      <trkpt lat="46.72967" lon="-1.9944">
        <ele>4.2</ele>
        <time>2025-01-20T08:08:21.455Z</time>
      </trkpt>
      <trkpt lat="46.72968" lon="-1.99441">
        <ele>4.2</ele>
        <time>2025-01-20T08:08:22.455Z</time>
      </trkpt>
      <trkpt lat="46.72969" lon="-1.99443">
        <ele>4</ele>
        <time>2025-01-20T08:08:23.455Z</time>
      </trkpt>
      <trkpt lat="46.7297" lon="-1.99444">
        <ele>3.9</ele>
        <time>2025-01-20T08:08:24.455Z</time>
      </trkpt>
      <trkpt lat="46.72971" lon="-1.99446">
        <ele>3.9</ele>
        <time>2025-01-20T08:08:25.456Z</time>
      </trkpt>
      <trkpt lat="46.72972" lon="-1.99447">
        <ele>3.9</ele>
        <time>2025-01-20T08:08:26.456Z</time>
      </trkpt>
      <trkpt lat="46.72973" lon="-1.99449">
        <ele>4</ele>
        <time>2025-01-20T08:08:27.455Z</time>
      </trkpt>
      <trkpt lat="46.72974" lon="-1.9945">
        <ele>4.1</ele>
        <time>2025-01-20T08:08:28.456Z</time>
      </trkpt>
      <trkpt lat="46.72975" lon="-1.9945">
        <ele>4.2</ele>
        <time>2025-01-20T08:08:29.456Z</time>
      </trkpt>
      <trkpt lat="46.72976" lon="-1.99451">
        <ele>4.3</ele>
        <time>2025-01-20T08:08:30.456Z</time>
      </trkpt>
      <trkpt lat="46.72978" lon="-1.99452">
        <ele>4.6</ele>
        <time>2025-01-20T08:08:31.455Z</time>
      </trkpt>
      <trkpt lat="46.72979" lon="-1.99453">
        <ele>4.7</ele>
        <time>2025-01-20T08:08:32.455Z</time>
      </trkpt>
      <trkpt lat="46.7298" lon="-1.99454">
        <ele>4.8</ele>
        <time>2025-01-20T08:08:33.455Z</time>
      </trkpt>
      <trkpt lat="46.72981" lon="-1.99455">
        <ele>4.8</ele>
        <time>2025-01-20T08:08:34.455Z</time>
      </trkpt>
      <trkpt lat="46.72983" lon="-1.99456">
        <ele>5</ele>
        <time>2025-01-20T08:08:35.456Z</time>
      </trkpt>
      <trkpt lat="46.72983" lon="-1.99457">
        <ele>5</ele>
        <time>2025-01-20T08:08:36.455Z</time>
      </trkpt>
      <trkpt lat="46.72984" lon="-1.99458">
        <ele>5</ele>
        <time>2025-01-20T08:08:37.455Z</time>
      </trkpt>
      <trkpt lat="46.72985" lon="-1.9946">
        <ele>5</ele>
        <time>2025-01-20T08:08:38.455Z</time>
      </trkpt>
      <trkpt lat="46.72986" lon="-1.99461">
        <ele>5</ele>
        <time>2025-01-20T08:08:39.455Z</time>
      </trkpt>
      <trkpt lat="46.72987" lon="-1.99461">
        <ele>5.1</ele>
        <time>2025-01-20T08:08:40.455Z</time>
      </trkpt>
      <trkpt lat="46.72989" lon="-1.99462">
        <ele>5.2</ele>
        <time>2025-01-20T08:08:41.455Z</time>
      </trkpt>
      <trkpt lat="46.7299" lon="-1.99462">
        <ele>5.4</ele>
        <time>2025-01-20T08:08:42.456Z</time>
      </trkpt>
      <trkpt lat="46.72991" lon="-1.99463">
        <ele>5.4</ele>
        <time>2025-01-20T08:08:43.456Z</time>
      </trkpt>
      <trkpt lat="46.72992" lon="-1.99464">
        <ele>5.4</ele>
        <time>2025-01-20T08:08:44.456Z</time>
      </trkpt>
      <trkpt lat="46.72993" lon="-1.99464">
        <ele>5.5</ele>
        <time>2025-01-20T08:08:45.455Z</time>
      </trkpt>
      <trkpt lat="46.72994" lon="-1.99465">
        <ele>5.4</ele>
        <time>2025-01-20T08:08:46.455Z</time>
      </trkpt>
      <trkpt lat="46.72995" lon="-1.99466">
        <ele>5.4</ele>
        <time>2025-01-20T08:08:47.456Z</time>
      </trkpt>
      <trkpt lat="46.72996" lon="-1.99467">
        <ele>5.4</ele>
        <time>2025-01-20T08:08:48.455Z</time>
      </trkpt>
      <trkpt lat="46.72997" lon="-1.99468">
        <ele>5.3</ele>
        <time>2025-01-20T08:08:49.455Z</time>
      </trkpt>
      <trkpt lat="46.72998" lon="-1.9947">
        <ele>5.2</ele>
        <time>2025-01-20T08:08:50.455Z</time>
      </trkpt>
      <trkpt lat="46.72999" lon="-1.99471">
        <ele>5.1</ele>
        <time>2025-01-20T08:08:51.455Z</time>
      </trkpt>
      <trkpt lat="46.73001" lon="-1.99472">
        <ele>5.2</ele>
        <time>2025-01-20T08:08:52.456Z</time>
      </trkpt>
      <trkpt lat="46.73002" lon="-1.99474">
        <ele>5.2</ele>
        <time>2025-01-20T08:08:53.456Z</time>
      </trkpt>
      <trkpt lat="46.73003" lon="-1.99475">
        <ele>5.2</ele>
        <time>2025-01-20T08:08:54.456Z</time>
      </trkpt>
      <trkpt lat="46.73004" lon="-1.99476">
        <ele>5.3</ele>
        <time>2025-01-20T08:08:55.456Z</time>
      </trkpt>
      <trkpt lat="46.73005" lon="-1.99477">
        <ele>5.3</ele>
        <time>2025-01-20T08:08:56.456Z</time>
      </trkpt>
      <trkpt lat="46.73006" lon="-1.99479">
        <ele>5.3</ele>
        <time>2025-01-20T08:08:57.456Z</time>
      </trkpt>
      <trkpt lat="46.73007" lon="-1.9948">
        <ele>5.4</ele>
        <time>2025-01-20T08:08:58.455Z</time>
      </trkpt>
      <trkpt lat="46.73008" lon="-1.99481">
        <ele>5.4</ele>
        <time>2025-01-20T08:08:59.455Z</time>
      </trkpt>
      <trkpt lat="46.73009" lon="-1.99482">
        <ele>5.5</ele>
        <time>2025-01-20T08:09:00.455Z</time>
      </trkpt>
      <trkpt lat="46.73011" lon="-1.99483">
        <ele>5.7</ele>
        <time>2025-01-20T08:09:01.456Z</time>
      </trkpt>
      <trkpt lat="46.73012" lon="-1.99484">
        <ele>5.7</ele>
        <time>2025-01-20T08:09:02.455Z</time>
      </trkpt>
      <trkpt lat="46.73013" lon="-1.99485">
        <ele>5.7</ele>
        <time>2025-01-20T08:09:03.456Z</time>
      </trkpt>
      <trkpt lat="46.73014" lon="-1.99487">
        <ele>5.7</ele>
        <time>2025-01-20T08:09:04.455Z</time>
      </trkpt>
      <trkpt lat="46.73015" lon="-1.99488">
        <ele>5.7</ele>
        <time>2025-01-20T08:09:05.455Z</time>
      </trkpt>
      <trkpt lat="46.73016" lon="-1.99489">
        <ele>5.7</ele>
        <time>2025-01-20T08:09:06.455Z</time>
      </trkpt>
      <trkpt lat="46.73017" lon="-1.99491">
        <ele>5.7</ele>
        <time>2025-01-20T08:09:07.456Z</time>
      </trkpt>
      <trkpt lat="46.73018" lon="-1.99492">
        <ele>5.7</ele>
        <time>2025-01-20T08:09:08.455Z</time>
      </trkpt>
      <trkpt lat="46.7302" lon="-1.99494">
        <ele>5.7</ele>
        <time>2025-01-20T08:09:09.456Z</time>
      </trkpt>
      <trkpt lat="46.73021" lon="-1.99495">
        <ele>5.8</ele>
        <time>2025-01-20T08:09:10.455Z</time>
      </trkpt>
      <trkpt lat="46.73022" lon="-1.99496">
        <ele>5.8</ele>
        <time>2025-01-20T08:09:11.456Z</time>
      </trkpt>
      <trkpt lat="46.73023" lon="-1.99497">
        <ele>5.8</ele>
        <time>2025-01-20T08:09:12.455Z</time>
      </trkpt>
      <trkpt lat="46.73024" lon="-1.99499">
        <ele>5.7</ele>
        <time>2025-01-20T08:09:13.455Z</time>
      </trkpt>
      <trkpt lat="46.73025" lon="-1.995">
        <ele>5.7</ele>
        <time>2025-01-20T08:09:14.455Z</time>
      </trkpt>
      <trkpt lat="46.73027" lon="-1.995">
        <ele>5.9</ele>
        <time>2025-01-20T08:09:15.455Z</time>
      </trkpt>
      <trkpt lat="46.73028" lon="-1.99502">
        <ele>5.8</ele>
        <time>2025-01-20T08:09:16.455Z</time>
      </trkpt>
      <trkpt lat="46.73028" lon="-1.99503">
        <ele>5.7</ele>
        <time>2025-01-20T08:09:17.455Z</time>
      </trkpt>
      <trkpt lat="46.7303" lon="-1.99504">
        <ele>5.9</ele>
        <time>2025-01-20T08:09:18.455Z</time>
      </trkpt>
      <trkpt lat="46.73031" lon="-1.99505">
        <ele>5.9</ele>
        <time>2025-01-20T08:09:19.456Z</time>
      </trkpt>
      <trkpt lat="46.73032" lon="-1.99506">
        <ele>6</ele>
        <time>2025-01-20T08:09:20.456Z</time>
      </trkpt>
      <trkpt lat="46.73033" lon="-1.99508">
        <ele>5.9</ele>
        <time>2025-01-20T08:09:21.456Z</time>
      </trkpt>
      <trkpt lat="46.73034" lon="-1.99509">
        <ele>5.9</ele>
        <time>2025-01-20T08:09:22.456Z</time>
      </trkpt>
      <trkpt lat="46.73035" lon="-1.99511">
        <ele>5.9</ele>
        <time>2025-01-20T08:09:23.455Z</time>
      </trkpt>
      <trkpt lat="46.73036" lon="-1.99512">
        <ele>5.9</ele>
        <time>2025-01-20T08:09:24.455Z</time>
      </trkpt>
      <trkpt lat="46.73037" lon="-1.99514">
        <ele>5.8</ele>
        <time>2025-01-20T08:09:25.455Z</time>
      </trkpt>
      <trkpt lat="46.73038" lon="-1.99515">
        <ele>5.9</ele>
        <time>2025-01-20T08:09:26.455Z</time>
      </trkpt>
      <trkpt lat="46.73039" lon="-1.99516">
        <ele>5.9</ele>
        <time>2025-01-20T08:09:27.456Z</time>
      </trkpt>
      <trkpt lat="46.7304" lon="-1.99518">
        <ele>5.8</ele>
        <time>2025-01-20T08:09:28.456Z</time>
      </trkpt>
      <trkpt lat="46.73041" lon="-1.99519">
        <ele>5.9</ele>
        <time>2025-01-20T08:09:29.456Z</time>
      </trkpt>
      <trkpt lat="46.73042" lon="-1.9952">
        <ele>5.9</ele>
        <time>2025-01-20T08:09:30.455Z</time>
      </trkpt>
      <trkpt lat="46.73044" lon="-1.99521">
        <ele>6.1</ele>
        <time>2025-01-20T08:09:31.456Z</time>
      </trkpt>
      <trkpt lat="46.73045" lon="-1.99523">
        <ele>6</ele>
        <time>2025-01-20T08:09:32.456Z</time>
      </trkpt>
      <trkpt lat="46.73046" lon="-1.99525">
        <ele>5.9</ele>
        <time>2025-01-20T08:09:33.456Z</time>
      </trkpt>
      <trkpt lat="46.73047" lon="-1.99526">
        <ele>6</ele>
        <time>2025-01-20T08:09:34.455Z</time>
      </trkpt>
      <trkpt lat="46.73048" lon="-1.99528">
        <ele>5.9</ele>
        <time>2025-01-20T08:09:35.455Z</time>
      </trkpt>
      <trkpt lat="46.73049" lon="-1.99529">
        <ele>5.9</ele>
        <time>2025-01-20T08:09:36.455Z</time>
      </trkpt>
      <trkpt lat="46.7305" lon="-1.99531">
        <ele>5.9</ele>
        <time>2025-01-20T08:09:37.456Z</time>
      </trkpt>
      <trkpt lat="46.73051" lon="-1.99532">
        <ele>5.9</ele>
        <time>2025-01-20T08:09:38.455Z</time>
      </trkpt>
      <trkpt lat="46.73052" lon="-1.99532">
        <ele>6.1</ele>
        <time>2025-01-20T08:09:39.455Z</time>
      </trkpt>
      <trkpt lat="46.73053" lon="-1.99534">
        <ele>6</ele>
        <time>2025-01-20T08:09:40.455Z</time>
      </trkpt>
      <trkpt lat="46.73054" lon="-1.99535">
        <ele>6</ele>
        <time>2025-01-20T08:09:41.456Z</time>
      </trkpt>
      <trkpt lat="46.73055" lon="-1.99536">
        <ele>6</ele>
        <time>2025-01-20T08:09:42.456Z</time>
      </trkpt>
      <trkpt lat="46.73056" lon="-1.99538">
        <ele>5.9</ele>
        <time>2025-01-20T08:09:43.456Z</time>
      </trkpt>
      <trkpt lat="46.73056" lon="-1.9954">
        <ele>5.7</ele>
        <time>2025-01-20T08:09:44.455Z</time>
      </trkpt>
      <trkpt lat="46.73057" lon="-1.99541">
        <ele>5.7</ele>
        <time>2025-01-20T08:09:45.455Z</time>
      </trkpt>
      <trkpt lat="46.73058" lon="-1.99542">
        <ele>5.7</ele>
        <time>2025-01-20T08:09:46.455Z</time>
      </trkpt>
      <trkpt lat="46.7306" lon="-1.99543">
        <ele>5.9</ele>
        <time>2025-01-20T08:09:47.456Z</time>
      </trkpt>
      <trkpt lat="46.7306" lon="-1.99545">
        <ele>5.7</ele>
        <time>2025-01-20T08:09:48.456Z</time>
      </trkpt>
      <trkpt lat="46.73061" lon="-1.99546">
        <ele>5.7</ele>
        <time>2025-01-20T08:09:49.455Z</time>
      </trkpt>
      <trkpt lat="46.73062" lon="-1.99547">
        <ele>5.7</ele>
        <time>2025-01-20T08:09:50.455Z</time>
      </trkpt>
      <trkpt lat="46.73063" lon="-1.99548">
        <ele>5.7</ele>
        <time>2025-01-20T08:09:51.455Z</time>
      </trkpt>
      <trkpt lat="46.73064" lon="-1.99549">
        <ele>5.8</ele>
        <time>2025-01-20T08:09:52.456Z</time>
      </trkpt>
      <trkpt lat="46.73064" lon="-1.99551">
        <ele>5.6</ele>
        <time>2025-01-20T08:09:53.455Z</time>
      </trkpt>
      <trkpt lat="46.73066" lon="-1.99552">
        <ele>5.8</ele>
        <time>2025-01-20T08:09:54.455Z</time>
      </trkpt>
      <trkpt lat="46.73067" lon="-1.99552">
        <ele>5.9</ele>
        <time>2025-01-20T08:09:55.455Z</time>
      </trkpt>
      <trkpt lat="46.73068" lon="-1.99554">
        <ele>5.9</ele>
        <time>2025-01-20T08:09:56.456Z</time>
      </trkpt>
      <trkpt lat="46.73069" lon="-1.99555">
        <ele>6</ele>
        <time>2025-01-20T08:09:57.456Z</time>
      </trkpt>
      <trkpt lat="46.7307" lon="-1.99556">
        <ele>6</ele>
        <time>2025-01-20T08:09:58.455Z</time>
      </trkpt>
      <trkpt lat="46.7307" lon="-1.99558">
        <ele>5.8</ele>
        <time>2025-01-20T08:09:59.456Z</time>
      </trkpt>
      <trkpt lat="46.73071" lon="-1.99559">
        <ele>5.8</ele>
        <time>2025-01-20T08:10:00.456Z</time>
      </trkpt>
      <trkpt lat="46.73072" lon="-1.9956">
        <ele>5.9</ele>
        <time>2025-01-20T08:10:01.456Z</time>
      </trkpt>
      <trkpt lat="46.73073" lon="-1.99561">
        <ele>5.9</ele>
        <time>2025-01-20T08:10:02.456Z</time>
      </trkpt>
      <trkpt lat="46.73074" lon="-1.99563">
        <ele>5.8</ele>
        <time>2025-01-20T08:10:03.455Z</time>
      </trkpt>
      <trkpt lat="46.73075" lon="-1.99564">
        <ele>5.8</ele>
        <time>2025-01-20T08:10:04.455Z</time>
      </trkpt>
      <trkpt lat="46.73076" lon="-1.99566">
        <ele>5.6</ele>
        <time>2025-01-20T08:10:05.456Z</time>
      </trkpt>
      <trkpt lat="46.73077" lon="-1.99567">
        <ele>5.6</ele>
        <time>2025-01-20T08:10:06.455Z</time>
      </trkpt>
      <trkpt lat="46.73078" lon="-1.99568">
        <ele>5.6</ele>
        <time>2025-01-20T08:10:07.455Z</time>
      </trkpt>
      <trkpt lat="46.73079" lon="-1.99569">
        <ele>5.6</ele>
        <time>2025-01-20T08:10:08.456Z</time>
      </trkpt>
      <trkpt lat="46.7308" lon="-1.9957">
        <ele>5.6</ele>
        <time>2025-01-20T08:10:09.456Z</time>
      </trkpt>
      <trkpt lat="46.73081" lon="-1.99571">
        <ele>5.5</ele>
        <time>2025-01-20T08:10:10.455Z</time>
      </trkpt>
      <trkpt lat="46.73082" lon="-1.99573">
        <ele>5.4</ele>
        <time>2025-01-20T08:10:11.455Z</time>
      </trkpt>
      <trkpt lat="46.73083" lon="-1.99574">
        <ele>5.3</ele>
        <time>2025-01-20T08:10:12.456Z</time>
      </trkpt>
      <trkpt lat="46.73084" lon="-1.99576">
        <ele>5.1</ele>
        <time>2025-01-20T08:10:13.455Z</time>
      </trkpt>
      <trkpt lat="46.73085" lon="-1.99577">
        <ele>5.1</ele>
        <time>2025-01-20T08:10:14.455Z</time>
      </trkpt>
      <trkpt lat="46.73086" lon="-1.99578">
        <ele>5.1</ele>
        <time>2025-01-20T08:10:15.456Z</time>
      </trkpt>
      <trkpt lat="46.73087" lon="-1.99579">
        <ele>5.1</ele>
        <time>2025-01-20T08:10:16.456Z</time>
      </trkpt>
      <trkpt lat="46.73088" lon="-1.99581">
        <ele>5.1</ele>
        <time>2025-01-20T08:10:17.456Z</time>
      </trkpt>
      <trkpt lat="46.73089" lon="-1.99582">
        <ele>5.1</ele>
        <time>2025-01-20T08:10:18.455Z</time>
      </trkpt>
      <trkpt lat="46.7309" lon="-1.99584">
        <ele>5.2</ele>
        <time>2025-01-20T08:10:19.456Z</time>
      </trkpt>
      <trkpt lat="46.73091" lon="-1.99586">
        <ele>5.2</ele>
        <time>2025-01-20T08:10:20.455Z</time>
      </trkpt>
      <trkpt lat="46.73092" lon="-1.99587">
        <ele>5.3</ele>
        <time>2025-01-20T08:10:21.456Z</time>
      </trkpt>
      <trkpt lat="46.73093" lon="-1.99589">
        <ele>5.3</ele>
        <time>2025-01-20T08:10:22.455Z</time>
      </trkpt>
      <trkpt lat="46.73094" lon="-1.9959">
        <ele>5.4</ele>
        <time>2025-01-20T08:10:23.456Z</time>
      </trkpt>
      <trkpt lat="46.73095" lon="-1.99591">
        <ele>5.5</ele>
        <time>2025-01-20T08:10:24.456Z</time>
      </trkpt>
      <trkpt lat="46.73096" lon="-1.99592">
        <ele>5.5</ele>
        <time>2025-01-20T08:10:25.456Z</time>
      </trkpt>
      <trkpt lat="46.73097" lon="-1.99593">
        <ele>5.6</ele>
        <time>2025-01-20T08:10:26.456Z</time>
      </trkpt>
      <trkpt lat="46.73099" lon="-1.99594">
        <ele>5.8</ele>
        <time>2025-01-20T08:10:27.456Z</time>
      </trkpt>
      <trkpt lat="46.731" lon="-1.99595">
        <ele>5.8</ele>
        <time>2025-01-20T08:10:28.455Z</time>
      </trkpt>
      <trkpt lat="46.73101" lon="-1.99596">
        <ele>5.9</ele>
        <time>2025-01-20T08:10:29.456Z</time>
      </trkpt>
      <trkpt lat="46.73102" lon="-1.99598">
        <ele>5.8</ele>
        <time>2025-01-20T08:10:30.456Z</time>
      </trkpt>
      <trkpt lat="46.73103" lon="-1.99599">
        <ele>5.8</ele>
        <time>2025-01-20T08:10:31.455Z</time>
      </trkpt>
      <trkpt lat="46.73104" lon="-1.996">
        <ele>5.8</ele>
        <time>2025-01-20T08:10:32.455Z</time>
      </trkpt>
      <trkpt lat="46.73105" lon="-1.99602">
        <ele>5.7</ele>
        <time>2025-01-20T08:10:33.455Z</time>
      </trkpt>
      <trkpt lat="46.73106" lon="-1.99604">
        <ele>5.5</ele>
        <time>2025-01-20T08:10:34.455Z</time>
      </trkpt>
      <trkpt lat="46.73107" lon="-1.99606">
        <ele>5.4</ele>
        <time>2025-01-20T08:10:35.456Z</time>
      </trkpt>
      <trkpt lat="46.73108" lon="-1.99607">
        <ele>5.3</ele>
        <time>2025-01-20T08:10:36.455Z</time>
      </trkpt>
      <trkpt lat="46.73109" lon="-1.99608">
        <ele>5.3</ele>
        <time>2025-01-20T08:10:37.455Z</time>
      </trkpt>
      <trkpt lat="46.7311" lon="-1.9961">
        <ele>5.1</ele>
        <time>2025-01-20T08:10:38.456Z</time>
      </trkpt>
      <trkpt lat="46.7311" lon="-1.99611">
        <ele>4.9</ele>
        <time>2025-01-20T08:10:39.456Z</time>
      </trkpt>
      <trkpt lat="46.73111" lon="-1.99612">
        <ele>4.9</ele>
        <time>2025-01-20T08:10:40.456Z</time>
      </trkpt>
      <trkpt lat="46.73112" lon="-1.99613">
        <ele>5</ele>
        <time>2025-01-20T08:10:41.456Z</time>
      </trkpt>
      <trkpt lat="46.73113" lon="-1.99615">
        <ele>5</ele>
        <time>2025-01-20T08:10:42.456Z</time>
      </trkpt>
      <trkpt lat="46.73114" lon="-1.99616">
        <ele>5.1</ele>
        <time>2025-01-20T08:10:43.455Z</time>
      </trkpt>
      <trkpt lat="46.73115" lon="-1.99618">
        <ele>5.1</ele>
        <time>2025-01-20T08:10:44.455Z</time>
      </trkpt>
      <trkpt lat="46.73116" lon="-1.99619">
        <ele>5.1</ele>
        <time>2025-01-20T08:10:45.455Z</time>
      </trkpt>
      <trkpt lat="46.73117" lon="-1.99621">
        <ele>5.1</ele>
        <time>2025-01-20T08:10:46.455Z</time>
      </trkpt>
      <trkpt lat="46.73118" lon="-1.99622">
        <ele>5.2</ele>
        <time>2025-01-20T08:10:47.455Z</time>
      </trkpt>
      <trkpt lat="46.73119" lon="-1.99623">
        <ele>5.3</ele>
        <time>2025-01-20T08:10:48.455Z</time>
      </trkpt>
      <trkpt lat="46.7312" lon="-1.99624">
        <ele>5.4</ele>
        <time>2025-01-20T08:10:49.455Z</time>
      </trkpt>
      <trkpt lat="46.73121" lon="-1.99626">
        <ele>5.4</ele>
        <time>2025-01-20T08:10:50.455Z</time>
      </trkpt>
      <trkpt lat="46.73122" lon="-1.99627">
        <ele>5.4</ele>
        <time>2025-01-20T08:10:51.455Z</time>
      </trkpt>
      <trkpt lat="46.73123" lon="-1.99628">
        <ele>5.5</ele>
        <time>2025-01-20T08:10:52.455Z</time>
      </trkpt>
      <trkpt lat="46.73124" lon="-1.99629">
        <ele>5.6</ele>
        <time>2025-01-20T08:10:53.456Z</time>
      </trkpt>
      <trkpt lat="46.73125" lon="-1.99631">
        <ele>5.6</ele>
        <time>2025-01-20T08:10:54.456Z</time>
      </trkpt>
      <trkpt lat="46.73126" lon="-1.99632">
        <ele>5.6</ele>
        <time>2025-01-20T08:10:55.456Z</time>
      </trkpt>
      <trkpt lat="46.73127" lon="-1.99634">
        <ele>5.6</ele>
        <time>2025-01-20T08:10:56.456Z</time>
      </trkpt>
      <trkpt lat="46.73128" lon="-1.99635">
        <ele>5.7</ele>
        <time>2025-01-20T08:10:57.456Z</time>
      </trkpt>
      <trkpt lat="46.73128" lon="-1.99636">
        <ele>5.6</ele>
        <time>2025-01-20T08:10:58.455Z</time>
      </trkpt>
      <trkpt lat="46.73129" lon="-1.99637">
        <ele>5.7</ele>
        <time>2025-01-20T08:10:59.455Z</time>
      </trkpt>
      <trkpt lat="46.7313" lon="-1.99638">
        <ele>5.8</ele>
        <time>2025-01-20T08:11:00.455Z</time>
      </trkpt>
      <trkpt lat="46.73131" lon="-1.99639">
        <ele>5.9</ele>
        <time>2025-01-20T08:11:01.455Z</time>
      </trkpt>
      <trkpt lat="46.73132" lon="-1.99641">
        <ele>5.8</ele>
        <time>2025-01-20T08:11:02.455Z</time>
      </trkpt>
      <trkpt lat="46.73133" lon="-1.99642">
        <ele>5.9</ele>
        <time>2025-01-20T08:11:03.456Z</time>
      </trkpt>
      <trkpt lat="46.73133" lon="-1.99643">
        <ele>5.8</ele>
        <time>2025-01-20T08:11:04.455Z</time>
      </trkpt>
      <trkpt lat="46.73134" lon="-1.99644">
        <ele>5.8</ele>
        <time>2025-01-20T08:11:05.455Z</time>
      </trkpt>
      <trkpt lat="46.73135" lon="-1.99645">
        <ele>5.8</ele>
        <time>2025-01-20T08:11:06.455Z</time>
      </trkpt>
      <trkpt lat="46.73136" lon="-1.99647">
        <ele>5.8</ele>
        <time>2025-01-20T08:11:07.455Z</time>
      </trkpt>
      <trkpt lat="46.73137" lon="-1.99648">
        <ele>5.8</ele>
        <time>2025-01-20T08:11:08.456Z</time>
      </trkpt>
      <trkpt lat="46.73137" lon="-1.99649">
        <ele>5.7</ele>
        <time>2025-01-20T08:11:09.456Z</time>
      </trkpt>
      <trkpt lat="46.73138" lon="-1.9965">
        <ele>5.7</ele>
        <time>2025-01-20T08:11:10.455Z</time>
      </trkpt>
      <trkpt lat="46.73139" lon="-1.99652">
        <ele>5.6</ele>
        <time>2025-01-20T08:11:11.456Z</time>
      </trkpt>
      <trkpt lat="46.7314" lon="-1.99653">
        <ele>5.6</ele>
        <time>2025-01-20T08:11:12.456Z</time>
      </trkpt>
      <trkpt lat="46.73141" lon="-1.99655">
        <ele>5.5</ele>
        <time>2025-01-20T08:11:13.456Z</time>
      </trkpt>
      <trkpt lat="46.73142" lon="-1.99656">
        <ele>5.5</ele>
        <time>2025-01-20T08:11:14.455Z</time>
      </trkpt>
      <trkpt lat="46.73143" lon="-1.99658">
        <ele>5.4</ele>
        <time>2025-01-20T08:11:15.455Z</time>
      </trkpt>
      <trkpt lat="46.73144" lon="-1.99659">
        <ele>5.5</ele>
        <time>2025-01-20T08:11:16.455Z</time>
      </trkpt>
      <trkpt lat="46.73144" lon="-1.9966">
        <ele>5.4</ele>
        <time>2025-01-20T08:11:17.455Z</time>
      </trkpt>
      <trkpt lat="46.73145" lon="-1.99661">
        <ele>5.4</ele>
        <time>2025-01-20T08:11:18.455Z</time>
      </trkpt>
      <trkpt lat="46.73145" lon="-1.99661">
        <ele>5.4</ele>
        <time>2025-01-20T08:11:19.456Z</time>
      </trkpt>
      <trkpt lat="46.73145" lon="-1.99662">
        <ele>5.3</ele>
        <time>2025-01-20T08:11:20.455Z</time>
      </trkpt>
      <trkpt lat="46.73145" lon="-1.99662">
        <ele>5.3</ele>
        <time>2025-01-20T08:11:21.455Z</time>
      </trkpt>
      <trkpt lat="46.73146" lon="-1.99664">
        <ele>5.3</ele>
        <time>2025-01-20T08:11:22.455Z</time>
      </trkpt>
      <trkpt lat="46.73147" lon="-1.99664">
        <ele>5.4</ele>
        <time>2025-01-20T08:11:23.455Z</time>
      </trkpt>
      <trkpt lat="46.73148" lon="-1.99666">
        <ele>5.4</ele>
        <time>2025-01-20T08:11:24.455Z</time>
      </trkpt>
      <trkpt lat="46.7315" lon="-1.99668">
        <ele>5.5</ele>
        <time>2025-01-20T08:11:25.456Z</time>
      </trkpt>
      <trkpt lat="46.73151" lon="-1.99671">
        <ele>5.3</ele>
        <time>2025-01-20T08:11:26.456Z</time>
      </trkpt>
      <trkpt lat="46.73153" lon="-1.99673">
        <ele>5.3</ele>
        <time>2025-01-20T08:11:27.456Z</time>
      </trkpt>
      <trkpt lat="46.73154" lon="-1.99675">
        <ele>5.2</ele>
        <time>2025-01-20T08:11:28.455Z</time>
      </trkpt>
      <trkpt lat="46.73155" lon="-1.99676">
        <ele>5.3</ele>
        <time>2025-01-20T08:11:29.456Z</time>
      </trkpt>
      <trkpt lat="46.73156" lon="-1.99678">
        <ele>5.1</ele>
        <time>2025-01-20T08:11:30.456Z</time>
      </trkpt>
      <trkpt lat="46.73157" lon="-1.99679">
        <ele>5.1</ele>
        <time>2025-01-20T08:11:31.455Z</time>
      </trkpt>
      <trkpt lat="46.73158" lon="-1.99681">
        <ele>5</ele>
        <time>2025-01-20T08:11:32.456Z</time>
      </trkpt>
      <trkpt lat="46.7316" lon="-1.99682">
        <ele>5.1</ele>
        <time>2025-01-20T08:11:33.456Z</time>
      </trkpt>
      <trkpt lat="46.73162" lon="-1.99684">
        <ele>5</ele>
        <time>2025-01-20T08:11:34.455Z</time>
      </trkpt>
      <trkpt lat="46.73164" lon="-1.99686">
        <ele>5</ele>
        <time>2025-01-20T08:11:35.456Z</time>
      </trkpt>
      <trkpt lat="46.73165" lon="-1.99687">
        <ele>4.9</ele>
        <time>2025-01-20T08:11:36.456Z</time>
      </trkpt>
      <trkpt lat="46.73166" lon="-1.99689">
        <ele>4.7</ele>
        <time>2025-01-20T08:11:37.456Z</time>
      </trkpt>
      <trkpt lat="46.73167" lon="-1.99691">
        <ele>4.5</ele>
        <time>2025-01-20T08:11:38.456Z</time>
      </trkpt>
      <trkpt lat="46.73168" lon="-1.99692">
        <ele>4.6</ele>
        <time>2025-01-20T08:11:39.456Z</time>
      </trkpt>
      <trkpt lat="46.73169" lon="-1.99694">
        <ele>4.5</ele>
        <time>2025-01-20T08:11:40.456Z</time>
      </trkpt>
      <trkpt lat="46.7317" lon="-1.99694">
        <ele>4.7</ele>
        <time>2025-01-20T08:11:41.455Z</time>
      </trkpt>
      <trkpt lat="46.7317" lon="-1.99696">
        <ele>4.5</ele>
        <time>2025-01-20T08:11:42.455Z</time>
      </trkpt>
      <trkpt lat="46.73171" lon="-1.99697">
        <ele>4.6</ele>
        <time>2025-01-20T08:11:43.455Z</time>
      </trkpt>
      <trkpt lat="46.73172" lon="-1.99698">
        <ele>4.8</ele>
        <time>2025-01-20T08:11:44.455Z</time>
      </trkpt>
      <trkpt lat="46.73173" lon="-1.99699">
        <ele>4.9</ele>
        <time>2025-01-20T08:11:45.456Z</time>
      </trkpt>
      <trkpt lat="46.73174" lon="-1.99701">
        <ele>4.9</ele>
        <time>2025-01-20T08:11:46.455Z</time>
      </trkpt>
      <trkpt lat="46.73175" lon="-1.99702">
        <ele>5</ele>
        <time>2025-01-20T08:11:47.456Z</time>
      </trkpt>
      <trkpt lat="46.73176" lon="-1.99703">
        <ele>5.1</ele>
        <time>2025-01-20T08:11:48.456Z</time>
      </trkpt>
      <trkpt lat="46.73177" lon="-1.99704">
        <ele>5.1</ele>
        <time>2025-01-20T08:11:49.456Z</time>
      </trkpt>
      <trkpt lat="46.73179" lon="-1.99706">
        <ele>5.2</ele>
        <time>2025-01-20T08:11:50.456Z</time>
      </trkpt>
      <trkpt lat="46.7318" lon="-1.99707">
        <ele>5.3</ele>
        <time>2025-01-20T08:11:51.455Z</time>
      </trkpt>
      <trkpt lat="46.73181" lon="-1.99709">
        <ele>5.2</ele>
        <time>2025-01-20T08:11:52.455Z</time>
      </trkpt>
      <trkpt lat="46.73182" lon="-1.9971">
        <ele>5.3</ele>
        <time>2025-01-20T08:11:53.455Z</time>
      </trkpt>
      <trkpt lat="46.73183" lon="-1.99711">
        <ele>5.3</ele>
        <time>2025-01-20T08:11:54.456Z</time>
      </trkpt>
      <trkpt lat="46.73184" lon="-1.99712">
        <ele>5.3</ele>
        <time>2025-01-20T08:11:55.455Z</time>
      </trkpt>
      <trkpt lat="46.73185" lon="-1.99714">
        <ele>5.2</ele>
        <time>2025-01-20T08:11:56.456Z</time>
      </trkpt>
      <trkpt lat="46.73185" lon="-1.99715">
        <ele>5.1</ele>
        <time>2025-01-20T08:11:57.456Z</time>
      </trkpt>
      <trkpt lat="46.73186" lon="-1.99717">
        <ele>5</ele>
        <time>2025-01-20T08:11:58.456Z</time>
      </trkpt>
      <trkpt lat="46.73187" lon="-1.99718">
        <ele>4.9</ele>
        <time>2025-01-20T08:11:59.456Z</time>
      </trkpt>
      <trkpt lat="46.73188" lon="-1.9972">
        <ele>4.8</ele>
        <time>2025-01-20T08:12:00.456Z</time>
      </trkpt>
      <trkpt lat="46.73189" lon="-1.99721">
        <ele>4.8</ele>
        <time>2025-01-20T08:12:01.456Z</time>
      </trkpt>
      <trkpt lat="46.7319" lon="-1.99722">
        <ele>4.7</ele>
        <time>2025-01-20T08:12:02.455Z</time>
      </trkpt>
      <trkpt lat="46.73191" lon="-1.99723">
        <ele>4.7</ele>
        <time>2025-01-20T08:12:03.455Z</time>
      </trkpt>
      <trkpt lat="46.73191" lon="-1.99725">
        <ele>4.6</ele>
        <time>2025-01-20T08:12:04.455Z</time>
      </trkpt>
      <trkpt lat="46.73192" lon="-1.99726">
        <ele>4.6</ele>
        <time>2025-01-20T08:12:05.455Z</time>
      </trkpt>
      <trkpt lat="46.73193" lon="-1.99727">
        <ele>4.6</ele>
        <time>2025-01-20T08:12:06.456Z</time>
      </trkpt>
      <trkpt lat="46.73194" lon="-1.99729">
        <ele>4.5</ele>
        <time>2025-01-20T08:12:07.455Z</time>
      </trkpt>
      <trkpt lat="46.73195" lon="-1.9973">
        <ele>4.5</ele>
        <time>2025-01-20T08:12:08.455Z</time>
      </trkpt>
      <trkpt lat="46.73197" lon="-1.9973">
        <ele>4.8</ele>
        <time>2025-01-20T08:12:09.456Z</time>
      </trkpt>
      <trkpt lat="46.73198" lon="-1.99731">
        <ele>4.8</ele>
        <time>2025-01-20T08:12:10.455Z</time>
      </trkpt>
      <trkpt lat="46.73199" lon="-1.99732">
        <ele>4.9</ele>
        <time>2025-01-20T08:12:11.455Z</time>
      </trkpt>
      <trkpt lat="46.732" lon="-1.99734">
        <ele>4.9</ele>
        <time>2025-01-20T08:12:12.456Z</time>
      </trkpt>
      <trkpt lat="46.732" lon="-1.99735">
        <ele>4.8</ele>
        <time>2025-01-20T08:12:13.456Z</time>
      </trkpt>
      <trkpt lat="46.73201" lon="-1.99736">
        <ele>4.8</ele>
        <time>2025-01-20T08:12:14.456Z</time>
      </trkpt>
      <trkpt lat="46.73202" lon="-1.99738">
        <ele>4.8</ele>
        <time>2025-01-20T08:12:15.456Z</time>
      </trkpt>
      <trkpt lat="46.73203" lon="-1.99739">
        <ele>4.8</ele>
        <time>2025-01-20T08:12:16.456Z</time>
      </trkpt>
      <trkpt lat="46.73204" lon="-1.9974">
        <ele>4.9</ele>
        <time>2025-01-20T08:12:17.456Z</time>
      </trkpt>
      <trkpt lat="46.73205" lon="-1.99741">
        <ele>4.9</ele>
        <time>2025-01-20T08:12:18.455Z</time>
      </trkpt>
      <trkpt lat="46.73206" lon="-1.99743">
        <ele>4.9</ele>
        <time>2025-01-20T08:12:19.455Z</time>
      </trkpt>
      <trkpt lat="46.73207" lon="-1.99745">
        <ele>4.8</ele>
        <time>2025-01-20T08:12:20.455Z</time>
      </trkpt>
      <trkpt lat="46.73208" lon="-1.99746">
        <ele>4.8</ele>
        <time>2025-01-20T08:12:21.455Z</time>
      </trkpt>
      <trkpt lat="46.73209" lon="-1.99747">
        <ele>4.8</ele>
        <time>2025-01-20T08:12:22.455Z</time>
      </trkpt>
      <trkpt lat="46.7321" lon="-1.99749">
        <ele>4.8</ele>
        <time>2025-01-20T08:12:23.456Z</time>
      </trkpt>
      <trkpt lat="46.7321" lon="-1.9975">
        <ele>4.7</ele>
        <time>2025-01-20T08:12:24.456Z</time>
      </trkpt>
      <trkpt lat="46.73211" lon="-1.99751">
        <ele>4.7</ele>
        <time>2025-01-20T08:12:25.456Z</time>
      </trkpt>
      <trkpt lat="46.73212" lon="-1.99753">
        <ele>4.7</ele>
        <time>2025-01-20T08:12:26.456Z</time>
      </trkpt>
      <trkpt lat="46.73213" lon="-1.99754">
        <ele>4.8</ele>
        <time>2025-01-20T08:12:27.456Z</time>
      </trkpt>
      <trkpt lat="46.73215" lon="-1.99755">
        <ele>4.9</ele>
        <time>2025-01-20T08:12:28.455Z</time>
      </trkpt>
      <trkpt lat="46.73216" lon="-1.99756">
        <ele>4.9</ele>
        <time>2025-01-20T08:12:29.455Z</time>
      </trkpt>
      <trkpt lat="46.73217" lon="-1.99757">
        <ele>5</ele>
        <time>2025-01-20T08:12:30.455Z</time>
      </trkpt>
      <trkpt lat="46.73218" lon="-1.99758">
        <ele>5</ele>
        <time>2025-01-20T08:12:31.455Z</time>
      </trkpt>
      <trkpt lat="46.73219" lon="-1.99759">
        <ele>5</ele>
        <time>2025-01-20T08:12:32.456Z</time>
      </trkpt>
      <trkpt lat="46.7322" lon="-1.99761">
        <ele>5</ele>
        <time>2025-01-20T08:12:33.456Z</time>
      </trkpt>
      <trkpt lat="46.7322" lon="-1.99762">
        <ele>4.9</ele>
        <time>2025-01-20T08:12:34.456Z</time>
      </trkpt>
      <trkpt lat="46.73221" lon="-1.99764">
        <ele>4.9</ele>
        <time>2025-01-20T08:12:35.456Z</time>
      </trkpt>
      <trkpt lat="46.73222" lon="-1.99765">
        <ele>4.9</ele>
        <time>2025-01-20T08:12:36.456Z</time>
      </trkpt>
      <trkpt lat="46.73223" lon="-1.99766">
        <ele>5</ele>
        <time>2025-01-20T08:12:37.455Z</time>
      </trkpt>
      <trkpt lat="46.73224" lon="-1.99768">
        <ele>5</ele>
        <time>2025-01-20T08:12:38.455Z</time>
      </trkpt>
      <trkpt lat="46.73225" lon="-1.99769">
        <ele>5</ele>
        <time>2025-01-20T08:12:39.455Z</time>
      </trkpt>
      <trkpt lat="46.73226" lon="-1.9977">
        <ele>5.1</ele>
        <time>2025-01-20T08:12:40.455Z</time>
      </trkpt>
      <trkpt lat="46.73227" lon="-1.99772">
        <ele>5.1</ele>
        <time>2025-01-20T08:12:41.456Z</time>
      </trkpt>
      <trkpt lat="46.73228" lon="-1.99772">
        <ele>5.2</ele>
        <time>2025-01-20T08:12:42.455Z</time>
      </trkpt>
      <trkpt lat="46.73229" lon="-1.99774">
        <ele>5.2</ele>
        <time>2025-01-20T08:12:43.456Z</time>
      </trkpt>
      <trkpt lat="46.7323" lon="-1.99775">
        <ele>5.3</ele>
        <time>2025-01-20T08:12:44.456Z</time>
      </trkpt>
      <trkpt lat="46.73231" lon="-1.99776">
        <ele>5.4</ele>
        <time>2025-01-20T08:12:45.456Z</time>
      </trkpt>
      <trkpt lat="46.73232" lon="-1.99778">
        <ele>5.4</ele>
        <time>2025-01-20T08:12:46.455Z</time>
      </trkpt>
      <trkpt lat="46.73233" lon="-1.99779">
        <ele>5.4</ele>
        <time>2025-01-20T08:12:47.455Z</time>
      </trkpt>
      <trkpt lat="46.73234" lon="-1.9978">
        <ele>5.5</ele>
        <time>2025-01-20T08:12:48.455Z</time>
      </trkpt>
      <trkpt lat="46.73235" lon="-1.99781">
        <ele>5.5</ele>
        <time>2025-01-20T08:12:49.456Z</time>
      </trkpt>
      <trkpt lat="46.73236" lon="-1.99782">
        <ele>5.5</ele>
        <time>2025-01-20T08:12:50.456Z</time>
      </trkpt>
      <trkpt lat="46.73237" lon="-1.99784">
        <ele>5.4</ele>
        <time>2025-01-20T08:12:51.456Z</time>
      </trkpt>
      <trkpt lat="46.73238" lon="-1.99785">
        <ele>5.5</ele>
        <time>2025-01-20T08:12:52.455Z</time>
      </trkpt>
      <trkpt lat="46.73239" lon="-1.99787">
        <ele>5.4</ele>
        <time>2025-01-20T08:12:53.455Z</time>
      </trkpt>
      <trkpt lat="46.7324" lon="-1.99788">
        <ele>5.4</ele>
        <time>2025-01-20T08:12:54.455Z</time>
      </trkpt>
      <trkpt lat="46.73241" lon="-1.99789">
        <ele>5.3</ele>
        <time>2025-01-20T08:12:55.455Z</time>
      </trkpt>
      <trkpt lat="46.73242" lon="-1.9979">
        <ele>5.3</ele>
        <time>2025-01-20T08:12:56.455Z</time>
      </trkpt>
      <trkpt lat="46.73243" lon="-1.99791">
        <ele>5.3</ele>
        <time>2025-01-20T08:12:57.456Z</time>
      </trkpt>
      <trkpt lat="46.73243" lon="-1.99793">
        <ele>5.1</ele>
        <time>2025-01-20T08:12:58.456Z</time>
      </trkpt>
      <trkpt lat="46.73244" lon="-1.99794">
        <ele>5.1</ele>
        <time>2025-01-20T08:12:59.455Z</time>
      </trkpt>
      <trkpt lat="46.73245" lon="-1.99796">
        <ele>4.9</ele>
        <time>2025-01-20T08:13:00.456Z</time>
      </trkpt>
      <trkpt lat="46.73246" lon="-1.99798">
        <ele>4.7</ele>
        <time>2025-01-20T08:13:01.456Z</time>
      </trkpt>
      <trkpt lat="46.73247" lon="-1.99799">
        <ele>4.7</ele>
        <time>2025-01-20T08:13:02.455Z</time>
      </trkpt>
      <trkpt lat="46.73247" lon="-1.99801">
        <ele>4.4</ele>
        <time>2025-01-20T08:13:03.455Z</time>
      </trkpt>
      <trkpt lat="46.73248" lon="-1.99802">
        <ele>4.3</ele>
        <time>2025-01-20T08:13:04.455Z</time>
      </trkpt>
      <trkpt lat="46.73249" lon="-1.99804">
        <ele>4.1</ele>
        <time>2025-01-20T08:13:05.456Z</time>
      </trkpt>
      <trkpt lat="46.73251" lon="-1.99806">
        <ele>4.1</ele>
        <time>2025-01-20T08:13:06.456Z</time>
      </trkpt>
      <trkpt lat="46.73252" lon="-1.99807">
        <ele>4.3</ele>
        <time>2025-01-20T08:13:07.456Z</time>
      </trkpt>
      <trkpt lat="46.73253" lon="-1.99808">
        <ele>4.4</ele>
        <time>2025-01-20T08:13:08.456Z</time>
      </trkpt>
      <trkpt lat="46.73254" lon="-1.99809">
        <ele>4.5</ele>
        <time>2025-01-20T08:13:09.455Z</time>
      </trkpt>
      <trkpt lat="46.73255" lon="-1.99809">
        <ele>4.6</ele>
        <time>2025-01-20T08:13:10.455Z</time>
      </trkpt>
      <trkpt lat="46.73256" lon="-1.99811">
        <ele>4.6</ele>
        <time>2025-01-20T08:13:11.455Z</time>
      </trkpt>
      <trkpt lat="46.73257" lon="-1.99812">
        <ele>4.7</ele>
        <time>2025-01-20T08:13:12.455Z</time>
      </trkpt>
      <trkpt lat="46.73259" lon="-1.99813">
        <ele>5</ele>
        <time>2025-01-20T08:13:13.456Z</time>
      </trkpt>
      <trkpt lat="46.7326" lon="-1.99814">
        <ele>5.1</ele>
        <time>2025-01-20T08:13:14.456Z</time>
      </trkpt>
      <trkpt lat="46.73261" lon="-1.99815">
        <ele>5.2</ele>
        <time>2025-01-20T08:13:15.456Z</time>
      </trkpt>
      <trkpt lat="46.73262" lon="-1.99816">
        <ele>5.2</ele>
        <time>2025-01-20T08:13:16.456Z</time>
      </trkpt>
      <trkpt lat="46.73263" lon="-1.99817">
        <ele>5.3</ele>
        <time>2025-01-20T08:13:17.455Z</time>
      </trkpt>
      <trkpt lat="46.73264" lon="-1.99818">
        <ele>5.4</ele>
        <time>2025-01-20T08:13:18.455Z</time>
      </trkpt>
      <trkpt lat="46.73265" lon="-1.9982">
        <ele>5.4</ele>
        <time>2025-01-20T08:13:19.456Z</time>
      </trkpt>
      <trkpt lat="46.73266" lon="-1.99821">
        <ele>5.4</ele>
        <time>2025-01-20T08:13:20.455Z</time>
      </trkpt>
      <trkpt lat="46.73267" lon="-1.99822">
        <ele>5.5</ele>
        <time>2025-01-20T08:13:21.456Z</time>
      </trkpt>
      <trkpt lat="46.73268" lon="-1.99823">
        <ele>5.6</ele>
        <time>2025-01-20T08:13:22.455Z</time>
      </trkpt>
      <trkpt lat="46.73269" lon="-1.99824">
        <ele>5.6</ele>
        <time>2025-01-20T08:13:23.455Z</time>
      </trkpt>
      <trkpt lat="46.7327" lon="-1.99826">
        <ele>5.6</ele>
        <time>2025-01-20T08:13:24.455Z</time>
      </trkpt>
      <trkpt lat="46.73271" lon="-1.99827">
        <ele>5.7</ele>
        <time>2025-01-20T08:13:25.456Z</time>
      </trkpt>
      <trkpt lat="46.73272" lon="-1.99829">
        <ele>5.6</ele>
        <time>2025-01-20T08:13:26.456Z</time>
      </trkpt>
      <trkpt lat="46.73272" lon="-1.9983">
        <ele>5.5</ele>
        <time>2025-01-20T08:13:27.456Z</time>
      </trkpt>
      <trkpt lat="46.73273" lon="-1.99832">
        <ele>5.4</ele>
        <time>2025-01-20T08:13:28.456Z</time>
      </trkpt>
      <trkpt lat="46.73275" lon="-1.99833">
        <ele>5.6</ele>
        <time>2025-01-20T08:13:29.456Z</time>
      </trkpt>
      <trkpt lat="46.73276" lon="-1.99835">
        <ele>5.6</ele>
        <time>2025-01-20T08:13:30.455Z</time>
      </trkpt>
      <trkpt lat="46.73277" lon="-1.99836">
        <ele>5.6</ele>
        <time>2025-01-20T08:13:31.455Z</time>
      </trkpt>
      <trkpt lat="46.73278" lon="-1.99837">
        <ele>5.6</ele>
        <time>2025-01-20T08:13:32.455Z</time>
      </trkpt>
      <trkpt lat="46.73279" lon="-1.99838">
        <ele>5.6</ele>
        <time>2025-01-20T08:13:33.455Z</time>
      </trkpt>
      <trkpt lat="46.7328" lon="-1.9984">
        <ele>5.6</ele>
        <time>2025-01-20T08:13:34.456Z</time>
      </trkpt>
      <trkpt lat="46.73281" lon="-1.99841">
        <ele>5.6</ele>
        <time>2025-01-20T08:13:35.455Z</time>
      </trkpt>
      <trkpt lat="46.73282" lon="-1.99842">
        <ele>5.6</ele>
        <time>2025-01-20T08:13:36.455Z</time>
      </trkpt>
      <trkpt lat="46.73283" lon="-1.99843">
        <ele>5.7</ele>
        <time>2025-01-20T08:13:37.455Z</time>
      </trkpt>
      <trkpt lat="46.73284" lon="-1.99845">
        <ele>5.6</ele>
        <time>2025-01-20T08:13:38.456Z</time>
      </trkpt>
      <trkpt lat="46.73285" lon="-1.99846">
        <ele>5.6</ele>
        <time>2025-01-20T08:13:39.456Z</time>
      </trkpt>
      <trkpt lat="46.73286" lon="-1.99848">
        <ele>5.6</ele>
        <time>2025-01-20T08:13:40.456Z</time>
      </trkpt>
      <trkpt lat="46.73287" lon="-1.99849">
        <ele>5.7</ele>
        <time>2025-01-20T08:13:41.456Z</time>
      </trkpt>
      <trkpt lat="46.73288" lon="-1.99851">
        <ele>5.7</ele>
        <time>2025-01-20T08:13:42.456Z</time>
      </trkpt>
      <trkpt lat="46.73289" lon="-1.99852">
        <ele>5.7</ele>
        <time>2025-01-20T08:13:43.455Z</time>
      </trkpt>
      <trkpt lat="46.7329" lon="-1.99854">
        <ele>5.7</ele>
        <time>2025-01-20T08:13:44.455Z</time>
      </trkpt>
      <trkpt lat="46.73291" lon="-1.99855">
        <ele>5.8</ele>
        <time>2025-01-20T08:13:45.455Z</time>
      </trkpt>
      <trkpt lat="46.73292" lon="-1.99856">
        <ele>5.9</ele>
        <time>2025-01-20T08:13:46.455Z</time>
      </trkpt>
      <trkpt lat="46.73293" lon="-1.99857">
        <ele>6</ele>
        <time>2025-01-20T08:13:47.456Z</time>
      </trkpt>
      <trkpt lat="46.73294" lon="-1.99858">
        <ele>6.1</ele>
        <time>2025-01-20T08:13:48.455Z</time>
      </trkpt>
      <trkpt lat="46.73295" lon="-1.9986">
        <ele>6.2</ele>
        <time>2025-01-20T08:13:49.455Z</time>
      </trkpt>
      <trkpt lat="46.73296" lon="-1.99861">
        <ele>6.3</ele>
        <time>2025-01-20T08:13:50.456Z</time>
      </trkpt>
      <trkpt lat="46.73297" lon="-1.99863">
        <ele>6.3</ele>
        <time>2025-01-20T08:13:51.455Z</time>
      </trkpt>
      <trkpt lat="46.73298" lon="-1.99864">
        <ele>6.3</ele>
        <time>2025-01-20T08:13:52.456Z</time>
      </trkpt>
      <trkpt lat="46.733" lon="-1.99866">
        <ele>6.4</ele>
        <time>2025-01-20T08:13:53.456Z</time>
      </trkpt>
      <trkpt lat="46.73301" lon="-1.99867">
        <ele>6.4</ele>
        <time>2025-01-20T08:13:54.455Z</time>
      </trkpt>
      <trkpt lat="46.73301" lon="-1.99869">
        <ele>6.2</ele>
        <time>2025-01-20T08:13:55.455Z</time>
      </trkpt>
      <trkpt lat="46.73302" lon="-1.9987">
        <ele>6.2</ele>
        <time>2025-01-20T08:13:56.455Z</time>
      </trkpt>
      <trkpt lat="46.73303" lon="-1.99872">
        <ele>6.1</ele>
        <time>2025-01-20T08:13:57.456Z</time>
      </trkpt>
      <trkpt lat="46.73304" lon="-1.99874">
        <ele>5.9</ele>
        <time>2025-01-20T08:13:58.456Z</time>
      </trkpt>
      <trkpt lat="46.73305" lon="-1.99875">
        <ele>5.9</ele>
        <time>2025-01-20T08:13:59.456Z</time>
      </trkpt>
      <trkpt lat="46.73306" lon="-1.99876">
        <ele>5.9</ele>
        <time>2025-01-20T08:14:00.456Z</time>
      </trkpt>
      <trkpt lat="46.73307" lon="-1.99877">
        <ele>5.9</ele>
        <time>2025-01-20T08:14:01.456Z</time>
      </trkpt>
      <trkpt lat="46.73307" lon="-1.99879">
        <ele>5.6</ele>
        <time>2025-01-20T08:14:02.455Z</time>
      </trkpt>
      <trkpt lat="46.73308" lon="-1.9988">
        <ele>5.6</ele>
        <time>2025-01-20T08:14:03.455Z</time>
      </trkpt>
      <trkpt lat="46.73309" lon="-1.99882">
        <ele>5.5</ele>
        <time>2025-01-20T08:14:04.455Z</time>
      </trkpt>
      <trkpt lat="46.7331" lon="-1.99883">
        <ele>5.5</ele>
        <time>2025-01-20T08:14:05.455Z</time>
      </trkpt>
      <trkpt lat="46.73311" lon="-1.99885">
        <ele>5.4</ele>
        <time>2025-01-20T08:14:06.455Z</time>
      </trkpt>
      <trkpt lat="46.73311" lon="-1.99886">
        <ele>5.3</ele>
        <time>2025-01-20T08:14:07.456Z</time>
      </trkpt>
      <trkpt lat="46.73312" lon="-1.99887">
        <ele>5.4</ele>
        <time>2025-01-20T08:14:08.455Z</time>
      </trkpt>
      <trkpt lat="46.73313" lon="-1.99888">
        <ele>5.4</ele>
        <time>2025-01-20T08:14:09.456Z</time>
      </trkpt>
      <trkpt lat="46.73314" lon="-1.99889">
        <ele>5.5</ele>
        <time>2025-01-20T08:14:10.456Z</time>
      </trkpt>
      <trkpt lat="46.73315" lon="-1.99891">
        <ele>5.5</ele>
        <time>2025-01-20T08:14:11.456Z</time>
      </trkpt>
      <trkpt lat="46.73316" lon="-1.99892">
        <ele>5.6</ele>
        <time>2025-01-20T08:14:12.456Z</time>
      </trkpt>
      <trkpt lat="46.73317" lon="-1.99893">
        <ele>5.6</ele>
        <time>2025-01-20T08:14:13.455Z</time>
      </trkpt>
      <trkpt lat="46.73318" lon="-1.99894">
        <ele>5.7</ele>
        <time>2025-01-20T08:14:14.456Z</time>
      </trkpt>
      <trkpt lat="46.73318" lon="-1.99894">
        <ele>5.7</ele>
        <time>2025-01-20T08:14:15.456Z</time>
      </trkpt>
      <trkpt lat="46.73319" lon="-1.99895">
        <ele>5.8</ele>
        <time>2025-01-20T08:14:16.455Z</time>
      </trkpt>
      <trkpt lat="46.7332" lon="-1.99896">
        <ele>5.8</ele>
        <time>2025-01-20T08:14:17.456Z</time>
      </trkpt>
      <trkpt lat="46.7332" lon="-1.99897">
        <ele>5.7</ele>
        <time>2025-01-20T08:14:18.455Z</time>
      </trkpt>
      <trkpt lat="46.73321" lon="-1.99898">
        <ele>5.8</ele>
        <time>2025-01-20T08:14:19.455Z</time>
      </trkpt>
      <trkpt lat="46.73323" lon="-1.99899">
        <ele>6</ele>
        <time>2025-01-20T08:14:20.455Z</time>
      </trkpt>
      <trkpt lat="46.73324" lon="-1.99901">
        <ele>5.9</ele>
        <time>2025-01-20T08:14:21.456Z</time>
      </trkpt>
      <trkpt lat="46.73325" lon="-1.99902">
        <ele>5.9</ele>
        <time>2025-01-20T08:14:22.455Z</time>
      </trkpt>
      <trkpt lat="46.73326" lon="-1.99904">
        <ele>5.8</ele>
        <time>2025-01-20T08:14:23.455Z</time>
      </trkpt>
      <trkpt lat="46.73327" lon="-1.99905">
        <ele>5.8</ele>
        <time>2025-01-20T08:14:24.455Z</time>
      </trkpt>
      <trkpt lat="46.73328" lon="-1.99906">
        <ele>5.8</ele>
        <time>2025-01-20T08:14:25.456Z</time>
      </trkpt>
      <trkpt lat="46.73329" lon="-1.99907">
        <ele>5.8</ele>
        <time>2025-01-20T08:14:26.456Z</time>
      </trkpt>
      <trkpt lat="46.73329" lon="-1.99909">
        <ele>5.5</ele>
        <time>2025-01-20T08:14:27.456Z</time>
      </trkpt>
      <trkpt lat="46.7333" lon="-1.99911">
        <ele>5.4</ele>
        <time>2025-01-20T08:14:28.456Z</time>
      </trkpt>
      <trkpt lat="46.73331" lon="-1.99913">
        <ele>5.3</ele>
        <time>2025-01-20T08:14:29.456Z</time>
      </trkpt>
      <trkpt lat="46.73332" lon="-1.99914">
        <ele>5.2</ele>
        <time>2025-01-20T08:14:30.455Z</time>
      </trkpt>
      <trkpt lat="46.73332" lon="-1.99915">
        <ele>5.1</ele>
        <time>2025-01-20T08:14:31.456Z</time>
      </trkpt>
      <trkpt lat="46.73333" lon="-1.99916">
        <ele>5.1</ele>
        <time>2025-01-20T08:14:32.455Z</time>
      </trkpt>
      <trkpt lat="46.73335" lon="-1.99918">
        <ele>5.1</ele>
        <time>2025-01-20T08:14:33.455Z</time>
      </trkpt>
      <trkpt lat="46.73335" lon="-1.99919">
        <ele>5.1</ele>
        <time>2025-01-20T08:14:34.456Z</time>
      </trkpt>
      <trkpt lat="46.73336" lon="-1.99921">
        <ele>5.1</ele>
        <time>2025-01-20T08:14:35.456Z</time>
      </trkpt>
      <trkpt lat="46.73337" lon="-1.99922">
        <ele>5.1</ele>
        <time>2025-01-20T08:14:36.456Z</time>
      </trkpt>
      <trkpt lat="46.73338" lon="-1.99924">
        <ele>5.1</ele>
        <time>2025-01-20T08:14:37.455Z</time>
      </trkpt>
      <trkpt lat="46.73338" lon="-1.99926">
        <ele>5</ele>
        <time>2025-01-20T08:14:38.456Z</time>
      </trkpt>
      <trkpt lat="46.73339" lon="-1.99928">
        <ele>5</ele>
        <time>2025-01-20T08:14:39.456Z</time>
      </trkpt>
      <trkpt lat="46.7334" lon="-1.9993">
        <ele>5</ele>
        <time>2025-01-20T08:14:40.456Z</time>
      </trkpt>
      <trkpt lat="46.73341" lon="-1.99931">
        <ele>5.1</ele>
        <time>2025-01-20T08:14:41.456Z</time>
      </trkpt>
      <trkpt lat="46.73342" lon="-1.99932">
        <ele>5.1</ele>
        <time>2025-01-20T08:14:42.456Z</time>
      </trkpt>
      <trkpt lat="46.73344" lon="-1.99933">
        <ele>5.4</ele>
        <time>2025-01-20T08:14:43.455Z</time>
      </trkpt>
      <trkpt lat="46.73345" lon="-1.99933">
        <ele>5.5</ele>
        <time>2025-01-20T08:14:44.455Z</time>
      </trkpt>
      <trkpt lat="46.73346" lon="-1.99934">
        <ele>5.6</ele>
        <time>2025-01-20T08:14:45.456Z</time>
      </trkpt>
      <trkpt lat="46.73347" lon="-1.99936">
        <ele>5.6</ele>
        <time>2025-01-20T08:14:46.455Z</time>
      </trkpt>
      <trkpt lat="46.73348" lon="-1.99937">
        <ele>5.6</ele>
        <time>2025-01-20T08:14:47.456Z</time>
      </trkpt>
      <trkpt lat="46.73349" lon="-1.99938">
        <ele>5.7</ele>
        <time>2025-01-20T08:14:48.456Z</time>
      </trkpt>
      <trkpt lat="46.7335" lon="-1.99939">
        <ele>5.8</ele>
        <time>2025-01-20T08:14:49.456Z</time>
      </trkpt>
      <trkpt lat="46.73351" lon="-1.9994">
        <ele>5.9</ele>
        <time>2025-01-20T08:14:50.455Z</time>
      </trkpt>
      <trkpt lat="46.73352" lon="-1.99941">
        <ele>5.9</ele>
        <time>2025-01-20T08:14:51.455Z</time>
      </trkpt>
      <trkpt lat="46.73354" lon="-1.99942">
        <ele>6.2</ele>
        <time>2025-01-20T08:14:52.455Z</time>
      </trkpt>
      <trkpt lat="46.73355" lon="-1.99944">
        <ele>6.2</ele>
        <time>2025-01-20T08:14:53.455Z</time>
      </trkpt>
      <trkpt lat="46.73356" lon="-1.99946">
        <ele>6.1</ele>
        <time>2025-01-20T08:14:54.456Z</time>
      </trkpt>
      <trkpt lat="46.73356" lon="-1.99948">
        <ele>5.8</ele>
        <time>2025-01-20T08:14:55.456Z</time>
      </trkpt>
      <trkpt lat="46.73357" lon="-1.99949">
        <ele>5.8</ele>
        <time>2025-01-20T08:14:56.456Z</time>
      </trkpt>
      <trkpt lat="46.73358" lon="-1.9995">
        <ele>5.8</ele>
        <time>2025-01-20T08:14:57.456Z</time>
      </trkpt>
      <trkpt lat="46.73359" lon="-1.9995">
        <ele>5.9</ele>
        <time>2025-01-20T08:14:58.455Z</time>
      </trkpt>
      <trkpt lat="46.7336" lon="-1.9995">
        <ele>6.1</ele>
        <time>2025-01-20T08:14:59.456Z</time>
      </trkpt>
      <trkpt lat="46.73361" lon="-1.99952">
        <ele>5.9</ele>
        <time>2025-01-20T08:15:00.455Z</time>
      </trkpt>
      <trkpt lat="46.73362" lon="-1.99954">
        <ele>5.7</ele>
        <time>2025-01-20T08:15:01.455Z</time>
      </trkpt>
      <trkpt lat="46.73363" lon="-1.99956">
        <ele>5.5</ele>
        <time>2025-01-20T08:15:02.456Z</time>
      </trkpt>
      <trkpt lat="46.73364" lon="-1.99957">
        <ele>5.5</ele>
        <time>2025-01-20T08:15:03.456Z</time>
      </trkpt>
      <trkpt lat="46.73364" lon="-1.99958">
        <ele>5.4</ele>
        <time>2025-01-20T08:15:04.456Z</time>
      </trkpt>
      <trkpt lat="46.73365" lon="-1.9996">
        <ele>5.2</ele>
        <time>2025-01-20T08:15:05.456Z</time>
      </trkpt>
      <trkpt lat="46.73366" lon="-1.99961">
        <ele>5.2</ele>
        <time>2025-01-20T08:15:06.456Z</time>
      </trkpt>
      <trkpt lat="46.73367" lon="-1.99962">
        <ele>5.3</ele>
        <time>2025-01-20T08:15:07.455Z</time>
      </trkpt>
      <trkpt lat="46.73367" lon="-1.99964">
        <ele>5.1</ele>
        <time>2025-01-20T08:15:08.455Z</time>
      </trkpt>
      <trkpt lat="46.73368" lon="-1.99965">
        <ele>5.1</ele>
        <time>2025-01-20T08:15:09.455Z</time>
      </trkpt>
      <trkpt lat="46.73369" lon="-1.99967">
        <ele>5.1</ele>
        <time>2025-01-20T08:15:10.456Z</time>
      </trkpt>
      <trkpt lat="46.7337" lon="-1.99968">
        <ele>5.2</ele>
        <time>2025-01-20T08:15:11.455Z</time>
      </trkpt>
      <trkpt lat="46.73371" lon="-1.99969">
        <ele>5.4</ele>
        <time>2025-01-20T08:15:12.456Z</time>
      </trkpt>
      <trkpt lat="46.73372" lon="-1.99971">
        <ele>5.4</ele>
        <time>2025-01-20T08:15:13.456Z</time>
      </trkpt>
      <trkpt lat="46.73373" lon="-1.99972">
        <ele>5.6</ele>
        <time>2025-01-20T08:15:14.456Z</time>
      </trkpt>
      <trkpt lat="46.73374" lon="-1.99973">
        <ele>5.7</ele>
        <time>2025-01-20T08:15:15.455Z</time>
      </trkpt>
      <trkpt lat="46.73375" lon="-1.99974">
        <ele>5.8</ele>
        <time>2025-01-20T08:15:16.456Z</time>
      </trkpt>
      <trkpt lat="46.73376" lon="-1.99975">
        <ele>5.9</ele>
        <time>2025-01-20T08:15:17.456Z</time>
      </trkpt>
      <trkpt lat="46.73376" lon="-1.99976">
        <ele>5.8</ele>
        <time>2025-01-20T08:15:18.456Z</time>
      </trkpt>
      <trkpt lat="46.73377" lon="-1.99978">
        <ele>5.7</ele>
        <time>2025-01-20T08:15:19.455Z</time>
      </trkpt>
      <trkpt lat="46.73378" lon="-1.99979">
        <ele>5.8</ele>
        <time>2025-01-20T08:15:20.456Z</time>
      </trkpt>
      <trkpt lat="46.73379" lon="-1.99981">
        <ele>5.7</ele>
        <time>2025-01-20T08:15:21.456Z</time>
      </trkpt>
      <trkpt lat="46.7338" lon="-1.99982">
        <ele>5.8</ele>
        <time>2025-01-20T08:15:22.456Z</time>
      </trkpt>
      <trkpt lat="46.73381" lon="-1.99984">
        <ele>5.7</ele>
        <time>2025-01-20T08:15:23.456Z</time>
      </trkpt>
      <trkpt lat="46.73381" lon="-1.99985">
        <ele>5.5</ele>
        <time>2025-01-20T08:15:24.456Z</time>
      </trkpt>
      <trkpt lat="46.73382" lon="-1.99987">
        <ele>5.4</ele>
        <time>2025-01-20T08:15:25.455Z</time>
      </trkpt>
      <trkpt lat="46.73383" lon="-1.99988">
        <ele>5.4</ele>
        <time>2025-01-20T08:15:26.455Z</time>
      </trkpt>
      <trkpt lat="46.73384" lon="-1.99989">
        <ele>5.3</ele>
        <time>2025-01-20T08:15:27.455Z</time>
      </trkpt>
      <trkpt lat="46.73385" lon="-1.99991">
        <ele>5.2</ele>
        <time>2025-01-20T08:15:28.455Z</time>
      </trkpt>
      <trkpt lat="46.73386" lon="-1.99992">
        <ele>5.1</ele>
        <time>2025-01-20T08:15:29.456Z</time>
      </trkpt>
      <trkpt lat="46.73387" lon="-1.99993">
        <ele>5.1</ele>
        <time>2025-01-20T08:15:30.455Z</time>
      </trkpt>
      <trkpt lat="46.73388" lon="-1.99994">
        <ele>5</ele>
        <time>2025-01-20T08:15:31.455Z</time>
      </trkpt>
      <trkpt lat="46.73389" lon="-1.99995">
        <ele>4.9</ele>
        <time>2025-01-20T08:15:32.455Z</time>
      </trkpt>
      <trkpt lat="46.7339" lon="-1.99997">
        <ele>4.7</ele>
        <time>2025-01-20T08:15:33.455Z</time>
      </trkpt>
      <trkpt lat="46.73391" lon="-1.99998">
        <ele>4.7</ele>
        <time>2025-01-20T08:15:34.455Z</time>
      </trkpt>
      <trkpt lat="46.73391" lon="-2">
        <ele>4.4</ele>
        <time>2025-01-20T08:15:35.455Z</time>
      </trkpt>
      <trkpt lat="46.73392" lon="-2.00002">
        <ele>4.5</ele>
        <time>2025-01-20T08:15:36.455Z</time>
      </trkpt>
      <trkpt lat="46.73393" lon="-2.00003">
        <ele>4.6</ele>
        <time>2025-01-20T08:15:37.455Z</time>
      </trkpt>
      <trkpt lat="46.73394" lon="-2.00004">
        <ele>4.7</ele>
        <time>2025-01-20T08:15:38.455Z</time>
      </trkpt>
      <trkpt lat="46.73395" lon="-2.00005">
        <ele>4.8</ele>
        <time>2025-01-20T08:15:39.455Z</time>
      </trkpt>
      <trkpt lat="46.73396" lon="-2.00006">
        <ele>5</ele>
        <time>2025-01-20T08:15:40.455Z</time>
      </trkpt>
      <trkpt lat="46.73397" lon="-2.00007">
        <ele>5.1</ele>
        <time>2025-01-20T08:15:41.455Z</time>
      </trkpt>
      <trkpt lat="46.73398" lon="-2.00008">
        <ele>5.2</ele>
        <time>2025-01-20T08:15:42.455Z</time>
      </trkpt>
      <trkpt lat="46.73399" lon="-2.0001">
        <ele>5.2</ele>
        <time>2025-01-20T08:15:43.456Z</time>
      </trkpt>
      <trkpt lat="46.734" lon="-2.00011">
        <ele>5.3</ele>
        <time>2025-01-20T08:15:44.456Z</time>
      </trkpt>
      <trkpt lat="46.73401" lon="-2.00012">
        <ele>5.4</ele>
        <time>2025-01-20T08:15:45.456Z</time>
      </trkpt>
      <trkpt lat="46.73402" lon="-2.00013">
        <ele>5.5</ele>
        <time>2025-01-20T08:15:46.456Z</time>
      </trkpt>
      <trkpt lat="46.73402" lon="-2.00014">
        <ele>5.4</ele>
        <time>2025-01-20T08:15:47.455Z</time>
      </trkpt>
      <trkpt lat="46.73403" lon="-2.00016">
        <ele>5.4</ele>
        <time>2025-01-20T08:15:48.455Z</time>
      </trkpt>
      <trkpt lat="46.73404" lon="-2.00017">
        <ele>5.4</ele>
        <time>2025-01-20T08:15:49.455Z</time>
      </trkpt>
      <trkpt lat="46.73405" lon="-2.00019">
        <ele>5.4</ele>
        <time>2025-01-20T08:15:50.456Z</time>
      </trkpt>
      <trkpt lat="46.73406" lon="-2.0002">
        <ele>5.5</ele>
        <time>2025-01-20T08:15:51.455Z</time>
      </trkpt>
      <trkpt lat="46.73407" lon="-2.00022">
        <ele>5.4</ele>
        <time>2025-01-20T08:15:52.456Z</time>
      </trkpt>
      <trkpt lat="46.73408" lon="-2.00023">
        <ele>5.5</ele>
        <time>2025-01-20T08:15:53.455Z</time>
      </trkpt>
      <trkpt lat="46.73409" lon="-2.00025">
        <ele>5.4</ele>
        <time>2025-01-20T08:15:54.455Z</time>
      </trkpt>
      <trkpt lat="46.7341" lon="-2.00025">
        <ele>5.5</ele>
        <time>2025-01-20T08:15:55.455Z</time>
      </trkpt>
      <trkpt lat="46.73411" lon="-2.00027">
        <ele>5.5</ele>
        <time>2025-01-20T08:15:56.456Z</time>
      </trkpt>
      <trkpt lat="46.73412" lon="-2.00028">
        <ele>5.5</ele>
        <time>2025-01-20T08:15:57.456Z</time>
      </trkpt>
      <trkpt lat="46.73413" lon="-2.00029">
        <ele>5.5</ele>
        <time>2025-01-20T08:15:58.456Z</time>
      </trkpt>
      <trkpt lat="46.73414" lon="-2.0003">
        <ele>5.5</ele>
        <time>2025-01-20T08:15:59.455Z</time>
      </trkpt>
      <trkpt lat="46.73415" lon="-2.00032">
        <ele>5.4</ele>
        <time>2025-01-20T08:16:00.455Z</time>
      </trkpt>
      <trkpt lat="46.73416" lon="-2.00033">
        <ele>5.4</ele>
        <time>2025-01-20T08:16:01.455Z</time>
      </trkpt>
      <trkpt lat="46.73417" lon="-2.00034">
        <ele>5.4</ele>
        <time>2025-01-20T08:16:02.455Z</time>
      </trkpt>
      <trkpt lat="46.73418" lon="-2.00035">
        <ele>5.4</ele>
        <time>2025-01-20T08:16:03.456Z</time>
      </trkpt>
      <trkpt lat="46.73419" lon="-2.00037">
        <ele>5.3</ele>
        <time>2025-01-20T08:16:04.456Z</time>
      </trkpt>
      <trkpt lat="46.7342" lon="-2.00038">
        <ele>5.3</ele>
        <time>2025-01-20T08:16:05.456Z</time>
      </trkpt>
      <trkpt lat="46.73421" lon="-2.0004">
        <ele>5.3</ele>
        <time>2025-01-20T08:16:06.456Z</time>
      </trkpt>
      <trkpt lat="46.73422" lon="-2.00042">
        <ele>5.2</ele>
        <time>2025-01-20T08:16:07.455Z</time>
      </trkpt>
      <trkpt lat="46.73423" lon="-2.00043">
        <ele>5.3</ele>
        <time>2025-01-20T08:16:08.455Z</time>
      </trkpt>
      <trkpt lat="46.73423" lon="-2.00044">
        <ele>5.2</ele>
        <time>2025-01-20T08:16:09.455Z</time>
      </trkpt>
      <trkpt lat="46.73424" lon="-2.00046">
        <ele>5.2</ele>
        <time>2025-01-20T08:16:10.455Z</time>
      </trkpt>
      <trkpt lat="46.73425" lon="-2.00048">
        <ele>5.2</ele>
        <time>2025-01-20T08:16:11.455Z</time>
      </trkpt>
      <trkpt lat="46.73425" lon="-2.00049">
        <ele>5.1</ele>
        <time>2025-01-20T08:16:12.456Z</time>
      </trkpt>
      <trkpt lat="46.73426" lon="-2.00051">
        <ele>5.1</ele>
        <time>2025-01-20T08:16:13.456Z</time>
      </trkpt>
      <trkpt lat="46.73427" lon="-2.00053">
        <ele>5.1</ele>
        <time>2025-01-20T08:16:14.456Z</time>
      </trkpt>
      <trkpt lat="46.73428" lon="-2.00054">
        <ele>5.2</ele>
        <time>2025-01-20T08:16:15.456Z</time>
      </trkpt>
      <trkpt lat="46.73429" lon="-2.00056">
        <ele>5.2</ele>
        <time>2025-01-20T08:16:16.456Z</time>
      </trkpt>
      <trkpt lat="46.7343" lon="-2.00057">
        <ele>5.3</ele>
        <time>2025-01-20T08:16:17.456Z</time>
      </trkpt>
      <trkpt lat="46.73431" lon="-2.00059">
        <ele>5.3</ele>
        <time>2025-01-20T08:16:18.455Z</time>
      </trkpt>
      <trkpt lat="46.73432" lon="-2.0006">
        <ele>5.3</ele>
        <time>2025-01-20T08:16:19.455Z</time>
      </trkpt>
      <trkpt lat="46.73433" lon="-2.00061">
        <ele>5.4</ele>
        <time>2025-01-20T08:16:20.455Z</time>
      </trkpt>
      <trkpt lat="46.73434" lon="-2.00063">
        <ele>5.4</ele>
        <time>2025-01-20T08:16:21.455Z</time>
      </trkpt>
      <trkpt lat="46.73435" lon="-2.00064">
        <ele>5.4</ele>
        <time>2025-01-20T08:16:22.456Z</time>
      </trkpt>
      <trkpt lat="46.73435" lon="-2.00065">
        <ele>5.3</ele>
        <time>2025-01-20T08:16:23.455Z</time>
      </trkpt>
      <trkpt lat="46.73437" lon="-2.00066">
        <ele>5.5</ele>
        <time>2025-01-20T08:16:24.456Z</time>
      </trkpt>
      <trkpt lat="46.73438" lon="-2.00068">
        <ele>5.4</ele>
        <time>2025-01-20T08:16:25.455Z</time>
      </trkpt>
      <trkpt lat="46.73438" lon="-2.00069">
        <ele>5.2</ele>
        <time>2025-01-20T08:16:26.455Z</time>
      </trkpt>
      <trkpt lat="46.73439" lon="-2.0007">
        <ele>5.2</ele>
        <time>2025-01-20T08:16:27.455Z</time>
      </trkpt>
      <trkpt lat="46.7344" lon="-2.00071">
        <ele>5.2</ele>
        <time>2025-01-20T08:16:28.455Z</time>
      </trkpt>
      <trkpt lat="46.73441" lon="-2.00072">
        <ele>5.2</ele>
        <time>2025-01-20T08:16:29.455Z</time>
      </trkpt>
      <trkpt lat="46.73442" lon="-2.00074">
        <ele>5.1</ele>
        <time>2025-01-20T08:16:30.456Z</time>
      </trkpt>
      <trkpt lat="46.73443" lon="-2.00075">
        <ele>5</ele>
        <time>2025-01-20T08:16:31.456Z</time>
      </trkpt>
      <trkpt lat="46.73443" lon="-2.00076">
        <ele>4.9</ele>
        <time>2025-01-20T08:16:32.456Z</time>
      </trkpt>
      <trkpt lat="46.73444" lon="-2.00078">
        <ele>4.7</ele>
        <time>2025-01-20T08:16:33.456Z</time>
      </trkpt>
      <trkpt lat="46.73445" lon="-2.00078">
        <ele>4.8</ele>
        <time>2025-01-20T08:16:34.456Z</time>
      </trkpt>
      <trkpt lat="46.73446" lon="-2.00079">
        <ele>4.9</ele>
        <time>2025-01-20T08:16:35.456Z</time>
      </trkpt>
      <trkpt lat="46.73447" lon="-2.0008">
        <ele>4.9</ele>
        <time>2025-01-20T08:16:36.456Z</time>
      </trkpt>
      <trkpt lat="46.73448" lon="-2.00082">
        <ele>4.8</ele>
        <time>2025-01-20T08:16:37.455Z</time>
      </trkpt>
      <trkpt lat="46.73449" lon="-2.00083">
        <ele>4.9</ele>
        <time>2025-01-20T08:16:38.456Z</time>
      </trkpt>
      <trkpt lat="46.7345" lon="-2.00085">
        <ele>4.9</ele>
        <time>2025-01-20T08:16:39.455Z</time>
      </trkpt>
      <trkpt lat="46.7345" lon="-2.00086">
        <ele>4.8</ele>
        <time>2025-01-20T08:16:40.455Z</time>
      </trkpt>
      <trkpt lat="46.73451" lon="-2.00088">
        <ele>4.8</ele>
        <time>2025-01-20T08:16:41.455Z</time>
      </trkpt>
      <trkpt lat="46.73453" lon="-2.00089">
        <ele>5</ele>
        <time>2025-01-20T08:16:42.455Z</time>
      </trkpt>
      <trkpt lat="46.73454" lon="-2.0009">
        <ele>5.1</ele>
        <time>2025-01-20T08:16:43.456Z</time>
      </trkpt>
      <trkpt lat="46.73455" lon="-2.00091">
        <ele>5.1</ele>
        <time>2025-01-20T08:16:44.455Z</time>
      </trkpt>
      <trkpt lat="46.73456" lon="-2.00093">
        <ele>5.1</ele>
        <time>2025-01-20T08:16:45.456Z</time>
      </trkpt>
      <trkpt lat="46.73456" lon="-2.00094">
        <ele>5</ele>
        <time>2025-01-20T08:16:46.456Z</time>
      </trkpt>
      <trkpt lat="46.73458" lon="-2.00095">
        <ele>5.2</ele>
        <time>2025-01-20T08:16:47.456Z</time>
      </trkpt>
      <trkpt lat="46.73459" lon="-2.00096">
        <ele>5.2</ele>
        <time>2025-01-20T08:16:48.455Z</time>
      </trkpt>
      <trkpt lat="46.7346" lon="-2.00097">
        <ele>5.3</ele>
        <time>2025-01-20T08:16:49.455Z</time>
      </trkpt>
      <trkpt lat="46.73461" lon="-2.00098">
        <ele>5.3</ele>
        <time>2025-01-20T08:16:50.456Z</time>
      </trkpt>
      <trkpt lat="46.73462" lon="-2.00099">
        <ele>5.3</ele>
        <time>2025-01-20T08:16:51.456Z</time>
      </trkpt>
      <trkpt lat="46.73463" lon="-2.001">
        <ele>5.3</ele>
        <time>2025-01-20T08:16:52.455Z</time>
      </trkpt>
      <trkpt lat="46.73464" lon="-2.00101">
        <ele>5.4</ele>
        <time>2025-01-20T08:16:53.455Z</time>
      </trkpt>
      <trkpt lat="46.73465" lon="-2.00102">
        <ele>5.4</ele>
        <time>2025-01-20T08:16:54.455Z</time>
      </trkpt>
      <trkpt lat="46.73466" lon="-2.00103">
        <ele>5.4</ele>
        <time>2025-01-20T08:16:55.455Z</time>
      </trkpt>
      <trkpt lat="46.73467" lon="-2.00105">
        <ele>5.2</ele>
        <time>2025-01-20T08:16:56.456Z</time>
      </trkpt>
      <trkpt lat="46.73468" lon="-2.00106">
        <ele>5.2</ele>
        <time>2025-01-20T08:16:57.456Z</time>
      </trkpt>
      <trkpt lat="46.73469" lon="-2.00107">
        <ele>5.2</ele>
        <time>2025-01-20T08:16:58.456Z</time>
      </trkpt>
      <trkpt lat="46.7347" lon="-2.00108">
        <ele>5.2</ele>
        <time>2025-01-20T08:16:59.456Z</time>
      </trkpt>
      <trkpt lat="46.7347" lon="-2.00109">
        <ele>5.1</ele>
        <time>2025-01-20T08:17:00.456Z</time>
      </trkpt>
      <trkpt lat="46.73471" lon="-2.0011">
        <ele>5</ele>
        <time>2025-01-20T08:17:01.455Z</time>
      </trkpt>
      <trkpt lat="46.73472" lon="-2.00111">
        <ele>5</ele>
        <time>2025-01-20T08:17:02.455Z</time>
      </trkpt>
      <trkpt lat="46.73473" lon="-2.00112">
        <ele>5.1</ele>
        <time>2025-01-20T08:17:03.455Z</time>
      </trkpt>
      <trkpt lat="46.73474" lon="-2.00113">
        <ele>5.2</ele>
        <time>2025-01-20T08:17:04.455Z</time>
      </trkpt>
      <trkpt lat="46.73475" lon="-2.00115">
        <ele>5.2</ele>
        <time>2025-01-20T08:17:05.456Z</time>
      </trkpt>
      <trkpt lat="46.73475" lon="-2.00116">
        <ele>5.1</ele>
        <time>2025-01-20T08:17:06.456Z</time>
      </trkpt>
      <trkpt lat="46.73476" lon="-2.00117">
        <ele>5.2</ele>
        <time>2025-01-20T08:17:07.456Z</time>
      </trkpt>
      <trkpt lat="46.73477" lon="-2.00119">
        <ele>5.2</ele>
        <time>2025-01-20T08:17:08.456Z</time>
      </trkpt>
      <trkpt lat="46.73478" lon="-2.0012">
        <ele>5.3</ele>
        <time>2025-01-20T08:17:09.455Z</time>
      </trkpt>
      <trkpt lat="46.73479" lon="-2.00121">
        <ele>5.3</ele>
        <time>2025-01-20T08:17:10.455Z</time>
      </trkpt>
      <trkpt lat="46.7348" lon="-2.00122">
        <ele>5.4</ele>
        <time>2025-01-20T08:17:11.455Z</time>
      </trkpt>
      <trkpt lat="46.73481" lon="-2.00123">
        <ele>5.5</ele>
        <time>2025-01-20T08:17:12.455Z</time>
      </trkpt>
      <trkpt lat="46.73482" lon="-2.00124">
        <ele>5.5</ele>
        <time>2025-01-20T08:17:13.456Z</time>
      </trkpt>
      <trkpt lat="46.73482" lon="-2.00125">
        <ele>5.4</ele>
        <time>2025-01-20T08:17:14.456Z</time>
      </trkpt>
      <trkpt lat="46.73483" lon="-2.00127">
        <ele>5.4</ele>
        <time>2025-01-20T08:17:15.456Z</time>
      </trkpt>
      <trkpt lat="46.73484" lon="-2.00128">
        <ele>5.4</ele>
        <time>2025-01-20T08:17:16.456Z</time>
      </trkpt>
      <trkpt lat="46.73485" lon="-2.00129">
        <ele>5.4</ele>
        <time>2025-01-20T08:17:17.456Z</time>
      </trkpt>
      <trkpt lat="46.73486" lon="-2.0013">
        <ele>5.4</ele>
        <time>2025-01-20T08:17:18.456Z</time>
      </trkpt>
      <trkpt lat="46.73487" lon="-2.00131">
        <ele>5.5</ele>
        <time>2025-01-20T08:17:19.455Z</time>
      </trkpt>
      <trkpt lat="46.73488" lon="-2.00132">
        <ele>5.5</ele>
        <time>2025-01-20T08:17:20.456Z</time>
      </trkpt>
      <trkpt lat="46.73489" lon="-2.00134">
        <ele>5.4</ele>
        <time>2025-01-20T08:17:21.455Z</time>
      </trkpt>
      <trkpt lat="46.7349" lon="-2.00136">
        <ele>5.3</ele>
        <time>2025-01-20T08:17:22.455Z</time>
      </trkpt>
      <trkpt lat="46.73491" lon="-2.00138">
        <ele>5.1</ele>
        <time>2025-01-20T08:17:23.456Z</time>
      </trkpt>
      <trkpt lat="46.73492" lon="-2.00139">
        <ele>5.1</ele>
        <time>2025-01-20T08:17:24.455Z</time>
      </trkpt>
      <trkpt lat="46.73492" lon="-2.00141">
        <ele>5</ele>
        <time>2025-01-20T08:17:25.455Z</time>
      </trkpt>
      <trkpt lat="46.73493" lon="-2.00142">
        <ele>5</ele>
        <time>2025-01-20T08:17:26.456Z</time>
      </trkpt>
      <trkpt lat="46.73494" lon="-2.00143">
        <ele>5.1</ele>
        <time>2025-01-20T08:17:27.456Z</time>
      </trkpt>
      <trkpt lat="46.73495" lon="-2.00144">
        <ele>5.1</ele>
        <time>2025-01-20T08:17:28.456Z</time>
      </trkpt>
      <trkpt lat="46.73496" lon="-2.00146">
        <ele>5.1</ele>
        <time>2025-01-20T08:17:29.455Z</time>
      </trkpt>
      <trkpt lat="46.73497" lon="-2.00147">
        <ele>5.1</ele>
        <time>2025-01-20T08:17:30.455Z</time>
      </trkpt>
      <trkpt lat="46.73497" lon="-2.00149">
        <ele>4.9</ele>
        <time>2025-01-20T08:17:31.455Z</time>
      </trkpt>
      <trkpt lat="46.73498" lon="-2.0015">
        <ele>5</ele>
        <time>2025-01-20T08:17:32.456Z</time>
      </trkpt>
      <trkpt lat="46.73499" lon="-2.00151">
        <ele>5</ele>
        <time>2025-01-20T08:17:33.456Z</time>
      </trkpt>
      <trkpt lat="46.735" lon="-2.00152">
        <ele>5.1</ele>
        <time>2025-01-20T08:17:34.456Z</time>
      </trkpt>
      <trkpt lat="46.73501" lon="-2.00153">
        <ele>5.1</ele>
        <time>2025-01-20T08:17:35.456Z</time>
      </trkpt>
      <trkpt lat="46.73502" lon="-2.00155">
        <ele>5.1</ele>
        <time>2025-01-20T08:17:36.456Z</time>
      </trkpt>
      <trkpt lat="46.73502" lon="-2.00156">
        <ele>5</ele>
        <time>2025-01-20T08:17:37.456Z</time>
      </trkpt>
      <trkpt lat="46.73503" lon="-2.00158">
        <ele>5</ele>
        <time>2025-01-20T08:17:38.455Z</time>
      </trkpt>
      <trkpt lat="46.73504" lon="-2.00159">
        <ele>5.1</ele>
        <time>2025-01-20T08:17:39.455Z</time>
      </trkpt>
      <trkpt lat="46.73505" lon="-2.00161">
        <ele>5.1</ele>
        <time>2025-01-20T08:17:40.455Z</time>
      </trkpt>
      <trkpt lat="46.73506" lon="-2.00162">
        <ele>5.2</ele>
        <time>2025-01-20T08:17:41.456Z</time>
      </trkpt>
      <trkpt lat="46.73507" lon="-2.00163">
        <ele>5.2</ele>
        <time>2025-01-20T08:17:42.455Z</time>
      </trkpt>
      <trkpt lat="46.73509" lon="-2.00164">
        <ele>5.5</ele>
        <time>2025-01-20T08:17:43.455Z</time>
      </trkpt>
      <trkpt lat="46.7351" lon="-2.00165">
        <ele>5.5</ele>
        <time>2025-01-20T08:17:44.455Z</time>
      </trkpt>
      <trkpt lat="46.73511" lon="-2.00166">
        <ele>5.6</ele>
        <time>2025-01-20T08:17:45.456Z</time>
      </trkpt>
      <trkpt lat="46.73512" lon="-2.00167">
        <ele>5.7</ele>
        <time>2025-01-20T08:17:46.456Z</time>
      </trkpt>
      <trkpt lat="46.73512" lon="-2.00168">
        <ele>5.6</ele>
        <time>2025-01-20T08:17:47.456Z</time>
      </trkpt>
      <trkpt lat="46.73513" lon="-2.0017">
        <ele>5.5</ele>
        <time>2025-01-20T08:17:48.456Z</time>
      </trkpt>
      <trkpt lat="46.73514" lon="-2.00171">
        <ele>5.5</ele>
        <time>2025-01-20T08:17:49.456Z</time>
      </trkpt>
      <trkpt lat="46.73515" lon="-2.00172">
        <ele>5.6</ele>
        <time>2025-01-20T08:17:50.455Z</time>
      </trkpt>
      <trkpt lat="46.73515" lon="-2.00173">
        <ele>5.5</ele>
        <time>2025-01-20T08:17:51.455Z</time>
      </trkpt>
      <trkpt lat="46.73516" lon="-2.00174">
        <ele>5.5</ele>
        <time>2025-01-20T08:17:52.456Z</time>
      </trkpt>
      <trkpt lat="46.73517" lon="-2.00176">
        <ele>5.4</ele>
        <time>2025-01-20T08:17:53.456Z</time>
      </trkpt>
      <trkpt lat="46.73518" lon="-2.00178">
        <ele>5.2</ele>
        <time>2025-01-20T08:17:54.456Z</time>
      </trkpt>
      <trkpt lat="46.73519" lon="-2.00179">
        <ele>5.2</ele>
        <time>2025-01-20T08:17:55.456Z</time>
      </trkpt>
      <trkpt lat="46.7352" lon="-2.0018">
        <ele>5.2</ele>
        <time>2025-01-20T08:17:56.456Z</time>
      </trkpt>
      <trkpt lat="46.7352" lon="-2.00182">
        <ele>5</ele>
        <time>2025-01-20T08:17:57.456Z</time>
      </trkpt>
      <trkpt lat="46.73521" lon="-2.00183">
        <ele>5</ele>
        <time>2025-01-20T08:17:58.455Z</time>
      </trkpt>
      <trkpt lat="46.73522" lon="-2.00185">
        <ele>4.8</ele>
        <time>2025-01-20T08:17:59.456Z</time>
      </trkpt>
      <trkpt lat="46.73523" lon="-2.00186">
        <ele>4.8</ele>
        <time>2025-01-20T08:18:00.455Z</time>
      </trkpt>
      <trkpt lat="46.73524" lon="-2.00187">
        <ele>4.7</ele>
        <time>2025-01-20T08:18:01.455Z</time>
      </trkpt>
      <trkpt lat="46.73524" lon="-2.00189">
        <ele>4.5</ele>
        <time>2025-01-20T08:18:02.456Z</time>
      </trkpt>
      <trkpt lat="46.73525" lon="-2.00191">
        <ele>4.3</ele>
        <time>2025-01-20T08:18:03.455Z</time>
      </trkpt>
      <trkpt lat="46.73526" lon="-2.00192">
        <ele>4.2</ele>
        <time>2025-01-20T08:18:04.455Z</time>
      </trkpt>
      <trkpt lat="46.73527" lon="-2.00194">
        <ele>4</ele>
        <time>2025-01-20T08:18:05.455Z</time>
      </trkpt>
      <trkpt lat="46.73528" lon="-2.00195">
        <ele>4</ele>
        <time>2025-01-20T08:18:06.455Z</time>
      </trkpt>
      <trkpt lat="46.73529" lon="-2.00197">
        <ele>4.1</ele>
        <time>2025-01-20T08:18:07.456Z</time>
      </trkpt>
      <trkpt lat="46.7353" lon="-2.00198">
        <ele>4.3</ele>
        <time>2025-01-20T08:18:08.456Z</time>
      </trkpt>
      <trkpt lat="46.7353" lon="-2.002">
        <ele>4.2</ele>
        <time>2025-01-20T08:18:09.456Z</time>
      </trkpt>
      <trkpt lat="46.73531" lon="-2.00201">
        <ele>4.3</ele>
        <time>2025-01-20T08:18:10.456Z</time>
      </trkpt>
      <trkpt lat="46.73532" lon="-2.00202">
        <ele>4.4</ele>
        <time>2025-01-20T08:18:11.455Z</time>
      </trkpt>
      <trkpt lat="46.73532" lon="-2.00204">
        <ele>4.3</ele>
        <time>2025-01-20T08:18:12.455Z</time>
      </trkpt>
      <trkpt lat="46.73533" lon="-2.00205">
        <ele>4.4</ele>
        <time>2025-01-20T08:18:13.456Z</time>
      </trkpt>
      <trkpt lat="46.73534" lon="-2.00207">
        <ele>4.5</ele>
        <time>2025-01-20T08:18:14.455Z</time>
      </trkpt>
      <trkpt lat="46.73535" lon="-2.00208">
        <ele>4.6</ele>
        <time>2025-01-20T08:18:15.456Z</time>
      </trkpt>
      <trkpt lat="46.73536" lon="-2.0021">
        <ele>4.6</ele>
        <time>2025-01-20T08:18:16.456Z</time>
      </trkpt>
      <trkpt lat="46.73537" lon="-2.00211">
        <ele>4.7</ele>
        <time>2025-01-20T08:18:17.455Z</time>
      </trkpt>
      <trkpt lat="46.73538" lon="-2.00213">
        <ele>4.7</ele>
        <time>2025-01-20T08:18:18.455Z</time>
      </trkpt>
      <trkpt lat="46.73539" lon="-2.00215">
        <ele>4.7</ele>
        <time>2025-01-20T08:18:19.455Z</time>
      </trkpt>
      <trkpt lat="46.7354" lon="-2.00216">
        <ele>4.7</ele>
        <time>2025-01-20T08:18:20.456Z</time>
      </trkpt>
      <trkpt lat="46.73541" lon="-2.00218">
        <ele>4.7</ele>
        <time>2025-01-20T08:18:21.456Z</time>
      </trkpt>
      <trkpt lat="46.73542" lon="-2.00219">
        <ele>4.8</ele>
        <time>2025-01-20T08:18:22.456Z</time>
      </trkpt>
      <trkpt lat="46.73543" lon="-2.0022">
        <ele>4.8</ele>
        <time>2025-01-20T08:18:23.456Z</time>
      </trkpt>
      <trkpt lat="46.73544" lon="-2.00222">
        <ele>4.8</ele>
        <time>2025-01-20T08:18:24.455Z</time>
      </trkpt>
      <trkpt lat="46.73545" lon="-2.00223">
        <ele>4.8</ele>
        <time>2025-01-20T08:18:25.455Z</time>
      </trkpt>
      <trkpt lat="46.73546" lon="-2.00224">
        <ele>4.8</ele>
        <time>2025-01-20T08:18:26.455Z</time>
      </trkpt>
      <trkpt lat="46.73547" lon="-2.00225">
        <ele>4.8</ele>
        <time>2025-01-20T08:18:27.455Z</time>
      </trkpt>
      <trkpt lat="46.73548" lon="-2.00226">
        <ele>4.8</ele>
        <time>2025-01-20T08:18:28.456Z</time>
      </trkpt>
      <trkpt lat="46.73549" lon="-2.00227">
        <ele>4.8</ele>
        <time>2025-01-20T08:18:29.456Z</time>
      </trkpt>
      <trkpt lat="46.7355" lon="-2.00228">
        <ele>4.8</ele>
        <time>2025-01-20T08:18:30.456Z</time>
      </trkpt>
      <trkpt lat="46.73552" lon="-2.00229">
        <ele>4.9</ele>
        <time>2025-01-20T08:18:31.456Z</time>
      </trkpt>
      <trkpt lat="46.73553" lon="-2.0023">
        <ele>4.9</ele>
        <time>2025-01-20T08:18:32.456Z</time>
      </trkpt>
      <trkpt lat="46.73554" lon="-2.00231">
        <ele>4.9</ele>
        <time>2025-01-20T08:18:33.456Z</time>
      </trkpt>
      <trkpt lat="46.73555" lon="-2.00232">
        <ele>4.9</ele>
        <time>2025-01-20T08:18:34.456Z</time>
      </trkpt>
      <trkpt lat="46.73555" lon="-2.00233">
        <ele>4.8</ele>
        <time>2025-01-20T08:18:35.456Z</time>
      </trkpt>
      <trkpt lat="46.73556" lon="-2.00235">
        <ele>4.7</ele>
        <time>2025-01-20T08:18:36.455Z</time>
      </trkpt>
      <trkpt lat="46.73557" lon="-2.00236">
        <ele>4.7</ele>
        <time>2025-01-20T08:18:37.455Z</time>
      </trkpt>
      <trkpt lat="46.73558" lon="-2.00237">
        <ele>4.8</ele>
        <time>2025-01-20T08:18:38.456Z</time>
      </trkpt>
      <trkpt lat="46.73559" lon="-2.00238">
        <ele>4.8</ele>
        <time>2025-01-20T08:18:39.456Z</time>
      </trkpt>
      <trkpt lat="46.7356" lon="-2.00239">
        <ele>4.9</ele>
        <time>2025-01-20T08:18:40.456Z</time>
      </trkpt>
      <trkpt lat="46.73561" lon="-2.0024">
        <ele>4.9</ele>
        <time>2025-01-20T08:18:41.455Z</time>
      </trkpt>
      <trkpt lat="46.73562" lon="-2.00242">
        <ele>4.9</ele>
        <time>2025-01-20T08:18:42.456Z</time>
      </trkpt>
      <trkpt lat="46.73563" lon="-2.00243">
        <ele>5</ele>
        <time>2025-01-20T08:18:43.456Z</time>
      </trkpt>
      <trkpt lat="46.73564" lon="-2.00244">
        <ele>5</ele>
        <time>2025-01-20T08:18:44.456Z</time>
      </trkpt>
      <trkpt lat="46.73565" lon="-2.00246">
        <ele>5</ele>
        <time>2025-01-20T08:18:45.455Z</time>
      </trkpt>
      <trkpt lat="46.73566" lon="-2.00247">
        <ele>5.1</ele>
        <time>2025-01-20T08:18:46.455Z</time>
      </trkpt>
      <trkpt lat="46.73567" lon="-2.00248">
        <ele>5.2</ele>
        <time>2025-01-20T08:18:47.455Z</time>
      </trkpt>
      <trkpt lat="46.73568" lon="-2.00249">
        <ele>5.3</ele>
        <time>2025-01-20T08:18:48.456Z</time>
      </trkpt>
      <trkpt lat="46.73569" lon="-2.0025">
        <ele>5.4</ele>
        <time>2025-01-20T08:18:49.456Z</time>
      </trkpt>
      <trkpt lat="46.7357" lon="-2.00251">
        <ele>5.5</ele>
        <time>2025-01-20T08:18:50.455Z</time>
      </trkpt>
      <trkpt lat="46.73571" lon="-2.00253">
        <ele>5.5</ele>
        <time>2025-01-20T08:18:51.456Z</time>
      </trkpt>
      <trkpt lat="46.73572" lon="-2.00254">
        <ele>5.6</ele>
        <time>2025-01-20T08:18:52.456Z</time>
      </trkpt>
      <trkpt lat="46.73573" lon="-2.00255">
        <ele>5.6</ele>
        <time>2025-01-20T08:18:53.455Z</time>
      </trkpt>
      <trkpt lat="46.73574" lon="-2.00256">
        <ele>5.7</ele>
        <time>2025-01-20T08:18:54.455Z</time>
      </trkpt>
      <trkpt lat="46.73575" lon="-2.00258">
        <ele>5.6</ele>
        <time>2025-01-20T08:18:55.455Z</time>
      </trkpt>
      <trkpt lat="46.73576" lon="-2.00259">
        <ele>5.6</ele>
        <time>2025-01-20T08:18:56.456Z</time>
      </trkpt>
      <trkpt lat="46.73577" lon="-2.0026">
        <ele>5.7</ele>
        <time>2025-01-20T08:18:57.456Z</time>
      </trkpt>
      <trkpt lat="46.73578" lon="-2.00261">
        <ele>5.7</ele>
        <time>2025-01-20T08:18:58.456Z</time>
      </trkpt>
      <trkpt lat="46.73578" lon="-2.00262">
        <ele>5.6</ele>
        <time>2025-01-20T08:18:59.456Z</time>
      </trkpt>
      <trkpt lat="46.73579" lon="-2.00263">
        <ele>5.6</ele>
        <time>2025-01-20T08:19:00.456Z</time>
      </trkpt>
      <trkpt lat="46.73579" lon="-2.00265">
        <ele>5.3</ele>
        <time>2025-01-20T08:19:01.456Z</time>
      </trkpt>
      <trkpt lat="46.7358" lon="-2.00267">
        <ele>5.2</ele>
        <time>2025-01-20T08:19:02.456Z</time>
      </trkpt>
      <trkpt lat="46.73581" lon="-2.00268">
        <ele>5.2</ele>
        <time>2025-01-20T08:19:03.456Z</time>
      </trkpt>
      <trkpt lat="46.73581" lon="-2.0027">
        <ele>4.9</ele>
        <time>2025-01-20T08:19:04.456Z</time>
      </trkpt>
      <trkpt lat="46.73582" lon="-2.00271">
        <ele>4.8</ele>
        <time>2025-01-20T08:19:05.456Z</time>
      </trkpt>
      <trkpt lat="46.73583" lon="-2.00273">
        <ele>4.7</ele>
        <time>2025-01-20T08:19:06.455Z</time>
      </trkpt>
      <trkpt lat="46.73584" lon="-2.00274">
        <ele>4.7</ele>
        <time>2025-01-20T08:19:07.456Z</time>
      </trkpt>
      <trkpt lat="46.73585" lon="-2.00275">
        <ele>4.7</ele>
        <time>2025-01-20T08:19:08.455Z</time>
      </trkpt>
      <trkpt lat="46.73586" lon="-2.00277">
        <ele>4.6</ele>
        <time>2025-01-20T08:19:09.456Z</time>
      </trkpt>
      <trkpt lat="46.73587" lon="-2.00278">
        <ele>4.6</ele>
        <time>2025-01-20T08:19:10.456Z</time>
      </trkpt>
      <trkpt lat="46.73588" lon="-2.00279">
        <ele>4.7</ele>
        <time>2025-01-20T08:19:11.455Z</time>
      </trkpt>
      <trkpt lat="46.73589" lon="-2.0028">
        <ele>4.8</ele>
        <time>2025-01-20T08:19:12.455Z</time>
      </trkpt>
      <trkpt lat="46.7359" lon="-2.00282">
        <ele>4.8</ele>
        <time>2025-01-20T08:19:13.455Z</time>
      </trkpt>
      <trkpt lat="46.73591" lon="-2.00283">
        <ele>4.9</ele>
        <time>2025-01-20T08:19:14.455Z</time>
      </trkpt>
      <trkpt lat="46.73592" lon="-2.00284">
        <ele>5</ele>
        <time>2025-01-20T08:19:15.456Z</time>
      </trkpt>
      <trkpt lat="46.73593" lon="-2.00284">
        <ele>5.1</ele>
        <time>2025-01-20T08:19:16.456Z</time>
      </trkpt>
      <trkpt lat="46.73594" lon="-2.00285">
        <ele>5.2</ele>
        <time>2025-01-20T08:19:17.456Z</time>
      </trkpt>
      <trkpt lat="46.73595" lon="-2.00286">
        <ele>5.3</ele>
        <time>2025-01-20T08:19:18.456Z</time>
      </trkpt>
      <trkpt lat="46.73596" lon="-2.00287">
        <ele>5.3</ele>
        <time>2025-01-20T08:19:19.455Z</time>
      </trkpt>
      <trkpt lat="46.73596" lon="-2.00289">
        <ele>5.1</ele>
        <time>2025-01-20T08:19:20.455Z</time>
      </trkpt>
      <trkpt lat="46.73597" lon="-2.0029">
        <ele>5.1</ele>
        <time>2025-01-20T08:19:21.456Z</time>
      </trkpt>
      <trkpt lat="46.73598" lon="-2.00292">
        <ele>5.1</ele>
        <time>2025-01-20T08:19:22.456Z</time>
      </trkpt>
      <trkpt lat="46.73599" lon="-2.00293">
        <ele>5.1</ele>
        <time>2025-01-20T08:19:23.456Z</time>
      </trkpt>
      <trkpt lat="46.73599" lon="-2.00294">
        <ele>5</ele>
        <time>2025-01-20T08:19:24.456Z</time>
      </trkpt>
      <trkpt lat="46.736" lon="-2.00295">
        <ele>5</ele>
        <time>2025-01-20T08:19:25.456Z</time>
      </trkpt>
      <trkpt lat="46.73601" lon="-2.00297">
        <ele>4.9</ele>
        <time>2025-01-20T08:19:26.456Z</time>
      </trkpt>
      <trkpt lat="46.73602" lon="-2.00298">
        <ele>4.9</ele>
        <time>2025-01-20T08:19:27.455Z</time>
      </trkpt>
      <trkpt lat="46.73603" lon="-2.00299">
        <ele>4.9</ele>
        <time>2025-01-20T08:19:28.456Z</time>
      </trkpt>
      <trkpt lat="46.73604" lon="-2.003">
        <ele>4.9</ele>
        <time>2025-01-20T08:19:29.456Z</time>
      </trkpt>
      <trkpt lat="46.73605" lon="-2.00301">
        <ele>4.9</ele>
        <time>2025-01-20T08:19:30.455Z</time>
      </trkpt>
      <trkpt lat="46.73607" lon="-2.00302">
        <ele>5</ele>
        <time>2025-01-20T08:19:31.455Z</time>
      </trkpt>
      <trkpt lat="46.73608" lon="-2.00304">
        <ele>4.9</ele>
        <time>2025-01-20T08:19:32.456Z</time>
      </trkpt>
      <trkpt lat="46.73608" lon="-2.00305">
        <ele>4.7</ele>
        <time>2025-01-20T08:19:33.455Z</time>
      </trkpt>
      <trkpt lat="46.73609" lon="-2.00306">
        <ele>4.7</ele>
        <time>2025-01-20T08:19:34.456Z</time>
      </trkpt>
      <trkpt lat="46.7361" lon="-2.00308">
        <ele>4.7</ele>
        <time>2025-01-20T08:19:35.455Z</time>
      </trkpt>
      <trkpt lat="46.73611" lon="-2.00309">
        <ele>4.7</ele>
        <time>2025-01-20T08:19:36.455Z</time>
      </trkpt>
      <trkpt lat="46.73612" lon="-2.0031">
        <ele>4.8</ele>
        <time>2025-01-20T08:19:37.455Z</time>
      </trkpt>
      <trkpt lat="46.73613" lon="-2.00311">
        <ele>4.9</ele>
        <time>2025-01-20T08:19:38.455Z</time>
      </trkpt>
      <trkpt lat="46.73614" lon="-2.00313">
        <ele>5</ele>
        <time>2025-01-20T08:19:39.455Z</time>
      </trkpt>
      <trkpt lat="46.73615" lon="-2.00315">
        <ele>5</ele>
        <time>2025-01-20T08:19:40.456Z</time>
      </trkpt>
      <trkpt lat="46.73615" lon="-2.00316">
        <ele>4.9</ele>
        <time>2025-01-20T08:19:41.456Z</time>
      </trkpt>
      <trkpt lat="46.73616" lon="-2.00317">
        <ele>5</ele>
        <time>2025-01-20T08:19:42.456Z</time>
      </trkpt>
      <trkpt lat="46.73617" lon="-2.00319">
        <ele>5</ele>
        <time>2025-01-20T08:19:43.456Z</time>
      </trkpt>
      <trkpt lat="46.73618" lon="-2.0032">
        <ele>5.1</ele>
        <time>2025-01-20T08:19:44.456Z</time>
      </trkpt>
      <trkpt lat="46.73619" lon="-2.00321">
        <ele>5.2</ele>
        <time>2025-01-20T08:19:45.455Z</time>
      </trkpt>
      <trkpt lat="46.7362" lon="-2.00322">
        <ele>5.2</ele>
        <time>2025-01-20T08:19:46.455Z</time>
      </trkpt>
      <trkpt lat="46.73621" lon="-2.00323">
        <ele>5.3</ele>
        <time>2025-01-20T08:19:47.455Z</time>
      </trkpt>
      <trkpt lat="46.73622" lon="-2.00324">
        <ele>5.4</ele>
        <time>2025-01-20T08:19:48.456Z</time>
      </trkpt>
      <trkpt lat="46.73623" lon="-2.00326">
        <ele>5.4</ele>
        <time>2025-01-20T08:19:49.455Z</time>
      </trkpt>
      <trkpt lat="46.73623" lon="-2.00327">
        <ele>5.3</ele>
        <time>2025-01-20T08:19:50.455Z</time>
      </trkpt>
      <trkpt lat="46.73624" lon="-2.00329">
        <ele>5.2</ele>
        <time>2025-01-20T08:19:51.455Z</time>
      </trkpt>
      <trkpt lat="46.73625" lon="-2.0033">
        <ele>5.3</ele>
        <time>2025-01-20T08:19:52.456Z</time>
      </trkpt>
      <trkpt lat="46.73626" lon="-2.00332">
        <ele>5.3</ele>
        <time>2025-01-20T08:19:53.456Z</time>
      </trkpt>
      <trkpt lat="46.73627" lon="-2.00333">
        <ele>5.3</ele>
        <time>2025-01-20T08:19:54.455Z</time>
      </trkpt>
      <trkpt lat="46.73628" lon="-2.00335">
        <ele>5.3</ele>
        <time>2025-01-20T08:19:55.455Z</time>
      </trkpt>
      <trkpt lat="46.73629" lon="-2.00336">
        <ele>5.3</ele>
        <time>2025-01-20T08:19:56.455Z</time>
      </trkpt>
      <trkpt lat="46.7363" lon="-2.00337">
        <ele>5.4</ele>
        <time>2025-01-20T08:19:57.456Z</time>
      </trkpt>
      <trkpt lat="46.73631" lon="-2.00338">
        <ele>5.4</ele>
        <time>2025-01-20T08:19:58.456Z</time>
      </trkpt>
      <trkpt lat="46.73632" lon="-2.0034">
        <ele>5.3</ele>
        <time>2025-01-20T08:19:59.456Z</time>
      </trkpt>
      <trkpt lat="46.73633" lon="-2.00341">
        <ele>5.4</ele>
        <time>2025-01-20T08:20:00.456Z</time>
      </trkpt>
      <trkpt lat="46.73634" lon="-2.00343">
        <ele>5.3</ele>
        <time>2025-01-20T08:20:01.456Z</time>
      </trkpt>
      <trkpt lat="46.73636" lon="-2.00344">
        <ele>5.5</ele>
        <time>2025-01-20T08:20:02.455Z</time>
      </trkpt>
      <trkpt lat="46.73637" lon="-2.00345">
        <ele>5.5</ele>
        <time>2025-01-20T08:20:03.455Z</time>
      </trkpt>
      <trkpt lat="46.73638" lon="-2.00347">
        <ele>5.4</ele>
        <time>2025-01-20T08:20:04.455Z</time>
      </trkpt>
      <trkpt lat="46.73639" lon="-2.00349">
        <ele>5.3</ele>
        <time>2025-01-20T08:20:05.456Z</time>
      </trkpt>
      <trkpt lat="46.7364" lon="-2.0035">
        <ele>5.3</ele>
        <time>2025-01-20T08:20:06.456Z</time>
      </trkpt>
      <trkpt lat="46.73641" lon="-2.00351">
        <ele>5.3</ele>
        <time>2025-01-20T08:20:07.456Z</time>
      </trkpt>
      <trkpt lat="46.73642" lon="-2.00353">
        <ele>5.3</ele>
        <time>2025-01-20T08:20:08.455Z</time>
      </trkpt>
      <trkpt lat="46.73643" lon="-2.00354">
        <ele>5.3</ele>
        <time>2025-01-20T08:20:09.455Z</time>
      </trkpt>
      <trkpt lat="46.73644" lon="-2.00355">
        <ele>5.3</ele>
        <time>2025-01-20T08:20:10.456Z</time>
      </trkpt>
      <trkpt lat="46.73645" lon="-2.00356">
        <ele>5.4</ele>
        <time>2025-01-20T08:20:11.455Z</time>
      </trkpt>
      <trkpt lat="46.73646" lon="-2.00358">
        <ele>5.3</ele>
        <time>2025-01-20T08:20:12.455Z</time>
      </trkpt>
      <trkpt lat="46.73647" lon="-2.00359">
        <ele>5.4</ele>
        <time>2025-01-20T08:20:13.456Z</time>
      </trkpt>
      <trkpt lat="46.73648" lon="-2.00361">
        <ele>5.3</ele>
        <time>2025-01-20T08:20:14.455Z</time>
      </trkpt>
      <trkpt lat="46.73649" lon="-2.00363">
        <ele>5.3</ele>
        <time>2025-01-20T08:20:15.455Z</time>
      </trkpt>
      <trkpt lat="46.7365" lon="-2.00364">
        <ele>5.3</ele>
        <time>2025-01-20T08:20:16.456Z</time>
      </trkpt>
      <trkpt lat="46.73651" lon="-2.00366">
        <ele>5.2</ele>
        <time>2025-01-20T08:20:17.456Z</time>
      </trkpt>
      <trkpt lat="46.73651" lon="-2.00367">
        <ele>5.1</ele>
        <time>2025-01-20T08:20:18.455Z</time>
      </trkpt>
      <trkpt lat="46.73652" lon="-2.00368">
        <ele>5.2</ele>
        <time>2025-01-20T08:20:19.455Z</time>
      </trkpt>
      <trkpt lat="46.73653" lon="-2.00369">
        <ele>5.2</ele>
        <time>2025-01-20T08:20:20.456Z</time>
      </trkpt>
      <trkpt lat="46.73654" lon="-2.00371">
        <ele>5.1</ele>
        <time>2025-01-20T08:20:21.455Z</time>
      </trkpt>
      <trkpt lat="46.73655" lon="-2.00373">
        <ele>5</ele>
        <time>2025-01-20T08:20:22.456Z</time>
      </trkpt>
      <trkpt lat="46.73656" lon="-2.00374">
        <ele>5</ele>
        <time>2025-01-20T08:20:23.456Z</time>
      </trkpt>
      <trkpt lat="46.73657" lon="-2.00375">
        <ele>5</ele>
        <time>2025-01-20T08:20:24.456Z</time>
      </trkpt>
      <trkpt lat="46.73658" lon="-2.00377">
        <ele>4.8</ele>
        <time>2025-01-20T08:20:25.455Z</time>
      </trkpt>
      <trkpt lat="46.73659" lon="-2.00378">
        <ele>4.8</ele>
        <time>2025-01-20T08:20:26.455Z</time>
      </trkpt>
      <trkpt lat="46.7366" lon="-2.00379">
        <ele>4.8</ele>
        <time>2025-01-20T08:20:27.455Z</time>
      </trkpt>
      <trkpt lat="46.73661" lon="-2.0038">
        <ele>4.7</ele>
        <time>2025-01-20T08:20:28.456Z</time>
      </trkpt>
      <trkpt lat="46.73662" lon="-2.00381">
        <ele>4.7</ele>
        <time>2025-01-20T08:20:29.455Z</time>
      </trkpt>
      <trkpt lat="46.73663" lon="-2.00382">
        <ele>4.7</ele>
        <time>2025-01-20T08:20:30.455Z</time>
      </trkpt>
      <trkpt lat="46.73664" lon="-2.00383">
        <ele>4.6</ele>
        <time>2025-01-20T08:20:31.455Z</time>
      </trkpt>
      <trkpt lat="46.73665" lon="-2.00384">
        <ele>4.6</ele>
        <time>2025-01-20T08:20:32.456Z</time>
      </trkpt>
      <trkpt lat="46.73666" lon="-2.00384">
        <ele>4.6</ele>
        <time>2025-01-20T08:20:33.456Z</time>
      </trkpt>
      <trkpt lat="46.73667" lon="-2.00385">
        <ele>4.6</ele>
        <time>2025-01-20T08:20:34.456Z</time>
      </trkpt>
      <trkpt lat="46.73667" lon="-2.00386">
        <ele>4.5</ele>
        <time>2025-01-20T08:20:35.456Z</time>
      </trkpt>
      <trkpt lat="46.73668" lon="-2.00388">
        <ele>4.4</ele>
        <time>2025-01-20T08:20:36.455Z</time>
      </trkpt>
      <trkpt lat="46.73669" lon="-2.00389">
        <ele>4.5</ele>
        <time>2025-01-20T08:20:37.455Z</time>
      </trkpt>
      <trkpt lat="46.7367" lon="-2.00391">
        <ele>4.6</ele>
        <time>2025-01-20T08:20:38.455Z</time>
      </trkpt>
      <trkpt lat="46.73671" lon="-2.00393">
        <ele>4.7</ele>
        <time>2025-01-20T08:20:39.455Z</time>
      </trkpt>
      <trkpt lat="46.73672" lon="-2.00394">
        <ele>4.8</ele>
        <time>2025-01-20T08:20:40.455Z</time>
      </trkpt>
      <trkpt lat="46.73673" lon="-2.00395">
        <ele>4.9</ele>
        <time>2025-01-20T08:20:41.455Z</time>
      </trkpt>
      <trkpt lat="46.73674" lon="-2.00397">
        <ele>5</ele>
        <time>2025-01-20T08:20:42.455Z</time>
      </trkpt>
      <trkpt lat="46.73675" lon="-2.00398">
        <ele>5.1</ele>
        <time>2025-01-20T08:20:43.455Z</time>
      </trkpt>
      <trkpt lat="46.73676" lon="-2.00399">
        <ele>5.2</ele>
        <time>2025-01-20T08:20:44.455Z</time>
      </trkpt>
      <trkpt lat="46.73676" lon="-2.004">
        <ele>5.1</ele>
        <time>2025-01-20T08:20:45.456Z</time>
      </trkpt>
      <trkpt lat="46.73677" lon="-2.00402">
        <ele>5.1</ele>
        <time>2025-01-20T08:20:46.456Z</time>
      </trkpt>
      <trkpt lat="46.73679" lon="-2.00403">
        <ele>5.3</ele>
        <time>2025-01-20T08:20:47.455Z</time>
      </trkpt>
      <trkpt lat="46.7368" lon="-2.00404">
        <ele>5.3</ele>
        <time>2025-01-20T08:20:48.455Z</time>
      </trkpt>
      <trkpt lat="46.73681" lon="-2.00406">
        <ele>5.2</ele>
        <time>2025-01-20T08:20:49.455Z</time>
      </trkpt>
      <trkpt lat="46.73682" lon="-2.00407">
        <ele>5.2</ele>
        <time>2025-01-20T08:20:50.456Z</time>
      </trkpt>
      <trkpt lat="46.73683" lon="-2.00408">
        <ele>5.2</ele>
        <time>2025-01-20T08:20:51.455Z</time>
      </trkpt>
      <trkpt lat="46.73684" lon="-2.00409">
        <ele>5.2</ele>
        <time>2025-01-20T08:20:52.456Z</time>
      </trkpt>
      <trkpt lat="46.73685" lon="-2.0041">
        <ele>5.2</ele>
        <time>2025-01-20T08:20:53.456Z</time>
      </trkpt>
      <trkpt lat="46.73686" lon="-2.00412">
        <ele>5</ele>
        <time>2025-01-20T08:20:54.455Z</time>
      </trkpt>
      <trkpt lat="46.73687" lon="-2.00413">
        <ele>5</ele>
        <time>2025-01-20T08:20:55.455Z</time>
      </trkpt>
      <trkpt lat="46.73688" lon="-2.00414">
        <ele>4.9</ele>
        <time>2025-01-20T08:20:56.455Z</time>
      </trkpt>
      <trkpt lat="46.73689" lon="-2.00415">
        <ele>4.9</ele>
        <time>2025-01-20T08:20:57.456Z</time>
      </trkpt>
      <trkpt lat="46.7369" lon="-2.00416">
        <ele>4.8</ele>
        <time>2025-01-20T08:20:58.455Z</time>
      </trkpt>
      <trkpt lat="46.7369" lon="-2.00418">
        <ele>4.6</ele>
        <time>2025-01-20T08:20:59.456Z</time>
      </trkpt>
      <trkpt lat="46.73691" lon="-2.00419">
        <ele>4.6</ele>
        <time>2025-01-20T08:21:00.456Z</time>
      </trkpt>
      <trkpt lat="46.73692" lon="-2.0042">
        <ele>4.6</ele>
        <time>2025-01-20T08:21:01.456Z</time>
      </trkpt>
      <trkpt lat="46.73693" lon="-2.00421">
        <ele>4.6</ele>
        <time>2025-01-20T08:21:02.456Z</time>
      </trkpt>
      <trkpt lat="46.73694" lon="-2.00423">
        <ele>4.5</ele>
        <time>2025-01-20T08:21:03.455Z</time>
      </trkpt>
      <trkpt lat="46.73695" lon="-2.00424">
        <ele>4.6</ele>
        <time>2025-01-20T08:21:04.456Z</time>
      </trkpt>
      <trkpt lat="46.73696" lon="-2.00425">
        <ele>4.6</ele>
        <time>2025-01-20T08:21:05.456Z</time>
      </trkpt>
      <trkpt lat="46.73697" lon="-2.00426">
        <ele>4.7</ele>
        <time>2025-01-20T08:21:06.456Z</time>
      </trkpt>
      <trkpt lat="46.73698" lon="-2.00428">
        <ele>4.7</ele>
        <time>2025-01-20T08:21:07.456Z</time>
      </trkpt>
      <trkpt lat="46.73699" lon="-2.00429">
        <ele>4.8</ele>
        <time>2025-01-20T08:21:08.456Z</time>
      </trkpt>
      <trkpt lat="46.737" lon="-2.00431">
        <ele>4.8</ele>
        <time>2025-01-20T08:21:09.455Z</time>
      </trkpt>
      <trkpt lat="46.73701" lon="-2.00433">
        <ele>4.7</ele>
        <time>2025-01-20T08:21:10.455Z</time>
      </trkpt>
      <trkpt lat="46.73702" lon="-2.00434">
        <ele>4.8</ele>
        <time>2025-01-20T08:21:11.455Z</time>
      </trkpt>
      <trkpt lat="46.73703" lon="-2.00436">
        <ele>4.7</ele>
        <time>2025-01-20T08:21:12.455Z</time>
      </trkpt>
      <trkpt lat="46.73704" lon="-2.00437">
        <ele>4.8</ele>
        <time>2025-01-20T08:21:13.456Z</time>
      </trkpt>
      <trkpt lat="46.73704" lon="-2.00438">
        <ele>4.7</ele>
        <time>2025-01-20T08:21:14.456Z</time>
      </trkpt>
      <trkpt lat="46.73705" lon="-2.00439">
        <ele>4.7</ele>
        <time>2025-01-20T08:21:15.456Z</time>
      </trkpt>
      <trkpt lat="46.73706" lon="-2.0044">
        <ele>4.7</ele>
        <time>2025-01-20T08:21:16.456Z</time>
      </trkpt>
      <trkpt lat="46.73707" lon="-2.00441">
        <ele>4.7</ele>
        <time>2025-01-20T08:21:17.456Z</time>
      </trkpt>
      <trkpt lat="46.73707" lon="-2.00442">
        <ele>4.6</ele>
        <time>2025-01-20T08:21:18.455Z</time>
      </trkpt>
      <trkpt lat="46.73708" lon="-2.00444">
        <ele>4.5</ele>
        <time>2025-01-20T08:21:19.455Z</time>
      </trkpt>
      <trkpt lat="46.73709" lon="-2.00445">
        <ele>4.5</ele>
        <time>2025-01-20T08:21:20.455Z</time>
      </trkpt>
      <trkpt lat="46.7371" lon="-2.00447">
        <ele>4.5</ele>
        <time>2025-01-20T08:21:21.456Z</time>
      </trkpt>
      <trkpt lat="46.73711" lon="-2.00449">
        <ele>4.5</ele>
        <time>2025-01-20T08:21:22.456Z</time>
      </trkpt>
      <trkpt lat="46.73712" lon="-2.0045">
        <ele>4.5</ele>
        <time>2025-01-20T08:21:23.455Z</time>
      </trkpt>
      <trkpt lat="46.73713" lon="-2.00451">
        <ele>4.5</ele>
        <time>2025-01-20T08:21:24.456Z</time>
      </trkpt>
      <trkpt lat="46.73714" lon="-2.00452">
        <ele>4.6</ele>
        <time>2025-01-20T08:21:25.456Z</time>
      </trkpt>
      <trkpt lat="46.73715" lon="-2.00453">
        <ele>4.6</ele>
        <time>2025-01-20T08:21:26.455Z</time>
      </trkpt>
      <trkpt lat="46.73716" lon="-2.00454">
        <ele>4.6</ele>
        <time>2025-01-20T08:21:27.456Z</time>
      </trkpt>
      <trkpt lat="46.73717" lon="-2.00455">
        <ele>4.7</ele>
        <time>2025-01-20T08:21:28.455Z</time>
      </trkpt>
      <trkpt lat="46.73718" lon="-2.00456">
        <ele>4.7</ele>
        <time>2025-01-20T08:21:29.456Z</time>
      </trkpt>
      <trkpt lat="46.73719" lon="-2.00457">
        <ele>4.7</ele>
        <time>2025-01-20T08:21:30.455Z</time>
      </trkpt>
      <trkpt lat="46.7372" lon="-2.00458">
        <ele>4.8</ele>
        <time>2025-01-20T08:21:31.455Z</time>
      </trkpt>
      <trkpt lat="46.73721" lon="-2.00459">
        <ele>4.8</ele>
        <time>2025-01-20T08:21:32.455Z</time>
      </trkpt>
      <trkpt lat="46.73722" lon="-2.0046">
        <ele>4.9</ele>
        <time>2025-01-20T08:21:33.455Z</time>
      </trkpt>
      <trkpt lat="46.73723" lon="-2.00461">
        <ele>4.9</ele>
        <time>2025-01-20T08:21:34.456Z</time>
      </trkpt>
      <trkpt lat="46.73724" lon="-2.00462">
        <ele>5</ele>
        <time>2025-01-20T08:21:35.456Z</time>
      </trkpt>
      <trkpt lat="46.73725" lon="-2.00464">
        <ele>5</ele>
        <time>2025-01-20T08:21:36.456Z</time>
      </trkpt>
      <trkpt lat="46.73726" lon="-2.00465">
        <ele>5</ele>
        <time>2025-01-20T08:21:37.456Z</time>
      </trkpt>
      <trkpt lat="46.73727" lon="-2.00466">
        <ele>5.1</ele>
        <time>2025-01-20T08:21:38.455Z</time>
      </trkpt>
      <trkpt lat="46.73728" lon="-2.00467">
        <ele>5.2</ele>
        <time>2025-01-20T08:21:39.455Z</time>
      </trkpt>
      <trkpt lat="46.73729" lon="-2.00469">
        <ele>5.2</ele>
        <time>2025-01-20T08:21:40.456Z</time>
      </trkpt>
      <trkpt lat="46.7373" lon="-2.0047">
        <ele>5.3</ele>
        <time>2025-01-20T08:21:41.456Z</time>
      </trkpt>
      <trkpt lat="46.73731" lon="-2.00472">
        <ele>5.3</ele>
        <time>2025-01-20T08:21:42.456Z</time>
      </trkpt>
      <trkpt lat="46.73732" lon="-2.00473">
        <ele>5.3</ele>
        <time>2025-01-20T08:21:43.455Z</time>
      </trkpt>
      <trkpt lat="46.73732" lon="-2.00475">
        <ele>5.1</ele>
        <time>2025-01-20T08:21:44.455Z</time>
      </trkpt>
      <trkpt lat="46.73733" lon="-2.00476">
        <ele>5.2</ele>
        <time>2025-01-20T08:21:45.455Z</time>
      </trkpt>
      <trkpt lat="46.73734" lon="-2.00477">
        <ele>5.2</ele>
        <time>2025-01-20T08:21:46.455Z</time>
      </trkpt>
      <trkpt lat="46.73735" lon="-2.00478">
        <ele>5.2</ele>
        <time>2025-01-20T08:21:47.455Z</time>
      </trkpt>
      <trkpt lat="46.73736" lon="-2.00479">
        <ele>5.3</ele>
        <time>2025-01-20T08:21:48.455Z</time>
      </trkpt>
      <trkpt lat="46.73737" lon="-2.00481">
        <ele>5.2</ele>
        <time>2025-01-20T08:21:49.455Z</time>
      </trkpt>
      <trkpt lat="46.73738" lon="-2.00482">
        <ele>5.2</ele>
        <time>2025-01-20T08:21:50.455Z</time>
      </trkpt>
      <trkpt lat="46.73738" lon="-2.00484">
        <ele>4.9</ele>
        <time>2025-01-20T08:21:51.455Z</time>
      </trkpt>
      <trkpt lat="46.73739" lon="-2.00485">
        <ele>4.9</ele>
        <time>2025-01-20T08:21:52.455Z</time>
      </trkpt>
      <trkpt lat="46.73741" lon="-2.00486">
        <ele>5</ele>
        <time>2025-01-20T08:21:53.455Z</time>
      </trkpt>
      <trkpt lat="46.73741" lon="-2.00487">
        <ele>4.9</ele>
        <time>2025-01-20T08:21:54.455Z</time>
      </trkpt>
      <trkpt lat="46.73742" lon="-2.00488">
        <ele>4.9</ele>
        <time>2025-01-20T08:21:55.455Z</time>
      </trkpt>
      <trkpt lat="46.73743" lon="-2.0049">
        <ele>4.8</ele>
        <time>2025-01-20T08:21:56.456Z</time>
      </trkpt>
      <trkpt lat="46.73744" lon="-2.00491">
        <ele>4.7</ele>
        <time>2025-01-20T08:21:57.456Z</time>
      </trkpt>
      <trkpt lat="46.73744" lon="-2.00492">
        <ele>4.6</ele>
        <time>2025-01-20T08:21:58.455Z</time>
      </trkpt>
      <trkpt lat="46.73745" lon="-2.00494">
        <ele>4.4</ele>
        <time>2025-01-20T08:21:59.455Z</time>
      </trkpt>
      <trkpt lat="46.73746" lon="-2.00495">
        <ele>4.4</ele>
        <time>2025-01-20T08:22:00.455Z</time>
      </trkpt>
      <trkpt lat="46.73747" lon="-2.00496">
        <ele>4.3</ele>
        <time>2025-01-20T08:22:01.456Z</time>
      </trkpt>
      <trkpt lat="46.73748" lon="-2.00498">
        <ele>4.1</ele>
        <time>2025-01-20T08:22:02.456Z</time>
      </trkpt>
      <trkpt lat="46.73749" lon="-2.00499">
        <ele>4.1</ele>
        <time>2025-01-20T08:22:03.456Z</time>
      </trkpt>
      <trkpt lat="46.7375" lon="-2.005">
        <ele>4</ele>
        <time>2025-01-20T08:22:04.456Z</time>
      </trkpt>
      <trkpt lat="46.73751" lon="-2.00502">
        <ele>4.1</ele>
        <time>2025-01-20T08:22:05.455Z</time>
      </trkpt>
      <trkpt lat="46.73752" lon="-2.00503">
        <ele>4.2</ele>
        <time>2025-01-20T08:22:06.455Z</time>
      </trkpt>
      <trkpt lat="46.73753" lon="-2.00504">
        <ele>4.3</ele>
        <time>2025-01-20T08:22:07.455Z</time>
      </trkpt>
      <trkpt lat="46.73754" lon="-2.00506">
        <ele>4.4</ele>
        <time>2025-01-20T08:22:08.456Z</time>
      </trkpt>
      <trkpt lat="46.73755" lon="-2.00507">
        <ele>4.5</ele>
        <time>2025-01-20T08:22:09.456Z</time>
      </trkpt>
      <trkpt lat="46.73755" lon="-2.00508">
        <ele>4.5</ele>
        <time>2025-01-20T08:22:10.455Z</time>
      </trkpt>
      <trkpt lat="46.73756" lon="-2.0051">
        <ele>4.5</ele>
        <time>2025-01-20T08:22:11.455Z</time>
      </trkpt>
      <trkpt lat="46.73757" lon="-2.0051">
        <ele>4.6</ele>
        <time>2025-01-20T08:22:12.455Z</time>
      </trkpt>
      <trkpt lat="46.73758" lon="-2.00512">
        <ele>4.6</ele>
        <time>2025-01-20T08:22:13.455Z</time>
      </trkpt>
      <trkpt lat="46.73759" lon="-2.00513">
        <ele>4.7</ele>
        <time>2025-01-20T08:22:14.456Z</time>
      </trkpt>
      <trkpt lat="46.7376" lon="-2.00515">
        <ele>4.7</ele>
        <time>2025-01-20T08:22:15.456Z</time>
      </trkpt>
      <trkpt lat="46.73761" lon="-2.00516">
        <ele>4.7</ele>
        <time>2025-01-20T08:22:16.456Z</time>
      </trkpt>
      <trkpt lat="46.73762" lon="-2.00517">
        <ele>4.8</ele>
        <time>2025-01-20T08:22:17.456Z</time>
      </trkpt>
      <trkpt lat="46.73763" lon="-2.00518">
        <ele>4.8</ele>
        <time>2025-01-20T08:22:18.455Z</time>
      </trkpt>
      <trkpt lat="46.73764" lon="-2.00519">
        <ele>4.8</ele>
        <time>2025-01-20T08:22:19.455Z</time>
      </trkpt>
      <trkpt lat="46.73765" lon="-2.0052">
        <ele>4.8</ele>
        <time>2025-01-20T08:22:20.455Z</time>
      </trkpt>
      <trkpt lat="46.73766" lon="-2.00521">
        <ele>4.8</ele>
        <time>2025-01-20T08:22:21.455Z</time>
      </trkpt>
      <trkpt lat="46.73767" lon="-2.00523">
        <ele>4.7</ele>
        <time>2025-01-20T08:22:22.456Z</time>
      </trkpt>
      <trkpt lat="46.73768" lon="-2.00524">
        <ele>4.7</ele>
        <time>2025-01-20T08:22:23.456Z</time>
      </trkpt>
      <trkpt lat="46.73769" lon="-2.00526">
        <ele>4.6</ele>
        <time>2025-01-20T08:22:24.456Z</time>
      </trkpt>
      <trkpt lat="46.73769" lon="-2.00527">
        <ele>4.5</ele>
        <time>2025-01-20T08:22:25.456Z</time>
      </trkpt>
      <trkpt lat="46.7377" lon="-2.00527">
        <ele>4.5</ele>
        <time>2025-01-20T08:22:26.455Z</time>
      </trkpt>
      <trkpt lat="46.73771" lon="-2.00529">
        <ele>4.4</ele>
        <time>2025-01-20T08:22:27.456Z</time>
      </trkpt>
      <trkpt lat="46.73772" lon="-2.0053">
        <ele>4.4</ele>
        <time>2025-01-20T08:22:28.455Z</time>
      </trkpt>
      <trkpt lat="46.73773" lon="-2.00531">
        <ele>4.4</ele>
        <time>2025-01-20T08:22:29.455Z</time>
      </trkpt>
      <trkpt lat="46.73774" lon="-2.00532">
        <ele>4.4</ele>
        <time>2025-01-20T08:22:30.455Z</time>
      </trkpt>
      <trkpt lat="46.73775" lon="-2.00533">
        <ele>4.4</ele>
        <time>2025-01-20T08:22:31.456Z</time>
      </trkpt>
      <trkpt lat="46.73776" lon="-2.00534">
        <ele>4.4</ele>
        <time>2025-01-20T08:22:32.455Z</time>
      </trkpt>
      <trkpt lat="46.73777" lon="-2.00535">
        <ele>4.4</ele>
        <time>2025-01-20T08:22:33.456Z</time>
      </trkpt>
      <trkpt lat="46.73778" lon="-2.00537">
        <ele>4.4</ele>
        <time>2025-01-20T08:22:34.456Z</time>
      </trkpt>
      <trkpt lat="46.73779" lon="-2.00538">
        <ele>4.4</ele>
        <time>2025-01-20T08:22:35.456Z</time>
      </trkpt>
      <trkpt lat="46.7378" lon="-2.00539">
        <ele>4.4</ele>
        <time>2025-01-20T08:22:36.456Z</time>
      </trkpt>
      <trkpt lat="46.7378" lon="-2.00541">
        <ele>4.3</ele>
        <time>2025-01-20T08:22:37.455Z</time>
      </trkpt>
      <trkpt lat="46.73781" lon="-2.00542">
        <ele>4.3</ele>
        <time>2025-01-20T08:22:38.455Z</time>
      </trkpt>
      <trkpt lat="46.73782" lon="-2.00543">
        <ele>4.4</ele>
        <time>2025-01-20T08:22:39.455Z</time>
      </trkpt>
      <trkpt lat="46.73783" lon="-2.00544">
        <ele>4.4</ele>
        <time>2025-01-20T08:22:40.456Z</time>
      </trkpt>
      <trkpt lat="46.73784" lon="-2.00545">
        <ele>4.4</ele>
        <time>2025-01-20T08:22:41.456Z</time>
      </trkpt>
      <trkpt lat="46.73785" lon="-2.00547">
        <ele>4.4</ele>
        <time>2025-01-20T08:22:42.455Z</time>
      </trkpt>
      <trkpt lat="46.73786" lon="-2.00548">
        <ele>4.4</ele>
        <time>2025-01-20T08:22:43.455Z</time>
      </trkpt>
      <trkpt lat="46.73787" lon="-2.00549">
        <ele>4.5</ele>
        <time>2025-01-20T08:22:44.455Z</time>
      </trkpt>
      <trkpt lat="46.73788" lon="-2.00551">
        <ele>4.4</ele>
        <time>2025-01-20T08:22:45.455Z</time>
      </trkpt>
      <trkpt lat="46.73789" lon="-2.00552">
        <ele>4.5</ele>
        <time>2025-01-20T08:22:46.456Z</time>
      </trkpt>
      <trkpt lat="46.7379" lon="-2.00553">
        <ele>4.5</ele>
        <time>2025-01-20T08:22:47.455Z</time>
      </trkpt>
      <trkpt lat="46.73791" lon="-2.00554">
        <ele>4.5</ele>
        <time>2025-01-20T08:22:48.455Z</time>
      </trkpt>
      <trkpt lat="46.73792" lon="-2.00555">
        <ele>4.6</ele>
        <time>2025-01-20T08:22:49.455Z</time>
      </trkpt>
      <trkpt lat="46.73793" lon="-2.00557">
        <ele>4.5</ele>
        <time>2025-01-20T08:22:50.456Z</time>
      </trkpt>
      <trkpt lat="46.73794" lon="-2.00558">
        <ele>4.6</ele>
        <time>2025-01-20T08:22:51.456Z</time>
      </trkpt>
      <trkpt lat="46.73795" lon="-2.00559">
        <ele>4.6</ele>
        <time>2025-01-20T08:22:52.456Z</time>
      </trkpt>
      <trkpt lat="46.73796" lon="-2.0056">
        <ele>4.6</ele>
        <time>2025-01-20T08:22:53.456Z</time>
      </trkpt>
      <trkpt lat="46.73796" lon="-2.00561">
        <ele>4.6</ele>
        <time>2025-01-20T08:22:54.456Z</time>
      </trkpt>
      <trkpt lat="46.73797" lon="-2.00563">
        <ele>4.5</ele>
        <time>2025-01-20T08:22:55.456Z</time>
      </trkpt>
      <trkpt lat="46.73798" lon="-2.00564">
        <ele>4.6</ele>
        <time>2025-01-20T08:22:56.455Z</time>
      </trkpt>
      <trkpt lat="46.73799" lon="-2.00565">
        <ele>4.6</ele>
        <time>2025-01-20T08:22:57.455Z</time>
      </trkpt>
      <trkpt lat="46.738" lon="-2.00566">
        <ele>4.6</ele>
        <time>2025-01-20T08:22:58.455Z</time>
      </trkpt>
      <trkpt lat="46.73801" lon="-2.00567">
        <ele>4.7</ele>
        <time>2025-01-20T08:22:59.456Z</time>
      </trkpt>
      <trkpt lat="46.73802" lon="-2.00568">
        <ele>4.7</ele>
        <time>2025-01-20T08:23:00.455Z</time>
      </trkpt>
      <trkpt lat="46.73803" lon="-2.00569">
        <ele>4.8</ele>
        <time>2025-01-20T08:23:01.456Z</time>
      </trkpt>
      <trkpt lat="46.73804" lon="-2.00571">
        <ele>4.7</ele>
        <time>2025-01-20T08:23:02.456Z</time>
      </trkpt>
      <trkpt lat="46.73804" lon="-2.00573">
        <ele>4.6</ele>
        <time>2025-01-20T08:23:03.455Z</time>
      </trkpt>
      <trkpt lat="46.73805" lon="-2.00574">
        <ele>4.6</ele>
        <time>2025-01-20T08:23:04.455Z</time>
      </trkpt>
      <trkpt lat="46.73806" lon="-2.00576">
        <ele>4.6</ele>
        <time>2025-01-20T08:23:05.455Z</time>
      </trkpt>
      <trkpt lat="46.73807" lon="-2.00577">
        <ele>4.6</ele>
        <time>2025-01-20T08:23:06.456Z</time>
      </trkpt>
      <trkpt lat="46.73808" lon="-2.00579">
        <ele>4.6</ele>
        <time>2025-01-20T08:23:07.456Z</time>
      </trkpt>
      <trkpt lat="46.73809" lon="-2.0058">
        <ele>4.7</ele>
        <time>2025-01-20T08:23:08.456Z</time>
      </trkpt>
      <trkpt lat="46.7381" lon="-2.00581">
        <ele>4.8</ele>
        <time>2025-01-20T08:23:09.455Z</time>
      </trkpt>
      <trkpt lat="46.73811" lon="-2.00583">
        <ele>4.8</ele>
        <time>2025-01-20T08:23:10.455Z</time>
      </trkpt>
      <trkpt lat="46.73812" lon="-2.00584">
        <ele>4.9</ele>
        <time>2025-01-20T08:23:11.455Z</time>
      </trkpt>
      <trkpt lat="46.73813" lon="-2.00585">
        <ele>4.9</ele>
        <time>2025-01-20T08:23:12.456Z</time>
      </trkpt>
      <trkpt lat="46.73814" lon="-2.00587">
        <ele>4.9</ele>
        <time>2025-01-20T08:23:13.455Z</time>
      </trkpt>
      <trkpt lat="46.73814" lon="-2.00587">
        <ele>4.9</ele>
        <time>2025-01-20T08:23:14.456Z</time>
      </trkpt>
      <trkpt lat="46.73815" lon="-2.00588">
        <ele>4.9</ele>
        <time>2025-01-20T08:23:15.456Z</time>
      </trkpt>
      <trkpt lat="46.73816" lon="-2.0059">
        <ele>4.8</ele>
        <time>2025-01-20T08:23:16.456Z</time>
      </trkpt>
      <trkpt lat="46.73817" lon="-2.00591">
        <ele>4.9</ele>
        <time>2025-01-20T08:23:17.455Z</time>
      </trkpt>
      <trkpt lat="46.73818" lon="-2.00593">
        <ele>4.8</ele>
        <time>2025-01-20T08:23:18.455Z</time>
      </trkpt>
      <trkpt lat="46.73819" lon="-2.00594">
        <ele>4.8</ele>
        <time>2025-01-20T08:23:19.455Z</time>
      </trkpt>
      <trkpt lat="46.7382" lon="-2.00595">
        <ele>4.8</ele>
        <time>2025-01-20T08:23:20.456Z</time>
      </trkpt>
      <trkpt lat="46.73821" lon="-2.00597">
        <ele>4.7</ele>
        <time>2025-01-20T08:23:21.456Z</time>
      </trkpt>
      <trkpt lat="46.73822" lon="-2.00598">
        <ele>4.7</ele>
        <time>2025-01-20T08:23:22.455Z</time>
      </trkpt>
      <trkpt lat="46.73823" lon="-2.00599">
        <ele>4.7</ele>
        <time>2025-01-20T08:23:23.456Z</time>
      </trkpt>
      <trkpt lat="46.73824" lon="-2.00601">
        <ele>4.5</ele>
        <time>2025-01-20T08:23:24.456Z</time>
      </trkpt>
      <trkpt lat="46.73825" lon="-2.00603">
        <ele>4.4</ele>
        <time>2025-01-20T08:23:25.455Z</time>
      </trkpt>
      <trkpt lat="46.73825" lon="-2.00604">
        <ele>4.3</ele>
        <time>2025-01-20T08:23:26.455Z</time>
      </trkpt>
      <trkpt lat="46.73826" lon="-2.00605">
        <ele>4.2</ele>
        <time>2025-01-20T08:23:27.455Z</time>
      </trkpt>
      <trkpt lat="46.73827" lon="-2.00606">
        <ele>4.2</ele>
        <time>2025-01-20T08:23:28.455Z</time>
      </trkpt>
      <trkpt lat="46.73828" lon="-2.00607">
        <ele>4.2</ele>
        <time>2025-01-20T08:23:29.456Z</time>
      </trkpt>
      <trkpt lat="46.73829" lon="-2.00608">
        <ele>4.1</ele>
        <time>2025-01-20T08:23:30.456Z</time>
      </trkpt>
      <trkpt lat="46.7383" lon="-2.00609">
        <ele>4</ele>
        <time>2025-01-20T08:23:31.456Z</time>
      </trkpt>
      <trkpt lat="46.73831" lon="-2.00609">
        <ele>4.1</ele>
        <time>2025-01-20T08:23:32.456Z</time>
      </trkpt>
      <trkpt lat="46.73832" lon="-2.00611">
        <ele>3.9</ele>
        <time>2025-01-20T08:23:33.455Z</time>
      </trkpt>
      <trkpt lat="46.73833" lon="-2.00612">
        <ele>3.9</ele>
        <time>2025-01-20T08:23:34.455Z</time>
      </trkpt>
      <trkpt lat="46.73834" lon="-2.00613">
        <ele>4</ele>
        <time>2025-01-20T08:23:35.455Z</time>
      </trkpt>
      <trkpt lat="46.73836" lon="-2.00614">
        <ele>4.3</ele>
        <time>2025-01-20T08:23:36.455Z</time>
      </trkpt>
      <trkpt lat="46.73837" lon="-2.00615">
        <ele>4.3</ele>
        <time>2025-01-20T08:23:37.456Z</time>
      </trkpt>
      <trkpt lat="46.73838" lon="-2.00616">
        <ele>4.4</ele>
        <time>2025-01-20T08:23:38.456Z</time>
      </trkpt>
      <trkpt lat="46.73839" lon="-2.00617">
        <ele>4.5</ele>
        <time>2025-01-20T08:23:39.456Z</time>
      </trkpt>
      <trkpt lat="46.73839" lon="-2.00618">
        <ele>4.4</ele>
        <time>2025-01-20T08:23:40.455Z</time>
      </trkpt>
      <trkpt lat="46.7384" lon="-2.00619">
        <ele>4.5</ele>
        <time>2025-01-20T08:23:41.456Z</time>
      </trkpt>
      <trkpt lat="46.73841" lon="-2.0062">
        <ele>4.6</ele>
        <time>2025-01-20T08:23:42.455Z</time>
      </trkpt>
      <trkpt lat="46.73842" lon="-2.00621">
        <ele>4.6</ele>
        <time>2025-01-20T08:23:43.455Z</time>
      </trkpt>
      <trkpt lat="46.73843" lon="-2.00623">
        <ele>4.6</ele>
        <time>2025-01-20T08:23:44.455Z</time>
      </trkpt>
      <trkpt lat="46.73845" lon="-2.00624">
        <ele>4.8</ele>
        <time>2025-01-20T08:23:45.455Z</time>
      </trkpt>
      <trkpt lat="46.73846" lon="-2.00626">
        <ele>4.7</ele>
        <time>2025-01-20T08:23:46.456Z</time>
      </trkpt>
      <trkpt lat="46.73847" lon="-2.00626">
        <ele>4.9</ele>
        <time>2025-01-20T08:23:47.456Z</time>
      </trkpt>
      <trkpt lat="46.73848" lon="-2.00627">
        <ele>4.9</ele>
        <time>2025-01-20T08:23:48.456Z</time>
      </trkpt>
      <trkpt lat="46.73849" lon="-2.00628">
        <ele>4.9</ele>
        <time>2025-01-20T08:23:49.455Z</time>
      </trkpt>
      <trkpt lat="46.7385" lon="-2.00629">
        <ele>4.9</ele>
        <time>2025-01-20T08:23:50.455Z</time>
      </trkpt>
      <trkpt lat="46.7385" lon="-2.00631">
        <ele>4.7</ele>
        <time>2025-01-20T08:23:51.456Z</time>
      </trkpt>
      <trkpt lat="46.73851" lon="-2.00632">
        <ele>4.7</ele>
        <time>2025-01-20T08:23:52.456Z</time>
      </trkpt>
      <trkpt lat="46.73852" lon="-2.00633">
        <ele>4.7</ele>
        <time>2025-01-20T08:23:53.456Z</time>
      </trkpt>
      <trkpt lat="46.73853" lon="-2.00634">
        <ele>4.7</ele>
        <time>2025-01-20T08:23:54.456Z</time>
      </trkpt>
      <trkpt lat="46.73853" lon="-2.00636">
        <ele>4.5</ele>
        <time>2025-01-20T08:23:55.456Z</time>
      </trkpt>
      <trkpt lat="46.73854" lon="-2.00637">
        <ele>4.5</ele>
        <time>2025-01-20T08:23:56.455Z</time>
      </trkpt>
      <trkpt lat="46.73855" lon="-2.00639">
        <ele>4.3</ele>
        <time>2025-01-20T08:23:57.455Z</time>
      </trkpt>
      <trkpt lat="46.73856" lon="-2.0064">
        <ele>4.4</ele>
        <time>2025-01-20T08:23:58.455Z</time>
      </trkpt>
      <trkpt lat="46.73856" lon="-2.00642">
        <ele>4.2</ele>
        <time>2025-01-20T08:23:59.455Z</time>
      </trkpt>
      <trkpt lat="46.73857" lon="-2.00643">
        <ele>4.3</ele>
        <time>2025-01-20T08:24:00.456Z</time>
      </trkpt>
      <trkpt lat="46.73858" lon="-2.00645">
        <ele>4.2</ele>
        <time>2025-01-20T08:24:01.456Z</time>
      </trkpt>
      <trkpt lat="46.73859" lon="-2.00646">
        <ele>4.3</ele>
        <time>2025-01-20T08:24:02.456Z</time>
      </trkpt>
      <trkpt lat="46.7386" lon="-2.00647">
        <ele>4.3</ele>
        <time>2025-01-20T08:24:03.456Z</time>
      </trkpt>
      <trkpt lat="46.7386" lon="-2.00649">
        <ele>4.2</ele>
        <time>2025-01-20T08:24:04.455Z</time>
      </trkpt>
      <trkpt lat="46.73861" lon="-2.0065">
        <ele>4.2</ele>
        <time>2025-01-20T08:24:05.455Z</time>
      </trkpt>
      <trkpt lat="46.73862" lon="-2.00652">
        <ele>4.2</ele>
        <time>2025-01-20T08:24:06.455Z</time>
      </trkpt>
      <trkpt lat="46.73863" lon="-2.00653">
        <ele>4.3</ele>
        <time>2025-01-20T08:24:07.456Z</time>
      </trkpt>
      <trkpt lat="46.73864" lon="-2.00655">
        <ele>4.3</ele>
        <time>2025-01-20T08:24:08.456Z</time>
      </trkpt>
      <trkpt lat="46.73865" lon="-2.00656">
        <ele>4.3</ele>
        <time>2025-01-20T08:24:09.456Z</time>
      </trkpt>
      <trkpt lat="46.73866" lon="-2.00657">
        <ele>4.4</ele>
        <time>2025-01-20T08:24:10.456Z</time>
      </trkpt>
      <trkpt lat="46.73867" lon="-2.00658">
        <ele>4.5</ele>
        <time>2025-01-20T08:24:11.456Z</time>
      </trkpt>
      <trkpt lat="46.73868" lon="-2.00659">
        <ele>4.5</ele>
        <time>2025-01-20T08:24:12.455Z</time>
      </trkpt>
      <trkpt lat="46.73869" lon="-2.0066">
        <ele>4.6</ele>
        <time>2025-01-20T08:24:13.455Z</time>
      </trkpt>
      <trkpt lat="46.7387" lon="-2.00661">
        <ele>4.7</ele>
        <time>2025-01-20T08:24:14.455Z</time>
      </trkpt>
      <trkpt lat="46.73871" lon="-2.00663">
        <ele>4.7</ele>
        <time>2025-01-20T08:24:15.455Z</time>
      </trkpt>
      <trkpt lat="46.73872" lon="-2.00664">
        <ele>4.8</ele>
        <time>2025-01-20T08:24:16.455Z</time>
      </trkpt>
      <trkpt lat="46.73873" lon="-2.00665">
        <ele>4.8</ele>
        <time>2025-01-20T08:24:17.455Z</time>
      </trkpt>
      <trkpt lat="46.73874" lon="-2.00667">
        <ele>4.8</ele>
        <time>2025-01-20T08:24:18.456Z</time>
      </trkpt>
      <trkpt lat="46.73875" lon="-2.00668">
        <ele>4.9</ele>
        <time>2025-01-20T08:24:19.456Z</time>
      </trkpt>
      <trkpt lat="46.73875" lon="-2.00669">
        <ele>4.8</ele>
        <time>2025-01-20T08:24:20.456Z</time>
      </trkpt>
      <trkpt lat="46.73876" lon="-2.00671">
        <ele>4.7</ele>
        <time>2025-01-20T08:24:21.456Z</time>
      </trkpt>
      <trkpt lat="46.73877" lon="-2.00672">
        <ele>4.8</ele>
        <time>2025-01-20T08:24:22.456Z</time>
      </trkpt>
      <trkpt lat="46.73878" lon="-2.00673">
        <ele>4.8</ele>
        <time>2025-01-20T08:24:23.455Z</time>
      </trkpt>
      <trkpt lat="46.73879" lon="-2.00674">
        <ele>4.9</ele>
        <time>2025-01-20T08:24:24.455Z</time>
      </trkpt>
      <trkpt lat="46.7388" lon="-2.00675">
        <ele>4.9</ele>
        <time>2025-01-20T08:24:25.455Z</time>
      </trkpt>
      <trkpt lat="46.73881" lon="-2.00676">
        <ele>5</ele>
        <time>2025-01-20T08:24:26.455Z</time>
      </trkpt>
      <trkpt lat="46.73882" lon="-2.00677">
        <ele>5</ele>
        <time>2025-01-20T08:24:27.456Z</time>
      </trkpt>
      <trkpt lat="46.73883" lon="-2.00678">
        <ele>5</ele>
        <time>2025-01-20T08:24:28.456Z</time>
      </trkpt>
      <trkpt lat="46.73883" lon="-2.0068">
        <ele>4.8</ele>
        <time>2025-01-20T08:24:29.456Z</time>
      </trkpt>
      <trkpt lat="46.73884" lon="-2.00682">
        <ele>4.7</ele>
        <time>2025-01-20T08:24:30.456Z</time>
      </trkpt>
      <trkpt lat="46.73885" lon="-2.00683">
        <ele>4.8</ele>
        <time>2025-01-20T08:24:31.455Z</time>
      </trkpt>
      <trkpt lat="46.73886" lon="-2.00685">
        <ele>4.7</ele>
        <time>2025-01-20T08:24:32.456Z</time>
      </trkpt>
      <trkpt lat="46.73886" lon="-2.00686">
        <ele>4.6</ele>
        <time>2025-01-20T08:24:33.456Z</time>
      </trkpt>
      <trkpt lat="46.73886" lon="-2.00687">
        <ele>4.5</ele>
        <time>2025-01-20T08:24:34.455Z</time>
      </trkpt>
      <trkpt lat="46.73887" lon="-2.00688">
        <ele>4.5</ele>
        <time>2025-01-20T08:24:35.455Z</time>
      </trkpt>
      <trkpt lat="46.73888" lon="-2.00689">
        <ele>4.5</ele>
        <time>2025-01-20T08:24:36.455Z</time>
      </trkpt>
      <trkpt lat="46.73889" lon="-2.0069">
        <ele>4.5</ele>
        <time>2025-01-20T08:24:37.455Z</time>
      </trkpt>
      <trkpt lat="46.7389" lon="-2.00692">
        <ele>4.4</ele>
        <time>2025-01-20T08:24:38.456Z</time>
      </trkpt>
      <trkpt lat="46.73892" lon="-2.00693">
        <ele>4.7</ele>
        <time>2025-01-20T08:24:39.456Z</time>
      </trkpt>
      <trkpt lat="46.73893" lon="-2.00695">
        <ele>4.7</ele>
        <time>2025-01-20T08:24:40.455Z</time>
      </trkpt>
      <trkpt lat="46.73893" lon="-2.00696">
        <ele>4.6</ele>
        <time>2025-01-20T08:24:41.455Z</time>
      </trkpt>
      <trkpt lat="46.73894" lon="-2.00697">
        <ele>4.7</ele>
        <time>2025-01-20T08:24:42.456Z</time>
      </trkpt>
      <trkpt lat="46.73895" lon="-2.00698">
        <ele>4.8</ele>
        <time>2025-01-20T08:24:43.455Z</time>
      </trkpt>
      <trkpt lat="46.73895" lon="-2.007">
        <ele>4.6</ele>
        <time>2025-01-20T08:24:44.455Z</time>
      </trkpt>
      <trkpt lat="46.73896" lon="-2.00701">
        <ele>4.6</ele>
        <time>2025-01-20T08:24:45.455Z</time>
      </trkpt>
      <trkpt lat="46.73897" lon="-2.00703">
        <ele>4.6</ele>
        <time>2025-01-20T08:24:46.455Z</time>
      </trkpt>
      <trkpt lat="46.73898" lon="-2.00704">
        <ele>4.6</ele>
        <time>2025-01-20T08:24:47.456Z</time>
      </trkpt>
      <trkpt lat="46.73899" lon="-2.00706">
        <ele>4.5</ele>
        <time>2025-01-20T08:24:48.455Z</time>
      </trkpt>
      <trkpt lat="46.739" lon="-2.00707">
        <ele>4.6</ele>
        <time>2025-01-20T08:24:49.456Z</time>
      </trkpt>
      <trkpt lat="46.73901" lon="-2.00708">
        <ele>4.6</ele>
        <time>2025-01-20T08:24:50.455Z</time>
      </trkpt>
      <trkpt lat="46.73902" lon="-2.00709">
        <ele>4.6</ele>
        <time>2025-01-20T08:24:51.455Z</time>
      </trkpt>
      <trkpt lat="46.73903" lon="-2.0071">
        <ele>4.6</ele>
        <time>2025-01-20T08:24:52.455Z</time>
      </trkpt>
      <trkpt lat="46.73903" lon="-2.00712">
        <ele>4.3</ele>
        <time>2025-01-20T08:24:53.455Z</time>
      </trkpt>
      <trkpt lat="46.73904" lon="-2.00713">
        <ele>4.3</ele>
        <time>2025-01-20T08:24:54.455Z</time>
      </trkpt>
      <trkpt lat="46.73905" lon="-2.00714">
        <ele>4.3</ele>
        <time>2025-01-20T08:24:55.455Z</time>
      </trkpt>
      <trkpt lat="46.73906" lon="-2.00715">
        <ele>4.2</ele>
        <time>2025-01-20T08:24:56.456Z</time>
      </trkpt>
      <trkpt lat="46.73907" lon="-2.00717">
        <ele>4</ele>
        <time>2025-01-20T08:24:57.456Z</time>
      </trkpt>
      <trkpt lat="46.73908" lon="-2.00718">
        <ele>4</ele>
        <time>2025-01-20T08:24:58.456Z</time>
      </trkpt>
      <trkpt lat="46.73909" lon="-2.00719">
        <ele>3.9</ele>
        <time>2025-01-20T08:24:59.455Z</time>
      </trkpt>
      <trkpt lat="46.7391" lon="-2.0072">
        <ele>3.9</ele>
        <time>2025-01-20T08:25:00.456Z</time>
      </trkpt>
      <trkpt lat="46.73911" lon="-2.00721">
        <ele>3.8</ele>
        <time>2025-01-20T08:25:01.456Z</time>
      </trkpt>
      <trkpt lat="46.73912" lon="-2.00722">
        <ele>3.7</ele>
        <time>2025-01-20T08:25:02.456Z</time>
      </trkpt>
      <trkpt lat="46.73913" lon="-2.00724">
        <ele>3.6</ele>
        <time>2025-01-20T08:25:03.456Z</time>
      </trkpt>
      <trkpt lat="46.73914" lon="-2.00725">
        <ele>3.6</ele>
        <time>2025-01-20T08:25:04.455Z</time>
      </trkpt>
      <trkpt lat="46.73915" lon="-2.00727">
        <ele>3.6</ele>
        <time>2025-01-20T08:25:05.455Z</time>
      </trkpt>
      <trkpt lat="46.73916" lon="-2.00728">
        <ele>3.5</ele>
        <time>2025-01-20T08:25:06.455Z</time>
      </trkpt>
      <trkpt lat="46.73917" lon="-2.00729">
        <ele>3.6</ele>
        <time>2025-01-20T08:25:07.455Z</time>
      </trkpt>
      <trkpt lat="46.73918" lon="-2.0073">
        <ele>3.7</ele>
        <time>2025-01-20T08:25:08.455Z</time>
      </trkpt>
      <trkpt lat="46.73919" lon="-2.00732">
        <ele>3.7</ele>
        <time>2025-01-20T08:25:09.456Z</time>
      </trkpt>
      <trkpt lat="46.7392" lon="-2.00733">
        <ele>3.8</ele>
        <time>2025-01-20T08:25:10.456Z</time>
      </trkpt>
      <trkpt lat="46.73921" lon="-2.00734">
        <ele>3.9</ele>
        <time>2025-01-20T08:25:11.455Z</time>
      </trkpt>
      <trkpt lat="46.73922" lon="-2.00736">
        <ele>3.9</ele>
        <time>2025-01-20T08:25:12.455Z</time>
      </trkpt>
      <trkpt lat="46.73923" lon="-2.00737">
        <ele>3.9</ele>
        <time>2025-01-20T08:25:13.455Z</time>
      </trkpt>
      <trkpt lat="46.73924" lon="-2.00738">
        <ele>4</ele>
        <time>2025-01-20T08:25:14.455Z</time>
      </trkpt>
      <trkpt lat="46.73924" lon="-2.00739">
        <ele>3.9</ele>
        <time>2025-01-20T08:25:15.455Z</time>
      </trkpt>
      <trkpt lat="46.73925" lon="-2.0074">
        <ele>3.9</ele>
        <time>2025-01-20T08:25:16.456Z</time>
      </trkpt>
      <trkpt lat="46.73926" lon="-2.00742">
        <ele>3.9</ele>
        <time>2025-01-20T08:25:17.455Z</time>
      </trkpt>
      <trkpt lat="46.73927" lon="-2.00743">
        <ele>3.9</ele>
        <time>2025-01-20T08:25:18.456Z</time>
      </trkpt>
      <trkpt lat="46.73928" lon="-2.00745">
        <ele>3.8</ele>
        <time>2025-01-20T08:25:19.456Z</time>
      </trkpt>
      <trkpt lat="46.73929" lon="-2.00746">
        <ele>3.8</ele>
        <time>2025-01-20T08:25:20.455Z</time>
      </trkpt>
      <trkpt lat="46.7393" lon="-2.00746">
        <ele>3.9</ele>
        <time>2025-01-20T08:25:21.456Z</time>
      </trkpt>
      <trkpt lat="46.73931" lon="-2.00747">
        <ele>3.9</ele>
        <time>2025-01-20T08:25:22.455Z</time>
      </trkpt>
      <trkpt lat="46.73932" lon="-2.00748">
        <ele>3.9</ele>
        <time>2025-01-20T08:25:23.456Z</time>
      </trkpt>
      <trkpt lat="46.73933" lon="-2.00749">
        <ele>3.9</ele>
        <time>2025-01-20T08:25:24.455Z</time>
      </trkpt>
      <trkpt lat="46.73933" lon="-2.00751">
        <ele>3.7</ele>
        <time>2025-01-20T08:25:25.456Z</time>
      </trkpt>
      <trkpt lat="46.73934" lon="-2.00752">
        <ele>3.8</ele>
        <time>2025-01-20T08:25:26.455Z</time>
      </trkpt>
      <trkpt lat="46.73935" lon="-2.00753">
        <ele>3.8</ele>
        <time>2025-01-20T08:25:27.456Z</time>
      </trkpt>
      <trkpt lat="46.73936" lon="-2.00754">
        <ele>3.8</ele>
        <time>2025-01-20T08:25:28.456Z</time>
      </trkpt>
      <trkpt lat="46.73936" lon="-2.00755">
        <ele>3.8</ele>
        <time>2025-01-20T08:25:29.456Z</time>
      </trkpt>
      <trkpt lat="46.73937" lon="-2.00756">
        <ele>3.8</ele>
        <time>2025-01-20T08:25:30.455Z</time>
      </trkpt>
      <trkpt lat="46.73938" lon="-2.00756">
        <ele>3.9</ele>
        <time>2025-01-20T08:25:31.456Z</time>
      </trkpt>
      <trkpt lat="46.73939" lon="-2.00757">
        <ele>4</ele>
        <time>2025-01-20T08:25:32.455Z</time>
      </trkpt>
      <trkpt lat="46.7394" lon="-2.00759">
        <ele>3.9</ele>
        <time>2025-01-20T08:25:33.455Z</time>
      </trkpt>
      <trkpt lat="46.73941" lon="-2.0076">
        <ele>4</ele>
        <time>2025-01-20T08:25:34.455Z</time>
      </trkpt>
      <trkpt lat="46.73941" lon="-2.00761">
        <ele>3.9</ele>
        <time>2025-01-20T08:25:35.455Z</time>
      </trkpt>
      <trkpt lat="46.73942" lon="-2.00762">
        <ele>3.9</ele>
        <time>2025-01-20T08:25:36.456Z</time>
      </trkpt>
      <trkpt lat="46.73943" lon="-2.00764">
        <ele>3.9</ele>
        <time>2025-01-20T08:25:37.456Z</time>
      </trkpt>
      <trkpt lat="46.73944" lon="-2.00765">
        <ele>3.9</ele>
        <time>2025-01-20T08:25:38.455Z</time>
      </trkpt>
      <trkpt lat="46.73945" lon="-2.00766">
        <ele>3.9</ele>
        <time>2025-01-20T08:25:39.456Z</time>
      </trkpt>
      <trkpt lat="46.73946" lon="-2.00767">
        <ele>4</ele>
        <time>2025-01-20T08:25:40.456Z</time>
      </trkpt>
      <trkpt lat="46.73947" lon="-2.00768">
        <ele>4.1</ele>
        <time>2025-01-20T08:25:41.455Z</time>
      </trkpt>
      <trkpt lat="46.73948" lon="-2.00769">
        <ele>4.1</ele>
        <time>2025-01-20T08:25:42.455Z</time>
      </trkpt>
      <trkpt lat="46.73949" lon="-2.0077">
        <ele>4.2</ele>
        <time>2025-01-20T08:25:43.456Z</time>
      </trkpt>
      <trkpt lat="46.73949" lon="-2.00772">
        <ele>4.1</ele>
        <time>2025-01-20T08:25:44.456Z</time>
      </trkpt>
      <trkpt lat="46.7395" lon="-2.00773">
        <ele>4.1</ele>
        <time>2025-01-20T08:25:45.455Z</time>
      </trkpt>
      <trkpt lat="46.73951" lon="-2.00774">
        <ele>4.2</ele>
        <time>2025-01-20T08:25:46.455Z</time>
      </trkpt>
      <trkpt lat="46.73952" lon="-2.00775">
        <ele>4.3</ele>
        <time>2025-01-20T08:25:47.455Z</time>
      </trkpt>
      <trkpt lat="46.73953" lon="-2.00776">
        <ele>4.4</ele>
        <time>2025-01-20T08:25:48.455Z</time>
      </trkpt>
      <trkpt lat="46.73954" lon="-2.00777">
        <ele>4.4</ele>
        <time>2025-01-20T08:25:49.455Z</time>
      </trkpt>
      <trkpt lat="46.73955" lon="-2.00778">
        <ele>4.5</ele>
        <time>2025-01-20T08:25:50.456Z</time>
      </trkpt>
      <trkpt lat="46.73956" lon="-2.0078">
        <ele>4.5</ele>
        <time>2025-01-20T08:25:51.455Z</time>
      </trkpt>
      <trkpt lat="46.73957" lon="-2.0078">
        <ele>4.6</ele>
        <time>2025-01-20T08:25:52.456Z</time>
      </trkpt>
      <trkpt lat="46.73958" lon="-2.00782">
        <ele>4.6</ele>
        <time>2025-01-20T08:25:53.455Z</time>
      </trkpt>
      <trkpt lat="46.73959" lon="-2.00784">
        <ele>4.5</ele>
        <time>2025-01-20T08:25:54.455Z</time>
      </trkpt>
      <trkpt lat="46.7396" lon="-2.00785">
        <ele>4.6</ele>
        <time>2025-01-20T08:25:55.456Z</time>
      </trkpt>
      <trkpt lat="46.73961" lon="-2.00787">
        <ele>4.5</ele>
        <time>2025-01-20T08:25:56.456Z</time>
      </trkpt>
      <trkpt lat="46.73962" lon="-2.00788">
        <ele>4.6</ele>
        <time>2025-01-20T08:25:57.456Z</time>
      </trkpt>
      <trkpt lat="46.73962" lon="-2.00789">
        <ele>4.5</ele>
        <time>2025-01-20T08:25:58.455Z</time>
      </trkpt>
      <trkpt lat="46.73963" lon="-2.0079">
        <ele>4.5</ele>
        <time>2025-01-20T08:25:59.456Z</time>
      </trkpt>
      <trkpt lat="46.73964" lon="-2.00791">
        <ele>4.5</ele>
        <time>2025-01-20T08:26:00.455Z</time>
      </trkpt>
      <trkpt lat="46.73965" lon="-2.00792">
        <ele>4.6</ele>
        <time>2025-01-20T08:26:01.456Z</time>
      </trkpt>
      <trkpt lat="46.73966" lon="-2.00794">
        <ele>4.5</ele>
        <time>2025-01-20T08:26:02.455Z</time>
      </trkpt>
      <trkpt lat="46.73967" lon="-2.00795">
        <ele>4.5</ele>
        <time>2025-01-20T08:26:03.456Z</time>
      </trkpt>
      <trkpt lat="46.73968" lon="-2.00797">
        <ele>4.4</ele>
        <time>2025-01-20T08:26:04.455Z</time>
      </trkpt>
      <trkpt lat="46.73969" lon="-2.00798">
        <ele>4.4</ele>
        <time>2025-01-20T08:26:05.456Z</time>
      </trkpt>
      <trkpt lat="46.7397" lon="-2.00799">
        <ele>4.4</ele>
        <time>2025-01-20T08:26:06.456Z</time>
      </trkpt>
      <trkpt lat="46.73971" lon="-2.008">
        <ele>4.5</ele>
        <time>2025-01-20T08:26:07.455Z</time>
      </trkpt>
      <trkpt lat="46.73971" lon="-2.00801">
        <ele>4.4</ele>
        <time>2025-01-20T08:26:08.455Z</time>
      </trkpt>
      <trkpt lat="46.73972" lon="-2.00803">
        <ele>4.3</ele>
        <time>2025-01-20T08:26:09.456Z</time>
      </trkpt>
      <trkpt lat="46.73973" lon="-2.00804">
        <ele>4.3</ele>
        <time>2025-01-20T08:26:10.456Z</time>
      </trkpt>
      <trkpt lat="46.73973" lon="-2.00805">
        <ele>4.2</ele>
        <time>2025-01-20T08:26:11.456Z</time>
      </trkpt>
      <trkpt lat="46.73974" lon="-2.00806">
        <ele>4.3</ele>
        <time>2025-01-20T08:26:12.456Z</time>
      </trkpt>
      <trkpt lat="46.73975" lon="-2.00807">
        <ele>4.4</ele>
        <time>2025-01-20T08:26:13.456Z</time>
      </trkpt>
      <trkpt lat="46.73976" lon="-2.00809">
        <ele>4.4</ele>
        <time>2025-01-20T08:26:14.455Z</time>
      </trkpt>
      <trkpt lat="46.73977" lon="-2.0081">
        <ele>4.5</ele>
        <time>2025-01-20T08:26:15.455Z</time>
      </trkpt>
      <trkpt lat="46.73978" lon="-2.00812">
        <ele>4.4</ele>
        <time>2025-01-20T08:26:16.455Z</time>
      </trkpt>
      <trkpt lat="46.73979" lon="-2.00813">
        <ele>4.5</ele>
        <time>2025-01-20T08:26:17.456Z</time>
      </trkpt>
      <trkpt lat="46.7398" lon="-2.00814">
        <ele>4.5</ele>
        <time>2025-01-20T08:26:18.456Z</time>
      </trkpt>
      <trkpt lat="46.7398" lon="-2.00815">
        <ele>4.4</ele>
        <time>2025-01-20T08:26:19.456Z</time>
      </trkpt>
      <trkpt lat="46.73981" lon="-2.00816">
        <ele>4.5</ele>
        <time>2025-01-20T08:26:20.456Z</time>
      </trkpt>
      <trkpt lat="46.73982" lon="-2.00817">
        <ele>4.5</ele>
        <time>2025-01-20T08:26:21.456Z</time>
      </trkpt>
      <trkpt lat="46.73983" lon="-2.00818">
        <ele>4.5</ele>
        <time>2025-01-20T08:26:22.455Z</time>
      </trkpt>
      <trkpt lat="46.73984" lon="-2.00819">
        <ele>4.5</ele>
        <time>2025-01-20T08:26:23.455Z</time>
      </trkpt>
      <trkpt lat="46.73985" lon="-2.0082">
        <ele>4.5</ele>
        <time>2025-01-20T08:26:24.455Z</time>
      </trkpt>
      <trkpt lat="46.73986" lon="-2.00821">
        <ele>4.5</ele>
        <time>2025-01-20T08:26:25.456Z</time>
      </trkpt>
      <trkpt lat="46.73987" lon="-2.00822">
        <ele>4.5</ele>
        <time>2025-01-20T08:26:26.456Z</time>
      </trkpt>
      <trkpt lat="46.73988" lon="-2.00823">
        <ele>4.5</ele>
        <time>2025-01-20T08:26:27.456Z</time>
      </trkpt>
      <trkpt lat="46.73989" lon="-2.00824">
        <ele>4.5</ele>
        <time>2025-01-20T08:26:28.456Z</time>
      </trkpt>
      <trkpt lat="46.73989" lon="-2.00825">
        <ele>4.4</ele>
        <time>2025-01-20T08:26:29.456Z</time>
      </trkpt>
      <trkpt lat="46.7399" lon="-2.00826">
        <ele>4.3</ele>
        <time>2025-01-20T08:26:30.455Z</time>
      </trkpt>
      <trkpt lat="46.73991" lon="-2.00828">
        <ele>4.1</ele>
        <time>2025-01-20T08:26:31.455Z</time>
      </trkpt>
      <trkpt lat="46.73992" lon="-2.00829">
        <ele>4.1</ele>
        <time>2025-01-20T08:26:32.455Z</time>
      </trkpt>
      <trkpt lat="46.73993" lon="-2.0083">
        <ele>4</ele>
        <time>2025-01-20T08:26:33.455Z</time>
      </trkpt>
      <trkpt lat="46.73993" lon="-2.00832">
        <ele>3.7</ele>
        <time>2025-01-20T08:26:34.456Z</time>
      </trkpt>
      <trkpt lat="46.73994" lon="-2.00833">
        <ele>3.6</ele>
        <time>2025-01-20T08:26:35.456Z</time>
      </trkpt>
      <trkpt lat="46.73995" lon="-2.00834">
        <ele>3.6</ele>
        <time>2025-01-20T08:26:36.456Z</time>
      </trkpt>
      <trkpt lat="46.73996" lon="-2.00836">
        <ele>3.6</ele>
        <time>2025-01-20T08:26:37.456Z</time>
      </trkpt>
      <trkpt lat="46.73997" lon="-2.00837">
        <ele>3.7</ele>
        <time>2025-01-20T08:26:38.455Z</time>
      </trkpt>
      <trkpt lat="46.73998" lon="-2.00838">
        <ele>3.7</ele>
        <time>2025-01-20T08:26:39.455Z</time>
      </trkpt>
      <trkpt lat="46.73999" lon="-2.00839">
        <ele>3.7</ele>
        <time>2025-01-20T08:26:40.455Z</time>
      </trkpt>
      <trkpt lat="46.74" lon="-2.0084">
        <ele>3.8</ele>
        <time>2025-01-20T08:26:41.455Z</time>
      </trkpt>
      <trkpt lat="46.74001" lon="-2.00841">
        <ele>3.9</ele>
        <time>2025-01-20T08:26:42.456Z</time>
      </trkpt>
      <trkpt lat="46.74002" lon="-2.00842">
        <ele>4</ele>
        <time>2025-01-20T08:26:43.455Z</time>
      </trkpt>
      <trkpt lat="46.74002" lon="-2.00843">
        <ele>4</ele>
        <time>2025-01-20T08:26:44.455Z</time>
      </trkpt>
      <trkpt lat="46.74003" lon="-2.00844">
        <ele>4.1</ele>
        <time>2025-01-20T08:26:45.455Z</time>
      </trkpt>
      <trkpt lat="46.74004" lon="-2.00846">
        <ele>4.1</ele>
        <time>2025-01-20T08:26:46.455Z</time>
      </trkpt>
      <trkpt lat="46.74005" lon="-2.00847">
        <ele>4.2</ele>
        <time>2025-01-20T08:26:47.456Z</time>
      </trkpt>
      <trkpt lat="46.74006" lon="-2.00848">
        <ele>4.3</ele>
        <time>2025-01-20T08:26:48.456Z</time>
      </trkpt>
      <trkpt lat="46.74007" lon="-2.00849">
        <ele>4.4</ele>
        <time>2025-01-20T08:26:49.455Z</time>
      </trkpt>
      <trkpt lat="46.74008" lon="-2.0085">
        <ele>4.4</ele>
        <time>2025-01-20T08:26:50.456Z</time>
      </trkpt>
      <trkpt lat="46.74009" lon="-2.00851">
        <ele>4.5</ele>
        <time>2025-01-20T08:26:51.456Z</time>
      </trkpt>
      <trkpt lat="46.7401" lon="-2.00852">
        <ele>4.5</ele>
        <time>2025-01-20T08:26:52.456Z</time>
      </trkpt>
      <trkpt lat="46.74011" lon="-2.00853">
        <ele>4.5</ele>
        <time>2025-01-20T08:26:53.456Z</time>
      </trkpt>
      <trkpt lat="46.74012" lon="-2.00854">
        <ele>4.6</ele>
        <time>2025-01-20T08:26:54.456Z</time>
      </trkpt>
      <trkpt lat="46.74012" lon="-2.00856">
        <ele>4.4</ele>
        <time>2025-01-20T08:26:55.456Z</time>
      </trkpt>
      <trkpt lat="46.74013" lon="-2.00857">
        <ele>4.4</ele>
        <time>2025-01-20T08:26:56.456Z</time>
      </trkpt>
      <trkpt lat="46.74014" lon="-2.00858">
        <ele>4.3</ele>
        <time>2025-01-20T08:26:57.456Z</time>
      </trkpt>
      <trkpt lat="46.74015" lon="-2.00859">
        <ele>4.3</ele>
        <time>2025-01-20T08:26:58.456Z</time>
      </trkpt>
      <trkpt lat="46.74016" lon="-2.0086">
        <ele>4.3</ele>
        <time>2025-01-20T08:26:59.456Z</time>
      </trkpt>
      <trkpt lat="46.74017" lon="-2.00861">
        <ele>4.2</ele>
        <time>2025-01-20T08:27:00.456Z</time>
      </trkpt>
      <trkpt lat="46.74018" lon="-2.00861">
        <ele>4.3</ele>
        <time>2025-01-20T08:27:01.455Z</time>
      </trkpt>
      <trkpt lat="46.74019" lon="-2.00862">
        <ele>4.3</ele>
        <time>2025-01-20T08:27:02.455Z</time>
      </trkpt>
      <trkpt lat="46.74019" lon="-2.00863">
        <ele>4.2</ele>
        <time>2025-01-20T08:27:03.456Z</time>
      </trkpt>
      <trkpt lat="46.7402" lon="-2.00863">
        <ele>4.3</ele>
        <time>2025-01-20T08:27:04.456Z</time>
      </trkpt>
      <trkpt lat="46.74021" lon="-2.00863">
        <ele>4.4</ele>
        <time>2025-01-20T08:27:05.455Z</time>
      </trkpt>
      <trkpt lat="46.74022" lon="-2.00862">
        <ele>4.5</ele>
        <time>2025-01-20T08:27:06.455Z</time>
      </trkpt>
      <trkpt lat="46.74022" lon="-2.00862">
        <ele>4.5</ele>
        <time>2025-01-20T08:27:07.455Z</time>
      </trkpt>
      <trkpt lat="46.74022" lon="-2.0086">
        <ele>4.8</ele>
        <time>2025-01-20T08:27:08.455Z</time>
      </trkpt>
      <trkpt lat="46.74021" lon="-2.00859">
        <ele>4.8</ele>
        <time>2025-01-20T08:27:09.456Z</time>
      </trkpt>
      <trkpt lat="46.74021" lon="-2.00857">
        <ele>5.1</ele>
        <time>2025-01-20T08:27:10.456Z</time>
      </trkpt>
      <trkpt lat="46.74021" lon="-2.00856">
        <ele>5.3</ele>
        <time>2025-01-20T08:27:11.456Z</time>
      </trkpt>
      <trkpt lat="46.74021" lon="-2.00854">
        <ele>5.5</ele>
        <time>2025-01-20T08:27:12.456Z</time>
      </trkpt>
      <trkpt lat="46.74021" lon="-2.00853">
        <ele>5.7</ele>
        <time>2025-01-20T08:27:13.455Z</time>
      </trkpt>
      <trkpt lat="46.7402" lon="-2.00852">
        <ele>5.7</ele>
        <time>2025-01-20T08:27:14.455Z</time>
      </trkpt>
      <trkpt lat="46.7402" lon="-2.0085">
        <ele>6</ele>
        <time>2025-01-20T08:27:15.455Z</time>
      </trkpt>
      <trkpt lat="46.7402" lon="-2.00849">
        <ele>6.1</ele>
        <time>2025-01-20T08:27:16.455Z</time>
      </trkpt>
      <trkpt lat="46.7402" lon="-2.00848">
        <ele>6.3</ele>
        <time>2025-01-20T08:27:17.456Z</time>
      </trkpt>
      <trkpt lat="46.74019" lon="-2.00847">
        <ele>6.3</ele>
        <time>2025-01-20T08:27:18.456Z</time>
      </trkpt>
      <trkpt lat="46.74019" lon="-2.00845">
        <ele>6.5</ele>
        <time>2025-01-20T08:27:19.455Z</time>
      </trkpt>
      <trkpt lat="46.74019" lon="-2.00843">
        <ele>6.8</ele>
        <time>2025-01-20T08:27:20.456Z</time>
      </trkpt>
      <trkpt lat="46.74018" lon="-2.00842">
        <ele>6.8</ele>
        <time>2025-01-20T08:27:21.456Z</time>
      </trkpt>
      <trkpt lat="46.74018" lon="-2.00841">
        <ele>6.9</ele>
        <time>2025-01-20T08:27:22.455Z</time>
      </trkpt>
      <trkpt lat="46.74017" lon="-2.0084">
        <ele>6.8</ele>
        <time>2025-01-20T08:27:23.455Z</time>
      </trkpt>
      <trkpt lat="46.74017" lon="-2.00839">
        <ele>7</ele>
        <time>2025-01-20T08:27:24.455Z</time>
      </trkpt>
      <trkpt lat="46.74016" lon="-2.00838">
        <ele>6.9</ele>
        <time>2025-01-20T08:27:25.456Z</time>
      </trkpt>
      <trkpt lat="46.74016" lon="-2.00836">
        <ele>7.1</ele>
        <time>2025-01-20T08:27:26.456Z</time>
      </trkpt>
      <trkpt lat="46.74015" lon="-2.00835">
        <ele>7.1</ele>
        <time>2025-01-20T08:27:27.455Z</time>
      </trkpt>
      <trkpt lat="46.74015" lon="-2.00834">
        <ele>7.2</ele>
        <time>2025-01-20T08:27:28.455Z</time>
      </trkpt>
      <trkpt lat="46.74015" lon="-2.00833">
        <ele>7.2</ele>
        <time>2025-01-20T08:27:29.455Z</time>
      </trkpt>
      <trkpt lat="46.74014" lon="-2.00832">
        <ele>7.1</ele>
        <time>2025-01-20T08:27:30.455Z</time>
      </trkpt>
      <trkpt lat="46.74013" lon="-2.0083">
        <ele>7</ele>
        <time>2025-01-20T08:27:31.455Z</time>
      </trkpt>
      <trkpt lat="46.74013" lon="-2.00829">
        <ele>7</ele>
        <time>2025-01-20T08:27:32.456Z</time>
      </trkpt>
      <trkpt lat="46.74012" lon="-2.00827">
        <ele>6.9</ele>
        <time>2025-01-20T08:27:33.456Z</time>
      </trkpt>
      <trkpt lat="46.74011" lon="-2.00826">
        <ele>6.9</ele>
        <time>2025-01-20T08:27:34.456Z</time>
      </trkpt>
      <trkpt lat="46.7401" lon="-2.00824">
        <ele>6.9</ele>
        <time>2025-01-20T08:27:35.455Z</time>
      </trkpt>
      <trkpt lat="46.74009" lon="-2.00823">
        <ele>6.8</ele>
        <time>2025-01-20T08:27:36.455Z</time>
      </trkpt>
      <trkpt lat="46.74009" lon="-2.00821">
        <ele>7</ele>
        <time>2025-01-20T08:27:37.455Z</time>
      </trkpt>
      <trkpt lat="46.74007" lon="-2.0082">
        <ele>6.9</ele>
        <time>2025-01-20T08:27:38.455Z</time>
      </trkpt>
      <trkpt lat="46.74006" lon="-2.00818">
        <ele>7.1</ele>
        <time>2025-01-20T08:27:39.456Z</time>
      </trkpt>
      <trkpt lat="46.74006" lon="-2.00816">
        <ele>7.3</ele>
        <time>2025-01-20T08:27:40.456Z</time>
      </trkpt>
      <trkpt lat="46.74005" lon="-2.00815">
        <ele>7.4</ele>
        <time>2025-01-20T08:27:41.456Z</time>
      </trkpt>
      <trkpt lat="46.74004" lon="-2.00813">
        <ele>7.7</ele>
        <time>2025-01-20T08:27:42.456Z</time>
      </trkpt>
      <trkpt lat="46.74003" lon="-2.00811">
        <ele>8</ele>
        <time>2025-01-20T08:27:43.455Z</time>
      </trkpt>
      <trkpt lat="46.74003" lon="-2.0081">
        <ele>8.1</ele>
        <time>2025-01-20T08:27:44.456Z</time>
      </trkpt>
      <trkpt lat="46.74002" lon="-2.00809">
        <ele>8.3</ele>
        <time>2025-01-20T08:27:45.455Z</time>
      </trkpt>
      <trkpt lat="46.74001" lon="-2.00807">
        <ele>8.7</ele>
        <time>2025-01-20T08:27:46.455Z</time>
      </trkpt>
      <trkpt lat="46.74" lon="-2.00806">
        <ele>8.9</ele>
        <time>2025-01-20T08:27:47.456Z</time>
      </trkpt>
      <trkpt lat="46.73999" lon="-2.00804">
        <ele>8.8</ele>
        <time>2025-01-20T08:27:48.456Z</time>
      </trkpt>
      <trkpt lat="46.73998" lon="-2.00803">
        <ele>8.6</ele>
        <time>2025-01-20T08:27:49.456Z</time>
      </trkpt>
      <trkpt lat="46.73998" lon="-2.00801">
        <ele>8.5</ele>
        <time>2025-01-20T08:27:50.456Z</time>
      </trkpt>
      <trkpt lat="46.73998" lon="-2.008">
        <ele>8.5</ele>
        <time>2025-01-20T08:27:51.455Z</time>
      </trkpt>
      <trkpt lat="46.73997" lon="-2.00799">
        <ele>8.3</ele>
        <time>2025-01-20T08:27:52.455Z</time>
      </trkpt>
      <trkpt lat="46.73996" lon="-2.00798">
        <ele>8.2</ele>
        <time>2025-01-20T08:27:53.455Z</time>
      </trkpt>
      <trkpt lat="46.73996" lon="-2.00796">
        <ele>8.1</ele>
        <time>2025-01-20T08:27:54.456Z</time>
      </trkpt>
      <trkpt lat="46.73995" lon="-2.00795">
        <ele>8</ele>
        <time>2025-01-20T08:27:55.456Z</time>
      </trkpt>
      <trkpt lat="46.73995" lon="-2.00793">
        <ele>8</ele>
        <time>2025-01-20T08:27:56.455Z</time>
      </trkpt>
      <trkpt lat="46.73994" lon="-2.00792">
        <ele>7.9</ele>
        <time>2025-01-20T08:27:57.456Z</time>
      </trkpt>
      <trkpt lat="46.73993" lon="-2.00791">
        <ele>7.7</ele>
        <time>2025-01-20T08:27:58.455Z</time>
      </trkpt>
      <trkpt lat="46.73993" lon="-2.0079">
        <ele>7.7</ele>
        <time>2025-01-20T08:27:59.455Z</time>
      </trkpt>
      <trkpt lat="46.73992" lon="-2.00788">
        <ele>7.7</ele>
        <time>2025-01-20T08:28:00.456Z</time>
      </trkpt>
      <trkpt lat="46.73992" lon="-2.00787">
        <ele>7.7</ele>
        <time>2025-01-20T08:28:01.456Z</time>
      </trkpt>
      <trkpt lat="46.7399" lon="-2.00785">
        <ele>7.5</ele>
        <time>2025-01-20T08:28:02.456Z</time>
      </trkpt>
      <trkpt lat="46.7399" lon="-2.00784">
        <ele>7.5</ele>
        <time>2025-01-20T08:28:03.456Z</time>
      </trkpt>
      <trkpt lat="46.73989" lon="-2.00782">
        <ele>7.5</ele>
        <time>2025-01-20T08:28:04.456Z</time>
      </trkpt>
      <trkpt lat="46.73989" lon="-2.0078">
        <ele>7.6</ele>
        <time>2025-01-20T08:28:05.456Z</time>
      </trkpt>
      <trkpt lat="46.73988" lon="-2.00779">
        <ele>7.5</ele>
        <time>2025-01-20T08:28:06.455Z</time>
      </trkpt>
      <trkpt lat="46.73988" lon="-2.00777">
        <ele>7.5</ele>
        <time>2025-01-20T08:28:07.455Z</time>
      </trkpt>
      <trkpt lat="46.73988" lon="-2.00775">
        <ele>7.5</ele>
        <time>2025-01-20T08:28:08.455Z</time>
      </trkpt>
      <trkpt lat="46.73988" lon="-2.00774">
        <ele>7.5</ele>
        <time>2025-01-20T08:28:09.456Z</time>
      </trkpt>
      <trkpt lat="46.73988" lon="-2.00773">
        <ele>7.4</ele>
        <time>2025-01-20T08:28:10.456Z</time>
      </trkpt>
      <trkpt lat="46.73988" lon="-2.00771">
        <ele>7.4</ele>
        <time>2025-01-20T08:28:11.455Z</time>
      </trkpt>
      <trkpt lat="46.73989" lon="-2.00769">
        <ele>7.3</ele>
        <time>2025-01-20T08:28:12.455Z</time>
      </trkpt>
      <trkpt lat="46.73989" lon="-2.00767">
        <ele>7.2</ele>
        <time>2025-01-20T08:28:13.455Z</time>
      </trkpt>
      <trkpt lat="46.73989" lon="-2.00765">
        <ele>7.1</ele>
        <time>2025-01-20T08:28:14.455Z</time>
      </trkpt>
      <trkpt lat="46.73989" lon="-2.00764">
        <ele>7.1</ele>
        <time>2025-01-20T08:28:15.456Z</time>
      </trkpt>
      <trkpt lat="46.73988" lon="-2.00762">
        <ele>7.1</ele>
        <time>2025-01-20T08:28:16.456Z</time>
      </trkpt>
      <trkpt lat="46.73988" lon="-2.0076">
        <ele>7</ele>
        <time>2025-01-20T08:28:17.456Z</time>
      </trkpt>
      <trkpt lat="46.73988" lon="-2.00757">
        <ele>6.9</ele>
        <time>2025-01-20T08:28:18.455Z</time>
      </trkpt>
      <trkpt lat="46.73987" lon="-2.00755">
        <ele>7</ele>
        <time>2025-01-20T08:28:19.455Z</time>
      </trkpt>
      <trkpt lat="46.73988" lon="-2.00753">
        <ele>6.8</ele>
        <time>2025-01-20T08:28:20.455Z</time>
      </trkpt>
      <trkpt lat="46.73987" lon="-2.00751">
        <ele>6.9</ele>
        <time>2025-01-20T08:28:21.455Z</time>
      </trkpt>
      <trkpt lat="46.73987" lon="-2.00749">
        <ele>6.8</ele>
        <time>2025-01-20T08:28:22.456Z</time>
      </trkpt>
      <trkpt lat="46.73988" lon="-2.00747">
        <ele>6.6</ele>
        <time>2025-01-20T08:28:23.455Z</time>
      </trkpt>
      <trkpt lat="46.73987" lon="-2.00744">
        <ele>6.6</ele>
        <time>2025-01-20T08:28:24.455Z</time>
      </trkpt>
      <trkpt lat="46.73987" lon="-2.00742">
        <ele>6.4</ele>
        <time>2025-01-20T08:28:25.455Z</time>
      </trkpt>
      <trkpt lat="46.73987" lon="-2.00741">
        <ele>6.4</ele>
        <time>2025-01-20T08:28:26.455Z</time>
      </trkpt>
      <trkpt lat="46.73987" lon="-2.00739">
        <ele>6.3</ele>
        <time>2025-01-20T08:28:27.456Z</time>
      </trkpt>
      <trkpt lat="46.73987" lon="-2.00737">
        <ele>6.2</ele>
        <time>2025-01-20T08:28:28.456Z</time>
      </trkpt>
      <trkpt lat="46.73987" lon="-2.00735">
        <ele>6.1</ele>
        <time>2025-01-20T08:28:29.456Z</time>
      </trkpt>
      <trkpt lat="46.73986" lon="-2.00733">
        <ele>6.1</ele>
        <time>2025-01-20T08:28:30.456Z</time>
      </trkpt>
      <trkpt lat="46.73986" lon="-2.00731">
        <ele>6</ele>
        <time>2025-01-20T08:28:31.455Z</time>
      </trkpt>
      <trkpt lat="46.73987" lon="-2.00729">
        <ele>5.8</ele>
        <time>2025-01-20T08:28:32.455Z</time>
      </trkpt>
      <trkpt lat="46.73987" lon="-2.00727">
        <ele>5.7</ele>
        <time>2025-01-20T08:28:33.455Z</time>
      </trkpt>
      <trkpt lat="46.73987" lon="-2.00725">
        <ele>5.6</ele>
        <time>2025-01-20T08:28:34.455Z</time>
      </trkpt>
      <trkpt lat="46.73987" lon="-2.00722">
        <ele>5.4</ele>
        <time>2025-01-20T08:28:35.456Z</time>
      </trkpt>
      <trkpt lat="46.73987" lon="-2.00721">
        <ele>5.4</ele>
        <time>2025-01-20T08:28:36.456Z</time>
      </trkpt>
      <trkpt lat="46.73987" lon="-2.00719">
        <ele>5.3</ele>
        <time>2025-01-20T08:28:37.455Z</time>
      </trkpt>
      <trkpt lat="46.73987" lon="-2.00717">
        <ele>5.2</ele>
        <time>2025-01-20T08:28:38.455Z</time>
      </trkpt>
      <trkpt lat="46.73987" lon="-2.00715">
        <ele>5.2</ele>
        <time>2025-01-20T08:28:39.455Z</time>
      </trkpt>
      <trkpt lat="46.73986" lon="-2.00714">
        <ele>5.2</ele>
        <time>2025-01-20T08:28:40.456Z</time>
      </trkpt>
      <trkpt lat="46.73986" lon="-2.00712">
        <ele>5.1</ele>
        <time>2025-01-20T08:28:41.456Z</time>
      </trkpt>
      <trkpt lat="46.73985" lon="-2.00711">
        <ele>5.2</ele>
        <time>2025-01-20T08:28:42.456Z</time>
      </trkpt>
      <trkpt lat="46.73984" lon="-2.00709">
        <ele>5.2</ele>
        <time>2025-01-20T08:28:43.456Z</time>
      </trkpt>
      <trkpt lat="46.73983" lon="-2.00708">
        <ele>5.2</ele>
        <time>2025-01-20T08:28:44.455Z</time>
      </trkpt>
      <trkpt lat="46.73982" lon="-2.00707">
        <ele>5.2</ele>
        <time>2025-01-20T08:28:45.455Z</time>
      </trkpt>
      <trkpt lat="46.73981" lon="-2.00706">
        <ele>5.3</ele>
        <time>2025-01-20T08:28:46.455Z</time>
      </trkpt>
      <trkpt lat="46.7398" lon="-2.00704">
        <ele>5.2</ele>
        <time>2025-01-20T08:28:47.456Z</time>
      </trkpt>
      <trkpt lat="46.73979" lon="-2.00703">
        <ele>5.2</ele>
        <time>2025-01-20T08:28:48.456Z</time>
      </trkpt>
      <trkpt lat="46.73978" lon="-2.00702">
        <ele>5.2</ele>
        <time>2025-01-20T08:28:49.456Z</time>
      </trkpt>
      <trkpt lat="46.73977" lon="-2.00701">
        <ele>5.2</ele>
        <time>2025-01-20T08:28:50.456Z</time>
      </trkpt>
      <trkpt lat="46.73977" lon="-2.007">
        <ele>5.2</ele>
        <time>2025-01-20T08:28:51.455Z</time>
      </trkpt>
      <trkpt lat="46.73976" lon="-2.00699">
        <ele>5.1</ele>
        <time>2025-01-20T08:28:52.455Z</time>
      </trkpt>
      <trkpt lat="46.73975" lon="-2.00697">
        <ele>5.1</ele>
        <time>2025-01-20T08:28:53.455Z</time>
      </trkpt>
      <trkpt lat="46.73974" lon="-2.00696">
        <ele>5</ele>
        <time>2025-01-20T08:28:54.455Z</time>
      </trkpt>
      <trkpt lat="46.73973" lon="-2.00695">
        <ele>5</ele>
        <time>2025-01-20T08:28:55.456Z</time>
      </trkpt>
      <trkpt lat="46.73973" lon="-2.00693">
        <ele>4.9</ele>
        <time>2025-01-20T08:28:56.456Z</time>
      </trkpt>
      <trkpt lat="46.73972" lon="-2.00692">
        <ele>4.9</ele>
        <time>2025-01-20T08:28:57.456Z</time>
      </trkpt>
      <trkpt lat="46.73971" lon="-2.00691">
        <ele>5</ele>
        <time>2025-01-20T08:28:58.456Z</time>
      </trkpt>
      <trkpt lat="46.7397" lon="-2.0069">
        <ele>5.1</ele>
        <time>2025-01-20T08:28:59.456Z</time>
      </trkpt>
      <trkpt lat="46.73969" lon="-2.00688">
        <ele>5.1</ele>
        <time>2025-01-20T08:29:00.455Z</time>
      </trkpt>
      <trkpt lat="46.73968" lon="-2.00687">
        <ele>5.1</ele>
        <time>2025-01-20T08:29:01.455Z</time>
      </trkpt>
      <trkpt lat="46.73967" lon="-2.00686">
        <ele>5.1</ele>
        <time>2025-01-20T08:29:02.455Z</time>
      </trkpt>
      <trkpt lat="46.73966" lon="-2.00684">
        <ele>5.1</ele>
        <time>2025-01-20T08:29:03.455Z</time>
      </trkpt>
      <trkpt lat="46.73965" lon="-2.00683">
        <ele>5.2</ele>
        <time>2025-01-20T08:29:04.456Z</time>
      </trkpt>
      <trkpt lat="46.73964" lon="-2.00682">
        <ele>5.2</ele>
        <time>2025-01-20T08:29:05.456Z</time>
      </trkpt>
      <trkpt lat="46.73963" lon="-2.0068">
        <ele>5.1</ele>
        <time>2025-01-20T08:29:06.455Z</time>
      </trkpt>
      <trkpt lat="46.73962" lon="-2.0068">
        <ele>5.2</ele>
        <time>2025-01-20T08:29:07.456Z</time>
      </trkpt>
      <trkpt lat="46.7396" lon="-2.00679">
        <ele>5.3</ele>
        <time>2025-01-20T08:29:08.456Z</time>
      </trkpt>
      <trkpt lat="46.73959" lon="-2.00678">
        <ele>5.3</ele>
        <time>2025-01-20T08:29:09.455Z</time>
      </trkpt>
      <trkpt lat="46.73958" lon="-2.00677">
        <ele>5.3</ele>
        <time>2025-01-20T08:29:10.455Z</time>
      </trkpt>
      <trkpt lat="46.73957" lon="-2.00677">
        <ele>5.3</ele>
        <time>2025-01-20T08:29:11.455Z</time>
      </trkpt>
      <trkpt lat="46.73955" lon="-2.00676">
        <ele>5.4</ele>
        <time>2025-01-20T08:29:12.456Z</time>
      </trkpt>
      <trkpt lat="46.73954" lon="-2.00675">
        <ele>5.3</ele>
        <time>2025-01-20T08:29:13.456Z</time>
      </trkpt>
      <trkpt lat="46.73953" lon="-2.00675">
        <ele>5.4</ele>
        <time>2025-01-20T08:29:14.456Z</time>
      </trkpt>
      <trkpt lat="46.73951" lon="-2.00674">
        <ele>5.4</ele>
        <time>2025-01-20T08:29:15.456Z</time>
      </trkpt>
      <trkpt lat="46.7395" lon="-2.00673">
        <ele>5.4</ele>
        <time>2025-01-20T08:29:16.456Z</time>
      </trkpt>
      <trkpt lat="46.73948" lon="-2.00672">
        <ele>5.4</ele>
        <time>2025-01-20T08:29:17.455Z</time>
      </trkpt>
      <trkpt lat="46.73947" lon="-2.00671">
        <ele>5.3</ele>
        <time>2025-01-20T08:29:18.455Z</time>
      </trkpt>
      <trkpt lat="46.73946" lon="-2.00671">
        <ele>5.4</ele>
        <time>2025-01-20T08:29:19.455Z</time>
      </trkpt>
      <trkpt lat="46.73945" lon="-2.0067">
        <ele>5.3</ele>
        <time>2025-01-20T08:29:20.455Z</time>
      </trkpt>
      <trkpt lat="46.73944" lon="-2.0067">
        <ele>5.4</ele>
        <time>2025-01-20T08:29:21.456Z</time>
      </trkpt>
      <trkpt lat="46.73942" lon="-2.00669">
        <ele>5.4</ele>
        <time>2025-01-20T08:29:22.455Z</time>
      </trkpt>
      <trkpt lat="46.73941" lon="-2.00669">
        <ele>5.5</ele>
        <time>2025-01-20T08:29:23.455Z</time>
      </trkpt>
      <trkpt lat="46.7394" lon="-2.00668">
        <ele>5.5</ele>
        <time>2025-01-20T08:29:24.455Z</time>
      </trkpt>
      <trkpt lat="46.73939" lon="-2.00667">
        <ele>5.4</ele>
        <time>2025-01-20T08:29:25.456Z</time>
      </trkpt>
      <trkpt lat="46.73938" lon="-2.00666">
        <ele>5.5</ele>
        <time>2025-01-20T08:29:26.456Z</time>
      </trkpt>
      <trkpt lat="46.73937" lon="-2.00665">
        <ele>5.5</ele>
        <time>2025-01-20T08:29:27.456Z</time>
      </trkpt>
      <trkpt lat="46.73936" lon="-2.00664">
        <ele>5.6</ele>
        <time>2025-01-20T08:29:28.455Z</time>
      </trkpt>
      <trkpt lat="46.73936" lon="-2.00663">
        <ele>5.6</ele>
        <time>2025-01-20T08:29:29.456Z</time>
      </trkpt>
      <trkpt lat="46.73935" lon="-2.00663">
        <ele>5.6</ele>
        <time>2025-01-20T08:29:30.455Z</time>
      </trkpt>
      <trkpt lat="46.73934" lon="-2.00662">
        <ele>5.7</ele>
        <time>2025-01-20T08:29:31.456Z</time>
      </trkpt>
      <trkpt lat="46.73933" lon="-2.00661">
        <ele>5.7</ele>
        <time>2025-01-20T08:29:32.455Z</time>
      </trkpt>
      <trkpt lat="46.73932" lon="-2.0066">
        <ele>5.8</ele>
        <time>2025-01-20T08:29:33.455Z</time>
      </trkpt>
      <trkpt lat="46.73931" lon="-2.00659">
        <ele>5.8</ele>
        <time>2025-01-20T08:29:34.455Z</time>
      </trkpt>
      <trkpt lat="46.7393" lon="-2.00658">
        <ele>5.9</ele>
        <time>2025-01-20T08:29:35.456Z</time>
      </trkpt>
      <trkpt lat="46.73929" lon="-2.00657">
        <ele>5.9</ele>
        <time>2025-01-20T08:29:36.456Z</time>
      </trkpt>
      <trkpt lat="46.73928" lon="-2.00656">
        <ele>6</ele>
        <time>2025-01-20T08:29:37.455Z</time>
      </trkpt>
      <trkpt lat="46.73927" lon="-2.00655">
        <ele>6</ele>
        <time>2025-01-20T08:29:38.455Z</time>
      </trkpt>
      <trkpt lat="46.73926" lon="-2.00654">
        <ele>6</ele>
        <time>2025-01-20T08:29:39.455Z</time>
      </trkpt>
      <trkpt lat="46.73925" lon="-2.00653">
        <ele>6.1</ele>
        <time>2025-01-20T08:29:40.456Z</time>
      </trkpt>
      <trkpt lat="46.73925" lon="-2.00652">
        <ele>6</ele>
        <time>2025-01-20T08:29:41.455Z</time>
      </trkpt>
      <trkpt lat="46.73924" lon="-2.00651">
        <ele>6.1</ele>
        <time>2025-01-20T08:29:42.456Z</time>
      </trkpt>
      <trkpt lat="46.73923" lon="-2.00649">
        <ele>6.1</ele>
        <time>2025-01-20T08:29:43.456Z</time>
      </trkpt>
      <trkpt lat="46.73922" lon="-2.00648">
        <ele>6.1</ele>
        <time>2025-01-20T08:29:44.456Z</time>
      </trkpt>
      <trkpt lat="46.73921" lon="-2.00647">
        <ele>6.1</ele>
        <time>2025-01-20T08:29:45.455Z</time>
      </trkpt>
      <trkpt lat="46.7392" lon="-2.00646">
        <ele>6.1</ele>
        <time>2025-01-20T08:29:46.455Z</time>
      </trkpt>
      <trkpt lat="46.73919" lon="-2.00645">
        <ele>6.1</ele>
        <time>2025-01-20T08:29:47.456Z</time>
      </trkpt>
      <trkpt lat="46.73918" lon="-2.00645">
        <ele>6.2</ele>
        <time>2025-01-20T08:29:48.456Z</time>
      </trkpt>
      <trkpt lat="46.73917" lon="-2.00644">
        <ele>6.2</ele>
        <time>2025-01-20T08:29:49.456Z</time>
      </trkpt>
      <trkpt lat="46.73916" lon="-2.00642">
        <ele>6.2</ele>
        <time>2025-01-20T08:29:50.455Z</time>
      </trkpt>
      <trkpt lat="46.73915" lon="-2.00641">
        <ele>6.2</ele>
        <time>2025-01-20T08:29:51.455Z</time>
      </trkpt>
      <trkpt lat="46.73915" lon="-2.0064">
        <ele>6.2</ele>
        <time>2025-01-20T08:29:52.456Z</time>
      </trkpt>
      <trkpt lat="46.73914" lon="-2.00639">
        <ele>6.3</ele>
        <time>2025-01-20T08:29:53.456Z</time>
      </trkpt>
      <trkpt lat="46.73913" lon="-2.00637">
        <ele>6.3</ele>
        <time>2025-01-20T08:29:54.455Z</time>
      </trkpt>
      <trkpt lat="46.73912" lon="-2.00636">
        <ele>6.4</ele>
        <time>2025-01-20T08:29:55.455Z</time>
      </trkpt>
      <trkpt lat="46.73911" lon="-2.00634">
        <ele>6.4</ele>
        <time>2025-01-20T08:29:56.455Z</time>
      </trkpt>
      <trkpt lat="46.7391" lon="-2.00633">
        <ele>6.4</ele>
        <time>2025-01-20T08:29:57.455Z</time>
      </trkpt>
      <trkpt lat="46.73909" lon="-2.00632">
        <ele>6.4</ele>
        <time>2025-01-20T08:29:58.455Z</time>
      </trkpt>
      <trkpt lat="46.73908" lon="-2.00631">
        <ele>6.5</ele>
        <time>2025-01-20T08:29:59.455Z</time>
      </trkpt>
      <trkpt lat="46.73907" lon="-2.00629">
        <ele>6.4</ele>
        <time>2025-01-20T08:30:00.456Z</time>
      </trkpt>
      <trkpt lat="46.73906" lon="-2.00628">
        <ele>6.5</ele>
        <time>2025-01-20T08:30:01.455Z</time>
      </trkpt>
      <trkpt lat="46.73905" lon="-2.00627">
        <ele>6.5</ele>
        <time>2025-01-20T08:30:02.455Z</time>
      </trkpt>
      <trkpt lat="46.73904" lon="-2.00625">
        <ele>6.4</ele>
        <time>2025-01-20T08:30:03.455Z</time>
      </trkpt>
      <trkpt lat="46.73903" lon="-2.00624">
        <ele>6.4</ele>
        <time>2025-01-20T08:30:04.456Z</time>
      </trkpt>
      <trkpt lat="46.73902" lon="-2.00623">
        <ele>6.4</ele>
        <time>2025-01-20T08:30:05.456Z</time>
      </trkpt>
      <trkpt lat="46.73902" lon="-2.00623">
        <ele>6.4</ele>
        <time>2025-01-20T08:30:06.456Z</time>
      </trkpt>
      <trkpt lat="46.73901" lon="-2.00622">
        <ele>6.4</ele>
        <time>2025-01-20T08:30:07.455Z</time>
      </trkpt>
      <trkpt lat="46.739" lon="-2.00621">
        <ele>6.4</ele>
        <time>2025-01-20T08:30:08.455Z</time>
      </trkpt>
      <trkpt lat="46.73899" lon="-2.00621">
        <ele>6.4</ele>
        <time>2025-01-20T08:30:09.456Z</time>
      </trkpt>
      <trkpt lat="46.73898" lon="-2.0062">
        <ele>6.4</ele>
        <time>2025-01-20T08:30:10.455Z</time>
      </trkpt>
      <trkpt lat="46.73897" lon="-2.00619">
        <ele>6.4</ele>
        <time>2025-01-20T08:30:11.456Z</time>
      </trkpt>
      <trkpt lat="46.73897" lon="-2.00618">
        <ele>6.3</ele>
        <time>2025-01-20T08:30:12.455Z</time>
      </trkpt>
      <trkpt lat="46.73896" lon="-2.00617">
        <ele>6.3</ele>
        <time>2025-01-20T08:30:13.456Z</time>
      </trkpt>
      <trkpt lat="46.73894" lon="-2.00616">
        <ele>6.3</ele>
        <time>2025-01-20T08:30:14.456Z</time>
      </trkpt>
      <trkpt lat="46.73893" lon="-2.00615">
        <ele>6.2</ele>
        <time>2025-01-20T08:30:15.455Z</time>
      </trkpt>
      <trkpt lat="46.73892" lon="-2.00614">
        <ele>6.2</ele>
        <time>2025-01-20T08:30:16.455Z</time>
      </trkpt>
      <trkpt lat="46.73891" lon="-2.00613">
        <ele>6.1</ele>
        <time>2025-01-20T08:30:17.455Z</time>
      </trkpt>
      <trkpt lat="46.7389" lon="-2.00612">
        <ele>6.1</ele>
        <time>2025-01-20T08:30:18.455Z</time>
      </trkpt>
      <trkpt lat="46.73889" lon="-2.00611">
        <ele>6</ele>
        <time>2025-01-20T08:30:19.455Z</time>
      </trkpt>
      <trkpt lat="46.73888" lon="-2.0061">
        <ele>6.1</ele>
        <time>2025-01-20T08:30:20.456Z</time>
      </trkpt>
      <trkpt lat="46.73887" lon="-2.00609">
        <ele>6.1</ele>
        <time>2025-01-20T08:30:21.456Z</time>
      </trkpt>
      <trkpt lat="46.73886" lon="-2.00608">
        <ele>6.2</ele>
        <time>2025-01-20T08:30:22.456Z</time>
      </trkpt>
      <trkpt lat="46.73885" lon="-2.00607">
        <ele>6.3</ele>
        <time>2025-01-20T08:30:23.455Z</time>
      </trkpt>
      <trkpt lat="46.73884" lon="-2.00606">
        <ele>6.3</ele>
        <time>2025-01-20T08:30:24.455Z</time>
      </trkpt>
      <trkpt lat="46.73883" lon="-2.00605">
        <ele>6.4</ele>
        <time>2025-01-20T08:30:25.455Z</time>
      </trkpt>
      <trkpt lat="46.73883" lon="-2.00604">
        <ele>6.3</ele>
        <time>2025-01-20T08:30:26.455Z</time>
      </trkpt>
      <trkpt lat="46.73882" lon="-2.00604">
        <ele>6.4</ele>
        <time>2025-01-20T08:30:27.456Z</time>
      </trkpt>
      <trkpt lat="46.73881" lon="-2.00603">
        <ele>6.5</ele>
        <time>2025-01-20T08:30:28.455Z</time>
      </trkpt>
      <trkpt lat="46.7388" lon="-2.00602">
        <ele>6.5</ele>
        <time>2025-01-20T08:30:29.456Z</time>
      </trkpt>
      <trkpt lat="46.7388" lon="-2.00601">
        <ele>6.5</ele>
        <time>2025-01-20T08:30:30.455Z</time>
      </trkpt>
      <trkpt lat="46.73879" lon="-2.006">
        <ele>6.5</ele>
        <time>2025-01-20T08:30:31.456Z</time>
      </trkpt>
      <trkpt lat="46.73878" lon="-2.00599">
        <ele>6.6</ele>
        <time>2025-01-20T08:30:32.456Z</time>
      </trkpt>
      <trkpt lat="46.73877" lon="-2.00598">
        <ele>6.6</ele>
        <time>2025-01-20T08:30:33.455Z</time>
      </trkpt>
      <trkpt lat="46.73876" lon="-2.00598">
        <ele>6.7</ele>
        <time>2025-01-20T08:30:34.456Z</time>
      </trkpt>
      <trkpt lat="46.73876" lon="-2.00597">
        <ele>6.6</ele>
        <time>2025-01-20T08:30:35.456Z</time>
      </trkpt>
      <trkpt lat="46.73875" lon="-2.00596">
        <ele>6.7</ele>
        <time>2025-01-20T08:30:36.455Z</time>
      </trkpt>
      <trkpt lat="46.73874" lon="-2.00596">
        <ele>6.8</ele>
        <time>2025-01-20T08:30:37.455Z</time>
      </trkpt>
      <trkpt lat="46.73873" lon="-2.00595">
        <ele>6.8</ele>
        <time>2025-01-20T08:30:38.455Z</time>
      </trkpt>
      <trkpt lat="46.73873" lon="-2.00594">
        <ele>6.7</ele>
        <time>2025-01-20T08:30:39.456Z</time>
      </trkpt>
      <trkpt lat="46.73872" lon="-2.00593">
        <ele>6.8</ele>
        <time>2025-01-20T08:30:40.455Z</time>
      </trkpt>
      <trkpt lat="46.73871" lon="-2.00592">
        <ele>6.8</ele>
        <time>2025-01-20T08:30:41.456Z</time>
      </trkpt>
      <trkpt lat="46.73871" lon="-2.0059">
        <ele>6.7</ele>
        <time>2025-01-20T08:30:42.455Z</time>
      </trkpt>
      <trkpt lat="46.7387" lon="-2.00589">
        <ele>6.7</ele>
        <time>2025-01-20T08:30:43.455Z</time>
      </trkpt>
      <trkpt lat="46.7387" lon="-2.00587">
        <ele>6.6</ele>
        <time>2025-01-20T08:30:44.455Z</time>
      </trkpt>
      <trkpt lat="46.73869" lon="-2.00585">
        <ele>6.5</ele>
        <time>2025-01-20T08:30:45.456Z</time>
      </trkpt>
      <trkpt lat="46.73869" lon="-2.00584">
        <ele>6.5</ele>
        <time>2025-01-20T08:30:46.456Z</time>
      </trkpt>
      <trkpt lat="46.7387" lon="-2.00582">
        <ele>6.3</ele>
        <time>2025-01-20T08:30:47.456Z</time>
      </trkpt>
      <trkpt lat="46.7387" lon="-2.00581">
        <ele>6.2</ele>
        <time>2025-01-20T08:30:48.456Z</time>
      </trkpt>
      <trkpt lat="46.7387" lon="-2.00579">
        <ele>6</ele>
        <time>2025-01-20T08:30:49.455Z</time>
      </trkpt>
      <trkpt lat="46.7387" lon="-2.00578">
        <ele>6</ele>
        <time>2025-01-20T08:30:50.455Z</time>
      </trkpt>
      <trkpt lat="46.73869" lon="-2.00576">
        <ele>5.9</ele>
        <time>2025-01-20T08:30:51.456Z</time>
      </trkpt>
      <trkpt lat="46.73869" lon="-2.00575">
        <ele>5.8</ele>
        <time>2025-01-20T08:30:52.455Z</time>
      </trkpt>
      <trkpt lat="46.73868" lon="-2.00574">
        <ele>5.7</ele>
        <time>2025-01-20T08:30:53.456Z</time>
      </trkpt>
      <trkpt lat="46.73868" lon="-2.00572">
        <ele>5.6</ele>
        <time>2025-01-20T08:30:54.455Z</time>
      </trkpt>
      <trkpt lat="46.73867" lon="-2.0057">
        <ele>5.4</ele>
        <time>2025-01-20T08:30:55.456Z</time>
      </trkpt>
      <trkpt lat="46.73866" lon="-2.00569">
        <ele>5.4</ele>
        <time>2025-01-20T08:30:56.455Z</time>
      </trkpt>
      <trkpt lat="46.73865" lon="-2.00567">
        <ele>5.2</ele>
        <time>2025-01-20T08:30:57.456Z</time>
      </trkpt>
      <trkpt lat="46.73864" lon="-2.00565">
        <ele>5</ele>
        <time>2025-01-20T08:30:58.455Z</time>
      </trkpt>
      <trkpt lat="46.73863" lon="-2.00563">
        <ele>4.8</ele>
        <time>2025-01-20T08:30:59.456Z</time>
      </trkpt>
      <trkpt lat="46.73863" lon="-2.00561">
        <ele>4.6</ele>
        <time>2025-01-20T08:31:00.456Z</time>
      </trkpt>
      <trkpt lat="46.73863" lon="-2.00559">
        <ele>4.4</ele>
        <time>2025-01-20T08:31:01.455Z</time>
      </trkpt>
      <trkpt lat="46.73863" lon="-2.00557">
        <ele>4.2</ele>
        <time>2025-01-20T08:31:02.455Z</time>
      </trkpt>
      <trkpt lat="46.73862" lon="-2.00555">
        <ele>4</ele>
        <time>2025-01-20T08:31:03.455Z</time>
      </trkpt>
      <trkpt lat="46.73861" lon="-2.00553">
        <ele>4</ele>
        <time>2025-01-20T08:31:04.456Z</time>
      </trkpt>
      <trkpt lat="46.73861" lon="-2.00551">
        <ele>4</ele>
        <time>2025-01-20T08:31:05.455Z</time>
      </trkpt>
      <trkpt lat="46.7386" lon="-2.0055">
        <ele>4.1</ele>
        <time>2025-01-20T08:31:06.455Z</time>
      </trkpt>
      <trkpt lat="46.7386" lon="-2.00548">
        <ele>4.1</ele>
        <time>2025-01-20T08:31:07.456Z</time>
      </trkpt>
      <trkpt lat="46.73859" lon="-2.00546">
        <ele>4.2</ele>
        <time>2025-01-20T08:31:08.456Z</time>
      </trkpt>
      <trkpt lat="46.73859" lon="-2.00545">
        <ele>4.2</ele>
        <time>2025-01-20T08:31:09.456Z</time>
      </trkpt>
      <trkpt lat="46.73858" lon="-2.00543">
        <ele>4.3</ele>
        <time>2025-01-20T08:31:10.455Z</time>
      </trkpt>
      <trkpt lat="46.73857" lon="-2.00541">
        <ele>4.4</ele>
        <time>2025-01-20T08:31:11.455Z</time>
      </trkpt>
      <trkpt lat="46.73856" lon="-2.0054">
        <ele>4.4</ele>
        <time>2025-01-20T08:31:12.455Z</time>
      </trkpt>
      <trkpt lat="46.73856" lon="-2.00538">
        <ele>4.4</ele>
        <time>2025-01-20T08:31:13.455Z</time>
      </trkpt>
      <trkpt lat="46.73855" lon="-2.00536">
        <ele>4.4</ele>
        <time>2025-01-20T08:31:14.456Z</time>
      </trkpt>
      <trkpt lat="46.73855" lon="-2.00535">
        <ele>4.4</ele>
        <time>2025-01-20T08:31:15.456Z</time>
      </trkpt>
      <trkpt lat="46.73854" lon="-2.00533">
        <ele>4.4</ele>
        <time>2025-01-20T08:31:16.456Z</time>
      </trkpt>
      <trkpt lat="46.73853" lon="-2.00531">
        <ele>4.4</ele>
        <time>2025-01-20T08:31:17.456Z</time>
      </trkpt>
      <trkpt lat="46.73852" lon="-2.00529">
        <ele>4.4</ele>
        <time>2025-01-20T08:31:18.455Z</time>
      </trkpt>
      <trkpt lat="46.73852" lon="-2.00527">
        <ele>4.3</ele>
        <time>2025-01-20T08:31:19.455Z</time>
      </trkpt>
      <trkpt lat="46.73851" lon="-2.00526">
        <ele>4.3</ele>
        <time>2025-01-20T08:31:20.455Z</time>
      </trkpt>
      <trkpt lat="46.7385" lon="-2.00524">
        <ele>4.3</ele>
        <time>2025-01-20T08:31:21.455Z</time>
      </trkpt>
      <trkpt lat="46.73849" lon="-2.00522">
        <ele>4.3</ele>
        <time>2025-01-20T08:31:22.456Z</time>
      </trkpt>
      <trkpt lat="46.73849" lon="-2.00521">
        <ele>4.3</ele>
        <time>2025-01-20T08:31:23.456Z</time>
      </trkpt>
      <trkpt lat="46.73848" lon="-2.00519">
        <ele>4.3</ele>
        <time>2025-01-20T08:31:24.456Z</time>
      </trkpt>
      <trkpt lat="46.73848" lon="-2.00517">
        <ele>4.3</ele>
        <time>2025-01-20T08:31:25.456Z</time>
      </trkpt>
      <trkpt lat="46.73847" lon="-2.00515">
        <ele>4.3</ele>
        <time>2025-01-20T08:31:26.455Z</time>
      </trkpt>
      <trkpt lat="46.73846" lon="-2.00513">
        <ele>4.3</ele>
        <time>2025-01-20T08:31:27.455Z</time>
      </trkpt>
      <trkpt lat="46.73846" lon="-2.00512">
        <ele>4.2</ele>
        <time>2025-01-20T08:31:28.455Z</time>
      </trkpt>
      <trkpt lat="46.73845" lon="-2.0051">
        <ele>4.2</ele>
        <time>2025-01-20T08:31:29.455Z</time>
      </trkpt>
      <trkpt lat="46.73844" lon="-2.00508">
        <ele>4.2</ele>
        <time>2025-01-20T08:31:30.456Z</time>
      </trkpt>
      <trkpt lat="46.73843" lon="-2.00507">
        <ele>4.2</ele>
        <time>2025-01-20T08:31:31.456Z</time>
      </trkpt>
      <trkpt lat="46.73843" lon="-2.00505">
        <ele>4.1</ele>
        <time>2025-01-20T08:31:32.456Z</time>
      </trkpt>
      <trkpt lat="46.73842" lon="-2.00504">
        <ele>4.1</ele>
        <time>2025-01-20T08:31:33.456Z</time>
      </trkpt>
      <trkpt lat="46.73842" lon="-2.00502">
        <ele>4</ele>
        <time>2025-01-20T08:31:34.455Z</time>
      </trkpt>
      <trkpt lat="46.73841" lon="-2.005">
        <ele>4</ele>
        <time>2025-01-20T08:31:35.455Z</time>
      </trkpt>
      <trkpt lat="46.7384" lon="-2.00498">
        <ele>4.1</ele>
        <time>2025-01-20T08:31:36.455Z</time>
      </trkpt>
      <trkpt lat="46.73839" lon="-2.00496">
        <ele>4.2</ele>
        <time>2025-01-20T08:31:37.455Z</time>
      </trkpt>
      <trkpt lat="46.73839" lon="-2.00495">
        <ele>4.3</ele>
        <time>2025-01-20T08:31:38.456Z</time>
      </trkpt>
      <trkpt lat="46.73838" lon="-2.00493">
        <ele>4.4</ele>
        <time>2025-01-20T08:31:39.455Z</time>
      </trkpt>
      <trkpt lat="46.73837" lon="-2.00492">
        <ele>4.5</ele>
        <time>2025-01-20T08:31:40.456Z</time>
      </trkpt>
      <trkpt lat="46.73837" lon="-2.00491">
        <ele>4.6</ele>
        <time>2025-01-20T08:31:41.456Z</time>
      </trkpt>
      <trkpt lat="46.73836" lon="-2.00489">
        <ele>4.7</ele>
        <time>2025-01-20T08:31:42.455Z</time>
      </trkpt>
      <trkpt lat="46.73835" lon="-2.00488">
        <ele>4.8</ele>
        <time>2025-01-20T08:31:43.456Z</time>
      </trkpt>
      <trkpt lat="46.73835" lon="-2.00486">
        <ele>4.9</ele>
        <time>2025-01-20T08:31:44.455Z</time>
      </trkpt>
      <trkpt lat="46.73834" lon="-2.00485">
        <ele>5.1</ele>
        <time>2025-01-20T08:31:45.455Z</time>
      </trkpt>
      <trkpt lat="46.73834" lon="-2.00483">
        <ele>5.2</ele>
        <time>2025-01-20T08:31:46.456Z</time>
      </trkpt>
      <trkpt lat="46.73834" lon="-2.00482">
        <ele>5.3</ele>
        <time>2025-01-20T08:31:47.456Z</time>
      </trkpt>
      <trkpt lat="46.73833" lon="-2.0048">
        <ele>5.4</ele>
        <time>2025-01-20T08:31:48.455Z</time>
      </trkpt>
      <trkpt lat="46.73833" lon="-2.00478">
        <ele>5.6</ele>
        <time>2025-01-20T08:31:49.456Z</time>
      </trkpt>
      <trkpt lat="46.73832" lon="-2.00476">
        <ele>5.7</ele>
        <time>2025-01-20T08:31:50.456Z</time>
      </trkpt>
      <trkpt lat="46.73832" lon="-2.00475">
        <ele>5.8</ele>
        <time>2025-01-20T08:31:51.455Z</time>
      </trkpt>
      <trkpt lat="46.73831" lon="-2.00473">
        <ele>5.9</ele>
        <time>2025-01-20T08:31:52.455Z</time>
      </trkpt>
      <trkpt lat="46.73831" lon="-2.00472">
        <ele>5.9</ele>
        <time>2025-01-20T08:31:53.455Z</time>
      </trkpt>
      <trkpt lat="46.7383" lon="-2.0047">
        <ele>6</ele>
        <time>2025-01-20T08:31:54.456Z</time>
      </trkpt>
      <trkpt lat="46.7383" lon="-2.00468">
        <ele>6.2</ele>
        <time>2025-01-20T08:31:55.456Z</time>
      </trkpt>
      <trkpt lat="46.73829" lon="-2.00466">
        <ele>6.3</ele>
        <time>2025-01-20T08:31:56.456Z</time>
      </trkpt>
      <trkpt lat="46.73829" lon="-2.00464">
        <ele>6.4</ele>
        <time>2025-01-20T08:31:57.455Z</time>
      </trkpt>
      <trkpt lat="46.73828" lon="-2.00462">
        <ele>6.5</ele>
        <time>2025-01-20T08:31:58.456Z</time>
      </trkpt>
      <trkpt lat="46.73828" lon="-2.0046">
        <ele>6.7</ele>
        <time>2025-01-20T08:31:59.455Z</time>
      </trkpt>
      <trkpt lat="46.73828" lon="-2.00458">
        <ele>6.8</ele>
        <time>2025-01-20T08:32:00.456Z</time>
      </trkpt>
      <trkpt lat="46.73827" lon="-2.00456">
        <ele>6.9</ele>
        <time>2025-01-20T08:32:01.455Z</time>
      </trkpt>
      <trkpt lat="46.73827" lon="-2.00455">
        <ele>7</ele>
        <time>2025-01-20T08:32:02.456Z</time>
      </trkpt>
      <trkpt lat="46.73827" lon="-2.00453">
        <ele>7.2</ele>
        <time>2025-01-20T08:32:03.456Z</time>
      </trkpt>
      <trkpt lat="46.73826" lon="-2.00452">
        <ele>7.2</ele>
        <time>2025-01-20T08:32:04.456Z</time>
      </trkpt>
      <trkpt lat="46.73826" lon="-2.0045">
        <ele>7.3</ele>
        <time>2025-01-20T08:32:05.455Z</time>
      </trkpt>
      <trkpt lat="46.73825" lon="-2.00448">
        <ele>7.4</ele>
        <time>2025-01-20T08:32:06.455Z</time>
      </trkpt>
      <trkpt lat="46.73824" lon="-2.00446">
        <ele>7.6</ele>
        <time>2025-01-20T08:32:07.456Z</time>
      </trkpt>
      <trkpt lat="46.73824" lon="-2.00445">
        <ele>7.6</ele>
        <time>2025-01-20T08:32:08.456Z</time>
      </trkpt>
      <trkpt lat="46.73823" lon="-2.00443">
        <ele>7.7</ele>
        <time>2025-01-20T08:32:09.455Z</time>
      </trkpt>
      <trkpt lat="46.73823" lon="-2.00441">
        <ele>7.7</ele>
        <time>2025-01-20T08:32:10.456Z</time>
      </trkpt>
      <trkpt lat="46.73823" lon="-2.00439">
        <ele>7.8</ele>
        <time>2025-01-20T08:32:11.456Z</time>
      </trkpt>
      <trkpt lat="46.73822" lon="-2.00438">
        <ele>7.8</ele>
        <time>2025-01-20T08:32:12.455Z</time>
      </trkpt>
      <trkpt lat="46.73822" lon="-2.00436">
        <ele>7.8</ele>
        <time>2025-01-20T08:32:13.455Z</time>
      </trkpt>
      <trkpt lat="46.73822" lon="-2.00435">
        <ele>7.9</ele>
        <time>2025-01-20T08:32:14.455Z</time>
      </trkpt>
      <trkpt lat="46.73822" lon="-2.00433">
        <ele>7.9</ele>
        <time>2025-01-20T08:32:15.455Z</time>
      </trkpt>
      <trkpt lat="46.73821" lon="-2.00431">
        <ele>7.9</ele>
        <time>2025-01-20T08:32:16.455Z</time>
      </trkpt>
      <trkpt lat="46.73821" lon="-2.0043">
        <ele>7.9</ele>
        <time>2025-01-20T08:32:17.456Z</time>
      </trkpt>
      <trkpt lat="46.7382" lon="-2.00428">
        <ele>7.9</ele>
        <time>2025-01-20T08:32:18.456Z</time>
      </trkpt>
      <trkpt lat="46.73819" lon="-2.00426">
        <ele>7.8</ele>
        <time>2025-01-20T08:32:19.456Z</time>
      </trkpt>
      <trkpt lat="46.73818" lon="-2.00424">
        <ele>7.7</ele>
        <time>2025-01-20T08:32:20.455Z</time>
      </trkpt>
      <trkpt lat="46.73817" lon="-2.00423">
        <ele>7.6</ele>
        <time>2025-01-20T08:32:21.455Z</time>
      </trkpt>
      <trkpt lat="46.73816" lon="-2.00421">
        <ele>7.5</ele>
        <time>2025-01-20T08:32:22.456Z</time>
      </trkpt>
      <trkpt lat="46.73815" lon="-2.00419">
        <ele>7.4</ele>
        <time>2025-01-20T08:32:23.455Z</time>
      </trkpt>
      <trkpt lat="46.73814" lon="-2.00418">
        <ele>7.2</ele>
        <time>2025-01-20T08:32:24.456Z</time>
      </trkpt>
      <trkpt lat="46.73813" lon="-2.00417">
        <ele>7.1</ele>
        <time>2025-01-20T08:32:25.456Z</time>
      </trkpt>
      <trkpt lat="46.73812" lon="-2.00415">
        <ele>6.9</ele>
        <time>2025-01-20T08:32:26.456Z</time>
      </trkpt>
      <trkpt lat="46.73811" lon="-2.00413">
        <ele>6.7</ele>
        <time>2025-01-20T08:32:27.456Z</time>
      </trkpt>
      <trkpt lat="46.7381" lon="-2.00412">
        <ele>6.6</ele>
        <time>2025-01-20T08:32:28.455Z</time>
      </trkpt>
      <trkpt lat="46.73809" lon="-2.0041">
        <ele>6.3</ele>
        <time>2025-01-20T08:32:29.456Z</time>
      </trkpt>
      <trkpt lat="46.73808" lon="-2.00408">
        <ele>6.1</ele>
        <time>2025-01-20T08:32:30.455Z</time>
      </trkpt>
      <trkpt lat="46.73807" lon="-2.00407">
        <ele>5.9</ele>
        <time>2025-01-20T08:32:31.455Z</time>
      </trkpt>
      <trkpt lat="46.73807" lon="-2.00405">
        <ele>5.9</ele>
        <time>2025-01-20T08:32:32.456Z</time>
      </trkpt>
      <trkpt lat="46.73806" lon="-2.00404">
        <ele>5.6</ele>
        <time>2025-01-20T08:32:33.456Z</time>
      </trkpt>
      <trkpt lat="46.73804" lon="-2.00402">
        <ele>5.4</ele>
        <time>2025-01-20T08:32:34.455Z</time>
      </trkpt>
      <trkpt lat="46.73803" lon="-2.00401">
        <ele>5.3</ele>
        <time>2025-01-20T08:32:35.455Z</time>
      </trkpt>
      <trkpt lat="46.73802" lon="-2.00399">
        <ele>5.2</ele>
        <time>2025-01-20T08:32:36.455Z</time>
      </trkpt>
      <trkpt lat="46.73801" lon="-2.00397">
        <ele>5.1</ele>
        <time>2025-01-20T08:32:37.455Z</time>
      </trkpt>
      <trkpt lat="46.73801" lon="-2.00396">
        <ele>5.1</ele>
        <time>2025-01-20T08:32:38.455Z</time>
      </trkpt>
      <trkpt lat="46.738" lon="-2.00395">
        <ele>5</ele>
        <time>2025-01-20T08:32:39.455Z</time>
      </trkpt>
      <trkpt lat="46.73799" lon="-2.00393">
        <ele>4.9</ele>
        <time>2025-01-20T08:32:40.456Z</time>
      </trkpt>
      <trkpt lat="46.73798" lon="-2.00391">
        <ele>4.8</ele>
        <time>2025-01-20T08:32:41.456Z</time>
      </trkpt>
      <trkpt lat="46.73797" lon="-2.00389">
        <ele>4.7</ele>
        <time>2025-01-20T08:32:42.456Z</time>
      </trkpt>
      <trkpt lat="46.73796" lon="-2.00387">
        <ele>4.6</ele>
        <time>2025-01-20T08:32:43.456Z</time>
      </trkpt>
      <trkpt lat="46.73796" lon="-2.00386">
        <ele>4.6</ele>
        <time>2025-01-20T08:32:44.456Z</time>
      </trkpt>
      <trkpt lat="46.73795" lon="-2.00384">
        <ele>4.4</ele>
        <time>2025-01-20T08:32:45.455Z</time>
      </trkpt>
      <trkpt lat="46.73795" lon="-2.00382">
        <ele>4.4</ele>
        <time>2025-01-20T08:32:46.455Z</time>
      </trkpt>
      <trkpt lat="46.73795" lon="-2.0038">
        <ele>4.3</ele>
        <time>2025-01-20T08:32:47.455Z</time>
      </trkpt>
      <trkpt lat="46.73795" lon="-2.00378">
        <ele>4.2</ele>
        <time>2025-01-20T08:32:48.455Z</time>
      </trkpt>
      <trkpt lat="46.73795" lon="-2.00376">
        <ele>4.2</ele>
        <time>2025-01-20T08:32:49.456Z</time>
      </trkpt>
      <trkpt lat="46.73796" lon="-2.00374">
        <ele>4.1</ele>
        <time>2025-01-20T08:32:50.456Z</time>
      </trkpt>
      <trkpt lat="46.73796" lon="-2.00373">
        <ele>4.1</ele>
        <time>2025-01-20T08:32:51.456Z</time>
      </trkpt>
      <trkpt lat="46.73797" lon="-2.00371">
        <ele>4</ele>
        <time>2025-01-20T08:32:52.455Z</time>
      </trkpt>
      <trkpt lat="46.73799" lon="-2.0037">
        <ele>4.1</ele>
        <time>2025-01-20T08:32:53.455Z</time>
      </trkpt>
      <trkpt lat="46.738" lon="-2.00369">
        <ele>4.1</ele>
        <time>2025-01-20T08:32:54.455Z</time>
      </trkpt>
      <trkpt lat="46.73801" lon="-2.00367">
        <ele>4</ele>
        <time>2025-01-20T08:32:55.455Z</time>
      </trkpt>
      <trkpt lat="46.73802" lon="-2.00365">
        <ele>4</ele>
        <time>2025-01-20T08:32:56.455Z</time>
      </trkpt>
      <trkpt lat="46.73803" lon="-2.00363">
        <ele>4</ele>
        <time>2025-01-20T08:32:57.456Z</time>
      </trkpt>
      <trkpt lat="46.73804" lon="-2.00361">
        <ele>3.9</ele>
        <time>2025-01-20T08:32:58.455Z</time>
      </trkpt>
      <trkpt lat="46.73805" lon="-2.0036">
        <ele>3.9</ele>
        <time>2025-01-20T08:32:59.455Z</time>
      </trkpt>
      <trkpt lat="46.73806" lon="-2.00358">
        <ele>4</ele>
        <time>2025-01-20T08:33:00.456Z</time>
      </trkpt>
      <trkpt lat="46.73807" lon="-2.00357">
        <ele>4.1</ele>
        <time>2025-01-20T08:33:01.455Z</time>
      </trkpt>
      <trkpt lat="46.73808" lon="-2.00356">
        <ele>4.3</ele>
        <time>2025-01-20T08:33:02.456Z</time>
      </trkpt>
      <trkpt lat="46.73809" lon="-2.00354">
        <ele>4.4</ele>
        <time>2025-01-20T08:33:03.456Z</time>
      </trkpt>
      <trkpt lat="46.7381" lon="-2.00353">
        <ele>4.6</ele>
        <time>2025-01-20T08:33:04.456Z</time>
      </trkpt>
      <trkpt lat="46.73812" lon="-2.00352">
        <ele>4.9</ele>
        <time>2025-01-20T08:33:05.456Z</time>
      </trkpt>
      <trkpt lat="46.73813" lon="-2.0035">
        <ele>5</ele>
        <time>2025-01-20T08:33:06.455Z</time>
      </trkpt>
      <trkpt lat="46.73814" lon="-2.00349">
        <ele>5.1</ele>
        <time>2025-01-20T08:33:07.455Z</time>
      </trkpt>
      <trkpt lat="46.73815" lon="-2.00348">
        <ele>5.2</ele>
        <time>2025-01-20T08:33:08.455Z</time>
      </trkpt>
      <trkpt lat="46.73815" lon="-2.00346">
        <ele>5.1</ele>
        <time>2025-01-20T08:33:09.455Z</time>
      </trkpt>
      <trkpt lat="46.73816" lon="-2.00345">
        <ele>5.2</ele>
        <time>2025-01-20T08:33:10.456Z</time>
      </trkpt>
      <trkpt lat="46.73817" lon="-2.00343">
        <ele>5.3</ele>
        <time>2025-01-20T08:33:11.455Z</time>
      </trkpt>
      <trkpt lat="46.73818" lon="-2.00342">
        <ele>5.4</ele>
        <time>2025-01-20T08:33:12.456Z</time>
      </trkpt>
      <trkpt lat="46.7382" lon="-2.00341">
        <ele>5.6</ele>
        <time>2025-01-20T08:33:13.456Z</time>
      </trkpt>
      <trkpt lat="46.73821" lon="-2.00339">
        <ele>5.7</ele>
        <time>2025-01-20T08:33:14.455Z</time>
      </trkpt>
      <trkpt lat="46.73822" lon="-2.00338">
        <ele>5.7</ele>
        <time>2025-01-20T08:33:15.455Z</time>
      </trkpt>
      <trkpt lat="46.73823" lon="-2.00336">
        <ele>5.7</ele>
        <time>2025-01-20T08:33:16.456Z</time>
      </trkpt>
      <trkpt lat="46.73824" lon="-2.00334">
        <ele>5.7</ele>
        <time>2025-01-20T08:33:17.456Z</time>
      </trkpt>
      <trkpt lat="46.73825" lon="-2.00333">
        <ele>5.8</ele>
        <time>2025-01-20T08:33:18.456Z</time>
      </trkpt>
      <trkpt lat="46.73826" lon="-2.00332">
        <ele>5.9</ele>
        <time>2025-01-20T08:33:19.456Z</time>
      </trkpt>
      <trkpt lat="46.73827" lon="-2.00331">
        <ele>6</ele>
        <time>2025-01-20T08:33:20.455Z</time>
      </trkpt>
      <trkpt lat="46.73828" lon="-2.00329">
        <ele>6.1</ele>
        <time>2025-01-20T08:33:21.455Z</time>
      </trkpt>
      <trkpt lat="46.73829" lon="-2.00328">
        <ele>6.2</ele>
        <time>2025-01-20T08:33:22.455Z</time>
      </trkpt>
      <trkpt lat="46.7383" lon="-2.00327">
        <ele>6.3</ele>
        <time>2025-01-20T08:33:23.455Z</time>
      </trkpt>
      <trkpt lat="46.73831" lon="-2.00326">
        <ele>6.4</ele>
        <time>2025-01-20T08:33:24.456Z</time>
      </trkpt>
      <trkpt lat="46.73832" lon="-2.00325">
        <ele>6.5</ele>
        <time>2025-01-20T08:33:25.456Z</time>
      </trkpt>
      <trkpt lat="46.73833" lon="-2.00323">
        <ele>6.6</ele>
        <time>2025-01-20T08:33:26.456Z</time>
      </trkpt>
      <trkpt lat="46.73834" lon="-2.00322">
        <ele>6.6</ele>
        <time>2025-01-20T08:33:27.456Z</time>
      </trkpt>
      <trkpt lat="46.73835" lon="-2.00321">
        <ele>6.6</ele>
        <time>2025-01-20T08:33:28.455Z</time>
      </trkpt>
      <trkpt lat="46.73836" lon="-2.00319">
        <ele>6.6</ele>
        <time>2025-01-20T08:33:29.455Z</time>
      </trkpt>
      <trkpt lat="46.73837" lon="-2.00318">
        <ele>6.7</ele>
        <time>2025-01-20T08:33:30.455Z</time>
      </trkpt>
      <trkpt lat="46.73838" lon="-2.00317">
        <ele>6.7</ele>
        <time>2025-01-20T08:33:31.455Z</time>
      </trkpt>
      <trkpt lat="46.73839" lon="-2.00316">
        <ele>6.7</ele>
        <time>2025-01-20T08:33:32.456Z</time>
      </trkpt>
      <trkpt lat="46.7384" lon="-2.00315">
        <ele>6.7</ele>
        <time>2025-01-20T08:33:33.456Z</time>
      </trkpt>
      <trkpt lat="46.73841" lon="-2.00314">
        <ele>6.8</ele>
        <time>2025-01-20T08:33:34.456Z</time>
      </trkpt>
      <trkpt lat="46.73842" lon="-2.00313">
        <ele>6.8</ele>
        <time>2025-01-20T08:33:35.456Z</time>
      </trkpt>
      <trkpt lat="46.73843" lon="-2.00312">
        <ele>6.8</ele>
        <time>2025-01-20T08:33:36.455Z</time>
      </trkpt>
      <trkpt lat="46.73844" lon="-2.00311">
        <ele>6.9</ele>
        <time>2025-01-20T08:33:37.455Z</time>
      </trkpt>
      <trkpt lat="46.73846" lon="-2.0031">
        <ele>7</ele>
        <time>2025-01-20T08:33:38.455Z</time>
      </trkpt>
      <trkpt lat="46.73847" lon="-2.00309">
        <ele>7</ele>
        <time>2025-01-20T08:33:39.456Z</time>
      </trkpt>
      <trkpt lat="46.73848" lon="-2.00308">
        <ele>7.1</ele>
        <time>2025-01-20T08:33:40.456Z</time>
      </trkpt>
      <trkpt lat="46.73849" lon="-2.00307">
        <ele>7.2</ele>
        <time>2025-01-20T08:33:41.455Z</time>
      </trkpt>
      <trkpt lat="46.7385" lon="-2.00305">
        <ele>7.2</ele>
        <time>2025-01-20T08:33:42.455Z</time>
      </trkpt>
      <trkpt lat="46.73851" lon="-2.00304">
        <ele>7.4</ele>
        <time>2025-01-20T08:33:43.455Z</time>
      </trkpt>
      <trkpt lat="46.73853" lon="-2.00303">
        <ele>7.5</ele>
        <time>2025-01-20T08:33:44.455Z</time>
      </trkpt>
      <trkpt lat="46.73854" lon="-2.00302">
        <ele>7.6</ele>
        <time>2025-01-20T08:33:45.456Z</time>
      </trkpt>
      <trkpt lat="46.73855" lon="-2.00301">
        <ele>7.7</ele>
        <time>2025-01-20T08:33:46.456Z</time>
      </trkpt>
      <trkpt lat="46.73856" lon="-2.003">
        <ele>7.8</ele>
        <time>2025-01-20T08:33:47.456Z</time>
      </trkpt>
      <trkpt lat="46.73857" lon="-2.00299">
        <ele>7.8</ele>
        <time>2025-01-20T08:33:48.455Z</time>
      </trkpt>
      <trkpt lat="46.73857" lon="-2.00298">
        <ele>7.9</ele>
        <time>2025-01-20T08:33:49.456Z</time>
      </trkpt>
      <trkpt lat="46.73858" lon="-2.00297">
        <ele>7.9</ele>
        <time>2025-01-20T08:33:50.455Z</time>
      </trkpt>
      <trkpt lat="46.73859" lon="-2.00296">
        <ele>8</ele>
        <time>2025-01-20T08:33:51.455Z</time>
      </trkpt>
      <trkpt lat="46.7386" lon="-2.00295">
        <ele>8</ele>
        <time>2025-01-20T08:33:52.456Z</time>
      </trkpt>
      <trkpt lat="46.73861" lon="-2.00294">
        <ele>8</ele>
        <time>2025-01-20T08:33:53.456Z</time>
      </trkpt>
      <trkpt lat="46.73862" lon="-2.00292">
        <ele>7.9</ele>
        <time>2025-01-20T08:33:54.456Z</time>
      </trkpt>
      <trkpt lat="46.73863" lon="-2.00291">
        <ele>7.8</ele>
        <time>2025-01-20T08:33:55.455Z</time>
      </trkpt>
      <trkpt lat="46.73864" lon="-2.00289">
        <ele>7.7</ele>
        <time>2025-01-20T08:33:56.455Z</time>
      </trkpt>
      <trkpt lat="46.73864" lon="-2.00288">
        <ele>7.7</ele>
        <time>2025-01-20T08:33:57.455Z</time>
      </trkpt>
      <trkpt lat="46.73865" lon="-2.00287">
        <ele>7.6</ele>
        <time>2025-01-20T08:33:58.456Z</time>
      </trkpt>
      <trkpt lat="46.73866" lon="-2.00286">
        <ele>7.5</ele>
        <time>2025-01-20T08:33:59.456Z</time>
      </trkpt>
      <trkpt lat="46.73867" lon="-2.00285">
        <ele>7.5</ele>
        <time>2025-01-20T08:34:00.455Z</time>
      </trkpt>
      <trkpt lat="46.73868" lon="-2.00283">
        <ele>7.4</ele>
        <time>2025-01-20T08:34:01.456Z</time>
      </trkpt>
      <trkpt lat="46.73868" lon="-2.00283">
        <ele>7.4</ele>
        <time>2025-01-20T08:34:02.456Z</time>
      </trkpt>
      <trkpt lat="46.73869" lon="-2.00281">
        <ele>7.4</ele>
        <time>2025-01-20T08:34:03.455Z</time>
      </trkpt>
      <trkpt lat="46.7387" lon="-2.0028">
        <ele>7.3</ele>
        <time>2025-01-20T08:34:04.455Z</time>
      </trkpt>
      <trkpt lat="46.73871" lon="-2.00279">
        <ele>7.3</ele>
        <time>2025-01-20T08:34:05.455Z</time>
      </trkpt>
      <trkpt lat="46.73872" lon="-2.00278">
        <ele>7.2</ele>
        <time>2025-01-20T08:34:06.455Z</time>
      </trkpt>
      <trkpt lat="46.73873" lon="-2.00277">
        <ele>7.1</ele>
        <time>2025-01-20T08:34:07.455Z</time>
      </trkpt>
      <trkpt lat="46.73874" lon="-2.00276">
        <ele>7</ele>
        <time>2025-01-20T08:34:08.456Z</time>
      </trkpt>
      <trkpt lat="46.73875" lon="-2.00275">
        <ele>6.9</ele>
        <time>2025-01-20T08:34:09.456Z</time>
      </trkpt>
      <trkpt lat="46.73876" lon="-2.00274">
        <ele>6.8</ele>
        <time>2025-01-20T08:34:10.455Z</time>
      </trkpt>
      <trkpt lat="46.73877" lon="-2.00272">
        <ele>6.7</ele>
        <time>2025-01-20T08:34:11.456Z</time>
      </trkpt>
      <trkpt lat="46.73878" lon="-2.0027">
        <ele>6.6</ele>
        <time>2025-01-20T08:34:12.456Z</time>
      </trkpt>
      <trkpt lat="46.73879" lon="-2.00269">
        <ele>6.6</ele>
        <time>2025-01-20T08:34:13.456Z</time>
      </trkpt>
      <trkpt lat="46.7388" lon="-2.00268">
        <ele>6.5</ele>
        <time>2025-01-20T08:34:14.456Z</time>
      </trkpt>
      <trkpt lat="46.73881" lon="-2.00267">
        <ele>6.5</ele>
        <time>2025-01-20T08:34:15.456Z</time>
      </trkpt>
      <trkpt lat="46.73882" lon="-2.00265">
        <ele>6.5</ele>
        <time>2025-01-20T08:34:16.456Z</time>
      </trkpt>
      <trkpt lat="46.73883" lon="-2.00264">
        <ele>6.5</ele>
        <time>2025-01-20T08:34:17.455Z</time>
      </trkpt>
      <trkpt lat="46.73884" lon="-2.00263">
        <ele>6.5</ele>
        <time>2025-01-20T08:34:18.455Z</time>
      </trkpt>
      <trkpt lat="46.73885" lon="-2.00261">
        <ele>6.5</ele>
        <time>2025-01-20T08:34:19.455Z</time>
      </trkpt>
      <trkpt lat="46.73886" lon="-2.0026">
        <ele>6.6</ele>
        <time>2025-01-20T08:34:20.456Z</time>
      </trkpt>
      <trkpt lat="46.73887" lon="-2.00258">
        <ele>6.7</ele>
        <time>2025-01-20T08:34:21.456Z</time>
      </trkpt>
      <trkpt lat="46.73888" lon="-2.00257">
        <ele>6.7</ele>
        <time>2025-01-20T08:34:22.456Z</time>
      </trkpt>
      <trkpt lat="46.73889" lon="-2.00255">
        <ele>6.8</ele>
        <time>2025-01-20T08:34:23.456Z</time>
      </trkpt>
      <trkpt lat="46.7389" lon="-2.00253">
        <ele>6.8</ele>
        <time>2025-01-20T08:34:24.455Z</time>
      </trkpt>
      <trkpt lat="46.73891" lon="-2.00252">
        <ele>6.8</ele>
        <time>2025-01-20T08:34:25.455Z</time>
      </trkpt>
      <trkpt lat="46.73891" lon="-2.0025">
        <ele>6.8</ele>
        <time>2025-01-20T08:34:26.455Z</time>
      </trkpt>
      <trkpt lat="46.73892" lon="-2.00249">
        <ele>6.7</ele>
        <time>2025-01-20T08:34:27.455Z</time>
      </trkpt>
      <trkpt lat="46.73893" lon="-2.00247">
        <ele>6.4</ele>
        <time>2025-01-20T08:34:28.456Z</time>
      </trkpt>
      <trkpt lat="46.73894" lon="-2.00246">
        <ele>6.3</ele>
        <time>2025-01-20T08:34:29.456Z</time>
      </trkpt>
      <trkpt lat="46.73895" lon="-2.00245">
        <ele>6.1</ele>
        <time>2025-01-20T08:34:30.456Z</time>
      </trkpt>
      <trkpt lat="46.73896" lon="-2.00244">
        <ele>6</ele>
        <time>2025-01-20T08:34:31.456Z</time>
      </trkpt>
      <trkpt lat="46.73897" lon="-2.00243">
        <ele>5.9</ele>
        <time>2025-01-20T08:34:32.456Z</time>
      </trkpt>
      <trkpt lat="46.73898" lon="-2.00242">
        <ele>5.8</ele>
        <time>2025-01-20T08:34:33.456Z</time>
      </trkpt>
      <trkpt lat="46.73899" lon="-2.00241">
        <ele>5.7</ele>
        <time>2025-01-20T08:34:34.456Z</time>
      </trkpt>
      <trkpt lat="46.739" lon="-2.00241">
        <ele>5.6</ele>
        <time>2025-01-20T08:34:35.456Z</time>
      </trkpt>
      <trkpt lat="46.73901" lon="-2.0024">
        <ele>5.5</ele>
        <time>2025-01-20T08:34:36.456Z</time>
      </trkpt>
      <trkpt lat="46.73903" lon="-2.00238">
        <ele>5.3</ele>
        <time>2025-01-20T08:34:37.455Z</time>
      </trkpt>
      <trkpt lat="46.73904" lon="-2.00237">
        <ele>5.3</ele>
        <time>2025-01-20T08:34:38.455Z</time>
      </trkpt>
      <trkpt lat="46.73905" lon="-2.00236">
        <ele>5.2</ele>
        <time>2025-01-20T08:34:39.455Z</time>
      </trkpt>
      <trkpt lat="46.73906" lon="-2.00235">
        <ele>5.1</ele>
        <time>2025-01-20T08:34:40.455Z</time>
      </trkpt>
      <trkpt lat="46.73907" lon="-2.00233">
        <ele>5.1</ele>
        <time>2025-01-20T08:34:41.456Z</time>
      </trkpt>
      <trkpt lat="46.73908" lon="-2.00232">
        <ele>5</ele>
        <time>2025-01-20T08:34:42.456Z</time>
      </trkpt>
      <trkpt lat="46.73909" lon="-2.00231">
        <ele>5</ele>
        <time>2025-01-20T08:34:43.456Z</time>
      </trkpt>
      <trkpt lat="46.7391" lon="-2.00229">
        <ele>4.9</ele>
        <time>2025-01-20T08:34:44.455Z</time>
      </trkpt>
      <trkpt lat="46.73911" lon="-2.00228">
        <ele>4.9</ele>
        <time>2025-01-20T08:34:45.455Z</time>
      </trkpt>
      <trkpt lat="46.73912" lon="-2.00227">
        <ele>4.9</ele>
        <time>2025-01-20T08:34:46.455Z</time>
      </trkpt>
      <trkpt lat="46.73913" lon="-2.00225">
        <ele>4.9</ele>
        <time>2025-01-20T08:34:47.455Z</time>
      </trkpt>
      <trkpt lat="46.73914" lon="-2.00224">
        <ele>4.9</ele>
        <time>2025-01-20T08:34:48.455Z</time>
      </trkpt>
      <trkpt lat="46.73915" lon="-2.00223">
        <ele>4.9</ele>
        <time>2025-01-20T08:34:49.456Z</time>
      </trkpt>
      <trkpt lat="46.73916" lon="-2.00222">
        <ele>5</ele>
        <time>2025-01-20T08:34:50.456Z</time>
      </trkpt>
      <trkpt lat="46.73917" lon="-2.00221">
        <ele>4.9</ele>
        <time>2025-01-20T08:34:51.456Z</time>
      </trkpt>
      <trkpt lat="46.73918" lon="-2.0022">
        <ele>4.9</ele>
        <time>2025-01-20T08:34:52.456Z</time>
      </trkpt>
      <trkpt lat="46.73919" lon="-2.00219">
        <ele>4.8</ele>
        <time>2025-01-20T08:34:53.456Z</time>
      </trkpt>
      <trkpt lat="46.7392" lon="-2.00217">
        <ele>4.7</ele>
        <time>2025-01-20T08:34:54.455Z</time>
      </trkpt>
      <trkpt lat="46.73921" lon="-2.00216">
        <ele>4.6</ele>
        <time>2025-01-20T08:34:55.455Z</time>
      </trkpt>
      <trkpt lat="46.73922" lon="-2.00215">
        <ele>4.5</ele>
        <time>2025-01-20T08:34:56.455Z</time>
      </trkpt>
      <trkpt lat="46.73923" lon="-2.00213">
        <ele>4.4</ele>
        <time>2025-01-20T08:34:57.456Z</time>
      </trkpt>
      <trkpt lat="46.73924" lon="-2.00212">
        <ele>4.4</ele>
        <time>2025-01-20T08:34:58.456Z</time>
      </trkpt>
      <trkpt lat="46.73925" lon="-2.00211">
        <ele>4.3</ele>
        <time>2025-01-20T08:34:59.456Z</time>
      </trkpt>
      <trkpt lat="46.73926" lon="-2.0021">
        <ele>4.2</ele>
        <time>2025-01-20T08:35:00.456Z</time>
      </trkpt>
      <trkpt lat="46.73927" lon="-2.00209">
        <ele>4.2</ele>
        <time>2025-01-20T08:35:01.456Z</time>
      </trkpt>
      <trkpt lat="46.73928" lon="-2.00208">
        <ele>4.1</ele>
        <time>2025-01-20T08:35:02.455Z</time>
      </trkpt>
      <trkpt lat="46.7393" lon="-2.00206">
        <ele>3.9</ele>
        <time>2025-01-20T08:35:03.455Z</time>
      </trkpt>
      <trkpt lat="46.73931" lon="-2.00205">
        <ele>3.9</ele>
        <time>2025-01-20T08:35:04.455Z</time>
      </trkpt>
      <trkpt lat="46.73932" lon="-2.00204">
        <ele>3.8</ele>
        <time>2025-01-20T08:35:05.455Z</time>
      </trkpt>
      <trkpt lat="46.73933" lon="-2.00203">
        <ele>3.7</ele>
        <time>2025-01-20T08:35:06.455Z</time>
      </trkpt>
      <trkpt lat="46.73935" lon="-2.00202">
        <ele>3.6</ele>
        <time>2025-01-20T08:35:07.456Z</time>
      </trkpt>
      <trkpt lat="46.73936" lon="-2.00201">
        <ele>3.5</ele>
        <time>2025-01-20T08:35:08.456Z</time>
      </trkpt>
      <trkpt lat="46.73937" lon="-2.002">
        <ele>3.5</ele>
        <time>2025-01-20T08:35:09.456Z</time>
      </trkpt>
      <trkpt lat="46.73938" lon="-2.00198">
        <ele>3.4</ele>
        <time>2025-01-20T08:35:10.455Z</time>
      </trkpt>
      <trkpt lat="46.73939" lon="-2.00197">
        <ele>3.3</ele>
        <time>2025-01-20T08:35:11.455Z</time>
      </trkpt>
      <trkpt lat="46.7394" lon="-2.00195">
        <ele>3.2</ele>
        <time>2025-01-20T08:35:12.455Z</time>
      </trkpt>
      <trkpt lat="46.7394" lon="-2.00193">
        <ele>3.2</ele>
        <time>2025-01-20T08:35:13.456Z</time>
      </trkpt>
      <trkpt lat="46.73941" lon="-2.00191">
        <ele>3.3</ele>
        <time>2025-01-20T08:35:14.456Z</time>
      </trkpt>
      <trkpt lat="46.73942" lon="-2.00189">
        <ele>3.3</ele>
        <time>2025-01-20T08:35:15.456Z</time>
      </trkpt>
      <trkpt lat="46.73943" lon="-2.00188">
        <ele>3.3</ele>
        <time>2025-01-20T08:35:16.456Z</time>
      </trkpt>
      <trkpt lat="46.73943" lon="-2.00186">
        <ele>3.4</ele>
        <time>2025-01-20T08:35:17.456Z</time>
      </trkpt>
      <trkpt lat="46.73944" lon="-2.00185">
        <ele>3.4</ele>
        <time>2025-01-20T08:35:18.455Z</time>
      </trkpt>
      <trkpt lat="46.73944" lon="-2.00184">
        <ele>3.4</ele>
        <time>2025-01-20T08:35:19.455Z</time>
      </trkpt>
      <trkpt lat="46.73945" lon="-2.00182">
        <ele>3.5</ele>
        <time>2025-01-20T08:35:20.455Z</time>
      </trkpt>
      <trkpt lat="46.73946" lon="-2.00181">
        <ele>3.5</ele>
        <time>2025-01-20T08:35:21.455Z</time>
      </trkpt>
      <trkpt lat="46.73947" lon="-2.00179">
        <ele>3.6</ele>
        <time>2025-01-20T08:35:22.455Z</time>
      </trkpt>
      <trkpt lat="46.73948" lon="-2.00177">
        <ele>3.8</ele>
        <time>2025-01-20T08:35:23.455Z</time>
      </trkpt>
      <trkpt lat="46.73948" lon="-2.00176">
        <ele>3.8</ele>
        <time>2025-01-20T08:35:24.455Z</time>
      </trkpt>
      <trkpt lat="46.73949" lon="-2.00175">
        <ele>3.9</ele>
        <time>2025-01-20T08:35:25.456Z</time>
      </trkpt>
      <trkpt lat="46.73949" lon="-2.00174">
        <ele>3.9</ele>
        <time>2025-01-20T08:35:26.456Z</time>
      </trkpt>
      <trkpt lat="46.7395" lon="-2.00172">
        <ele>4</ele>
        <time>2025-01-20T08:35:27.455Z</time>
      </trkpt>
      <trkpt lat="46.7395" lon="-2.00171">
        <ele>4</ele>
        <time>2025-01-20T08:35:28.455Z</time>
      </trkpt>
      <trkpt lat="46.73951" lon="-2.0017">
        <ele>4.1</ele>
        <time>2025-01-20T08:35:29.455Z</time>
      </trkpt>
      <trkpt lat="46.73951" lon="-2.00168">
        <ele>4.2</ele>
        <time>2025-01-20T08:35:30.455Z</time>
      </trkpt>
      <trkpt lat="46.73952" lon="-2.00167">
        <ele>4.3</ele>
        <time>2025-01-20T08:35:31.456Z</time>
      </trkpt>
      <trkpt lat="46.73953" lon="-2.00165">
        <ele>4.4</ele>
        <time>2025-01-20T08:35:32.455Z</time>
      </trkpt>
      <trkpt lat="46.73954" lon="-2.00164">
        <ele>4.5</ele>
        <time>2025-01-20T08:35:33.456Z</time>
      </trkpt>
      <trkpt lat="46.73954" lon="-2.00163">
        <ele>4.6</ele>
        <time>2025-01-20T08:35:34.456Z</time>
      </trkpt>
      <trkpt lat="46.73955" lon="-2.00162">
        <ele>4.7</ele>
        <time>2025-01-20T08:35:35.455Z</time>
      </trkpt>
      <trkpt lat="46.73956" lon="-2.0016">
        <ele>4.8</ele>
        <time>2025-01-20T08:35:36.455Z</time>
      </trkpt>
      <trkpt lat="46.73957" lon="-2.00159">
        <ele>4.9</ele>
        <time>2025-01-20T08:35:37.455Z</time>
      </trkpt>
      <trkpt lat="46.73958" lon="-2.00157">
        <ele>5</ele>
        <time>2025-01-20T08:35:38.455Z</time>
      </trkpt>
      <trkpt lat="46.73959" lon="-2.00155">
        <ele>5.1</ele>
        <time>2025-01-20T08:35:39.456Z</time>
      </trkpt>
      <trkpt lat="46.73959" lon="-2.00153">
        <ele>5.2</ele>
        <time>2025-01-20T08:35:40.455Z</time>
      </trkpt>
      <trkpt lat="46.7396" lon="-2.00152">
        <ele>5.3</ele>
        <time>2025-01-20T08:35:41.456Z</time>
      </trkpt>
      <trkpt lat="46.7396" lon="-2.0015">
        <ele>5.4</ele>
        <time>2025-01-20T08:35:42.455Z</time>
      </trkpt>
      <trkpt lat="46.73961" lon="-2.00149">
        <ele>5.4</ele>
        <time>2025-01-20T08:35:43.456Z</time>
      </trkpt>
      <trkpt lat="46.73962" lon="-2.00147">
        <ele>5.4</ele>
        <time>2025-01-20T08:35:44.456Z</time>
      </trkpt>
      <trkpt lat="46.73963" lon="-2.00146">
        <ele>5.4</ele>
        <time>2025-01-20T08:35:45.456Z</time>
      </trkpt>
      <trkpt lat="46.73964" lon="-2.00144">
        <ele>5.4</ele>
        <time>2025-01-20T08:35:46.455Z</time>
      </trkpt>
      <trkpt lat="46.73965" lon="-2.00142">
        <ele>5.4</ele>
        <time>2025-01-20T08:35:47.456Z</time>
      </trkpt>
      <trkpt lat="46.73965" lon="-2.0014">
        <ele>5.5</ele>
        <time>2025-01-20T08:35:48.456Z</time>
      </trkpt>
      <trkpt lat="46.73966" lon="-2.00139">
        <ele>5.4</ele>
        <time>2025-01-20T08:35:49.455Z</time>
      </trkpt>
      <trkpt lat="46.73967" lon="-2.00137">
        <ele>5.3</ele>
        <time>2025-01-20T08:35:50.455Z</time>
      </trkpt>
      <trkpt lat="46.73967" lon="-2.00135">
        <ele>5.2</ele>
        <time>2025-01-20T08:35:51.455Z</time>
      </trkpt>
      <trkpt lat="46.73968" lon="-2.00133">
        <ele>5.1</ele>
        <time>2025-01-20T08:35:52.456Z</time>
      </trkpt>
      <trkpt lat="46.73969" lon="-2.00132">
        <ele>5</ele>
        <time>2025-01-20T08:35:53.456Z</time>
      </trkpt>
      <trkpt lat="46.73969" lon="-2.00131">
        <ele>4.9</ele>
        <time>2025-01-20T08:35:54.456Z</time>
      </trkpt>
      <trkpt lat="46.7397" lon="-2.00129">
        <ele>4.8</ele>
        <time>2025-01-20T08:35:55.455Z</time>
      </trkpt>
      <trkpt lat="46.73971" lon="-2.00128">
        <ele>4.7</ele>
        <time>2025-01-20T08:35:56.455Z</time>
      </trkpt>
      <trkpt lat="46.73971" lon="-2.00126">
        <ele>4.6</ele>
        <time>2025-01-20T08:35:57.455Z</time>
      </trkpt>
      <trkpt lat="46.73972" lon="-2.00124">
        <ele>4.5</ele>
        <time>2025-01-20T08:35:58.455Z</time>
      </trkpt>
      <trkpt lat="46.73973" lon="-2.00123">
        <ele>4.4</ele>
        <time>2025-01-20T08:35:59.456Z</time>
      </trkpt>
      <trkpt lat="46.73974" lon="-2.00121">
        <ele>4.3</ele>
        <time>2025-01-20T08:36:00.456Z</time>
      </trkpt>
      <trkpt lat="46.73974" lon="-2.0012">
        <ele>4.3</ele>
        <time>2025-01-20T08:36:01.455Z</time>
      </trkpt>
      <trkpt lat="46.73975" lon="-2.00118">
        <ele>4.2</ele>
        <time>2025-01-20T08:36:02.456Z</time>
      </trkpt>
      <trkpt lat="46.73976" lon="-2.00116">
        <ele>4.2</ele>
        <time>2025-01-20T08:36:03.456Z</time>
      </trkpt>
      <trkpt lat="46.73977" lon="-2.00115">
        <ele>4.1</ele>
        <time>2025-01-20T08:36:04.456Z</time>
      </trkpt>
      <trkpt lat="46.73978" lon="-2.00113">
        <ele>4.1</ele>
        <time>2025-01-20T08:36:05.456Z</time>
      </trkpt>
      <trkpt lat="46.73979" lon="-2.00112">
        <ele>4</ele>
        <time>2025-01-20T08:36:06.456Z</time>
      </trkpt>
      <trkpt lat="46.7398" lon="-2.0011">
        <ele>4</ele>
        <time>2025-01-20T08:36:07.455Z</time>
      </trkpt>
      <trkpt lat="46.7398" lon="-2.00109">
        <ele>4</ele>
        <time>2025-01-20T08:36:08.455Z</time>
      </trkpt>
      <trkpt lat="46.73981" lon="-2.00107">
        <ele>4</ele>
        <time>2025-01-20T08:36:09.455Z</time>
      </trkpt>
      <trkpt lat="46.73982" lon="-2.00105">
        <ele>4.1</ele>
        <time>2025-01-20T08:36:10.455Z</time>
      </trkpt>
      <trkpt lat="46.73983" lon="-2.00103">
        <ele>4.1</ele>
        <time>2025-01-20T08:36:11.455Z</time>
      </trkpt>
      <trkpt lat="46.73983" lon="-2.00101">
        <ele>4.1</ele>
        <time>2025-01-20T08:36:12.455Z</time>
      </trkpt>
      <trkpt lat="46.73984" lon="-2.00099">
        <ele>4.2</ele>
        <time>2025-01-20T08:36:13.455Z</time>
      </trkpt>
      <trkpt lat="46.73985" lon="-2.00098">
        <ele>4.2</ele>
        <time>2025-01-20T08:36:14.456Z</time>
      </trkpt>
      <trkpt lat="46.73985" lon="-2.00096">
        <ele>4.3</ele>
        <time>2025-01-20T08:36:15.456Z</time>
      </trkpt>
      <trkpt lat="46.73986" lon="-2.00094">
        <ele>4.3</ele>
        <time>2025-01-20T08:36:16.455Z</time>
      </trkpt>
      <trkpt lat="46.73987" lon="-2.00092">
        <ele>4.4</ele>
        <time>2025-01-20T08:36:17.455Z</time>
      </trkpt>
      <trkpt lat="46.73988" lon="-2.00091">
        <ele>4.4</ele>
        <time>2025-01-20T08:36:18.455Z</time>
      </trkpt>
      <trkpt lat="46.73989" lon="-2.00089">
        <ele>4.5</ele>
        <time>2025-01-20T08:36:19.455Z</time>
      </trkpt>
      <trkpt lat="46.7399" lon="-2.00087">
        <ele>4.6</ele>
        <time>2025-01-20T08:36:20.455Z</time>
      </trkpt>
      <trkpt lat="46.73991" lon="-2.00085">
        <ele>4.6</ele>
        <time>2025-01-20T08:36:21.456Z</time>
      </trkpt>
      <trkpt lat="46.73992" lon="-2.00084">
        <ele>4.7</ele>
        <time>2025-01-20T08:36:22.455Z</time>
      </trkpt>
      <trkpt lat="46.73993" lon="-2.00082">
        <ele>4.8</ele>
        <time>2025-01-20T08:36:23.456Z</time>
      </trkpt>
      <trkpt lat="46.73994" lon="-2.00081">
        <ele>4.8</ele>
        <time>2025-01-20T08:36:24.456Z</time>
      </trkpt>
      <trkpt lat="46.73995" lon="-2.00079">
        <ele>4.8</ele>
        <time>2025-01-20T08:36:25.455Z</time>
      </trkpt>
      <trkpt lat="46.73997" lon="-2.00077">
        <ele>4.9</ele>
        <time>2025-01-20T08:36:26.455Z</time>
      </trkpt>
      <trkpt lat="46.73997" lon="-2.00075">
        <ele>4.9</ele>
        <time>2025-01-20T08:36:27.455Z</time>
      </trkpt>
      <trkpt lat="46.73998" lon="-2.00073">
        <ele>5</ele>
        <time>2025-01-20T08:36:28.456Z</time>
      </trkpt>
      <trkpt lat="46.73999" lon="-2.00072">
        <ele>5</ele>
        <time>2025-01-20T08:36:29.456Z</time>
      </trkpt>
      <trkpt lat="46.74" lon="-2.0007">
        <ele>5</ele>
        <time>2025-01-20T08:36:30.456Z</time>
      </trkpt>
      <trkpt lat="46.74" lon="-2.00069">
        <ele>5</ele>
        <time>2025-01-20T08:36:31.456Z</time>
      </trkpt>
      <trkpt lat="46.74001" lon="-2.00067">
        <ele>5</ele>
        <time>2025-01-20T08:36:32.455Z</time>
      </trkpt>
      <trkpt lat="46.74002" lon="-2.00066">
        <ele>5</ele>
        <time>2025-01-20T08:36:33.455Z</time>
      </trkpt>
      <trkpt lat="46.74003" lon="-2.00064">
        <ele>5</ele>
        <time>2025-01-20T08:36:34.456Z</time>
      </trkpt>
      <trkpt lat="46.74004" lon="-2.00062">
        <ele>5</ele>
        <time>2025-01-20T08:36:35.456Z</time>
      </trkpt>
      <trkpt lat="46.74004" lon="-2.0006">
        <ele>5</ele>
        <time>2025-01-20T08:36:36.456Z</time>
      </trkpt>
      <trkpt lat="46.74005" lon="-2.00058">
        <ele>5</ele>
        <time>2025-01-20T08:36:37.456Z</time>
      </trkpt>
      <trkpt lat="46.74006" lon="-2.00057">
        <ele>5</ele>
        <time>2025-01-20T08:36:38.455Z</time>
      </trkpt>
      <trkpt lat="46.74007" lon="-2.00055">
        <ele>5</ele>
        <time>2025-01-20T08:36:39.455Z</time>
      </trkpt>
      <trkpt lat="46.74008" lon="-2.00053">
        <ele>5</ele>
        <time>2025-01-20T08:36:40.455Z</time>
      </trkpt>
      <trkpt lat="46.74008" lon="-2.00052">
        <ele>5</ele>
        <time>2025-01-20T08:36:41.455Z</time>
      </trkpt>
      <trkpt lat="46.74009" lon="-2.0005">
        <ele>5</ele>
        <time>2025-01-20T08:36:42.456Z</time>
      </trkpt>
      <trkpt lat="46.7401" lon="-2.00049">
        <ele>5</ele>
        <time>2025-01-20T08:36:43.456Z</time>
      </trkpt>
      <trkpt lat="46.74011" lon="-2.00047">
        <ele>5</ele>
        <time>2025-01-20T08:36:44.456Z</time>
      </trkpt>
      <trkpt lat="46.74012" lon="-2.00046">
        <ele>5</ele>
        <time>2025-01-20T08:36:45.456Z</time>
      </trkpt>
      <trkpt lat="46.74013" lon="-2.00044">
        <ele>5</ele>
        <time>2025-01-20T08:36:46.456Z</time>
      </trkpt>
      <trkpt lat="46.74014" lon="-2.00042">
        <ele>5</ele>
        <time>2025-01-20T08:36:47.455Z</time>
      </trkpt>
      <trkpt lat="46.74016" lon="-2.0004">
        <ele>5</ele>
        <time>2025-01-20T08:36:48.456Z</time>
      </trkpt>
      <trkpt lat="46.74016" lon="-2.00039">
        <ele>5</ele>
        <time>2025-01-20T08:36:49.455Z</time>
      </trkpt>
      <trkpt lat="46.74017" lon="-2.00038">
        <ele>5</ele>
        <time>2025-01-20T08:36:50.455Z</time>
      </trkpt>
      <trkpt lat="46.74018" lon="-2.00037">
        <ele>5</ele>
        <time>2025-01-20T08:36:51.456Z</time>
      </trkpt>
      <trkpt lat="46.74019" lon="-2.00035">
        <ele>5</ele>
        <time>2025-01-20T08:36:52.456Z</time>
      </trkpt>
      <trkpt lat="46.74019" lon="-2.00034">
        <ele>5</ele>
        <time>2025-01-20T08:36:53.456Z</time>
      </trkpt>
      <trkpt lat="46.7402" lon="-2.00033">
        <ele>5</ele>
        <time>2025-01-20T08:36:54.456Z</time>
      </trkpt>
      <trkpt lat="46.74021" lon="-2.00031">
        <ele>5</ele>
        <time>2025-01-20T08:36:55.455Z</time>
      </trkpt>
      <trkpt lat="46.74023" lon="-2.00029">
        <ele>5</ele>
        <time>2025-01-20T08:36:56.455Z</time>
      </trkpt>
      <trkpt lat="46.74023" lon="-2.00028">
        <ele>5</ele>
        <time>2025-01-20T08:36:57.455Z</time>
      </trkpt>
      <trkpt lat="46.74024" lon="-2.00026">
        <ele>4.9</ele>
        <time>2025-01-20T08:36:58.455Z</time>
      </trkpt>
      <trkpt lat="46.74025" lon="-2.00024">
        <ele>4.9</ele>
        <time>2025-01-20T08:36:59.456Z</time>
      </trkpt>
      <trkpt lat="46.74026" lon="-2.00023">
        <ele>4.8</ele>
        <time>2025-01-20T08:37:00.456Z</time>
      </trkpt>
      <trkpt lat="46.74027" lon="-2.00021">
        <ele>4.8</ele>
        <time>2025-01-20T08:37:01.455Z</time>
      </trkpt>
      <trkpt lat="46.74027" lon="-2.0002">
        <ele>4.7</ele>
        <time>2025-01-20T08:37:02.456Z</time>
      </trkpt>
      <trkpt lat="46.74028" lon="-2.00018">
        <ele>4.6</ele>
        <time>2025-01-20T08:37:03.455Z</time>
      </trkpt>
      <trkpt lat="46.74028" lon="-2.00016">
        <ele>4.6</ele>
        <time>2025-01-20T08:37:04.456Z</time>
      </trkpt>
      <trkpt lat="46.74029" lon="-2.00015">
        <ele>4.5</ele>
        <time>2025-01-20T08:37:05.456Z</time>
      </trkpt>
      <trkpt lat="46.7403" lon="-2.00013">
        <ele>4.4</ele>
        <time>2025-01-20T08:37:06.456Z</time>
      </trkpt>
      <trkpt lat="46.74031" lon="-2.00012">
        <ele>4.4</ele>
        <time>2025-01-20T08:37:07.456Z</time>
      </trkpt>
      <trkpt lat="46.74032" lon="-2.0001">
        <ele>4.3</ele>
        <time>2025-01-20T08:37:08.455Z</time>
      </trkpt>
      <trkpt lat="46.74032" lon="-2.00009">
        <ele>4.3</ele>
        <time>2025-01-20T08:37:09.455Z</time>
      </trkpt>
      <trkpt lat="46.74032" lon="-2.00008">
        <ele>4.2</ele>
        <time>2025-01-20T08:37:10.455Z</time>
      </trkpt>
      <trkpt lat="46.74033" lon="-2.00006">
        <ele>4.2</ele>
        <time>2025-01-20T08:37:11.455Z</time>
      </trkpt>
      <trkpt lat="46.74033" lon="-2.00005">
        <ele>4.1</ele>
        <time>2025-01-20T08:37:12.456Z</time>
      </trkpt>
      <trkpt lat="46.74033" lon="-2.00004">
        <ele>4.1</ele>
        <time>2025-01-20T08:37:13.456Z</time>
      </trkpt>
      <trkpt lat="46.74034" lon="-2.00002">
        <ele>4.1</ele>
        <time>2025-01-20T08:37:14.455Z</time>
      </trkpt>
      <trkpt lat="46.74035" lon="-2.00001">
        <ele>4</ele>
        <time>2025-01-20T08:37:15.455Z</time>
      </trkpt>
      <trkpt lat="46.74035" lon="-1.99999">
        <ele>4</ele>
        <time>2025-01-20T08:37:16.456Z</time>
      </trkpt>
      <trkpt lat="46.74036" lon="-1.99997">
        <ele>4</ele>
        <time>2025-01-20T08:37:17.455Z</time>
      </trkpt>
      <trkpt lat="46.74037" lon="-1.99995">
        <ele>4</ele>
        <time>2025-01-20T08:37:18.455Z</time>
      </trkpt>
      <trkpt lat="46.74038" lon="-1.99993">
        <ele>4</ele>
        <time>2025-01-20T08:37:19.455Z</time>
      </trkpt>
      <trkpt lat="46.74039" lon="-1.99991">
        <ele>4</ele>
        <time>2025-01-20T08:37:20.456Z</time>
      </trkpt>
      <trkpt lat="46.7404" lon="-1.99989">
        <ele>4</ele>
        <time>2025-01-20T08:37:21.456Z</time>
      </trkpt>
      <trkpt lat="46.74041" lon="-1.99987">
        <ele>4</ele>
        <time>2025-01-20T08:37:22.456Z</time>
      </trkpt>
      <trkpt lat="46.74042" lon="-1.99985">
        <ele>4</ele>
        <time>2025-01-20T08:37:23.456Z</time>
      </trkpt>
      <trkpt lat="46.74043" lon="-1.99983">
        <ele>4</ele>
        <time>2025-01-20T08:37:24.456Z</time>
      </trkpt>
      <trkpt lat="46.74044" lon="-1.99981">
        <ele>4</ele>
        <time>2025-01-20T08:37:25.455Z</time>
      </trkpt>
      <trkpt lat="46.74045" lon="-1.99979">
        <ele>4</ele>
        <time>2025-01-20T08:37:26.455Z</time>
      </trkpt>
      <trkpt lat="46.74046" lon="-1.99977">
        <ele>4</ele>
        <time>2025-01-20T08:37:27.455Z</time>
      </trkpt>
      <trkpt lat="46.74046" lon="-1.99976">
        <ele>4</ele>
        <time>2025-01-20T08:37:28.455Z</time>
      </trkpt>
      <trkpt lat="46.74047" lon="-1.99974">
        <ele>4</ele>
        <time>2025-01-20T08:37:29.456Z</time>
      </trkpt>
      <trkpt lat="46.74048" lon="-1.99972">
        <ele>4</ele>
        <time>2025-01-20T08:37:30.455Z</time>
      </trkpt>
      <trkpt lat="46.74049" lon="-1.9997">
        <ele>4</ele>
        <time>2025-01-20T08:37:31.455Z</time>
      </trkpt>
      <trkpt lat="46.7405" lon="-1.99969">
        <ele>4</ele>
        <time>2025-01-20T08:37:32.455Z</time>
      </trkpt>
      <trkpt lat="46.7405" lon="-1.99967">
        <ele>4</ele>
        <time>2025-01-20T08:37:33.455Z</time>
      </trkpt>
      <trkpt lat="46.74051" lon="-1.99965">
        <ele>4</ele>
        <time>2025-01-20T08:37:34.456Z</time>
      </trkpt>
      <trkpt lat="46.74051" lon="-1.99963">
        <ele>4</ele>
        <time>2025-01-20T08:37:35.455Z</time>
      </trkpt>
      <trkpt lat="46.74052" lon="-1.99962">
        <ele>4</ele>
        <time>2025-01-20T08:37:36.455Z</time>
      </trkpt>
      <trkpt lat="46.74054" lon="-1.99961">
        <ele>4</ele>
        <time>2025-01-20T08:37:37.456Z</time>
      </trkpt>
      <trkpt lat="46.74056" lon="-1.99959">
        <ele>4</ele>
        <time>2025-01-20T08:37:38.455Z</time>
      </trkpt>
      <trkpt lat="46.74057" lon="-1.99957">
        <ele>4</ele>
        <time>2025-01-20T08:37:39.455Z</time>
      </trkpt>
      <trkpt lat="46.74058" lon="-1.99955">
        <ele>4</ele>
        <time>2025-01-20T08:37:40.455Z</time>
      </trkpt>
      <trkpt lat="46.74058" lon="-1.99953">
        <ele>4</ele>
        <time>2025-01-20T08:37:41.456Z</time>
      </trkpt>
      <trkpt lat="46.74059" lon="-1.99951">
        <ele>4</ele>
        <time>2025-01-20T08:37:42.456Z</time>
      </trkpt>
      <trkpt lat="46.74059" lon="-1.99949">
        <ele>4</ele>
        <time>2025-01-20T08:37:43.455Z</time>
      </trkpt>
      <trkpt lat="46.74059" lon="-1.99948">
        <ele>4</ele>
        <time>2025-01-20T08:37:44.456Z</time>
      </trkpt>
      <trkpt lat="46.7406" lon="-1.99946">
        <ele>4</ele>
        <time>2025-01-20T08:37:45.456Z</time>
      </trkpt>
      <trkpt lat="46.7406" lon="-1.99945">
        <ele>4</ele>
        <time>2025-01-20T08:37:46.456Z</time>
      </trkpt>
      <trkpt lat="46.74061" lon="-1.99944">
        <ele>4</ele>
        <time>2025-01-20T08:37:47.455Z</time>
      </trkpt>
      <trkpt lat="46.74061" lon="-1.99943">
        <ele>4</ele>
        <time>2025-01-20T08:37:48.455Z</time>
      </trkpt>
      <trkpt lat="46.74062" lon="-1.99941">
        <ele>4</ele>
        <time>2025-01-20T08:37:49.455Z</time>
      </trkpt>
      <trkpt lat="46.74063" lon="-1.9994">
        <ele>4</ele>
        <time>2025-01-20T08:37:50.455Z</time>
      </trkpt>
      <trkpt lat="46.74063" lon="-1.99938">
        <ele>4</ele>
        <time>2025-01-20T08:37:51.456Z</time>
      </trkpt>
      <trkpt lat="46.74064" lon="-1.99936">
        <ele>4</ele>
        <time>2025-01-20T08:37:52.456Z</time>
      </trkpt>
      <trkpt lat="46.74064" lon="-1.99935">
        <ele>4</ele>
        <time>2025-01-20T08:37:53.456Z</time>
      </trkpt>
      <trkpt lat="46.74065" lon="-1.99934">
        <ele>4</ele>
        <time>2025-01-20T08:37:54.456Z</time>
      </trkpt>
      <trkpt lat="46.74066" lon="-1.99932">
        <ele>4</ele>
        <time>2025-01-20T08:37:55.455Z</time>
      </trkpt>
      <trkpt lat="46.74067" lon="-1.99931">
        <ele>4</ele>
        <time>2025-01-20T08:37:56.455Z</time>
      </trkpt>
      <trkpt lat="46.74067" lon="-1.99929">
        <ele>4</ele>
        <time>2025-01-20T08:37:57.455Z</time>
      </trkpt>
      <trkpt lat="46.74068" lon="-1.99927">
        <ele>4</ele>
        <time>2025-01-20T08:37:58.455Z</time>
      </trkpt>
      <trkpt lat="46.74069" lon="-1.99926">
        <ele>4</ele>
        <time>2025-01-20T08:37:59.456Z</time>
      </trkpt>
      <trkpt lat="46.7407" lon="-1.99924">
        <ele>4</ele>
        <time>2025-01-20T08:38:00.456Z</time>
      </trkpt>
      <trkpt lat="46.74071" lon="-1.99923">
        <ele>4</ele>
        <time>2025-01-20T08:38:01.456Z</time>
      </trkpt>
      <trkpt lat="46.74072" lon="-1.99922">
        <ele>4</ele>
        <time>2025-01-20T08:38:02.456Z</time>
      </trkpt>
      <trkpt lat="46.74073" lon="-1.9992">
        <ele>4</ele>
        <time>2025-01-20T08:38:03.456Z</time>
      </trkpt>
      <trkpt lat="46.74073" lon="-1.99918">
        <ele>4</ele>
        <time>2025-01-20T08:38:04.456Z</time>
      </trkpt>
      <trkpt lat="46.74073" lon="-1.99917">
        <ele>4</ele>
        <time>2025-01-20T08:38:05.455Z</time>
      </trkpt>
      <trkpt lat="46.74073" lon="-1.99915">
        <ele>4</ele>
        <time>2025-01-20T08:38:06.455Z</time>
      </trkpt>
      <trkpt lat="46.74073" lon="-1.99913">
        <ele>4.1</ele>
        <time>2025-01-20T08:38:07.456Z</time>
      </trkpt>
      <trkpt lat="46.74073" lon="-1.99911">
        <ele>4.1</ele>
        <time>2025-01-20T08:38:08.455Z</time>
      </trkpt>
      <trkpt lat="46.74072" lon="-1.9991">
        <ele>4.1</ele>
        <time>2025-01-20T08:38:09.455Z</time>
      </trkpt>
      <trkpt lat="46.74072" lon="-1.99908">
        <ele>4.2</ele>
        <time>2025-01-20T08:38:10.455Z</time>
      </trkpt>
      <trkpt lat="46.74072" lon="-1.99906">
        <ele>4.2</ele>
        <time>2025-01-20T08:38:11.456Z</time>
      </trkpt>
      <trkpt lat="46.74071" lon="-1.99905">
        <ele>4.2</ele>
        <time>2025-01-20T08:38:12.456Z</time>
      </trkpt>
      <trkpt lat="46.74071" lon="-1.99905">
        <ele>4.2</ele>
        <time>2025-01-20T08:38:13.456Z</time>
      </trkpt>
      <trkpt lat="46.7407" lon="-1.99903">
        <ele>4.3</ele>
        <time>2025-01-20T08:38:14.456Z</time>
      </trkpt>
      <trkpt lat="46.7407" lon="-1.99902">
        <ele>4.3</ele>
        <time>2025-01-20T08:38:15.455Z</time>
      </trkpt>
      <trkpt lat="46.7407" lon="-1.999">
        <ele>4.3</ele>
        <time>2025-01-20T08:38:16.456Z</time>
      </trkpt>
      <trkpt lat="46.7407" lon="-1.99897">
        <ele>4.4</ele>
        <time>2025-01-20T08:38:17.455Z</time>
      </trkpt>
      <trkpt lat="46.7407" lon="-1.99896">
        <ele>4.4</ele>
        <time>2025-01-20T08:38:18.455Z</time>
      </trkpt>
      <trkpt lat="46.74071" lon="-1.99894">
        <ele>4.5</ele>
        <time>2025-01-20T08:38:19.456Z</time>
      </trkpt>
      <trkpt lat="46.74071" lon="-1.99892">
        <ele>4.5</ele>
        <time>2025-01-20T08:38:20.456Z</time>
      </trkpt>
      <trkpt lat="46.74072" lon="-1.9989">
        <ele>4.6</ele>
        <time>2025-01-20T08:38:21.455Z</time>
      </trkpt>
      <trkpt lat="46.74073" lon="-1.99888">
        <ele>4.6</ele>
        <time>2025-01-20T08:38:22.455Z</time>
      </trkpt>
      <trkpt lat="46.74073" lon="-1.99886">
        <ele>4.7</ele>
        <time>2025-01-20T08:38:23.455Z</time>
      </trkpt>
      <trkpt lat="46.74074" lon="-1.99885">
        <ele>4.8</ele>
        <time>2025-01-20T08:38:24.456Z</time>
      </trkpt>
      <trkpt lat="46.74074" lon="-1.99883">
        <ele>4.8</ele>
        <time>2025-01-20T08:38:25.456Z</time>
      </trkpt>
      <trkpt lat="46.74075" lon="-1.99881">
        <ele>4.9</ele>
        <time>2025-01-20T08:38:26.456Z</time>
      </trkpt>
      <trkpt lat="46.74075" lon="-1.99879">
        <ele>4.9</ele>
        <time>2025-01-20T08:38:27.456Z</time>
      </trkpt>
      <trkpt lat="46.74075" lon="-1.99877">
        <ele>5</ele>
        <time>2025-01-20T08:38:28.456Z</time>
      </trkpt>
      <trkpt lat="46.74076" lon="-1.99875">
        <ele>5.1</ele>
        <time>2025-01-20T08:38:29.455Z</time>
      </trkpt>
      <trkpt lat="46.74077" lon="-1.99873">
        <ele>5.2</ele>
        <time>2025-01-20T08:38:30.455Z</time>
      </trkpt>
      <trkpt lat="46.74078" lon="-1.99872">
        <ele>5.3</ele>
        <time>2025-01-20T08:38:31.455Z</time>
      </trkpt>
      <trkpt lat="46.74079" lon="-1.9987">
        <ele>5.4</ele>
        <time>2025-01-20T08:38:32.456Z</time>
      </trkpt>
      <trkpt lat="46.74078" lon="-1.99868">
        <ele>5.4</ele>
        <time>2025-01-20T08:38:33.456Z</time>
      </trkpt>
      <trkpt lat="46.74078" lon="-1.99866">
        <ele>5.5</ele>
        <time>2025-01-20T08:38:34.455Z</time>
      </trkpt>
      <trkpt lat="46.74078" lon="-1.99864">
        <ele>5.5</ele>
        <time>2025-01-20T08:38:35.456Z</time>
      </trkpt>
      <trkpt lat="46.74078" lon="-1.99863">
        <ele>5.6</ele>
        <time>2025-01-20T08:38:36.456Z</time>
      </trkpt>
      <trkpt lat="46.74078" lon="-1.99861">
        <ele>5.6</ele>
        <time>2025-01-20T08:38:37.455Z</time>
      </trkpt>
      <trkpt lat="46.74078" lon="-1.99859">
        <ele>5.6</ele>
        <time>2025-01-20T08:38:38.455Z</time>
      </trkpt>
      <trkpt lat="46.74079" lon="-1.99857">
        <ele>5.6</ele>
        <time>2025-01-20T08:38:39.455Z</time>
      </trkpt>
      <trkpt lat="46.74079" lon="-1.99855">
        <ele>5.5</ele>
        <time>2025-01-20T08:38:40.455Z</time>
      </trkpt>
      <trkpt lat="46.7408" lon="-1.99854">
        <ele>5.6</ele>
        <time>2025-01-20T08:38:41.456Z</time>
      </trkpt>
      <trkpt lat="46.7408" lon="-1.99852">
        <ele>5.5</ele>
        <time>2025-01-20T08:38:42.456Z</time>
      </trkpt>
      <trkpt lat="46.74081" lon="-1.9985">
        <ele>5.5</ele>
        <time>2025-01-20T08:38:43.456Z</time>
      </trkpt>
      <trkpt lat="46.74082" lon="-1.99848">
        <ele>5.5</ele>
        <time>2025-01-20T08:38:44.456Z</time>
      </trkpt>
      <trkpt lat="46.74083" lon="-1.99846">
        <ele>5.4</ele>
        <time>2025-01-20T08:38:45.455Z</time>
      </trkpt>
      <trkpt lat="46.74083" lon="-1.99844">
        <ele>5.4</ele>
        <time>2025-01-20T08:38:46.455Z</time>
      </trkpt>
      <trkpt lat="46.74084" lon="-1.99843">
        <ele>5.4</ele>
        <time>2025-01-20T08:38:47.455Z</time>
      </trkpt>
      <trkpt lat="46.74085" lon="-1.99841">
        <ele>5.3</ele>
        <time>2025-01-20T08:38:48.455Z</time>
      </trkpt>
      <trkpt lat="46.74085" lon="-1.99839">
        <ele>5.3</ele>
        <time>2025-01-20T08:38:49.456Z</time>
      </trkpt>
      <trkpt lat="46.74085" lon="-1.99837">
        <ele>5.2</ele>
        <time>2025-01-20T08:38:50.456Z</time>
      </trkpt>
      <trkpt lat="46.74085" lon="-1.99835">
        <ele>5.1</ele>
        <time>2025-01-20T08:38:51.456Z</time>
      </trkpt>
      <trkpt lat="46.74085" lon="-1.99834">
        <ele>5.1</ele>
        <time>2025-01-20T08:38:52.455Z</time>
      </trkpt>
      <trkpt lat="46.74085" lon="-1.99832">
        <ele>5.1</ele>
        <time>2025-01-20T08:38:53.456Z</time>
      </trkpt>
      <trkpt lat="46.74085" lon="-1.9983">
        <ele>5.2</ele>
        <time>2025-01-20T08:38:54.455Z</time>
      </trkpt>
      <trkpt lat="46.74086" lon="-1.99828">
        <ele>5.3</ele>
        <time>2025-01-20T08:38:55.455Z</time>
      </trkpt>
      <trkpt lat="46.74086" lon="-1.99826">
        <ele>5.3</ele>
        <time>2025-01-20T08:38:56.455Z</time>
      </trkpt>
      <trkpt lat="46.74087" lon="-1.99825">
        <ele>5.4</ele>
        <time>2025-01-20T08:38:57.456Z</time>
      </trkpt>
      <trkpt lat="46.74087" lon="-1.99824">
        <ele>5.4</ele>
        <time>2025-01-20T08:38:58.455Z</time>
      </trkpt>
      <trkpt lat="46.74087" lon="-1.99822">
        <ele>5.5</ele>
        <time>2025-01-20T08:38:59.455Z</time>
      </trkpt>
      <trkpt lat="46.74087" lon="-1.99821">
        <ele>5.5</ele>
        <time>2025-01-20T08:39:00.455Z</time>
      </trkpt>
      <trkpt lat="46.74088" lon="-1.9982">
        <ele>5.6</ele>
        <time>2025-01-20T08:39:01.455Z</time>
      </trkpt>
      <trkpt lat="46.74087" lon="-1.99818">
        <ele>5.6</ele>
        <time>2025-01-20T08:39:02.455Z</time>
      </trkpt>
      <trkpt lat="46.74086" lon="-1.99817">
        <ele>5.6</ele>
        <time>2025-01-20T08:39:03.456Z</time>
      </trkpt>
      <trkpt lat="46.74086" lon="-1.99815">
        <ele>5.7</ele>
        <time>2025-01-20T08:39:04.456Z</time>
      </trkpt>
      <trkpt lat="46.74085" lon="-1.99814">
        <ele>5.7</ele>
        <time>2025-01-20T08:39:05.456Z</time>
      </trkpt>
      <trkpt lat="46.74085" lon="-1.99812">
        <ele>5.8</ele>
        <time>2025-01-20T08:39:06.456Z</time>
      </trkpt>
      <trkpt lat="46.74085" lon="-1.99809">
        <ele>5.9</ele>
        <time>2025-01-20T08:39:07.455Z</time>
      </trkpt>
      <trkpt lat="46.74084" lon="-1.99807">
        <ele>5.9</ele>
        <time>2025-01-20T08:39:08.455Z</time>
      </trkpt>
      <trkpt lat="46.74085" lon="-1.99805">
        <ele>6</ele>
        <time>2025-01-20T08:39:09.455Z</time>
      </trkpt>
      <trkpt lat="46.74084" lon="-1.99803">
        <ele>6.1</ele>
        <time>2025-01-20T08:39:10.456Z</time>
      </trkpt>
      <trkpt lat="46.74084" lon="-1.99801">
        <ele>6.2</ele>
        <time>2025-01-20T08:39:11.455Z</time>
      </trkpt>
      <trkpt lat="46.74084" lon="-1.99799">
        <ele>6.2</ele>
        <time>2025-01-20T08:39:12.456Z</time>
      </trkpt>
      <trkpt lat="46.74083" lon="-1.99797">
        <ele>6.3</ele>
        <time>2025-01-20T08:39:13.456Z</time>
      </trkpt>
      <trkpt lat="46.74083" lon="-1.99796">
        <ele>6.3</ele>
        <time>2025-01-20T08:39:14.456Z</time>
      </trkpt>
      <trkpt lat="46.74082" lon="-1.99793">
        <ele>6.5</ele>
        <time>2025-01-20T08:39:15.455Z</time>
      </trkpt>
      <trkpt lat="46.74083" lon="-1.99792">
        <ele>6.5</ele>
        <time>2025-01-20T08:39:16.455Z</time>
      </trkpt>
      <trkpt lat="46.74083" lon="-1.9979">
        <ele>6.6</ele>
        <time>2025-01-20T08:39:17.455Z</time>
      </trkpt>
      <trkpt lat="46.74083" lon="-1.99788">
        <ele>6.6</ele>
        <time>2025-01-20T08:39:18.455Z</time>
      </trkpt>
      <trkpt lat="46.74084" lon="-1.99787">
        <ele>6.6</ele>
        <time>2025-01-20T08:39:19.456Z</time>
      </trkpt>
      <trkpt lat="46.74084" lon="-1.99785">
        <ele>6.7</ele>
        <time>2025-01-20T08:39:20.455Z</time>
      </trkpt>
      <trkpt lat="46.74084" lon="-1.99783">
        <ele>6.8</ele>
        <time>2025-01-20T08:39:21.455Z</time>
      </trkpt>
      <trkpt lat="46.74085" lon="-1.99781">
        <ele>6.8</ele>
        <time>2025-01-20T08:39:22.455Z</time>
      </trkpt>
      <trkpt lat="46.74084" lon="-1.99779">
        <ele>6.9</ele>
        <time>2025-01-20T08:39:23.456Z</time>
      </trkpt>
      <trkpt lat="46.74084" lon="-1.99777">
        <ele>7</ele>
        <time>2025-01-20T08:39:24.455Z</time>
      </trkpt>
      <trkpt lat="46.74085" lon="-1.99775">
        <ele>6.9</ele>
        <time>2025-01-20T08:39:25.455Z</time>
      </trkpt>
      <trkpt lat="46.74085" lon="-1.99773">
        <ele>6.9</ele>
        <time>2025-01-20T08:39:26.455Z</time>
      </trkpt>
      <trkpt lat="46.74085" lon="-1.99771">
        <ele>6.9</ele>
        <time>2025-01-20T08:39:27.455Z</time>
      </trkpt>
      <trkpt lat="46.74085" lon="-1.99769">
        <ele>6.9</ele>
        <time>2025-01-20T08:39:28.456Z</time>
      </trkpt>
      <trkpt lat="46.74084" lon="-1.99767">
        <ele>7</ele>
        <time>2025-01-20T08:39:29.456Z</time>
      </trkpt>
      <trkpt lat="46.74084" lon="-1.99765">
        <ele>7</ele>
        <time>2025-01-20T08:39:30.455Z</time>
      </trkpt>
      <trkpt lat="46.74084" lon="-1.99763">
        <ele>7</ele>
        <time>2025-01-20T08:39:31.456Z</time>
      </trkpt>
      <trkpt lat="46.74084" lon="-1.99761">
        <ele>7</ele>
        <time>2025-01-20T08:39:32.455Z</time>
      </trkpt>
      <trkpt lat="46.74084" lon="-1.9976">
        <ele>7</ele>
        <time>2025-01-20T08:39:33.455Z</time>
      </trkpt>
      <trkpt lat="46.74085" lon="-1.99758">
        <ele>6.9</ele>
        <time>2025-01-20T08:39:34.455Z</time>
      </trkpt>
      <trkpt lat="46.74085" lon="-1.99757">
        <ele>6.9</ele>
        <time>2025-01-20T08:39:35.455Z</time>
      </trkpt>
      <trkpt lat="46.74085" lon="-1.99755">
        <ele>6.9</ele>
        <time>2025-01-20T08:39:36.456Z</time>
      </trkpt>
      <trkpt lat="46.74085" lon="-1.99754">
        <ele>6.9</ele>
        <time>2025-01-20T08:39:37.455Z</time>
      </trkpt>
      <trkpt lat="46.74085" lon="-1.99752">
        <ele>6.9</ele>
        <time>2025-01-20T08:39:38.456Z</time>
      </trkpt>
      <trkpt lat="46.74086" lon="-1.9975">
        <ele>6.8</ele>
        <time>2025-01-20T08:39:39.456Z</time>
      </trkpt>
      <trkpt lat="46.74086" lon="-1.99748">
        <ele>6.7</ele>
        <time>2025-01-20T08:39:40.456Z</time>
      </trkpt>
      <trkpt lat="46.74086" lon="-1.99747">
        <ele>6.7</ele>
        <time>2025-01-20T08:39:41.455Z</time>
      </trkpt>
      <trkpt lat="46.74086" lon="-1.99745">
        <ele>6.6</ele>
        <time>2025-01-20T08:39:42.455Z</time>
      </trkpt>
      <trkpt lat="46.74086" lon="-1.99744">
        <ele>6.6</ele>
        <time>2025-01-20T08:39:43.456Z</time>
      </trkpt>
      <trkpt lat="46.74086" lon="-1.99742">
        <ele>6.5</ele>
        <time>2025-01-20T08:39:44.455Z</time>
      </trkpt>
      <trkpt lat="46.74087" lon="-1.9974">
        <ele>6.4</ele>
        <time>2025-01-20T08:39:45.456Z</time>
      </trkpt>
      <trkpt lat="46.74086" lon="-1.99738">
        <ele>6.4</ele>
        <time>2025-01-20T08:39:46.456Z</time>
      </trkpt>
      <trkpt lat="46.74086" lon="-1.99736">
        <ele>6.4</ele>
        <time>2025-01-20T08:39:47.456Z</time>
      </trkpt>
      <trkpt lat="46.74085" lon="-1.99734">
        <ele>6.3</ele>
        <time>2025-01-20T08:39:48.456Z</time>
      </trkpt>
      <trkpt lat="46.74085" lon="-1.99733">
        <ele>6.3</ele>
        <time>2025-01-20T08:39:49.455Z</time>
      </trkpt>
      <trkpt lat="46.74084" lon="-1.99732">
        <ele>6.3</ele>
        <time>2025-01-20T08:39:50.456Z</time>
      </trkpt>
      <trkpt lat="46.74083" lon="-1.99731">
        <ele>6.3</ele>
        <time>2025-01-20T08:39:51.455Z</time>
      </trkpt>
      <trkpt lat="46.74081" lon="-1.9973">
        <ele>6.3</ele>
        <time>2025-01-20T08:39:52.455Z</time>
      </trkpt>
      <trkpt lat="46.7408" lon="-1.99729">
        <ele>6.3</ele>
        <time>2025-01-20T08:39:53.456Z</time>
      </trkpt>
      <trkpt lat="46.74078" lon="-1.99728">
        <ele>6.2</ele>
        <time>2025-01-20T08:39:54.456Z</time>
      </trkpt>
      <trkpt lat="46.74077" lon="-1.99728">
        <ele>6.3</ele>
        <time>2025-01-20T08:39:55.456Z</time>
      </trkpt>
      <trkpt lat="46.74075" lon="-1.99727">
        <ele>6.2</ele>
        <time>2025-01-20T08:39:56.456Z</time>
      </trkpt>
      <trkpt lat="46.74074" lon="-1.99727">
        <ele>6.2</ele>
        <time>2025-01-20T08:39:57.456Z</time>
      </trkpt>
      <trkpt lat="46.74072" lon="-1.99728">
        <ele>6.3</ele>
        <time>2025-01-20T08:39:58.455Z</time>
      </trkpt>
      <trkpt lat="46.74071" lon="-1.99728">
        <ele>6.3</ele>
        <time>2025-01-20T08:39:59.455Z</time>
      </trkpt>
      <trkpt lat="46.74069" lon="-1.99727">
        <ele>6.3</ele>
        <time>2025-01-20T08:40:00.455Z</time>
      </trkpt>
      <trkpt lat="46.74066" lon="-1.99727">
        <ele>6.3</ele>
        <time>2025-01-20T08:40:01.455Z</time>
      </trkpt>
      <trkpt lat="46.74065" lon="-1.99726">
        <ele>6.2</ele>
        <time>2025-01-20T08:40:02.456Z</time>
      </trkpt>
      <trkpt lat="46.74063" lon="-1.99726">
        <ele>6.2</ele>
        <time>2025-01-20T08:40:03.456Z</time>
      </trkpt>
      <trkpt lat="46.74062" lon="-1.99726">
        <ele>6.2</ele>
        <time>2025-01-20T08:40:04.456Z</time>
      </trkpt>
      <trkpt lat="46.74061" lon="-1.99725">
        <ele>6.2</ele>
        <time>2025-01-20T08:40:05.456Z</time>
      </trkpt>
      <trkpt lat="46.7406" lon="-1.99725">
        <ele>6.2</ele>
        <time>2025-01-20T08:40:06.455Z</time>
      </trkpt>
      <trkpt lat="46.74058" lon="-1.99725">
        <ele>6.2</ele>
        <time>2025-01-20T08:40:07.455Z</time>
      </trkpt>
      <trkpt lat="46.74056" lon="-1.99725">
        <ele>6.2</ele>
        <time>2025-01-20T08:40:08.456Z</time>
      </trkpt>
      <trkpt lat="46.74055" lon="-1.99725">
        <ele>6.2</ele>
        <time>2025-01-20T08:40:09.456Z</time>
      </trkpt>
      <trkpt lat="46.74054" lon="-1.99725">
        <ele>6.2</ele>
        <time>2025-01-20T08:40:10.456Z</time>
      </trkpt>
      <trkpt lat="46.74053" lon="-1.99726">
        <ele>6.3</ele>
        <time>2025-01-20T08:40:11.455Z</time>
      </trkpt>
      <trkpt lat="46.74052" lon="-1.99726">
        <ele>6.4</ele>
        <time>2025-01-20T08:40:12.455Z</time>
      </trkpt>
      <trkpt lat="46.74051" lon="-1.99726">
        <ele>6.4</ele>
        <time>2025-01-20T08:40:13.455Z</time>
      </trkpt>
      <trkpt lat="46.74049" lon="-1.99726">
        <ele>6.4</ele>
        <time>2025-01-20T08:40:14.455Z</time>
      </trkpt>
      <trkpt lat="46.74048" lon="-1.99726">
        <ele>6.5</ele>
        <time>2025-01-20T08:40:15.456Z</time>
      </trkpt>
      <trkpt lat="46.74047" lon="-1.99726">
        <ele>6.5</ele>
        <time>2025-01-20T08:40:16.456Z</time>
      </trkpt>
      <trkpt lat="46.74045" lon="-1.99726">
        <ele>6.5</ele>
        <time>2025-01-20T08:40:17.455Z</time>
      </trkpt>
      <trkpt lat="46.74043" lon="-1.99726">
        <ele>6.6</ele>
        <time>2025-01-20T08:40:18.456Z</time>
      </trkpt>
      <trkpt lat="46.74041" lon="-1.99726">
        <ele>6.7</ele>
        <time>2025-01-20T08:40:19.456Z</time>
      </trkpt>
      <trkpt lat="46.7404" lon="-1.99726">
        <ele>6.7</ele>
        <time>2025-01-20T08:40:20.455Z</time>
      </trkpt>
      <trkpt lat="46.74038" lon="-1.99726">
        <ele>6.7</ele>
        <time>2025-01-20T08:40:21.455Z</time>
      </trkpt>
      <trkpt lat="46.74037" lon="-1.99726">
        <ele>6.8</ele>
        <time>2025-01-20T08:40:22.455Z</time>
      </trkpt>
      <trkpt lat="46.74036" lon="-1.99726">
        <ele>6.8</ele>
        <time>2025-01-20T08:40:23.456Z</time>
      </trkpt>
      <trkpt lat="46.74035" lon="-1.99726">
        <ele>6.8</ele>
        <time>2025-01-20T08:40:24.456Z</time>
      </trkpt>
      <trkpt lat="46.74034" lon="-1.99726">
        <ele>6.8</ele>
        <time>2025-01-20T08:40:25.456Z</time>
      </trkpt>
      <trkpt lat="46.74033" lon="-1.99726">
        <ele>6.9</ele>
        <time>2025-01-20T08:40:26.455Z</time>
      </trkpt>
      <trkpt lat="46.74032" lon="-1.99726">
        <ele>6.9</ele>
        <time>2025-01-20T08:40:27.456Z</time>
      </trkpt>
      <trkpt lat="46.7403" lon="-1.99726">
        <ele>6.9</ele>
        <time>2025-01-20T08:40:28.455Z</time>
      </trkpt>
      <trkpt lat="46.74029" lon="-1.99726">
        <ele>7</ele>
        <time>2025-01-20T08:40:29.455Z</time>
      </trkpt>
      <trkpt lat="46.74029" lon="-1.99726">
        <ele>7</ele>
        <time>2025-01-20T08:40:30.455Z</time>
      </trkpt>
      <trkpt lat="46.74028" lon="-1.99725">
        <ele>7</ele>
        <time>2025-01-20T08:40:31.456Z</time>
      </trkpt>
      <trkpt lat="46.74027" lon="-1.99725">
        <ele>7</ele>
        <time>2025-01-20T08:40:32.455Z</time>
      </trkpt>
      <trkpt lat="46.74026" lon="-1.99725">
        <ele>7</ele>
        <time>2025-01-20T08:40:33.455Z</time>
      </trkpt>
      <trkpt lat="46.74025" lon="-1.99724">
        <ele>7</ele>
        <time>2025-01-20T08:40:34.455Z</time>
      </trkpt>
      <trkpt lat="46.74024" lon="-1.99724">
        <ele>7</ele>
        <time>2025-01-20T08:40:35.455Z</time>
      </trkpt>
      <trkpt lat="46.74023" lon="-1.99723">
        <ele>7</ele>
        <time>2025-01-20T08:40:36.455Z</time>
      </trkpt>
      <trkpt lat="46.74022" lon="-1.99722">
        <ele>7</ele>
        <time>2025-01-20T08:40:37.455Z</time>
      </trkpt>
      <trkpt lat="46.7402" lon="-1.99721">
        <ele>7</ele>
        <time>2025-01-20T08:40:38.456Z</time>
      </trkpt>
      <trkpt lat="46.74019" lon="-1.9972">
        <ele>6.9</ele>
        <time>2025-01-20T08:40:39.456Z</time>
      </trkpt>
      <trkpt lat="46.74017" lon="-1.99719">
        <ele>6.9</ele>
        <time>2025-01-20T08:40:40.456Z</time>
      </trkpt>
      <trkpt lat="46.74016" lon="-1.99718">
        <ele>6.9</ele>
        <time>2025-01-20T08:40:41.455Z</time>
      </trkpt>
      <trkpt lat="46.74014" lon="-1.99718">
        <ele>6.8</ele>
        <time>2025-01-20T08:40:42.456Z</time>
      </trkpt>
      <trkpt lat="46.74013" lon="-1.99717">
        <ele>6.8</ele>
        <time>2025-01-20T08:40:43.456Z</time>
      </trkpt>
      <trkpt lat="46.74011" lon="-1.99716">
        <ele>6.7</ele>
        <time>2025-01-20T08:40:44.456Z</time>
      </trkpt>
      <trkpt lat="46.7401" lon="-1.99715">
        <ele>6.7</ele>
        <time>2025-01-20T08:40:45.455Z</time>
      </trkpt>
      <trkpt lat="46.74008" lon="-1.99714">
        <ele>6.6</ele>
        <time>2025-01-20T08:40:46.456Z</time>
      </trkpt>
      <trkpt lat="46.74007" lon="-1.99713">
        <ele>6.5</ele>
        <time>2025-01-20T08:40:47.455Z</time>
      </trkpt>
      <trkpt lat="46.74005" lon="-1.99712">
        <ele>6.4</ele>
        <time>2025-01-20T08:40:48.455Z</time>
      </trkpt>
      <trkpt lat="46.74003" lon="-1.99711">
        <ele>6.3</ele>
        <time>2025-01-20T08:40:49.456Z</time>
      </trkpt>
      <trkpt lat="46.74002" lon="-1.9971">
        <ele>6.2</ele>
        <time>2025-01-20T08:40:50.456Z</time>
      </trkpt>
      <trkpt lat="46.74" lon="-1.9971">
        <ele>6.1</ele>
        <time>2025-01-20T08:40:51.456Z</time>
      </trkpt>
      <trkpt lat="46.73999" lon="-1.9971">
        <ele>6.1</ele>
        <time>2025-01-20T08:40:52.456Z</time>
      </trkpt>
      <trkpt lat="46.73997" lon="-1.99709">
        <ele>6</ele>
        <time>2025-01-20T08:40:53.456Z</time>
      </trkpt>
      <trkpt lat="46.73996" lon="-1.99709">
        <ele>6</ele>
        <time>2025-01-20T08:40:54.456Z</time>
      </trkpt>
      <trkpt lat="46.73994" lon="-1.99708">
        <ele>6</ele>
        <time>2025-01-20T08:40:55.455Z</time>
      </trkpt>
      <trkpt lat="46.73993" lon="-1.99708">
        <ele>6</ele>
        <time>2025-01-20T08:40:56.455Z</time>
      </trkpt>
      <trkpt lat="46.73991" lon="-1.99707">
        <ele>5.9</ele>
        <time>2025-01-20T08:40:57.455Z</time>
      </trkpt>
      <trkpt lat="46.7399" lon="-1.99706">
        <ele>5.8</ele>
        <time>2025-01-20T08:40:58.455Z</time>
      </trkpt>
      <trkpt lat="46.73988" lon="-1.99706">
        <ele>5.8</ele>
        <time>2025-01-20T08:40:59.455Z</time>
      </trkpt>
      <trkpt lat="46.73987" lon="-1.99705">
        <ele>5.8</ele>
        <time>2025-01-20T08:41:00.455Z</time>
      </trkpt>
      <trkpt lat="46.73985" lon="-1.99704">
        <ele>5.7</ele>
        <time>2025-01-20T08:41:01.455Z</time>
      </trkpt>
      <trkpt lat="46.73984" lon="-1.99703">
        <ele>5.6</ele>
        <time>2025-01-20T08:41:02.455Z</time>
      </trkpt>
      <trkpt lat="46.73982" lon="-1.99702">
        <ele>5.5</ele>
        <time>2025-01-20T08:41:03.455Z</time>
      </trkpt>
      <trkpt lat="46.73981" lon="-1.997">
        <ele>5.4</ele>
        <time>2025-01-20T08:41:04.456Z</time>
      </trkpt>
      <trkpt lat="46.7398" lon="-1.99699">
        <ele>5.3</ele>
        <time>2025-01-20T08:41:05.455Z</time>
      </trkpt>
      <trkpt lat="46.73979" lon="-1.99699">
        <ele>5.3</ele>
        <time>2025-01-20T08:41:06.456Z</time>
      </trkpt>
      <trkpt lat="46.73978" lon="-1.99698">
        <ele>5.3</ele>
        <time>2025-01-20T08:41:07.455Z</time>
      </trkpt>
      <trkpt lat="46.73976" lon="-1.99698">
        <ele>5.3</ele>
        <time>2025-01-20T08:41:08.455Z</time>
      </trkpt>
      <trkpt lat="46.73975" lon="-1.99697">
        <ele>5.2</ele>
        <time>2025-01-20T08:41:09.455Z</time>
      </trkpt>
      <trkpt lat="46.73974" lon="-1.99696">
        <ele>5.1</ele>
        <time>2025-01-20T08:41:10.455Z</time>
      </trkpt>
      <trkpt lat="46.73972" lon="-1.99694">
        <ele>5</ele>
        <time>2025-01-20T08:41:11.456Z</time>
      </trkpt>
      <trkpt lat="46.73971" lon="-1.99693">
        <ele>5</ele>
        <time>2025-01-20T08:41:12.456Z</time>
      </trkpt>
      <trkpt lat="46.7397" lon="-1.99692">
        <ele>5</ele>
        <time>2025-01-20T08:41:13.456Z</time>
      </trkpt>
      <trkpt lat="46.73968" lon="-1.9969">
        <ele>5</ele>
        <time>2025-01-20T08:41:14.455Z</time>
      </trkpt>
      <trkpt lat="46.73967" lon="-1.99689">
        <ele>5</ele>
        <time>2025-01-20T08:41:15.456Z</time>
      </trkpt>
      <trkpt lat="46.73965" lon="-1.99688">
        <ele>5</ele>
        <time>2025-01-20T08:41:16.455Z</time>
      </trkpt>
      <trkpt lat="46.73964" lon="-1.99687">
        <ele>5</ele>
        <time>2025-01-20T08:41:17.455Z</time>
      </trkpt>
      <trkpt lat="46.73962" lon="-1.99686">
        <ele>5</ele>
        <time>2025-01-20T08:41:18.455Z</time>
      </trkpt>
      <trkpt lat="46.73961" lon="-1.99686">
        <ele>5</ele>
        <time>2025-01-20T08:41:19.455Z</time>
      </trkpt>
      <trkpt lat="46.73959" lon="-1.99685">
        <ele>5</ele>
        <time>2025-01-20T08:41:20.456Z</time>
      </trkpt>
      <trkpt lat="46.73958" lon="-1.99684">
        <ele>5</ele>
        <time>2025-01-20T08:41:21.456Z</time>
      </trkpt>
      <trkpt lat="46.73957" lon="-1.99683">
        <ele>5</ele>
        <time>2025-01-20T08:41:22.456Z</time>
      </trkpt>
      <trkpt lat="46.73956" lon="-1.99682">
        <ele>5</ele>
        <time>2025-01-20T08:41:23.455Z</time>
      </trkpt>
      <trkpt lat="46.73955" lon="-1.99681">
        <ele>5</ele>
        <time>2025-01-20T08:41:24.455Z</time>
      </trkpt>
      <trkpt lat="46.73954" lon="-1.9968">
        <ele>5</ele>
        <time>2025-01-20T08:41:25.455Z</time>
      </trkpt>
      <trkpt lat="46.73953" lon="-1.99679">
        <ele>5</ele>
        <time>2025-01-20T08:41:26.456Z</time>
      </trkpt>
      <trkpt lat="46.73951" lon="-1.99677">
        <ele>5</ele>
        <time>2025-01-20T08:41:27.455Z</time>
      </trkpt>
      <trkpt lat="46.7395" lon="-1.99676">
        <ele>5</ele>
        <time>2025-01-20T08:41:28.455Z</time>
      </trkpt>
      <trkpt lat="46.73948" lon="-1.99675">
        <ele>5</ele>
        <time>2025-01-20T08:41:29.456Z</time>
      </trkpt>
      <trkpt lat="46.73947" lon="-1.99674">
        <ele>5</ele>
        <time>2025-01-20T08:41:30.456Z</time>
      </trkpt>
      <trkpt lat="46.73945" lon="-1.99673">
        <ele>5</ele>
        <time>2025-01-20T08:41:31.456Z</time>
      </trkpt>
      <trkpt lat="46.73944" lon="-1.99673">
        <ele>5</ele>
        <time>2025-01-20T08:41:32.456Z</time>
      </trkpt>
      <trkpt lat="46.73942" lon="-1.99672">
        <ele>5</ele>
        <time>2025-01-20T08:41:33.456Z</time>
      </trkpt>
      <trkpt lat="46.73941" lon="-1.99671">
        <ele>5</ele>
        <time>2025-01-20T08:41:34.455Z</time>
      </trkpt>
      <trkpt lat="46.73939" lon="-1.99671">
        <ele>5.1</ele>
        <time>2025-01-20T08:41:35.456Z</time>
      </trkpt>
      <trkpt lat="46.73937" lon="-1.9967">
        <ele>5.1</ele>
        <time>2025-01-20T08:41:36.455Z</time>
      </trkpt>
      <trkpt lat="46.73935" lon="-1.9967">
        <ele>5.1</ele>
        <time>2025-01-20T08:41:37.456Z</time>
      </trkpt>
      <trkpt lat="46.73934" lon="-1.99669">
        <ele>5.1</ele>
        <time>2025-01-20T08:41:38.456Z</time>
      </trkpt>
      <trkpt lat="46.73933" lon="-1.99668">
        <ele>5</ele>
        <time>2025-01-20T08:41:39.456Z</time>
      </trkpt>
      <trkpt lat="46.73932" lon="-1.99667">
        <ele>5</ele>
        <time>2025-01-20T08:41:40.456Z</time>
      </trkpt>
      <trkpt lat="46.73931" lon="-1.99667">
        <ele>5</ele>
        <time>2025-01-20T08:41:41.456Z</time>
      </trkpt>
      <trkpt lat="46.7393" lon="-1.99666">
        <ele>5</ele>
        <time>2025-01-20T08:41:42.455Z</time>
      </trkpt>
      <trkpt lat="46.73929" lon="-1.99666">
        <ele>5</ele>
        <time>2025-01-20T08:41:43.456Z</time>
      </trkpt>
      <trkpt lat="46.73928" lon="-1.99665">
        <ele>5</ele>
        <time>2025-01-20T08:41:44.456Z</time>
      </trkpt>
      <trkpt lat="46.73927" lon="-1.99665">
        <ele>5</ele>
        <time>2025-01-20T08:41:45.456Z</time>
      </trkpt>
      <trkpt lat="46.73926" lon="-1.99665">
        <ele>5</ele>
        <time>2025-01-20T08:41:46.456Z</time>
      </trkpt>
      <trkpt lat="46.73925" lon="-1.99665">
        <ele>5</ele>
        <time>2025-01-20T08:41:47.456Z</time>
      </trkpt>
      <trkpt lat="46.73924" lon="-1.99666">
        <ele>5</ele>
        <time>2025-01-20T08:41:48.455Z</time>
      </trkpt>
      <trkpt lat="46.73922" lon="-1.99666">
        <ele>5</ele>
        <time>2025-01-20T08:41:49.455Z</time>
      </trkpt>
      <trkpt lat="46.73921" lon="-1.99667">
        <ele>5</ele>
        <time>2025-01-20T08:41:50.455Z</time>
      </trkpt>
      <trkpt lat="46.73921" lon="-1.99667">
        <ele>5</ele>
        <time>2025-01-20T08:41:51.456Z</time>
      </trkpt>
      <trkpt lat="46.7392" lon="-1.99667">
        <ele>5</ele>
        <time>2025-01-20T08:41:52.455Z</time>
      </trkpt>
      <trkpt lat="46.7392" lon="-1.99667">
        <ele>5</ele>
        <time>2025-01-20T08:41:53.456Z</time>
      </trkpt>
      <trkpt lat="46.73919" lon="-1.99667">
        <ele>5</ele>
        <time>2025-01-20T08:41:54.456Z</time>
      </trkpt>
      <trkpt lat="46.73919" lon="-1.99668">
        <ele>5.1</ele>
        <time>2025-01-20T08:41:55.456Z</time>
      </trkpt>
      <trkpt lat="46.73918" lon="-1.99668">
        <ele>5.1</ele>
        <time>2025-01-20T08:41:56.455Z</time>
      </trkpt>
      <trkpt lat="46.73917" lon="-1.99668">
        <ele>5.1</ele>
        <time>2025-01-20T08:41:57.456Z</time>
      </trkpt>
      <trkpt lat="46.73915" lon="-1.99669">
        <ele>5.4</ele>
        <time>2025-01-20T08:41:58.456Z</time>
      </trkpt>
      <trkpt lat="46.73914" lon="-1.99669">
        <ele>5.5</ele>
        <time>2025-01-20T08:41:59.455Z</time>
      </trkpt>
      <trkpt lat="46.73912" lon="-1.99669">
        <ele>5.8</ele>
        <time>2025-01-20T08:42:00.455Z</time>
      </trkpt>
      <trkpt lat="46.73911" lon="-1.99669">
        <ele>6</ele>
        <time>2025-01-20T08:42:01.455Z</time>
      </trkpt>
      <trkpt lat="46.7391" lon="-1.9967">
        <ele>6.2</ele>
        <time>2025-01-20T08:42:02.455Z</time>
      </trkpt>
      <trkpt lat="46.73908" lon="-1.99671">
        <ele>6.5</ele>
        <time>2025-01-20T08:42:03.456Z</time>
      </trkpt>
      <trkpt lat="46.73907" lon="-1.99671">
        <ele>6.6</ele>
        <time>2025-01-20T08:42:04.456Z</time>
      </trkpt>
      <trkpt lat="46.73906" lon="-1.99672">
        <ele>6.8</ele>
        <time>2025-01-20T08:42:05.456Z</time>
      </trkpt>
      <trkpt lat="46.73904" lon="-1.99671">
        <ele>7.1</ele>
        <time>2025-01-20T08:42:06.455Z</time>
      </trkpt>
      <trkpt lat="46.73902" lon="-1.99671">
        <ele>7.3</ele>
        <time>2025-01-20T08:42:07.455Z</time>
      </trkpt>
      <trkpt lat="46.739" lon="-1.9967">
        <ele>7.6</ele>
        <time>2025-01-20T08:42:08.456Z</time>
      </trkpt>
      <trkpt lat="46.73898" lon="-1.99669">
        <ele>7.8</ele>
        <time>2025-01-20T08:42:09.455Z</time>
      </trkpt>
      <trkpt lat="46.73897" lon="-1.99668">
        <ele>7.9</ele>
        <time>2025-01-20T08:42:10.455Z</time>
      </trkpt>
      <trkpt lat="46.73895" lon="-1.99667">
        <ele>8.1</ele>
        <time>2025-01-20T08:42:11.455Z</time>
      </trkpt>
      <trkpt lat="46.73894" lon="-1.99666">
        <ele>8.2</ele>
        <time>2025-01-20T08:42:12.455Z</time>
      </trkpt>
      <trkpt lat="46.73892" lon="-1.99665">
        <ele>8.4</ele>
        <time>2025-01-20T08:42:13.456Z</time>
      </trkpt>
      <trkpt lat="46.73891" lon="-1.99665">
        <ele>8.6</ele>
        <time>2025-01-20T08:42:14.456Z</time>
      </trkpt>
      <trkpt lat="46.7389" lon="-1.99663">
        <ele>8.6</ele>
        <time>2025-01-20T08:42:15.456Z</time>
      </trkpt>
      <trkpt lat="46.73888" lon="-1.99661">
        <ele>8.5</ele>
        <time>2025-01-20T08:42:16.456Z</time>
      </trkpt>
      <trkpt lat="46.73886" lon="-1.99659">
        <ele>8.3</ele>
        <time>2025-01-20T08:42:17.456Z</time>
      </trkpt>
      <trkpt lat="46.73885" lon="-1.99658">
        <ele>8.1</ele>
        <time>2025-01-20T08:42:18.456Z</time>
      </trkpt>
      <trkpt lat="46.73884" lon="-1.99657">
        <ele>8</ele>
        <time>2025-01-20T08:42:19.455Z</time>
      </trkpt>
      <trkpt lat="46.73883" lon="-1.99656">
        <ele>7.9</ele>
        <time>2025-01-20T08:42:20.455Z</time>
      </trkpt>
      <trkpt lat="46.73882" lon="-1.99655">
        <ele>7.8</ele>
        <time>2025-01-20T08:42:21.455Z</time>
      </trkpt>
      <trkpt lat="46.73881" lon="-1.99654">
        <ele>7.8</ele>
        <time>2025-01-20T08:42:22.455Z</time>
      </trkpt>
      <trkpt lat="46.7388" lon="-1.99653">
        <ele>7.7</ele>
        <time>2025-01-20T08:42:23.456Z</time>
      </trkpt>
      <trkpt lat="46.73879" lon="-1.99652">
        <ele>7.6</ele>
        <time>2025-01-20T08:42:24.456Z</time>
      </trkpt>
      <trkpt lat="46.73878" lon="-1.99651">
        <ele>7.6</ele>
        <time>2025-01-20T08:42:25.456Z</time>
      </trkpt>
      <trkpt lat="46.73877" lon="-1.9965">
        <ele>7.5</ele>
        <time>2025-01-20T08:42:26.456Z</time>
      </trkpt>
      <trkpt lat="46.73876" lon="-1.99649">
        <ele>7.5</ele>
        <time>2025-01-20T08:42:27.456Z</time>
      </trkpt>
      <trkpt lat="46.73876" lon="-1.99647">
        <ele>7.5</ele>
        <time>2025-01-20T08:42:28.456Z</time>
      </trkpt>
      <trkpt lat="46.73875" lon="-1.99646">
        <ele>7.5</ele>
        <time>2025-01-20T08:42:29.455Z</time>
      </trkpt>
      <trkpt lat="46.73874" lon="-1.99645">
        <ele>7.5</ele>
        <time>2025-01-20T08:42:30.455Z</time>
      </trkpt>
      <trkpt lat="46.73872" lon="-1.99644">
        <ele>7.5</ele>
        <time>2025-01-20T08:42:31.455Z</time>
      </trkpt>
      <trkpt lat="46.73871" lon="-1.99643">
        <ele>7.6</ele>
        <time>2025-01-20T08:42:32.455Z</time>
      </trkpt>
      <trkpt lat="46.7387" lon="-1.99642">
        <ele>7.6</ele>
        <time>2025-01-20T08:42:33.456Z</time>
      </trkpt>
      <trkpt lat="46.73869" lon="-1.99641">
        <ele>7.7</ele>
        <time>2025-01-20T08:42:34.456Z</time>
      </trkpt>
      <trkpt lat="46.73867" lon="-1.9964">
        <ele>7.7</ele>
        <time>2025-01-20T08:42:35.456Z</time>
      </trkpt>
      <trkpt lat="46.73866" lon="-1.99639">
        <ele>7.8</ele>
        <time>2025-01-20T08:42:36.455Z</time>
      </trkpt>
      <trkpt lat="46.73865" lon="-1.99638">
        <ele>7.8</ele>
        <time>2025-01-20T08:42:37.455Z</time>
      </trkpt>
      <trkpt lat="46.73863" lon="-1.99637">
        <ele>7.9</ele>
        <time>2025-01-20T08:42:38.455Z</time>
      </trkpt>
      <trkpt lat="46.73862" lon="-1.99636">
        <ele>7.9</ele>
        <time>2025-01-20T08:42:39.456Z</time>
      </trkpt>
      <trkpt lat="46.73861" lon="-1.99635">
        <ele>7.9</ele>
        <time>2025-01-20T08:42:40.456Z</time>
      </trkpt>
      <trkpt lat="46.7386" lon="-1.99634">
        <ele>7.8</ele>
        <time>2025-01-20T08:42:41.456Z</time>
      </trkpt>
      <trkpt lat="46.73858" lon="-1.99633">
        <ele>7.8</ele>
        <time>2025-01-20T08:42:42.456Z</time>
      </trkpt>
      <trkpt lat="46.73858" lon="-1.99631">
        <ele>7.7</ele>
        <time>2025-01-20T08:42:43.456Z</time>
      </trkpt>
      <trkpt lat="46.73857" lon="-1.9963">
        <ele>7.6</ele>
        <time>2025-01-20T08:42:44.456Z</time>
      </trkpt>
      <trkpt lat="46.73856" lon="-1.99628">
        <ele>7.5</ele>
        <time>2025-01-20T08:42:45.455Z</time>
      </trkpt>
      <trkpt lat="46.73855" lon="-1.99627">
        <ele>7.5</ele>
        <time>2025-01-20T08:42:46.455Z</time>
      </trkpt>
      <trkpt lat="46.73853" lon="-1.99626">
        <ele>7.4</ele>
        <time>2025-01-20T08:42:47.456Z</time>
      </trkpt>
      <trkpt lat="46.73852" lon="-1.99625">
        <ele>7.3</ele>
        <time>2025-01-20T08:42:48.455Z</time>
      </trkpt>
      <trkpt lat="46.73851" lon="-1.99624">
        <ele>7.3</ele>
        <time>2025-01-20T08:42:49.455Z</time>
      </trkpt>
      <trkpt lat="46.7385" lon="-1.99623">
        <ele>7.2</ele>
        <time>2025-01-20T08:42:50.456Z</time>
      </trkpt>
      <trkpt lat="46.73849" lon="-1.99621">
        <ele>7.1</ele>
        <time>2025-01-20T08:42:51.455Z</time>
      </trkpt>
      <trkpt lat="46.73847" lon="-1.9962">
        <ele>7</ele>
        <time>2025-01-20T08:42:52.456Z</time>
      </trkpt>
      <trkpt lat="46.73846" lon="-1.99619">
        <ele>6.9</ele>
        <time>2025-01-20T08:42:53.456Z</time>
      </trkpt>
      <trkpt lat="46.73845" lon="-1.99617">
        <ele>6.8</ele>
        <time>2025-01-20T08:42:54.456Z</time>
      </trkpt>
      <trkpt lat="46.73843" lon="-1.99616">
        <ele>6.6</ele>
        <time>2025-01-20T08:42:55.456Z</time>
      </trkpt>
      <trkpt lat="46.73842" lon="-1.99615">
        <ele>6.5</ele>
        <time>2025-01-20T08:42:56.455Z</time>
      </trkpt>
      <trkpt lat="46.73841" lon="-1.99614">
        <ele>6.5</ele>
        <time>2025-01-20T08:42:57.456Z</time>
      </trkpt>
      <trkpt lat="46.7384" lon="-1.99612">
        <ele>6.3</ele>
        <time>2025-01-20T08:42:58.455Z</time>
      </trkpt>
      <trkpt lat="46.73839" lon="-1.99611">
        <ele>6.2</ele>
        <time>2025-01-20T08:42:59.455Z</time>
      </trkpt>
      <trkpt lat="46.73837" lon="-1.9961">
        <ele>6.1</ele>
        <time>2025-01-20T08:43:00.456Z</time>
      </trkpt>
      <trkpt lat="46.73836" lon="-1.99609">
        <ele>6.1</ele>
        <time>2025-01-20T08:43:01.455Z</time>
      </trkpt>
      <trkpt lat="46.73835" lon="-1.99608">
        <ele>6</ele>
        <time>2025-01-20T08:43:02.455Z</time>
      </trkpt>
      <trkpt lat="46.73834" lon="-1.99607">
        <ele>6</ele>
        <time>2025-01-20T08:43:03.456Z</time>
      </trkpt>
      <trkpt lat="46.73833" lon="-1.99606">
        <ele>6.1</ele>
        <time>2025-01-20T08:43:04.456Z</time>
      </trkpt>
      <trkpt lat="46.73831" lon="-1.99604">
        <ele>6.4</ele>
        <time>2025-01-20T08:43:05.456Z</time>
      </trkpt>
      <trkpt lat="46.7383" lon="-1.99603">
        <ele>6.5</ele>
        <time>2025-01-20T08:43:06.456Z</time>
      </trkpt>
      <trkpt lat="46.73829" lon="-1.99601">
        <ele>6.7</ele>
        <time>2025-01-20T08:43:07.456Z</time>
      </trkpt>
      <trkpt lat="46.73827" lon="-1.996">
        <ele>7</ele>
        <time>2025-01-20T08:43:08.456Z</time>
      </trkpt>
      <trkpt lat="46.73826" lon="-1.99599">
        <ele>7.1</ele>
        <time>2025-01-20T08:43:09.456Z</time>
      </trkpt>
      <trkpt lat="46.73825" lon="-1.99598">
        <ele>7.2</ele>
        <time>2025-01-20T08:43:10.455Z</time>
      </trkpt>
      <trkpt lat="46.73824" lon="-1.99597">
        <ele>7.3</ele>
        <time>2025-01-20T08:43:11.455Z</time>
      </trkpt>
      <trkpt lat="46.73823" lon="-1.99596">
        <ele>7.5</ele>
        <time>2025-01-20T08:43:12.455Z</time>
      </trkpt>
      <trkpt lat="46.73822" lon="-1.99595">
        <ele>7.6</ele>
        <time>2025-01-20T08:43:13.455Z</time>
      </trkpt>
      <trkpt lat="46.73822" lon="-1.99594">
        <ele>7.5</ele>
        <time>2025-01-20T08:43:14.455Z</time>
      </trkpt>
      <trkpt lat="46.73821" lon="-1.99593">
        <ele>7.6</ele>
        <time>2025-01-20T08:43:15.455Z</time>
      </trkpt>
      <trkpt lat="46.7382" lon="-1.99592">
        <ele>7.7</ele>
        <time>2025-01-20T08:43:16.456Z</time>
      </trkpt>
      <trkpt lat="46.73819" lon="-1.99591">
        <ele>7.8</ele>
        <time>2025-01-20T08:43:17.456Z</time>
      </trkpt>
      <trkpt lat="46.73818" lon="-1.9959">
        <ele>7.9</ele>
        <time>2025-01-20T08:43:18.456Z</time>
      </trkpt>
      <trkpt lat="46.73817" lon="-1.99589">
        <ele>8</ele>
        <time>2025-01-20T08:43:19.455Z</time>
      </trkpt>
      <trkpt lat="46.73816" lon="-1.99588">
        <ele>8.1</ele>
        <time>2025-01-20T08:43:20.456Z</time>
      </trkpt>
      <trkpt lat="46.73815" lon="-1.99587">
        <ele>8.2</ele>
        <time>2025-01-20T08:43:21.456Z</time>
      </trkpt>
      <trkpt lat="46.73813" lon="-1.99586">
        <ele>8.3</ele>
        <time>2025-01-20T08:43:22.456Z</time>
      </trkpt>
      <trkpt lat="46.73812" lon="-1.99584">
        <ele>8.3</ele>
        <time>2025-01-20T08:43:23.456Z</time>
      </trkpt>
      <trkpt lat="46.73811" lon="-1.99583">
        <ele>8.4</ele>
        <time>2025-01-20T08:43:24.455Z</time>
      </trkpt>
      <trkpt lat="46.7381" lon="-1.99582">
        <ele>8.4</ele>
        <time>2025-01-20T08:43:25.455Z</time>
      </trkpt>
      <trkpt lat="46.73809" lon="-1.99581">
        <ele>8.4</ele>
        <time>2025-01-20T08:43:26.455Z</time>
      </trkpt>
      <trkpt lat="46.73808" lon="-1.9958">
        <ele>8.4</ele>
        <time>2025-01-20T08:43:27.455Z</time>
      </trkpt>
      <trkpt lat="46.73807" lon="-1.99579">
        <ele>8.4</ele>
        <time>2025-01-20T08:43:28.456Z</time>
      </trkpt>
      <trkpt lat="46.73805" lon="-1.99578">
        <ele>8.4</ele>
        <time>2025-01-20T08:43:29.456Z</time>
      </trkpt>
      <trkpt lat="46.73804" lon="-1.99578">
        <ele>8.3</ele>
        <time>2025-01-20T08:43:30.456Z</time>
      </trkpt>
      <trkpt lat="46.73803" lon="-1.99577">
        <ele>8.1</ele>
        <time>2025-01-20T08:43:31.456Z</time>
      </trkpt>
      <trkpt lat="46.73802" lon="-1.99576">
        <ele>7.9</ele>
        <time>2025-01-20T08:43:32.456Z</time>
      </trkpt>
      <trkpt lat="46.738" lon="-1.99575">
        <ele>7.7</ele>
        <time>2025-01-20T08:43:33.455Z</time>
      </trkpt>
      <trkpt lat="46.73799" lon="-1.99573">
        <ele>7.4</ele>
        <time>2025-01-20T08:43:34.456Z</time>
      </trkpt>
      <trkpt lat="46.73798" lon="-1.99572">
        <ele>7.3</ele>
        <time>2025-01-20T08:43:35.455Z</time>
      </trkpt>
      <trkpt lat="46.73797" lon="-1.99571">
        <ele>7.2</ele>
        <time>2025-01-20T08:43:36.456Z</time>
      </trkpt>
      <trkpt lat="46.73795" lon="-1.9957">
        <ele>7</ele>
        <time>2025-01-20T08:43:37.456Z</time>
      </trkpt>
      <trkpt lat="46.73794" lon="-1.99569">
        <ele>6.8</ele>
        <time>2025-01-20T08:43:38.456Z</time>
      </trkpt>
      <trkpt lat="46.73793" lon="-1.99568">
        <ele>6.7</ele>
        <time>2025-01-20T08:43:39.456Z</time>
      </trkpt>
      <trkpt lat="46.73791" lon="-1.99567">
        <ele>6.6</ele>
        <time>2025-01-20T08:43:40.455Z</time>
      </trkpt>
      <trkpt lat="46.73789" lon="-1.99566">
        <ele>6.5</ele>
        <time>2025-01-20T08:43:41.455Z</time>
      </trkpt>
      <trkpt lat="46.73788" lon="-1.99565">
        <ele>6.4</ele>
        <time>2025-01-20T08:43:42.455Z</time>
      </trkpt>
      <trkpt lat="46.73787" lon="-1.99563">
        <ele>6.3</ele>
        <time>2025-01-20T08:43:43.455Z</time>
      </trkpt>
      <trkpt lat="46.73786" lon="-1.99562">
        <ele>6.2</ele>
        <time>2025-01-20T08:43:44.455Z</time>
      </trkpt>
      <trkpt lat="46.73784" lon="-1.99561">
        <ele>6.1</ele>
        <time>2025-01-20T08:43:45.456Z</time>
      </trkpt>
      <trkpt lat="46.73783" lon="-1.9956">
        <ele>6.1</ele>
        <time>2025-01-20T08:43:46.456Z</time>
      </trkpt>
      <trkpt lat="46.73782" lon="-1.99559">
        <ele>6.1</ele>
        <time>2025-01-20T08:43:47.456Z</time>
      </trkpt>
      <trkpt lat="46.73781" lon="-1.99558">
        <ele>6</ele>
        <time>2025-01-20T08:43:48.456Z</time>
      </trkpt>
      <trkpt lat="46.7378" lon="-1.99557">
        <ele>6</ele>
        <time>2025-01-20T08:43:49.456Z</time>
      </trkpt>
      <trkpt lat="46.73778" lon="-1.99556">
        <ele>6</ele>
        <time>2025-01-20T08:43:50.456Z</time>
      </trkpt>
      <trkpt lat="46.73777" lon="-1.99555">
        <ele>6</ele>
        <time>2025-01-20T08:43:51.455Z</time>
      </trkpt>
      <trkpt lat="46.73776" lon="-1.99554">
        <ele>6</ele>
        <time>2025-01-20T08:43:52.455Z</time>
      </trkpt>
      <trkpt lat="46.73774" lon="-1.99553">
        <ele>6</ele>
        <time>2025-01-20T08:43:53.455Z</time>
      </trkpt>
      <trkpt lat="46.73772" lon="-1.99552">
        <ele>6</ele>
        <time>2025-01-20T08:43:54.455Z</time>
      </trkpt>
      <trkpt lat="46.73771" lon="-1.99552">
        <ele>6</ele>
        <time>2025-01-20T08:43:55.455Z</time>
      </trkpt>
      <trkpt lat="46.73769" lon="-1.99552">
        <ele>6</ele>
        <time>2025-01-20T08:43:56.455Z</time>
      </trkpt>
      <trkpt lat="46.73768" lon="-1.99553">
        <ele>6</ele>
        <time>2025-01-20T08:43:57.456Z</time>
      </trkpt>
      <trkpt lat="46.73767" lon="-1.99554">
        <ele>6</ele>
        <time>2025-01-20T08:43:58.456Z</time>
      </trkpt>
      <trkpt lat="46.73766" lon="-1.99555">
        <ele>6</ele>
        <time>2025-01-20T08:43:59.456Z</time>
      </trkpt>
      <trkpt lat="46.73765" lon="-1.99557">
        <ele>6</ele>
        <time>2025-01-20T08:44:00.456Z</time>
      </trkpt>
      <trkpt lat="46.73765" lon="-1.99558">
        <ele>6</ele>
        <time>2025-01-20T08:44:01.456Z</time>
      </trkpt>
      <trkpt lat="46.73764" lon="-1.9956">
        <ele>6</ele>
        <time>2025-01-20T08:44:02.456Z</time>
      </trkpt>
      <trkpt lat="46.73763" lon="-1.99561">
        <ele>6</ele>
        <time>2025-01-20T08:44:03.456Z</time>
      </trkpt>
      <trkpt lat="46.73762" lon="-1.99563">
        <ele>6</ele>
        <time>2025-01-20T08:44:04.456Z</time>
      </trkpt>
      <trkpt lat="46.73762" lon="-1.99564">
        <ele>6</ele>
        <time>2025-01-20T08:44:05.456Z</time>
      </trkpt>
      <trkpt lat="46.73762" lon="-1.99566">
        <ele>6</ele>
        <time>2025-01-20T08:44:06.456Z</time>
      </trkpt>
      <trkpt lat="46.73762" lon="-1.99567">
        <ele>6</ele>
        <time>2025-01-20T08:44:07.456Z</time>
      </trkpt>
      <trkpt lat="46.73761" lon="-1.99568">
        <ele>6</ele>
        <time>2025-01-20T08:44:08.456Z</time>
      </trkpt>
      <trkpt lat="46.73761" lon="-1.99569">
        <ele>6</ele>
        <time>2025-01-20T08:44:09.455Z</time>
      </trkpt>
      <trkpt lat="46.73761" lon="-1.99571">
        <ele>6</ele>
        <time>2025-01-20T08:44:10.455Z</time>
      </trkpt>
      <trkpt lat="46.7376" lon="-1.99573">
        <ele>6</ele>
        <time>2025-01-20T08:44:11.455Z</time>
      </trkpt>
      <trkpt lat="46.7376" lon="-1.99575">
        <ele>6</ele>
        <time>2025-01-20T08:44:12.455Z</time>
      </trkpt>
      <trkpt lat="46.73759" lon="-1.99577">
        <ele>6</ele>
        <time>2025-01-20T08:44:13.456Z</time>
      </trkpt>
      <trkpt lat="46.73758" lon="-1.99579">
        <ele>6</ele>
        <time>2025-01-20T08:44:14.456Z</time>
      </trkpt>
      <trkpt lat="46.73757" lon="-1.99581">
        <ele>6</ele>
        <time>2025-01-20T08:44:15.456Z</time>
      </trkpt>
      <trkpt lat="46.73757" lon="-1.99582">
        <ele>6</ele>
        <time>2025-01-20T08:44:16.456Z</time>
      </trkpt>
      <trkpt lat="46.73756" lon="-1.99585">
        <ele>6</ele>
        <time>2025-01-20T08:44:17.456Z</time>
      </trkpt>
      <trkpt lat="46.73755" lon="-1.99587">
        <ele>6</ele>
        <time>2025-01-20T08:44:18.456Z</time>
      </trkpt>
      <trkpt lat="46.73755" lon="-1.99589">
        <ele>6.1</ele>
        <time>2025-01-20T08:44:19.456Z</time>
      </trkpt>
      <trkpt lat="46.73754" lon="-1.99591">
        <ele>6.1</ele>
        <time>2025-01-20T08:44:20.456Z</time>
      </trkpt>
      <trkpt lat="46.73753" lon="-1.99593">
        <ele>6.1</ele>
        <time>2025-01-20T08:44:21.456Z</time>
      </trkpt>
      <trkpt lat="46.73753" lon="-1.99595">
        <ele>6.1</ele>
        <time>2025-01-20T08:44:22.456Z</time>
      </trkpt>
      <trkpt lat="46.73752" lon="-1.99597">
        <ele>6.1</ele>
        <time>2025-01-20T08:44:23.456Z</time>
      </trkpt>
      <trkpt lat="46.73752" lon="-1.99599">
        <ele>6.1</ele>
        <time>2025-01-20T08:44:24.456Z</time>
      </trkpt>
      <trkpt lat="46.73752" lon="-1.99601">
        <ele>6.1</ele>
        <time>2025-01-20T08:44:25.455Z</time>
      </trkpt>
      <trkpt lat="46.73752" lon="-1.99603">
        <ele>6.1</ele>
        <time>2025-01-20T08:44:26.455Z</time>
      </trkpt>
      <trkpt lat="46.73751" lon="-1.99605">
        <ele>6.1</ele>
        <time>2025-01-20T08:44:27.455Z</time>
      </trkpt>
      <trkpt lat="46.73751" lon="-1.99607">
        <ele>6.1</ele>
        <time>2025-01-20T08:44:28.456Z</time>
      </trkpt>
      <trkpt lat="46.73751" lon="-1.99609">
        <ele>6.1</ele>
        <time>2025-01-20T08:44:29.455Z</time>
      </trkpt>
      <trkpt lat="46.7375" lon="-1.99611">
        <ele>6</ele>
        <time>2025-01-20T08:44:30.456Z</time>
      </trkpt>
      <trkpt lat="46.7375" lon="-1.99613">
        <ele>6.1</ele>
        <time>2025-01-20T08:44:31.455Z</time>
      </trkpt>
      <trkpt lat="46.73749" lon="-1.99615">
        <ele>6.2</ele>
        <time>2025-01-20T08:44:32.455Z</time>
      </trkpt>
      <trkpt lat="46.73749" lon="-1.99617">
        <ele>6.3</ele>
        <time>2025-01-20T08:44:33.455Z</time>
      </trkpt>
      <trkpt lat="46.73749" lon="-1.99619">
        <ele>6.4</ele>
        <time>2025-01-20T08:44:34.456Z</time>
      </trkpt>
      <trkpt lat="46.73748" lon="-1.99621">
        <ele>6.5</ele>
        <time>2025-01-20T08:44:35.456Z</time>
      </trkpt>
      <trkpt lat="46.73747" lon="-1.99623">
        <ele>6.7</ele>
        <time>2025-01-20T08:44:36.456Z</time>
      </trkpt>
      <trkpt lat="46.73747" lon="-1.99625">
        <ele>6.8</ele>
        <time>2025-01-20T08:44:37.456Z</time>
      </trkpt>
      <trkpt lat="46.73747" lon="-1.99627">
        <ele>6.8</ele>
        <time>2025-01-20T08:44:38.455Z</time>
      </trkpt>
      <trkpt lat="46.73746" lon="-1.99629">
        <ele>7</ele>
        <time>2025-01-20T08:44:39.455Z</time>
      </trkpt>
      <trkpt lat="46.73746" lon="-1.99631">
        <ele>7</ele>
        <time>2025-01-20T08:44:40.455Z</time>
      </trkpt>
      <trkpt lat="46.73745" lon="-1.99633">
        <ele>7.2</ele>
        <time>2025-01-20T08:44:41.455Z</time>
      </trkpt>
      <trkpt lat="46.73745" lon="-1.99635">
        <ele>7.2</ele>
        <time>2025-01-20T08:44:42.455Z</time>
      </trkpt>
      <trkpt lat="46.73744" lon="-1.99636">
        <ele>7.4</ele>
        <time>2025-01-20T08:44:43.456Z</time>
      </trkpt>
      <trkpt lat="46.73744" lon="-1.99638">
        <ele>7.4</ele>
        <time>2025-01-20T08:44:44.456Z</time>
      </trkpt>
      <trkpt lat="46.73744" lon="-1.9964">
        <ele>7.5</ele>
        <time>2025-01-20T08:44:45.456Z</time>
      </trkpt>
      <trkpt lat="46.73743" lon="-1.99642">
        <ele>7.6</ele>
        <time>2025-01-20T08:44:46.456Z</time>
      </trkpt>
      <trkpt lat="46.73742" lon="-1.99644">
        <ele>7.7</ele>
        <time>2025-01-20T08:44:47.455Z</time>
      </trkpt>
      <trkpt lat="46.73742" lon="-1.99646">
        <ele>7.8</ele>
        <time>2025-01-20T08:44:48.455Z</time>
      </trkpt>
      <trkpt lat="46.73741" lon="-1.99647">
        <ele>7.8</ele>
        <time>2025-01-20T08:44:49.455Z</time>
      </trkpt>
      <trkpt lat="46.7374" lon="-1.99649">
        <ele>8</ele>
        <time>2025-01-20T08:44:50.455Z</time>
      </trkpt>
      <trkpt lat="46.7374" lon="-1.99651">
        <ele>8</ele>
        <time>2025-01-20T08:44:51.455Z</time>
      </trkpt>
      <trkpt lat="46.73739" lon="-1.99653">
        <ele>8.1</ele>
        <time>2025-01-20T08:44:52.455Z</time>
      </trkpt>
      <trkpt lat="46.73739" lon="-1.99655">
        <ele>8.1</ele>
        <time>2025-01-20T08:44:53.456Z</time>
      </trkpt>
      <trkpt lat="46.73738" lon="-1.99657">
        <ele>8.2</ele>
        <time>2025-01-20T08:44:54.456Z</time>
      </trkpt>
      <trkpt lat="46.73738" lon="-1.99659">
        <ele>8.3</ele>
        <time>2025-01-20T08:44:55.456Z</time>
      </trkpt>
      <trkpt lat="46.73738" lon="-1.99661">
        <ele>8.3</ele>
        <time>2025-01-20T08:44:56.456Z</time>
      </trkpt>
      <trkpt lat="46.73738" lon="-1.99663">
        <ele>8.4</ele>
        <time>2025-01-20T08:44:57.456Z</time>
      </trkpt>
      <trkpt lat="46.73737" lon="-1.99664">
        <ele>8.4</ele>
        <time>2025-01-20T08:44:58.455Z</time>
      </trkpt>
      <trkpt lat="46.73737" lon="-1.99666">
        <ele>8.5</ele>
        <time>2025-01-20T08:44:59.455Z</time>
      </trkpt>
      <trkpt lat="46.73737" lon="-1.99668">
        <ele>8.6</ele>
        <time>2025-01-20T08:45:00.455Z</time>
      </trkpt>
      <trkpt lat="46.73736" lon="-1.9967">
        <ele>8.7</ele>
        <time>2025-01-20T08:45:01.455Z</time>
      </trkpt>
      <trkpt lat="46.73736" lon="-1.99672">
        <ele>8.9</ele>
        <time>2025-01-20T08:45:02.455Z</time>
      </trkpt>
      <trkpt lat="46.73735" lon="-1.99673">
        <ele>9</ele>
        <time>2025-01-20T08:45:03.456Z</time>
      </trkpt>
      <trkpt lat="46.73735" lon="-1.99675">
        <ele>9.1</ele>
        <time>2025-01-20T08:45:04.455Z</time>
      </trkpt>
      <trkpt lat="46.73735" lon="-1.99676">
        <ele>9.2</ele>
        <time>2025-01-20T08:45:05.455Z</time>
      </trkpt>
      <trkpt lat="46.73734" lon="-1.99678">
        <ele>9.3</ele>
        <time>2025-01-20T08:45:06.455Z</time>
      </trkpt>
      <trkpt lat="46.73734" lon="-1.9968">
        <ele>9.5</ele>
        <time>2025-01-20T08:45:07.455Z</time>
      </trkpt>
      <trkpt lat="46.73733" lon="-1.99681">
        <ele>9.5</ele>
        <time>2025-01-20T08:45:08.456Z</time>
      </trkpt>
      <trkpt lat="46.73732" lon="-1.99683">
        <ele>9.6</ele>
        <time>2025-01-20T08:45:09.456Z</time>
      </trkpt>
      <trkpt lat="46.73732" lon="-1.99685">
        <ele>9.8</ele>
        <time>2025-01-20T08:45:10.456Z</time>
      </trkpt>
      <trkpt lat="46.73731" lon="-1.99686">
        <ele>9.8</ele>
        <time>2025-01-20T08:45:11.455Z</time>
      </trkpt>
      <trkpt lat="46.73731" lon="-1.99688">
        <ele>9.9</ele>
        <time>2025-01-20T08:45:12.455Z</time>
      </trkpt>
      <trkpt lat="46.7373" lon="-1.9969">
        <ele>10</ele>
        <time>2025-01-20T08:45:13.455Z</time>
      </trkpt>
      <trkpt lat="46.7373" lon="-1.99691">
        <ele>10.1</ele>
        <time>2025-01-20T08:45:14.456Z</time>
      </trkpt>
      <trkpt lat="46.73729" lon="-1.99693">
        <ele>10.2</ele>
        <time>2025-01-20T08:45:15.456Z</time>
      </trkpt>
      <trkpt lat="46.73729" lon="-1.99695">
        <ele>10.3</ele>
        <time>2025-01-20T08:45:16.456Z</time>
      </trkpt>
      <trkpt lat="46.73728" lon="-1.99697">
        <ele>10.4</ele>
        <time>2025-01-20T08:45:17.455Z</time>
      </trkpt>
      <trkpt lat="46.73728" lon="-1.99699">
        <ele>10.6</ele>
        <time>2025-01-20T08:45:18.456Z</time>
      </trkpt>
      <trkpt lat="46.73727" lon="-1.99701">
        <ele>10.7</ele>
        <time>2025-01-20T08:45:19.455Z</time>
      </trkpt>
      <trkpt lat="46.73726" lon="-1.99703">
        <ele>10.8</ele>
        <time>2025-01-20T08:45:20.455Z</time>
      </trkpt>
      <trkpt lat="46.73726" lon="-1.99705">
        <ele>10.9</ele>
        <time>2025-01-20T08:45:21.455Z</time>
      </trkpt>
      <trkpt lat="46.73725" lon="-1.99706">
        <ele>11</ele>
        <time>2025-01-20T08:45:22.455Z</time>
      </trkpt>
      <trkpt lat="46.73725" lon="-1.99708">
        <ele>11.1</ele>
        <time>2025-01-20T08:45:23.455Z</time>
      </trkpt>
      <trkpt lat="46.73724" lon="-1.9971">
        <ele>11.2</ele>
        <time>2025-01-20T08:45:24.455Z</time>
      </trkpt>
      <trkpt lat="46.73723" lon="-1.99711">
        <ele>11.2</ele>
        <time>2025-01-20T08:45:25.455Z</time>
      </trkpt>
      <trkpt lat="46.73723" lon="-1.99713">
        <ele>11.4</ele>
        <time>2025-01-20T08:45:26.455Z</time>
      </trkpt>
      <trkpt lat="46.73723" lon="-1.99715">
        <ele>11.5</ele>
        <time>2025-01-20T08:45:27.455Z</time>
      </trkpt>
      <trkpt lat="46.73722" lon="-1.99716">
        <ele>11.6</ele>
        <time>2025-01-20T08:45:28.455Z</time>
      </trkpt>
      <trkpt lat="46.73722" lon="-1.99718">
        <ele>11.7</ele>
        <time>2025-01-20T08:45:29.456Z</time>
      </trkpt>
      <trkpt lat="46.73722" lon="-1.99719">
        <ele>11.8</ele>
        <time>2025-01-20T08:45:30.456Z</time>
      </trkpt>
      <trkpt lat="46.73722" lon="-1.9972">
        <ele>11.9</ele>
        <time>2025-01-20T08:45:31.456Z</time>
      </trkpt>
      <trkpt lat="46.73722" lon="-1.99722">
        <ele>12</ele>
        <time>2025-01-20T08:45:32.455Z</time>
      </trkpt>
      <trkpt lat="46.73721" lon="-1.99723">
        <ele>12.1</ele>
        <time>2025-01-20T08:45:33.456Z</time>
      </trkpt>
      <trkpt lat="46.73721" lon="-1.99725">
        <ele>12.3</ele>
        <time>2025-01-20T08:45:34.455Z</time>
      </trkpt>
      <trkpt lat="46.73721" lon="-1.99727">
        <ele>12.4</ele>
        <time>2025-01-20T08:45:35.456Z</time>
      </trkpt>
      <trkpt lat="46.73721" lon="-1.99728">
        <ele>12.5</ele>
        <time>2025-01-20T08:45:36.456Z</time>
      </trkpt>
      <trkpt lat="46.73721" lon="-1.9973">
        <ele>12.6</ele>
        <time>2025-01-20T08:45:37.456Z</time>
      </trkpt>
      <trkpt lat="46.7372" lon="-1.99732">
        <ele>12.7</ele>
        <time>2025-01-20T08:45:38.456Z</time>
      </trkpt>
      <trkpt lat="46.73721" lon="-1.99733">
        <ele>12.8</ele>
        <time>2025-01-20T08:45:39.456Z</time>
      </trkpt>
      <trkpt lat="46.7372" lon="-1.99735">
        <ele>12.9</ele>
        <time>2025-01-20T08:45:40.455Z</time>
      </trkpt>
      <trkpt lat="46.7372" lon="-1.99736">
        <ele>13</ele>
        <time>2025-01-20T08:45:41.455Z</time>
      </trkpt>
      <trkpt lat="46.7372" lon="-1.99737">
        <ele>13</ele>
        <time>2025-01-20T08:45:42.455Z</time>
      </trkpt>
      <trkpt lat="46.7372" lon="-1.99739">
        <ele>13.1</ele>
        <time>2025-01-20T08:45:43.455Z</time>
      </trkpt>
      <trkpt lat="46.73719" lon="-1.99741">
        <ele>13.2</ele>
        <time>2025-01-20T08:45:44.456Z</time>
      </trkpt>
      <trkpt lat="46.73718" lon="-1.99742">
        <ele>13.2</ele>
        <time>2025-01-20T08:45:45.456Z</time>
      </trkpt>
      <trkpt lat="46.73717" lon="-1.99743">
        <ele>13.2</ele>
        <time>2025-01-20T08:45:46.456Z</time>
      </trkpt>
      <trkpt lat="46.73717" lon="-1.99744">
        <ele>13.2</ele>
        <time>2025-01-20T08:45:47.455Z</time>
      </trkpt>
      <trkpt lat="46.73716" lon="-1.99746">
        <ele>13.2</ele>
        <time>2025-01-20T08:45:48.455Z</time>
      </trkpt>
      <trkpt lat="46.73716" lon="-1.99747">
        <ele>13.2</ele>
        <time>2025-01-20T08:45:49.456Z</time>
      </trkpt>
      <trkpt lat="46.73715" lon="-1.99748">
        <ele>13.2</ele>
        <time>2025-01-20T08:45:50.456Z</time>
      </trkpt>
      <trkpt lat="46.73714" lon="-1.9975">
        <ele>13.1</ele>
        <time>2025-01-20T08:45:51.455Z</time>
      </trkpt>
      <trkpt lat="46.73714" lon="-1.99751">
        <ele>13.1</ele>
        <time>2025-01-20T08:45:52.456Z</time>
      </trkpt>
      <trkpt lat="46.73713" lon="-1.99752">
        <ele>13</ele>
        <time>2025-01-20T08:45:53.455Z</time>
      </trkpt>
      <trkpt lat="46.73712" lon="-1.99754">
        <ele>12.8</ele>
        <time>2025-01-20T08:45:54.456Z</time>
      </trkpt>
      <trkpt lat="46.73712" lon="-1.99756">
        <ele>12.8</ele>
        <time>2025-01-20T08:45:55.456Z</time>
      </trkpt>
      <trkpt lat="46.73711" lon="-1.99758">
        <ele>12.7</ele>
        <time>2025-01-20T08:45:56.455Z</time>
      </trkpt>
      <trkpt lat="46.7371" lon="-1.9976">
        <ele>12.6</ele>
        <time>2025-01-20T08:45:57.455Z</time>
      </trkpt>
      <trkpt lat="46.7371" lon="-1.99762">
        <ele>12.6</ele>
        <time>2025-01-20T08:45:58.456Z</time>
      </trkpt>
      <trkpt lat="46.73709" lon="-1.99763">
        <ele>12.5</ele>
        <time>2025-01-20T08:45:59.455Z</time>
      </trkpt>
      <trkpt lat="46.73709" lon="-1.99765">
        <ele>12.5</ele>
        <time>2025-01-20T08:46:00.456Z</time>
      </trkpt>
      <trkpt lat="46.73708" lon="-1.99766">
        <ele>12.5</ele>
        <time>2025-01-20T08:46:01.456Z</time>
      </trkpt>
      <trkpt lat="46.73707" lon="-1.99767">
        <ele>12.5</ele>
        <time>2025-01-20T08:46:02.456Z</time>
      </trkpt>
      <trkpt lat="46.73705" lon="-1.99768">
        <ele>12.5</ele>
        <time>2025-01-20T08:46:03.456Z</time>
      </trkpt>
      <trkpt lat="46.73704" lon="-1.99769">
        <ele>12.5</ele>
        <time>2025-01-20T08:46:04.455Z</time>
      </trkpt>
      <trkpt lat="46.73703" lon="-1.9977">
        <ele>12.5</ele>
        <time>2025-01-20T08:46:05.456Z</time>
      </trkpt>
      <trkpt lat="46.73702" lon="-1.99771">
        <ele>12.5</ele>
        <time>2025-01-20T08:46:06.455Z</time>
      </trkpt>
      <trkpt lat="46.73701" lon="-1.99773">
        <ele>12.6</ele>
        <time>2025-01-20T08:46:07.456Z</time>
      </trkpt>
      <trkpt lat="46.737" lon="-1.99775">
        <ele>12.7</ele>
        <time>2025-01-20T08:46:08.455Z</time>
      </trkpt>
      <trkpt lat="46.737" lon="-1.99777">
        <ele>12.8</ele>
        <time>2025-01-20T08:46:09.455Z</time>
      </trkpt>
      <trkpt lat="46.73699" lon="-1.99779">
        <ele>12.9</ele>
        <time>2025-01-20T08:46:10.456Z</time>
      </trkpt>
      <trkpt lat="46.73698" lon="-1.9978">
        <ele>13</ele>
        <time>2025-01-20T08:46:11.455Z</time>
      </trkpt>
      <trkpt lat="46.73697" lon="-1.99782">
        <ele>13.1</ele>
        <time>2025-01-20T08:46:12.455Z</time>
      </trkpt>
      <trkpt lat="46.73696" lon="-1.99783">
        <ele>13.3</ele>
        <time>2025-01-20T08:46:13.456Z</time>
      </trkpt>
      <trkpt lat="46.73696" lon="-1.99785">
        <ele>13.4</ele>
        <time>2025-01-20T08:46:14.456Z</time>
      </trkpt>
      <trkpt lat="46.73695" lon="-1.99787">
        <ele>13.6</ele>
        <time>2025-01-20T08:46:15.455Z</time>
      </trkpt>
      <trkpt lat="46.73695" lon="-1.99788">
        <ele>13.7</ele>
        <time>2025-01-20T08:46:16.456Z</time>
      </trkpt>
      <trkpt lat="46.73694" lon="-1.99789">
        <ele>13.7</ele>
        <time>2025-01-20T08:46:17.456Z</time>
      </trkpt>
      <trkpt lat="46.73693" lon="-1.99791">
        <ele>13.5</ele>
        <time>2025-01-20T08:46:18.455Z</time>
      </trkpt>
      <trkpt lat="46.73693" lon="-1.99793">
        <ele>13.6</ele>
        <time>2025-01-20T08:46:19.455Z</time>
      </trkpt>
      <trkpt lat="46.73692" lon="-1.99795">
        <ele>13.4</ele>
        <time>2025-01-20T08:46:20.456Z</time>
      </trkpt>
      <trkpt lat="46.73691" lon="-1.99797">
        <ele>13.2</ele>
        <time>2025-01-20T08:46:21.456Z</time>
      </trkpt>
      <trkpt lat="46.73691" lon="-1.99799">
        <ele>13.3</ele>
        <time>2025-01-20T08:46:22.455Z</time>
      </trkpt>
      <trkpt lat="46.73691" lon="-1.99801">
        <ele>13.5</ele>
        <time>2025-01-20T08:46:23.455Z</time>
      </trkpt>
      <trkpt lat="46.7369" lon="-1.99803">
        <ele>13.2</ele>
        <time>2025-01-20T08:46:24.455Z</time>
      </trkpt>
      <trkpt lat="46.7369" lon="-1.99805">
        <ele>13.4</ele>
        <time>2025-01-20T08:46:25.455Z</time>
      </trkpt>
      <trkpt lat="46.7369" lon="-1.99806">
        <ele>13.4</ele>
        <time>2025-01-20T08:46:26.456Z</time>
      </trkpt>
      <trkpt lat="46.73689" lon="-1.99808">
        <ele>13.1</ele>
        <time>2025-01-20T08:46:27.456Z</time>
      </trkpt>
      <trkpt lat="46.73689" lon="-1.9981">
        <ele>13.2</ele>
        <time>2025-01-20T08:46:28.456Z</time>
      </trkpt>
      <trkpt lat="46.73688" lon="-1.99812">
        <ele>12.9</ele>
        <time>2025-01-20T08:46:29.456Z</time>
      </trkpt>
      <trkpt lat="46.73688" lon="-1.99814">
        <ele>13</ele>
        <time>2025-01-20T08:46:30.456Z</time>
      </trkpt>
      <trkpt lat="46.73687" lon="-1.99816">
        <ele>12.9</ele>
        <time>2025-01-20T08:46:31.455Z</time>
      </trkpt>
      <trkpt lat="46.73687" lon="-1.99819">
        <ele>13</ele>
        <time>2025-01-20T08:46:32.455Z</time>
      </trkpt>
      <trkpt lat="46.73686" lon="-1.99821">
        <ele>12.9</ele>
        <time>2025-01-20T08:46:33.455Z</time>
      </trkpt>
      <trkpt lat="46.73686" lon="-1.99822">
        <ele>13</ele>
        <time>2025-01-20T08:46:34.455Z</time>
      </trkpt>
      <trkpt lat="46.73685" lon="-1.99824">
        <ele>13</ele>
        <time>2025-01-20T08:46:35.455Z</time>
      </trkpt>
      <trkpt lat="46.73685" lon="-1.99826">
        <ele>13.1</ele>
        <time>2025-01-20T08:46:36.456Z</time>
      </trkpt>
      <trkpt lat="46.73684" lon="-1.99827">
        <ele>13.1</ele>
        <time>2025-01-20T08:46:37.455Z</time>
      </trkpt>
      <trkpt lat="46.73684" lon="-1.99829">
        <ele>13.3</ele>
        <time>2025-01-20T08:46:38.455Z</time>
      </trkpt>
      <trkpt lat="46.73683" lon="-1.99831">
        <ele>13.4</ele>
        <time>2025-01-20T08:46:39.455Z</time>
      </trkpt>
      <trkpt lat="46.73682" lon="-1.99833">
        <ele>13.5</ele>
        <time>2025-01-20T08:46:40.455Z</time>
      </trkpt>
      <trkpt lat="46.73681" lon="-1.99834">
        <ele>13.6</ele>
        <time>2025-01-20T08:46:41.455Z</time>
      </trkpt>
      <trkpt lat="46.73681" lon="-1.99836">
        <ele>13.7</ele>
        <time>2025-01-20T08:46:42.455Z</time>
      </trkpt>
      <trkpt lat="46.7368" lon="-1.99837">
        <ele>13.8</ele>
        <time>2025-01-20T08:46:43.456Z</time>
      </trkpt>
      <trkpt lat="46.7368" lon="-1.99839">
        <ele>13.9</ele>
        <time>2025-01-20T08:46:44.455Z</time>
      </trkpt>
      <trkpt lat="46.7368" lon="-1.9984">
        <ele>14</ele>
        <time>2025-01-20T08:46:45.456Z</time>
      </trkpt>
      <trkpt lat="46.73679" lon="-1.99841">
        <ele>14.1</ele>
        <time>2025-01-20T08:46:46.456Z</time>
      </trkpt>
      <trkpt lat="46.73679" lon="-1.99843">
        <ele>14.2</ele>
        <time>2025-01-20T08:46:47.456Z</time>
      </trkpt>
      <trkpt lat="46.73678" lon="-1.99844">
        <ele>14.3</ele>
        <time>2025-01-20T08:46:48.456Z</time>
      </trkpt>
      <trkpt lat="46.73678" lon="-1.99844">
        <ele>14.3</ele>
        <time>2025-01-20T08:46:49.455Z</time>
      </trkpt>
      <trkpt lat="46.73678" lon="-1.99845">
        <ele>14.4</ele>
        <time>2025-01-20T08:46:50.455Z</time>
      </trkpt>
      <trkpt lat="46.73677" lon="-1.99846">
        <ele>14.5</ele>
        <time>2025-01-20T08:46:51.456Z</time>
      </trkpt>
      <trkpt lat="46.73677" lon="-1.99847">
        <ele>14.6</ele>
        <time>2025-01-20T08:46:52.456Z</time>
      </trkpt>
      <trkpt lat="46.73677" lon="-1.99848">
        <ele>14.7</ele>
        <time>2025-01-20T08:46:53.456Z</time>
      </trkpt>
      <trkpt lat="46.73676" lon="-1.99849">
        <ele>14.8</ele>
        <time>2025-01-20T08:46:54.456Z</time>
      </trkpt>
      <trkpt lat="46.73676" lon="-1.9985">
        <ele>14.9</ele>
        <time>2025-01-20T08:46:55.456Z</time>
      </trkpt>
      <trkpt lat="46.73675" lon="-1.99851">
        <ele>15.1</ele>
        <time>2025-01-20T08:46:56.456Z</time>
      </trkpt>
      <trkpt lat="46.73675" lon="-1.99852">
        <ele>15.2</ele>
        <time>2025-01-20T08:46:57.456Z</time>
      </trkpt>
      <trkpt lat="46.73675" lon="-1.99853">
        <ele>15.3</ele>
        <time>2025-01-20T08:46:58.456Z</time>
      </trkpt>
      <trkpt lat="46.73674" lon="-1.99854">
        <ele>15.5</ele>
        <time>2025-01-20T08:46:59.456Z</time>
      </trkpt>
      <trkpt lat="46.73674" lon="-1.99856">
        <ele>15.7</ele>
        <time>2025-01-20T08:47:00.456Z</time>
      </trkpt>
      <trkpt lat="46.73673" lon="-1.99857">
        <ele>15.9</ele>
        <time>2025-01-20T08:47:01.455Z</time>
      </trkpt>
      <trkpt lat="46.73672" lon="-1.99858">
        <ele>16.1</ele>
        <time>2025-01-20T08:47:02.456Z</time>
      </trkpt>
      <trkpt lat="46.73672" lon="-1.99859">
        <ele>16.2</ele>
        <time>2025-01-20T08:47:03.455Z</time>
      </trkpt>
      <trkpt lat="46.73671" lon="-1.99861">
        <ele>16.5</ele>
        <time>2025-01-20T08:47:04.456Z</time>
      </trkpt>
      <trkpt lat="46.7367" lon="-1.99862">
        <ele>16.6</ele>
        <time>2025-01-20T08:47:05.456Z</time>
      </trkpt>
      <trkpt lat="46.7367" lon="-1.99864">
        <ele>16.4</ele>
        <time>2025-01-20T08:47:06.455Z</time>
      </trkpt>
      <trkpt lat="46.73669" lon="-1.99865">
        <ele>16.4</ele>
        <time>2025-01-20T08:47:07.456Z</time>
      </trkpt>
      <trkpt lat="46.73669" lon="-1.99867">
        <ele>16.1</ele>
        <time>2025-01-20T08:47:08.456Z</time>
      </trkpt>
      <trkpt lat="46.73669" lon="-1.99869">
        <ele>15.9</ele>
        <time>2025-01-20T08:47:09.456Z</time>
      </trkpt>
      <trkpt lat="46.73669" lon="-1.99871">
        <ele>15.7</ele>
        <time>2025-01-20T08:47:10.455Z</time>
      </trkpt>
      <trkpt lat="46.7367" lon="-1.99872">
        <ele>15.6</ele>
        <time>2025-01-20T08:47:11.455Z</time>
      </trkpt>
      <trkpt lat="46.7367" lon="-1.99874">
        <ele>15.4</ele>
        <time>2025-01-20T08:47:12.455Z</time>
      </trkpt>
      <trkpt lat="46.73671" lon="-1.99876">
        <ele>15.1</ele>
        <time>2025-01-20T08:47:13.455Z</time>
      </trkpt>
      <trkpt lat="46.73671" lon="-1.99877">
        <ele>15</ele>
        <time>2025-01-20T08:47:14.455Z</time>
      </trkpt>
      <trkpt lat="46.73671" lon="-1.99879">
        <ele>14.8</ele>
        <time>2025-01-20T08:47:15.455Z</time>
      </trkpt>
      <trkpt lat="46.73672" lon="-1.9988">
        <ele>14.6</ele>
        <time>2025-01-20T08:47:16.456Z</time>
      </trkpt>
      <trkpt lat="46.73673" lon="-1.99882">
        <ele>14.4</ele>
        <time>2025-01-20T08:47:17.456Z</time>
      </trkpt>
      <trkpt lat="46.73673" lon="-1.99883">
        <ele>14.3</ele>
        <time>2025-01-20T08:47:18.456Z</time>
      </trkpt>
      <trkpt lat="46.73674" lon="-1.99884">
        <ele>14.2</ele>
        <time>2025-01-20T08:47:19.456Z</time>
      </trkpt>
      <trkpt lat="46.73674" lon="-1.99886">
        <ele>14</ele>
        <time>2025-01-20T08:47:20.456Z</time>
      </trkpt>
      <trkpt lat="46.73675" lon="-1.99887">
        <ele>13.9</ele>
        <time>2025-01-20T08:47:21.455Z</time>
      </trkpt>
      <trkpt lat="46.73675" lon="-1.99889">
        <ele>13.7</ele>
        <time>2025-01-20T08:47:22.455Z</time>
      </trkpt>
      <trkpt lat="46.73676" lon="-1.9989">
        <ele>13.5</ele>
        <time>2025-01-20T08:47:23.455Z</time>
      </trkpt>
      <trkpt lat="46.73676" lon="-1.99892">
        <ele>13.3</ele>
        <time>2025-01-20T08:47:24.455Z</time>
      </trkpt>
      <trkpt lat="46.73677" lon="-1.99892">
        <ele>13.3</ele>
        <time>2025-01-20T08:47:25.455Z</time>
      </trkpt>
      <trkpt lat="46.73677" lon="-1.99893">
        <ele>13.2</ele>
        <time>2025-01-20T08:47:26.456Z</time>
      </trkpt>
      <trkpt lat="46.73677" lon="-1.99894">
        <ele>13.1</ele>
        <time>2025-01-20T08:47:27.456Z</time>
      </trkpt>
      <trkpt lat="46.73677" lon="-1.99895">
        <ele>13</ele>
        <time>2025-01-20T08:47:28.456Z</time>
      </trkpt>
      <trkpt lat="46.73678" lon="-1.99897">
        <ele>12.8</ele>
        <time>2025-01-20T08:47:29.456Z</time>
      </trkpt>
      <trkpt lat="46.73678" lon="-1.99899">
        <ele>12.7</ele>
        <time>2025-01-20T08:47:30.455Z</time>
      </trkpt>
      <trkpt lat="46.73679" lon="-1.99901">
        <ele>12.5</ele>
        <time>2025-01-20T08:47:31.456Z</time>
      </trkpt>
      <trkpt lat="46.73679" lon="-1.99903">
        <ele>12.4</ele>
        <time>2025-01-20T08:47:32.455Z</time>
      </trkpt>
      <trkpt lat="46.7368" lon="-1.99905">
        <ele>12.3</ele>
        <time>2025-01-20T08:47:33.455Z</time>
      </trkpt>
      <trkpt lat="46.73681" lon="-1.99907">
        <ele>12.2</ele>
        <time>2025-01-20T08:47:34.455Z</time>
      </trkpt>
      <trkpt lat="46.73681" lon="-1.99909">
        <ele>12.1</ele>
        <time>2025-01-20T08:47:35.455Z</time>
      </trkpt>
      <trkpt lat="46.73682" lon="-1.99911">
        <ele>12.1</ele>
        <time>2025-01-20T08:47:36.455Z</time>
      </trkpt>
      <trkpt lat="46.73682" lon="-1.99913">
        <ele>12</ele>
        <time>2025-01-20T08:47:37.456Z</time>
      </trkpt>
      <trkpt lat="46.73683" lon="-1.99915">
        <ele>12</ele>
        <time>2025-01-20T08:47:38.455Z</time>
      </trkpt>
      <trkpt lat="46.73684" lon="-1.99916">
        <ele>12.2</ele>
        <time>2025-01-20T08:47:39.455Z</time>
      </trkpt>
      <trkpt lat="46.73684" lon="-1.99918">
        <ele>12</ele>
        <time>2025-01-20T08:47:40.455Z</time>
      </trkpt>
      <trkpt lat="46.73685" lon="-1.9992">
        <ele>11.9</ele>
        <time>2025-01-20T08:47:41.455Z</time>
      </trkpt>
      <trkpt lat="46.73685" lon="-1.99922">
        <ele>11.7</ele>
        <time>2025-01-20T08:47:42.456Z</time>
      </trkpt>
      <trkpt lat="46.73686" lon="-1.99924">
        <ele>11.6</ele>
        <time>2025-01-20T08:47:43.456Z</time>
      </trkpt>
      <trkpt lat="46.73687" lon="-1.99926">
        <ele>11.6</ele>
        <time>2025-01-20T08:47:44.455Z</time>
      </trkpt>
      <trkpt lat="46.73687" lon="-1.99928">
        <ele>11.3</ele>
        <time>2025-01-20T08:47:45.455Z</time>
      </trkpt>
      <trkpt lat="46.73688" lon="-1.9993">
        <ele>11.3</ele>
        <time>2025-01-20T08:47:46.456Z</time>
      </trkpt>
      <trkpt lat="46.73688" lon="-1.99932">
        <ele>11.1</ele>
        <time>2025-01-20T08:47:47.456Z</time>
      </trkpt>
      <trkpt lat="46.73689" lon="-1.99933">
        <ele>11.1</ele>
        <time>2025-01-20T08:47:48.455Z</time>
      </trkpt>
      <trkpt lat="46.73689" lon="-1.99935">
        <ele>10.9</ele>
        <time>2025-01-20T08:47:49.455Z</time>
      </trkpt>
      <trkpt lat="46.73689" lon="-1.99937">
        <ele>10.7</ele>
        <time>2025-01-20T08:47:50.455Z</time>
      </trkpt>
      <trkpt lat="46.73689" lon="-1.99939">
        <ele>10.5</ele>
        <time>2025-01-20T08:47:51.455Z</time>
      </trkpt>
      <trkpt lat="46.73689" lon="-1.99941">
        <ele>10.2</ele>
        <time>2025-01-20T08:47:52.456Z</time>
      </trkpt>
      <trkpt lat="46.73689" lon="-1.99943">
        <ele>10</ele>
        <time>2025-01-20T08:47:53.456Z</time>
      </trkpt>
      <trkpt lat="46.7369" lon="-1.99945">
        <ele>10</ele>
        <time>2025-01-20T08:47:54.456Z</time>
      </trkpt>
      <trkpt lat="46.73691" lon="-1.99947">
        <ele>10.2</ele>
        <time>2025-01-20T08:47:55.456Z</time>
      </trkpt>
      <trkpt lat="46.73692" lon="-1.99948">
        <ele>10.3</ele>
        <time>2025-01-20T08:47:56.456Z</time>
      </trkpt>
      <trkpt lat="46.73693" lon="-1.99949">
        <ele>10.5</ele>
        <time>2025-01-20T08:47:57.455Z</time>
      </trkpt>
      <trkpt lat="46.73694" lon="-1.99951">
        <ele>10.7</ele>
        <time>2025-01-20T08:47:58.456Z</time>
      </trkpt>
      <trkpt lat="46.73695" lon="-1.99952">
        <ele>10.8</ele>
        <time>2025-01-20T08:47:59.456Z</time>
      </trkpt>
      <trkpt lat="46.73695" lon="-1.99954">
        <ele>10.7</ele>
        <time>2025-01-20T08:48:00.456Z</time>
      </trkpt>
      <trkpt lat="46.73697" lon="-1.99955">
        <ele>11</ele>
        <time>2025-01-20T08:48:01.455Z</time>
      </trkpt>
      <trkpt lat="46.73698" lon="-1.99957">
        <ele>11.1</ele>
        <time>2025-01-20T08:48:02.455Z</time>
      </trkpt>
      <trkpt lat="46.73698" lon="-1.99958">
        <ele>11.1</ele>
        <time>2025-01-20T08:48:03.455Z</time>
      </trkpt>
      <trkpt lat="46.73699" lon="-1.99959">
        <ele>11.2</ele>
        <time>2025-01-20T08:48:04.456Z</time>
      </trkpt>
      <trkpt lat="46.737" lon="-1.99961">
        <ele>11.4</ele>
        <time>2025-01-20T08:48:05.456Z</time>
      </trkpt>
      <trkpt lat="46.737" lon="-1.99962">
        <ele>11.3</ele>
        <time>2025-01-20T08:48:06.456Z</time>
      </trkpt>
      <trkpt lat="46.73701" lon="-1.99964">
        <ele>11.5</ele>
        <time>2025-01-20T08:48:07.456Z</time>
      </trkpt>
      <trkpt lat="46.73701" lon="-1.99965">
        <ele>11.5</ele>
        <time>2025-01-20T08:48:08.456Z</time>
      </trkpt>
      <trkpt lat="46.73702" lon="-1.99967">
        <ele>11.7</ele>
        <time>2025-01-20T08:48:09.456Z</time>
      </trkpt>
      <trkpt lat="46.73702" lon="-1.99969">
        <ele>11.7</ele>
        <time>2025-01-20T08:48:10.455Z</time>
      </trkpt>
      <trkpt lat="46.73702" lon="-1.99971">
        <ele>11.6</ele>
        <time>2025-01-20T08:48:11.455Z</time>
      </trkpt>
      <trkpt lat="46.73703" lon="-1.99972">
        <ele>11.8</ele>
        <time>2025-01-20T08:48:12.455Z</time>
      </trkpt>
      <trkpt lat="46.73704" lon="-1.99974">
        <ele>12.2</ele>
        <time>2025-01-20T08:48:13.455Z</time>
      </trkpt>
      <trkpt lat="46.73704" lon="-1.99975">
        <ele>12.3</ele>
        <time>2025-01-20T08:48:14.455Z</time>
      </trkpt>
      <trkpt lat="46.73704" lon="-1.99976">
        <ele>12.4</ele>
        <time>2025-01-20T08:48:15.455Z</time>
      </trkpt>
      <trkpt lat="46.73705" lon="-1.99977">
        <ele>12.7</ele>
        <time>2025-01-20T08:48:16.456Z</time>
      </trkpt>
      <trkpt lat="46.73705" lon="-1.99979">
        <ele>12.8</ele>
        <time>2025-01-20T08:48:17.456Z</time>
      </trkpt>
      <trkpt lat="46.73705" lon="-1.9998">
        <ele>12.9</ele>
        <time>2025-01-20T08:48:18.456Z</time>
      </trkpt>
      <trkpt lat="46.73706" lon="-1.99982">
        <ele>13.3</ele>
        <time>2025-01-20T08:48:19.455Z</time>
      </trkpt>
      <trkpt lat="46.73707" lon="-1.99983">
        <ele>13.5</ele>
        <time>2025-01-20T08:48:20.455Z</time>
      </trkpt>
      <trkpt lat="46.73707" lon="-1.99985">
        <ele>13.7</ele>
        <time>2025-01-20T08:48:21.455Z</time>
      </trkpt>
      <trkpt lat="46.73708" lon="-1.99987">
        <ele>14</ele>
        <time>2025-01-20T08:48:22.455Z</time>
      </trkpt>
      <trkpt lat="46.73708" lon="-1.99988">
        <ele>14.1</ele>
        <time>2025-01-20T08:48:23.456Z</time>
      </trkpt>
      <trkpt lat="46.73708" lon="-1.99989">
        <ele>14.2</ele>
        <time>2025-01-20T08:48:24.456Z</time>
      </trkpt>
      <trkpt lat="46.73709" lon="-1.99991">
        <ele>14.5</ele>
        <time>2025-01-20T08:48:25.455Z</time>
      </trkpt>
      <trkpt lat="46.73709" lon="-1.99993">
        <ele>14.6</ele>
        <time>2025-01-20T08:48:26.455Z</time>
      </trkpt>
      <trkpt lat="46.7371" lon="-1.99995">
        <ele>14.9</ele>
        <time>2025-01-20T08:48:27.455Z</time>
      </trkpt>
      <trkpt lat="46.73711" lon="-1.99996">
        <ele>15.1</ele>
        <time>2025-01-20T08:48:28.455Z</time>
      </trkpt>
      <trkpt lat="46.73711" lon="-1.99998">
        <ele>15.3</ele>
        <time>2025-01-20T08:48:29.455Z</time>
      </trkpt>
      <trkpt lat="46.73712" lon="-2">
        <ele>15.5</ele>
        <time>2025-01-20T08:48:30.456Z</time>
      </trkpt>
      <trkpt lat="46.73712" lon="-2.00001">
        <ele>15.5</ele>
        <time>2025-01-20T08:48:31.456Z</time>
      </trkpt>
      <trkpt lat="46.73712" lon="-2.00003">
        <ele>15.4</ele>
        <time>2025-01-20T08:48:32.456Z</time>
      </trkpt>
      <trkpt lat="46.73713" lon="-2.00004">
        <ele>15.4</ele>
        <time>2025-01-20T08:48:33.455Z</time>
      </trkpt>
      <trkpt lat="46.73713" lon="-2.00006">
        <ele>15.3</ele>
        <time>2025-01-20T08:48:34.456Z</time>
      </trkpt>
      <trkpt lat="46.73713" lon="-2.00007">
        <ele>15.3</ele>
        <time>2025-01-20T08:48:35.455Z</time>
      </trkpt>
      <trkpt lat="46.73713" lon="-2.00008">
        <ele>15.2</ele>
        <time>2025-01-20T08:48:36.455Z</time>
      </trkpt>
      <trkpt lat="46.73714" lon="-2.00008">
        <ele>15.3</ele>
        <time>2025-01-20T08:48:37.455Z</time>
      </trkpt>
      <trkpt lat="46.73714" lon="-2.00008">
        <ele>15.3</ele>
        <time>2025-01-20T08:48:38.455Z</time>
      </trkpt>
      <trkpt lat="46.73714" lon="-2.00009">
        <ele>15.3</ele>
        <time>2025-01-20T08:48:39.456Z</time>
      </trkpt>
      <trkpt lat="46.73714" lon="-2.0001">
        <ele>15.2</ele>
        <time>2025-01-20T08:48:40.456Z</time>
      </trkpt>
      <trkpt lat="46.73714" lon="-2.00011">
        <ele>15.1</ele>
        <time>2025-01-20T08:48:41.456Z</time>
      </trkpt>
      <trkpt lat="46.73714" lon="-2.00012">
        <ele>15.1</ele>
        <time>2025-01-20T08:48:42.455Z</time>
      </trkpt>
      <trkpt lat="46.73715" lon="-2.00013">
        <ele>15.1</ele>
        <time>2025-01-20T08:48:43.455Z</time>
      </trkpt>
      <trkpt lat="46.73715" lon="-2.00015">
        <ele>15</ele>
        <time>2025-01-20T08:48:44.455Z</time>
      </trkpt>
      <trkpt lat="46.73716" lon="-2.00017">
        <ele>15</ele>
        <time>2025-01-20T08:48:45.456Z</time>
      </trkpt>
      <trkpt lat="46.73717" lon="-2.00018">
        <ele>15.1</ele>
        <time>2025-01-20T08:48:46.456Z</time>
      </trkpt>
      <trkpt lat="46.73718" lon="-2.0002">
        <ele>15.1</ele>
        <time>2025-01-20T08:48:47.456Z</time>
      </trkpt>
      <trkpt lat="46.73719" lon="-2.00022">
        <ele>15</ele>
        <time>2025-01-20T08:48:48.456Z</time>
      </trkpt>
      <trkpt lat="46.7372" lon="-2.00023">
        <ele>15.1</ele>
        <time>2025-01-20T08:48:49.456Z</time>
      </trkpt>
      <trkpt lat="46.73721" lon="-2.00024">
        <ele>15.1</ele>
        <time>2025-01-20T08:48:50.455Z</time>
      </trkpt>
      <trkpt lat="46.73722" lon="-2.00026">
        <ele>15.1</ele>
        <time>2025-01-20T08:48:51.455Z</time>
      </trkpt>
      <trkpt lat="46.73723" lon="-2.00028">
        <ele>14.8</ele>
        <time>2025-01-20T08:48:52.455Z</time>
      </trkpt>
      <trkpt lat="46.73723" lon="-2.00029">
        <ele>14.6</ele>
        <time>2025-01-20T08:48:53.455Z</time>
      </trkpt>
      <trkpt lat="46.73724" lon="-2.00031">
        <ele>14.1</ele>
        <time>2025-01-20T08:48:54.456Z</time>
      </trkpt>
      <trkpt lat="46.73725" lon="-2.00032">
        <ele>13.8</ele>
        <time>2025-01-20T08:48:55.456Z</time>
      </trkpt>
      <trkpt lat="46.73726" lon="-2.00034">
        <ele>13.3</ele>
        <time>2025-01-20T08:48:56.456Z</time>
      </trkpt>
      <trkpt lat="46.73727" lon="-2.00035">
        <ele>13.1</ele>
        <time>2025-01-20T08:48:57.455Z</time>
      </trkpt>
      <trkpt lat="46.73728" lon="-2.00036">
        <ele>12.8</ele>
        <time>2025-01-20T08:48:58.456Z</time>
      </trkpt>
      <trkpt lat="46.73729" lon="-2.00037">
        <ele>12.6</ele>
        <time>2025-01-20T08:48:59.455Z</time>
      </trkpt>
      <trkpt lat="46.7373" lon="-2.00037">
        <ele>12.5</ele>
        <time>2025-01-20T08:49:00.455Z</time>
      </trkpt>
      <trkpt lat="46.73731" lon="-2.00038">
        <ele>12.3</ele>
        <time>2025-01-20T08:49:01.455Z</time>
      </trkpt>
      <trkpt lat="46.73732" lon="-2.00039">
        <ele>12.2</ele>
        <time>2025-01-20T08:49:02.456Z</time>
      </trkpt>
      <trkpt lat="46.73734" lon="-2.00039">
        <ele>12.1</ele>
        <time>2025-01-20T08:49:03.456Z</time>
      </trkpt>
      <trkpt lat="46.73735" lon="-2.00039">
        <ele>12</ele>
        <time>2025-01-20T08:49:04.455Z</time>
      </trkpt>
      <trkpt lat="46.73737" lon="-2.0004">
        <ele>11.9</ele>
        <time>2025-01-20T08:49:05.456Z</time>
      </trkpt>
      <trkpt lat="46.73738" lon="-2.00041">
        <ele>11.8</ele>
        <time>2025-01-20T08:49:06.455Z</time>
      </trkpt>
      <trkpt lat="46.7374" lon="-2.00042">
        <ele>11.7</ele>
        <time>2025-01-20T08:49:07.456Z</time>
      </trkpt>
      <trkpt lat="46.73741" lon="-2.00043">
        <ele>11.6</ele>
        <time>2025-01-20T08:49:08.455Z</time>
      </trkpt>
      <trkpt lat="46.73742" lon="-2.00044">
        <ele>11.6</ele>
        <time>2025-01-20T08:49:09.456Z</time>
      </trkpt>
      <trkpt lat="46.73743" lon="-2.00045">
        <ele>11.5</ele>
        <time>2025-01-20T08:49:10.455Z</time>
      </trkpt>
      <trkpt lat="46.73744" lon="-2.00046">
        <ele>11.5</ele>
        <time>2025-01-20T08:49:11.455Z</time>
      </trkpt>
      <trkpt lat="46.73746" lon="-2.00048">
        <ele>11.6</ele>
        <time>2025-01-20T08:49:12.455Z</time>
      </trkpt>
      <trkpt lat="46.73747" lon="-2.00049">
        <ele>11.6</ele>
        <time>2025-01-20T08:49:13.456Z</time>
      </trkpt>
      <trkpt lat="46.73748" lon="-2.0005">
        <ele>11.7</ele>
        <time>2025-01-20T08:49:14.455Z</time>
      </trkpt>
      <trkpt lat="46.73749" lon="-2.00051">
        <ele>11.8</ele>
        <time>2025-01-20T08:49:15.456Z</time>
      </trkpt>
      <trkpt lat="46.7375" lon="-2.00052">
        <ele>11.9</ele>
        <time>2025-01-20T08:49:16.455Z</time>
      </trkpt>
      <trkpt lat="46.73751" lon="-2.00053">
        <ele>11.8</ele>
        <time>2025-01-20T08:49:17.455Z</time>
      </trkpt>
      <trkpt lat="46.73752" lon="-2.00054">
        <ele>11.7</ele>
        <time>2025-01-20T08:49:18.455Z</time>
      </trkpt>
      <trkpt lat="46.73753" lon="-2.00055">
        <ele>11.7</ele>
        <time>2025-01-20T08:49:19.455Z</time>
      </trkpt>
      <trkpt lat="46.73755" lon="-2.00056">
        <ele>11.4</ele>
        <time>2025-01-20T08:49:20.455Z</time>
      </trkpt>
      <trkpt lat="46.73756" lon="-2.00058">
        <ele>11.1</ele>
        <time>2025-01-20T08:49:21.456Z</time>
      </trkpt>
      <trkpt lat="46.73757" lon="-2.00059">
        <ele>11</ele>
        <time>2025-01-20T08:49:22.456Z</time>
      </trkpt>
      <trkpt lat="46.73758" lon="-2.00059">
        <ele>10.9</ele>
        <time>2025-01-20T08:49:23.456Z</time>
      </trkpt>
      <trkpt lat="46.7376" lon="-2.0006">
        <ele>10.6</ele>
        <time>2025-01-20T08:49:24.456Z</time>
      </trkpt>
      <trkpt lat="46.73761" lon="-2.00061">
        <ele>10.5</ele>
        <time>2025-01-20T08:49:25.456Z</time>
      </trkpt>
      <trkpt lat="46.73762" lon="-2.00062">
        <ele>10.3</ele>
        <time>2025-01-20T08:49:26.456Z</time>
      </trkpt>
      <trkpt lat="46.73763" lon="-2.00063">
        <ele>10.2</ele>
        <time>2025-01-20T08:49:27.455Z</time>
      </trkpt>
      <trkpt lat="46.73764" lon="-2.00065">
        <ele>10</ele>
        <time>2025-01-20T08:49:28.455Z</time>
      </trkpt>
      <trkpt lat="46.73765" lon="-2.00066">
        <ele>9.9</ele>
        <time>2025-01-20T08:49:29.456Z</time>
      </trkpt>
      <trkpt lat="46.73766" lon="-2.00067">
        <ele>9.7</ele>
        <time>2025-01-20T08:49:30.455Z</time>
      </trkpt>
      <trkpt lat="46.73767" lon="-2.00069">
        <ele>9.6</ele>
        <time>2025-01-20T08:49:31.456Z</time>
      </trkpt>
      <trkpt lat="46.73768" lon="-2.0007">
        <ele>9.5</ele>
        <time>2025-01-20T08:49:32.455Z</time>
      </trkpt>
      <trkpt lat="46.73769" lon="-2.00071">
        <ele>9.4</ele>
        <time>2025-01-20T08:49:33.456Z</time>
      </trkpt>
      <trkpt lat="46.7377" lon="-2.00072">
        <ele>9.3</ele>
        <time>2025-01-20T08:49:34.456Z</time>
      </trkpt>
      <trkpt lat="46.73771" lon="-2.00073">
        <ele>9.3</ele>
        <time>2025-01-20T08:49:35.456Z</time>
      </trkpt>
      <trkpt lat="46.73773" lon="-2.00075">
        <ele>9.2</ele>
        <time>2025-01-20T08:49:36.456Z</time>
      </trkpt>
      <trkpt lat="46.73774" lon="-2.00076">
        <ele>9.1</ele>
        <time>2025-01-20T08:49:37.455Z</time>
      </trkpt>
      <trkpt lat="46.73775" lon="-2.00077">
        <ele>9.1</ele>
        <time>2025-01-20T08:49:38.455Z</time>
      </trkpt>
      <trkpt lat="46.73775" lon="-2.00078">
        <ele>9.1</ele>
        <time>2025-01-20T08:49:39.455Z</time>
      </trkpt>
      <trkpt lat="46.73776" lon="-2.0008">
        <ele>9</ele>
        <time>2025-01-20T08:49:40.455Z</time>
      </trkpt>
      <trkpt lat="46.73776" lon="-2.00081">
        <ele>9</ele>
        <time>2025-01-20T08:49:41.455Z</time>
      </trkpt>
      <trkpt lat="46.73776" lon="-2.00083">
        <ele>9</ele>
        <time>2025-01-20T08:49:42.456Z</time>
      </trkpt>
      <trkpt lat="46.73777" lon="-2.00084">
        <ele>9</ele>
        <time>2025-01-20T08:49:43.456Z</time>
      </trkpt>
      <trkpt lat="46.73776" lon="-2.00086">
        <ele>9.1</ele>
        <time>2025-01-20T08:49:44.455Z</time>
      </trkpt>
      <trkpt lat="46.73776" lon="-2.00087">
        <ele>9.1</ele>
        <time>2025-01-20T08:49:45.456Z</time>
      </trkpt>
      <trkpt lat="46.73775" lon="-2.00088">
        <ele>9.1</ele>
        <time>2025-01-20T08:49:46.456Z</time>
      </trkpt>
      <trkpt lat="46.73775" lon="-2.00089">
        <ele>9.1</ele>
        <time>2025-01-20T08:49:47.456Z</time>
      </trkpt>
      <trkpt lat="46.73774" lon="-2.0009">
        <ele>9.1</ele>
        <time>2025-01-20T08:49:48.455Z</time>
      </trkpt>
      <trkpt lat="46.73772" lon="-2.00091">
        <ele>9.1</ele>
        <time>2025-01-20T08:49:49.455Z</time>
      </trkpt>
      <trkpt lat="46.73771" lon="-2.00092">
        <ele>9.1</ele>
        <time>2025-01-20T08:49:50.455Z</time>
      </trkpt>
      <trkpt lat="46.7377" lon="-2.00093">
        <ele>9.1</ele>
        <time>2025-01-20T08:49:51.455Z</time>
      </trkpt>
      <trkpt lat="46.73768" lon="-2.00094">
        <ele>9</ele>
        <time>2025-01-20T08:49:52.456Z</time>
      </trkpt>
      <trkpt lat="46.73767" lon="-2.00095">
        <ele>8.9</ele>
        <time>2025-01-20T08:49:53.456Z</time>
      </trkpt>
      <trkpt lat="46.73766" lon="-2.00096">
        <ele>8.9</ele>
        <time>2025-01-20T08:49:54.456Z</time>
      </trkpt>
      <trkpt lat="46.73765" lon="-2.00097">
        <ele>8.8</ele>
        <time>2025-01-20T08:49:55.456Z</time>
      </trkpt>
      <trkpt lat="46.73763" lon="-2.00098">
        <ele>8.7</ele>
        <time>2025-01-20T08:49:56.456Z</time>
      </trkpt>
      <trkpt lat="46.73762" lon="-2.00099">
        <ele>8.6</ele>
        <time>2025-01-20T08:49:57.456Z</time>
      </trkpt>
      <trkpt lat="46.73761" lon="-2.001">
        <ele>8.5</ele>
        <time>2025-01-20T08:49:58.455Z</time>
      </trkpt>
      <trkpt lat="46.7376" lon="-2.00101">
        <ele>8.4</ele>
        <time>2025-01-20T08:49:59.455Z</time>
      </trkpt>
      <trkpt lat="46.73759" lon="-2.00103">
        <ele>8.3</ele>
        <time>2025-01-20T08:50:00.455Z</time>
      </trkpt>
      <trkpt lat="46.73758" lon="-2.00104">
        <ele>8.2</ele>
        <time>2025-01-20T08:50:01.456Z</time>
      </trkpt>
      <trkpt lat="46.73756" lon="-2.00105">
        <ele>7.9</ele>
        <time>2025-01-20T08:50:02.455Z</time>
      </trkpt>
      <trkpt lat="46.73755" lon="-2.00106">
        <ele>7.8</ele>
        <time>2025-01-20T08:50:03.456Z</time>
      </trkpt>
      <trkpt lat="46.73754" lon="-2.00107">
        <ele>7.7</ele>
        <time>2025-01-20T08:50:04.456Z</time>
      </trkpt>
      <trkpt lat="46.73753" lon="-2.00108">
        <ele>7.5</ele>
        <time>2025-01-20T08:50:05.455Z</time>
      </trkpt>
      <trkpt lat="46.73752" lon="-2.00109">
        <ele>7.4</ele>
        <time>2025-01-20T08:50:06.455Z</time>
      </trkpt>
      <trkpt lat="46.73751" lon="-2.0011">
        <ele>7.2</ele>
        <time>2025-01-20T08:50:07.455Z</time>
      </trkpt>
      <trkpt lat="46.7375" lon="-2.00111">
        <ele>7</ele>
        <time>2025-01-20T08:50:08.456Z</time>
      </trkpt>
      <trkpt lat="46.73749" lon="-2.00112">
        <ele>7</ele>
        <time>2025-01-20T08:50:09.455Z</time>
      </trkpt>
      <trkpt lat="46.73748" lon="-2.00114">
        <ele>7.1</ele>
        <time>2025-01-20T08:50:10.455Z</time>
      </trkpt>
      <trkpt lat="46.73746" lon="-2.00115">
        <ele>7.1</ele>
        <time>2025-01-20T08:50:11.455Z</time>
      </trkpt>
      <trkpt lat="46.73745" lon="-2.00116">
        <ele>7</ele>
        <time>2025-01-20T08:50:12.456Z</time>
      </trkpt>
      <trkpt lat="46.73744" lon="-2.00117">
        <ele>7</ele>
        <time>2025-01-20T08:50:13.456Z</time>
      </trkpt>
      <trkpt lat="46.73742" lon="-2.00119">
        <ele>6.9</ele>
        <time>2025-01-20T08:50:14.456Z</time>
      </trkpt>
      <trkpt lat="46.73741" lon="-2.0012">
        <ele>6.9</ele>
        <time>2025-01-20T08:50:15.456Z</time>
      </trkpt>
      <trkpt lat="46.7374" lon="-2.00121">
        <ele>6.8</ele>
        <time>2025-01-20T08:50:16.455Z</time>
      </trkpt>
      <trkpt lat="46.73739" lon="-2.00122">
        <ele>6.8</ele>
        <time>2025-01-20T08:50:17.456Z</time>
      </trkpt>
      <trkpt lat="46.73738" lon="-2.00123">
        <ele>6.7</ele>
        <time>2025-01-20T08:50:18.455Z</time>
      </trkpt>
      <trkpt lat="46.73737" lon="-2.00124">
        <ele>6.6</ele>
        <time>2025-01-20T08:50:19.456Z</time>
      </trkpt>
      <trkpt lat="46.73736" lon="-2.00125">
        <ele>6.5</ele>
        <time>2025-01-20T08:50:20.455Z</time>
      </trkpt>
      <trkpt lat="46.73734" lon="-2.00126">
        <ele>6.2</ele>
        <time>2025-01-20T08:50:21.455Z</time>
      </trkpt>
      <trkpt lat="46.73733" lon="-2.00127">
        <ele>6.1</ele>
        <time>2025-01-20T08:50:22.455Z</time>
      </trkpt>
      <trkpt lat="46.73732" lon="-2.00129">
        <ele>6</ele>
        <time>2025-01-20T08:50:23.456Z</time>
      </trkpt>
      <trkpt lat="46.73731" lon="-2.0013">
        <ele>5.8</ele>
        <time>2025-01-20T08:50:24.456Z</time>
      </trkpt>
      <trkpt lat="46.73729" lon="-2.00131">
        <ele>5.5</ele>
        <time>2025-01-20T08:50:25.455Z</time>
      </trkpt>
      <trkpt lat="46.73728" lon="-2.00132">
        <ele>5.3</ele>
        <time>2025-01-20T08:50:26.456Z</time>
      </trkpt>
      <trkpt lat="46.73727" lon="-2.00134">
        <ele>5.1</ele>
        <time>2025-01-20T08:50:27.456Z</time>
      </trkpt>
      <trkpt lat="46.73726" lon="-2.00135">
        <ele>4.9</ele>
        <time>2025-01-20T08:50:28.455Z</time>
      </trkpt>
      <trkpt lat="46.73725" lon="-2.00136">
        <ele>4.7</ele>
        <time>2025-01-20T08:50:29.455Z</time>
      </trkpt>
      <trkpt lat="46.73723" lon="-2.00137">
        <ele>4.2</ele>
        <time>2025-01-20T08:50:30.456Z</time>
      </trkpt>
      <trkpt lat="46.73723" lon="-2.00138">
        <ele>4.2</ele>
        <time>2025-01-20T08:50:31.456Z</time>
      </trkpt>
      <trkpt lat="46.73722" lon="-2.00139">
        <ele>4</ele>
        <time>2025-01-20T08:50:32.455Z</time>
      </trkpt>
      <trkpt lat="46.73721" lon="-2.0014">
        <ele>4.1</ele>
        <time>2025-01-20T08:50:33.455Z</time>
      </trkpt>
      <trkpt lat="46.73719" lon="-2.00141">
        <ele>4.1</ele>
        <time>2025-01-20T08:50:34.455Z</time>
      </trkpt>
      <trkpt lat="46.73718" lon="-2.00142">
        <ele>4.2</ele>
        <time>2025-01-20T08:50:35.455Z</time>
      </trkpt>
      <trkpt lat="46.73717" lon="-2.00143">
        <ele>4.2</ele>
        <time>2025-01-20T08:50:36.456Z</time>
      </trkpt>
      <trkpt lat="46.73716" lon="-2.00145">
        <ele>4.3</ele>
        <time>2025-01-20T08:50:37.455Z</time>
      </trkpt>
      <trkpt lat="46.73715" lon="-2.00146">
        <ele>4.4</ele>
        <time>2025-01-20T08:50:38.456Z</time>
      </trkpt>
      <trkpt lat="46.73714" lon="-2.00147">
        <ele>4.4</ele>
        <time>2025-01-20T08:50:39.456Z</time>
      </trkpt>
      <trkpt lat="46.73712" lon="-2.00148">
        <ele>4.4</ele>
        <time>2025-01-20T08:50:40.455Z</time>
      </trkpt>
      <trkpt lat="46.73711" lon="-2.00149">
        <ele>4.4</ele>
        <time>2025-01-20T08:50:41.456Z</time>
      </trkpt>
      <trkpt lat="46.7371" lon="-2.0015">
        <ele>4.4</ele>
        <time>2025-01-20T08:50:42.455Z</time>
      </trkpt>
      <trkpt lat="46.73709" lon="-2.00151">
        <ele>4.5</ele>
        <time>2025-01-20T08:50:43.455Z</time>
      </trkpt>
      <trkpt lat="46.73708" lon="-2.00153">
        <ele>4.5</ele>
        <time>2025-01-20T08:50:44.456Z</time>
      </trkpt>
      <trkpt lat="46.73707" lon="-2.00154">
        <ele>4.5</ele>
        <time>2025-01-20T08:50:45.456Z</time>
      </trkpt>
      <trkpt lat="46.73706" lon="-2.00155">
        <ele>4.5</ele>
        <time>2025-01-20T08:50:46.456Z</time>
      </trkpt>
      <trkpt lat="46.73705" lon="-2.00155">
        <ele>4.4</ele>
        <time>2025-01-20T08:50:47.455Z</time>
      </trkpt>
      <trkpt lat="46.73705" lon="-2.00156">
        <ele>4.5</ele>
        <time>2025-01-20T08:50:48.455Z</time>
      </trkpt>
      <trkpt lat="46.73704" lon="-2.00156">
        <ele>4.4</ele>
        <time>2025-01-20T08:50:49.456Z</time>
      </trkpt>
      <trkpt lat="46.73703" lon="-2.00158">
        <ele>4.4</ele>
        <time>2025-01-20T08:50:50.456Z</time>
      </trkpt>
      <trkpt lat="46.73702" lon="-2.00159">
        <ele>4.4</ele>
        <time>2025-01-20T08:50:51.455Z</time>
      </trkpt>
      <trkpt lat="46.73701" lon="-2.00161">
        <ele>4.4</ele>
        <time>2025-01-20T08:50:52.455Z</time>
      </trkpt>
      <trkpt lat="46.737" lon="-2.00162">
        <ele>4.3</ele>
        <time>2025-01-20T08:50:53.455Z</time>
      </trkpt>
      <trkpt lat="46.73699" lon="-2.00164">
        <ele>4.3</ele>
        <time>2025-01-20T08:50:54.455Z</time>
      </trkpt>
      <trkpt lat="46.73698" lon="-2.00165">
        <ele>4.2</ele>
        <time>2025-01-20T08:50:55.456Z</time>
      </trkpt>
      <trkpt lat="46.73697" lon="-2.00166">
        <ele>4.2</ele>
        <time>2025-01-20T08:50:56.455Z</time>
      </trkpt>
      <trkpt lat="46.73696" lon="-2.00167">
        <ele>4.1</ele>
        <time>2025-01-20T08:50:57.456Z</time>
      </trkpt>
      <trkpt lat="46.73695" lon="-2.00168">
        <ele>4</ele>
        <time>2025-01-20T08:50:58.455Z</time>
      </trkpt>
      <trkpt lat="46.73694" lon="-2.00169">
        <ele>4</ele>
        <time>2025-01-20T08:50:59.456Z</time>
      </trkpt>
      <trkpt lat="46.73692" lon="-2.0017">
        <ele>4.2</ele>
        <time>2025-01-20T08:51:00.455Z</time>
      </trkpt>
      <trkpt lat="46.73691" lon="-2.00172">
        <ele>4.2</ele>
        <time>2025-01-20T08:51:01.456Z</time>
      </trkpt>
      <trkpt lat="46.7369" lon="-2.00173">
        <ele>4.3</ele>
        <time>2025-01-20T08:51:02.456Z</time>
      </trkpt>
      <trkpt lat="46.73689" lon="-2.00173">
        <ele>4.3</ele>
        <time>2025-01-20T08:51:03.455Z</time>
      </trkpt>
      <trkpt lat="46.73688" lon="-2.00174">
        <ele>4.4</ele>
        <time>2025-01-20T08:51:04.456Z</time>
      </trkpt>
      <trkpt lat="46.73686" lon="-2.00175">
        <ele>4.5</ele>
        <time>2025-01-20T08:51:05.455Z</time>
      </trkpt>
      <trkpt lat="46.73685" lon="-2.00176">
        <ele>4.6</ele>
        <time>2025-01-20T08:51:06.455Z</time>
      </trkpt>
      <trkpt lat="46.73684" lon="-2.00177">
        <ele>4.6</ele>
        <time>2025-01-20T08:51:07.456Z</time>
      </trkpt>
      <trkpt lat="46.73683" lon="-2.00177">
        <ele>4.7</ele>
        <time>2025-01-20T08:51:08.456Z</time>
      </trkpt>
      <trkpt lat="46.73682" lon="-2.00178">
        <ele>4.7</ele>
        <time>2025-01-20T08:51:09.456Z</time>
      </trkpt>
      <trkpt lat="46.7368" lon="-2.00179">
        <ele>4.8</ele>
        <time>2025-01-20T08:51:10.456Z</time>
      </trkpt>
      <trkpt lat="46.73679" lon="-2.00179">
        <ele>4.9</ele>
        <time>2025-01-20T08:51:11.455Z</time>
      </trkpt>
      <trkpt lat="46.73678" lon="-2.0018">
        <ele>4.9</ele>
        <time>2025-01-20T08:51:12.455Z</time>
      </trkpt>
      <trkpt lat="46.73676" lon="-2.0018">
        <ele>5</ele>
        <time>2025-01-20T08:51:13.455Z</time>
      </trkpt>
      <trkpt lat="46.73675" lon="-2.00181">
        <ele>5</ele>
        <time>2025-01-20T08:51:14.455Z</time>
      </trkpt>
      <trkpt lat="46.73674" lon="-2.00182">
        <ele>5.1</ele>
        <time>2025-01-20T08:51:15.456Z</time>
      </trkpt>
      <trkpt lat="46.73673" lon="-2.00182">
        <ele>5.1</ele>
        <time>2025-01-20T08:51:16.455Z</time>
      </trkpt>
      <trkpt lat="46.73672" lon="-2.00183">
        <ele>5.1</ele>
        <time>2025-01-20T08:51:17.455Z</time>
      </trkpt>
      <trkpt lat="46.7367" lon="-2.00184">
        <ele>5.2</ele>
        <time>2025-01-20T08:51:18.455Z</time>
      </trkpt>
      <trkpt lat="46.73669" lon="-2.00184">
        <ele>5.3</ele>
        <time>2025-01-20T08:51:19.455Z</time>
      </trkpt>
      <trkpt lat="46.73667" lon="-2.00184">
        <ele>5.4</ele>
        <time>2025-01-20T08:51:20.456Z</time>
      </trkpt>
      <trkpt lat="46.73666" lon="-2.00185">
        <ele>5.3</ele>
        <time>2025-01-20T08:51:21.456Z</time>
      </trkpt>
      <trkpt lat="46.73665" lon="-2.00185">
        <ele>5.3</ele>
        <time>2025-01-20T08:51:22.455Z</time>
      </trkpt>
      <trkpt lat="46.73663" lon="-2.00186">
        <ele>5.3</ele>
        <time>2025-01-20T08:51:23.456Z</time>
      </trkpt>
      <trkpt lat="46.73662" lon="-2.00187">
        <ele>5.3</ele>
        <time>2025-01-20T08:51:24.456Z</time>
      </trkpt>
      <trkpt lat="46.73661" lon="-2.00187">
        <ele>5.3</ele>
        <time>2025-01-20T08:51:25.455Z</time>
      </trkpt>
      <trkpt lat="46.7366" lon="-2.00188">
        <ele>5.2</ele>
        <time>2025-01-20T08:51:26.456Z</time>
      </trkpt>
      <trkpt lat="46.73659" lon="-2.00189">
        <ele>5.2</ele>
        <time>2025-01-20T08:51:27.456Z</time>
      </trkpt>
      <trkpt lat="46.73658" lon="-2.0019">
        <ele>5.2</ele>
        <time>2025-01-20T08:51:28.456Z</time>
      </trkpt>
      <trkpt lat="46.73657" lon="-2.00191">
        <ele>5.1</ele>
        <time>2025-01-20T08:51:29.456Z</time>
      </trkpt>
      <trkpt lat="46.73655" lon="-2.00191">
        <ele>5.1</ele>
        <time>2025-01-20T08:51:30.455Z</time>
      </trkpt>
      <trkpt lat="46.73654" lon="-2.00192">
        <ele>5.1</ele>
        <time>2025-01-20T08:51:31.455Z</time>
      </trkpt>
      <trkpt lat="46.73653" lon="-2.00193">
        <ele>5.1</ele>
        <time>2025-01-20T08:51:32.455Z</time>
      </trkpt>
      <trkpt lat="46.73652" lon="-2.00193">
        <ele>5.1</ele>
        <time>2025-01-20T08:51:33.455Z</time>
      </trkpt>
      <trkpt lat="46.73651" lon="-2.00193">
        <ele>5.1</ele>
        <time>2025-01-20T08:51:34.456Z</time>
      </trkpt>
      <trkpt lat="46.73649" lon="-2.00193">
        <ele>5.1</ele>
        <time>2025-01-20T08:51:35.455Z</time>
      </trkpt>
      <trkpt lat="46.73648" lon="-2.00193">
        <ele>5.1</ele>
        <time>2025-01-20T08:51:36.455Z</time>
      </trkpt>
      <trkpt lat="46.73647" lon="-2.00192">
        <ele>5.1</ele>
        <time>2025-01-20T08:51:37.455Z</time>
      </trkpt>
      <trkpt lat="46.73646" lon="-2.00191">
        <ele>5.1</ele>
        <time>2025-01-20T08:51:38.456Z</time>
      </trkpt>
      <trkpt lat="46.73645" lon="-2.0019">
        <ele>5.2</ele>
        <time>2025-01-20T08:51:39.456Z</time>
      </trkpt>
      <trkpt lat="46.73644" lon="-2.00189">
        <ele>5.2</ele>
        <time>2025-01-20T08:51:40.456Z</time>
      </trkpt>
      <trkpt lat="46.73643" lon="-2.00188">
        <ele>5.2</ele>
        <time>2025-01-20T08:51:41.456Z</time>
      </trkpt>
      <trkpt lat="46.73642" lon="-2.00187">
        <ele>5.3</ele>
        <time>2025-01-20T08:51:42.456Z</time>
      </trkpt>
      <trkpt lat="46.73641" lon="-2.00185">
        <ele>5.3</ele>
        <time>2025-01-20T08:51:43.456Z</time>
      </trkpt>
      <trkpt lat="46.73641" lon="-2.00184">
        <ele>5.4</ele>
        <time>2025-01-20T08:51:44.455Z</time>
      </trkpt>
      <trkpt lat="46.7364" lon="-2.00182">
        <ele>5.4</ele>
        <time>2025-01-20T08:51:45.455Z</time>
      </trkpt>
      <trkpt lat="46.73639" lon="-2.00181">
        <ele>5.5</ele>
        <time>2025-01-20T08:51:46.455Z</time>
      </trkpt>
      <trkpt lat="46.73639" lon="-2.00179">
        <ele>5.6</ele>
        <time>2025-01-20T08:51:47.456Z</time>
      </trkpt>
      <trkpt lat="46.73638" lon="-2.00178">
        <ele>5.6</ele>
        <time>2025-01-20T08:51:48.456Z</time>
      </trkpt>
      <trkpt lat="46.73637" lon="-2.00176">
        <ele>5.6</ele>
        <time>2025-01-20T08:51:49.456Z</time>
      </trkpt>
      <trkpt lat="46.73636" lon="-2.00174">
        <ele>5.7</ele>
        <time>2025-01-20T08:51:50.456Z</time>
      </trkpt>
      <trkpt lat="46.73635" lon="-2.00173">
        <ele>5.7</ele>
        <time>2025-01-20T08:51:51.455Z</time>
      </trkpt>
      <trkpt lat="46.73634" lon="-2.00171">
        <ele>5.7</ele>
        <time>2025-01-20T08:51:52.455Z</time>
      </trkpt>
      <trkpt lat="46.73633" lon="-2.0017">
        <ele>5.7</ele>
        <time>2025-01-20T08:51:53.455Z</time>
      </trkpt>
      <trkpt lat="46.73632" lon="-2.00168">
        <ele>5.7</ele>
        <time>2025-01-20T08:51:54.455Z</time>
      </trkpt>
      <trkpt lat="46.73631" lon="-2.00167">
        <ele>5.7</ele>
        <time>2025-01-20T08:51:55.455Z</time>
      </trkpt>
      <trkpt lat="46.7363" lon="-2.00166">
        <ele>5.7</ele>
        <time>2025-01-20T08:51:56.456Z</time>
      </trkpt>
      <trkpt lat="46.73629" lon="-2.00164">
        <ele>5.8</ele>
        <time>2025-01-20T08:51:57.456Z</time>
      </trkpt>
      <trkpt lat="46.73628" lon="-2.00162">
        <ele>5.8</ele>
        <time>2025-01-20T08:51:58.456Z</time>
      </trkpt>
      <trkpt lat="46.73627" lon="-2.00161">
        <ele>5.9</ele>
        <time>2025-01-20T08:51:59.455Z</time>
      </trkpt>
      <trkpt lat="46.73626" lon="-2.00159">
        <ele>5.9</ele>
        <time>2025-01-20T08:52:00.455Z</time>
      </trkpt>
      <trkpt lat="46.73625" lon="-2.00158">
        <ele>6</ele>
        <time>2025-01-20T08:52:01.455Z</time>
      </trkpt>
      <trkpt lat="46.73625" lon="-2.00156">
        <ele>6.1</ele>
        <time>2025-01-20T08:52:02.455Z</time>
      </trkpt>
      <trkpt lat="46.73624" lon="-2.00155">
        <ele>6.1</ele>
        <time>2025-01-20T08:52:03.456Z</time>
      </trkpt>
      <trkpt lat="46.73623" lon="-2.00153">
        <ele>6.2</ele>
        <time>2025-01-20T08:52:04.456Z</time>
      </trkpt>
      <trkpt lat="46.73621" lon="-2.00152">
        <ele>6.2</ele>
        <time>2025-01-20T08:52:05.456Z</time>
      </trkpt>
      <trkpt lat="46.7362" lon="-2.0015">
        <ele>6.3</ele>
        <time>2025-01-20T08:52:06.456Z</time>
      </trkpt>
      <trkpt lat="46.73619" lon="-2.00149">
        <ele>6.4</ele>
        <time>2025-01-20T08:52:07.456Z</time>
      </trkpt>
      <trkpt lat="46.73618" lon="-2.00147">
        <ele>6.5</ele>
        <time>2025-01-20T08:52:08.455Z</time>
      </trkpt>
      <trkpt lat="46.73617" lon="-2.00146">
        <ele>6.5</ele>
        <time>2025-01-20T08:52:09.455Z</time>
      </trkpt>
      <trkpt lat="46.73616" lon="-2.00144">
        <ele>6.7</ele>
        <time>2025-01-20T08:52:10.455Z</time>
      </trkpt>
      <trkpt lat="46.73616" lon="-2.00143">
        <ele>6.7</ele>
        <time>2025-01-20T08:52:11.455Z</time>
      </trkpt>
      <trkpt lat="46.73615" lon="-2.00142">
        <ele>6.8</ele>
        <time>2025-01-20T08:52:12.456Z</time>
      </trkpt>
      <trkpt lat="46.73614" lon="-2.00141">
        <ele>6.9</ele>
        <time>2025-01-20T08:52:13.455Z</time>
      </trkpt>
      <trkpt lat="46.73612" lon="-2.00139">
        <ele>7</ele>
        <time>2025-01-20T08:52:14.456Z</time>
      </trkpt>
      <trkpt lat="46.73611" lon="-2.00138">
        <ele>6.9</ele>
        <time>2025-01-20T08:52:15.456Z</time>
      </trkpt>
      <trkpt lat="46.7361" lon="-2.00137">
        <ele>6.9</ele>
        <time>2025-01-20T08:52:16.455Z</time>
      </trkpt>
      <trkpt lat="46.73609" lon="-2.00136">
        <ele>6.8</ele>
        <time>2025-01-20T08:52:17.455Z</time>
      </trkpt>
      <trkpt lat="46.73608" lon="-2.00135">
        <ele>6.7</ele>
        <time>2025-01-20T08:52:18.455Z</time>
      </trkpt>
      <trkpt lat="46.73607" lon="-2.00134">
        <ele>6.7</ele>
        <time>2025-01-20T08:52:19.455Z</time>
      </trkpt>
      <trkpt lat="46.73606" lon="-2.00133">
        <ele>6.6</ele>
        <time>2025-01-20T08:52:20.456Z</time>
      </trkpt>
      <trkpt lat="46.73605" lon="-2.00132">
        <ele>6.6</ele>
        <time>2025-01-20T08:52:21.456Z</time>
      </trkpt>
      <trkpt lat="46.73604" lon="-2.0013">
        <ele>6.4</ele>
        <time>2025-01-20T08:52:22.456Z</time>
      </trkpt>
      <trkpt lat="46.73603" lon="-2.00129">
        <ele>6.4</ele>
        <time>2025-01-20T08:52:23.456Z</time>
      </trkpt>
      <trkpt lat="46.73602" lon="-2.00127">
        <ele>6.3</ele>
        <time>2025-01-20T08:52:24.455Z</time>
      </trkpt>
      <trkpt lat="46.73601" lon="-2.00125">
        <ele>6.2</ele>
        <time>2025-01-20T08:52:25.456Z</time>
      </trkpt>
      <trkpt lat="46.736" lon="-2.00124">
        <ele>6.1</ele>
        <time>2025-01-20T08:52:26.456Z</time>
      </trkpt>
      <trkpt lat="46.73599" lon="-2.00123">
        <ele>6.1</ele>
        <time>2025-01-20T08:52:27.456Z</time>
      </trkpt>
      <trkpt lat="46.73598" lon="-2.00122">
        <ele>6.1</ele>
        <time>2025-01-20T08:52:28.456Z</time>
      </trkpt>
      <trkpt lat="46.73597" lon="-2.00121">
        <ele>6</ele>
        <time>2025-01-20T08:52:29.455Z</time>
      </trkpt>
      <trkpt lat="46.73596" lon="-2.00119">
        <ele>6</ele>
        <time>2025-01-20T08:52:30.455Z</time>
      </trkpt>
      <trkpt lat="46.73595" lon="-2.00118">
        <ele>5.9</ele>
        <time>2025-01-20T08:52:31.455Z</time>
      </trkpt>
      <trkpt lat="46.73594" lon="-2.00117">
        <ele>5.9</ele>
        <time>2025-01-20T08:52:32.455Z</time>
      </trkpt>
      <trkpt lat="46.73593" lon="-2.00116">
        <ele>5.9</ele>
        <time>2025-01-20T08:52:33.456Z</time>
      </trkpt>
      <trkpt lat="46.73592" lon="-2.00114">
        <ele>5.8</ele>
        <time>2025-01-20T08:52:34.456Z</time>
      </trkpt>
      <trkpt lat="46.73591" lon="-2.00113">
        <ele>5.8</ele>
        <time>2025-01-20T08:52:35.456Z</time>
      </trkpt>
      <trkpt lat="46.7359" lon="-2.00111">
        <ele>5.8</ele>
        <time>2025-01-20T08:52:36.456Z</time>
      </trkpt>
      <trkpt lat="46.73589" lon="-2.00109">
        <ele>5.8</ele>
        <time>2025-01-20T08:52:37.455Z</time>
      </trkpt>
      <trkpt lat="46.73588" lon="-2.00108">
        <ele>5.8</ele>
        <time>2025-01-20T08:52:38.455Z</time>
      </trkpt>
      <trkpt lat="46.73587" lon="-2.00106">
        <ele>5.8</ele>
        <time>2025-01-20T08:52:39.456Z</time>
      </trkpt>
      <trkpt lat="46.73586" lon="-2.00104">
        <ele>5.9</ele>
        <time>2025-01-20T08:52:40.456Z</time>
      </trkpt>
      <trkpt lat="46.73585" lon="-2.00103">
        <ele>5.9</ele>
        <time>2025-01-20T08:52:41.455Z</time>
      </trkpt>
      <trkpt lat="46.73584" lon="-2.00102">
        <ele>6</ele>
        <time>2025-01-20T08:52:42.455Z</time>
      </trkpt>
      <trkpt lat="46.73583" lon="-2.001">
        <ele>6</ele>
        <time>2025-01-20T08:52:43.455Z</time>
      </trkpt>
      <trkpt lat="46.73582" lon="-2.00099">
        <ele>5.9</ele>
        <time>2025-01-20T08:52:44.455Z</time>
      </trkpt>
      <trkpt lat="46.73581" lon="-2.00097">
        <ele>5.8</ele>
        <time>2025-01-20T08:52:45.456Z</time>
      </trkpt>
      <trkpt lat="46.7358" lon="-2.00096">
        <ele>5.8</ele>
        <time>2025-01-20T08:52:46.456Z</time>
      </trkpt>
      <trkpt lat="46.73579" lon="-2.00095">
        <ele>5.7</ele>
        <time>2025-01-20T08:52:47.456Z</time>
      </trkpt>
      <trkpt lat="46.73578" lon="-2.00093">
        <ele>5.6</ele>
        <time>2025-01-20T08:52:48.456Z</time>
      </trkpt>
      <trkpt lat="46.73577" lon="-2.00091">
        <ele>5.5</ele>
        <time>2025-01-20T08:52:49.456Z</time>
      </trkpt>
      <trkpt lat="46.73576" lon="-2.0009">
        <ele>5.5</ele>
        <time>2025-01-20T08:52:50.455Z</time>
      </trkpt>
      <trkpt lat="46.73575" lon="-2.00088">
        <ele>5.4</ele>
        <time>2025-01-20T08:52:51.455Z</time>
      </trkpt>
      <trkpt lat="46.73574" lon="-2.00087">
        <ele>5.3</ele>
        <time>2025-01-20T08:52:52.455Z</time>
      </trkpt>
      <trkpt lat="46.73573" lon="-2.00086">
        <ele>5.3</ele>
        <time>2025-01-20T08:52:53.456Z</time>
      </trkpt>
      <trkpt lat="46.73572" lon="-2.00084">
        <ele>5.2</ele>
        <time>2025-01-20T08:52:54.456Z</time>
      </trkpt>
      <trkpt lat="46.73571" lon="-2.00083">
        <ele>5.1</ele>
        <time>2025-01-20T08:52:55.455Z</time>
      </trkpt>
      <trkpt lat="46.7357" lon="-2.00082">
        <ele>5</ele>
        <time>2025-01-20T08:52:56.455Z</time>
      </trkpt>
      <trkpt lat="46.73569" lon="-2.0008">
        <ele>4.9</ele>
        <time>2025-01-20T08:52:57.455Z</time>
      </trkpt>
      <trkpt lat="46.73568" lon="-2.00079">
        <ele>4.8</ele>
        <time>2025-01-20T08:52:58.456Z</time>
      </trkpt>
      <trkpt lat="46.73567" lon="-2.00077">
        <ele>4.8</ele>
        <time>2025-01-20T08:52:59.456Z</time>
      </trkpt>
      <trkpt lat="46.73566" lon="-2.00076">
        <ele>4.7</ele>
        <time>2025-01-20T08:53:00.456Z</time>
      </trkpt>
      <trkpt lat="46.73565" lon="-2.00075">
        <ele>4.7</ele>
        <time>2025-01-20T08:53:01.456Z</time>
      </trkpt>
      <trkpt lat="46.73564" lon="-2.00074">
        <ele>4.6</ele>
        <time>2025-01-20T08:53:02.456Z</time>
      </trkpt>
      <trkpt lat="46.73563" lon="-2.00073">
        <ele>4.6</ele>
        <time>2025-01-20T08:53:03.455Z</time>
      </trkpt>
      <trkpt lat="46.73562" lon="-2.00071">
        <ele>4.6</ele>
        <time>2025-01-20T08:53:04.455Z</time>
      </trkpt>
      <trkpt lat="46.73561" lon="-2.0007">
        <ele>4.6</ele>
        <time>2025-01-20T08:53:05.455Z</time>
      </trkpt>
      <trkpt lat="46.7356" lon="-2.00069">
        <ele>4.6</ele>
        <time>2025-01-20T08:53:06.456Z</time>
      </trkpt>
      <trkpt lat="46.73559" lon="-2.00067">
        <ele>4.6</ele>
        <time>2025-01-20T08:53:07.456Z</time>
      </trkpt>
      <trkpt lat="46.73558" lon="-2.00066">
        <ele>4.6</ele>
        <time>2025-01-20T08:53:08.456Z</time>
      </trkpt>
      <trkpt lat="46.73557" lon="-2.00064">
        <ele>4.7</ele>
        <time>2025-01-20T08:53:09.455Z</time>
      </trkpt>
      <trkpt lat="46.73557" lon="-2.00063">
        <ele>4.7</ele>
        <time>2025-01-20T08:53:10.455Z</time>
      </trkpt>
      <trkpt lat="46.73556" lon="-2.00061">
        <ele>4.8</ele>
        <time>2025-01-20T08:53:11.455Z</time>
      </trkpt>
      <trkpt lat="46.73555" lon="-2.0006">
        <ele>4.8</ele>
        <time>2025-01-20T08:53:12.456Z</time>
      </trkpt>
      <trkpt lat="46.73554" lon="-2.00058">
        <ele>4.8</ele>
        <time>2025-01-20T08:53:13.456Z</time>
      </trkpt>
      <trkpt lat="46.73552" lon="-2.00057">
        <ele>4.7</ele>
        <time>2025-01-20T08:53:14.456Z</time>
      </trkpt>
      <trkpt lat="46.73551" lon="-2.00055">
        <ele>4.7</ele>
        <time>2025-01-20T08:53:15.456Z</time>
      </trkpt>
      <trkpt lat="46.7355" lon="-2.00054">
        <ele>4.6</ele>
        <time>2025-01-20T08:53:16.456Z</time>
      </trkpt>
      <trkpt lat="46.73549" lon="-2.00052">
        <ele>4.5</ele>
        <time>2025-01-20T08:53:17.456Z</time>
      </trkpt>
      <trkpt lat="46.73548" lon="-2.00051">
        <ele>4.5</ele>
        <time>2025-01-20T08:53:18.456Z</time>
      </trkpt>
      <trkpt lat="46.73547" lon="-2.0005">
        <ele>4.4</ele>
        <time>2025-01-20T08:53:19.455Z</time>
      </trkpt>
      <trkpt lat="46.73546" lon="-2.00049">
        <ele>4.3</ele>
        <time>2025-01-20T08:53:20.455Z</time>
      </trkpt>
      <trkpt lat="46.73546" lon="-2.00048">
        <ele>4.3</ele>
        <time>2025-01-20T08:53:21.455Z</time>
      </trkpt>
      <trkpt lat="46.73545" lon="-2.00046">
        <ele>4.2</ele>
        <time>2025-01-20T08:53:22.455Z</time>
      </trkpt>
      <trkpt lat="46.73544" lon="-2.00044">
        <ele>4.2</ele>
        <time>2025-01-20T08:53:23.456Z</time>
      </trkpt>
      <trkpt lat="46.73543" lon="-2.00043">
        <ele>4.1</ele>
        <time>2025-01-20T08:53:24.456Z</time>
      </trkpt>
      <trkpt lat="46.73543" lon="-2.00042">
        <ele>4.1</ele>
        <time>2025-01-20T08:53:25.456Z</time>
      </trkpt>
      <trkpt lat="46.73542" lon="-2.0004">
        <ele>4</ele>
        <time>2025-01-20T08:53:26.455Z</time>
      </trkpt>
      <trkpt lat="46.73541" lon="-2.00038">
        <ele>4</ele>
        <time>2025-01-20T08:53:27.455Z</time>
      </trkpt>
      <trkpt lat="46.73541" lon="-2.00037">
        <ele>4</ele>
        <time>2025-01-20T08:53:28.455Z</time>
      </trkpt>
      <trkpt lat="46.73541" lon="-2.00035">
        <ele>4</ele>
        <time>2025-01-20T08:53:29.456Z</time>
      </trkpt>
      <trkpt lat="46.73541" lon="-2.00034">
        <ele>4</ele>
        <time>2025-01-20T08:53:30.456Z</time>
      </trkpt>
      <trkpt lat="46.73541" lon="-2.00032">
        <ele>4</ele>
        <time>2025-01-20T08:53:31.455Z</time>
      </trkpt>
      <trkpt lat="46.73541" lon="-2.00031">
        <ele>4</ele>
        <time>2025-01-20T08:53:32.455Z</time>
      </trkpt>
      <trkpt lat="46.73542" lon="-2.00031">
        <ele>4</ele>
        <time>2025-01-20T08:53:33.455Z</time>
      </trkpt>
      <trkpt lat="46.73542" lon="-2.0003">
        <ele>4</ele>
        <time>2025-01-20T08:53:34.456Z</time>
      </trkpt>
      <trkpt lat="46.73542" lon="-2.00029">
        <ele>4</ele>
        <time>2025-01-20T08:53:35.456Z</time>
      </trkpt>
      <trkpt lat="46.73542" lon="-2.00027">
        <ele>4</ele>
        <time>2025-01-20T08:53:36.455Z</time>
      </trkpt>
      <trkpt lat="46.73541" lon="-2.00025">
        <ele>3.9</ele>
        <time>2025-01-20T08:53:37.455Z</time>
      </trkpt>
      <trkpt lat="46.73541" lon="-2.00023">
        <ele>3.9</ele>
        <time>2025-01-20T08:53:38.455Z</time>
      </trkpt>
      <trkpt lat="46.73541" lon="-2.00021">
        <ele>3.8</ele>
        <time>2025-01-20T08:53:39.456Z</time>
      </trkpt>
      <trkpt lat="46.73541" lon="-2.00019">
        <ele>3.8</ele>
        <time>2025-01-20T08:53:40.456Z</time>
      </trkpt>
      <trkpt lat="46.73541" lon="-2.00017">
        <ele>3.8</ele>
        <time>2025-01-20T08:53:41.456Z</time>
      </trkpt>
      <trkpt lat="46.73541" lon="-2.00015">
        <ele>3.7</ele>
        <time>2025-01-20T08:53:42.456Z</time>
      </trkpt>
      <trkpt lat="46.73541" lon="-2.00013">
        <ele>3.7</ele>
        <time>2025-01-20T08:53:43.455Z</time>
      </trkpt>
      <trkpt lat="46.73541" lon="-2.00011">
        <ele>3.7</ele>
        <time>2025-01-20T08:53:44.455Z</time>
      </trkpt>
      <trkpt lat="46.73541" lon="-2.00009">
        <ele>3.6</ele>
        <time>2025-01-20T08:53:45.455Z</time>
      </trkpt>
      <trkpt lat="46.7354" lon="-2.00007">
        <ele>3.6</ele>
        <time>2025-01-20T08:53:46.455Z</time>
      </trkpt>
      <trkpt lat="46.7354" lon="-2.00006">
        <ele>3.5</ele>
        <time>2025-01-20T08:53:47.455Z</time>
      </trkpt>
      <trkpt lat="46.7354" lon="-2.00004">
        <ele>3.5</ele>
        <time>2025-01-20T08:53:48.456Z</time>
      </trkpt>
      <trkpt lat="46.7354" lon="-2.00002">
        <ele>3.5</ele>
        <time>2025-01-20T08:53:49.456Z</time>
      </trkpt>
      <trkpt lat="46.7354" lon="-1.99999">
        <ele>3.4</ele>
        <time>2025-01-20T08:53:50.456Z</time>
      </trkpt>
      <trkpt lat="46.7354" lon="-1.99997">
        <ele>3.5</ele>
        <time>2025-01-20T08:53:51.455Z</time>
      </trkpt>
      <trkpt lat="46.73541" lon="-1.99995">
        <ele>3.5</ele>
        <time>2025-01-20T08:53:52.455Z</time>
      </trkpt>
      <trkpt lat="46.73541" lon="-1.99993">
        <ele>3.5</ele>
        <time>2025-01-20T08:53:53.455Z</time>
      </trkpt>
      <trkpt lat="46.73541" lon="-1.99991">
        <ele>3.5</ele>
        <time>2025-01-20T08:53:54.455Z</time>
      </trkpt>
      <trkpt lat="46.73542" lon="-1.9999">
        <ele>3.5</ele>
        <time>2025-01-20T08:53:55.456Z</time>
      </trkpt>
      <trkpt lat="46.73542" lon="-1.99988">
        <ele>3.5</ele>
        <time>2025-01-20T08:53:56.456Z</time>
      </trkpt>
      <trkpt lat="46.73542" lon="-1.99986">
        <ele>3.5</ele>
        <time>2025-01-20T08:53:57.456Z</time>
      </trkpt>
      <trkpt lat="46.73542" lon="-1.99985">
        <ele>3.5</ele>
        <time>2025-01-20T08:53:58.456Z</time>
      </trkpt>
      <trkpt lat="46.73542" lon="-1.99983">
        <ele>3.5</ele>
        <time>2025-01-20T08:53:59.456Z</time>
      </trkpt>
      <trkpt lat="46.73543" lon="-1.99981">
        <ele>3.5</ele>
        <time>2025-01-20T08:54:00.455Z</time>
      </trkpt>
      <trkpt lat="46.73543" lon="-1.99979">
        <ele>3.5</ele>
        <time>2025-01-20T08:54:01.455Z</time>
      </trkpt>
      <trkpt lat="46.73544" lon="-1.99977">
        <ele>3.4</ele>
        <time>2025-01-20T08:54:02.455Z</time>
      </trkpt>
      <trkpt lat="46.73544" lon="-1.99975">
        <ele>3.4</ele>
        <time>2025-01-20T08:54:03.455Z</time>
      </trkpt>
      <trkpt lat="46.73544" lon="-1.99974">
        <ele>3.4</ele>
        <time>2025-01-20T08:54:04.456Z</time>
      </trkpt>
      <trkpt lat="46.73545" lon="-1.99972">
        <ele>3.4</ele>
        <time>2025-01-20T08:54:05.455Z</time>
      </trkpt>
      <trkpt lat="46.73545" lon="-1.9997">
        <ele>3.3</ele>
        <time>2025-01-20T08:54:06.456Z</time>
      </trkpt>
      <trkpt lat="46.73545" lon="-1.99968">
        <ele>3.3</ele>
        <time>2025-01-20T08:54:07.456Z</time>
      </trkpt>
      <trkpt lat="46.73545" lon="-1.99967">
        <ele>3.3</ele>
        <time>2025-01-20T08:54:08.455Z</time>
      </trkpt>
      <trkpt lat="46.73545" lon="-1.99965">
        <ele>3.3</ele>
        <time>2025-01-20T08:54:09.455Z</time>
      </trkpt>
      <trkpt lat="46.73546" lon="-1.99963">
        <ele>3.2</ele>
        <time>2025-01-20T08:54:10.456Z</time>
      </trkpt>
      <trkpt lat="46.73546" lon="-1.99961">
        <ele>3.2</ele>
        <time>2025-01-20T08:54:11.455Z</time>
      </trkpt>
      <trkpt lat="46.73547" lon="-1.9996">
        <ele>3.2</ele>
        <time>2025-01-20T08:54:12.456Z</time>
      </trkpt>
      <trkpt lat="46.73548" lon="-1.99958">
        <ele>3.1</ele>
        <time>2025-01-20T08:54:13.456Z</time>
      </trkpt>
      <trkpt lat="46.73548" lon="-1.99956">
        <ele>3.1</ele>
        <time>2025-01-20T08:54:14.456Z</time>
      </trkpt>
      <trkpt lat="46.73549" lon="-1.99954">
        <ele>3.1</ele>
        <time>2025-01-20T08:54:15.456Z</time>
      </trkpt>
      <trkpt lat="46.73549" lon="-1.99952">
        <ele>3.1</ele>
        <time>2025-01-20T08:54:16.456Z</time>
      </trkpt>
      <trkpt lat="46.7355" lon="-1.9995">
        <ele>3</ele>
        <time>2025-01-20T08:54:17.456Z</time>
      </trkpt>
      <trkpt lat="46.7355" lon="-1.99949">
        <ele>3</ele>
        <time>2025-01-20T08:54:18.455Z</time>
      </trkpt>
      <trkpt lat="46.73551" lon="-1.99947">
        <ele>3</ele>
        <time>2025-01-20T08:54:19.455Z</time>
      </trkpt>
      <trkpt lat="46.73552" lon="-1.99946">
        <ele>3</ele>
        <time>2025-01-20T08:54:20.455Z</time>
      </trkpt>
      <trkpt lat="46.73552" lon="-1.99944">
        <ele>3</ele>
        <time>2025-01-20T08:54:21.455Z</time>
      </trkpt>
      <trkpt lat="46.73553" lon="-1.99942">
        <ele>3</ele>
        <time>2025-01-20T08:54:22.456Z</time>
      </trkpt>
      <trkpt lat="46.73553" lon="-1.99941">
        <ele>3</ele>
        <time>2025-01-20T08:54:23.455Z</time>
      </trkpt>
      <trkpt lat="46.73554" lon="-1.99939">
        <ele>3</ele>
        <time>2025-01-20T08:54:24.456Z</time>
      </trkpt>
      <trkpt lat="46.73555" lon="-1.99937">
        <ele>3</ele>
        <time>2025-01-20T08:54:25.455Z</time>
      </trkpt>
      <trkpt lat="46.73556" lon="-1.99935">
        <ele>3</ele>
        <time>2025-01-20T08:54:26.455Z</time>
      </trkpt>
      <trkpt lat="46.73557" lon="-1.99934">
        <ele>3.1</ele>
        <time>2025-01-20T08:54:27.456Z</time>
      </trkpt>
      <trkpt lat="46.73557" lon="-1.99932">
        <ele>3.1</ele>
        <time>2025-01-20T08:54:28.456Z</time>
      </trkpt>
      <trkpt lat="46.73558" lon="-1.9993">
        <ele>3.1</ele>
        <time>2025-01-20T08:54:29.456Z</time>
      </trkpt>
      <trkpt lat="46.73559" lon="-1.99928">
        <ele>3.2</ele>
        <time>2025-01-20T08:54:30.456Z</time>
      </trkpt>
      <trkpt lat="46.73559" lon="-1.99926">
        <ele>3.2</ele>
        <time>2025-01-20T08:54:31.455Z</time>
      </trkpt>
      <trkpt lat="46.73559" lon="-1.99925">
        <ele>3.3</ele>
        <time>2025-01-20T08:54:32.455Z</time>
      </trkpt>
      <trkpt lat="46.7356" lon="-1.99923">
        <ele>3.4</ele>
        <time>2025-01-20T08:54:33.455Z</time>
      </trkpt>
      <trkpt lat="46.7356" lon="-1.99921">
        <ele>3.4</ele>
        <time>2025-01-20T08:54:34.455Z</time>
      </trkpt>
      <trkpt lat="46.73561" lon="-1.99919">
        <ele>3.5</ele>
        <time>2025-01-20T08:54:35.456Z</time>
      </trkpt>
      <trkpt lat="46.73561" lon="-1.99917">
        <ele>3.6</ele>
        <time>2025-01-20T08:54:36.456Z</time>
      </trkpt>
      <trkpt lat="46.7356" lon="-1.99915">
        <ele>3.5</ele>
        <time>2025-01-20T08:54:37.456Z</time>
      </trkpt>
      <trkpt lat="46.7356" lon="-1.99913">
        <ele>3.5</ele>
        <time>2025-01-20T08:54:38.456Z</time>
      </trkpt>
      <trkpt lat="46.7356" lon="-1.99911">
        <ele>3.5</ele>
        <time>2025-01-20T08:54:39.455Z</time>
      </trkpt>
      <trkpt lat="46.7356" lon="-1.9991">
        <ele>3.6</ele>
        <time>2025-01-20T08:54:40.455Z</time>
      </trkpt>
      <trkpt lat="46.7356" lon="-1.99908">
        <ele>3.6</ele>
        <time>2025-01-20T08:54:41.455Z</time>
      </trkpt>
      <trkpt lat="46.7356" lon="-1.99906">
        <ele>3.6</ele>
        <time>2025-01-20T08:54:42.455Z</time>
      </trkpt>
      <trkpt lat="46.7356" lon="-1.99904">
        <ele>3.6</ele>
        <time>2025-01-20T08:54:43.456Z</time>
      </trkpt>
      <trkpt lat="46.7356" lon="-1.99902">
        <ele>3.6</ele>
        <time>2025-01-20T08:54:44.455Z</time>
      </trkpt>
      <trkpt lat="46.7356" lon="-1.999">
        <ele>3.7</ele>
        <time>2025-01-20T08:54:45.456Z</time>
      </trkpt>
      <trkpt lat="46.7356" lon="-1.99898">
        <ele>3.7</ele>
        <time>2025-01-20T08:54:46.455Z</time>
      </trkpt>
      <trkpt lat="46.7356" lon="-1.99896">
        <ele>3.7</ele>
        <time>2025-01-20T08:54:47.456Z</time>
      </trkpt>
      <trkpt lat="46.7356" lon="-1.99894">
        <ele>3.7</ele>
        <time>2025-01-20T08:54:48.456Z</time>
      </trkpt>
      <trkpt lat="46.7356" lon="-1.99892">
        <ele>3.8</ele>
        <time>2025-01-20T08:54:49.455Z</time>
      </trkpt>
      <trkpt lat="46.7356" lon="-1.9989">
        <ele>3.8</ele>
        <time>2025-01-20T08:54:50.455Z</time>
      </trkpt>
      <trkpt lat="46.7356" lon="-1.99889">
        <ele>3.8</ele>
        <time>2025-01-20T08:54:51.455Z</time>
      </trkpt>
      <trkpt lat="46.7356" lon="-1.99887">
        <ele>3.8</ele>
        <time>2025-01-20T08:54:52.455Z</time>
      </trkpt>
      <trkpt lat="46.7356" lon="-1.99885">
        <ele>3.8</ele>
        <time>2025-01-20T08:54:53.456Z</time>
      </trkpt>
      <trkpt lat="46.73561" lon="-1.99883">
        <ele>4</ele>
        <time>2025-01-20T08:54:54.456Z</time>
      </trkpt>
      <trkpt lat="46.73561" lon="-1.99881">
        <ele>4</ele>
        <time>2025-01-20T08:54:55.456Z</time>
      </trkpt>
      <trkpt lat="46.73561" lon="-1.99879">
        <ele>4</ele>
        <time>2025-01-20T08:54:56.456Z</time>
      </trkpt>
      <trkpt lat="46.73562" lon="-1.99877">
        <ele>4.2</ele>
        <time>2025-01-20T08:54:57.456Z</time>
      </trkpt>
      <trkpt lat="46.73562" lon="-1.99875">
        <ele>4.2</ele>
        <time>2025-01-20T08:54:58.456Z</time>
      </trkpt>
      <trkpt lat="46.73562" lon="-1.99873">
        <ele>4.2</ele>
        <time>2025-01-20T08:54:59.456Z</time>
      </trkpt>
      <trkpt lat="46.73562" lon="-1.9987">
        <ele>4.2</ele>
        <time>2025-01-20T08:55:00.456Z</time>
      </trkpt>
      <trkpt lat="46.73562" lon="-1.99868">
        <ele>4.2</ele>
        <time>2025-01-20T08:55:01.455Z</time>
      </trkpt>
      <trkpt lat="46.73563" lon="-1.99867">
        <ele>4.3</ele>
        <time>2025-01-20T08:55:02.455Z</time>
      </trkpt>
      <trkpt lat="46.73562" lon="-1.99865">
        <ele>4.2</ele>
        <time>2025-01-20T08:55:03.455Z</time>
      </trkpt>
      <trkpt lat="46.73562" lon="-1.99864">
        <ele>4.2</ele>
        <time>2025-01-20T08:55:04.455Z</time>
      </trkpt>
      <trkpt lat="46.73562" lon="-1.99862">
        <ele>4.2</ele>
        <time>2025-01-20T08:55:05.455Z</time>
      </trkpt>
      <trkpt lat="46.73562" lon="-1.9986">
        <ele>4.2</ele>
        <time>2025-01-20T08:55:06.456Z</time>
      </trkpt>
      <trkpt lat="46.73563" lon="-1.99859">
        <ele>4.4</ele>
        <time>2025-01-20T08:55:07.456Z</time>
      </trkpt>
      <trkpt lat="46.73563" lon="-1.99857">
        <ele>4.4</ele>
        <time>2025-01-20T08:55:08.456Z</time>
      </trkpt>
      <trkpt lat="46.73563" lon="-1.99855">
        <ele>4.4</ele>
        <time>2025-01-20T08:55:09.456Z</time>
      </trkpt>
      <trkpt lat="46.73563" lon="-1.99853">
        <ele>4.4</ele>
        <time>2025-01-20T08:55:10.456Z</time>
      </trkpt>
      <trkpt lat="46.73564" lon="-1.99851">
        <ele>4.6</ele>
        <time>2025-01-20T08:55:11.455Z</time>
      </trkpt>
      <trkpt lat="46.73564" lon="-1.9985">
        <ele>4.6</ele>
        <time>2025-01-20T08:55:12.456Z</time>
      </trkpt>
      <trkpt lat="46.73565" lon="-1.99848">
        <ele>4.7</ele>
        <time>2025-01-20T08:55:13.456Z</time>
      </trkpt>
      <trkpt lat="46.73565" lon="-1.99846">
        <ele>4.7</ele>
        <time>2025-01-20T08:55:14.456Z</time>
      </trkpt>
      <trkpt lat="46.73566" lon="-1.99844">
        <ele>4.8</ele>
        <time>2025-01-20T08:55:15.455Z</time>
      </trkpt>
      <trkpt lat="46.73566" lon="-1.99842">
        <ele>4.8</ele>
        <time>2025-01-20T08:55:16.455Z</time>
      </trkpt>
      <trkpt lat="46.73567" lon="-1.9984">
        <ele>4.9</ele>
        <time>2025-01-20T08:55:17.455Z</time>
      </trkpt>
      <trkpt lat="46.73567" lon="-1.99839">
        <ele>4.9</ele>
        <time>2025-01-20T08:55:18.455Z</time>
      </trkpt>
      <trkpt lat="46.73568" lon="-1.99837">
        <ele>4.9</ele>
        <time>2025-01-20T08:55:19.456Z</time>
      </trkpt>
      <trkpt lat="46.73568" lon="-1.99835">
        <ele>4.9</ele>
        <time>2025-01-20T08:55:20.455Z</time>
      </trkpt>
      <trkpt lat="46.73569" lon="-1.99834">
        <ele>5</ele>
        <time>2025-01-20T08:55:21.456Z</time>
      </trkpt>
      <trkpt lat="46.73569" lon="-1.99832">
        <ele>4.9</ele>
        <time>2025-01-20T08:55:22.456Z</time>
      </trkpt>
      <trkpt lat="46.7357" lon="-1.99831">
        <ele>5</ele>
        <time>2025-01-20T08:55:23.456Z</time>
      </trkpt>
      <trkpt lat="46.7357" lon="-1.99829">
        <ele>4.9</ele>
        <time>2025-01-20T08:55:24.455Z</time>
      </trkpt>
      <trkpt lat="46.73571" lon="-1.99828">
        <ele>4.9</ele>
        <time>2025-01-20T08:55:25.455Z</time>
      </trkpt>
      <trkpt lat="46.73571" lon="-1.99826">
        <ele>4.8</ele>
        <time>2025-01-20T08:55:26.455Z</time>
      </trkpt>
      <trkpt lat="46.73572" lon="-1.99825">
        <ele>4.8</ele>
        <time>2025-01-20T08:55:27.456Z</time>
      </trkpt>
      <trkpt lat="46.73573" lon="-1.99823">
        <ele>4.8</ele>
        <time>2025-01-20T08:55:28.456Z</time>
      </trkpt>
      <trkpt lat="46.73573" lon="-1.99822">
        <ele>4.7</ele>
        <time>2025-01-20T08:55:29.456Z</time>
      </trkpt>
      <trkpt lat="46.73574" lon="-1.9982">
        <ele>4.7</ele>
        <time>2025-01-20T08:55:30.456Z</time>
      </trkpt>
      <trkpt lat="46.73575" lon="-1.99819">
        <ele>4.7</ele>
        <time>2025-01-20T08:55:31.456Z</time>
      </trkpt>
      <trkpt lat="46.73575" lon="-1.99817">
        <ele>4.6</ele>
        <time>2025-01-20T08:55:32.455Z</time>
      </trkpt>
      <trkpt lat="46.73576" lon="-1.99815">
        <ele>4.5</ele>
        <time>2025-01-20T08:55:33.455Z</time>
      </trkpt>
      <trkpt lat="46.73576" lon="-1.99814">
        <ele>4.4</ele>
        <time>2025-01-20T08:55:34.455Z</time>
      </trkpt>
      <trkpt lat="46.73577" lon="-1.99812">
        <ele>4.4</ele>
        <time>2025-01-20T08:55:35.456Z</time>
      </trkpt>
      <trkpt lat="46.73577" lon="-1.9981">
        <ele>4.2</ele>
        <time>2025-01-20T08:55:36.455Z</time>
      </trkpt>
      <trkpt lat="46.73577" lon="-1.99809">
        <ele>4.2</ele>
        <time>2025-01-20T08:55:37.456Z</time>
      </trkpt>
      <trkpt lat="46.73578" lon="-1.99807">
        <ele>4.1</ele>
        <time>2025-01-20T08:55:38.455Z</time>
      </trkpt>
      <trkpt lat="46.73578" lon="-1.99805">
        <ele>4</ele>
        <time>2025-01-20T08:55:39.456Z</time>
      </trkpt>
      <trkpt lat="46.73578" lon="-1.99804">
        <ele>4</ele>
        <time>2025-01-20T08:55:40.455Z</time>
      </trkpt>
      <trkpt lat="46.73579" lon="-1.99802">
        <ele>4</ele>
        <time>2025-01-20T08:55:41.455Z</time>
      </trkpt>
      <trkpt lat="46.7358" lon="-1.99801">
        <ele>4</ele>
        <time>2025-01-20T08:55:42.455Z</time>
      </trkpt>
      <trkpt lat="46.73581" lon="-1.99799">
        <ele>4</ele>
        <time>2025-01-20T08:55:43.455Z</time>
      </trkpt>
      <trkpt lat="46.73582" lon="-1.99798">
        <ele>4</ele>
        <time>2025-01-20T08:55:44.456Z</time>
      </trkpt>
      <trkpt lat="46.73582" lon="-1.99797">
        <ele>4</ele>
        <time>2025-01-20T08:55:45.456Z</time>
      </trkpt>
      <trkpt lat="46.73583" lon="-1.99795">
        <ele>4</ele>
        <time>2025-01-20T08:55:46.456Z</time>
      </trkpt>
      <trkpt lat="46.73584" lon="-1.99794">
        <ele>4</ele>
        <time>2025-01-20T08:55:47.456Z</time>
      </trkpt>
      <trkpt lat="46.73585" lon="-1.99792">
        <ele>4</ele>
        <time>2025-01-20T08:55:48.455Z</time>
      </trkpt>
      <trkpt lat="46.73586" lon="-1.99791">
        <ele>4</ele>
        <time>2025-01-20T08:55:49.455Z</time>
      </trkpt>
      <trkpt lat="46.73586" lon="-1.99789">
        <ele>4</ele>
        <time>2025-01-20T08:55:50.455Z</time>
      </trkpt>
      <trkpt lat="46.73587" lon="-1.99787">
        <ele>4</ele>
        <time>2025-01-20T08:55:51.456Z</time>
      </trkpt>
      <trkpt lat="46.73587" lon="-1.99786">
        <ele>3.9</ele>
        <time>2025-01-20T08:55:52.456Z</time>
      </trkpt>
      <trkpt lat="46.73588" lon="-1.99784">
        <ele>3.9</ele>
        <time>2025-01-20T08:55:53.456Z</time>
      </trkpt>
      <trkpt lat="46.73589" lon="-1.99783">
        <ele>3.9</ele>
        <time>2025-01-20T08:55:54.456Z</time>
      </trkpt>
      <trkpt lat="46.7359" lon="-1.99782">
        <ele>3.8</ele>
        <time>2025-01-20T08:55:55.456Z</time>
      </trkpt>
      <trkpt lat="46.73591" lon="-1.99781">
        <ele>3.8</ele>
        <time>2025-01-20T08:55:56.455Z</time>
      </trkpt>
      <trkpt lat="46.73593" lon="-1.9978">
        <ele>3.7</ele>
        <time>2025-01-20T08:55:57.455Z</time>
      </trkpt>
      <trkpt lat="46.73594" lon="-1.99779">
        <ele>3.6</ele>
        <time>2025-01-20T08:55:58.456Z</time>
      </trkpt>
      <trkpt lat="46.73595" lon="-1.99778">
        <ele>3.6</ele>
        <time>2025-01-20T08:55:59.456Z</time>
      </trkpt>
      <trkpt lat="46.73596" lon="-1.99777">
        <ele>3.6</ele>
        <time>2025-01-20T08:56:00.456Z</time>
      </trkpt>
      <trkpt lat="46.73597" lon="-1.99776">
        <ele>3.5</ele>
        <time>2025-01-20T08:56:01.455Z</time>
      </trkpt>
      <trkpt lat="46.73598" lon="-1.99775">
        <ele>3.5</ele>
        <time>2025-01-20T08:56:02.456Z</time>
      </trkpt>
      <trkpt lat="46.73599" lon="-1.99774">
        <ele>3.5</ele>
        <time>2025-01-20T08:56:03.455Z</time>
      </trkpt>
      <trkpt lat="46.736" lon="-1.99772">
        <ele>3.5</ele>
        <time>2025-01-20T08:56:04.456Z</time>
      </trkpt>
      <trkpt lat="46.73601" lon="-1.99771">
        <ele>3.5</ele>
        <time>2025-01-20T08:56:05.455Z</time>
      </trkpt>
      <trkpt lat="46.73602" lon="-1.9977">
        <ele>3.5</ele>
        <time>2025-01-20T08:56:06.456Z</time>
      </trkpt>
      <trkpt lat="46.73603" lon="-1.99768">
        <ele>3.5</ele>
        <time>2025-01-20T08:56:07.456Z</time>
      </trkpt>
      <trkpt lat="46.73604" lon="-1.99767">
        <ele>3.5</ele>
        <time>2025-01-20T08:56:08.456Z</time>
      </trkpt>
      <trkpt lat="46.73605" lon="-1.99765">
        <ele>3.6</ele>
        <time>2025-01-20T08:56:09.456Z</time>
      </trkpt>
      <trkpt lat="46.73605" lon="-1.99764">
        <ele>3.6</ele>
        <time>2025-01-20T08:56:10.456Z</time>
      </trkpt>
      <trkpt lat="46.73606" lon="-1.99762">
        <ele>3.6</ele>
        <time>2025-01-20T08:56:11.455Z</time>
      </trkpt>
      <trkpt lat="46.73607" lon="-1.99761">
        <ele>3.7</ele>
        <time>2025-01-20T08:56:12.455Z</time>
      </trkpt>
      <trkpt lat="46.73608" lon="-1.99759">
        <ele>3.7</ele>
        <time>2025-01-20T08:56:13.456Z</time>
      </trkpt>
      <trkpt lat="46.73609" lon="-1.99757">
        <ele>3.8</ele>
        <time>2025-01-20T08:56:14.456Z</time>
      </trkpt>
      <trkpt lat="46.7361" lon="-1.99756">
        <ele>3.8</ele>
        <time>2025-01-20T08:56:15.456Z</time>
      </trkpt>
      <trkpt lat="46.73611" lon="-1.99754">
        <ele>3.9</ele>
        <time>2025-01-20T08:56:16.455Z</time>
      </trkpt>
      <trkpt lat="46.73611" lon="-1.99753">
        <ele>3.9</ele>
        <time>2025-01-20T08:56:17.455Z</time>
      </trkpt>
      <trkpt lat="46.73612" lon="-1.99751">
        <ele>3.9</ele>
        <time>2025-01-20T08:56:18.456Z</time>
      </trkpt>
      <trkpt lat="46.73613" lon="-1.99749">
        <ele>3.9</ele>
        <time>2025-01-20T08:56:19.456Z</time>
      </trkpt>
      <trkpt lat="46.73614" lon="-1.99748">
        <ele>3.8</ele>
        <time>2025-01-20T08:56:20.456Z</time>
      </trkpt>
      <trkpt lat="46.73615" lon="-1.99746">
        <ele>3.8</ele>
        <time>2025-01-20T08:56:21.456Z</time>
      </trkpt>
      <trkpt lat="46.73615" lon="-1.99744">
        <ele>3.7</ele>
        <time>2025-01-20T08:56:22.456Z</time>
      </trkpt>
      <trkpt lat="46.73616" lon="-1.99743">
        <ele>3.7</ele>
        <time>2025-01-20T08:56:23.455Z</time>
      </trkpt>
      <trkpt lat="46.73617" lon="-1.99741">
        <ele>3.6</ele>
        <time>2025-01-20T08:56:24.455Z</time>
      </trkpt>
      <trkpt lat="46.73618" lon="-1.99739">
        <ele>3.6</ele>
        <time>2025-01-20T08:56:25.455Z</time>
      </trkpt>
      <trkpt lat="46.73618" lon="-1.99738">
        <ele>3.5</ele>
        <time>2025-01-20T08:56:26.455Z</time>
      </trkpt>
      <trkpt lat="46.73619" lon="-1.99736">
        <ele>3.5</ele>
        <time>2025-01-20T08:56:27.455Z</time>
      </trkpt>
      <trkpt lat="46.7362" lon="-1.99735">
        <ele>3.5</ele>
        <time>2025-01-20T08:56:28.455Z</time>
      </trkpt>
      <trkpt lat="46.73621" lon="-1.99733">
        <ele>3.5</ele>
        <time>2025-01-20T08:56:29.455Z</time>
      </trkpt>
      <trkpt lat="46.73622" lon="-1.99731">
        <ele>3.5</ele>
        <time>2025-01-20T08:56:30.455Z</time>
      </trkpt>
      <trkpt lat="46.73623" lon="-1.99729">
        <ele>3.5</ele>
        <time>2025-01-20T08:56:31.455Z</time>
      </trkpt>
      <trkpt lat="46.73624" lon="-1.99727">
        <ele>3.5</ele>
        <time>2025-01-20T08:56:32.456Z</time>
      </trkpt>
      <trkpt lat="46.73625" lon="-1.99725">
        <ele>3.5</ele>
        <time>2025-01-20T08:56:33.455Z</time>
      </trkpt>
      <trkpt lat="46.73626" lon="-1.99724">
        <ele>3.5</ele>
        <time>2025-01-20T08:56:34.455Z</time>
      </trkpt>
      <trkpt lat="46.73627" lon="-1.99722">
        <ele>3.6</ele>
        <time>2025-01-20T08:56:35.456Z</time>
      </trkpt>
      <trkpt lat="46.73628" lon="-1.9972">
        <ele>3.8</ele>
        <time>2025-01-20T08:56:36.455Z</time>
      </trkpt>
      <trkpt lat="46.73629" lon="-1.99719">
        <ele>4</ele>
        <time>2025-01-20T08:56:37.456Z</time>
      </trkpt>
      <trkpt lat="46.7363" lon="-1.99717">
        <ele>4.2</ele>
        <time>2025-01-20T08:56:38.455Z</time>
      </trkpt>
      <trkpt lat="46.7363" lon="-1.99716">
        <ele>4.3</ele>
        <time>2025-01-20T08:56:39.455Z</time>
      </trkpt>
      <trkpt lat="46.73631" lon="-1.99714">
        <ele>4.5</ele>
        <time>2025-01-20T08:56:40.456Z</time>
      </trkpt>
      <trkpt lat="46.73632" lon="-1.99713">
        <ele>4.7</ele>
        <time>2025-01-20T08:56:41.455Z</time>
      </trkpt>
      <trkpt lat="46.73633" lon="-1.99712">
        <ele>4.8</ele>
        <time>2025-01-20T08:56:42.455Z</time>
      </trkpt>
      <trkpt lat="46.73634" lon="-1.9971">
        <ele>5.1</ele>
        <time>2025-01-20T08:56:43.455Z</time>
      </trkpt>
      <trkpt lat="46.73635" lon="-1.99709">
        <ele>5.2</ele>
        <time>2025-01-20T08:56:44.455Z</time>
      </trkpt>
      <trkpt lat="46.73636" lon="-1.99708">
        <ele>5.4</ele>
        <time>2025-01-20T08:56:45.456Z</time>
      </trkpt>
      <trkpt lat="46.73637" lon="-1.99706">
        <ele>5.6</ele>
        <time>2025-01-20T08:56:46.456Z</time>
      </trkpt>
      <trkpt lat="46.73637" lon="-1.99705">
        <ele>5.7</ele>
        <time>2025-01-20T08:56:47.455Z</time>
      </trkpt>
      <trkpt lat="46.73638" lon="-1.99704">
        <ele>5.9</ele>
        <time>2025-01-20T08:56:48.456Z</time>
      </trkpt>
      <trkpt lat="46.73639" lon="-1.99702">
        <ele>6.2</ele>
        <time>2025-01-20T08:56:49.456Z</time>
      </trkpt>
      <trkpt lat="46.73641" lon="-1.99701">
        <ele>6.5</ele>
        <time>2025-01-20T08:56:50.455Z</time>
      </trkpt>
      <trkpt lat="46.73642" lon="-1.997">
        <ele>6.7</ele>
        <time>2025-01-20T08:56:51.455Z</time>
      </trkpt>
      <trkpt lat="46.73642" lon="-1.99699">
        <ele>6.8</ele>
        <time>2025-01-20T08:56:52.455Z</time>
      </trkpt>
      <trkpt lat="46.73643" lon="-1.99697">
        <ele>7.2</ele>
        <time>2025-01-20T08:56:53.456Z</time>
      </trkpt>
      <trkpt lat="46.73644" lon="-1.99696">
        <ele>7.4</ele>
        <time>2025-01-20T08:56:54.456Z</time>
      </trkpt>
      <trkpt lat="46.73644" lon="-1.99694">
        <ele>7.6</ele>
        <time>2025-01-20T08:56:55.456Z</time>
      </trkpt>
      <trkpt lat="46.73645" lon="-1.99693">
        <ele>7.9</ele>
        <time>2025-01-20T08:56:56.456Z</time>
      </trkpt>
      <trkpt lat="46.73645" lon="-1.99692">
        <ele>8.1</ele>
        <time>2025-01-20T08:56:57.455Z</time>
      </trkpt>
      <trkpt lat="46.73646" lon="-1.99691">
        <ele>8.3</ele>
        <time>2025-01-20T08:56:58.455Z</time>
      </trkpt>
      <trkpt lat="46.73647" lon="-1.9969">
        <ele>8.6</ele>
        <time>2025-01-20T08:56:59.456Z</time>
      </trkpt>
      <trkpt lat="46.73648" lon="-1.99689">
        <ele>8.8</ele>
        <time>2025-01-20T08:57:00.456Z</time>
      </trkpt>
      <trkpt lat="46.73649" lon="-1.99689">
        <ele>8.9</ele>
        <time>2025-01-20T08:57:01.456Z</time>
      </trkpt>
      <trkpt lat="46.7365" lon="-1.99688">
        <ele>9.2</ele>
        <time>2025-01-20T08:57:02.455Z</time>
      </trkpt>
      <trkpt lat="46.73651" lon="-1.99686">
        <ele>9.6</ele>
        <time>2025-01-20T08:57:03.455Z</time>
      </trkpt>
      <trkpt lat="46.73652" lon="-1.99685">
        <ele>9.8</ele>
        <time>2025-01-20T08:57:04.455Z</time>
      </trkpt>
      <trkpt lat="46.73652" lon="-1.99684">
        <ele>9.9</ele>
        <time>2025-01-20T08:57:05.455Z</time>
      </trkpt>
      <trkpt lat="46.73653" lon="-1.99683">
        <ele>10.2</ele>
        <time>2025-01-20T08:57:06.456Z</time>
      </trkpt>
      <trkpt lat="46.73654" lon="-1.99681">
        <ele>10.5</ele>
        <time>2025-01-20T08:57:07.456Z</time>
      </trkpt>
      <trkpt lat="46.73655" lon="-1.9968">
        <ele>10.7</ele>
        <time>2025-01-20T08:57:08.456Z</time>
      </trkpt>
      <trkpt lat="46.73656" lon="-1.99679">
        <ele>10.9</ele>
        <time>2025-01-20T08:57:09.456Z</time>
      </trkpt>
      <trkpt lat="46.73657" lon="-1.99677">
        <ele>11.3</ele>
        <time>2025-01-20T08:57:10.456Z</time>
      </trkpt>
      <trkpt lat="46.73658" lon="-1.99676">
        <ele>11.5</ele>
        <time>2025-01-20T08:57:11.455Z</time>
      </trkpt>
      <trkpt lat="46.73659" lon="-1.99674">
        <ele>11.8</ele>
        <time>2025-01-20T08:57:12.455Z</time>
      </trkpt>
      <trkpt lat="46.7366" lon="-1.99673">
        <ele>12</ele>
        <time>2025-01-20T08:57:13.455Z</time>
      </trkpt>
      <trkpt lat="46.7366" lon="-1.99672">
        <ele>12.1</ele>
        <time>2025-01-20T08:57:14.456Z</time>
      </trkpt>
      <trkpt lat="46.73661" lon="-1.9967">
        <ele>12.4</ele>
        <time>2025-01-20T08:57:15.456Z</time>
      </trkpt>
      <trkpt lat="46.73661" lon="-1.99669">
        <ele>12.5</ele>
        <time>2025-01-20T08:57:16.455Z</time>
      </trkpt>
      <trkpt lat="46.73662" lon="-1.99667">
        <ele>12.8</ele>
        <time>2025-01-20T08:57:17.455Z</time>
      </trkpt>
      <trkpt lat="46.73663" lon="-1.99666">
        <ele>13</ele>
        <time>2025-01-20T08:57:18.455Z</time>
      </trkpt>
      <trkpt lat="46.73663" lon="-1.99665">
        <ele>13.1</ele>
        <time>2025-01-20T08:57:19.456Z</time>
      </trkpt>
      <trkpt lat="46.73664" lon="-1.99664">
        <ele>13.3</ele>
        <time>2025-01-20T08:57:20.456Z</time>
      </trkpt>
      <trkpt lat="46.73665" lon="-1.99663">
        <ele>13.5</ele>
        <time>2025-01-20T08:57:21.456Z</time>
      </trkpt>
      <trkpt lat="46.73665" lon="-1.99662">
        <ele>13.6</ele>
        <time>2025-01-20T08:57:22.456Z</time>
      </trkpt>
      <trkpt lat="46.73666" lon="-1.99661">
        <ele>13.8</ele>
        <time>2025-01-20T08:57:23.456Z</time>
      </trkpt>
      <trkpt lat="46.73666" lon="-1.99659">
        <ele>14.1</ele>
        <time>2025-01-20T08:57:24.455Z</time>
      </trkpt>
      <trkpt lat="46.73667" lon="-1.99658">
        <ele>14.3</ele>
        <time>2025-01-20T08:57:25.455Z</time>
      </trkpt>
      <trkpt lat="46.73667" lon="-1.99657">
        <ele>14.4</ele>
        <time>2025-01-20T08:57:26.455Z</time>
      </trkpt>
      <trkpt lat="46.73668" lon="-1.99655">
        <ele>14.7</ele>
        <time>2025-01-20T08:57:27.456Z</time>
      </trkpt>
      <trkpt lat="46.73668" lon="-1.99654">
        <ele>14.9</ele>
        <time>2025-01-20T08:57:28.456Z</time>
      </trkpt>
      <trkpt lat="46.73669" lon="-1.99653">
        <ele>15</ele>
        <time>2025-01-20T08:57:29.456Z</time>
      </trkpt>
      <trkpt lat="46.7367" lon="-1.99652">
        <ele>15.2</ele>
        <time>2025-01-20T08:57:30.456Z</time>
      </trkpt>
      <trkpt lat="46.73671" lon="-1.99651">
        <ele>15.3</ele>
        <time>2025-01-20T08:57:31.455Z</time>
      </trkpt>
      <trkpt lat="46.73672" lon="-1.9965">
        <ele>15.4</ele>
        <time>2025-01-20T08:57:32.455Z</time>
      </trkpt>
      <trkpt lat="46.73673" lon="-1.99649">
        <ele>15.5</ele>
        <time>2025-01-20T08:57:33.455Z</time>
      </trkpt>
      <trkpt lat="46.73673" lon="-1.99647">
        <ele>15.7</ele>
        <time>2025-01-20T08:57:34.456Z</time>
      </trkpt>
      <trkpt lat="46.73674" lon="-1.99646">
        <ele>15.8</ele>
        <time>2025-01-20T08:57:35.455Z</time>
      </trkpt>
      <trkpt lat="46.73674" lon="-1.99645">
        <ele>15.9</ele>
        <time>2025-01-20T08:57:36.456Z</time>
      </trkpt>
      <trkpt lat="46.73674" lon="-1.99644">
        <ele>16</ele>
        <time>2025-01-20T08:57:37.455Z</time>
      </trkpt>
      <trkpt lat="46.73675" lon="-1.99643">
        <ele>16</ele>
        <time>2025-01-20T08:57:38.455Z</time>
      </trkpt>
      <trkpt lat="46.73676" lon="-1.99642">
        <ele>16.1</ele>
        <time>2025-01-20T08:57:39.455Z</time>
      </trkpt>
      <trkpt lat="46.73677" lon="-1.99641">
        <ele>16.1</ele>
        <time>2025-01-20T08:57:40.456Z</time>
      </trkpt>
      <trkpt lat="46.73677" lon="-1.9964">
        <ele>16.2</ele>
        <time>2025-01-20T08:57:41.456Z</time>
      </trkpt>
      <trkpt lat="46.73678" lon="-1.99639">
        <ele>16.2</ele>
        <time>2025-01-20T08:57:42.456Z</time>
      </trkpt>
      <trkpt lat="46.73678" lon="-1.99638">
        <ele>16.1</ele>
        <time>2025-01-20T08:57:43.455Z</time>
      </trkpt>
      <trkpt lat="46.73678" lon="-1.99638">
        <ele>16.1</ele>
        <time>2025-01-20T08:57:44.456Z</time>
      </trkpt>
      <trkpt lat="46.73678" lon="-1.99638">
        <ele>16.1</ele>
        <time>2025-01-20T08:57:45.456Z</time>
      </trkpt>
      <trkpt lat="46.73678" lon="-1.99638">
        <ele>16.1</ele>
        <time>2025-01-20T08:57:46.456Z</time>
      </trkpt>
      <trkpt lat="46.73678" lon="-1.99638">
        <ele>16.1</ele>
        <time>2025-01-20T08:57:47.456Z</time>
      </trkpt>
      <trkpt lat="46.73678" lon="-1.99637">
        <ele>16</ele>
        <time>2025-01-20T08:57:48.456Z</time>
      </trkpt>
      <trkpt lat="46.73677" lon="-1.99637">
        <ele>16.1</ele>
        <time>2025-01-20T08:57:49.456Z</time>
      </trkpt>
      <trkpt lat="46.73676" lon="-1.99637">
        <ele>16.2</ele>
        <time>2025-01-20T08:57:50.455Z</time>
      </trkpt>
      <trkpt lat="46.73675" lon="-1.99637">
        <ele>16.2</ele>
        <time>2025-01-20T08:57:51.455Z</time>
      </trkpt>
      <trkpt lat="46.73675" lon="-1.99637">
        <ele>16.2</ele>
        <time>2025-01-20T08:57:52.455Z</time>
      </trkpt>
      <trkpt lat="46.73674" lon="-1.99638">
        <ele>16.4</ele>
        <time>2025-01-20T08:57:53.456Z</time>
      </trkpt>
      <trkpt lat="46.73673" lon="-1.99638">
        <ele>16.5</ele>
        <time>2025-01-20T08:57:54.455Z</time>
      </trkpt>
      <trkpt lat="46.73673" lon="-1.99638">
        <ele>16.5</ele>
        <time>2025-01-20T08:57:55.455Z</time>
      </trkpt>
      <trkpt lat="46.73673" lon="-1.99638">
        <ele>16.5</ele>
        <time>2025-01-20T08:57:56.456Z</time>
      </trkpt>
      <trkpt lat="46.73672" lon="-1.99638">
        <ele>16.5</ele>
        <time>2025-01-20T08:57:57.456Z</time>
      </trkpt>
      <trkpt lat="46.73672" lon="-1.99639">
        <ele>16.6</ele>
        <time>2025-01-20T08:57:58.456Z</time>
      </trkpt>
      <trkpt lat="46.73672" lon="-1.99639">
        <ele>16.6</ele>
        <time>2025-01-20T08:57:59.456Z</time>
      </trkpt>
      <trkpt lat="46.73671" lon="-1.9964">
        <ele>16.6</ele>
        <time>2025-01-20T08:58:00.455Z</time>
      </trkpt>
      <trkpt lat="46.73671" lon="-1.9964">
        <ele>16.6</ele>
        <time>2025-01-20T08:58:01.456Z</time>
      </trkpt>
      <trkpt lat="46.7367" lon="-1.99639">
        <ele>16.7</ele>
        <time>2025-01-20T08:58:02.456Z</time>
      </trkpt>
      <trkpt lat="46.73669" lon="-1.99639">
        <ele>16.8</ele>
        <time>2025-01-20T08:58:03.456Z</time>
      </trkpt>
      <trkpt lat="46.73668" lon="-1.99639">
        <ele>16.9</ele>
        <time>2025-01-20T08:58:04.456Z</time>
      </trkpt>
      <trkpt lat="46.73667" lon="-1.9964">
        <ele>16.8</ele>
        <time>2025-01-20T08:58:05.455Z</time>
      </trkpt>
      <trkpt lat="46.73666" lon="-1.99639">
        <ele>17</ele>
        <time>2025-01-20T08:58:06.455Z</time>
      </trkpt>
      <trkpt lat="46.73665" lon="-1.99639">
        <ele>17.1</ele>
        <time>2025-01-20T08:58:07.455Z</time>
      </trkpt>
      <trkpt lat="46.73664" lon="-1.99639">
        <ele>17.2</ele>
        <time>2025-01-20T08:58:08.455Z</time>
      </trkpt>
      <trkpt lat="46.73664" lon="-1.99638">
        <ele>17.1</ele>
        <time>2025-01-20T08:58:09.456Z</time>
      </trkpt>
      <trkpt lat="46.73663" lon="-1.99637">
        <ele>17.2</ele>
        <time>2025-01-20T08:58:10.456Z</time>
      </trkpt>
      <trkpt lat="46.73662" lon="-1.99636">
        <ele>17.2</ele>
        <time>2025-01-20T08:58:11.456Z</time>
      </trkpt>
      <trkpt lat="46.73662" lon="-1.99636">
        <ele>17.2</ele>
        <time>2025-01-20T08:58:12.455Z</time>
      </trkpt>
      <trkpt lat="46.73661" lon="-1.99636">
        <ele>17.3</ele>
        <time>2025-01-20T08:58:13.456Z</time>
      </trkpt>
      <trkpt lat="46.7366" lon="-1.99635">
        <ele>17.3</ele>
        <time>2025-01-20T08:58:14.455Z</time>
      </trkpt>
      <trkpt lat="46.73659" lon="-1.99635">
        <ele>17.4</ele>
        <time>2025-01-20T08:58:15.456Z</time>
      </trkpt>
      <trkpt lat="46.73659" lon="-1.99635">
        <ele>17.4</ele>
        <time>2025-01-20T08:58:16.455Z</time>
      </trkpt>
      <trkpt lat="46.73658" lon="-1.99635">
        <ele>17.5</ele>
        <time>2025-01-20T08:58:17.456Z</time>
      </trkpt>
      <trkpt lat="46.73657" lon="-1.99635">
        <ele>17.6</ele>
        <time>2025-01-20T08:58:18.455Z</time>
      </trkpt>
      <trkpt lat="46.73656" lon="-1.99635">
        <ele>17.6</ele>
        <time>2025-01-20T08:58:19.455Z</time>
      </trkpt>
      <trkpt lat="46.73655" lon="-1.99635">
        <ele>17.7</ele>
        <time>2025-01-20T08:58:20.455Z</time>
      </trkpt>
      <trkpt lat="46.73654" lon="-1.99634">
        <ele>17.8</ele>
        <time>2025-01-20T08:58:21.456Z</time>
      </trkpt>
      <trkpt lat="46.73653" lon="-1.99634">
        <ele>17.9</ele>
        <time>2025-01-20T08:58:22.456Z</time>
      </trkpt>
      <trkpt lat="46.73653" lon="-1.99633">
        <ele>17.9</ele>
        <time>2025-01-20T08:58:23.456Z</time>
      </trkpt>
      <trkpt lat="46.73652" lon="-1.99632">
        <ele>18</ele>
        <time>2025-01-20T08:58:24.456Z</time>
      </trkpt>
      <trkpt lat="46.73651" lon="-1.99631">
        <ele>18</ele>
        <time>2025-01-20T08:58:25.456Z</time>
      </trkpt>
      <trkpt lat="46.7365" lon="-1.9963">
        <ele>18.1</ele>
        <time>2025-01-20T08:58:26.455Z</time>
      </trkpt>
      <trkpt lat="46.73649" lon="-1.99629">
        <ele>18.2</ele>
        <time>2025-01-20T08:58:27.455Z</time>
      </trkpt>
      <trkpt lat="46.73648" lon="-1.99629">
        <ele>18.3</ele>
        <time>2025-01-20T08:58:28.455Z</time>
      </trkpt>
      <trkpt lat="46.73647" lon="-1.99629">
        <ele>18.5</ele>
        <time>2025-01-20T08:58:29.455Z</time>
      </trkpt>
      <trkpt lat="46.73646" lon="-1.99629">
        <ele>18.6</ele>
        <time>2025-01-20T08:58:30.456Z</time>
      </trkpt>
      <trkpt lat="46.73645" lon="-1.99629">
        <ele>18.7</ele>
        <time>2025-01-20T08:58:31.455Z</time>
      </trkpt>
      <trkpt lat="46.73644" lon="-1.99628">
        <ele>18.8</ele>
        <time>2025-01-20T08:58:32.455Z</time>
      </trkpt>
      <trkpt lat="46.73643" lon="-1.99627">
        <ele>18.9</ele>
        <time>2025-01-20T08:58:33.456Z</time>
      </trkpt>
      <trkpt lat="46.73643" lon="-1.99626">
        <ele>19</ele>
        <time>2025-01-20T08:58:34.456Z</time>
      </trkpt>
      <trkpt lat="46.73642" lon="-1.99625">
        <ele>19.1</ele>
        <time>2025-01-20T08:58:35.455Z</time>
      </trkpt>
      <trkpt lat="46.73641" lon="-1.99624">
        <ele>19.3</ele>
        <time>2025-01-20T08:58:36.455Z</time>
      </trkpt>
      <trkpt lat="46.7364" lon="-1.99623">
        <ele>19.4</ele>
        <time>2025-01-20T08:58:37.455Z</time>
      </trkpt>
      <trkpt lat="46.73639" lon="-1.99623">
        <ele>19.6</ele>
        <time>2025-01-20T08:58:38.456Z</time>
      </trkpt>
      <trkpt lat="46.73638" lon="-1.99623">
        <ele>19.5</ele>
        <time>2025-01-20T08:58:39.456Z</time>
      </trkpt>
      <trkpt lat="46.73636" lon="-1.99622">
        <ele>19.3</ele>
        <time>2025-01-20T08:58:40.456Z</time>
      </trkpt>
      <trkpt lat="46.73635" lon="-1.99623">
        <ele>19.1</ele>
        <time>2025-01-20T08:58:41.456Z</time>
      </trkpt>
      <trkpt lat="46.73634" lon="-1.99623">
        <ele>19</ele>
        <time>2025-01-20T08:58:42.456Z</time>
      </trkpt>
      <trkpt lat="46.73633" lon="-1.99623">
        <ele>18.9</ele>
        <time>2025-01-20T08:58:43.455Z</time>
      </trkpt>
      <trkpt lat="46.73632" lon="-1.99623">
        <ele>18.8</ele>
        <time>2025-01-20T08:58:44.455Z</time>
      </trkpt>
      <trkpt lat="46.73631" lon="-1.99623">
        <ele>18.6</ele>
        <time>2025-01-20T08:58:45.455Z</time>
      </trkpt>
      <trkpt lat="46.7363" lon="-1.99623">
        <ele>18.5</ele>
        <time>2025-01-20T08:58:46.455Z</time>
      </trkpt>
      <trkpt lat="46.73629" lon="-1.99623">
        <ele>18.4</ele>
        <time>2025-01-20T08:58:47.455Z</time>
      </trkpt>
      <trkpt lat="46.73628" lon="-1.99623">
        <ele>18.3</ele>
        <time>2025-01-20T08:58:48.456Z</time>
      </trkpt>
      <trkpt lat="46.73627" lon="-1.99624">
        <ele>18.1</ele>
        <time>2025-01-20T08:58:49.456Z</time>
      </trkpt>
      <trkpt lat="46.73626" lon="-1.99625">
        <ele>17.9</ele>
        <time>2025-01-20T08:58:50.456Z</time>
      </trkpt>
      <trkpt lat="46.73625" lon="-1.99625">
        <ele>17.7</ele>
        <time>2025-01-20T08:58:51.455Z</time>
      </trkpt>
      <trkpt lat="46.73624" lon="-1.99625">
        <ele>17.6</ele>
        <time>2025-01-20T08:58:52.455Z</time>
      </trkpt>
      <trkpt lat="46.73623" lon="-1.99625">
        <ele>17.5</ele>
        <time>2025-01-20T08:58:53.455Z</time>
      </trkpt>
      <trkpt lat="46.73622" lon="-1.99624">
        <ele>17.5</ele>
        <time>2025-01-20T08:58:54.455Z</time>
      </trkpt>
      <trkpt lat="46.7362" lon="-1.99623">
        <ele>17.3</ele>
        <time>2025-01-20T08:58:55.455Z</time>
      </trkpt>
      <trkpt lat="46.73619" lon="-1.99622">
        <ele>17.3</ele>
        <time>2025-01-20T08:58:56.456Z</time>
      </trkpt>
      <trkpt lat="46.73618" lon="-1.99621">
        <ele>17.3</ele>
        <time>2025-01-20T08:58:57.455Z</time>
      </trkpt>
      <trkpt lat="46.73617" lon="-1.9962">
        <ele>17.3</ele>
        <time>2025-01-20T08:58:58.456Z</time>
      </trkpt>
      <trkpt lat="46.73616" lon="-1.99619">
        <ele>17.4</ele>
        <time>2025-01-20T08:58:59.456Z</time>
      </trkpt>
      <trkpt lat="46.73615" lon="-1.99618">
        <ele>17.4</ele>
        <time>2025-01-20T08:59:00.456Z</time>
      </trkpt>
      <trkpt lat="46.73614" lon="-1.99616">
        <ele>17.6</ele>
        <time>2025-01-20T08:59:01.455Z</time>
      </trkpt>
      <trkpt lat="46.73613" lon="-1.99615">
        <ele>17.6</ele>
        <time>2025-01-20T08:59:02.455Z</time>
      </trkpt>
      <trkpt lat="46.73612" lon="-1.99614">
        <ele>17.7</ele>
        <time>2025-01-20T08:59:03.455Z</time>
      </trkpt>
      <trkpt lat="46.73611" lon="-1.99613">
        <ele>17.7</ele>
        <time>2025-01-20T08:59:04.456Z</time>
      </trkpt>
      <trkpt lat="46.7361" lon="-1.99612">
        <ele>17.8</ele>
        <time>2025-01-20T08:59:05.456Z</time>
      </trkpt>
      <trkpt lat="46.73609" lon="-1.99611">
        <ele>17.8</ele>
        <time>2025-01-20T08:59:06.455Z</time>
      </trkpt>
      <trkpt lat="46.73607" lon="-1.9961">
        <ele>17.6</ele>
        <time>2025-01-20T08:59:07.455Z</time>
      </trkpt>
      <trkpt lat="46.73607" lon="-1.99609">
        <ele>17.7</ele>
        <time>2025-01-20T08:59:08.455Z</time>
      </trkpt>
      <trkpt lat="46.73606" lon="-1.99609">
        <ele>17.6</ele>
        <time>2025-01-20T08:59:09.455Z</time>
      </trkpt>
      <trkpt lat="46.73605" lon="-1.99608">
        <ele>17.6</ele>
        <time>2025-01-20T08:59:10.455Z</time>
      </trkpt>
      <trkpt lat="46.73605" lon="-1.99608">
        <ele>17.6</ele>
        <time>2025-01-20T08:59:11.455Z</time>
      </trkpt>
      <trkpt lat="46.73605" lon="-1.99608">
        <ele>17.6</ele>
        <time>2025-01-20T08:59:12.455Z</time>
      </trkpt>
      <trkpt lat="46.73604" lon="-1.99608">
        <ele>17.5</ele>
        <time>2025-01-20T08:59:13.456Z</time>
      </trkpt>
      <trkpt lat="46.73604" lon="-1.99607">
        <ele>17.6</ele>
        <time>2025-01-20T08:59:14.455Z</time>
      </trkpt>
      <trkpt lat="46.73604" lon="-1.99607">
        <ele>17.6</ele>
        <time>2025-01-20T08:59:15.455Z</time>
      </trkpt>
      <trkpt lat="46.73604" lon="-1.99607">
        <ele>17.6</ele>
        <time>2025-01-20T08:59:16.456Z</time>
      </trkpt>
      <trkpt lat="46.73604" lon="-1.99606">
        <ele>17.6</ele>
        <time>2025-01-20T08:59:17.456Z</time>
      </trkpt>
      <trkpt lat="46.73604" lon="-1.99605">
        <ele>17.7</ele>
        <time>2025-01-20T08:59:18.456Z</time>
      </trkpt>
      <trkpt lat="46.73603" lon="-1.99604">
        <ele>17.7</ele>
        <time>2025-01-20T08:59:19.455Z</time>
      </trkpt>
      <trkpt lat="46.73603" lon="-1.99604">
        <ele>17.7</ele>
        <time>2025-01-20T08:59:20.455Z</time>
      </trkpt>
      <trkpt lat="46.73603" lon="-1.99604">
        <ele>17.7</ele>
        <time>2025-01-20T08:59:21.456Z</time>
      </trkpt>
      <trkpt lat="46.73603" lon="-1.99604">
        <ele>17.7</ele>
        <time>2025-01-20T08:59:22.456Z</time>
      </trkpt>
      <trkpt lat="46.73603" lon="-1.99604">
        <ele>17.7</ele>
        <time>2025-01-20T08:59:23.456Z</time>
      </trkpt>
      <trkpt lat="46.73603" lon="-1.99604">
        <ele>17.7</ele>
        <time>2025-01-20T08:59:24.456Z</time>
      </trkpt>
      <trkpt lat="46.73603" lon="-1.99604">
        <ele>17.7</ele>
        <time>2025-01-20T08:59:25.456Z</time>
      </trkpt>
      <trkpt lat="46.73603" lon="-1.99604">
        <ele>17.7</ele>
        <time>2025-01-20T08:59:26.455Z</time>
      </trkpt>
      <trkpt lat="46.73603" lon="-1.99603">
        <ele>17.8</ele>
        <time>2025-01-20T08:59:27.455Z</time>
      </trkpt>
      <trkpt lat="46.73603" lon="-1.99603">
        <ele>17.8</ele>
        <time>2025-01-20T08:59:28.455Z</time>
      </trkpt>
      <trkpt lat="46.73603" lon="-1.99603">
        <ele>17.8</ele>
        <time>2025-01-20T08:59:29.456Z</time>
      </trkpt>
      <trkpt lat="46.73603" lon="-1.99603">
        <ele>17.8</ele>
        <time>2025-01-20T08:59:30.456Z</time>
      </trkpt>
      <trkpt lat="46.73603" lon="-1.99603">
        <ele>17.8</ele>
        <time>2025-01-20T08:59:31.456Z</time>
      </trkpt>
      <trkpt lat="46.73603" lon="-1.99603">
        <ele>17.8</ele>
        <time>2025-01-20T08:59:32.455Z</time>
      </trkpt>
      <trkpt lat="46.73603" lon="-1.99603">
        <ele>17.8</ele>
        <time>2025-01-20T08:59:33.456Z</time>
      </trkpt>
      <trkpt lat="46.73603" lon="-1.99603">
        <ele>17.8</ele>
        <time>2025-01-20T08:59:34.455Z</time>
      </trkpt>
      <trkpt lat="46.73603" lon="-1.99603">
        <ele>17.8</ele>
        <time>2025-01-20T08:59:35.456Z</time>
      </trkpt>
      <trkpt lat="46.73603" lon="-1.99604">
        <ele>17.7</ele>
        <time>2025-01-20T08:59:36.456Z</time>
      </trkpt>
      <trkpt lat="46.73603" lon="-1.99604">
        <ele>17.7</ele>
        <time>2025-01-20T08:59:37.456Z</time>
      </trkpt>
      <trkpt lat="46.73603" lon="-1.99604">
        <ele>17.7</ele>
        <time>2025-01-20T08:59:38.455Z</time>
      </trkpt>
      <trkpt lat="46.73603" lon="-1.99604">
        <ele>17.7</ele>
        <time>2025-01-20T08:59:39.455Z</time>
      </trkpt>
      <trkpt lat="46.73603" lon="-1.99604">
        <ele>17.7</ele>
        <time>2025-01-20T08:59:40.455Z</time>
      </trkpt>
      <trkpt lat="46.73603" lon="-1.99604">
        <ele>17.7</ele>
        <time>2025-01-20T08:59:41.455Z</time>
      </trkpt>
      <trkpt lat="46.73603" lon="-1.99604">
        <ele>17.7</ele>
        <time>2025-01-20T08:59:42.456Z</time>
      </trkpt>
      <trkpt lat="46.73603" lon="-1.99604">
        <ele>17.7</ele>
        <time>2025-01-20T08:59:43.455Z</time>
      </trkpt>
      <trkpt lat="46.73603" lon="-1.99604">
        <ele>17.7</ele>
        <time>2025-01-20T08:59:44.455Z</time>
      </trkpt>
      <trkpt lat="46.73603" lon="-1.99604">
        <ele>17.7</ele>
        <time>2025-01-20T08:59:45.455Z</time>
      </trkpt>
      <trkpt lat="46.73603" lon="-1.99604">
        <ele>17.7</ele>
        <time>2025-01-20T08:59:46.456Z</time>
      </trkpt>
      <trkpt lat="46.73603" lon="-1.99604">
        <ele>17.7</ele>
        <time>2025-01-20T08:59:47.456Z</time>
      </trkpt>
      <trkpt lat="46.73602" lon="-1.99604">
        <ele>17.6</ele>
        <time>2025-01-20T08:59:48.455Z</time>
      </trkpt>
      <trkpt lat="46.73601" lon="-1.99604">
        <ele>17.5</ele>
        <time>2025-01-20T08:59:49.455Z</time>
      </trkpt>
      <trkpt lat="46.73601" lon="-1.99604">
        <ele>17.5</ele>
        <time>2025-01-20T08:59:50.455Z</time>
      </trkpt>
      <trkpt lat="46.73601" lon="-1.99604">
        <ele>17.5</ele>
        <time>2025-01-20T08:59:51.456Z</time>
      </trkpt>
      <trkpt lat="46.73601" lon="-1.99604">
        <ele>17.5</ele>
        <time>2025-01-20T08:59:52.455Z</time>
      </trkpt>
      <trkpt lat="46.73601" lon="-1.99604">
        <ele>17.5</ele>
        <time>2025-01-20T08:59:53.456Z</time>
      </trkpt>
      <trkpt lat="46.73601" lon="-1.99604">
        <ele>17.5</ele>
        <time>2025-01-20T08:59:54.456Z</time>
      </trkpt>
      <trkpt lat="46.73601" lon="-1.99604">
        <ele>17.5</ele>
        <time>2025-01-20T08:59:55.456Z</time>
      </trkpt>
      <trkpt lat="46.73601" lon="-1.99604">
        <ele>17.5</ele>
        <time>2025-01-20T08:59:56.456Z</time>
      </trkpt>
      <trkpt lat="46.73601" lon="-1.99604">
        <ele>17.5</ele>
        <time>2025-01-20T08:59:57.456Z</time>
      </trkpt>
      <trkpt lat="46.73601" lon="-1.99604">
        <ele>17.5</ele>
        <time>2025-01-20T08:59:58.456Z</time>
      </trkpt>
      <trkpt lat="46.73601" lon="-1.99604">
        <ele>17.5</ele>
        <time>2025-01-20T08:59:59.455Z</time>
      </trkpt>
      <trkpt lat="46.73601" lon="-1.99604">
        <ele>17.5</ele>
        <time>2025-01-20T09:00:00.456Z</time>
      </trkpt>
      <trkpt lat="46.73601" lon="-1.99604">
        <ele>17.5</ele>
        <time>2025-01-20T09:00:01.456Z</time>
      </trkpt>
      <trkpt lat="46.73601" lon="-1.99604">
        <ele>17.5</ele>
        <time>2025-01-20T09:00:02.455Z</time>
      </trkpt>
      <trkpt lat="46.73601" lon="-1.99604">
        <ele>17.5</ele>
        <time>2025-01-20T09:00:03.455Z</time>
      </trkpt>
      <trkpt lat="46.73601" lon="-1.99604">
        <ele>17.5</ele>
        <time>2025-01-20T09:00:04.456Z</time>
      </trkpt>
      <trkpt lat="46.73601" lon="-1.99604">
        <ele>17.5</ele>
        <time>2025-01-20T09:00:05.456Z</time>
      </trkpt>
      <trkpt lat="46.73601" lon="-1.99604">
        <ele>17.5</ele>
        <time>2025-01-20T09:00:06.455Z</time>
      </trkpt>
      <trkpt lat="46.73601" lon="-1.99604">
        <ele>17.5</ele>
        <time>2025-01-20T09:00:07.455Z</time>
      </trkpt>
      <trkpt lat="46.73601" lon="-1.99604">
        <ele>17.5</ele>
        <time>2025-01-20T09:00:08.455Z</time>
      </trkpt>
      <trkpt lat="46.73601" lon="-1.99604">
        <ele>17.5</ele>
        <time>2025-01-20T09:00:09.455Z</time>
      </trkpt>
      <trkpt lat="46.73601" lon="-1.99604">
        <ele>17.5</ele>
        <time>2025-01-20T09:00:10.456Z</time>
      </trkpt>
      <trkpt lat="46.73601" lon="-1.99604">
        <ele>17.5</ele>
        <time>2025-01-20T09:00:11.456Z</time>
      </trkpt>
      <trkpt lat="46.73601" lon="-1.99604">
        <ele>17.5</ele>
        <time>2025-01-20T09:00:12.455Z</time>
      </trkpt>
      <trkpt lat="46.73601" lon="-1.99604">
        <ele>17.5</ele>
        <time>2025-01-20T09:00:13.456Z</time>
      </trkpt>
      <trkpt lat="46.73601" lon="-1.99604">
        <ele>17.5</ele>
        <time>2025-01-20T09:00:14.456Z</time>
      </trkpt>
      <trkpt lat="46.73601" lon="-1.99604">
        <ele>17.5</ele>
        <time>2025-01-20T09:00:15.455Z</time>
      </trkpt>
      <trkpt lat="46.73601" lon="-1.99604">
        <ele>17.5</ele>
        <time>2025-01-20T09:00:16.456Z</time>
      </trkpt>
      <trkpt lat="46.73601" lon="-1.99604">
        <ele>17.5</ele>
        <time>2025-01-20T09:00:17.455Z</time>
      </trkpt>
      <trkpt lat="46.73601" lon="-1.99604">
        <ele>17.5</ele>
        <time>2025-01-20T09:00:18.456Z</time>
      </trkpt>
      <trkpt lat="46.73601" lon="-1.99604">
        <ele>17.5</ele>
        <time>2025-01-20T09:00:19.456Z</time>
      </trkpt>
      <trkpt lat="46.73601" lon="-1.99604">
        <ele>17.5</ele>
        <time>2025-01-20T09:00:20.456Z</time>
      </trkpt>
      <trkpt lat="46.73601" lon="-1.99604">
        <ele>17.5</ele>
        <time>2025-01-20T09:00:21.456Z</time>
      </trkpt>
      <trkpt lat="46.73601" lon="-1.99604">
        <ele>17.5</ele>
        <time>2025-01-20T09:00:22.456Z</time>
      </trkpt>
      <trkpt lat="46.73601" lon="-1.99604">
        <ele>17.5</ele>
        <time>2025-01-20T09:00:23.455Z</time>
      </trkpt>
      <trkpt lat="46.73601" lon="-1.99604">
        <ele>17.5</ele>
        <time>2025-01-20T09:00:24.455Z</time>
      </trkpt>
      <trkpt lat="46.73601" lon="-1.99604">
        <ele>17.5</ele>
        <time>2025-01-20T09:00:25.456Z</time>
      </trkpt>
      <trkpt lat="46.73601" lon="-1.99604">
        <ele>17.5</ele>
        <time>2025-01-20T09:00:26.456Z</time>
      </trkpt>
      <trkpt lat="46.73601" lon="-1.99604">
        <ele>17.5</ele>
        <time>2025-01-20T09:00:27.455Z</time>
      </trkpt>
      <trkpt lat="46.73601" lon="-1.99604">
        <ele>17.5</ele>
        <time>2025-01-20T09:00:28.455Z</time>
      </trkpt>
      <trkpt lat="46.73601" lon="-1.99604">
        <ele>17.5</ele>
        <time>2025-01-20T09:00:29.455Z</time>
      </trkpt>
      <trkpt lat="46.73601" lon="-1.99604">
        <ele>17.5</ele>
        <time>2025-01-20T09:00:30.455Z</time>
      </trkpt>
      <trkpt lat="46.73601" lon="-1.99604">
        <ele>17.5</ele>
        <time>2025-01-20T09:00:31.455Z</time>
      </trkpt>
      <trkpt lat="46.73601" lon="-1.99604">
        <ele>17.5</ele>
        <time>2025-01-20T09:00:32.456Z</time>
      </trkpt>
      <trkpt lat="46.73601" lon="-1.99604">
        <ele>17.5</ele>
        <time>2025-01-20T09:00:33.456Z</time>
      </trkpt>
      <trkpt lat="46.73601" lon="-1.99604">
        <ele>17.5</ele>
        <time>2025-01-20T09:00:34.456Z</time>
      </trkpt>
      <trkpt lat="46.73601" lon="-1.99604">
        <ele>17.5</ele>
        <time>2025-01-20T09:00:35.456Z</time>
      </trkpt>
      <trkpt lat="46.73601" lon="-1.99605">
        <ele>17.4</ele>
        <time>2025-01-20T09:00:36.456Z</time>
      </trkpt>
      <trkpt lat="46.73601" lon="-1.99605">
        <ele>17.4</ele>
        <time>2025-01-20T09:00:37.456Z</time>
      </trkpt>
      <trkpt lat="46.73601" lon="-1.99605">
        <ele>17.4</ele>
        <time>2025-01-20T09:00:38.456Z</time>
      </trkpt>
      <trkpt lat="46.73601" lon="-1.99605">
        <ele>17.4</ele>
        <time>2025-01-20T09:00:39.456Z</time>
      </trkpt>
      <trkpt lat="46.73601" lon="-1.99605">
        <ele>17.4</ele>
        <time>2025-01-20T09:00:40.455Z</time>
      </trkpt>
      <trkpt lat="46.73601" lon="-1.99605">
        <ele>17.4</ele>
        <time>2025-01-20T09:00:41.456Z</time>
      </trkpt>
      <trkpt lat="46.73601" lon="-1.99605">
        <ele>17.4</ele>
        <time>2025-01-20T09:00:42.455Z</time>
      </trkpt>
      <trkpt lat="46.73601" lon="-1.99605">
        <ele>17.4</ele>
        <time>2025-01-20T09:00:43.455Z</time>
      </trkpt>
      <trkpt lat="46.73601" lon="-1.99605">
        <ele>17.4</ele>
        <time>2025-01-20T09:00:44.456Z</time>
      </trkpt>
      <trkpt lat="46.73601" lon="-1.99605">
        <ele>17.4</ele>
        <time>2025-01-20T09:00:45.455Z</time>
      </trkpt>
      <trkpt lat="46.73601" lon="-1.99605">
        <ele>17.4</ele>
        <time>2025-01-20T09:00:46.456Z</time>
      </trkpt>
      <trkpt lat="46.73601" lon="-1.99605">
        <ele>17.4</ele>
        <time>2025-01-20T09:00:47.456Z</time>
      </trkpt>
      <trkpt lat="46.73601" lon="-1.99605">
        <ele>17.4</ele>
        <time>2025-01-20T09:00:48.456Z</time>
      </trkpt>
      <trkpt lat="46.73601" lon="-1.99605">
        <ele>17.4</ele>
        <time>2025-01-20T09:00:49.455Z</time>
      </trkpt>
      <trkpt lat="46.73601" lon="-1.99605">
        <ele>17.4</ele>
        <time>2025-01-20T09:00:50.455Z</time>
      </trkpt>
      <trkpt lat="46.73601" lon="-1.99605">
        <ele>17.4</ele>
        <time>2025-01-20T09:00:51.456Z</time>
      </trkpt>
      <trkpt lat="46.73601" lon="-1.99605">
        <ele>17.4</ele>
        <time>2025-01-20T09:00:52.455Z</time>
      </trkpt>
      <trkpt lat="46.73601" lon="-1.99605">
        <ele>17.4</ele>
        <time>2025-01-20T09:00:53.456Z</time>
      </trkpt>
      <trkpt lat="46.73601" lon="-1.99605">
        <ele>17.4</ele>
        <time>2025-01-20T09:00:54.456Z</time>
      </trkpt>
      <trkpt lat="46.736" lon="-1.99605">
        <ele>17.3</ele>
        <time>2025-01-20T09:00:55.456Z</time>
      </trkpt>
      <trkpt lat="46.736" lon="-1.99605">
        <ele>17.3</ele>
        <time>2025-01-20T09:00:56.455Z</time>
      </trkpt>
      <trkpt lat="46.736" lon="-1.99605">
        <ele>17.3</ele>
        <time>2025-01-20T09:00:57.456Z</time>
      </trkpt>
      <trkpt lat="46.736" lon="-1.99605">
        <ele>17.3</ele>
        <time>2025-01-20T09:00:58.455Z</time>
      </trkpt>
      <trkpt lat="46.736" lon="-1.99605">
        <ele>17.3</ele>
        <time>2025-01-20T09:00:59.455Z</time>
      </trkpt>
      <trkpt lat="46.736" lon="-1.99605">
        <ele>17.3</ele>
        <time>2025-01-20T09:01:00.455Z</time>
      </trkpt>
      <trkpt lat="46.736" lon="-1.99605">
        <ele>17.3</ele>
        <time>2025-01-20T09:01:01.455Z</time>
      </trkpt>
      <trkpt lat="46.736" lon="-1.99605">
        <ele>17.3</ele>
        <time>2025-01-20T09:01:02.456Z</time>
      </trkpt>
      <trkpt lat="46.736" lon="-1.99605">
        <ele>17.3</ele>
        <time>2025-01-20T09:01:03.456Z</time>
      </trkpt>
      <trkpt lat="46.73599" lon="-1.99605">
        <ele>17.2</ele>
        <time>2025-01-20T09:01:04.456Z</time>
      </trkpt>
      <trkpt lat="46.73599" lon="-1.99605">
        <ele>17.2</ele>
        <time>2025-01-20T09:01:05.456Z</time>
      </trkpt>
      <trkpt lat="46.73599" lon="-1.99605">
        <ele>17.2</ele>
        <time>2025-01-20T09:01:06.455Z</time>
      </trkpt>
      <trkpt lat="46.73599" lon="-1.99605">
        <ele>17.2</ele>
        <time>2025-01-20T09:01:07.455Z</time>
      </trkpt>
      <trkpt lat="46.73597" lon="-1.99604">
        <ele>17.1</ele>
        <time>2025-01-20T09:01:08.455Z</time>
      </trkpt>
      <trkpt lat="46.73596" lon="-1.99603">
        <ele>17.1</ele>
        <time>2025-01-20T09:01:09.455Z</time>
      </trkpt>
      <trkpt lat="46.73594" lon="-1.99603">
        <ele>16.9</ele>
        <time>2025-01-20T09:01:10.456Z</time>
      </trkpt>
      <trkpt lat="46.73593" lon="-1.99601">
        <ele>17</ele>
        <time>2025-01-20T09:01:11.455Z</time>
      </trkpt>
      <trkpt lat="46.73591" lon="-1.996">
        <ele>16.9</ele>
        <time>2025-01-20T09:01:12.455Z</time>
      </trkpt>
      <trkpt lat="46.7359" lon="-1.99599">
        <ele>16.9</ele>
        <time>2025-01-20T09:01:13.455Z</time>
      </trkpt>
      <trkpt lat="46.73589" lon="-1.99597">
        <ele>17</ele>
        <time>2025-01-20T09:01:14.456Z</time>
      </trkpt>
      <trkpt lat="46.73588" lon="-1.99595">
        <ele>17.1</ele>
        <time>2025-01-20T09:01:15.455Z</time>
      </trkpt>
      <trkpt lat="46.73587" lon="-1.99593">
        <ele>17.3</ele>
        <time>2025-01-20T09:01:16.455Z</time>
      </trkpt>
      <trkpt lat="46.73586" lon="-1.99591">
        <ele>17.4</ele>
        <time>2025-01-20T09:01:17.455Z</time>
      </trkpt>
      <trkpt lat="46.73585" lon="-1.9959">
        <ele>17.4</ele>
        <time>2025-01-20T09:01:18.456Z</time>
      </trkpt>
      <trkpt lat="46.73585" lon="-1.99589">
        <ele>17.5</ele>
        <time>2025-01-20T09:01:19.456Z</time>
      </trkpt>
      <trkpt lat="46.73584" lon="-1.99588">
        <ele>17.5</ele>
        <time>2025-01-20T09:01:20.456Z</time>
      </trkpt>
      <trkpt lat="46.73584" lon="-1.99586">
        <ele>17.8</ele>
        <time>2025-01-20T09:01:21.456Z</time>
      </trkpt>
      <trkpt lat="46.73583" lon="-1.99584">
        <ele>17.9</ele>
        <time>2025-01-20T09:01:22.456Z</time>
      </trkpt>
      <trkpt lat="46.73582" lon="-1.99583">
        <ele>18</ele>
        <time>2025-01-20T09:01:23.455Z</time>
      </trkpt>
      <trkpt lat="46.73581" lon="-1.99582">
        <ele>18</ele>
        <time>2025-01-20T09:01:24.455Z</time>
      </trkpt>
      <trkpt lat="46.73581" lon="-1.99581">
        <ele>18.1</ele>
        <time>2025-01-20T09:01:25.455Z</time>
      </trkpt>
      <trkpt lat="46.7358" lon="-1.9958">
        <ele>18.1</ele>
        <time>2025-01-20T09:01:26.456Z</time>
      </trkpt>
      <trkpt lat="46.73579" lon="-1.99579">
        <ele>18.2</ele>
        <time>2025-01-20T09:01:27.456Z</time>
      </trkpt>
      <trkpt lat="46.73578" lon="-1.99578">
        <ele>18.2</ele>
        <time>2025-01-20T09:01:28.455Z</time>
      </trkpt>
      <trkpt lat="46.73577" lon="-1.99577">
        <ele>18.3</ele>
        <time>2025-01-20T09:01:29.455Z</time>
      </trkpt>
      <trkpt lat="46.73576" lon="-1.99577">
        <ele>18.3</ele>
        <time>2025-01-20T09:01:30.455Z</time>
      </trkpt>
      <trkpt lat="46.73575" lon="-1.99577">
        <ele>18.2</ele>
        <time>2025-01-20T09:01:31.455Z</time>
      </trkpt>
      <trkpt lat="46.73573" lon="-1.99576">
        <ele>18.3</ele>
        <time>2025-01-20T09:01:32.456Z</time>
      </trkpt>
      <trkpt lat="46.73572" lon="-1.99576">
        <ele>18.2</ele>
        <time>2025-01-20T09:01:33.455Z</time>
      </trkpt>
      <trkpt lat="46.73571" lon="-1.99575">
        <ele>18.3</ele>
        <time>2025-01-20T09:01:34.455Z</time>
      </trkpt>
      <trkpt lat="46.7357" lon="-1.99574">
        <ele>18.4</ele>
        <time>2025-01-20T09:01:35.455Z</time>
      </trkpt>
      <trkpt lat="46.73569" lon="-1.99573">
        <ele>18.4</ele>
        <time>2025-01-20T09:01:36.456Z</time>
      </trkpt>
      <trkpt lat="46.73568" lon="-1.99572">
        <ele>18.5</ele>
        <time>2025-01-20T09:01:37.456Z</time>
      </trkpt>
      <trkpt lat="46.73566" lon="-1.99572">
        <ele>18.4</ele>
        <time>2025-01-20T09:01:38.455Z</time>
      </trkpt>
      <trkpt lat="46.73565" lon="-1.99571">
        <ele>18.5</ele>
        <time>2025-01-20T09:01:39.455Z</time>
      </trkpt>
      <trkpt lat="46.73565" lon="-1.9957">
        <ele>18.6</ele>
        <time>2025-01-20T09:01:40.455Z</time>
      </trkpt>
      <trkpt lat="46.73565" lon="-1.99568">
        <ele>18.8</ele>
        <time>2025-01-20T09:01:41.455Z</time>
      </trkpt>
      <trkpt lat="46.73564" lon="-1.99566">
        <ele>19</ele>
        <time>2025-01-20T09:01:42.455Z</time>
      </trkpt>
      <trkpt lat="46.73563" lon="-1.99565">
        <ele>19.1</ele>
        <time>2025-01-20T09:01:43.455Z</time>
      </trkpt>
      <trkpt lat="46.73562" lon="-1.99564">
        <ele>19.2</ele>
        <time>2025-01-20T09:01:44.455Z</time>
      </trkpt>
      <trkpt lat="46.73561" lon="-1.99564">
        <ele>19.1</ele>
        <time>2025-01-20T09:01:45.456Z</time>
      </trkpt>
      <trkpt lat="46.7356" lon="-1.99563">
        <ele>19.2</ele>
        <time>2025-01-20T09:01:46.456Z</time>
      </trkpt>
      <trkpt lat="46.73559" lon="-1.99563">
        <ele>19.2</ele>
        <time>2025-01-20T09:01:47.456Z</time>
      </trkpt>
      <trkpt lat="46.73558" lon="-1.99562">
        <ele>19.3</ele>
        <time>2025-01-20T09:01:48.455Z</time>
      </trkpt>
      <trkpt lat="46.73557" lon="-1.99562">
        <ele>19.3</ele>
        <time>2025-01-20T09:01:49.455Z</time>
      </trkpt>
      <trkpt lat="46.73556" lon="-1.99562">
        <ele>19.3</ele>
        <time>2025-01-20T09:01:50.455Z</time>
      </trkpt>
      <trkpt lat="46.73554" lon="-1.99561">
        <ele>19.4</ele>
        <time>2025-01-20T09:01:51.456Z</time>
      </trkpt>
      <trkpt lat="46.73553" lon="-1.99559">
        <ele>19.6</ele>
        <time>2025-01-20T09:01:52.455Z</time>
      </trkpt>
      <trkpt lat="46.73552" lon="-1.99558">
        <ele>19.6</ele>
        <time>2025-01-20T09:01:53.456Z</time>
      </trkpt>
      <trkpt lat="46.73551" lon="-1.99557">
        <ele>19.7</ele>
        <time>2025-01-20T09:01:54.456Z</time>
      </trkpt>
      <trkpt lat="46.7355" lon="-1.99556">
        <ele>19.8</ele>
        <time>2025-01-20T09:01:55.456Z</time>
      </trkpt>
      <trkpt lat="46.73549" lon="-1.99554">
        <ele>19.7</ele>
        <time>2025-01-20T09:01:56.456Z</time>
      </trkpt>
      <trkpt lat="46.73548" lon="-1.99553">
        <ele>19.6</ele>
        <time>2025-01-20T09:01:57.455Z</time>
      </trkpt>
      <trkpt lat="46.73547" lon="-1.99552">
        <ele>19.5</ele>
        <time>2025-01-20T09:01:58.455Z</time>
      </trkpt>
      <trkpt lat="46.73545" lon="-1.99552">
        <ele>19.4</ele>
        <time>2025-01-20T09:01:59.456Z</time>
      </trkpt>
      <trkpt lat="46.73544" lon="-1.99551">
        <ele>19.3</ele>
        <time>2025-01-20T09:02:00.456Z</time>
      </trkpt>
      <trkpt lat="46.73543" lon="-1.9955">
        <ele>19.2</ele>
        <time>2025-01-20T09:02:01.456Z</time>
      </trkpt>
      <trkpt lat="46.73542" lon="-1.9955">
        <ele>19.2</ele>
        <time>2025-01-20T09:02:02.455Z</time>
      </trkpt>
      <trkpt lat="46.7354" lon="-1.99549">
        <ele>19.1</ele>
        <time>2025-01-20T09:02:03.455Z</time>
      </trkpt>
      <trkpt lat="46.73539" lon="-1.99549">
        <ele>19.1</ele>
        <time>2025-01-20T09:02:04.455Z</time>
      </trkpt>
      <trkpt lat="46.73538" lon="-1.99548">
        <ele>19</ele>
        <time>2025-01-20T09:02:05.455Z</time>
      </trkpt>
      <trkpt lat="46.73538" lon="-1.99546">
        <ele>18.9</ele>
        <time>2025-01-20T09:02:06.456Z</time>
      </trkpt>
      <trkpt lat="46.73537" lon="-1.99545">
        <ele>18.8</ele>
        <time>2025-01-20T09:02:07.455Z</time>
      </trkpt>
      <trkpt lat="46.73537" lon="-1.99544">
        <ele>18.8</ele>
        <time>2025-01-20T09:02:08.456Z</time>
      </trkpt>
      <trkpt lat="46.73535" lon="-1.99543">
        <ele>18.7</ele>
        <time>2025-01-20T09:02:09.456Z</time>
      </trkpt>
      <trkpt lat="46.73534" lon="-1.99542">
        <ele>18.6</ele>
        <time>2025-01-20T09:02:10.456Z</time>
      </trkpt>
      <trkpt lat="46.73532" lon="-1.99541">
        <ele>18.5</ele>
        <time>2025-01-20T09:02:11.455Z</time>
      </trkpt>
      <trkpt lat="46.73531" lon="-1.99539">
        <ele>18.5</ele>
        <time>2025-01-20T09:02:12.455Z</time>
      </trkpt>
      <trkpt lat="46.7353" lon="-1.99537">
        <ele>18.4</ele>
        <time>2025-01-20T09:02:13.456Z</time>
      </trkpt>
      <trkpt lat="46.73528" lon="-1.99536">
        <ele>18.3</ele>
        <time>2025-01-20T09:02:14.455Z</time>
      </trkpt>
      <trkpt lat="46.73527" lon="-1.99535">
        <ele>18.2</ele>
        <time>2025-01-20T09:02:15.456Z</time>
      </trkpt>
      <trkpt lat="46.73526" lon="-1.99533">
        <ele>18.1</ele>
        <time>2025-01-20T09:02:16.455Z</time>
      </trkpt>
      <trkpt lat="46.73525" lon="-1.99532">
        <ele>18</ele>
        <time>2025-01-20T09:02:17.456Z</time>
      </trkpt>
      <trkpt lat="46.73525" lon="-1.99531">
        <ele>18</ele>
        <time>2025-01-20T09:02:18.456Z</time>
      </trkpt>
      <trkpt lat="46.73524" lon="-1.9953">
        <ele>17.9</ele>
        <time>2025-01-20T09:02:19.455Z</time>
      </trkpt>
      <trkpt lat="46.73522" lon="-1.99528">
        <ele>17.8</ele>
        <time>2025-01-20T09:02:20.455Z</time>
      </trkpt>
      <trkpt lat="46.73521" lon="-1.99527">
        <ele>17.7</ele>
        <time>2025-01-20T09:02:21.455Z</time>
      </trkpt>
      <trkpt lat="46.7352" lon="-1.99525">
        <ele>17.6</ele>
        <time>2025-01-20T09:02:22.455Z</time>
      </trkpt>
      <trkpt lat="46.73519" lon="-1.99524">
        <ele>17.5</ele>
        <time>2025-01-20T09:02:23.456Z</time>
      </trkpt>
      <trkpt lat="46.73517" lon="-1.99523">
        <ele>17.5</ele>
        <time>2025-01-20T09:02:24.456Z</time>
      </trkpt>
      <trkpt lat="46.73517" lon="-1.99522">
        <ele>17.4</ele>
        <time>2025-01-20T09:02:25.455Z</time>
      </trkpt>
      <trkpt lat="46.73516" lon="-1.9952">
        <ele>17.4</ele>
        <time>2025-01-20T09:02:26.456Z</time>
      </trkpt>
      <trkpt lat="46.73516" lon="-1.99519">
        <ele>17.3</ele>
        <time>2025-01-20T09:02:27.455Z</time>
      </trkpt>
      <trkpt lat="46.73515" lon="-1.99518">
        <ele>17.3</ele>
        <time>2025-01-20T09:02:28.455Z</time>
      </trkpt>
      <trkpt lat="46.73515" lon="-1.99517">
        <ele>17.3</ele>
        <time>2025-01-20T09:02:29.455Z</time>
      </trkpt>
      <trkpt lat="46.73514" lon="-1.99516">
        <ele>17.3</ele>
        <time>2025-01-20T09:02:30.455Z</time>
      </trkpt>
      <trkpt lat="46.73513" lon="-1.99515">
        <ele>17.3</ele>
        <time>2025-01-20T09:02:31.455Z</time>
      </trkpt>
      <trkpt lat="46.73512" lon="-1.99513">
        <ele>17.3</ele>
        <time>2025-01-20T09:02:32.455Z</time>
      </trkpt>
      <trkpt lat="46.73511" lon="-1.99511">
        <ele>17.3</ele>
        <time>2025-01-20T09:02:33.456Z</time>
      </trkpt>
      <trkpt lat="46.7351" lon="-1.9951">
        <ele>17.3</ele>
        <time>2025-01-20T09:02:34.456Z</time>
      </trkpt>
      <trkpt lat="46.73509" lon="-1.99509">
        <ele>17.3</ele>
        <time>2025-01-20T09:02:35.456Z</time>
      </trkpt>
      <trkpt lat="46.73507" lon="-1.99508">
        <ele>17.4</ele>
        <time>2025-01-20T09:02:36.456Z</time>
      </trkpt>
      <trkpt lat="46.73507" lon="-1.99506">
        <ele>17.4</ele>
        <time>2025-01-20T09:02:37.455Z</time>
      </trkpt>
      <trkpt lat="46.73506" lon="-1.99505">
        <ele>17.5</ele>
        <time>2025-01-20T09:02:38.455Z</time>
      </trkpt>
      <trkpt lat="46.73506" lon="-1.99504">
        <ele>17.5</ele>
        <time>2025-01-20T09:02:39.455Z</time>
      </trkpt>
      <trkpt lat="46.73506" lon="-1.99502">
        <ele>17.5</ele>
        <time>2025-01-20T09:02:40.456Z</time>
      </trkpt>
      <trkpt lat="46.73505" lon="-1.995">
        <ele>17.6</ele>
        <time>2025-01-20T09:02:41.456Z</time>
      </trkpt>
      <trkpt lat="46.73504" lon="-1.99497">
        <ele>17.6</ele>
        <time>2025-01-20T09:02:42.456Z</time>
      </trkpt>
      <trkpt lat="46.73503" lon="-1.99494">
        <ele>17.5</ele>
        <time>2025-01-20T09:02:43.456Z</time>
      </trkpt>
      <trkpt lat="46.73502" lon="-1.99493">
        <ele>17.5</ele>
        <time>2025-01-20T09:02:44.455Z</time>
      </trkpt>
      <trkpt lat="46.73501" lon="-1.99491">
        <ele>17.6</ele>
        <time>2025-01-20T09:02:45.455Z</time>
      </trkpt>
      <trkpt lat="46.73501" lon="-1.99489">
        <ele>17.5</ele>
        <time>2025-01-20T09:02:46.455Z</time>
      </trkpt>
      <trkpt lat="46.73499" lon="-1.99488">
        <ele>17.4</ele>
        <time>2025-01-20T09:02:47.455Z</time>
      </trkpt>
      <trkpt lat="46.73498" lon="-1.99486">
        <ele>17.2</ele>
        <time>2025-01-20T09:02:48.456Z</time>
      </trkpt>
      <trkpt lat="46.73497" lon="-1.99485">
        <ele>17.1</ele>
        <time>2025-01-20T09:02:49.456Z</time>
      </trkpt>
      <trkpt lat="46.73496" lon="-1.99484">
        <ele>16.9</ele>
        <time>2025-01-20T09:02:50.455Z</time>
      </trkpt>
      <trkpt lat="46.73495" lon="-1.99482">
        <ele>16.7</ele>
        <time>2025-01-20T09:02:51.455Z</time>
      </trkpt>
      <trkpt lat="46.73495" lon="-1.99481">
        <ele>16.7</ele>
        <time>2025-01-20T09:02:52.455Z</time>
      </trkpt>
      <trkpt lat="46.73493" lon="-1.9948">
        <ele>16.5</ele>
        <time>2025-01-20T09:02:53.456Z</time>
      </trkpt>
      <trkpt lat="46.73492" lon="-1.99478">
        <ele>16.3</ele>
        <time>2025-01-20T09:02:54.456Z</time>
      </trkpt>
      <trkpt lat="46.73491" lon="-1.99477">
        <ele>16.1</ele>
        <time>2025-01-20T09:02:55.456Z</time>
      </trkpt>
      <trkpt lat="46.73491" lon="-1.99475">
        <ele>16.1</ele>
        <time>2025-01-20T09:02:56.456Z</time>
      </trkpt>
      <trkpt lat="46.7349" lon="-1.99474">
        <ele>16</ele>
        <time>2025-01-20T09:02:57.456Z</time>
      </trkpt>
      <trkpt lat="46.73489" lon="-1.99473">
        <ele>15.8</ele>
        <time>2025-01-20T09:02:58.456Z</time>
      </trkpt>
      <trkpt lat="46.73489" lon="-1.99471">
        <ele>15.8</ele>
        <time>2025-01-20T09:02:59.455Z</time>
      </trkpt>
      <trkpt lat="46.73488" lon="-1.9947">
        <ele>15.7</ele>
        <time>2025-01-20T09:03:00.455Z</time>
      </trkpt>
      <trkpt lat="46.73488" lon="-1.99468">
        <ele>15.7</ele>
        <time>2025-01-20T09:03:01.455Z</time>
      </trkpt>
      <trkpt lat="46.73488" lon="-1.99466">
        <ele>15.7</ele>
        <time>2025-01-20T09:03:02.455Z</time>
      </trkpt>
      <trkpt lat="46.73487" lon="-1.99464">
        <ele>15.6</ele>
        <time>2025-01-20T09:03:03.455Z</time>
      </trkpt>
      <trkpt lat="46.73487" lon="-1.99462">
        <ele>15.6</ele>
        <time>2025-01-20T09:03:04.455Z</time>
      </trkpt>
      <trkpt lat="46.73487" lon="-1.9946">
        <ele>15.6</ele>
        <time>2025-01-20T09:03:05.455Z</time>
      </trkpt>
      <trkpt lat="46.73486" lon="-1.99459">
        <ele>15.5</ele>
        <time>2025-01-20T09:03:06.455Z</time>
      </trkpt>
      <trkpt lat="46.73486" lon="-1.99457">
        <ele>15.5</ele>
        <time>2025-01-20T09:03:07.456Z</time>
      </trkpt>
      <trkpt lat="46.73485" lon="-1.99455">
        <ele>15.4</ele>
        <time>2025-01-20T09:03:08.455Z</time>
      </trkpt>
      <trkpt lat="46.73484" lon="-1.99453">
        <ele>15.4</ele>
        <time>2025-01-20T09:03:09.455Z</time>
      </trkpt>
      <trkpt lat="46.73483" lon="-1.99452">
        <ele>15.3</ele>
        <time>2025-01-20T09:03:10.455Z</time>
      </trkpt>
      <trkpt lat="46.73482" lon="-1.9945">
        <ele>15.3</ele>
        <time>2025-01-20T09:03:11.456Z</time>
      </trkpt>
      <trkpt lat="46.73482" lon="-1.99449">
        <ele>15.3</ele>
        <time>2025-01-20T09:03:12.456Z</time>
      </trkpt>
      <trkpt lat="46.7348" lon="-1.99447">
        <ele>15.2</ele>
        <time>2025-01-20T09:03:13.456Z</time>
      </trkpt>
      <trkpt lat="46.73479" lon="-1.99446">
        <ele>15.2</ele>
        <time>2025-01-20T09:03:14.456Z</time>
      </trkpt>
      <trkpt lat="46.73479" lon="-1.99445">
        <ele>15.2</ele>
        <time>2025-01-20T09:03:15.456Z</time>
      </trkpt>
      <trkpt lat="46.73478" lon="-1.99443">
        <ele>15</ele>
        <time>2025-01-20T09:03:16.455Z</time>
      </trkpt>
      <trkpt lat="46.73478" lon="-1.99441">
        <ele>14.8</ele>
        <time>2025-01-20T09:03:17.455Z</time>
      </trkpt>
      <trkpt lat="46.73477" lon="-1.9944">
        <ele>14.7</ele>
        <time>2025-01-20T09:03:18.456Z</time>
      </trkpt>
      <trkpt lat="46.73477" lon="-1.99438">
        <ele>14.4</ele>
        <time>2025-01-20T09:03:19.456Z</time>
      </trkpt>
      <trkpt lat="46.73477" lon="-1.99437">
        <ele>14.3</ele>
        <time>2025-01-20T09:03:20.455Z</time>
      </trkpt>
      <trkpt lat="46.73476" lon="-1.99436">
        <ele>14.2</ele>
        <time>2025-01-20T09:03:21.456Z</time>
      </trkpt>
      <trkpt lat="46.73475" lon="-1.99434">
        <ele>13.9</ele>
        <time>2025-01-20T09:03:22.456Z</time>
      </trkpt>
      <trkpt lat="46.73474" lon="-1.99433">
        <ele>13.8</ele>
        <time>2025-01-20T09:03:23.456Z</time>
      </trkpt>
      <trkpt lat="46.73473" lon="-1.99433">
        <ele>13.8</ele>
        <time>2025-01-20T09:03:24.455Z</time>
      </trkpt>
      <trkpt lat="46.73472" lon="-1.99432">
        <ele>13.6</ele>
        <time>2025-01-20T09:03:25.455Z</time>
      </trkpt>
      <trkpt lat="46.73471" lon="-1.99431">
        <ele>13.4</ele>
        <time>2025-01-20T09:03:26.456Z</time>
      </trkpt>
      <trkpt lat="46.7347" lon="-1.9943">
        <ele>13.2</ele>
        <time>2025-01-20T09:03:27.456Z</time>
      </trkpt>
      <trkpt lat="46.73469" lon="-1.9943">
        <ele>13</ele>
        <time>2025-01-20T09:03:28.456Z</time>
      </trkpt>
      <trkpt lat="46.73468" lon="-1.99429">
        <ele>12.8</ele>
        <time>2025-01-20T09:03:29.456Z</time>
      </trkpt>
      <trkpt lat="46.73467" lon="-1.99429">
        <ele>12.7</ele>
        <time>2025-01-20T09:03:30.455Z</time>
      </trkpt>
      <trkpt lat="46.73466" lon="-1.99429">
        <ele>12.6</ele>
        <time>2025-01-20T09:03:31.455Z</time>
      </trkpt>
      <trkpt lat="46.73464" lon="-1.99429">
        <ele>12.4</ele>
        <time>2025-01-20T09:03:32.455Z</time>
      </trkpt>
      <trkpt lat="46.73463" lon="-1.99431">
        <ele>12.4</ele>
        <time>2025-01-20T09:03:33.456Z</time>
      </trkpt>
      <trkpt lat="46.73462" lon="-1.99433">
        <ele>12.3</ele>
        <time>2025-01-20T09:03:34.456Z</time>
      </trkpt>
      <trkpt lat="46.73461" lon="-1.99433">
        <ele>12.2</ele>
        <time>2025-01-20T09:03:35.455Z</time>
      </trkpt>
      <trkpt lat="46.7346" lon="-1.99433">
        <ele>12</ele>
        <time>2025-01-20T09:03:36.455Z</time>
      </trkpt>
      <trkpt lat="46.73459" lon="-1.99433">
        <ele>11.9</ele>
        <time>2025-01-20T09:03:37.456Z</time>
      </trkpt>
      <trkpt lat="46.73458" lon="-1.99432">
        <ele>11.7</ele>
        <time>2025-01-20T09:03:38.456Z</time>
      </trkpt>
      <trkpt lat="46.73457" lon="-1.99432">
        <ele>11.6</ele>
        <time>2025-01-20T09:03:39.455Z</time>
      </trkpt>
      <trkpt lat="46.73456" lon="-1.99431">
        <ele>11.5</ele>
        <time>2025-01-20T09:03:40.455Z</time>
      </trkpt>
      <trkpt lat="46.73455" lon="-1.99431">
        <ele>11.3</ele>
        <time>2025-01-20T09:03:41.455Z</time>
      </trkpt>
      <trkpt lat="46.73454" lon="-1.9943">
        <ele>11.2</ele>
        <time>2025-01-20T09:03:42.455Z</time>
      </trkpt>
      <trkpt lat="46.73452" lon="-1.9943">
        <ele>11</ele>
        <time>2025-01-20T09:03:43.456Z</time>
      </trkpt>
      <trkpt lat="46.73452" lon="-1.99429">
        <ele>11</ele>
        <time>2025-01-20T09:03:44.455Z</time>
      </trkpt>
      <trkpt lat="46.73451" lon="-1.99428">
        <ele>10.9</ele>
        <time>2025-01-20T09:03:45.456Z</time>
      </trkpt>
      <trkpt lat="46.7345" lon="-1.99428">
        <ele>10.8</ele>
        <time>2025-01-20T09:03:46.456Z</time>
      </trkpt>
      <trkpt lat="46.7345" lon="-1.99427">
        <ele>10.8</ele>
        <time>2025-01-20T09:03:47.455Z</time>
      </trkpt>
      <trkpt lat="46.73448" lon="-1.99427">
        <ele>10.6</ele>
        <time>2025-01-20T09:03:48.455Z</time>
      </trkpt>
      <trkpt lat="46.73448" lon="-1.99426">
        <ele>10.7</ele>
        <time>2025-01-20T09:03:49.456Z</time>
      </trkpt>
      <trkpt lat="46.73447" lon="-1.99425">
        <ele>10.6</ele>
        <time>2025-01-20T09:03:50.456Z</time>
      </trkpt>
      <trkpt lat="46.73446" lon="-1.99424">
        <ele>10.6</ele>
        <time>2025-01-20T09:03:51.455Z</time>
      </trkpt>
      <trkpt lat="46.73445" lon="-1.99424">
        <ele>10.5</ele>
        <time>2025-01-20T09:03:52.456Z</time>
      </trkpt>
      <trkpt lat="46.73444" lon="-1.99423">
        <ele>10.5</ele>
        <time>2025-01-20T09:03:53.455Z</time>
      </trkpt>
      <trkpt lat="46.73444" lon="-1.99422">
        <ele>10.6</ele>
        <time>2025-01-20T09:03:54.456Z</time>
      </trkpt>
      <trkpt lat="46.73443" lon="-1.99421">
        <ele>10.7</ele>
        <time>2025-01-20T09:03:55.456Z</time>
      </trkpt>
      <trkpt lat="46.73443" lon="-1.9942">
        <ele>10.8</ele>
        <time>2025-01-20T09:03:56.456Z</time>
      </trkpt>
      <trkpt lat="46.73442" lon="-1.9942">
        <ele>10.8</ele>
        <time>2025-01-20T09:03:57.456Z</time>
      </trkpt>
      <trkpt lat="46.73442" lon="-1.99419">
        <ele>10.9</ele>
        <time>2025-01-20T09:03:58.456Z</time>
      </trkpt>
      <trkpt lat="46.73442" lon="-1.99419">
        <ele>10.9</ele>
        <time>2025-01-20T09:03:59.455Z</time>
      </trkpt>
      <trkpt lat="46.73441" lon="-1.99419">
        <ele>10.9</ele>
        <time>2025-01-20T09:04:00.455Z</time>
      </trkpt>
      <trkpt lat="46.73441" lon="-1.9942">
        <ele>10.8</ele>
        <time>2025-01-20T09:04:01.455Z</time>
      </trkpt>
      <trkpt lat="46.7344" lon="-1.9942">
        <ele>10.8</ele>
        <time>2025-01-20T09:04:02.455Z</time>
      </trkpt>
      <trkpt lat="46.73439" lon="-1.9942">
        <ele>10.9</ele>
        <time>2025-01-20T09:04:03.455Z</time>
      </trkpt>
      <trkpt lat="46.73439" lon="-1.9942">
        <ele>10.9</ele>
        <time>2025-01-20T09:04:04.456Z</time>
      </trkpt>
      <trkpt lat="46.73439" lon="-1.99421">
        <ele>10.8</ele>
        <time>2025-01-20T09:04:05.456Z</time>
      </trkpt>
      <trkpt lat="46.73439" lon="-1.99421">
        <ele>10.8</ele>
        <time>2025-01-20T09:04:06.456Z</time>
      </trkpt>
      <trkpt lat="46.73439" lon="-1.99421">
        <ele>10.8</ele>
        <time>2025-01-20T09:04:07.455Z</time>
      </trkpt>
      <trkpt lat="46.73439" lon="-1.99421">
        <ele>10.8</ele>
        <time>2025-01-20T09:04:08.455Z</time>
      </trkpt>
      <trkpt lat="46.73439" lon="-1.99421">
        <ele>10.8</ele>
        <time>2025-01-20T09:04:09.456Z</time>
      </trkpt>
      <trkpt lat="46.73439" lon="-1.99421">
        <ele>10.8</ele>
        <time>2025-01-20T09:04:10.455Z</time>
      </trkpt>
      <trkpt lat="46.73439" lon="-1.99421">
        <ele>10.8</ele>
        <time>2025-01-20T09:04:11.455Z</time>
      </trkpt>
      <trkpt lat="46.73439" lon="-1.99421">
        <ele>10.8</ele>
        <time>2025-01-20T09:04:12.456Z</time>
      </trkpt>
      <trkpt lat="46.73438" lon="-1.9942">
        <ele>10.9</ele>
        <time>2025-01-20T09:04:13.456Z</time>
      </trkpt>
      <trkpt lat="46.73438" lon="-1.9942">
        <ele>10.9</ele>
        <time>2025-01-20T09:04:14.456Z</time>
      </trkpt>
      <trkpt lat="46.73438" lon="-1.9942">
        <ele>10.9</ele>
        <time>2025-01-20T09:04:15.456Z</time>
      </trkpt>
      <trkpt lat="46.73438" lon="-1.9942">
        <ele>10.9</ele>
        <time>2025-01-20T09:04:16.455Z</time>
      </trkpt>
      <trkpt lat="46.73438" lon="-1.99421">
        <ele>10.8</ele>
        <time>2025-01-20T09:04:17.456Z</time>
      </trkpt>
      <trkpt lat="46.73438" lon="-1.99421">
        <ele>10.8</ele>
        <time>2025-01-20T09:04:18.455Z</time>
      </trkpt>
      <trkpt lat="46.73438" lon="-1.99421">
        <ele>10.8</ele>
        <time>2025-01-20T09:04:19.455Z</time>
      </trkpt>
      <trkpt lat="46.73438" lon="-1.99421">
        <ele>10.8</ele>
        <time>2025-01-20T09:04:20.456Z</time>
      </trkpt>
      <trkpt lat="46.73438" lon="-1.99421">
        <ele>10.8</ele>
        <time>2025-01-20T09:04:21.456Z</time>
      </trkpt>
      <trkpt lat="46.73438" lon="-1.99421">
        <ele>10.8</ele>
        <time>2025-01-20T09:04:22.455Z</time>
      </trkpt>
      <trkpt lat="46.73438" lon="-1.99421">
        <ele>10.8</ele>
        <time>2025-01-20T09:04:23.456Z</time>
      </trkpt>
      <trkpt lat="46.73438" lon="-1.99421">
        <ele>10.8</ele>
        <time>2025-01-20T09:04:24.456Z</time>
      </trkpt>
      <trkpt lat="46.73438" lon="-1.99421">
        <ele>10.8</ele>
        <time>2025-01-20T09:04:25.455Z</time>
      </trkpt>
      <trkpt lat="46.73438" lon="-1.99421">
        <ele>10.8</ele>
        <time>2025-01-20T09:04:26.456Z</time>
      </trkpt>
      <trkpt lat="46.73438" lon="-1.99421">
        <ele>10.8</ele>
        <time>2025-01-20T09:04:27.456Z</time>
      </trkpt>
      <trkpt lat="46.73438" lon="-1.99421">
        <ele>10.8</ele>
        <time>2025-01-20T09:04:28.456Z</time>
      </trkpt>
      <trkpt lat="46.73438" lon="-1.99421">
        <ele>10.8</ele>
        <time>2025-01-20T09:04:29.455Z</time>
      </trkpt>
      <trkpt lat="46.73438" lon="-1.99421">
        <ele>10.8</ele>
        <time>2025-01-20T09:04:30.455Z</time>
      </trkpt>
      <trkpt lat="46.73438" lon="-1.99421">
        <ele>10.8</ele>
        <time>2025-01-20T09:04:31.456Z</time>
      </trkpt>
      <trkpt lat="46.73437" lon="-1.99423">
        <ele>10.6</ele>
        <time>2025-01-20T09:04:32.455Z</time>
      </trkpt>
      <trkpt lat="46.73436" lon="-1.99424">
        <ele>10.5</ele>
        <time>2025-01-20T09:04:33.455Z</time>
      </trkpt>
      <trkpt lat="46.73435" lon="-1.99426">
        <ele>10.2</ele>
        <time>2025-01-20T09:04:34.456Z</time>
      </trkpt>
      <trkpt lat="46.73434" lon="-1.99427">
        <ele>10.1</ele>
        <time>2025-01-20T09:04:35.456Z</time>
      </trkpt>
      <trkpt lat="46.73433" lon="-1.99429">
        <ele>9.8</ele>
        <time>2025-01-20T09:04:36.456Z</time>
      </trkpt>
      <trkpt lat="46.73432" lon="-1.99431">
        <ele>9.5</ele>
        <time>2025-01-20T09:04:37.456Z</time>
      </trkpt>
      <trkpt lat="46.73431" lon="-1.99433">
        <ele>9.2</ele>
        <time>2025-01-20T09:04:38.455Z</time>
      </trkpt>
      <trkpt lat="46.7343" lon="-1.99435">
        <ele>8.8</ele>
        <time>2025-01-20T09:04:39.455Z</time>
      </trkpt>
      <trkpt lat="46.73429" lon="-1.99438">
        <ele>8.3</ele>
        <time>2025-01-20T09:04:40.455Z</time>
      </trkpt>
      <trkpt lat="46.73429" lon="-1.9944">
        <ele>8</ele>
        <time>2025-01-20T09:04:41.455Z</time>
      </trkpt>
      <trkpt lat="46.73429" lon="-1.99441">
        <ele>7.9</ele>
        <time>2025-01-20T09:04:42.456Z</time>
      </trkpt>
      <trkpt lat="46.73428" lon="-1.99443">
        <ele>7.5</ele>
        <time>2025-01-20T09:04:43.456Z</time>
      </trkpt>
      <trkpt lat="46.73428" lon="-1.99445">
        <ele>7.2</ele>
        <time>2025-01-20T09:04:44.455Z</time>
      </trkpt>
      <trkpt lat="46.73428" lon="-1.99447">
        <ele>7</ele>
        <time>2025-01-20T09:04:45.455Z</time>
      </trkpt>
      <trkpt lat="46.73427" lon="-1.99448">
        <ele>6.8</ele>
        <time>2025-01-20T09:04:46.456Z</time>
      </trkpt>
      <trkpt lat="46.73427" lon="-1.9945">
        <ele>6.6</ele>
        <time>2025-01-20T09:04:47.456Z</time>
      </trkpt>
      <trkpt lat="46.73426" lon="-1.99452">
        <ele>6.3</ele>
        <time>2025-01-20T09:04:48.456Z</time>
      </trkpt>
      <trkpt lat="46.73426" lon="-1.99454">
        <ele>6.1</ele>
        <time>2025-01-20T09:04:49.455Z</time>
      </trkpt>
      <trkpt lat="46.73426" lon="-1.99456">
        <ele>5.9</ele>
        <time>2025-01-20T09:04:50.456Z</time>
      </trkpt>
      <trkpt lat="46.73425" lon="-1.99458">
        <ele>5.6</ele>
        <time>2025-01-20T09:04:51.455Z</time>
      </trkpt>
      <trkpt lat="46.73425" lon="-1.9946">
        <ele>5.4</ele>
        <time>2025-01-20T09:04:52.455Z</time>
      </trkpt>
      <trkpt lat="46.73425" lon="-1.99462">
        <ele>5.3</ele>
        <time>2025-01-20T09:04:53.455Z</time>
      </trkpt>
      <trkpt lat="46.73425" lon="-1.99464">
        <ele>5.1</ele>
        <time>2025-01-20T09:04:54.456Z</time>
      </trkpt>
      <trkpt lat="46.73424" lon="-1.99465">
        <ele>4.9</ele>
        <time>2025-01-20T09:04:55.456Z</time>
      </trkpt>
      <trkpt lat="46.73424" lon="-1.99467">
        <ele>4.7</ele>
        <time>2025-01-20T09:04:56.456Z</time>
      </trkpt>
      <trkpt lat="46.73423" lon="-1.99468">
        <ele>4.6</ele>
        <time>2025-01-20T09:04:57.456Z</time>
      </trkpt>
      <trkpt lat="46.73423" lon="-1.99469">
        <ele>4.5</ele>
        <time>2025-01-20T09:04:58.456Z</time>
      </trkpt>
      <trkpt lat="46.73422" lon="-1.9947">
        <ele>4.4</ele>
        <time>2025-01-20T09:04:59.455Z</time>
      </trkpt>
      <trkpt lat="46.73421" lon="-1.99471">
        <ele>4.3</ele>
        <time>2025-01-20T09:05:00.455Z</time>
      </trkpt>
      <trkpt lat="46.7342" lon="-1.99473">
        <ele>4.1</ele>
        <time>2025-01-20T09:05:01.455Z</time>
      </trkpt>
      <trkpt lat="46.73419" lon="-1.99474">
        <ele>4.1</ele>
        <time>2025-01-20T09:05:02.455Z</time>
      </trkpt>
      <trkpt lat="46.73418" lon="-1.99475">
        <ele>4.1</ele>
        <time>2025-01-20T09:05:03.455Z</time>
      </trkpt>
      <trkpt lat="46.73417" lon="-1.99477">
        <ele>4</ele>
        <time>2025-01-20T09:05:04.455Z</time>
      </trkpt>
      <trkpt lat="46.73416" lon="-1.99478">
        <ele>4</ele>
        <time>2025-01-20T09:05:05.456Z</time>
      </trkpt>
      <trkpt lat="46.73415" lon="-1.9948">
        <ele>4.1</ele>
        <time>2025-01-20T09:05:06.456Z</time>
      </trkpt>
      <trkpt lat="46.73415" lon="-1.99481">
        <ele>4.1</ele>
        <time>2025-01-20T09:05:07.456Z</time>
      </trkpt>
      <trkpt lat="46.73414" lon="-1.99483">
        <ele>4.2</ele>
        <time>2025-01-20T09:05:08.455Z</time>
      </trkpt>
      <trkpt lat="46.73414" lon="-1.99485">
        <ele>4.1</ele>
        <time>2025-01-20T09:05:09.455Z</time>
      </trkpt>
      <trkpt lat="46.73413" lon="-1.99487">
        <ele>4.2</ele>
        <time>2025-01-20T09:05:10.455Z</time>
      </trkpt>
      <trkpt lat="46.73412" lon="-1.99489">
        <ele>4.2</ele>
        <time>2025-01-20T09:05:11.455Z</time>
      </trkpt>
      <trkpt lat="46.73412" lon="-1.9949">
        <ele>4.2</ele>
        <time>2025-01-20T09:05:12.456Z</time>
      </trkpt>
      <trkpt lat="46.73411" lon="-1.99492">
        <ele>4.3</ele>
        <time>2025-01-20T09:05:13.456Z</time>
      </trkpt>
      <trkpt lat="46.73411" lon="-1.99493">
        <ele>4.3</ele>
        <time>2025-01-20T09:05:14.456Z</time>
      </trkpt>
      <trkpt lat="46.7341" lon="-1.99495">
        <ele>4.3</ele>
        <time>2025-01-20T09:05:15.456Z</time>
      </trkpt>
      <trkpt lat="46.7341" lon="-1.99496">
        <ele>4.3</ele>
        <time>2025-01-20T09:05:16.456Z</time>
      </trkpt>
      <trkpt lat="46.73409" lon="-1.99497">
        <ele>4.3</ele>
        <time>2025-01-20T09:05:17.455Z</time>
      </trkpt>
      <trkpt lat="46.73408" lon="-1.99499">
        <ele>4.3</ele>
        <time>2025-01-20T09:05:18.455Z</time>
      </trkpt>
      <trkpt lat="46.73407" lon="-1.995">
        <ele>4.3</ele>
        <time>2025-01-20T09:05:19.456Z</time>
      </trkpt>
      <trkpt lat="46.73406" lon="-1.99502">
        <ele>4.5</ele>
        <time>2025-01-20T09:05:20.456Z</time>
      </trkpt>
      <trkpt lat="46.73405" lon="-1.99504">
        <ele>4.7</ele>
        <time>2025-01-20T09:05:21.455Z</time>
      </trkpt>
      <trkpt lat="46.73404" lon="-1.99505">
        <ele>4.7</ele>
        <time>2025-01-20T09:05:22.455Z</time>
      </trkpt>
      <trkpt lat="46.73404" lon="-1.99507">
        <ele>4.9</ele>
        <time>2025-01-20T09:05:23.456Z</time>
      </trkpt>
      <trkpt lat="46.73403" lon="-1.99508">
        <ele>4.9</ele>
        <time>2025-01-20T09:05:24.456Z</time>
      </trkpt>
      <trkpt lat="46.73402" lon="-1.9951">
        <ele>5</ele>
        <time>2025-01-20T09:05:25.456Z</time>
      </trkpt>
      <trkpt lat="46.73402" lon="-1.99512">
        <ele>5.1</ele>
        <time>2025-01-20T09:05:26.456Z</time>
      </trkpt>
      <trkpt lat="46.73401" lon="-1.99513">
        <ele>5.2</ele>
        <time>2025-01-20T09:05:27.455Z</time>
      </trkpt>
      <trkpt lat="46.734" lon="-1.99514">
        <ele>5.2</ele>
        <time>2025-01-20T09:05:28.455Z</time>
      </trkpt>
      <trkpt lat="46.73399" lon="-1.99515">
        <ele>5.2</ele>
        <time>2025-01-20T09:05:29.455Z</time>
      </trkpt>
      <trkpt lat="46.73399" lon="-1.99517">
        <ele>5.3</ele>
        <time>2025-01-20T09:05:30.456Z</time>
      </trkpt>
      <trkpt lat="46.73398" lon="-1.99519">
        <ele>5.3</ele>
        <time>2025-01-20T09:05:31.455Z</time>
      </trkpt>
      <trkpt lat="46.73397" lon="-1.99521">
        <ele>5.4</ele>
        <time>2025-01-20T09:05:32.455Z</time>
      </trkpt>
      <trkpt lat="46.73397" lon="-1.99522">
        <ele>5.4</ele>
        <time>2025-01-20T09:05:33.455Z</time>
      </trkpt>
      <trkpt lat="46.73397" lon="-1.99524">
        <ele>5.5</ele>
        <time>2025-01-20T09:05:34.455Z</time>
      </trkpt>
      <trkpt lat="46.73396" lon="-1.99526">
        <ele>5.5</ele>
        <time>2025-01-20T09:05:35.456Z</time>
      </trkpt>
      <trkpt lat="46.73396" lon="-1.99528">
        <ele>5.5</ele>
        <time>2025-01-20T09:05:36.456Z</time>
      </trkpt>
      <trkpt lat="46.73396" lon="-1.9953">
        <ele>5.6</ele>
        <time>2025-01-20T09:05:37.456Z</time>
      </trkpt>
      <trkpt lat="46.73395" lon="-1.99531">
        <ele>5.6</ele>
        <time>2025-01-20T09:05:38.455Z</time>
      </trkpt>
      <trkpt lat="46.73395" lon="-1.99533">
        <ele>5.6</ele>
        <time>2025-01-20T09:05:39.455Z</time>
      </trkpt>
      <trkpt lat="46.73395" lon="-1.99535">
        <ele>5.7</ele>
        <time>2025-01-20T09:05:40.455Z</time>
      </trkpt>
      <trkpt lat="46.73394" lon="-1.99537">
        <ele>5.7</ele>
        <time>2025-01-20T09:05:41.455Z</time>
      </trkpt>
      <trkpt lat="46.73394" lon="-1.99539">
        <ele>5.7</ele>
        <time>2025-01-20T09:05:42.455Z</time>
      </trkpt>
      <trkpt lat="46.73394" lon="-1.99541">
        <ele>5.8</ele>
        <time>2025-01-20T09:05:43.455Z</time>
      </trkpt>
      <trkpt lat="46.73394" lon="-1.99543">
        <ele>5.9</ele>
        <time>2025-01-20T09:05:44.456Z</time>
      </trkpt>
      <trkpt lat="46.73394" lon="-1.99545">
        <ele>5.9</ele>
        <time>2025-01-20T09:05:45.456Z</time>
      </trkpt>
      <trkpt lat="46.73394" lon="-1.99546">
        <ele>6</ele>
        <time>2025-01-20T09:05:46.455Z</time>
      </trkpt>
      <trkpt lat="46.73394" lon="-1.99548">
        <ele>6</ele>
        <time>2025-01-20T09:05:47.455Z</time>
      </trkpt>
      <trkpt lat="46.73394" lon="-1.9955">
        <ele>6.1</ele>
        <time>2025-01-20T09:05:48.455Z</time>
      </trkpt>
      <trkpt lat="46.73393" lon="-1.99552">
        <ele>5.9</ele>
        <time>2025-01-20T09:05:49.455Z</time>
      </trkpt>
      <trkpt lat="46.73393" lon="-1.99553">
        <ele>6</ele>
        <time>2025-01-20T09:05:50.455Z</time>
      </trkpt>
      <trkpt lat="46.73393" lon="-1.99555">
        <ele>6</ele>
        <time>2025-01-20T09:05:51.455Z</time>
      </trkpt>
      <trkpt lat="46.73393" lon="-1.99557">
        <ele>6.2</ele>
        <time>2025-01-20T09:05:52.456Z</time>
      </trkpt>
      <trkpt lat="46.73392" lon="-1.99558">
        <ele>6</ele>
        <time>2025-01-20T09:05:53.456Z</time>
      </trkpt>
      <trkpt lat="46.73392" lon="-1.9956">
        <ele>6.1</ele>
        <time>2025-01-20T09:05:54.455Z</time>
      </trkpt>
      <trkpt lat="46.73391" lon="-1.99562">
        <ele>6</ele>
        <time>2025-01-20T09:05:55.456Z</time>
      </trkpt>
      <trkpt lat="46.73391" lon="-1.99563">
        <ele>6.1</ele>
        <time>2025-01-20T09:05:56.455Z</time>
      </trkpt>
      <trkpt lat="46.7339" lon="-1.99565">
        <ele>6</ele>
        <time>2025-01-20T09:05:57.455Z</time>
      </trkpt>
      <trkpt lat="46.7339" lon="-1.99566">
        <ele>6.1</ele>
        <time>2025-01-20T09:05:58.455Z</time>
      </trkpt>
      <trkpt lat="46.73389" lon="-1.99567">
        <ele>5.9</ele>
        <time>2025-01-20T09:05:59.455Z</time>
      </trkpt>
      <trkpt lat="46.73389" lon="-1.99569">
        <ele>6</ele>
        <time>2025-01-20T09:06:00.456Z</time>
      </trkpt>
      <trkpt lat="46.73389" lon="-1.9957">
        <ele>6.1</ele>
        <time>2025-01-20T09:06:01.456Z</time>
      </trkpt>
      <trkpt lat="46.73388" lon="-1.99571">
        <ele>6</ele>
        <time>2025-01-20T09:06:02.456Z</time>
      </trkpt>
      <trkpt lat="46.73388" lon="-1.99573">
        <ele>6.2</ele>
        <time>2025-01-20T09:06:03.455Z</time>
      </trkpt>
      <trkpt lat="46.73387" lon="-1.99575">
        <ele>6.2</ele>
        <time>2025-01-20T09:06:04.456Z</time>
      </trkpt>
      <trkpt lat="46.73387" lon="-1.99576">
        <ele>6.2</ele>
        <time>2025-01-20T09:06:05.455Z</time>
      </trkpt>
      <trkpt lat="46.73386" lon="-1.99578">
        <ele>6.2</ele>
        <time>2025-01-20T09:06:06.455Z</time>
      </trkpt>
      <trkpt lat="46.73386" lon="-1.99579">
        <ele>6.3</ele>
        <time>2025-01-20T09:06:07.455Z</time>
      </trkpt>
      <trkpt lat="46.73385" lon="-1.99581">
        <ele>6.3</ele>
        <time>2025-01-20T09:06:08.455Z</time>
      </trkpt>
      <trkpt lat="46.73385" lon="-1.99583">
        <ele>6.4</ele>
        <time>2025-01-20T09:06:09.456Z</time>
      </trkpt>
      <trkpt lat="46.73384" lon="-1.99584">
        <ele>6.4</ele>
        <time>2025-01-20T09:06:10.456Z</time>
      </trkpt>
      <trkpt lat="46.73383" lon="-1.99586">
        <ele>6.5</ele>
        <time>2025-01-20T09:06:11.455Z</time>
      </trkpt>
      <trkpt lat="46.73383" lon="-1.99587">
        <ele>6.6</ele>
        <time>2025-01-20T09:06:12.455Z</time>
      </trkpt>
      <trkpt lat="46.73382" lon="-1.99589">
        <ele>6.7</ele>
        <time>2025-01-20T09:06:13.455Z</time>
      </trkpt>
      <trkpt lat="46.73382" lon="-1.9959">
        <ele>6.8</ele>
        <time>2025-01-20T09:06:14.455Z</time>
      </trkpt>
      <trkpt lat="46.73381" lon="-1.99591">
        <ele>6.7</ele>
        <time>2025-01-20T09:06:15.456Z</time>
      </trkpt>
      <trkpt lat="46.7338" lon="-1.99593">
        <ele>6.8</ele>
        <time>2025-01-20T09:06:16.455Z</time>
      </trkpt>
      <trkpt lat="46.73379" lon="-1.99594">
        <ele>6.7</ele>
        <time>2025-01-20T09:06:17.456Z</time>
      </trkpt>
      <trkpt lat="46.73378" lon="-1.99595">
        <ele>6.6</ele>
        <time>2025-01-20T09:06:18.455Z</time>
      </trkpt>
      <trkpt lat="46.73377" lon="-1.99596">
        <ele>6.5</ele>
        <time>2025-01-20T09:06:19.456Z</time>
      </trkpt>
      <trkpt lat="46.73376" lon="-1.99597">
        <ele>6.4</ele>
        <time>2025-01-20T09:06:20.456Z</time>
      </trkpt>
      <trkpt lat="46.73375" lon="-1.99597">
        <ele>6.2</ele>
        <time>2025-01-20T09:06:21.456Z</time>
      </trkpt>
      <trkpt lat="46.73373" lon="-1.99598">
        <ele>5.9</ele>
        <time>2025-01-20T09:06:22.456Z</time>
      </trkpt>
      <trkpt lat="46.73372" lon="-1.99598">
        <ele>5.7</ele>
        <time>2025-01-20T09:06:23.455Z</time>
      </trkpt>
      <trkpt lat="46.73371" lon="-1.996">
        <ele>5.7</ele>
        <time>2025-01-20T09:06:24.455Z</time>
      </trkpt>
      <trkpt lat="46.7337" lon="-1.99601">
        <ele>5.5</ele>
        <time>2025-01-20T09:06:25.455Z</time>
      </trkpt>
      <trkpt lat="46.73369" lon="-1.99603">
        <ele>5.4</ele>
        <time>2025-01-20T09:06:26.456Z</time>
      </trkpt>
      <trkpt lat="46.73368" lon="-1.99603">
        <ele>5.2</ele>
        <time>2025-01-20T09:06:27.455Z</time>
      </trkpt>
      <trkpt lat="46.73367" lon="-1.99604">
        <ele>5.1</ele>
        <time>2025-01-20T09:06:28.456Z</time>
      </trkpt>
      <trkpt lat="46.73366" lon="-1.99605">
        <ele>4.9</ele>
        <time>2025-01-20T09:06:29.455Z</time>
      </trkpt>
      <trkpt lat="46.73365" lon="-1.99606">
        <ele>4.7</ele>
        <time>2025-01-20T09:06:30.455Z</time>
      </trkpt>
      <trkpt lat="46.73363" lon="-1.99606">
        <ele>4.3</ele>
        <time>2025-01-20T09:06:31.455Z</time>
      </trkpt>
      <trkpt lat="46.73362" lon="-1.99606">
        <ele>4</ele>
        <time>2025-01-20T09:06:32.455Z</time>
      </trkpt>
      <trkpt lat="46.73361" lon="-1.99606">
        <ele>3.8</ele>
        <time>2025-01-20T09:06:33.456Z</time>
      </trkpt>
      <trkpt lat="46.73361" lon="-1.99605">
        <ele>3.8</ele>
        <time>2025-01-20T09:06:34.456Z</time>
      </trkpt>
      <trkpt lat="46.73361" lon="-1.99604">
        <ele>3.7</ele>
        <time>2025-01-20T09:06:35.456Z</time>
      </trkpt>
      <trkpt lat="46.73361" lon="-1.99603">
        <ele>3.7</ele>
        <time>2025-01-20T09:06:36.456Z</time>
      </trkpt>
      <trkpt lat="46.73361" lon="-1.99603">
        <ele>3.7</ele>
        <time>2025-01-20T09:06:37.456Z</time>
      </trkpt>
      <trkpt lat="46.73361" lon="-1.99602">
        <ele>3.7</ele>
        <time>2025-01-20T09:06:38.456Z</time>
      </trkpt>
      <trkpt lat="46.73361" lon="-1.99602">
        <ele>3.7</ele>
        <time>2025-01-20T09:06:39.455Z</time>
      </trkpt>
      <trkpt lat="46.73362" lon="-1.99602">
        <ele>3.9</ele>
        <time>2025-01-20T09:06:40.456Z</time>
      </trkpt>
      <trkpt lat="46.73362" lon="-1.99603">
        <ele>3.9</ele>
        <time>2025-01-20T09:06:41.456Z</time>
      </trkpt>
      <trkpt lat="46.73364" lon="-1.99603">
        <ele>4.3</ele>
        <time>2025-01-20T09:06:42.455Z</time>
      </trkpt>
      <trkpt lat="46.73365" lon="-1.99603">
        <ele>4.6</ele>
        <time>2025-01-20T09:06:43.456Z</time>
      </trkpt>
      <trkpt lat="46.73366" lon="-1.99603">
        <ele>4.8</ele>
        <time>2025-01-20T09:06:44.455Z</time>
      </trkpt>
      <trkpt lat="46.73366" lon="-1.99603">
        <ele>4.8</ele>
        <time>2025-01-20T09:06:45.455Z</time>
      </trkpt>
      <trkpt lat="46.73366" lon="-1.99603">
        <ele>4.8</ele>
        <time>2025-01-20T09:06:46.456Z</time>
      </trkpt>
      <trkpt lat="46.73366" lon="-1.99602">
        <ele>4.7</ele>
        <time>2025-01-20T09:06:47.456Z</time>
      </trkpt>
      <trkpt lat="46.73366" lon="-1.99602">
        <ele>4.7</ele>
        <time>2025-01-20T09:06:48.456Z</time>
      </trkpt>
      <trkpt lat="46.73366" lon="-1.99603">
        <ele>4.8</ele>
        <time>2025-01-20T09:06:49.455Z</time>
      </trkpt>
      <trkpt lat="46.73366" lon="-1.99603">
        <ele>4.8</ele>
        <time>2025-01-20T09:06:50.455Z</time>
      </trkpt>
      <trkpt lat="46.73366" lon="-1.99604">
        <ele>4.8</ele>
        <time>2025-01-20T09:06:51.455Z</time>
      </trkpt>
      <trkpt lat="46.73365" lon="-1.99604">
        <ele>4.6</ele>
        <time>2025-01-20T09:06:52.455Z</time>
      </trkpt>
      <trkpt lat="46.73365" lon="-1.99604">
        <ele>4.6</ele>
        <time>2025-01-20T09:06:53.455Z</time>
      </trkpt>
      <trkpt lat="46.73366" lon="-1.99604">
        <ele>4.8</ele>
        <time>2025-01-20T09:06:54.456Z</time>
      </trkpt>
      <trkpt lat="46.73366" lon="-1.99604">
        <ele>4.8</ele>
        <time>2025-01-20T09:06:55.456Z</time>
      </trkpt>
      <trkpt lat="46.73367" lon="-1.99603">
        <ele>5</ele>
        <time>2025-01-20T09:06:56.456Z</time>
      </trkpt>
      <trkpt lat="46.73368" lon="-1.99603">
        <ele>5.2</ele>
        <time>2025-01-20T09:06:57.455Z</time>
      </trkpt>
      <trkpt lat="46.73368" lon="-1.99603">
        <ele>5.2</ele>
        <time>2025-01-20T09:06:58.455Z</time>
      </trkpt>
      <trkpt lat="46.73368" lon="-1.99603">
        <ele>5.2</ele>
        <time>2025-01-20T09:06:59.455Z</time>
      </trkpt>
      <trkpt lat="46.73367" lon="-1.99603">
        <ele>5</ele>
        <time>2025-01-20T09:07:00.456Z</time>
      </trkpt>
      <trkpt lat="46.73367" lon="-1.99603">
        <ele>5</ele>
        <time>2025-01-20T09:07:01.456Z</time>
      </trkpt>
      <trkpt lat="46.73367" lon="-1.99603">
        <ele>5</ele>
        <time>2025-01-20T09:07:02.456Z</time>
      </trkpt>
      <trkpt lat="46.73367" lon="-1.99603">
        <ele>5</ele>
        <time>2025-01-20T09:07:03.455Z</time>
      </trkpt>
      <trkpt lat="46.73367" lon="-1.99603">
        <ele>5</ele>
        <time>2025-01-20T09:07:04.456Z</time>
      </trkpt>
      <trkpt lat="46.73367" lon="-1.99603">
        <ele>5</ele>
        <time>2025-01-20T09:07:05.456Z</time>
      </trkpt>
      <trkpt lat="46.73367" lon="-1.99603">
        <ele>5</ele>
        <time>2025-01-20T09:07:06.456Z</time>
      </trkpt>
      <trkpt lat="46.73367" lon="-1.99603">
        <ele>5</ele>
        <time>2025-01-20T09:07:07.456Z</time>
      </trkpt>
      <trkpt lat="46.73367" lon="-1.99603">
        <ele>5</ele>
        <time>2025-01-20T09:07:08.456Z</time>
      </trkpt>
      <trkpt lat="46.73367" lon="-1.99603">
        <ele>5</ele>
        <time>2025-01-20T09:07:09.455Z</time>
      </trkpt>
      <trkpt lat="46.73367" lon="-1.99603">
        <ele>5</ele>
        <time>2025-01-20T09:07:10.455Z</time>
      </trkpt>
      <trkpt lat="46.73365" lon="-1.99601">
        <ele>4.5</ele>
        <time>2025-01-20T09:07:11.455Z</time>
      </trkpt>
      <trkpt lat="46.73364" lon="-1.996">
        <ele>4.2</ele>
        <time>2025-01-20T09:07:12.455Z</time>
      </trkpt>
      <trkpt lat="46.73362" lon="-1.99598">
        <ele>3.7</ele>
        <time>2025-01-20T09:07:13.455Z</time>
      </trkpt>
      <trkpt lat="46.73361" lon="-1.99597">
        <ele>3.5</ele>
        <time>2025-01-20T09:07:14.456Z</time>
      </trkpt>
      <trkpt lat="46.73359" lon="-1.99595">
        <ele>3.4</ele>
        <time>2025-01-20T09:07:15.456Z</time>
      </trkpt>
      <trkpt lat="46.73358" lon="-1.99593">
        <ele>3.3</ele>
        <time>2025-01-20T09:07:16.456Z</time>
      </trkpt>
      <trkpt lat="46.73357" lon="-1.99591">
        <ele>3.2</ele>
        <time>2025-01-20T09:07:17.455Z</time>
      </trkpt>
      <trkpt lat="46.73356" lon="-1.99589">
        <ele>3.2</ele>
        <time>2025-01-20T09:07:18.455Z</time>
      </trkpt>
      <trkpt lat="46.73355" lon="-1.99588">
        <ele>3.1</ele>
        <time>2025-01-20T09:07:19.456Z</time>
      </trkpt>
      <trkpt lat="46.73354" lon="-1.99586">
        <ele>3.1</ele>
        <time>2025-01-20T09:07:20.456Z</time>
      </trkpt>
      <trkpt lat="46.73354" lon="-1.99584">
        <ele>3</ele>
        <time>2025-01-20T09:07:21.456Z</time>
      </trkpt>
      <trkpt lat="46.73353" lon="-1.99583">
        <ele>3</ele>
        <time>2025-01-20T09:07:22.456Z</time>
      </trkpt>
      <trkpt lat="46.73353" lon="-1.99581">
        <ele>3</ele>
        <time>2025-01-20T09:07:23.455Z</time>
      </trkpt>
      <trkpt lat="46.73353" lon="-1.99579">
        <ele>3</ele>
        <time>2025-01-20T09:07:24.455Z</time>
      </trkpt>
      <trkpt lat="46.73353" lon="-1.99577">
        <ele>3</ele>
        <time>2025-01-20T09:07:25.456Z</time>
      </trkpt>
      <trkpt lat="46.73353" lon="-1.99575">
        <ele>3</ele>
        <time>2025-01-20T09:07:26.456Z</time>
      </trkpt>
      <trkpt lat="46.73353" lon="-1.99573">
        <ele>3</ele>
        <time>2025-01-20T09:07:27.456Z</time>
      </trkpt>
      <trkpt lat="46.73353" lon="-1.99571">
        <ele>3</ele>
        <time>2025-01-20T09:07:28.456Z</time>
      </trkpt>
      <trkpt lat="46.73353" lon="-1.99569">
        <ele>3</ele>
        <time>2025-01-20T09:07:29.456Z</time>
      </trkpt>
      <trkpt lat="46.73353" lon="-1.99567">
        <ele>3</ele>
        <time>2025-01-20T09:07:30.455Z</time>
      </trkpt>
      <trkpt lat="46.73354" lon="-1.99565">
        <ele>3</ele>
        <time>2025-01-20T09:07:31.455Z</time>
      </trkpt>
      <trkpt lat="46.73354" lon="-1.99563">
        <ele>3</ele>
        <time>2025-01-20T09:07:32.455Z</time>
      </trkpt>
      <trkpt lat="46.73355" lon="-1.99562">
        <ele>3</ele>
        <time>2025-01-20T09:07:33.455Z</time>
      </trkpt>
      <trkpt lat="46.73355" lon="-1.9956">
        <ele>3</ele>
        <time>2025-01-20T09:07:34.456Z</time>
      </trkpt>
      <trkpt lat="46.73355" lon="-1.99558">
        <ele>3</ele>
        <time>2025-01-20T09:07:35.456Z</time>
      </trkpt>
      <trkpt lat="46.73356" lon="-1.99556">
        <ele>3</ele>
        <time>2025-01-20T09:07:36.455Z</time>
      </trkpt>
      <trkpt lat="46.73356" lon="-1.99555">
        <ele>3</ele>
        <time>2025-01-20T09:07:37.456Z</time>
      </trkpt>
      <trkpt lat="46.73357" lon="-1.99553">
        <ele>3.1</ele>
        <time>2025-01-20T09:07:38.455Z</time>
      </trkpt>
      <trkpt lat="46.73357" lon="-1.99551">
        <ele>3.1</ele>
        <time>2025-01-20T09:07:39.455Z</time>
      </trkpt>
      <trkpt lat="46.73358" lon="-1.99549">
        <ele>3.2</ele>
        <time>2025-01-20T09:07:40.455Z</time>
      </trkpt>
      <trkpt lat="46.73358" lon="-1.99547">
        <ele>3.3</ele>
        <time>2025-01-20T09:07:41.455Z</time>
      </trkpt>
      <trkpt lat="46.73358" lon="-1.99545">
        <ele>3.3</ele>
        <time>2025-01-20T09:07:42.456Z</time>
      </trkpt>
      <trkpt lat="46.73359" lon="-1.99544">
        <ele>3.4</ele>
        <time>2025-01-20T09:07:43.455Z</time>
      </trkpt>
      <trkpt lat="46.7336" lon="-1.99543">
        <ele>3.4</ele>
        <time>2025-01-20T09:07:44.455Z</time>
      </trkpt>
      <trkpt lat="46.73361" lon="-1.99541">
        <ele>3.5</ele>
        <time>2025-01-20T09:07:45.455Z</time>
      </trkpt>
      <trkpt lat="46.73362" lon="-1.99539">
        <ele>3.6</ele>
        <time>2025-01-20T09:07:46.455Z</time>
      </trkpt>
      <trkpt lat="46.73362" lon="-1.99538">
        <ele>3.7</ele>
        <time>2025-01-20T09:07:47.456Z</time>
      </trkpt>
      <trkpt lat="46.73363" lon="-1.99537">
        <ele>3.8</ele>
        <time>2025-01-20T09:07:48.456Z</time>
      </trkpt>
      <trkpt lat="46.73363" lon="-1.99536">
        <ele>3.8</ele>
        <time>2025-01-20T09:07:49.456Z</time>
      </trkpt>
      <trkpt lat="46.73364" lon="-1.99534">
        <ele>3.9</ele>
        <time>2025-01-20T09:07:50.456Z</time>
      </trkpt>
      <trkpt lat="46.73365" lon="-1.99532">
        <ele>4</ele>
        <time>2025-01-20T09:07:51.456Z</time>
      </trkpt>
      <trkpt lat="46.73366" lon="-1.9953">
        <ele>4.1</ele>
        <time>2025-01-20T09:07:52.455Z</time>
      </trkpt>
      <trkpt lat="46.73367" lon="-1.99529">
        <ele>4.2</ele>
        <time>2025-01-20T09:07:53.456Z</time>
      </trkpt>
      <trkpt lat="46.73368" lon="-1.99527">
        <ele>4.2</ele>
        <time>2025-01-20T09:07:54.456Z</time>
      </trkpt>
      <trkpt lat="46.73369" lon="-1.99526">
        <ele>4.2</ele>
        <time>2025-01-20T09:07:55.455Z</time>
      </trkpt>
      <trkpt lat="46.7337" lon="-1.99524">
        <ele>4.2</ele>
        <time>2025-01-20T09:07:56.455Z</time>
      </trkpt>
      <trkpt lat="46.7337" lon="-1.99523">
        <ele>4.2</ele>
        <time>2025-01-20T09:07:57.455Z</time>
      </trkpt>
      <trkpt lat="46.73371" lon="-1.99521">
        <ele>4.2</ele>
        <time>2025-01-20T09:07:58.455Z</time>
      </trkpt>
      <trkpt lat="46.73372" lon="-1.99519">
        <ele>4.2</ele>
        <time>2025-01-20T09:07:59.456Z</time>
      </trkpt>
      <trkpt lat="46.73373" lon="-1.99517">
        <ele>4.2</ele>
        <time>2025-01-20T09:08:00.456Z</time>
      </trkpt>
      <trkpt lat="46.73374" lon="-1.99515">
        <ele>4.2</ele>
        <time>2025-01-20T09:08:01.456Z</time>
      </trkpt>
      <trkpt lat="46.73375" lon="-1.99514">
        <ele>4.3</ele>
        <time>2025-01-20T09:08:02.455Z</time>
      </trkpt>
      <trkpt lat="46.73375" lon="-1.99513">
        <ele>4.2</ele>
        <time>2025-01-20T09:08:03.456Z</time>
      </trkpt>
      <trkpt lat="46.73376" lon="-1.99512">
        <ele>4.3</ele>
        <time>2025-01-20T09:08:04.455Z</time>
      </trkpt>
      <trkpt lat="46.73376" lon="-1.99511">
        <ele>4.3</ele>
        <time>2025-01-20T09:08:05.456Z</time>
      </trkpt>
      <trkpt lat="46.73376" lon="-1.99509">
        <ele>4.2</ele>
        <time>2025-01-20T09:08:06.456Z</time>
      </trkpt>
      <trkpt lat="46.73376" lon="-1.99508">
        <ele>4.2</ele>
        <time>2025-01-20T09:08:07.456Z</time>
      </trkpt>
      <trkpt lat="46.73376" lon="-1.99506">
        <ele>4.2</ele>
        <time>2025-01-20T09:08:08.456Z</time>
      </trkpt>
      <trkpt lat="46.73377" lon="-1.99505">
        <ele>4.2</ele>
        <time>2025-01-20T09:08:09.455Z</time>
      </trkpt>
      <trkpt lat="46.73377" lon="-1.99504">
        <ele>4.2</ele>
        <time>2025-01-20T09:08:10.455Z</time>
      </trkpt>
      <trkpt lat="46.73378" lon="-1.99502">
        <ele>4.2</ele>
        <time>2025-01-20T09:08:11.456Z</time>
      </trkpt>
      <trkpt lat="46.73379" lon="-1.995">
        <ele>4.3</ele>
        <time>2025-01-20T09:08:12.456Z</time>
      </trkpt>
      <trkpt lat="46.73379" lon="-1.99499">
        <ele>4.3</ele>
        <time>2025-01-20T09:08:13.456Z</time>
      </trkpt>
      <trkpt lat="46.73379" lon="-1.99497">
        <ele>4.4</ele>
        <time>2025-01-20T09:08:14.455Z</time>
      </trkpt>
      <trkpt lat="46.7338" lon="-1.99496">
        <ele>4.5</ele>
        <time>2025-01-20T09:08:15.455Z</time>
      </trkpt>
      <trkpt lat="46.7338" lon="-1.99495">
        <ele>4.5</ele>
        <time>2025-01-20T09:08:16.455Z</time>
      </trkpt>
      <trkpt lat="46.73381" lon="-1.99493">
        <ele>4.6</ele>
        <time>2025-01-20T09:08:17.455Z</time>
      </trkpt>
      <trkpt lat="46.73381" lon="-1.99492">
        <ele>4.6</ele>
        <time>2025-01-20T09:08:18.455Z</time>
      </trkpt>
      <trkpt lat="46.73382" lon="-1.99491">
        <ele>4.7</ele>
        <time>2025-01-20T09:08:19.455Z</time>
      </trkpt>
      <trkpt lat="46.73383" lon="-1.99489">
        <ele>4.9</ele>
        <time>2025-01-20T09:08:20.455Z</time>
      </trkpt>
      <trkpt lat="46.73383" lon="-1.99488">
        <ele>4.9</ele>
        <time>2025-01-20T09:08:21.456Z</time>
      </trkpt>
      <trkpt lat="46.73384" lon="-1.99487">
        <ele>5</ele>
        <time>2025-01-20T09:08:22.455Z</time>
      </trkpt>
      <trkpt lat="46.73385" lon="-1.99485">
        <ele>5.2</ele>
        <time>2025-01-20T09:08:23.455Z</time>
      </trkpt>
      <trkpt lat="46.73385" lon="-1.99484">
        <ele>5.2</ele>
        <time>2025-01-20T09:08:24.455Z</time>
      </trkpt>
      <trkpt lat="46.73386" lon="-1.99482">
        <ele>5.4</ele>
        <time>2025-01-20T09:08:25.455Z</time>
      </trkpt>
      <trkpt lat="46.73386" lon="-1.99481">
        <ele>5.4</ele>
        <time>2025-01-20T09:08:26.456Z</time>
      </trkpt>
      <trkpt lat="46.73387" lon="-1.99479">
        <ele>5.6</ele>
        <time>2025-01-20T09:08:27.456Z</time>
      </trkpt>
      <trkpt lat="46.73387" lon="-1.99478">
        <ele>5.6</ele>
        <time>2025-01-20T09:08:28.455Z</time>
      </trkpt>
      <trkpt lat="46.73387" lon="-1.99477">
        <ele>5.6</ele>
        <time>2025-01-20T09:08:29.455Z</time>
      </trkpt>
      <trkpt lat="46.73387" lon="-1.99475">
        <ele>5.7</ele>
        <time>2025-01-20T09:08:30.456Z</time>
      </trkpt>
      <trkpt lat="46.73387" lon="-1.99474">
        <ele>5.7</ele>
        <time>2025-01-20T09:08:31.456Z</time>
      </trkpt>
      <trkpt lat="46.73388" lon="-1.99473">
        <ele>5.9</ele>
        <time>2025-01-20T09:08:32.456Z</time>
      </trkpt>
      <trkpt lat="46.73388" lon="-1.99471">
        <ele>6.1</ele>
        <time>2025-01-20T09:08:33.455Z</time>
      </trkpt>
      <trkpt lat="46.73388" lon="-1.99469">
        <ele>6.4</ele>
        <time>2025-01-20T09:08:34.455Z</time>
      </trkpt>
      <trkpt lat="46.73389" lon="-1.99468">
        <ele>6.6</ele>
        <time>2025-01-20T09:08:35.456Z</time>
      </trkpt>
      <trkpt lat="46.73389" lon="-1.99466">
        <ele>6.9</ele>
        <time>2025-01-20T09:08:36.455Z</time>
      </trkpt>
      <trkpt lat="46.73389" lon="-1.99464">
        <ele>7.2</ele>
        <time>2025-01-20T09:08:37.455Z</time>
      </trkpt>
      <trkpt lat="46.73389" lon="-1.99463">
        <ele>7.3</ele>
        <time>2025-01-20T09:08:38.456Z</time>
      </trkpt>
      <trkpt lat="46.73389" lon="-1.99461">
        <ele>7.6</ele>
        <time>2025-01-20T09:08:39.456Z</time>
      </trkpt>
      <trkpt lat="46.73389" lon="-1.99459">
        <ele>7.9</ele>
        <time>2025-01-20T09:08:40.456Z</time>
      </trkpt>
      <trkpt lat="46.73389" lon="-1.99458">
        <ele>8</ele>
        <time>2025-01-20T09:08:41.456Z</time>
      </trkpt>
      <trkpt lat="46.73389" lon="-1.99456">
        <ele>8.3</ele>
        <time>2025-01-20T09:08:42.456Z</time>
      </trkpt>
      <trkpt lat="46.7339" lon="-1.99455">
        <ele>8.4</ele>
        <time>2025-01-20T09:08:43.455Z</time>
      </trkpt>
      <trkpt lat="46.7339" lon="-1.99453">
        <ele>8.6</ele>
        <time>2025-01-20T09:08:44.455Z</time>
      </trkpt>
      <trkpt lat="46.7339" lon="-1.99452">
        <ele>8.8</ele>
        <time>2025-01-20T09:08:45.455Z</time>
      </trkpt>
      <trkpt lat="46.7339" lon="-1.99451">
        <ele>8.9</ele>
        <time>2025-01-20T09:08:46.455Z</time>
      </trkpt>
      <trkpt lat="46.7339" lon="-1.9945">
        <ele>9.1</ele>
        <time>2025-01-20T09:08:47.456Z</time>
      </trkpt>
      <trkpt lat="46.7339" lon="-1.99448">
        <ele>9.3</ele>
        <time>2025-01-20T09:08:48.456Z</time>
      </trkpt>
      <trkpt lat="46.73391" lon="-1.99447">
        <ele>9.3</ele>
        <time>2025-01-20T09:08:49.456Z</time>
      </trkpt>
      <trkpt lat="46.73391" lon="-1.99446">
        <ele>9.5</ele>
        <time>2025-01-20T09:08:50.456Z</time>
      </trkpt>
      <trkpt lat="46.73391" lon="-1.99444">
        <ele>9.8</ele>
        <time>2025-01-20T09:08:51.455Z</time>
      </trkpt>
      <trkpt lat="46.73391" lon="-1.99443">
        <ele>10</ele>
        <time>2025-01-20T09:08:52.456Z</time>
      </trkpt>
      <trkpt lat="46.7339" lon="-1.99441">
        <ele>10.5</ele>
        <time>2025-01-20T09:08:53.456Z</time>
      </trkpt>
      <trkpt lat="46.7339" lon="-1.9944">
        <ele>10.6</ele>
        <time>2025-01-20T09:08:54.456Z</time>
      </trkpt>
      <trkpt lat="46.7339" lon="-1.99438">
        <ele>11</ele>
        <time>2025-01-20T09:08:55.456Z</time>
      </trkpt>
      <trkpt lat="46.7339" lon="-1.99437">
        <ele>11.2</ele>
        <time>2025-01-20T09:08:56.456Z</time>
      </trkpt>
      <trkpt lat="46.7339" lon="-1.99436">
        <ele>11.4</ele>
        <time>2025-01-20T09:08:57.456Z</time>
      </trkpt>
      <trkpt lat="46.7339" lon="-1.99435">
        <ele>11.6</ele>
        <time>2025-01-20T09:08:58.455Z</time>
      </trkpt>
      <trkpt lat="46.7339" lon="-1.99433">
        <ele>11.9</ele>
        <time>2025-01-20T09:08:59.455Z</time>
      </trkpt>
      <trkpt lat="46.7339" lon="-1.99432">
        <ele>12.1</ele>
        <time>2025-01-20T09:09:00.455Z</time>
      </trkpt>
      <trkpt lat="46.7339" lon="-1.9943">
        <ele>12.5</ele>
        <time>2025-01-20T09:09:01.455Z</time>
      </trkpt>
      <trkpt lat="46.7339" lon="-1.99429">
        <ele>12.6</ele>
        <time>2025-01-20T09:09:02.456Z</time>
      </trkpt>
      <trkpt lat="46.7339" lon="-1.99428">
        <ele>12.8</ele>
        <time>2025-01-20T09:09:03.455Z</time>
      </trkpt>
      <trkpt lat="46.7339" lon="-1.99426">
        <ele>13.2</ele>
        <time>2025-01-20T09:09:04.455Z</time>
      </trkpt>
      <trkpt lat="46.7339" lon="-1.99425">
        <ele>13.4</ele>
        <time>2025-01-20T09:09:05.455Z</time>
      </trkpt>
      <trkpt lat="46.7339" lon="-1.99424">
        <ele>13.5</ele>
        <time>2025-01-20T09:09:06.455Z</time>
      </trkpt>
      <trkpt lat="46.73391" lon="-1.99423">
        <ele>13.6</ele>
        <time>2025-01-20T09:09:07.456Z</time>
      </trkpt>
      <trkpt lat="46.73391" lon="-1.99421">
        <ele>14</ele>
        <time>2025-01-20T09:09:08.456Z</time>
      </trkpt>
      <trkpt lat="46.73391" lon="-1.9942">
        <ele>14.2</ele>
        <time>2025-01-20T09:09:09.456Z</time>
      </trkpt>
      <trkpt lat="46.73391" lon="-1.99419">
        <ele>14.3</ele>
        <time>2025-01-20T09:09:10.455Z</time>
      </trkpt>
      <trkpt lat="46.73391" lon="-1.99419">
        <ele>14.3</ele>
        <time>2025-01-20T09:09:11.456Z</time>
      </trkpt>
      <trkpt lat="46.73391" lon="-1.99418">
        <ele>14.5</ele>
        <time>2025-01-20T09:09:12.455Z</time>
      </trkpt>
      <trkpt lat="46.73391" lon="-1.99417">
        <ele>14.7</ele>
        <time>2025-01-20T09:09:13.455Z</time>
      </trkpt>
      <trkpt lat="46.73392" lon="-1.99415">
        <ele>14.8</ele>
        <time>2025-01-20T09:09:14.455Z</time>
      </trkpt>
      <trkpt lat="46.73392" lon="-1.99414">
        <ele>14.9</ele>
        <time>2025-01-20T09:09:15.456Z</time>
      </trkpt>
      <trkpt lat="46.73392" lon="-1.99413">
        <ele>15</ele>
        <time>2025-01-20T09:09:16.456Z</time>
      </trkpt>
      <trkpt lat="46.73393" lon="-1.99412">
        <ele>14.9</ele>
        <time>2025-01-20T09:09:17.456Z</time>
      </trkpt>
      <trkpt lat="46.73393" lon="-1.99411">
        <ele>15</ele>
        <time>2025-01-20T09:09:18.456Z</time>
      </trkpt>
      <trkpt lat="46.73393" lon="-1.9941">
        <ele>15.1</ele>
        <time>2025-01-20T09:09:19.456Z</time>
      </trkpt>
      <trkpt lat="46.73393" lon="-1.9941">
        <ele>15.1</ele>
        <time>2025-01-20T09:09:20.455Z</time>
      </trkpt>
      <trkpt lat="46.73393" lon="-1.99409">
        <ele>15.2</ele>
        <time>2025-01-20T09:09:21.455Z</time>
      </trkpt>
      <trkpt lat="46.73394" lon="-1.99408">
        <ele>15.2</ele>
        <time>2025-01-20T09:09:22.456Z</time>
      </trkpt>
      <trkpt lat="46.73394" lon="-1.99407">
        <ele>15.3</ele>
        <time>2025-01-20T09:09:23.455Z</time>
      </trkpt>
      <trkpt lat="46.73394" lon="-1.99405">
        <ele>15.4</ele>
        <time>2025-01-20T09:09:24.456Z</time>
      </trkpt>
      <trkpt lat="46.73395" lon="-1.99404">
        <ele>15.5</ele>
        <time>2025-01-20T09:09:25.456Z</time>
      </trkpt>
      <trkpt lat="46.73395" lon="-1.99403">
        <ele>15.5</ele>
        <time>2025-01-20T09:09:26.456Z</time>
      </trkpt>
      <trkpt lat="46.73396" lon="-1.99402">
        <ele>15.6</ele>
        <time>2025-01-20T09:09:27.456Z</time>
      </trkpt>
      <trkpt lat="46.73396" lon="-1.994">
        <ele>15.7</ele>
        <time>2025-01-20T09:09:28.455Z</time>
      </trkpt>
      <trkpt lat="46.73397" lon="-1.99399">
        <ele>15.8</ele>
        <time>2025-01-20T09:09:29.455Z</time>
      </trkpt>
      <trkpt lat="46.73397" lon="-1.99397">
        <ele>16</ele>
        <time>2025-01-20T09:09:30.455Z</time>
      </trkpt>
      <trkpt lat="46.73397" lon="-1.99396">
        <ele>16</ele>
        <time>2025-01-20T09:09:31.455Z</time>
      </trkpt>
      <trkpt lat="46.73398" lon="-1.99394">
        <ele>16.2</ele>
        <time>2025-01-20T09:09:32.456Z</time>
      </trkpt>
      <trkpt lat="46.73398" lon="-1.99392">
        <ele>16.4</ele>
        <time>2025-01-20T09:09:33.456Z</time>
      </trkpt>
      <trkpt lat="46.73398" lon="-1.99391">
        <ele>16.5</ele>
        <time>2025-01-20T09:09:34.456Z</time>
      </trkpt>
      <trkpt lat="46.73399" lon="-1.99389">
        <ele>16.6</ele>
        <time>2025-01-20T09:09:35.456Z</time>
      </trkpt>
      <trkpt lat="46.73399" lon="-1.99387">
        <ele>16.5</ele>
        <time>2025-01-20T09:09:36.455Z</time>
      </trkpt>
      <trkpt lat="46.73399" lon="-1.99386">
        <ele>16.5</ele>
        <time>2025-01-20T09:09:37.455Z</time>
      </trkpt>
      <trkpt lat="46.734" lon="-1.99384">
        <ele>16.3</ele>
        <time>2025-01-20T09:09:38.456Z</time>
      </trkpt>
      <trkpt lat="46.734" lon="-1.99383">
        <ele>16.3</ele>
        <time>2025-01-20T09:09:39.456Z</time>
      </trkpt>
      <trkpt lat="46.73401" lon="-1.99381">
        <ele>16.1</ele>
        <time>2025-01-20T09:09:40.455Z</time>
      </trkpt>
      <trkpt lat="46.73401" lon="-1.9938">
        <ele>16</ele>
        <time>2025-01-20T09:09:41.455Z</time>
      </trkpt>
      <trkpt lat="46.73401" lon="-1.99378">
        <ele>15.9</ele>
        <time>2025-01-20T09:09:42.455Z</time>
      </trkpt>
      <trkpt lat="46.73402" lon="-1.99377">
        <ele>15.7</ele>
        <time>2025-01-20T09:09:43.455Z</time>
      </trkpt>
      <trkpt lat="46.73402" lon="-1.99376">
        <ele>15.7</ele>
        <time>2025-01-20T09:09:44.456Z</time>
      </trkpt>
      <trkpt lat="46.73403" lon="-1.99376">
        <ele>15.5</ele>
        <time>2025-01-20T09:09:45.456Z</time>
      </trkpt>
      <trkpt lat="46.73403" lon="-1.99375">
        <ele>15.5</ele>
        <time>2025-01-20T09:09:46.456Z</time>
      </trkpt>
      <trkpt lat="46.73404" lon="-1.99374">
        <ele>15.3</ele>
        <time>2025-01-20T09:09:47.455Z</time>
      </trkpt>
      <trkpt lat="46.73405" lon="-1.99373">
        <ele>15.1</ele>
        <time>2025-01-20T09:09:48.456Z</time>
      </trkpt>
      <trkpt lat="46.73405" lon="-1.99372">
        <ele>15</ele>
        <time>2025-01-20T09:09:49.455Z</time>
      </trkpt>
      <trkpt lat="46.73406" lon="-1.99371">
        <ele>14.8</ele>
        <time>2025-01-20T09:09:50.455Z</time>
      </trkpt>
      <trkpt lat="46.73407" lon="-1.9937">
        <ele>14.6</ele>
        <time>2025-01-20T09:09:51.455Z</time>
      </trkpt>
      <trkpt lat="46.73408" lon="-1.99369">
        <ele>14.3</ele>
        <time>2025-01-20T09:09:52.456Z</time>
      </trkpt>
      <trkpt lat="46.73408" lon="-1.99369">
        <ele>14.3</ele>
        <time>2025-01-20T09:09:53.456Z</time>
      </trkpt>
      <trkpt lat="46.73409" lon="-1.99368">
        <ele>14.1</ele>
        <time>2025-01-20T09:09:54.456Z</time>
      </trkpt>
      <trkpt lat="46.7341" lon="-1.99367">
        <ele>13.8</ele>
        <time>2025-01-20T09:09:55.456Z</time>
      </trkpt>
      <trkpt lat="46.73411" lon="-1.99366">
        <ele>13.6</ele>
        <time>2025-01-20T09:09:56.455Z</time>
      </trkpt>
      <trkpt lat="46.73411" lon="-1.99364">
        <ele>13.4</ele>
        <time>2025-01-20T09:09:57.455Z</time>
      </trkpt>
      <trkpt lat="46.73412" lon="-1.99363">
        <ele>13.1</ele>
        <time>2025-01-20T09:09:58.455Z</time>
      </trkpt>
      <trkpt lat="46.73413" lon="-1.99361">
        <ele>12.6</ele>
        <time>2025-01-20T09:09:59.455Z</time>
      </trkpt>
      <trkpt lat="46.73414" lon="-1.9936">
        <ele>12.3</ele>
        <time>2025-01-20T09:10:00.455Z</time>
      </trkpt>
      <trkpt lat="46.73415" lon="-1.99358">
        <ele>11.8</ele>
        <time>2025-01-20T09:10:01.456Z</time>
      </trkpt>
      <trkpt lat="46.73415" lon="-1.99357">
        <ele>11.6</ele>
        <time>2025-01-20T09:10:02.456Z</time>
      </trkpt>
      <trkpt lat="46.73416" lon="-1.99355">
        <ele>11</ele>
        <time>2025-01-20T09:10:03.456Z</time>
      </trkpt>
      <trkpt lat="46.73417" lon="-1.99354">
        <ele>10.7</ele>
        <time>2025-01-20T09:10:04.456Z</time>
      </trkpt>
      <trkpt lat="46.73418" lon="-1.99353">
        <ele>10.4</ele>
        <time>2025-01-20T09:10:05.455Z</time>
      </trkpt>
      <trkpt lat="46.73419" lon="-1.99352">
        <ele>10.1</ele>
        <time>2025-01-20T09:10:06.455Z</time>
      </trkpt>
      <trkpt lat="46.7342" lon="-1.9935">
        <ele>9.7</ele>
        <time>2025-01-20T09:10:07.455Z</time>
      </trkpt>
      <trkpt lat="46.73421" lon="-1.99349">
        <ele>9.4</ele>
        <time>2025-01-20T09:10:08.455Z</time>
      </trkpt>
      <trkpt lat="46.73422" lon="-1.99348">
        <ele>9.1</ele>
        <time>2025-01-20T09:10:09.456Z</time>
      </trkpt>
      <trkpt lat="46.73423" lon="-1.99347">
        <ele>8.9</ele>
        <time>2025-01-20T09:10:10.456Z</time>
      </trkpt>
      <trkpt lat="46.73424" lon="-1.99345">
        <ele>8.5</ele>
        <time>2025-01-20T09:10:11.456Z</time>
      </trkpt>
      <trkpt lat="46.73425" lon="-1.99343">
        <ele>8.1</ele>
        <time>2025-01-20T09:10:12.455Z</time>
      </trkpt>
      <trkpt lat="46.73426" lon="-1.99342">
        <ele>7.9</ele>
        <time>2025-01-20T09:10:13.455Z</time>
      </trkpt>
      <trkpt lat="46.73427" lon="-1.9934">
        <ele>7.6</ele>
        <time>2025-01-20T09:10:14.456Z</time>
      </trkpt>
      <trkpt lat="46.73427" lon="-1.99339">
        <ele>7.4</ele>
        <time>2025-01-20T09:10:15.456Z</time>
      </trkpt>
      <trkpt lat="46.73427" lon="-1.99338">
        <ele>7.3</ele>
        <time>2025-01-20T09:10:16.456Z</time>
      </trkpt>
      <trkpt lat="46.73428" lon="-1.99336">
        <ele>7</ele>
        <time>2025-01-20T09:10:17.456Z</time>
      </trkpt>
      <trkpt lat="46.73429" lon="-1.99335">
        <ele>6.8</ele>
        <time>2025-01-20T09:10:18.456Z</time>
      </trkpt>
      <trkpt lat="46.7343" lon="-1.99334">
        <ele>6.6</ele>
        <time>2025-01-20T09:10:19.455Z</time>
      </trkpt>
      <trkpt lat="46.73431" lon="-1.99332">
        <ele>6.4</ele>
        <time>2025-01-20T09:10:20.455Z</time>
      </trkpt>
      <trkpt lat="46.73433" lon="-1.9933">
        <ele>6.3</ele>
        <time>2025-01-20T09:10:21.455Z</time>
      </trkpt>
      <trkpt lat="46.73434" lon="-1.99329">
        <ele>6.3</ele>
        <time>2025-01-20T09:10:22.456Z</time>
      </trkpt>
      <trkpt lat="46.73435" lon="-1.99327">
        <ele>6.2</ele>
        <time>2025-01-20T09:10:23.456Z</time>
      </trkpt>
      <trkpt lat="46.73436" lon="-1.99326">
        <ele>6.1</ele>
        <time>2025-01-20T09:10:24.455Z</time>
      </trkpt>
      <trkpt lat="46.73438" lon="-1.99324">
        <ele>6.1</ele>
        <time>2025-01-20T09:10:25.456Z</time>
      </trkpt>
      <trkpt lat="46.73439" lon="-1.99323">
        <ele>6.1</ele>
        <time>2025-01-20T09:10:26.456Z</time>
      </trkpt>
      <trkpt lat="46.73439" lon="-1.99321">
        <ele>6</ele>
        <time>2025-01-20T09:10:27.455Z</time>
      </trkpt>
      <trkpt lat="46.7344" lon="-1.99319">
        <ele>6</ele>
        <time>2025-01-20T09:10:28.456Z</time>
      </trkpt>
      <trkpt lat="46.73441" lon="-1.99318">
        <ele>6</ele>
        <time>2025-01-20T09:10:29.455Z</time>
      </trkpt>
      <trkpt lat="46.73442" lon="-1.99316">
        <ele>6</ele>
        <time>2025-01-20T09:10:30.456Z</time>
      </trkpt>
      <trkpt lat="46.73442" lon="-1.99315">
        <ele>6</ele>
        <time>2025-01-20T09:10:31.455Z</time>
      </trkpt>
      <trkpt lat="46.73443" lon="-1.99313">
        <ele>6</ele>
        <time>2025-01-20T09:10:32.455Z</time>
      </trkpt>
      <trkpt lat="46.73444" lon="-1.99311">
        <ele>6</ele>
        <time>2025-01-20T09:10:33.455Z</time>
      </trkpt>
      <trkpt lat="46.73445" lon="-1.99309">
        <ele>6</ele>
        <time>2025-01-20T09:10:34.455Z</time>
      </trkpt>
      <trkpt lat="46.73446" lon="-1.99307">
        <ele>6</ele>
        <time>2025-01-20T09:10:35.456Z</time>
      </trkpt>
      <trkpt lat="46.73447" lon="-1.99305">
        <ele>6</ele>
        <time>2025-01-20T09:10:36.456Z</time>
      </trkpt>
      <trkpt lat="46.73449" lon="-1.99304">
        <ele>6</ele>
        <time>2025-01-20T09:10:37.456Z</time>
      </trkpt>
      <trkpt lat="46.73449" lon="-1.99304">
        <ele>6</ele>
        <time>2025-01-20T09:10:38.456Z</time>
      </trkpt>
      <trkpt lat="46.7345" lon="-1.99303">
        <ele>5.9</ele>
        <time>2025-01-20T09:10:39.455Z</time>
      </trkpt>
      <trkpt lat="46.7345" lon="-1.99302">
        <ele>5.9</ele>
        <time>2025-01-20T09:10:40.455Z</time>
      </trkpt>
      <trkpt lat="46.73451" lon="-1.99301">
        <ele>5.9</ele>
        <time>2025-01-20T09:10:41.455Z</time>
      </trkpt>
      <trkpt lat="46.73451" lon="-1.993">
        <ele>5.8</ele>
        <time>2025-01-20T09:10:42.455Z</time>
      </trkpt>
      <trkpt lat="46.73451" lon="-1.99299">
        <ele>5.8</ele>
        <time>2025-01-20T09:10:43.455Z</time>
      </trkpt>
      <trkpt lat="46.73452" lon="-1.99297">
        <ele>5.8</ele>
        <time>2025-01-20T09:10:44.455Z</time>
      </trkpt>
      <trkpt lat="46.73453" lon="-1.99296">
        <ele>5.8</ele>
        <time>2025-01-20T09:10:45.456Z</time>
      </trkpt>
      <trkpt lat="46.73455" lon="-1.99294">
        <ele>5.7</ele>
        <time>2025-01-20T09:10:46.455Z</time>
      </trkpt>
      <trkpt lat="46.73455" lon="-1.99293">
        <ele>5.7</ele>
        <time>2025-01-20T09:10:47.456Z</time>
      </trkpt>
      <trkpt lat="46.73456" lon="-1.99292">
        <ele>5.7</ele>
        <time>2025-01-20T09:10:48.456Z</time>
      </trkpt>
      <trkpt lat="46.73456" lon="-1.9929">
        <ele>5.7</ele>
        <time>2025-01-20T09:10:49.455Z</time>
      </trkpt>
      <trkpt lat="46.73457" lon="-1.99289">
        <ele>5.7</ele>
        <time>2025-01-20T09:10:50.456Z</time>
      </trkpt>
      <trkpt lat="46.73457" lon="-1.99288">
        <ele>5.7</ele>
        <time>2025-01-20T09:10:51.455Z</time>
      </trkpt>
      <trkpt lat="46.73457" lon="-1.99287">
        <ele>5.6</ele>
        <time>2025-01-20T09:10:52.456Z</time>
      </trkpt>
      <trkpt lat="46.73458" lon="-1.99286">
        <ele>5.6</ele>
        <time>2025-01-20T09:10:53.455Z</time>
      </trkpt>
      <trkpt lat="46.73458" lon="-1.99286">
        <ele>5.6</ele>
        <time>2025-01-20T09:10:54.456Z</time>
      </trkpt>
      <trkpt lat="46.73459" lon="-1.99285">
        <ele>5.6</ele>
        <time>2025-01-20T09:10:55.456Z</time>
      </trkpt>
      <trkpt lat="46.73459" lon="-1.99284">
        <ele>5.6</ele>
        <time>2025-01-20T09:10:56.456Z</time>
      </trkpt>
      <trkpt lat="46.73459" lon="-1.99284">
        <ele>5.6</ele>
        <time>2025-01-20T09:10:57.455Z</time>
      </trkpt>
      <trkpt lat="46.73459" lon="-1.99283">
        <ele>5.6</ele>
        <time>2025-01-20T09:10:58.455Z</time>
      </trkpt>
      <trkpt lat="46.73459" lon="-1.99283">
        <ele>5.6</ele>
        <time>2025-01-20T09:10:59.456Z</time>
      </trkpt>
      <trkpt lat="46.73459" lon="-1.99283">
        <ele>5.6</ele>
        <time>2025-01-20T09:11:00.455Z</time>
      </trkpt>
      <trkpt lat="46.7346" lon="-1.99283">
        <ele>5.6</ele>
        <time>2025-01-20T09:11:01.456Z</time>
      </trkpt>
      <trkpt lat="46.7346" lon="-1.99283">
        <ele>5.6</ele>
        <time>2025-01-20T09:11:02.455Z</time>
      </trkpt>
      <trkpt lat="46.7346" lon="-1.99282">
        <ele>5.6</ele>
        <time>2025-01-20T09:11:03.455Z</time>
      </trkpt>
      <trkpt lat="46.7346" lon="-1.99282">
        <ele>5.6</ele>
        <time>2025-01-20T09:11:04.455Z</time>
      </trkpt>
      <trkpt lat="46.73459" lon="-1.99281">
        <ele>5.6</ele>
        <time>2025-01-20T09:11:05.455Z</time>
      </trkpt>
      <trkpt lat="46.7346" lon="-1.99281">
        <ele>5.6</ele>
        <time>2025-01-20T09:11:06.456Z</time>
      </trkpt>
      <trkpt lat="46.73461" lon="-1.99281">
        <ele>5.6</ele>
        <time>2025-01-20T09:11:07.455Z</time>
      </trkpt>
      <trkpt lat="46.73462" lon="-1.99281">
        <ele>5.7</ele>
        <time>2025-01-20T09:11:08.455Z</time>
      </trkpt>
      <trkpt lat="46.73463" lon="-1.9928">
        <ele>5.7</ele>
        <time>2025-01-20T09:11:09.455Z</time>
      </trkpt>
      <trkpt lat="46.73465" lon="-1.99279">
        <ele>5.8</ele>
        <time>2025-01-20T09:11:10.456Z</time>
      </trkpt>
      <trkpt lat="46.73466" lon="-1.99279">
        <ele>5.8</ele>
        <time>2025-01-20T09:11:11.456Z</time>
      </trkpt>
      <trkpt lat="46.73467" lon="-1.99278">
        <ele>5.8</ele>
        <time>2025-01-20T09:11:12.456Z</time>
      </trkpt>
      <trkpt lat="46.73468" lon="-1.99277">
        <ele>5.9</ele>
        <time>2025-01-20T09:11:13.456Z</time>
      </trkpt>
      <trkpt lat="46.73469" lon="-1.99277">
        <ele>5.9</ele>
        <time>2025-01-20T09:11:14.456Z</time>
      </trkpt>
      <trkpt lat="46.7347" lon="-1.99277">
        <ele>5.9</ele>
        <time>2025-01-20T09:11:15.456Z</time>
      </trkpt>
      <trkpt lat="46.73471" lon="-1.99277">
        <ele>6</ele>
        <time>2025-01-20T09:11:16.455Z</time>
      </trkpt>
      <trkpt lat="46.73473" lon="-1.99277">
        <ele>6.1</ele>
        <time>2025-01-20T09:11:17.455Z</time>
      </trkpt>
      <trkpt lat="46.73474" lon="-1.99277">
        <ele>6.2</ele>
        <time>2025-01-20T09:11:18.455Z</time>
      </trkpt>
      <trkpt lat="46.73476" lon="-1.99276">
        <ele>6.3</ele>
        <time>2025-01-20T09:11:19.456Z</time>
      </trkpt>
      <trkpt lat="46.73477" lon="-1.99275">
        <ele>6.4</ele>
        <time>2025-01-20T09:11:20.455Z</time>
      </trkpt>
      <trkpt lat="46.73478" lon="-1.99275">
        <ele>6.5</ele>
        <time>2025-01-20T09:11:21.456Z</time>
      </trkpt>
      <trkpt lat="46.7348" lon="-1.99274">
        <ele>6.6</ele>
        <time>2025-01-20T09:11:22.455Z</time>
      </trkpt>
      <trkpt lat="46.73481" lon="-1.99274">
        <ele>6.7</ele>
        <time>2025-01-20T09:11:23.456Z</time>
      </trkpt>
      <trkpt lat="46.73482" lon="-1.99274">
        <ele>6.7</ele>
        <time>2025-01-20T09:11:24.455Z</time>
      </trkpt>
      <trkpt lat="46.73484" lon="-1.99274">
        <ele>6.9</ele>
        <time>2025-01-20T09:11:25.455Z</time>
      </trkpt>
      <trkpt lat="46.73485" lon="-1.99274">
        <ele>6.9</ele>
        <time>2025-01-20T09:11:26.456Z</time>
      </trkpt>
      <trkpt lat="46.73486" lon="-1.99273">
        <ele>7</ele>
        <time>2025-01-20T09:11:27.456Z</time>
      </trkpt>
      <trkpt lat="46.73487" lon="-1.99273">
        <ele>7.1</ele>
        <time>2025-01-20T09:11:28.456Z</time>
      </trkpt>
      <trkpt lat="46.73488" lon="-1.99273">
        <ele>7.1</ele>
        <time>2025-01-20T09:11:29.456Z</time>
      </trkpt>
      <trkpt lat="46.73488" lon="-1.99273">
        <ele>7.1</ele>
        <time>2025-01-20T09:11:30.455Z</time>
      </trkpt>
      <trkpt lat="46.73489" lon="-1.99273">
        <ele>7.2</ele>
        <time>2025-01-20T09:11:31.456Z</time>
      </trkpt>
      <trkpt lat="46.73489" lon="-1.99273">
        <ele>7.2</ele>
        <time>2025-01-20T09:11:32.455Z</time>
      </trkpt>
      <trkpt lat="46.7349" lon="-1.99272">
        <ele>7.2</ele>
        <time>2025-01-20T09:11:33.456Z</time>
      </trkpt>
      <trkpt lat="46.73492" lon="-1.99272">
        <ele>7.3</ele>
        <time>2025-01-20T09:11:34.456Z</time>
      </trkpt>
      <trkpt lat="46.73494" lon="-1.99271">
        <ele>7.4</ele>
        <time>2025-01-20T09:11:35.456Z</time>
      </trkpt>
      <trkpt lat="46.73496" lon="-1.99271">
        <ele>7.5</ele>
        <time>2025-01-20T09:11:36.455Z</time>
      </trkpt>
      <trkpt lat="46.73497" lon="-1.9927">
        <ele>7.6</ele>
        <time>2025-01-20T09:11:37.456Z</time>
      </trkpt>
      <trkpt lat="46.73498" lon="-1.9927">
        <ele>7.6</ele>
        <time>2025-01-20T09:11:38.455Z</time>
      </trkpt>
      <trkpt lat="46.73499" lon="-1.99269">
        <ele>7.6</ele>
        <time>2025-01-20T09:11:39.455Z</time>
      </trkpt>
      <trkpt lat="46.735" lon="-1.99268">
        <ele>7.6</ele>
        <time>2025-01-20T09:11:40.456Z</time>
      </trkpt>
      <trkpt lat="46.73501" lon="-1.99267">
        <ele>7.5</ele>
        <time>2025-01-20T09:11:41.455Z</time>
      </trkpt>
      <trkpt lat="46.73502" lon="-1.99267">
        <ele>7.5</ele>
        <time>2025-01-20T09:11:42.455Z</time>
      </trkpt>
      <trkpt lat="46.73502" lon="-1.99267">
        <ele>7.5</ele>
        <time>2025-01-20T09:11:43.455Z</time>
      </trkpt>
      <trkpt lat="46.73503" lon="-1.99266">
        <ele>7.4</ele>
        <time>2025-01-20T09:11:44.456Z</time>
      </trkpt>
      <trkpt lat="46.73505" lon="-1.99264">
        <ele>7.2</ele>
        <time>2025-01-20T09:11:45.456Z</time>
      </trkpt>
      <trkpt lat="46.73508" lon="-1.99262">
        <ele>7.1</ele>
        <time>2025-01-20T09:11:46.455Z</time>
      </trkpt>
      <trkpt lat="46.73509" lon="-1.9926">
        <ele>7</ele>
        <time>2025-01-20T09:11:47.455Z</time>
      </trkpt>
      <trkpt lat="46.7351" lon="-1.99259">
        <ele>7</ele>
        <time>2025-01-20T09:11:48.455Z</time>
      </trkpt>
      <trkpt lat="46.73512" lon="-1.99257">
        <ele>6.9</ele>
        <time>2025-01-20T09:11:49.456Z</time>
      </trkpt>
      <trkpt lat="46.73513" lon="-1.99255">
        <ele>6.9</ele>
        <time>2025-01-20T09:11:50.456Z</time>
      </trkpt>
      <trkpt lat="46.73515" lon="-1.99253">
        <ele>6.9</ele>
        <time>2025-01-20T09:11:51.456Z</time>
      </trkpt>
      <trkpt lat="46.73516" lon="-1.99251">
        <ele>7</ele>
        <time>2025-01-20T09:11:52.456Z</time>
      </trkpt>
      <trkpt lat="46.73518" lon="-1.99249">
        <ele>7</ele>
        <time>2025-01-20T09:11:53.455Z</time>
      </trkpt>
      <trkpt lat="46.73519" lon="-1.99247">
        <ele>7</ele>
        <time>2025-01-20T09:11:54.455Z</time>
      </trkpt>
      <trkpt lat="46.73519" lon="-1.99245">
        <ele>7</ele>
        <time>2025-01-20T09:11:55.455Z</time>
      </trkpt>
      <trkpt lat="46.7352" lon="-1.99244">
        <ele>7</ele>
        <time>2025-01-20T09:11:56.456Z</time>
      </trkpt>
      <trkpt lat="46.73521" lon="-1.99242">
        <ele>7.1</ele>
        <time>2025-01-20T09:11:57.455Z</time>
      </trkpt>
      <trkpt lat="46.73521" lon="-1.99241">
        <ele>7.1</ele>
        <time>2025-01-20T09:11:58.455Z</time>
      </trkpt>
      <trkpt lat="46.73522" lon="-1.99239">
        <ele>7.1</ele>
        <time>2025-01-20T09:11:59.455Z</time>
      </trkpt>
      <trkpt lat="46.73522" lon="-1.99238">
        <ele>7.2</ele>
        <time>2025-01-20T09:12:00.456Z</time>
      </trkpt>
      <trkpt lat="46.73522" lon="-1.99236">
        <ele>7.2</ele>
        <time>2025-01-20T09:12:01.456Z</time>
      </trkpt>
      <trkpt lat="46.73523" lon="-1.99234">
        <ele>7.3</ele>
        <time>2025-01-20T09:12:02.456Z</time>
      </trkpt>
      <trkpt lat="46.73523" lon="-1.99233">
        <ele>7.3</ele>
        <time>2025-01-20T09:12:03.455Z</time>
      </trkpt>
      <trkpt lat="46.73524" lon="-1.99231">
        <ele>7.4</ele>
        <time>2025-01-20T09:12:04.456Z</time>
      </trkpt>
      <trkpt lat="46.73525" lon="-1.9923">
        <ele>7.5</ele>
        <time>2025-01-20T09:12:05.455Z</time>
      </trkpt>
      <trkpt lat="46.73525" lon="-1.99228">
        <ele>7.6</ele>
        <time>2025-01-20T09:12:06.455Z</time>
      </trkpt>
      <trkpt lat="46.73526" lon="-1.99226">
        <ele>7.7</ele>
        <time>2025-01-20T09:12:07.455Z</time>
      </trkpt>
      <trkpt lat="46.73526" lon="-1.99225">
        <ele>7.7</ele>
        <time>2025-01-20T09:12:08.456Z</time>
      </trkpt>
      <trkpt lat="46.73526" lon="-1.99224">
        <ele>7.8</ele>
        <time>2025-01-20T09:12:09.456Z</time>
      </trkpt>
      <trkpt lat="46.73527" lon="-1.99222">
        <ele>7.9</ele>
        <time>2025-01-20T09:12:10.455Z</time>
      </trkpt>
      <trkpt lat="46.73528" lon="-1.9922">
        <ele>8</ele>
        <time>2025-01-20T09:12:11.456Z</time>
      </trkpt>
      <trkpt lat="46.73529" lon="-1.99219">
        <ele>8</ele>
        <time>2025-01-20T09:12:12.456Z</time>
      </trkpt>
      <trkpt lat="46.73529" lon="-1.99216">
        <ele>8</ele>
        <time>2025-01-20T09:12:13.456Z</time>
      </trkpt>
      <trkpt lat="46.7353" lon="-1.99214">
        <ele>8.1</ele>
        <time>2025-01-20T09:12:14.455Z</time>
      </trkpt>
      <trkpt lat="46.7353" lon="-1.99212">
        <ele>8.1</ele>
        <time>2025-01-20T09:12:15.455Z</time>
      </trkpt>
      <trkpt lat="46.73531" lon="-1.99209">
        <ele>8.2</ele>
        <time>2025-01-20T09:12:16.455Z</time>
      </trkpt>
      <trkpt lat="46.73531" lon="-1.99207">
        <ele>8.3</ele>
        <time>2025-01-20T09:12:17.456Z</time>
      </trkpt>
      <trkpt lat="46.73531" lon="-1.99204">
        <ele>8.3</ele>
        <time>2025-01-20T09:12:18.455Z</time>
      </trkpt>
      <trkpt lat="46.73532" lon="-1.99202">
        <ele>8.4</ele>
        <time>2025-01-20T09:12:19.455Z</time>
      </trkpt>
      <trkpt lat="46.73532" lon="-1.992">
        <ele>8.5</ele>
        <time>2025-01-20T09:12:20.455Z</time>
      </trkpt>
      <trkpt lat="46.73533" lon="-1.99198">
        <ele>8.7</ele>
        <time>2025-01-20T09:12:21.455Z</time>
      </trkpt>
      <trkpt lat="46.73534" lon="-1.99196">
        <ele>8.8</ele>
        <time>2025-01-20T09:12:22.456Z</time>
      </trkpt>
      <trkpt lat="46.73534" lon="-1.99194">
        <ele>8.9</ele>
        <time>2025-01-20T09:12:23.456Z</time>
      </trkpt>
      <trkpt lat="46.73535" lon="-1.99192">
        <ele>8.9</ele>
        <time>2025-01-20T09:12:24.456Z</time>
      </trkpt>
      <trkpt lat="46.73536" lon="-1.99191">
        <ele>9</ele>
        <time>2025-01-20T09:12:25.456Z</time>
      </trkpt>
      <trkpt lat="46.73537" lon="-1.99189">
        <ele>9</ele>
        <time>2025-01-20T09:12:26.456Z</time>
      </trkpt>
      <trkpt lat="46.73538" lon="-1.99187">
        <ele>9</ele>
        <time>2025-01-20T09:12:27.455Z</time>
      </trkpt>
      <trkpt lat="46.73538" lon="-1.99186">
        <ele>9</ele>
        <time>2025-01-20T09:12:28.456Z</time>
      </trkpt>
      <trkpt lat="46.73538" lon="-1.99185">
        <ele>8.9</ele>
        <time>2025-01-20T09:12:29.456Z</time>
      </trkpt>
      <trkpt lat="46.73538" lon="-1.99183">
        <ele>8.8</ele>
        <time>2025-01-20T09:12:30.455Z</time>
      </trkpt>
      <trkpt lat="46.73537" lon="-1.99182">
        <ele>8.6</ele>
        <time>2025-01-20T09:12:31.455Z</time>
      </trkpt>
      <trkpt lat="46.73538" lon="-1.9918">
        <ele>8.6</ele>
        <time>2025-01-20T09:12:32.455Z</time>
      </trkpt>
      <trkpt lat="46.73539" lon="-1.99179">
        <ele>8.7</ele>
        <time>2025-01-20T09:12:33.456Z</time>
      </trkpt>
      <trkpt lat="46.7354" lon="-1.99178">
        <ele>8.8</ele>
        <time>2025-01-20T09:12:34.456Z</time>
      </trkpt>
      <trkpt lat="46.73541" lon="-1.99177">
        <ele>8.9</ele>
        <time>2025-01-20T09:12:35.456Z</time>
      </trkpt>
      <trkpt lat="46.73542" lon="-1.99175">
        <ele>9</ele>
        <time>2025-01-20T09:12:36.456Z</time>
      </trkpt>
      <trkpt lat="46.73543" lon="-1.99174">
        <ele>9.1</ele>
        <time>2025-01-20T09:12:37.456Z</time>
      </trkpt>
      <trkpt lat="46.73544" lon="-1.99172">
        <ele>9.2</ele>
        <time>2025-01-20T09:12:38.455Z</time>
      </trkpt>
      <trkpt lat="46.73544" lon="-1.99171">
        <ele>9.1</ele>
        <time>2025-01-20T09:12:39.455Z</time>
      </trkpt>
      <trkpt lat="46.73545" lon="-1.99169">
        <ele>9.2</ele>
        <time>2025-01-20T09:12:40.455Z</time>
      </trkpt>
      <trkpt lat="46.73546" lon="-1.99168">
        <ele>9.3</ele>
        <time>2025-01-20T09:12:41.456Z</time>
      </trkpt>
      <trkpt lat="46.73547" lon="-1.99166">
        <ele>9.4</ele>
        <time>2025-01-20T09:12:42.455Z</time>
      </trkpt>
      <trkpt lat="46.73548" lon="-1.99164">
        <ele>9.4</ele>
        <time>2025-01-20T09:12:43.455Z</time>
      </trkpt>
      <trkpt lat="46.73549" lon="-1.99162">
        <ele>9.5</ele>
        <time>2025-01-20T09:12:44.456Z</time>
      </trkpt>
      <trkpt lat="46.7355" lon="-1.9916">
        <ele>9.5</ele>
        <time>2025-01-20T09:12:45.456Z</time>
      </trkpt>
      <trkpt lat="46.73551" lon="-1.99158">
        <ele>9.6</ele>
        <time>2025-01-20T09:12:46.455Z</time>
      </trkpt>
      <trkpt lat="46.73552" lon="-1.99156">
        <ele>9.6</ele>
        <time>2025-01-20T09:12:47.456Z</time>
      </trkpt>
      <trkpt lat="46.73552" lon="-1.99154">
        <ele>9.4</ele>
        <time>2025-01-20T09:12:48.456Z</time>
      </trkpt>
      <trkpt lat="46.73553" lon="-1.99153">
        <ele>9.6</ele>
        <time>2025-01-20T09:12:49.455Z</time>
      </trkpt>
      <trkpt lat="46.73554" lon="-1.99152">
        <ele>9.7</ele>
        <time>2025-01-20T09:12:50.455Z</time>
      </trkpt>
      <trkpt lat="46.73555" lon="-1.99151">
        <ele>9.8</ele>
        <time>2025-01-20T09:12:51.456Z</time>
      </trkpt>
      <trkpt lat="46.73556" lon="-1.99149">
        <ele>9.8</ele>
        <time>2025-01-20T09:12:52.455Z</time>
      </trkpt>
      <trkpt lat="46.73557" lon="-1.99148">
        <ele>9.7</ele>
        <time>2025-01-20T09:12:53.455Z</time>
      </trkpt>
      <trkpt lat="46.73557" lon="-1.99147">
        <ele>9.7</ele>
        <time>2025-01-20T09:12:54.455Z</time>
      </trkpt>
      <trkpt lat="46.73558" lon="-1.99145">
        <ele>9.6</ele>
        <time>2025-01-20T09:12:55.455Z</time>
      </trkpt>
      <trkpt lat="46.73559" lon="-1.99144">
        <ele>9.5</ele>
        <time>2025-01-20T09:12:56.455Z</time>
      </trkpt>
      <trkpt lat="46.7356" lon="-1.99142">
        <ele>9.4</ele>
        <time>2025-01-20T09:12:57.456Z</time>
      </trkpt>
      <trkpt lat="46.73562" lon="-1.99141">
        <ele>9.4</ele>
        <time>2025-01-20T09:12:58.455Z</time>
      </trkpt>
      <trkpt lat="46.73563" lon="-1.9914">
        <ele>9.4</ele>
        <time>2025-01-20T09:12:59.455Z</time>
      </trkpt>
      <trkpt lat="46.73564" lon="-1.99139">
        <ele>9.3</ele>
        <time>2025-01-20T09:13:00.456Z</time>
      </trkpt>
      <trkpt lat="46.73565" lon="-1.99138">
        <ele>9.3</ele>
        <time>2025-01-20T09:13:01.455Z</time>
      </trkpt>
      <trkpt lat="46.73566" lon="-1.99137">
        <ele>9.2</ele>
        <time>2025-01-20T09:13:02.455Z</time>
      </trkpt>
      <trkpt lat="46.73567" lon="-1.99135">
        <ele>9</ele>
        <time>2025-01-20T09:13:03.455Z</time>
      </trkpt>
      <trkpt lat="46.73568" lon="-1.99134">
        <ele>9</ele>
        <time>2025-01-20T09:13:04.455Z</time>
      </trkpt>
      <trkpt lat="46.73569" lon="-1.99133">
        <ele>9</ele>
        <time>2025-01-20T09:13:05.456Z</time>
      </trkpt>
      <trkpt lat="46.7357" lon="-1.99132">
        <ele>8.9</ele>
        <time>2025-01-20T09:13:06.455Z</time>
      </trkpt>
      <trkpt lat="46.73571" lon="-1.99131">
        <ele>8.9</ele>
        <time>2025-01-20T09:13:07.456Z</time>
      </trkpt>
      <trkpt lat="46.73572" lon="-1.9913">
        <ele>8.8</ele>
        <time>2025-01-20T09:13:08.456Z</time>
      </trkpt>
      <trkpt lat="46.73574" lon="-1.99129">
        <ele>8.8</ele>
        <time>2025-01-20T09:13:09.456Z</time>
      </trkpt>
      <trkpt lat="46.73575" lon="-1.99128">
        <ele>8.8</ele>
        <time>2025-01-20T09:13:10.455Z</time>
      </trkpt>
      <trkpt lat="46.73577" lon="-1.99127">
        <ele>8.8</ele>
        <time>2025-01-20T09:13:11.455Z</time>
      </trkpt>
      <trkpt lat="46.73578" lon="-1.99125">
        <ele>8.7</ele>
        <time>2025-01-20T09:13:12.455Z</time>
      </trkpt>
      <trkpt lat="46.73579" lon="-1.99124">
        <ele>8.7</ele>
        <time>2025-01-20T09:13:13.455Z</time>
      </trkpt>
      <trkpt lat="46.7358" lon="-1.99122">
        <ele>8.6</ele>
        <time>2025-01-20T09:13:14.455Z</time>
      </trkpt>
      <trkpt lat="46.73581" lon="-1.99121">
        <ele>8.6</ele>
        <time>2025-01-20T09:13:15.456Z</time>
      </trkpt>
      <trkpt lat="46.73583" lon="-1.9912">
        <ele>8.6</ele>
        <time>2025-01-20T09:13:16.456Z</time>
      </trkpt>
      <trkpt lat="46.73583" lon="-1.99118">
        <ele>8.5</ele>
        <time>2025-01-20T09:13:17.456Z</time>
      </trkpt>
      <trkpt lat="46.73584" lon="-1.99117">
        <ele>8.4</ele>
        <time>2025-01-20T09:13:18.456Z</time>
      </trkpt>
      <trkpt lat="46.73585" lon="-1.99116">
        <ele>8.3</ele>
        <time>2025-01-20T09:13:19.455Z</time>
      </trkpt>
      <trkpt lat="46.73586" lon="-1.99115">
        <ele>8.2</ele>
        <time>2025-01-20T09:13:20.455Z</time>
      </trkpt>
      <trkpt lat="46.73587" lon="-1.99113">
        <ele>8</ele>
        <time>2025-01-20T09:13:21.455Z</time>
      </trkpt>
      <trkpt lat="46.73588" lon="-1.99111">
        <ele>7.8</ele>
        <time>2025-01-20T09:13:22.455Z</time>
      </trkpt>
      <trkpt lat="46.73589" lon="-1.9911">
        <ele>7.7</ele>
        <time>2025-01-20T09:13:23.456Z</time>
      </trkpt>
      <trkpt lat="46.7359" lon="-1.99108">
        <ele>7.4</ele>
        <time>2025-01-20T09:13:24.456Z</time>
      </trkpt>
      <trkpt lat="46.73591" lon="-1.99106">
        <ele>7.2</ele>
        <time>2025-01-20T09:13:25.456Z</time>
      </trkpt>
      <trkpt lat="46.73593" lon="-1.99104">
        <ele>7.1</ele>
        <time>2025-01-20T09:13:26.456Z</time>
      </trkpt>
      <trkpt lat="46.73594" lon="-1.99102">
        <ele>6.9</ele>
        <time>2025-01-20T09:13:27.455Z</time>
      </trkpt>
      <trkpt lat="46.73595" lon="-1.99101">
        <ele>6.9</ele>
        <time>2025-01-20T09:13:28.455Z</time>
      </trkpt>
      <trkpt lat="46.73596" lon="-1.99099">
        <ele>6.8</ele>
        <time>2025-01-20T09:13:29.455Z</time>
      </trkpt>
      <trkpt lat="46.73596" lon="-1.99097">
        <ele>6.7</ele>
        <time>2025-01-20T09:13:30.455Z</time>
      </trkpt>
      <trkpt lat="46.73597" lon="-1.99096">
        <ele>6.7</ele>
        <time>2025-01-20T09:13:31.456Z</time>
      </trkpt>
      <trkpt lat="46.73597" lon="-1.99094">
        <ele>6.6</ele>
        <time>2025-01-20T09:13:32.456Z</time>
      </trkpt>
      <trkpt lat="46.73598" lon="-1.99091">
        <ele>6.5</ele>
        <time>2025-01-20T09:13:33.456Z</time>
      </trkpt>
      <trkpt lat="46.73599" lon="-1.99089">
        <ele>6.5</ele>
        <time>2025-01-20T09:13:34.456Z</time>
      </trkpt>
      <trkpt lat="46.736" lon="-1.99086">
        <ele>6.5</ele>
        <time>2025-01-20T09:13:35.455Z</time>
      </trkpt>
      <trkpt lat="46.73601" lon="-1.99083">
        <ele>6.5</ele>
        <time>2025-01-20T09:13:36.455Z</time>
      </trkpt>
      <trkpt lat="46.73601" lon="-1.99081">
        <ele>6.5</ele>
        <time>2025-01-20T09:13:37.455Z</time>
      </trkpt>
      <trkpt lat="46.73601" lon="-1.99078">
        <ele>6.4</ele>
        <time>2025-01-20T09:13:38.456Z</time>
      </trkpt>
      <trkpt lat="46.73601" lon="-1.99076">
        <ele>6.4</ele>
        <time>2025-01-20T09:13:39.456Z</time>
      </trkpt>
      <trkpt lat="46.73601" lon="-1.99074">
        <ele>6.3</ele>
        <time>2025-01-20T09:13:40.456Z</time>
      </trkpt>
      <trkpt lat="46.73601" lon="-1.99072">
        <ele>6.3</ele>
        <time>2025-01-20T09:13:41.456Z</time>
      </trkpt>
      <trkpt lat="46.73601" lon="-1.99071">
        <ele>6.3</ele>
        <time>2025-01-20T09:13:42.456Z</time>
      </trkpt>
      <trkpt lat="46.73602" lon="-1.99069">
        <ele>6.3</ele>
        <time>2025-01-20T09:13:43.455Z</time>
      </trkpt>
      <trkpt lat="46.73602" lon="-1.99067">
        <ele>6.3</ele>
        <time>2025-01-20T09:13:44.455Z</time>
      </trkpt>
      <trkpt lat="46.73602" lon="-1.99066">
        <ele>6.3</ele>
        <time>2025-01-20T09:13:45.455Z</time>
      </trkpt>
      <trkpt lat="46.73603" lon="-1.99064">
        <ele>6.3</ele>
        <time>2025-01-20T09:13:46.455Z</time>
      </trkpt>
      <trkpt lat="46.73604" lon="-1.99063">
        <ele>6.4</ele>
        <time>2025-01-20T09:13:47.455Z</time>
      </trkpt>
      <trkpt lat="46.73604" lon="-1.99062">
        <ele>6.4</ele>
        <time>2025-01-20T09:13:48.456Z</time>
      </trkpt>
      <trkpt lat="46.73604" lon="-1.99061">
        <ele>6.4</ele>
        <time>2025-01-20T09:13:49.456Z</time>
      </trkpt>
      <trkpt lat="46.73605" lon="-1.9906">
        <ele>6.5</ele>
        <time>2025-01-20T09:13:50.456Z</time>
      </trkpt>
      <trkpt lat="46.73605" lon="-1.99058">
        <ele>6.4</ele>
        <time>2025-01-20T09:13:51.455Z</time>
      </trkpt>
      <trkpt lat="46.73606" lon="-1.99057">
        <ele>6.5</ele>
        <time>2025-01-20T09:13:52.455Z</time>
      </trkpt>
      <trkpt lat="46.73606" lon="-1.99056">
        <ele>6.5</ele>
        <time>2025-01-20T09:13:53.455Z</time>
      </trkpt>
      <trkpt lat="46.73606" lon="-1.99055">
        <ele>6.5</ele>
        <time>2025-01-20T09:13:54.455Z</time>
      </trkpt>
      <trkpt lat="46.73607" lon="-1.99053">
        <ele>6.9</ele>
        <time>2025-01-20T09:13:55.456Z</time>
      </trkpt>
      <trkpt lat="46.73607" lon="-1.99052">
        <ele>7</ele>
        <time>2025-01-20T09:13:56.456Z</time>
      </trkpt>
      <trkpt lat="46.73608" lon="-1.99051">
        <ele>7.3</ele>
        <time>2025-01-20T09:13:57.456Z</time>
      </trkpt>
      <trkpt lat="46.73608" lon="-1.99049">
        <ele>7.5</ele>
        <time>2025-01-20T09:13:58.456Z</time>
      </trkpt>
      <trkpt lat="46.73608" lon="-1.99048">
        <ele>7.7</ele>
        <time>2025-01-20T09:13:59.456Z</time>
      </trkpt>
      <trkpt lat="46.73609" lon="-1.99046">
        <ele>8.1</ele>
        <time>2025-01-20T09:14:00.455Z</time>
      </trkpt>
      <trkpt lat="46.7361" lon="-1.99044">
        <ele>8.5</ele>
        <time>2025-01-20T09:14:01.455Z</time>
      </trkpt>
      <trkpt lat="46.73611" lon="-1.99042">
        <ele>8.9</ele>
        <time>2025-01-20T09:14:02.455Z</time>
      </trkpt>
      <trkpt lat="46.73612" lon="-1.9904">
        <ele>9.2</ele>
        <time>2025-01-20T09:14:03.455Z</time>
      </trkpt>
      <trkpt lat="46.73613" lon="-1.99039">
        <ele>9.3</ele>
        <time>2025-01-20T09:14:04.456Z</time>
      </trkpt>
      <trkpt lat="46.73614" lon="-1.99037">
        <ele>9.5</ele>
        <time>2025-01-20T09:14:05.455Z</time>
      </trkpt>
      <trkpt lat="46.73615" lon="-1.99036">
        <ele>9.6</ele>
        <time>2025-01-20T09:14:06.455Z</time>
      </trkpt>
      <trkpt lat="46.73616" lon="-1.99035">
        <ele>9.6</ele>
        <time>2025-01-20T09:14:07.456Z</time>
      </trkpt>
      <trkpt lat="46.73616" lon="-1.99033">
        <ele>9.9</ele>
        <time>2025-01-20T09:14:08.455Z</time>
      </trkpt>
      <trkpt lat="46.73617" lon="-1.99031">
        <ele>10</ele>
        <time>2025-01-20T09:14:09.455Z</time>
      </trkpt>
      <trkpt lat="46.73617" lon="-1.9903">
        <ele>10.1</ele>
        <time>2025-01-20T09:14:10.455Z</time>
      </trkpt>
      <trkpt lat="46.73617" lon="-1.99027">
        <ele>10.4</ele>
        <time>2025-01-20T09:14:11.455Z</time>
      </trkpt>
      <trkpt lat="46.73618" lon="-1.99024">
        <ele>10.2</ele>
        <time>2025-01-20T09:14:12.456Z</time>
      </trkpt>
      <trkpt lat="46.73618" lon="-1.99021">
        <ele>10.2</ele>
        <time>2025-01-20T09:14:13.456Z</time>
      </trkpt>
      <trkpt lat="46.73618" lon="-1.99018">
        <ele>10.2</ele>
        <time>2025-01-20T09:14:14.456Z</time>
      </trkpt>
      <trkpt lat="46.73618" lon="-1.99016">
        <ele>10.2</ele>
        <time>2025-01-20T09:14:15.456Z</time>
      </trkpt>
      <trkpt lat="46.73618" lon="-1.99015">
        <ele>10.1</ele>
        <time>2025-01-20T09:14:16.455Z</time>
      </trkpt>
      <trkpt lat="46.73617" lon="-1.99013">
        <ele>10.3</ele>
        <time>2025-01-20T09:14:17.455Z</time>
      </trkpt>
      <trkpt lat="46.73616" lon="-1.99012">
        <ele>10.4</ele>
        <time>2025-01-20T09:14:18.456Z</time>
      </trkpt>
      <trkpt lat="46.73614" lon="-1.9901">
        <ele>10.6</ele>
        <time>2025-01-20T09:14:19.456Z</time>
      </trkpt>
      <trkpt lat="46.73613" lon="-1.99007">
        <ele>10.7</ele>
        <time>2025-01-20T09:14:20.456Z</time>
      </trkpt>
      <trkpt lat="46.73611" lon="-1.99005">
        <ele>11</ele>
        <time>2025-01-20T09:14:21.456Z</time>
      </trkpt>
      <trkpt lat="46.7361" lon="-1.99004">
        <ele>10.9</ele>
        <time>2025-01-20T09:14:22.456Z</time>
      </trkpt>
      <trkpt lat="46.73608" lon="-1.99002">
        <ele>10.8</ele>
        <time>2025-01-20T09:14:23.456Z</time>
      </trkpt>
      <trkpt lat="46.73606" lon="-1.99001">
        <ele>10.8</ele>
        <time>2025-01-20T09:14:24.455Z</time>
      </trkpt>
      <trkpt lat="46.73605" lon="-1.99001">
        <ele>10.7</ele>
        <time>2025-01-20T09:14:25.455Z</time>
      </trkpt>
      <trkpt lat="46.73603" lon="-1.99001">
        <ele>10.7</ele>
        <time>2025-01-20T09:14:26.456Z</time>
      </trkpt>
      <trkpt lat="46.73602" lon="-1.99">
        <ele>10.7</ele>
        <time>2025-01-20T09:14:27.455Z</time>
      </trkpt>
      <trkpt lat="46.73601" lon="-1.99">
        <ele>10.6</ele>
        <time>2025-01-20T09:14:28.456Z</time>
      </trkpt>
      <trkpt lat="46.736" lon="-1.98999">
        <ele>10.5</ele>
        <time>2025-01-20T09:14:29.455Z</time>
      </trkpt>
      <trkpt lat="46.73599" lon="-1.98998">
        <ele>10.4</ele>
        <time>2025-01-20T09:14:30.455Z</time>
      </trkpt>
      <trkpt lat="46.73599" lon="-1.98997">
        <ele>10.4</ele>
        <time>2025-01-20T09:14:31.456Z</time>
      </trkpt>
      <trkpt lat="46.73598" lon="-1.98996">
        <ele>10.3</ele>
        <time>2025-01-20T09:14:32.456Z</time>
      </trkpt>
      <trkpt lat="46.73597" lon="-1.98994">
        <ele>10.2</ele>
        <time>2025-01-20T09:14:33.456Z</time>
      </trkpt>
      <trkpt lat="46.73596" lon="-1.98993">
        <ele>10.1</ele>
        <time>2025-01-20T09:14:34.456Z</time>
      </trkpt>
      <trkpt lat="46.73594" lon="-1.98991">
        <ele>10</ele>
        <time>2025-01-20T09:14:35.455Z</time>
      </trkpt>
      <trkpt lat="46.73593" lon="-1.98991">
        <ele>10</ele>
        <time>2025-01-20T09:14:36.455Z</time>
      </trkpt>
      <trkpt lat="46.73591" lon="-1.9899">
        <ele>10</ele>
        <time>2025-01-20T09:14:37.455Z</time>
      </trkpt>
      <trkpt lat="46.7359" lon="-1.98989">
        <ele>10</ele>
        <time>2025-01-20T09:14:38.455Z</time>
      </trkpt>
      <trkpt lat="46.73588" lon="-1.98989">
        <ele>10</ele>
        <time>2025-01-20T09:14:39.456Z</time>
      </trkpt>
      <trkpt lat="46.73586" lon="-1.98989">
        <ele>10</ele>
        <time>2025-01-20T09:14:40.456Z</time>
      </trkpt>
      <trkpt lat="46.73585" lon="-1.98989">
        <ele>10</ele>
        <time>2025-01-20T09:14:41.456Z</time>
      </trkpt>
      <trkpt lat="46.73583" lon="-1.9899">
        <ele>10</ele>
        <time>2025-01-20T09:14:42.456Z</time>
      </trkpt>
      <trkpt lat="46.73582" lon="-1.9899">
        <ele>10.1</ele>
        <time>2025-01-20T09:14:43.455Z</time>
      </trkpt>
      <trkpt lat="46.73581" lon="-1.98989">
        <ele>10.1</ele>
        <time>2025-01-20T09:14:44.455Z</time>
      </trkpt>
      <trkpt lat="46.73579" lon="-1.98989">
        <ele>10.2</ele>
        <time>2025-01-20T09:14:45.455Z</time>
      </trkpt>
      <trkpt lat="46.73578" lon="-1.98988">
        <ele>10.2</ele>
        <time>2025-01-20T09:14:46.455Z</time>
      </trkpt>
      <trkpt lat="46.73577" lon="-1.98986">
        <ele>10.3</ele>
        <time>2025-01-20T09:14:47.456Z</time>
      </trkpt>
      <trkpt lat="46.73576" lon="-1.98984">
        <ele>10.5</ele>
        <time>2025-01-20T09:14:48.456Z</time>
      </trkpt>
      <trkpt lat="46.73575" lon="-1.98983">
        <ele>10.6</ele>
        <time>2025-01-20T09:14:49.456Z</time>
      </trkpt>
      <trkpt lat="46.73575" lon="-1.98981">
        <ele>10.6</ele>
        <time>2025-01-20T09:14:50.456Z</time>
      </trkpt>
      <trkpt lat="46.73575" lon="-1.9898">
        <ele>10.6</ele>
        <time>2025-01-20T09:14:51.456Z</time>
      </trkpt>
      <trkpt lat="46.73573" lon="-1.98979">
        <ele>10.8</ele>
        <time>2025-01-20T09:14:52.455Z</time>
      </trkpt>
      <trkpt lat="46.73571" lon="-1.98978">
        <ele>11.1</ele>
        <time>2025-01-20T09:14:53.455Z</time>
      </trkpt>
      <trkpt lat="46.7357" lon="-1.98977">
        <ele>11.2</ele>
        <time>2025-01-20T09:14:54.455Z</time>
      </trkpt>
      <trkpt lat="46.73569" lon="-1.98976">
        <ele>11.3</ele>
        <time>2025-01-20T09:14:55.456Z</time>
      </trkpt>
      <trkpt lat="46.73567" lon="-1.98975">
        <ele>11.6</ele>
        <time>2025-01-20T09:14:56.456Z</time>
      </trkpt>
      <trkpt lat="46.73566" lon="-1.98975">
        <ele>11.7</ele>
        <time>2025-01-20T09:14:57.456Z</time>
      </trkpt>
      <trkpt lat="46.73565" lon="-1.98975">
        <ele>11.8</ele>
        <time>2025-01-20T09:14:58.456Z</time>
      </trkpt>
      <trkpt lat="46.73563" lon="-1.98976">
        <ele>11.9</ele>
        <time>2025-01-20T09:14:59.456Z</time>
      </trkpt>
      <trkpt lat="46.73562" lon="-1.98976">
        <ele>12</ele>
        <time>2025-01-20T09:15:00.455Z</time>
      </trkpt>
      <trkpt lat="46.7356" lon="-1.98977">
        <ele>12.1</ele>
        <time>2025-01-20T09:15:01.455Z</time>
      </trkpt>
      <trkpt lat="46.73559" lon="-1.98978">
        <ele>12.1</ele>
        <time>2025-01-20T09:15:02.455Z</time>
      </trkpt>
      <trkpt lat="46.73558" lon="-1.98979">
        <ele>12.1</ele>
        <time>2025-01-20T09:15:03.455Z</time>
      </trkpt>
      <trkpt lat="46.73556" lon="-1.9898">
        <ele>12.1</ele>
        <time>2025-01-20T09:15:04.456Z</time>
      </trkpt>
      <trkpt lat="46.73555" lon="-1.98981">
        <ele>12.1</ele>
        <time>2025-01-20T09:15:05.456Z</time>
      </trkpt>
      <trkpt lat="46.73554" lon="-1.98983">
        <ele>11.9</ele>
        <time>2025-01-20T09:15:06.456Z</time>
      </trkpt>
      <trkpt lat="46.73553" lon="-1.98983">
        <ele>12</ele>
        <time>2025-01-20T09:15:07.456Z</time>
      </trkpt>
      <trkpt lat="46.73552" lon="-1.98983">
        <ele>12</ele>
        <time>2025-01-20T09:15:08.455Z</time>
      </trkpt>
      <trkpt lat="46.73551" lon="-1.98984">
        <ele>12</ele>
        <time>2025-01-20T09:15:09.455Z</time>
      </trkpt>
      <trkpt lat="46.7355" lon="-1.98984">
        <ele>12.1</ele>
        <time>2025-01-20T09:15:10.455Z</time>
      </trkpt>
      <trkpt lat="46.73549" lon="-1.98985">
        <ele>12.1</ele>
        <time>2025-01-20T09:15:11.456Z</time>
      </trkpt>
      <trkpt lat="46.73548" lon="-1.98985">
        <ele>12.1</ele>
        <time>2025-01-20T09:15:12.456Z</time>
      </trkpt>
      <trkpt lat="46.73547" lon="-1.98985">
        <ele>12.2</ele>
        <time>2025-01-20T09:15:13.456Z</time>
      </trkpt>
      <trkpt lat="46.73545" lon="-1.98987">
        <ele>12.2</ele>
        <time>2025-01-20T09:15:14.455Z</time>
      </trkpt>
      <trkpt lat="46.73544" lon="-1.98988">
        <ele>12.2</ele>
        <time>2025-01-20T09:15:15.455Z</time>
      </trkpt>
      <trkpt lat="46.73543" lon="-1.98989">
        <ele>12.3</ele>
        <time>2025-01-20T09:15:16.455Z</time>
      </trkpt>
      <trkpt lat="46.73542" lon="-1.9899">
        <ele>12.3</ele>
        <time>2025-01-20T09:15:17.455Z</time>
      </trkpt>
      <trkpt lat="46.7354" lon="-1.98991">
        <ele>12.5</ele>
        <time>2025-01-20T09:15:18.456Z</time>
      </trkpt>
      <trkpt lat="46.73539" lon="-1.98993">
        <ele>12.5</ele>
        <time>2025-01-20T09:15:19.456Z</time>
      </trkpt>
      <trkpt lat="46.73539" lon="-1.98995">
        <ele>12.5</ele>
        <time>2025-01-20T09:15:20.455Z</time>
      </trkpt>
      <trkpt lat="46.73538" lon="-1.98997">
        <ele>12.6</ele>
        <time>2025-01-20T09:15:21.456Z</time>
      </trkpt>
      <trkpt lat="46.73538" lon="-1.98999">
        <ele>12.5</ele>
        <time>2025-01-20T09:15:22.455Z</time>
      </trkpt>
      <trkpt lat="46.73537" lon="-1.99001">
        <ele>12.6</ele>
        <time>2025-01-20T09:15:23.456Z</time>
      </trkpt>
      <trkpt lat="46.73536" lon="-1.99003">
        <ele>12.6</ele>
        <time>2025-01-20T09:15:24.455Z</time>
      </trkpt>
      <trkpt lat="46.73535" lon="-1.99004">
        <ele>12.7</ele>
        <time>2025-01-20T09:15:25.455Z</time>
      </trkpt>
      <trkpt lat="46.73534" lon="-1.99005">
        <ele>12.8</ele>
        <time>2025-01-20T09:15:26.456Z</time>
      </trkpt>
      <trkpt lat="46.73533" lon="-1.99006">
        <ele>12.9</ele>
        <time>2025-01-20T09:15:27.456Z</time>
      </trkpt>
      <trkpt lat="46.73531" lon="-1.99006">
        <ele>13.2</ele>
        <time>2025-01-20T09:15:28.455Z</time>
      </trkpt>
      <trkpt lat="46.7353" lon="-1.99006">
        <ele>13.4</ele>
        <time>2025-01-20T09:15:29.455Z</time>
      </trkpt>
      <trkpt lat="46.73529" lon="-1.99007">
        <ele>13.5</ele>
        <time>2025-01-20T09:15:30.455Z</time>
      </trkpt>
      <trkpt lat="46.73528" lon="-1.99007">
        <ele>13.7</ele>
        <time>2025-01-20T09:15:31.456Z</time>
      </trkpt>
      <trkpt lat="46.73526" lon="-1.99008">
        <ele>13.8</ele>
        <time>2025-01-20T09:15:32.456Z</time>
      </trkpt>
      <trkpt lat="46.73525" lon="-1.99007">
        <ele>13.9</ele>
        <time>2025-01-20T09:15:33.456Z</time>
      </trkpt>
      <trkpt lat="46.73523" lon="-1.99008">
        <ele>13.9</ele>
        <time>2025-01-20T09:15:34.456Z</time>
      </trkpt>
      <trkpt lat="46.73522" lon="-1.99008">
        <ele>14</ele>
        <time>2025-01-20T09:15:35.456Z</time>
      </trkpt>
      <trkpt lat="46.7352" lon="-1.99008">
        <ele>14.1</ele>
        <time>2025-01-20T09:15:36.455Z</time>
      </trkpt>
      <trkpt lat="46.73519" lon="-1.99008">
        <ele>14.1</ele>
        <time>2025-01-20T09:15:37.455Z</time>
      </trkpt>
      <trkpt lat="46.73518" lon="-1.99008">
        <ele>14.2</ele>
        <time>2025-01-20T09:15:38.455Z</time>
      </trkpt>
      <trkpt lat="46.73516" lon="-1.99008">
        <ele>14.3</ele>
        <time>2025-01-20T09:15:39.455Z</time>
      </trkpt>
      <trkpt lat="46.73515" lon="-1.99008">
        <ele>14.3</ele>
        <time>2025-01-20T09:15:40.456Z</time>
      </trkpt>
      <trkpt lat="46.73514" lon="-1.99009">
        <ele>14.3</ele>
        <time>2025-01-20T09:15:41.456Z</time>
      </trkpt>
      <trkpt lat="46.73513" lon="-1.99009">
        <ele>14.4</ele>
        <time>2025-01-20T09:15:42.456Z</time>
      </trkpt>
      <trkpt lat="46.73512" lon="-1.99009">
        <ele>14.4</ele>
        <time>2025-01-20T09:15:43.456Z</time>
      </trkpt>
      <trkpt lat="46.73511" lon="-1.9901">
        <ele>14.5</ele>
        <time>2025-01-20T09:15:44.455Z</time>
      </trkpt>
      <trkpt lat="46.7351" lon="-1.9901">
        <ele>14.5</ele>
        <time>2025-01-20T09:15:45.455Z</time>
      </trkpt>
      <trkpt lat="46.73509" lon="-1.9901">
        <ele>14.6</ele>
        <time>2025-01-20T09:15:46.455Z</time>
      </trkpt>
      <trkpt lat="46.73508" lon="-1.99009">
        <ele>14.6</ele>
        <time>2025-01-20T09:15:47.455Z</time>
      </trkpt>
      <trkpt lat="46.73507" lon="-1.99008">
        <ele>14.7</ele>
        <time>2025-01-20T09:15:48.456Z</time>
      </trkpt>
      <trkpt lat="46.73506" lon="-1.99007">
        <ele>14.7</ele>
        <time>2025-01-20T09:15:49.456Z</time>
      </trkpt>
      <trkpt lat="46.73505" lon="-1.99006">
        <ele>14.8</ele>
        <time>2025-01-20T09:15:50.456Z</time>
      </trkpt>
      <trkpt lat="46.73505" lon="-1.99005">
        <ele>14.8</ele>
        <time>2025-01-20T09:15:51.456Z</time>
      </trkpt>
      <trkpt lat="46.73504" lon="-1.99004">
        <ele>14.8</ele>
        <time>2025-01-20T09:15:52.456Z</time>
      </trkpt>
      <trkpt lat="46.73502" lon="-1.99002">
        <ele>14.9</ele>
        <time>2025-01-20T09:15:53.455Z</time>
      </trkpt>
      <trkpt lat="46.73501" lon="-1.99">
        <ele>15</ele>
        <time>2025-01-20T09:15:54.455Z</time>
      </trkpt>
      <trkpt lat="46.735" lon="-1.98999">
        <ele>14.9</ele>
        <time>2025-01-20T09:15:55.455Z</time>
      </trkpt>
      <trkpt lat="46.73499" lon="-1.98998">
        <ele>14.7</ele>
        <time>2025-01-20T09:15:56.455Z</time>
      </trkpt>
      <trkpt lat="46.73498" lon="-1.98997">
        <ele>14.5</ele>
        <time>2025-01-20T09:15:57.455Z</time>
      </trkpt>
      <trkpt lat="46.73497" lon="-1.98997">
        <ele>14.4</ele>
        <time>2025-01-20T09:15:58.455Z</time>
      </trkpt>
      <trkpt lat="46.73495" lon="-1.98996">
        <ele>14.2</ele>
        <time>2025-01-20T09:15:59.455Z</time>
      </trkpt>
      <trkpt lat="46.73494" lon="-1.98995">
        <ele>14.1</ele>
        <time>2025-01-20T09:16:00.456Z</time>
      </trkpt>
      <trkpt lat="46.73493" lon="-1.98994">
        <ele>14</ele>
        <time>2025-01-20T09:16:01.456Z</time>
      </trkpt>
      <trkpt lat="46.73492" lon="-1.98994">
        <ele>13.9</ele>
        <time>2025-01-20T09:16:02.456Z</time>
      </trkpt>
      <trkpt lat="46.73491" lon="-1.98993">
        <ele>13.8</ele>
        <time>2025-01-20T09:16:03.456Z</time>
      </trkpt>
      <trkpt lat="46.73489" lon="-1.98992">
        <ele>13.7</ele>
        <time>2025-01-20T09:16:04.456Z</time>
      </trkpt>
      <trkpt lat="46.73488" lon="-1.9899">
        <ele>13.7</ele>
        <time>2025-01-20T09:16:05.456Z</time>
      </trkpt>
      <trkpt lat="46.73487" lon="-1.98989">
        <ele>13.7</ele>
        <time>2025-01-20T09:16:06.455Z</time>
      </trkpt>
      <trkpt lat="46.73486" lon="-1.98988">
        <ele>13.7</ele>
        <time>2025-01-20T09:16:07.455Z</time>
      </trkpt>
      <trkpt lat="46.73485" lon="-1.98987">
        <ele>13.7</ele>
        <time>2025-01-20T09:16:08.456Z</time>
      </trkpt>
      <trkpt lat="46.73484" lon="-1.98986">
        <ele>13.8</ele>
        <time>2025-01-20T09:16:09.456Z</time>
      </trkpt>
      <trkpt lat="46.73483" lon="-1.98984">
        <ele>13.9</ele>
        <time>2025-01-20T09:16:10.455Z</time>
      </trkpt>
      <trkpt lat="46.73483" lon="-1.98983">
        <ele>13.9</ele>
        <time>2025-01-20T09:16:11.456Z</time>
      </trkpt>
      <trkpt lat="46.73482" lon="-1.98982">
        <ele>14.1</ele>
        <time>2025-01-20T09:16:12.456Z</time>
      </trkpt>
      <trkpt lat="46.73481" lon="-1.98981">
        <ele>14.2</ele>
        <time>2025-01-20T09:16:13.456Z</time>
      </trkpt>
      <trkpt lat="46.7348" lon="-1.98979">
        <ele>14.4</ele>
        <time>2025-01-20T09:16:14.456Z</time>
      </trkpt>
      <trkpt lat="46.7348" lon="-1.98977">
        <ele>14.5</ele>
        <time>2025-01-20T09:16:15.455Z</time>
      </trkpt>
      <trkpt lat="46.73479" lon="-1.98975">
        <ele>14.8</ele>
        <time>2025-01-20T09:16:16.456Z</time>
      </trkpt>
      <trkpt lat="46.73478" lon="-1.98974">
        <ele>15</ele>
        <time>2025-01-20T09:16:17.456Z</time>
      </trkpt>
      <trkpt lat="46.73478" lon="-1.98972">
        <ele>15.2</ele>
        <time>2025-01-20T09:16:18.456Z</time>
      </trkpt>
      <trkpt lat="46.73477" lon="-1.98971">
        <ele>15.2</ele>
        <time>2025-01-20T09:16:19.456Z</time>
      </trkpt>
      <trkpt lat="46.73476" lon="-1.9897">
        <ele>15.3</ele>
        <time>2025-01-20T09:16:20.456Z</time>
      </trkpt>
      <trkpt lat="46.73476" lon="-1.98968">
        <ele>15.2</ele>
        <time>2025-01-20T09:16:21.455Z</time>
      </trkpt>
      <trkpt lat="46.73475" lon="-1.98966">
        <ele>15.2</ele>
        <time>2025-01-20T09:16:22.455Z</time>
      </trkpt>
      <trkpt lat="46.73474" lon="-1.98965">
        <ele>15.2</ele>
        <time>2025-01-20T09:16:23.456Z</time>
      </trkpt>
      <trkpt lat="46.73473" lon="-1.98963">
        <ele>15.2</ele>
        <time>2025-01-20T09:16:24.456Z</time>
      </trkpt>
      <trkpt lat="46.73472" lon="-1.98961">
        <ele>15.2</ele>
        <time>2025-01-20T09:16:25.455Z</time>
      </trkpt>
      <trkpt lat="46.73471" lon="-1.9896">
        <ele>15.1</ele>
        <time>2025-01-20T09:16:26.455Z</time>
      </trkpt>
      <trkpt lat="46.7347" lon="-1.98958">
        <ele>14.9</ele>
        <time>2025-01-20T09:16:27.456Z</time>
      </trkpt>
      <trkpt lat="46.73469" lon="-1.98957">
        <ele>14.9</ele>
        <time>2025-01-20T09:16:28.456Z</time>
      </trkpt>
      <trkpt lat="46.73468" lon="-1.98955">
        <ele>14.8</ele>
        <time>2025-01-20T09:16:29.456Z</time>
      </trkpt>
      <trkpt lat="46.73467" lon="-1.98954">
        <ele>14.7</ele>
        <time>2025-01-20T09:16:30.456Z</time>
      </trkpt>
      <trkpt lat="46.73466" lon="-1.98953">
        <ele>14.7</ele>
        <time>2025-01-20T09:16:31.456Z</time>
      </trkpt>
      <trkpt lat="46.73465" lon="-1.98952">
        <ele>14.7</ele>
        <time>2025-01-20T09:16:32.455Z</time>
      </trkpt>
      <trkpt lat="46.73465" lon="-1.98951">
        <ele>14.7</ele>
        <time>2025-01-20T09:16:33.456Z</time>
      </trkpt>
      <trkpt lat="46.73464" lon="-1.9895">
        <ele>14.7</ele>
        <time>2025-01-20T09:16:34.455Z</time>
      </trkpt>
      <trkpt lat="46.73464" lon="-1.98948">
        <ele>14.7</ele>
        <time>2025-01-20T09:16:35.456Z</time>
      </trkpt>
      <trkpt lat="46.73463" lon="-1.98947">
        <ele>14.7</ele>
        <time>2025-01-20T09:16:36.456Z</time>
      </trkpt>
      <trkpt lat="46.73462" lon="-1.98946">
        <ele>14.7</ele>
        <time>2025-01-20T09:16:37.456Z</time>
      </trkpt>
      <trkpt lat="46.73461" lon="-1.98945">
        <ele>14.8</ele>
        <time>2025-01-20T09:16:38.456Z</time>
      </trkpt>
      <trkpt lat="46.7346" lon="-1.98943">
        <ele>14.8</ele>
        <time>2025-01-20T09:16:39.455Z</time>
      </trkpt>
      <trkpt lat="46.73459" lon="-1.98942">
        <ele>14.9</ele>
        <time>2025-01-20T09:16:40.455Z</time>
      </trkpt>
      <trkpt lat="46.73459" lon="-1.9894">
        <ele>14.8</ele>
        <time>2025-01-20T09:16:41.456Z</time>
      </trkpt>
      <trkpt lat="46.73458" lon="-1.98939">
        <ele>14.8</ele>
        <time>2025-01-20T09:16:42.456Z</time>
      </trkpt>
      <trkpt lat="46.73458" lon="-1.98937">
        <ele>14.8</ele>
        <time>2025-01-20T09:16:43.456Z</time>
      </trkpt>
      <trkpt lat="46.73457" lon="-1.98936">
        <ele>14.9</ele>
        <time>2025-01-20T09:16:44.456Z</time>
      </trkpt>
      <trkpt lat="46.73457" lon="-1.98934">
        <ele>14.8</ele>
        <time>2025-01-20T09:16:45.456Z</time>
      </trkpt>
      <trkpt lat="46.73457" lon="-1.98933">
        <ele>14.8</ele>
        <time>2025-01-20T09:16:46.455Z</time>
      </trkpt>
      <trkpt lat="46.73456" lon="-1.98932">
        <ele>14.9</ele>
        <time>2025-01-20T09:16:47.455Z</time>
      </trkpt>
      <trkpt lat="46.73456" lon="-1.9893">
        <ele>14.8</ele>
        <time>2025-01-20T09:16:48.455Z</time>
      </trkpt>
      <trkpt lat="46.73455" lon="-1.98929">
        <ele>15</ele>
        <time>2025-01-20T09:16:49.456Z</time>
      </trkpt>
      <trkpt lat="46.73454" lon="-1.98927">
        <ele>15.1</ele>
        <time>2025-01-20T09:16:50.455Z</time>
      </trkpt>
      <trkpt lat="46.73453" lon="-1.98926">
        <ele>15.2</ele>
        <time>2025-01-20T09:16:51.455Z</time>
      </trkpt>
      <trkpt lat="46.73452" lon="-1.98925">
        <ele>15.4</ele>
        <time>2025-01-20T09:16:52.455Z</time>
      </trkpt>
      <trkpt lat="46.7345" lon="-1.98924">
        <ele>15.7</ele>
        <time>2025-01-20T09:16:53.455Z</time>
      </trkpt>
      <trkpt lat="46.73449" lon="-1.98923">
        <ele>15.9</ele>
        <time>2025-01-20T09:16:54.456Z</time>
      </trkpt>
      <trkpt lat="46.73447" lon="-1.98922">
        <ele>16.3</ele>
        <time>2025-01-20T09:16:55.455Z</time>
      </trkpt>
      <trkpt lat="46.73446" lon="-1.98921">
        <ele>16.5</ele>
        <time>2025-01-20T09:16:56.456Z</time>
      </trkpt>
      <trkpt lat="46.73444" lon="-1.98921">
        <ele>16.9</ele>
        <time>2025-01-20T09:16:57.455Z</time>
      </trkpt>
      <trkpt lat="46.73442" lon="-1.98921">
        <ele>16.9</ele>
        <time>2025-01-20T09:16:58.456Z</time>
      </trkpt>
      <trkpt lat="46.73441" lon="-1.9892">
        <ele>16.9</ele>
        <time>2025-01-20T09:16:59.456Z</time>
      </trkpt>
      <trkpt lat="46.73439" lon="-1.98919">
        <ele>17</ele>
        <time>2025-01-20T09:17:00.456Z</time>
      </trkpt>
      <trkpt lat="46.73438" lon="-1.98919">
        <ele>17</ele>
        <time>2025-01-20T09:17:01.455Z</time>
      </trkpt>
      <trkpt lat="46.73437" lon="-1.9892">
        <ele>17</ele>
        <time>2025-01-20T09:17:02.456Z</time>
      </trkpt>
      <trkpt lat="46.73435" lon="-1.9892">
        <ele>17</ele>
        <time>2025-01-20T09:17:03.456Z</time>
      </trkpt>
      <trkpt lat="46.73434" lon="-1.9892">
        <ele>17</ele>
        <time>2025-01-20T09:17:04.455Z</time>
      </trkpt>
      <trkpt lat="46.73432" lon="-1.9892">
        <ele>17</ele>
        <time>2025-01-20T09:17:05.455Z</time>
      </trkpt>
      <trkpt lat="46.73431" lon="-1.9892">
        <ele>17.1</ele>
        <time>2025-01-20T09:17:06.456Z</time>
      </trkpt>
      <trkpt lat="46.73429" lon="-1.9892">
        <ele>17.1</ele>
        <time>2025-01-20T09:17:07.455Z</time>
      </trkpt>
      <trkpt lat="46.73428" lon="-1.9892">
        <ele>17.1</ele>
        <time>2025-01-20T09:17:08.455Z</time>
      </trkpt>
      <trkpt lat="46.73426" lon="-1.98921">
        <ele>17.2</ele>
        <time>2025-01-20T09:17:09.455Z</time>
      </trkpt>
      <trkpt lat="46.73425" lon="-1.98922">
        <ele>17.2</ele>
        <time>2025-01-20T09:17:10.456Z</time>
      </trkpt>
      <trkpt lat="46.73424" lon="-1.98923">
        <ele>17.3</ele>
        <time>2025-01-20T09:17:11.455Z</time>
      </trkpt>
      <trkpt lat="46.73422" lon="-1.98924">
        <ele>17.4</ele>
        <time>2025-01-20T09:17:12.456Z</time>
      </trkpt>
      <trkpt lat="46.73421" lon="-1.98925">
        <ele>17.5</ele>
        <time>2025-01-20T09:17:13.455Z</time>
      </trkpt>
      <trkpt lat="46.73419" lon="-1.98926">
        <ele>17.6</ele>
        <time>2025-01-20T09:17:14.456Z</time>
      </trkpt>
      <trkpt lat="46.73418" lon="-1.98927">
        <ele>17.7</ele>
        <time>2025-01-20T09:17:15.455Z</time>
      </trkpt>
      <trkpt lat="46.73416" lon="-1.98928">
        <ele>17.7</ele>
        <time>2025-01-20T09:17:16.455Z</time>
      </trkpt>
      <trkpt lat="46.73416" lon="-1.9893">
        <ele>17.9</ele>
        <time>2025-01-20T09:17:17.455Z</time>
      </trkpt>
      <trkpt lat="46.73415" lon="-1.98931">
        <ele>17.9</ele>
        <time>2025-01-20T09:17:18.455Z</time>
      </trkpt>
      <trkpt lat="46.73414" lon="-1.98932">
        <ele>17.8</ele>
        <time>2025-01-20T09:17:19.456Z</time>
      </trkpt>
      <trkpt lat="46.73413" lon="-1.98932">
        <ele>17.7</ele>
        <time>2025-01-20T09:17:20.456Z</time>
      </trkpt>
      <trkpt lat="46.73412" lon="-1.98933">
        <ele>17.7</ele>
        <time>2025-01-20T09:17:21.456Z</time>
      </trkpt>
      <trkpt lat="46.73411" lon="-1.98933">
        <ele>17.6</ele>
        <time>2025-01-20T09:17:22.456Z</time>
      </trkpt>
      <trkpt lat="46.7341" lon="-1.98932">
        <ele>17.4</ele>
        <time>2025-01-20T09:17:23.455Z</time>
      </trkpt>
      <trkpt lat="46.7341" lon="-1.98932">
        <ele>17.4</ele>
        <time>2025-01-20T09:17:24.455Z</time>
      </trkpt>
      <trkpt lat="46.73409" lon="-1.9893">
        <ele>17.1</ele>
        <time>2025-01-20T09:17:25.455Z</time>
      </trkpt>
      <trkpt lat="46.73408" lon="-1.98929">
        <ele>17</ele>
        <time>2025-01-20T09:17:26.455Z</time>
      </trkpt>
      <trkpt lat="46.73406" lon="-1.98927">
        <ele>16.6</ele>
        <time>2025-01-20T09:17:27.456Z</time>
      </trkpt>
      <trkpt lat="46.73405" lon="-1.98926">
        <ele>16.4</ele>
        <time>2025-01-20T09:17:28.456Z</time>
      </trkpt>
      <trkpt lat="46.73404" lon="-1.98924">
        <ele>16.2</ele>
        <time>2025-01-20T09:17:29.456Z</time>
      </trkpt>
      <trkpt lat="46.73403" lon="-1.98923">
        <ele>16</ele>
        <time>2025-01-20T09:17:30.456Z</time>
      </trkpt>
      <trkpt lat="46.73402" lon="-1.98922">
        <ele>15.8</ele>
        <time>2025-01-20T09:17:31.455Z</time>
      </trkpt>
      <trkpt lat="46.73401" lon="-1.98921">
        <ele>15.6</ele>
        <time>2025-01-20T09:17:32.455Z</time>
      </trkpt>
      <trkpt lat="46.734" lon="-1.98919">
        <ele>15.4</ele>
        <time>2025-01-20T09:17:33.455Z</time>
      </trkpt>
      <trkpt lat="46.734" lon="-1.98917">
        <ele>15.2</ele>
        <time>2025-01-20T09:17:34.455Z</time>
      </trkpt>
      <trkpt lat="46.73399" lon="-1.98915">
        <ele>14.9</ele>
        <time>2025-01-20T09:17:35.456Z</time>
      </trkpt>
      <trkpt lat="46.73398" lon="-1.98914">
        <ele>14.7</ele>
        <time>2025-01-20T09:17:36.456Z</time>
      </trkpt>
      <trkpt lat="46.73398" lon="-1.98913">
        <ele>14.6</ele>
        <time>2025-01-20T09:17:37.456Z</time>
      </trkpt>
      <trkpt lat="46.73397" lon="-1.98911">
        <ele>14.3</ele>
        <time>2025-01-20T09:17:38.455Z</time>
      </trkpt>
      <trkpt lat="46.73397" lon="-1.9891">
        <ele>14.2</ele>
        <time>2025-01-20T09:17:39.455Z</time>
      </trkpt>
      <trkpt lat="46.73396" lon="-1.98908">
        <ele>13.9</ele>
        <time>2025-01-20T09:17:40.455Z</time>
      </trkpt>
      <trkpt lat="46.73395" lon="-1.98906">
        <ele>13.6</ele>
        <time>2025-01-20T09:17:41.456Z</time>
      </trkpt>
      <trkpt lat="46.73395" lon="-1.98905">
        <ele>13.5</ele>
        <time>2025-01-20T09:17:42.456Z</time>
      </trkpt>
      <trkpt lat="46.73394" lon="-1.98903">
        <ele>13.3</ele>
        <time>2025-01-20T09:17:43.456Z</time>
      </trkpt>
      <trkpt lat="46.73393" lon="-1.98902">
        <ele>13.2</ele>
        <time>2025-01-20T09:17:44.456Z</time>
      </trkpt>
      <trkpt lat="46.73393" lon="-1.989">
        <ele>13</ele>
        <time>2025-01-20T09:17:45.456Z</time>
      </trkpt>
      <trkpt lat="46.73392" lon="-1.98898">
        <ele>12.8</ele>
        <time>2025-01-20T09:17:46.455Z</time>
      </trkpt>
      <trkpt lat="46.73391" lon="-1.98897">
        <ele>12.7</ele>
        <time>2025-01-20T09:17:47.455Z</time>
      </trkpt>
      <trkpt lat="46.7339" lon="-1.98895">
        <ele>12.5</ele>
        <time>2025-01-20T09:17:48.455Z</time>
      </trkpt>
      <trkpt lat="46.7339" lon="-1.98893">
        <ele>12.3</ele>
        <time>2025-01-20T09:17:49.456Z</time>
      </trkpt>
      <trkpt lat="46.7339" lon="-1.98891">
        <ele>12.2</ele>
        <time>2025-01-20T09:17:50.455Z</time>
      </trkpt>
      <trkpt lat="46.7339" lon="-1.98889">
        <ele>12</ele>
        <time>2025-01-20T09:17:51.456Z</time>
      </trkpt>
      <trkpt lat="46.73389" lon="-1.98888">
        <ele>11.9</ele>
        <time>2025-01-20T09:17:52.456Z</time>
      </trkpt>
      <trkpt lat="46.73389" lon="-1.98886">
        <ele>11.7</ele>
        <time>2025-01-20T09:17:53.456Z</time>
      </trkpt>
      <trkpt lat="46.73389" lon="-1.98884">
        <ele>11.5</ele>
        <time>2025-01-20T09:17:54.455Z</time>
      </trkpt>
      <trkpt lat="46.73389" lon="-1.98882">
        <ele>11.3</ele>
        <time>2025-01-20T09:17:55.455Z</time>
      </trkpt>
      <trkpt lat="46.73388" lon="-1.9888">
        <ele>11</ele>
        <time>2025-01-20T09:17:56.455Z</time>
      </trkpt>
      <trkpt lat="46.73388" lon="-1.98878">
        <ele>10.8</ele>
        <time>2025-01-20T09:17:57.456Z</time>
      </trkpt>
      <trkpt lat="46.73387" lon="-1.98877">
        <ele>10.6</ele>
        <time>2025-01-20T09:17:58.456Z</time>
      </trkpt>
      <trkpt lat="46.73387" lon="-1.98875">
        <ele>10.4</ele>
        <time>2025-01-20T09:17:59.456Z</time>
      </trkpt>
      <trkpt lat="46.73386" lon="-1.98873">
        <ele>10.1</ele>
        <time>2025-01-20T09:18:00.456Z</time>
      </trkpt>
      <trkpt lat="46.73385" lon="-1.98871">
        <ele>9.8</ele>
        <time>2025-01-20T09:18:01.456Z</time>
      </trkpt>
      <trkpt lat="46.73385" lon="-1.98869">
        <ele>9.6</ele>
        <time>2025-01-20T09:18:02.455Z</time>
      </trkpt>
      <trkpt lat="46.73384" lon="-1.98868">
        <ele>9.4</ele>
        <time>2025-01-20T09:18:03.455Z</time>
      </trkpt>
      <trkpt lat="46.73385" lon="-1.98867">
        <ele>9.4</ele>
        <time>2025-01-20T09:18:04.455Z</time>
      </trkpt>
      <trkpt lat="46.73385" lon="-1.98865">
        <ele>9.2</ele>
        <time>2025-01-20T09:18:05.456Z</time>
      </trkpt>
      <trkpt lat="46.73385" lon="-1.98863">
        <ele>8.9</ele>
        <time>2025-01-20T09:18:06.456Z</time>
      </trkpt>
      <trkpt lat="46.73385" lon="-1.98861">
        <ele>8.7</ele>
        <time>2025-01-20T09:18:07.456Z</time>
      </trkpt>
      <trkpt lat="46.73386" lon="-1.9886">
        <ele>8.7</ele>
        <time>2025-01-20T09:18:08.455Z</time>
      </trkpt>
      <trkpt lat="46.73386" lon="-1.98858">
        <ele>8.6</ele>
        <time>2025-01-20T09:18:09.456Z</time>
      </trkpt>
      <trkpt lat="46.73387" lon="-1.98857">
        <ele>8.6</ele>
        <time>2025-01-20T09:18:10.455Z</time>
      </trkpt>
      <trkpt lat="46.73388" lon="-1.98855">
        <ele>8.5</ele>
        <time>2025-01-20T09:18:11.455Z</time>
      </trkpt>
      <trkpt lat="46.73388" lon="-1.98854">
        <ele>8.4</ele>
        <time>2025-01-20T09:18:12.456Z</time>
      </trkpt>
      <trkpt lat="46.73389" lon="-1.98852">
        <ele>8.3</ele>
        <time>2025-01-20T09:18:13.456Z</time>
      </trkpt>
      <trkpt lat="46.7339" lon="-1.98851">
        <ele>8.3</ele>
        <time>2025-01-20T09:18:14.455Z</time>
      </trkpt>
      <trkpt lat="46.7339" lon="-1.9885">
        <ele>8.2</ele>
        <time>2025-01-20T09:18:15.455Z</time>
      </trkpt>
      <trkpt lat="46.73391" lon="-1.98849">
        <ele>8.1</ele>
        <time>2025-01-20T09:18:16.455Z</time>
      </trkpt>
      <trkpt lat="46.73392" lon="-1.98848">
        <ele>8.1</ele>
        <time>2025-01-20T09:18:17.455Z</time>
      </trkpt>
      <trkpt lat="46.73392" lon="-1.98846">
        <ele>7.9</ele>
        <time>2025-01-20T09:18:18.456Z</time>
      </trkpt>
      <trkpt lat="46.73392" lon="-1.98844">
        <ele>7.8</ele>
        <time>2025-01-20T09:18:19.456Z</time>
      </trkpt>
      <trkpt lat="46.73392" lon="-1.98842">
        <ele>7.6</ele>
        <time>2025-01-20T09:18:20.456Z</time>
      </trkpt>
      <trkpt lat="46.73392" lon="-1.9884">
        <ele>7.5</ele>
        <time>2025-01-20T09:18:21.456Z</time>
      </trkpt>
      <trkpt lat="46.73392" lon="-1.98837">
        <ele>7.3</ele>
        <time>2025-01-20T09:18:22.456Z</time>
      </trkpt>
      <trkpt lat="46.73391" lon="-1.98835">
        <ele>7.1</ele>
        <time>2025-01-20T09:18:23.455Z</time>
      </trkpt>
      <trkpt lat="46.73392" lon="-1.98834">
        <ele>7</ele>
        <time>2025-01-20T09:18:24.455Z</time>
      </trkpt>
      <trkpt lat="46.73393" lon="-1.98832">
        <ele>7.1</ele>
        <time>2025-01-20T09:18:25.455Z</time>
      </trkpt>
      <trkpt lat="46.73393" lon="-1.98831">
        <ele>7.2</ele>
        <time>2025-01-20T09:18:26.456Z</time>
      </trkpt>
      <trkpt lat="46.73393" lon="-1.98829">
        <ele>7.4</ele>
        <time>2025-01-20T09:18:27.455Z</time>
      </trkpt>
      <trkpt lat="46.73393" lon="-1.98827">
        <ele>7.5</ele>
        <time>2025-01-20T09:18:28.456Z</time>
      </trkpt>
      <trkpt lat="46.73393" lon="-1.98826">
        <ele>7.6</ele>
        <time>2025-01-20T09:18:29.455Z</time>
      </trkpt>
      <trkpt lat="46.73392" lon="-1.98825">
        <ele>7.7</ele>
        <time>2025-01-20T09:18:30.455Z</time>
      </trkpt>
      <trkpt lat="46.73391" lon="-1.98823">
        <ele>8</ele>
        <time>2025-01-20T09:18:31.456Z</time>
      </trkpt>
      <trkpt lat="46.73391" lon="-1.98822">
        <ele>8.1</ele>
        <time>2025-01-20T09:18:32.456Z</time>
      </trkpt>
      <trkpt lat="46.73391" lon="-1.9882">
        <ele>8.3</ele>
        <time>2025-01-20T09:18:33.456Z</time>
      </trkpt>
      <trkpt lat="46.73391" lon="-1.98819">
        <ele>8.4</ele>
        <time>2025-01-20T09:18:34.456Z</time>
      </trkpt>
      <trkpt lat="46.73391" lon="-1.98817">
        <ele>8.5</ele>
        <time>2025-01-20T09:18:35.455Z</time>
      </trkpt>
      <trkpt lat="46.73391" lon="-1.98816">
        <ele>8.6</ele>
        <time>2025-01-20T09:18:36.455Z</time>
      </trkpt>
      <trkpt lat="46.73391" lon="-1.98815">
        <ele>8.7</ele>
        <time>2025-01-20T09:18:37.455Z</time>
      </trkpt>
      <trkpt lat="46.73391" lon="-1.98814">
        <ele>8.8</ele>
        <time>2025-01-20T09:18:38.455Z</time>
      </trkpt>
      <trkpt lat="46.73391" lon="-1.98813">
        <ele>8.9</ele>
        <time>2025-01-20T09:18:39.456Z</time>
      </trkpt>
      <trkpt lat="46.73392" lon="-1.98811">
        <ele>9</ele>
        <time>2025-01-20T09:18:40.456Z</time>
      </trkpt>
      <trkpt lat="46.73393" lon="-1.98809">
        <ele>9</ele>
        <time>2025-01-20T09:18:41.456Z</time>
      </trkpt>
      <trkpt lat="46.73393" lon="-1.98807">
        <ele>9.1</ele>
        <time>2025-01-20T09:18:42.455Z</time>
      </trkpt>
      <trkpt lat="46.73392" lon="-1.98805">
        <ele>9.5</ele>
        <time>2025-01-20T09:18:43.456Z</time>
      </trkpt>
      <trkpt lat="46.73391" lon="-1.98804">
        <ele>9.7</ele>
        <time>2025-01-20T09:18:44.456Z</time>
      </trkpt>
      <trkpt lat="46.73391" lon="-1.98803">
        <ele>9.7</ele>
        <time>2025-01-20T09:18:45.456Z</time>
      </trkpt>
      <trkpt lat="46.7339" lon="-1.98802">
        <ele>9.9</ele>
        <time>2025-01-20T09:18:46.455Z</time>
      </trkpt>
      <trkpt lat="46.7339" lon="-1.988">
        <ele>10</ele>
        <time>2025-01-20T09:18:47.456Z</time>
      </trkpt>
      <trkpt lat="46.7339" lon="-1.98798">
        <ele>10.1</ele>
        <time>2025-01-20T09:18:48.455Z</time>
      </trkpt>
      <trkpt lat="46.7339" lon="-1.98797">
        <ele>10.1</ele>
        <time>2025-01-20T09:18:49.455Z</time>
      </trkpt>
      <trkpt lat="46.7339" lon="-1.98795">
        <ele>10.2</ele>
        <time>2025-01-20T09:18:50.455Z</time>
      </trkpt>
      <trkpt lat="46.7339" lon="-1.98794">
        <ele>10.2</ele>
        <time>2025-01-20T09:18:51.456Z</time>
      </trkpt>
      <trkpt lat="46.7339" lon="-1.98792">
        <ele>10.3</ele>
        <time>2025-01-20T09:18:52.456Z</time>
      </trkpt>
      <trkpt lat="46.7339" lon="-1.9879">
        <ele>10.3</ele>
        <time>2025-01-20T09:18:53.456Z</time>
      </trkpt>
      <trkpt lat="46.7339" lon="-1.98788">
        <ele>10.4</ele>
        <time>2025-01-20T09:18:54.456Z</time>
      </trkpt>
      <trkpt lat="46.73389" lon="-1.98787">
        <ele>10.6</ele>
        <time>2025-01-20T09:18:55.456Z</time>
      </trkpt>
      <trkpt lat="46.73389" lon="-1.98784">
        <ele>10.8</ele>
        <time>2025-01-20T09:18:56.455Z</time>
      </trkpt>
      <trkpt lat="46.73389" lon="-1.98782">
        <ele>10.8</ele>
        <time>2025-01-20T09:18:57.456Z</time>
      </trkpt>
      <trkpt lat="46.73389" lon="-1.9878">
        <ele>10.9</ele>
        <time>2025-01-20T09:18:58.456Z</time>
      </trkpt>
      <trkpt lat="46.73388" lon="-1.98778">
        <ele>10.8</ele>
        <time>2025-01-20T09:18:59.456Z</time>
      </trkpt>
      <trkpt lat="46.73388" lon="-1.98777">
        <ele>10.8</ele>
        <time>2025-01-20T09:19:00.456Z</time>
      </trkpt>
      <trkpt lat="46.73388" lon="-1.98775">
        <ele>10.9</ele>
        <time>2025-01-20T09:19:01.456Z</time>
      </trkpt>
      <trkpt lat="46.73387" lon="-1.98773">
        <ele>10.7</ele>
        <time>2025-01-20T09:19:02.455Z</time>
      </trkpt>
      <trkpt lat="46.73387" lon="-1.98772">
        <ele>10.7</ele>
        <time>2025-01-20T09:19:03.455Z</time>
      </trkpt>
      <trkpt lat="46.73386" lon="-1.9877">
        <ele>10.6</ele>
        <time>2025-01-20T09:19:04.456Z</time>
      </trkpt>
      <trkpt lat="46.73386" lon="-1.98768">
        <ele>10.6</ele>
        <time>2025-01-20T09:19:05.455Z</time>
      </trkpt>
      <trkpt lat="46.73385" lon="-1.98766">
        <ele>10.4</ele>
        <time>2025-01-20T09:19:06.456Z</time>
      </trkpt>
      <trkpt lat="46.73385" lon="-1.98763">
        <ele>10.6</ele>
        <time>2025-01-20T09:19:07.455Z</time>
      </trkpt>
      <trkpt lat="46.73385" lon="-1.98762">
        <ele>10.6</ele>
        <time>2025-01-20T09:19:08.455Z</time>
      </trkpt>
      <trkpt lat="46.73384" lon="-1.9876">
        <ele>10.4</ele>
        <time>2025-01-20T09:19:09.455Z</time>
      </trkpt>
      <trkpt lat="46.73384" lon="-1.98759">
        <ele>10.4</ele>
        <time>2025-01-20T09:19:10.455Z</time>
      </trkpt>
      <trkpt lat="46.73384" lon="-1.98757">
        <ele>10.5</ele>
        <time>2025-01-20T09:19:11.456Z</time>
      </trkpt>
      <trkpt lat="46.73384" lon="-1.98755">
        <ele>10.6</ele>
        <time>2025-01-20T09:19:12.456Z</time>
      </trkpt>
      <trkpt lat="46.73384" lon="-1.98753">
        <ele>10.7</ele>
        <time>2025-01-20T09:19:13.456Z</time>
      </trkpt>
      <trkpt lat="46.73384" lon="-1.98752">
        <ele>10.7</ele>
        <time>2025-01-20T09:19:14.455Z</time>
      </trkpt>
      <trkpt lat="46.73385" lon="-1.9875">
        <ele>11</ele>
        <time>2025-01-20T09:19:15.455Z</time>
      </trkpt>
      <trkpt lat="46.73385" lon="-1.98749">
        <ele>11</ele>
        <time>2025-01-20T09:19:16.456Z</time>
      </trkpt>
      <trkpt lat="46.73385" lon="-1.98748">
        <ele>10.9</ele>
        <time>2025-01-20T09:19:17.456Z</time>
      </trkpt>
      <trkpt lat="46.73385" lon="-1.98746">
        <ele>10.8</ele>
        <time>2025-01-20T09:19:18.456Z</time>
      </trkpt>
      <trkpt lat="46.73385" lon="-1.98744">
        <ele>10.7</ele>
        <time>2025-01-20T09:19:19.456Z</time>
      </trkpt>
      <trkpt lat="46.73384" lon="-1.98743">
        <ele>10.4</ele>
        <time>2025-01-20T09:19:20.455Z</time>
      </trkpt>
      <trkpt lat="46.73384" lon="-1.98742">
        <ele>10.4</ele>
        <time>2025-01-20T09:19:21.455Z</time>
      </trkpt>
      <trkpt lat="46.73384" lon="-1.9874">
        <ele>10.3</ele>
        <time>2025-01-20T09:19:22.455Z</time>
      </trkpt>
      <trkpt lat="46.73385" lon="-1.98738">
        <ele>10.4</ele>
        <time>2025-01-20T09:19:23.455Z</time>
      </trkpt>
      <trkpt lat="46.73385" lon="-1.98736">
        <ele>10.3</ele>
        <time>2025-01-20T09:19:24.455Z</time>
      </trkpt>
      <trkpt lat="46.73386" lon="-1.98735">
        <ele>10.4</ele>
        <time>2025-01-20T09:19:25.456Z</time>
      </trkpt>
      <trkpt lat="46.73386" lon="-1.98733">
        <ele>10.3</ele>
        <time>2025-01-20T09:19:26.455Z</time>
      </trkpt>
      <trkpt lat="46.73386" lon="-1.9873">
        <ele>10.1</ele>
        <time>2025-01-20T09:19:27.455Z</time>
      </trkpt>
      <trkpt lat="46.73386" lon="-1.98728">
        <ele>10</ele>
        <time>2025-01-20T09:19:28.456Z</time>
      </trkpt>
      <trkpt lat="46.73385" lon="-1.98726">
        <ele>9.8</ele>
        <time>2025-01-20T09:19:29.456Z</time>
      </trkpt>
      <trkpt lat="46.73385" lon="-1.98724">
        <ele>9.7</ele>
        <time>2025-01-20T09:19:30.456Z</time>
      </trkpt>
      <trkpt lat="46.73384" lon="-1.9872">
        <ele>9.4</ele>
        <time>2025-01-20T09:19:31.455Z</time>
      </trkpt>
      <trkpt lat="46.73383" lon="-1.98718">
        <ele>9.2</ele>
        <time>2025-01-20T09:19:32.455Z</time>
      </trkpt>
      <trkpt lat="46.73382" lon="-1.98716">
        <ele>9</ele>
        <time>2025-01-20T09:19:33.456Z</time>
      </trkpt>
      <trkpt lat="46.73382" lon="-1.98714">
        <ele>8.9</ele>
        <time>2025-01-20T09:19:34.456Z</time>
      </trkpt>
      <trkpt lat="46.73383" lon="-1.98712">
        <ele>8.9</ele>
        <time>2025-01-20T09:19:35.456Z</time>
      </trkpt>
      <trkpt lat="46.73383" lon="-1.98711">
        <ele>8.8</ele>
        <time>2025-01-20T09:19:36.456Z</time>
      </trkpt>
      <trkpt lat="46.73383" lon="-1.9871">
        <ele>8.8</ele>
        <time>2025-01-20T09:19:37.456Z</time>
      </trkpt>
      <trkpt lat="46.73383" lon="-1.9871">
        <ele>8.8</ele>
        <time>2025-01-20T09:19:38.455Z</time>
      </trkpt>
      <trkpt lat="46.73382" lon="-1.98709">
        <ele>8.7</ele>
        <time>2025-01-20T09:19:39.455Z</time>
      </trkpt>
      <trkpt lat="46.73381" lon="-1.98708">
        <ele>8.6</ele>
        <time>2025-01-20T09:19:40.455Z</time>
      </trkpt>
      <trkpt lat="46.73381" lon="-1.98707">
        <ele>8.5</ele>
        <time>2025-01-20T09:19:41.456Z</time>
      </trkpt>
      <trkpt lat="46.73381" lon="-1.98706">
        <ele>8.5</ele>
        <time>2025-01-20T09:19:42.456Z</time>
      </trkpt>
      <trkpt lat="46.7338" lon="-1.98705">
        <ele>8.4</ele>
        <time>2025-01-20T09:19:43.455Z</time>
      </trkpt>
      <trkpt lat="46.7338" lon="-1.98704">
        <ele>8.4</ele>
        <time>2025-01-20T09:19:44.456Z</time>
      </trkpt>
      <trkpt lat="46.7338" lon="-1.98703">
        <ele>8.3</ele>
        <time>2025-01-20T09:19:45.456Z</time>
      </trkpt>
      <trkpt lat="46.73379" lon="-1.98701">
        <ele>8.2</ele>
        <time>2025-01-20T09:19:46.456Z</time>
      </trkpt>
      <trkpt lat="46.73379" lon="-1.98699">
        <ele>8.2</ele>
        <time>2025-01-20T09:19:47.456Z</time>
      </trkpt>
      <trkpt lat="46.73378" lon="-1.98698">
        <ele>8.1</ele>
        <time>2025-01-20T09:19:48.456Z</time>
      </trkpt>
      <trkpt lat="46.73378" lon="-1.98697">
        <ele>8.1</ele>
        <time>2025-01-20T09:19:49.456Z</time>
      </trkpt>
      <trkpt lat="46.73377" lon="-1.98695">
        <ele>8</ele>
        <time>2025-01-20T09:19:50.455Z</time>
      </trkpt>
      <trkpt lat="46.73376" lon="-1.98694">
        <ele>8</ele>
        <time>2025-01-20T09:19:51.456Z</time>
      </trkpt>
      <trkpt lat="46.73375" lon="-1.98692">
        <ele>8.1</ele>
        <time>2025-01-20T09:19:52.456Z</time>
      </trkpt>
      <trkpt lat="46.73374" lon="-1.98689">
        <ele>8.2</ele>
        <time>2025-01-20T09:19:53.456Z</time>
      </trkpt>
      <trkpt lat="46.73373" lon="-1.98687">
        <ele>8.3</ele>
        <time>2025-01-20T09:19:54.456Z</time>
      </trkpt>
      <trkpt lat="46.73372" lon="-1.98686">
        <ele>8.4</ele>
        <time>2025-01-20T09:19:55.456Z</time>
      </trkpt>
      <trkpt lat="46.73371" lon="-1.98685">
        <ele>8.5</ele>
        <time>2025-01-20T09:19:56.456Z</time>
      </trkpt>
      <trkpt lat="46.7337" lon="-1.98685">
        <ele>8.6</ele>
        <time>2025-01-20T09:19:57.456Z</time>
      </trkpt>
      <trkpt lat="46.73369" lon="-1.98684">
        <ele>8.7</ele>
        <time>2025-01-20T09:19:58.456Z</time>
      </trkpt>
      <trkpt lat="46.73369" lon="-1.98684">
        <ele>8.7</ele>
        <time>2025-01-20T09:19:59.455Z</time>
      </trkpt>
      <trkpt lat="46.73369" lon="-1.98684">
        <ele>8.7</ele>
        <time>2025-01-20T09:20:00.455Z</time>
      </trkpt>
      <trkpt lat="46.73369" lon="-1.98684">
        <ele>8.7</ele>
        <time>2025-01-20T09:20:01.455Z</time>
      </trkpt>
      <trkpt lat="46.7337" lon="-1.98683">
        <ele>8.7</ele>
        <time>2025-01-20T09:20:02.456Z</time>
      </trkpt>
      <trkpt lat="46.7337" lon="-1.98682">
        <ele>8.8</ele>
        <time>2025-01-20T09:20:03.455Z</time>
      </trkpt>
      <trkpt lat="46.7337" lon="-1.98681">
        <ele>8.8</ele>
        <time>2025-01-20T09:20:04.455Z</time>
      </trkpt>
      <trkpt lat="46.7337" lon="-1.98679">
        <ele>9</ele>
        <time>2025-01-20T09:20:05.455Z</time>
      </trkpt>
      <trkpt lat="46.7337" lon="-1.98677">
        <ele>9.1</ele>
        <time>2025-01-20T09:20:06.455Z</time>
      </trkpt>
      <trkpt lat="46.7337" lon="-1.98676">
        <ele>9.1</ele>
        <time>2025-01-20T09:20:07.456Z</time>
      </trkpt>
      <trkpt lat="46.73369" lon="-1.98674">
        <ele>9.4</ele>
        <time>2025-01-20T09:20:08.456Z</time>
      </trkpt>
      <trkpt lat="46.73368" lon="-1.98672">
        <ele>9.6</ele>
        <time>2025-01-20T09:20:09.456Z</time>
      </trkpt>
      <trkpt lat="46.73368" lon="-1.9867">
        <ele>9.8</ele>
        <time>2025-01-20T09:20:10.456Z</time>
      </trkpt>
      <trkpt lat="46.73367" lon="-1.98669">
        <ele>10</ele>
        <time>2025-01-20T09:20:11.455Z</time>
      </trkpt>
      <trkpt lat="46.73367" lon="-1.98668">
        <ele>10</ele>
        <time>2025-01-20T09:20:12.455Z</time>
      </trkpt>
      <trkpt lat="46.73366" lon="-1.98667">
        <ele>10.3</ele>
        <time>2025-01-20T09:20:13.455Z</time>
      </trkpt>
      <trkpt lat="46.73366" lon="-1.98666">
        <ele>10.3</ele>
        <time>2025-01-20T09:20:14.455Z</time>
      </trkpt>
      <trkpt lat="46.73365" lon="-1.98664">
        <ele>10.6</ele>
        <time>2025-01-20T09:20:15.455Z</time>
      </trkpt>
      <trkpt lat="46.73364" lon="-1.98663">
        <ele>10.8</ele>
        <time>2025-01-20T09:20:16.456Z</time>
      </trkpt>
      <trkpt lat="46.73364" lon="-1.98661">
        <ele>10.9</ele>
        <time>2025-01-20T09:20:17.455Z</time>
      </trkpt>
      <trkpt lat="46.73364" lon="-1.9866">
        <ele>11</ele>
        <time>2025-01-20T09:20:18.455Z</time>
      </trkpt>
      <trkpt lat="46.73364" lon="-1.98659">
        <ele>11.1</ele>
        <time>2025-01-20T09:20:19.455Z</time>
      </trkpt>
      <trkpt lat="46.73364" lon="-1.98658">
        <ele>11.1</ele>
        <time>2025-01-20T09:20:20.456Z</time>
      </trkpt>
      <trkpt lat="46.73364" lon="-1.98657">
        <ele>11.2</ele>
        <time>2025-01-20T09:20:21.456Z</time>
      </trkpt>
      <trkpt lat="46.73364" lon="-1.98655">
        <ele>11.3</ele>
        <time>2025-01-20T09:20:22.455Z</time>
      </trkpt>
      <trkpt lat="46.73363" lon="-1.98653">
        <ele>11.6</ele>
        <time>2025-01-20T09:20:23.456Z</time>
      </trkpt>
      <trkpt lat="46.73363" lon="-1.98651">
        <ele>11.8</ele>
        <time>2025-01-20T09:20:24.456Z</time>
      </trkpt>
      <trkpt lat="46.73363" lon="-1.98649">
        <ele>11.9</ele>
        <time>2025-01-20T09:20:25.455Z</time>
      </trkpt>
      <trkpt lat="46.73363" lon="-1.98648">
        <ele>12</ele>
        <time>2025-01-20T09:20:26.456Z</time>
      </trkpt>
      <trkpt lat="46.73363" lon="-1.98645">
        <ele>12.2</ele>
        <time>2025-01-20T09:20:27.455Z</time>
      </trkpt>
      <trkpt lat="46.73363" lon="-1.98643">
        <ele>12.3</ele>
        <time>2025-01-20T09:20:28.456Z</time>
      </trkpt>
      <trkpt lat="46.73364" lon="-1.98641">
        <ele>12.2</ele>
        <time>2025-01-20T09:20:29.456Z</time>
      </trkpt>
      <trkpt lat="46.73364" lon="-1.98638">
        <ele>12.3</ele>
        <time>2025-01-20T09:20:30.456Z</time>
      </trkpt>
      <trkpt lat="46.73363" lon="-1.98637">
        <ele>12.5</ele>
        <time>2025-01-20T09:20:31.456Z</time>
      </trkpt>
      <trkpt lat="46.73363" lon="-1.98635">
        <ele>12.5</ele>
        <time>2025-01-20T09:20:32.456Z</time>
      </trkpt>
      <trkpt lat="46.73362" lon="-1.98633">
        <ele>12.6</ele>
        <time>2025-01-20T09:20:33.455Z</time>
      </trkpt>
      <trkpt lat="46.73362" lon="-1.98632">
        <ele>12.6</ele>
        <time>2025-01-20T09:20:34.455Z</time>
      </trkpt>
      <trkpt lat="46.73361" lon="-1.9863">
        <ele>12.7</ele>
        <time>2025-01-20T09:20:35.455Z</time>
      </trkpt>
      <trkpt lat="46.73361" lon="-1.98628">
        <ele>12.6</ele>
        <time>2025-01-20T09:20:36.455Z</time>
      </trkpt>
      <trkpt lat="46.73361" lon="-1.98627">
        <ele>12.5</ele>
        <time>2025-01-20T09:20:37.456Z</time>
      </trkpt>
      <trkpt lat="46.73361" lon="-1.98625">
        <ele>12.5</ele>
        <time>2025-01-20T09:20:38.455Z</time>
      </trkpt>
      <trkpt lat="46.73361" lon="-1.98623">
        <ele>12.4</ele>
        <time>2025-01-20T09:20:39.455Z</time>
      </trkpt>
      <trkpt lat="46.73361" lon="-1.98621">
        <ele>12.3</ele>
        <time>2025-01-20T09:20:40.455Z</time>
      </trkpt>
      <trkpt lat="46.73361" lon="-1.98619">
        <ele>12.3</ele>
        <time>2025-01-20T09:20:41.455Z</time>
      </trkpt>
      <trkpt lat="46.73361" lon="-1.98617">
        <ele>12.2</ele>
        <time>2025-01-20T09:20:42.455Z</time>
      </trkpt>
      <trkpt lat="46.73361" lon="-1.98616">
        <ele>12.1</ele>
        <time>2025-01-20T09:20:43.455Z</time>
      </trkpt>
      <trkpt lat="46.73361" lon="-1.98614">
        <ele>12.1</ele>
        <time>2025-01-20T09:20:44.455Z</time>
      </trkpt>
      <trkpt lat="46.73361" lon="-1.98612">
        <ele>12</ele>
        <time>2025-01-20T09:20:45.455Z</time>
      </trkpt>
      <trkpt lat="46.73361" lon="-1.98611">
        <ele>12</ele>
        <time>2025-01-20T09:20:46.456Z</time>
      </trkpt>
      <trkpt lat="46.73361" lon="-1.98609">
        <ele>12</ele>
        <time>2025-01-20T09:20:47.456Z</time>
      </trkpt>
      <trkpt lat="46.73362" lon="-1.98607">
        <ele>12</ele>
        <time>2025-01-20T09:20:48.456Z</time>
      </trkpt>
      <trkpt lat="46.73362" lon="-1.98606">
        <ele>12</ele>
        <time>2025-01-20T09:20:49.456Z</time>
      </trkpt>
      <trkpt lat="46.73363" lon="-1.98604">
        <ele>11.9</ele>
        <time>2025-01-20T09:20:50.455Z</time>
      </trkpt>
      <trkpt lat="46.73364" lon="-1.98602">
        <ele>11.8</ele>
        <time>2025-01-20T09:20:51.455Z</time>
      </trkpt>
      <trkpt lat="46.73364" lon="-1.98599">
        <ele>11.9</ele>
        <time>2025-01-20T09:20:52.455Z</time>
      </trkpt>
      <trkpt lat="46.73365" lon="-1.98597">
        <ele>11.7</ele>
        <time>2025-01-20T09:20:53.455Z</time>
      </trkpt>
      <trkpt lat="46.73365" lon="-1.98596">
        <ele>11.8</ele>
        <time>2025-01-20T09:20:54.456Z</time>
      </trkpt>
      <trkpt lat="46.73365" lon="-1.98594">
        <ele>11.8</ele>
        <time>2025-01-20T09:20:55.456Z</time>
      </trkpt>
      <trkpt lat="46.73365" lon="-1.98593">
        <ele>11.9</ele>
        <time>2025-01-20T09:20:56.455Z</time>
      </trkpt>
      <trkpt lat="46.73365" lon="-1.98591">
        <ele>11.9</ele>
        <time>2025-01-20T09:20:57.455Z</time>
      </trkpt>
      <trkpt lat="46.73365" lon="-1.98589">
        <ele>12</ele>
        <time>2025-01-20T09:20:58.455Z</time>
      </trkpt>
      <trkpt lat="46.73366" lon="-1.98588">
        <ele>11.8</ele>
        <time>2025-01-20T09:20:59.455Z</time>
      </trkpt>
      <trkpt lat="46.73366" lon="-1.98586">
        <ele>11.9</ele>
        <time>2025-01-20T09:21:00.455Z</time>
      </trkpt>
      <trkpt lat="46.73367" lon="-1.98584">
        <ele>11.7</ele>
        <time>2025-01-20T09:21:01.456Z</time>
      </trkpt>
      <trkpt lat="46.73367" lon="-1.98582">
        <ele>11.7</ele>
        <time>2025-01-20T09:21:02.456Z</time>
      </trkpt>
      <trkpt lat="46.73367" lon="-1.98581">
        <ele>11.7</ele>
        <time>2025-01-20T09:21:03.456Z</time>
      </trkpt>
      <trkpt lat="46.73367" lon="-1.9858">
        <ele>11.6</ele>
        <time>2025-01-20T09:21:04.456Z</time>
      </trkpt>
      <trkpt lat="46.73367" lon="-1.98579">
        <ele>11.6</ele>
        <time>2025-01-20T09:21:05.455Z</time>
      </trkpt>
      <trkpt lat="46.73367" lon="-1.98578">
        <ele>11.6</ele>
        <time>2025-01-20T09:21:06.455Z</time>
      </trkpt>
      <trkpt lat="46.73368" lon="-1.98577">
        <ele>11.3</ele>
        <time>2025-01-20T09:21:07.456Z</time>
      </trkpt>
      <trkpt lat="46.73368" lon="-1.98577">
        <ele>11.3</ele>
        <time>2025-01-20T09:21:08.456Z</time>
      </trkpt>
      <trkpt lat="46.73368" lon="-1.98577">
        <ele>11.3</ele>
        <time>2025-01-20T09:21:09.456Z</time>
      </trkpt>
      <trkpt lat="46.73368" lon="-1.98576">
        <ele>11.3</ele>
        <time>2025-01-20T09:21:10.456Z</time>
      </trkpt>
      <trkpt lat="46.73368" lon="-1.98576">
        <ele>11.3</ele>
        <time>2025-01-20T09:21:11.455Z</time>
      </trkpt>
      <trkpt lat="46.73368" lon="-1.98577">
        <ele>11.3</ele>
        <time>2025-01-20T09:21:12.455Z</time>
      </trkpt>
      <trkpt lat="46.73368" lon="-1.98577">
        <ele>11.3</ele>
        <time>2025-01-20T09:21:13.455Z</time>
      </trkpt>
      <trkpt lat="46.73368" lon="-1.98577">
        <ele>11.3</ele>
        <time>2025-01-20T09:21:14.455Z</time>
      </trkpt>
      <trkpt lat="46.73368" lon="-1.98577">
        <ele>11.3</ele>
        <time>2025-01-20T09:21:15.456Z</time>
      </trkpt>
      <trkpt lat="46.73368" lon="-1.98577">
        <ele>11.3</ele>
        <time>2025-01-20T09:21:16.456Z</time>
      </trkpt>
      <trkpt lat="46.73368" lon="-1.98577">
        <ele>11.3</ele>
        <time>2025-01-20T09:21:17.456Z</time>
      </trkpt>
      <trkpt lat="46.73368" lon="-1.98577">
        <ele>11.3</ele>
        <time>2025-01-20T09:21:18.455Z</time>
      </trkpt>
      <trkpt lat="46.73368" lon="-1.98577">
        <ele>11.3</ele>
        <time>2025-01-20T09:21:19.456Z</time>
      </trkpt>
      <trkpt lat="46.73368" lon="-1.98577">
        <ele>11.3</ele>
        <time>2025-01-20T09:21:20.455Z</time>
      </trkpt>
      <trkpt lat="46.73368" lon="-1.98577">
        <ele>11.3</ele>
        <time>2025-01-20T09:21:21.455Z</time>
      </trkpt>
      <trkpt lat="46.73368" lon="-1.98577">
        <ele>11.3</ele>
        <time>2025-01-20T09:21:22.455Z</time>
      </trkpt>
      <trkpt lat="46.73368" lon="-1.98577">
        <ele>11.3</ele>
        <time>2025-01-20T09:21:23.456Z</time>
      </trkpt>
      <trkpt lat="46.73368" lon="-1.98577">
        <ele>11.3</ele>
        <time>2025-01-20T09:21:24.456Z</time>
      </trkpt>
      <trkpt lat="46.73368" lon="-1.98577">
        <ele>11.3</ele>
        <time>2025-01-20T09:21:25.455Z</time>
      </trkpt>
      <trkpt lat="46.73368" lon="-1.98577">
        <ele>11.3</ele>
        <time>2025-01-20T09:21:26.456Z</time>
      </trkpt>
      <trkpt lat="46.73368" lon="-1.98577">
        <ele>11.3</ele>
        <time>2025-01-20T09:21:27.455Z</time>
      </trkpt>
      <trkpt lat="46.73368" lon="-1.98577">
        <ele>11.3</ele>
        <time>2025-01-20T09:21:28.456Z</time>
      </trkpt>
      <trkpt lat="46.73368" lon="-1.98577">
        <ele>11.3</ele>
        <time>2025-01-20T09:21:29.456Z</time>
      </trkpt>
      <trkpt lat="46.73368" lon="-1.98577">
        <ele>11.3</ele>
        <time>2025-01-20T09:21:30.456Z</time>
      </trkpt>
      <trkpt lat="46.73368" lon="-1.98577">
        <ele>11.3</ele>
        <time>2025-01-20T09:21:31.456Z</time>
      </trkpt>
      <trkpt lat="46.73368" lon="-1.98577">
        <ele>11.3</ele>
        <time>2025-01-20T09:21:32.456Z</time>
      </trkpt>
      <trkpt lat="46.73368" lon="-1.98577">
        <ele>11.3</ele>
        <time>2025-01-20T09:21:33.455Z</time>
      </trkpt>
      <trkpt lat="46.73368" lon="-1.98577">
        <ele>11.3</ele>
        <time>2025-01-20T09:21:34.455Z</time>
      </trkpt>
      <trkpt lat="46.73368" lon="-1.98577">
        <ele>11.3</ele>
        <time>2025-01-20T09:21:35.455Z</time>
      </trkpt>
      <trkpt lat="46.73368" lon="-1.98577">
        <ele>11.3</ele>
        <time>2025-01-20T09:21:36.456Z</time>
      </trkpt>
      <trkpt lat="46.73368" lon="-1.98577">
        <ele>11.3</ele>
        <time>2025-01-20T09:21:37.455Z</time>
      </trkpt>
      <trkpt lat="46.73368" lon="-1.98577">
        <ele>11.3</ele>
        <time>2025-01-20T09:21:38.456Z</time>
      </trkpt>
      <trkpt lat="46.73368" lon="-1.98577">
        <ele>11.3</ele>
        <time>2025-01-20T09:21:39.455Z</time>
      </trkpt>
      <trkpt lat="46.73368" lon="-1.98577">
        <ele>11.3</ele>
        <time>2025-01-20T09:21:40.456Z</time>
      </trkpt>
      <trkpt lat="46.73368" lon="-1.98577">
        <ele>11.3</ele>
        <time>2025-01-20T09:21:41.455Z</time>
      </trkpt>
      <trkpt lat="46.73368" lon="-1.98577">
        <ele>11.3</ele>
        <time>2025-01-20T09:21:42.456Z</time>
      </trkpt>
      <trkpt lat="46.73368" lon="-1.98577">
        <ele>11.3</ele>
        <time>2025-01-20T09:21:43.456Z</time>
      </trkpt>
      <trkpt lat="46.73368" lon="-1.98577">
        <ele>11.3</ele>
        <time>2025-01-20T09:21:44.456Z</time>
      </trkpt>
      <trkpt lat="46.73368" lon="-1.98577">
        <ele>11.3</ele>
        <time>2025-01-20T09:21:45.456Z</time>
      </trkpt>
      <trkpt lat="46.73368" lon="-1.98577">
        <ele>11.3</ele>
        <time>2025-01-20T09:21:46.456Z</time>
      </trkpt>
      <trkpt lat="46.73368" lon="-1.98576">
        <ele>11.3</ele>
        <time>2025-01-20T09:21:47.455Z</time>
      </trkpt>
      <trkpt lat="46.73368" lon="-1.98576">
        <ele>11.3</ele>
        <time>2025-01-20T09:21:48.455Z</time>
      </trkpt>
      <trkpt lat="46.73368" lon="-1.98576">
        <ele>11.3</ele>
        <time>2025-01-20T09:21:49.455Z</time>
      </trkpt>
      <trkpt lat="46.73368" lon="-1.98576">
        <ele>11.3</ele>
        <time>2025-01-20T09:21:50.456Z</time>
      </trkpt>
      <trkpt lat="46.73368" lon="-1.98576">
        <ele>11.3</ele>
        <time>2025-01-20T09:21:51.456Z</time>
      </trkpt>
      <trkpt lat="46.73368" lon="-1.98576">
        <ele>11.3</ele>
        <time>2025-01-20T09:21:52.456Z</time>
      </trkpt>
      <trkpt lat="46.73368" lon="-1.98576">
        <ele>11.3</ele>
        <time>2025-01-20T09:21:53.456Z</time>
      </trkpt>
      <trkpt lat="46.73368" lon="-1.98576">
        <ele>11.3</ele>
        <time>2025-01-20T09:21:54.456Z</time>
      </trkpt>
      <trkpt lat="46.73367" lon="-1.98575">
        <ele>11.5</ele>
        <time>2025-01-20T09:21:55.456Z</time>
      </trkpt>
      <trkpt lat="46.73367" lon="-1.98575">
        <ele>11.5</ele>
        <time>2025-01-20T09:21:56.455Z</time>
      </trkpt>
      <trkpt lat="46.73367" lon="-1.98575">
        <ele>11.5</ele>
        <time>2025-01-20T09:21:57.455Z</time>
      </trkpt>
      <trkpt lat="46.73367" lon="-1.98575">
        <ele>11.5</ele>
        <time>2025-01-20T09:21:58.455Z</time>
      </trkpt>
      <trkpt lat="46.73367" lon="-1.98575">
        <ele>11.5</ele>
        <time>2025-01-20T09:21:59.456Z</time>
      </trkpt>
      <trkpt lat="46.73367" lon="-1.98575">
        <ele>11.5</ele>
        <time>2025-01-20T09:22:00.456Z</time>
      </trkpt>
      <trkpt lat="46.73367" lon="-1.98575">
        <ele>11.5</ele>
        <time>2025-01-20T09:22:01.456Z</time>
      </trkpt>
      <trkpt lat="46.73367" lon="-1.98575">
        <ele>11.5</ele>
        <time>2025-01-20T09:22:02.456Z</time>
      </trkpt>
      <trkpt lat="46.73367" lon="-1.98575">
        <ele>11.5</ele>
        <time>2025-01-20T09:22:03.456Z</time>
      </trkpt>
      <trkpt lat="46.73367" lon="-1.98575">
        <ele>11.5</ele>
        <time>2025-01-20T09:22:04.455Z</time>
      </trkpt>
      <trkpt lat="46.73367" lon="-1.98575">
        <ele>11.5</ele>
        <time>2025-01-20T09:22:05.455Z</time>
      </trkpt>
      <trkpt lat="46.73367" lon="-1.98575">
        <ele>11.5</ele>
        <time>2025-01-20T09:22:06.455Z</time>
      </trkpt>
      <trkpt lat="46.73367" lon="-1.98575">
        <ele>11.5</ele>
        <time>2025-01-20T09:22:07.456Z</time>
      </trkpt>
      <trkpt lat="46.73367" lon="-1.98575">
        <ele>11.5</ele>
        <time>2025-01-20T09:22:08.456Z</time>
      </trkpt>
      <trkpt lat="46.73367" lon="-1.98575">
        <ele>11.5</ele>
        <time>2025-01-20T09:22:09.456Z</time>
      </trkpt>
      <trkpt lat="46.73367" lon="-1.98575">
        <ele>11.5</ele>
        <time>2025-01-20T09:22:10.455Z</time>
      </trkpt>
      <trkpt lat="46.73366" lon="-1.98574">
        <ele>11.7</ele>
        <time>2025-01-20T09:22:11.455Z</time>
      </trkpt>
      <trkpt lat="46.73366" lon="-1.98571">
        <ele>11.6</ele>
        <time>2025-01-20T09:22:12.456Z</time>
      </trkpt>
      <trkpt lat="46.73365" lon="-1.98568">
        <ele>11.7</ele>
        <time>2025-01-20T09:22:13.456Z</time>
      </trkpt>
      <trkpt lat="46.73364" lon="-1.98565">
        <ele>11.8</ele>
        <time>2025-01-20T09:22:14.456Z</time>
      </trkpt>
      <trkpt lat="46.73363" lon="-1.98562">
        <ele>11.9</ele>
        <time>2025-01-20T09:22:15.455Z</time>
      </trkpt>
      <trkpt lat="46.73362" lon="-1.9856">
        <ele>12</ele>
        <time>2025-01-20T09:22:16.456Z</time>
      </trkpt>
      <trkpt lat="46.7336" lon="-1.98557">
        <ele>11.8</ele>
        <time>2025-01-20T09:22:17.455Z</time>
      </trkpt>
      <trkpt lat="46.73359" lon="-1.98555">
        <ele>11.4</ele>
        <time>2025-01-20T09:22:18.455Z</time>
      </trkpt>
      <trkpt lat="46.73357" lon="-1.98553">
        <ele>10.7</ele>
        <time>2025-01-20T09:22:19.455Z</time>
      </trkpt>
      <trkpt lat="46.73356" lon="-1.98551">
        <ele>10.4</ele>
        <time>2025-01-20T09:22:20.456Z</time>
      </trkpt>
      <trkpt lat="46.73356" lon="-1.98549">
        <ele>10.2</ele>
        <time>2025-01-20T09:22:21.455Z</time>
      </trkpt>
      <trkpt lat="46.73355" lon="-1.98547">
        <ele>9.9</ele>
        <time>2025-01-20T09:22:22.455Z</time>
      </trkpt>
      <trkpt lat="46.73355" lon="-1.98546">
        <ele>9.8</ele>
        <time>2025-01-20T09:22:23.455Z</time>
      </trkpt>
      <trkpt lat="46.73355" lon="-1.98544">
        <ele>9.7</ele>
        <time>2025-01-20T09:22:24.455Z</time>
      </trkpt>
      <trkpt lat="46.73355" lon="-1.98543">
        <ele>9.6</ele>
        <time>2025-01-20T09:22:25.456Z</time>
      </trkpt>
      <trkpt lat="46.73355" lon="-1.98541">
        <ele>9.5</ele>
        <time>2025-01-20T09:22:26.456Z</time>
      </trkpt>
      <trkpt lat="46.73354" lon="-1.98539">
        <ele>9.3</ele>
        <time>2025-01-20T09:22:27.455Z</time>
      </trkpt>
      <trkpt lat="46.73353" lon="-1.98537">
        <ele>9.2</ele>
        <time>2025-01-20T09:22:28.455Z</time>
      </trkpt>
      <trkpt lat="46.73352" lon="-1.98536">
        <ele>9.2</ele>
        <time>2025-01-20T09:22:29.455Z</time>
      </trkpt>
      <trkpt lat="46.73351" lon="-1.98534">
        <ele>9.2</ele>
        <time>2025-01-20T09:22:30.456Z</time>
      </trkpt>
      <trkpt lat="46.7335" lon="-1.98532">
        <ele>9.2</ele>
        <time>2025-01-20T09:22:31.456Z</time>
      </trkpt>
      <trkpt lat="46.73349" lon="-1.98531">
        <ele>9.3</ele>
        <time>2025-01-20T09:22:32.456Z</time>
      </trkpt>
      <trkpt lat="46.73348" lon="-1.98529">
        <ele>9.4</ele>
        <time>2025-01-20T09:22:33.456Z</time>
      </trkpt>
      <trkpt lat="46.73347" lon="-1.98527">
        <ele>9.5</ele>
        <time>2025-01-20T09:22:34.455Z</time>
      </trkpt>
      <trkpt lat="46.73346" lon="-1.98525">
        <ele>9.5</ele>
        <time>2025-01-20T09:22:35.455Z</time>
      </trkpt>
      <trkpt lat="46.73345" lon="-1.98524">
        <ele>9.6</ele>
        <time>2025-01-20T09:22:36.455Z</time>
      </trkpt>
      <trkpt lat="46.73344" lon="-1.98523">
        <ele>9.7</ele>
        <time>2025-01-20T09:22:37.455Z</time>
      </trkpt>
      <trkpt lat="46.73343" lon="-1.98521">
        <ele>9.7</ele>
        <time>2025-01-20T09:22:38.456Z</time>
      </trkpt>
      <trkpt lat="46.73342" lon="-1.9852">
        <ele>9.8</ele>
        <time>2025-01-20T09:22:39.456Z</time>
      </trkpt>
      <trkpt lat="46.73341" lon="-1.98519">
        <ele>9.9</ele>
        <time>2025-01-20T09:22:40.456Z</time>
      </trkpt>
      <trkpt lat="46.7334" lon="-1.98518">
        <ele>9.9</ele>
        <time>2025-01-20T09:22:41.455Z</time>
      </trkpt>
      <trkpt lat="46.73339" lon="-1.98517">
        <ele>10</ele>
        <time>2025-01-20T09:22:42.456Z</time>
      </trkpt>
      <trkpt lat="46.73338" lon="-1.98517">
        <ele>10.1</ele>
        <time>2025-01-20T09:22:43.456Z</time>
      </trkpt>
      <trkpt lat="46.73337" lon="-1.98516">
        <ele>10.2</ele>
        <time>2025-01-20T09:22:44.455Z</time>
      </trkpt>
      <trkpt lat="46.73336" lon="-1.98515">
        <ele>10.3</ele>
        <time>2025-01-20T09:22:45.455Z</time>
      </trkpt>
      <trkpt lat="46.73335" lon="-1.98515">
        <ele>10.4</ele>
        <time>2025-01-20T09:22:46.455Z</time>
      </trkpt>
      <trkpt lat="46.73334" lon="-1.98514">
        <ele>10.4</ele>
        <time>2025-01-20T09:22:47.455Z</time>
      </trkpt>
      <trkpt lat="46.73333" lon="-1.98513">
        <ele>10.5</ele>
        <time>2025-01-20T09:22:48.456Z</time>
      </trkpt>
      <trkpt lat="46.73332" lon="-1.98512">
        <ele>10.4</ele>
        <time>2025-01-20T09:22:49.456Z</time>
      </trkpt>
      <trkpt lat="46.73331" lon="-1.98511">
        <ele>10.3</ele>
        <time>2025-01-20T09:22:50.456Z</time>
      </trkpt>
      <trkpt lat="46.7333" lon="-1.9851">
        <ele>10.3</ele>
        <time>2025-01-20T09:22:51.456Z</time>
      </trkpt>
      <trkpt lat="46.73328" lon="-1.98509">
        <ele>10.3</ele>
        <time>2025-01-20T09:22:52.455Z</time>
      </trkpt>
      <trkpt lat="46.73327" lon="-1.98508">
        <ele>10.3</ele>
        <time>2025-01-20T09:22:53.455Z</time>
      </trkpt>
      <trkpt lat="46.73326" lon="-1.98506">
        <ele>10.3</ele>
        <time>2025-01-20T09:22:54.455Z</time>
      </trkpt>
      <trkpt lat="46.73326" lon="-1.98505">
        <ele>10.3</ele>
        <time>2025-01-20T09:22:55.455Z</time>
      </trkpt>
      <trkpt lat="46.73325" lon="-1.98505">
        <ele>10.3</ele>
        <time>2025-01-20T09:22:56.456Z</time>
      </trkpt>
      <trkpt lat="46.73324" lon="-1.98504">
        <ele>10.3</ele>
        <time>2025-01-20T09:22:57.455Z</time>
      </trkpt>
      <trkpt lat="46.73324" lon="-1.98505">
        <ele>10.3</ele>
        <time>2025-01-20T09:22:58.456Z</time>
      </trkpt>
      <trkpt lat="46.73323" lon="-1.98506">
        <ele>10.3</ele>
        <time>2025-01-20T09:22:59.455Z</time>
      </trkpt>
      <trkpt lat="46.73322" lon="-1.98505">
        <ele>10.3</ele>
        <time>2025-01-20T09:23:00.455Z</time>
      </trkpt>
      <trkpt lat="46.73321" lon="-1.98504">
        <ele>10.3</ele>
        <time>2025-01-20T09:23:01.455Z</time>
      </trkpt>
      <trkpt lat="46.73319" lon="-1.98503">
        <ele>10.4</ele>
        <time>2025-01-20T09:23:02.456Z</time>
      </trkpt>
      <trkpt lat="46.73318" lon="-1.98503">
        <ele>10.4</ele>
        <time>2025-01-20T09:23:03.456Z</time>
      </trkpt>
      <trkpt lat="46.73317" lon="-1.98503">
        <ele>10.4</ele>
        <time>2025-01-20T09:23:04.456Z</time>
      </trkpt>
      <trkpt lat="46.73316" lon="-1.98503">
        <ele>10.5</ele>
        <time>2025-01-20T09:23:05.455Z</time>
      </trkpt>
      <trkpt lat="46.73315" lon="-1.98503">
        <ele>10.5</ele>
        <time>2025-01-20T09:23:06.456Z</time>
      </trkpt>
      <trkpt lat="46.73313" lon="-1.98504">
        <ele>10.5</ele>
        <time>2025-01-20T09:23:07.455Z</time>
      </trkpt>
      <trkpt lat="46.73311" lon="-1.98505">
        <ele>10.4</ele>
        <time>2025-01-20T09:23:08.455Z</time>
      </trkpt>
      <trkpt lat="46.7331" lon="-1.98506">
        <ele>10.3</ele>
        <time>2025-01-20T09:23:09.455Z</time>
      </trkpt>
      <trkpt lat="46.73309" lon="-1.98506">
        <ele>10.3</ele>
        <time>2025-01-20T09:23:10.456Z</time>
      </trkpt>
      <trkpt lat="46.73307" lon="-1.98507">
        <ele>10.2</ele>
        <time>2025-01-20T09:23:11.456Z</time>
      </trkpt>
      <trkpt lat="46.73306" lon="-1.98509">
        <ele>10</ele>
        <time>2025-01-20T09:23:12.455Z</time>
      </trkpt>
      <trkpt lat="46.73305" lon="-1.9851">
        <ele>9.9</ele>
        <time>2025-01-20T09:23:13.455Z</time>
      </trkpt>
      <trkpt lat="46.73304" lon="-1.9851">
        <ele>9.8</ele>
        <time>2025-01-20T09:23:14.455Z</time>
      </trkpt>
      <trkpt lat="46.73303" lon="-1.98511">
        <ele>9.6</ele>
        <time>2025-01-20T09:23:15.456Z</time>
      </trkpt>
      <trkpt lat="46.73302" lon="-1.98512">
        <ele>9.5</ele>
        <time>2025-01-20T09:23:16.455Z</time>
      </trkpt>
      <trkpt lat="46.733" lon="-1.98512">
        <ele>9.3</ele>
        <time>2025-01-20T09:23:17.455Z</time>
      </trkpt>
      <trkpt lat="46.73299" lon="-1.98513">
        <ele>9.2</ele>
        <time>2025-01-20T09:23:18.455Z</time>
      </trkpt>
      <trkpt lat="46.73297" lon="-1.98514">
        <ele>9</ele>
        <time>2025-01-20T09:23:19.455Z</time>
      </trkpt>
      <trkpt lat="46.73296" lon="-1.98514">
        <ele>9</ele>
        <time>2025-01-20T09:23:20.456Z</time>
      </trkpt>
      <trkpt lat="46.73295" lon="-1.98515">
        <ele>8.9</ele>
        <time>2025-01-20T09:23:21.456Z</time>
      </trkpt>
      <trkpt lat="46.73294" lon="-1.98515">
        <ele>8.8</ele>
        <time>2025-01-20T09:23:22.456Z</time>
      </trkpt>
      <trkpt lat="46.73293" lon="-1.98516">
        <ele>8.8</ele>
        <time>2025-01-20T09:23:23.456Z</time>
      </trkpt>
      <trkpt lat="46.73292" lon="-1.98516">
        <ele>8.7</ele>
        <time>2025-01-20T09:23:24.455Z</time>
      </trkpt>
      <trkpt lat="46.7329" lon="-1.98517">
        <ele>8.6</ele>
        <time>2025-01-20T09:23:25.455Z</time>
      </trkpt>
      <trkpt lat="46.73288" lon="-1.98517">
        <ele>8.6</ele>
        <time>2025-01-20T09:23:26.455Z</time>
      </trkpt>
      <trkpt lat="46.73287" lon="-1.98517">
        <ele>8.5</ele>
        <time>2025-01-20T09:23:27.455Z</time>
      </trkpt>
      <trkpt lat="46.73286" lon="-1.98517">
        <ele>8.5</ele>
        <time>2025-01-20T09:23:28.455Z</time>
      </trkpt>
      <trkpt lat="46.73285" lon="-1.98517">
        <ele>8.5</ele>
        <time>2025-01-20T09:23:29.456Z</time>
      </trkpt>
      <trkpt lat="46.73283" lon="-1.98517">
        <ele>8.4</ele>
        <time>2025-01-20T09:23:30.455Z</time>
      </trkpt>
      <trkpt lat="46.73282" lon="-1.98517">
        <ele>8.4</ele>
        <time>2025-01-20T09:23:31.456Z</time>
      </trkpt>
      <trkpt lat="46.73281" lon="-1.98517">
        <ele>8.3</ele>
        <time>2025-01-20T09:23:32.456Z</time>
      </trkpt>
      <trkpt lat="46.7328" lon="-1.98516">
        <ele>8.2</ele>
        <time>2025-01-20T09:23:33.455Z</time>
      </trkpt>
      <trkpt lat="46.73278" lon="-1.98516">
        <ele>8.2</ele>
        <time>2025-01-20T09:23:34.456Z</time>
      </trkpt>
      <trkpt lat="46.73277" lon="-1.98516">
        <ele>8.1</ele>
        <time>2025-01-20T09:23:35.455Z</time>
      </trkpt>
      <trkpt lat="46.73276" lon="-1.98515">
        <ele>7.9</ele>
        <time>2025-01-20T09:23:36.455Z</time>
      </trkpt>
      <trkpt lat="46.73274" lon="-1.98515">
        <ele>7.6</ele>
        <time>2025-01-20T09:23:37.455Z</time>
      </trkpt>
      <trkpt lat="46.73272" lon="-1.98515">
        <ele>7.3</ele>
        <time>2025-01-20T09:23:38.456Z</time>
      </trkpt>
      <trkpt lat="46.7327" lon="-1.98515">
        <ele>7.1</ele>
        <time>2025-01-20T09:23:39.456Z</time>
      </trkpt>
      <trkpt lat="46.73268" lon="-1.98516">
        <ele>6.9</ele>
        <time>2025-01-20T09:23:40.456Z</time>
      </trkpt>
      <trkpt lat="46.73267" lon="-1.98517">
        <ele>6.8</ele>
        <time>2025-01-20T09:23:41.456Z</time>
      </trkpt>
      <trkpt lat="46.73265" lon="-1.98518">
        <ele>6.6</ele>
        <time>2025-01-20T09:23:42.455Z</time>
      </trkpt>
      <trkpt lat="46.73264" lon="-1.9852">
        <ele>6.6</ele>
        <time>2025-01-20T09:23:43.455Z</time>
      </trkpt>
      <trkpt lat="46.73263" lon="-1.98521">
        <ele>6.5</ele>
        <time>2025-01-20T09:23:44.456Z</time>
      </trkpt>
      <trkpt lat="46.73262" lon="-1.98523">
        <ele>6.5</ele>
        <time>2025-01-20T09:23:45.455Z</time>
      </trkpt>
      <trkpt lat="46.73261" lon="-1.98527">
        <ele>6.5</ele>
        <time>2025-01-20T09:23:46.456Z</time>
      </trkpt>
      <trkpt lat="46.73259" lon="-1.9853">
        <ele>6.3</ele>
        <time>2025-01-20T09:23:47.456Z</time>
      </trkpt>
      <trkpt lat="46.73258" lon="-1.98531">
        <ele>6.2</ele>
        <time>2025-01-20T09:23:48.456Z</time>
      </trkpt>
      <trkpt lat="46.73257" lon="-1.98533">
        <ele>6.1</ele>
        <time>2025-01-20T09:23:49.456Z</time>
      </trkpt>
      <trkpt lat="46.73257" lon="-1.98534">
        <ele>6.2</ele>
        <time>2025-01-20T09:23:50.455Z</time>
      </trkpt>
      <trkpt lat="46.73256" lon="-1.98536">
        <ele>6.1</ele>
        <time>2025-01-20T09:23:51.455Z</time>
      </trkpt>
      <trkpt lat="46.73255" lon="-1.98537">
        <ele>6.1</ele>
        <time>2025-01-20T09:23:52.455Z</time>
      </trkpt>
      <trkpt lat="46.73255" lon="-1.98539">
        <ele>6.2</ele>
        <time>2025-01-20T09:23:53.455Z</time>
      </trkpt>
      <trkpt lat="46.73254" lon="-1.98542">
        <ele>6.2</ele>
        <time>2025-01-20T09:23:54.456Z</time>
      </trkpt>
      <trkpt lat="46.73254" lon="-1.98544">
        <ele>6.3</ele>
        <time>2025-01-20T09:23:55.456Z</time>
      </trkpt>
      <trkpt lat="46.73253" lon="-1.98546">
        <ele>6.4</ele>
        <time>2025-01-20T09:23:56.456Z</time>
      </trkpt>
      <trkpt lat="46.73253" lon="-1.98547">
        <ele>6.4</ele>
        <time>2025-01-20T09:23:57.456Z</time>
      </trkpt>
      <trkpt lat="46.73252" lon="-1.98549">
        <ele>6.5</ele>
        <time>2025-01-20T09:23:58.455Z</time>
      </trkpt>
      <trkpt lat="46.73251" lon="-1.98551">
        <ele>6.7</ele>
        <time>2025-01-20T09:23:59.456Z</time>
      </trkpt>
      <trkpt lat="46.73251" lon="-1.98553">
        <ele>6.8</ele>
        <time>2025-01-20T09:24:00.456Z</time>
      </trkpt>
      <trkpt lat="46.7325" lon="-1.98554">
        <ele>6.9</ele>
        <time>2025-01-20T09:24:01.456Z</time>
      </trkpt>
      <trkpt lat="46.7325" lon="-1.98556">
        <ele>7</ele>
        <time>2025-01-20T09:24:02.456Z</time>
      </trkpt>
      <trkpt lat="46.7325" lon="-1.98558">
        <ele>6.8</ele>
        <time>2025-01-20T09:24:03.456Z</time>
      </trkpt>
      <trkpt lat="46.7325" lon="-1.9856">
        <ele>6.7</ele>
        <time>2025-01-20T09:24:04.455Z</time>
      </trkpt>
      <trkpt lat="46.73251" lon="-1.98562">
        <ele>6.5</ele>
        <time>2025-01-20T09:24:05.456Z</time>
      </trkpt>
      <trkpt lat="46.7325" lon="-1.98564">
        <ele>6.4</ele>
        <time>2025-01-20T09:24:06.456Z</time>
      </trkpt>
      <trkpt lat="46.73251" lon="-1.98566">
        <ele>6.2</ele>
        <time>2025-01-20T09:24:07.456Z</time>
      </trkpt>
      <trkpt lat="46.73251" lon="-1.98567">
        <ele>6.1</ele>
        <time>2025-01-20T09:24:08.456Z</time>
      </trkpt>
      <trkpt lat="46.73251" lon="-1.98569">
        <ele>6</ele>
        <time>2025-01-20T09:24:09.456Z</time>
      </trkpt>
      <trkpt lat="46.7325" lon="-1.98571">
        <ele>5.9</ele>
        <time>2025-01-20T09:24:10.455Z</time>
      </trkpt>
      <trkpt lat="46.7325" lon="-1.98573">
        <ele>5.7</ele>
        <time>2025-01-20T09:24:11.455Z</time>
      </trkpt>
      <trkpt lat="46.7325" lon="-1.98575">
        <ele>5.6</ele>
        <time>2025-01-20T09:24:12.456Z</time>
      </trkpt>
      <trkpt lat="46.73251" lon="-1.98576">
        <ele>5.5</ele>
        <time>2025-01-20T09:24:13.455Z</time>
      </trkpt>
      <trkpt lat="46.73251" lon="-1.98578">
        <ele>5.3</ele>
        <time>2025-01-20T09:24:14.456Z</time>
      </trkpt>
      <trkpt lat="46.73251" lon="-1.98579">
        <ele>5.3</ele>
        <time>2025-01-20T09:24:15.455Z</time>
      </trkpt>
      <trkpt lat="46.73251" lon="-1.9858">
        <ele>5.2</ele>
        <time>2025-01-20T09:24:16.456Z</time>
      </trkpt>
      <trkpt lat="46.73251" lon="-1.9858">
        <ele>5.2</ele>
        <time>2025-01-20T09:24:17.456Z</time>
      </trkpt>
      <trkpt lat="46.7325" lon="-1.98581">
        <ele>5.2</ele>
        <time>2025-01-20T09:24:18.456Z</time>
      </trkpt>
      <trkpt lat="46.7325" lon="-1.98582">
        <ele>5.1</ele>
        <time>2025-01-20T09:24:19.456Z</time>
      </trkpt>
      <trkpt lat="46.73249" lon="-1.98585">
        <ele>5</ele>
        <time>2025-01-20T09:24:20.455Z</time>
      </trkpt>
      <trkpt lat="46.73249" lon="-1.98587">
        <ele>4.9</ele>
        <time>2025-01-20T09:24:21.456Z</time>
      </trkpt>
      <trkpt lat="46.73247" lon="-1.9859">
        <ele>4.9</ele>
        <time>2025-01-20T09:24:22.455Z</time>
      </trkpt>
      <trkpt lat="46.73246" lon="-1.98592">
        <ele>4.9</ele>
        <time>2025-01-20T09:24:23.455Z</time>
      </trkpt>
      <trkpt lat="46.73245" lon="-1.98595">
        <ele>4.8</ele>
        <time>2025-01-20T09:24:24.455Z</time>
      </trkpt>
      <trkpt lat="46.73245" lon="-1.98596">
        <ele>4.8</ele>
        <time>2025-01-20T09:24:25.456Z</time>
      </trkpt>
      <trkpt lat="46.73244" lon="-1.98598">
        <ele>4.8</ele>
        <time>2025-01-20T09:24:26.456Z</time>
      </trkpt>
      <trkpt lat="46.73243" lon="-1.986">
        <ele>4.8</ele>
        <time>2025-01-20T09:24:27.456Z</time>
      </trkpt>
      <trkpt lat="46.73243" lon="-1.98601">
        <ele>4.8</ele>
        <time>2025-01-20T09:24:28.456Z</time>
      </trkpt>
      <trkpt lat="46.73242" lon="-1.98604">
        <ele>4.8</ele>
        <time>2025-01-20T09:24:29.456Z</time>
      </trkpt>
      <trkpt lat="46.73242" lon="-1.98606">
        <ele>4.7</ele>
        <time>2025-01-20T09:24:30.456Z</time>
      </trkpt>
      <trkpt lat="46.73241" lon="-1.98608">
        <ele>4.7</ele>
        <time>2025-01-20T09:24:31.455Z</time>
      </trkpt>
      <trkpt lat="46.73241" lon="-1.9861">
        <ele>4.7</ele>
        <time>2025-01-20T09:24:32.456Z</time>
      </trkpt>
      <trkpt lat="46.7324" lon="-1.98612">
        <ele>4.7</ele>
        <time>2025-01-20T09:24:33.456Z</time>
      </trkpt>
      <trkpt lat="46.7324" lon="-1.98614">
        <ele>4.7</ele>
        <time>2025-01-20T09:24:34.456Z</time>
      </trkpt>
      <trkpt lat="46.7324" lon="-1.98616">
        <ele>4.6</ele>
        <time>2025-01-20T09:24:35.455Z</time>
      </trkpt>
      <trkpt lat="46.73239" lon="-1.98618">
        <ele>4.6</ele>
        <time>2025-01-20T09:24:36.456Z</time>
      </trkpt>
      <trkpt lat="46.73239" lon="-1.98621">
        <ele>4.6</ele>
        <time>2025-01-20T09:24:37.456Z</time>
      </trkpt>
      <trkpt lat="46.73239" lon="-1.98622">
        <ele>4.6</ele>
        <time>2025-01-20T09:24:38.455Z</time>
      </trkpt>
      <trkpt lat="46.73239" lon="-1.98625">
        <ele>4.5</ele>
        <time>2025-01-20T09:24:39.456Z</time>
      </trkpt>
      <trkpt lat="46.73239" lon="-1.98627">
        <ele>4.4</ele>
        <time>2025-01-20T09:24:40.456Z</time>
      </trkpt>
      <trkpt lat="46.73239" lon="-1.98629">
        <ele>4.4</ele>
        <time>2025-01-20T09:24:41.456Z</time>
      </trkpt>
      <trkpt lat="46.73239" lon="-1.98632">
        <ele>4.3</ele>
        <time>2025-01-20T09:24:42.456Z</time>
      </trkpt>
      <trkpt lat="46.73238" lon="-1.98634">
        <ele>4.4</ele>
        <time>2025-01-20T09:24:43.456Z</time>
      </trkpt>
      <trkpt lat="46.73238" lon="-1.98636">
        <ele>4.4</ele>
        <time>2025-01-20T09:24:44.455Z</time>
      </trkpt>
      <trkpt lat="46.73238" lon="-1.98638">
        <ele>4.3</ele>
        <time>2025-01-20T09:24:45.455Z</time>
      </trkpt>
      <trkpt lat="46.73239" lon="-1.9864">
        <ele>4.2</ele>
        <time>2025-01-20T09:24:46.455Z</time>
      </trkpt>
      <trkpt lat="46.73238" lon="-1.98642">
        <ele>4.4</ele>
        <time>2025-01-20T09:24:47.455Z</time>
      </trkpt>
      <trkpt lat="46.73238" lon="-1.98644">
        <ele>4.5</ele>
        <time>2025-01-20T09:24:48.456Z</time>
      </trkpt>
      <trkpt lat="46.73238" lon="-1.98645">
        <ele>4.5</ele>
        <time>2025-01-20T09:24:49.456Z</time>
      </trkpt>
      <trkpt lat="46.73238" lon="-1.98647">
        <ele>4.6</ele>
        <time>2025-01-20T09:24:50.455Z</time>
      </trkpt>
      <trkpt lat="46.73238" lon="-1.98649">
        <ele>4.7</ele>
        <time>2025-01-20T09:24:51.456Z</time>
      </trkpt>
      <trkpt lat="46.73238" lon="-1.9865">
        <ele>4.8</ele>
        <time>2025-01-20T09:24:52.455Z</time>
      </trkpt>
      <trkpt lat="46.73238" lon="-1.98653">
        <ele>4.9</ele>
        <time>2025-01-20T09:24:53.455Z</time>
      </trkpt>
      <trkpt lat="46.73238" lon="-1.98654">
        <ele>4.9</ele>
        <time>2025-01-20T09:24:54.455Z</time>
      </trkpt>
      <trkpt lat="46.73238" lon="-1.98656">
        <ele>5</ele>
        <time>2025-01-20T09:24:55.456Z</time>
      </trkpt>
      <trkpt lat="46.73238" lon="-1.98658">
        <ele>5.1</ele>
        <time>2025-01-20T09:24:56.456Z</time>
      </trkpt>
      <trkpt lat="46.73238" lon="-1.9866">
        <ele>5.2</ele>
        <time>2025-01-20T09:24:57.455Z</time>
      </trkpt>
      <trkpt lat="46.73237" lon="-1.98661">
        <ele>5.3</ele>
        <time>2025-01-20T09:24:58.455Z</time>
      </trkpt>
      <trkpt lat="46.73236" lon="-1.98663">
        <ele>5.4</ele>
        <time>2025-01-20T09:24:59.455Z</time>
      </trkpt>
      <trkpt lat="46.73236" lon="-1.98665">
        <ele>5.4</ele>
        <time>2025-01-20T09:25:00.456Z</time>
      </trkpt>
      <trkpt lat="46.73235" lon="-1.98667">
        <ele>5.5</ele>
        <time>2025-01-20T09:25:01.455Z</time>
      </trkpt>
      <trkpt lat="46.73234" lon="-1.98668">
        <ele>5.6</ele>
        <time>2025-01-20T09:25:02.455Z</time>
      </trkpt>
      <trkpt lat="46.73233" lon="-1.98669">
        <ele>5.6</ele>
        <time>2025-01-20T09:25:03.455Z</time>
      </trkpt>
      <trkpt lat="46.73232" lon="-1.9867">
        <ele>5.6</ele>
        <time>2025-01-20T09:25:04.455Z</time>
      </trkpt>
      <trkpt lat="46.7323" lon="-1.9867">
        <ele>5.7</ele>
        <time>2025-01-20T09:25:05.456Z</time>
      </trkpt>
      <trkpt lat="46.73229" lon="-1.9867">
        <ele>5.7</ele>
        <time>2025-01-20T09:25:06.456Z</time>
      </trkpt>
      <trkpt lat="46.73227" lon="-1.9867">
        <ele>5.8</ele>
        <time>2025-01-20T09:25:07.456Z</time>
      </trkpt>
      <trkpt lat="46.73226" lon="-1.9867">
        <ele>5.8</ele>
        <time>2025-01-20T09:25:08.456Z</time>
      </trkpt>
      <trkpt lat="46.73224" lon="-1.98669">
        <ele>5.9</ele>
        <time>2025-01-20T09:25:09.455Z</time>
      </trkpt>
      <trkpt lat="46.73223" lon="-1.98669">
        <ele>6</ele>
        <time>2025-01-20T09:25:10.455Z</time>
      </trkpt>
      <trkpt lat="46.73221" lon="-1.9867">
        <ele>6.2</ele>
        <time>2025-01-20T09:25:11.456Z</time>
      </trkpt>
      <trkpt lat="46.7322" lon="-1.9867">
        <ele>6.3</ele>
        <time>2025-01-20T09:25:12.456Z</time>
      </trkpt>
      <trkpt lat="46.73219" lon="-1.98671">
        <ele>6.5</ele>
        <time>2025-01-20T09:25:13.456Z</time>
      </trkpt>
      <trkpt lat="46.73218" lon="-1.98671">
        <ele>6.7</ele>
        <time>2025-01-20T09:25:14.455Z</time>
      </trkpt>
      <trkpt lat="46.73216" lon="-1.9867">
        <ele>6.9</ele>
        <time>2025-01-20T09:25:15.455Z</time>
      </trkpt>
      <trkpt lat="46.73215" lon="-1.98671">
        <ele>7.1</ele>
        <time>2025-01-20T09:25:16.455Z</time>
      </trkpt>
      <trkpt lat="46.73214" lon="-1.98672">
        <ele>7.3</ele>
        <time>2025-01-20T09:25:17.455Z</time>
      </trkpt>
      <trkpt lat="46.73213" lon="-1.98672">
        <ele>7.5</ele>
        <time>2025-01-20T09:25:18.455Z</time>
      </trkpt>
      <trkpt lat="46.73212" lon="-1.98672">
        <ele>7.6</ele>
        <time>2025-01-20T09:25:19.455Z</time>
      </trkpt>
      <trkpt lat="46.73211" lon="-1.98673">
        <ele>7.8</ele>
        <time>2025-01-20T09:25:20.456Z</time>
      </trkpt>
      <trkpt lat="46.7321" lon="-1.98673">
        <ele>8</ele>
        <time>2025-01-20T09:25:21.456Z</time>
      </trkpt>
      <trkpt lat="46.73209" lon="-1.98673">
        <ele>8.1</ele>
        <time>2025-01-20T09:25:22.456Z</time>
      </trkpt>
      <trkpt lat="46.73208" lon="-1.98673">
        <ele>8.3</ele>
        <time>2025-01-20T09:25:23.456Z</time>
      </trkpt>
      <trkpt lat="46.73207" lon="-1.98673">
        <ele>8.4</ele>
        <time>2025-01-20T09:25:24.455Z</time>
      </trkpt>
      <trkpt lat="46.73207" lon="-1.98672">
        <ele>8.4</ele>
        <time>2025-01-20T09:25:25.456Z</time>
      </trkpt>
      <trkpt lat="46.73206" lon="-1.98672">
        <ele>8.6</ele>
        <time>2025-01-20T09:25:26.456Z</time>
      </trkpt>
      <trkpt lat="46.73206" lon="-1.98671">
        <ele>8.5</ele>
        <time>2025-01-20T09:25:27.456Z</time>
      </trkpt>
      <trkpt lat="46.73205" lon="-1.98671">
        <ele>8.7</ele>
        <time>2025-01-20T09:25:28.455Z</time>
      </trkpt>
      <trkpt lat="46.73204" lon="-1.9867">
        <ele>8.8</ele>
        <time>2025-01-20T09:25:29.455Z</time>
      </trkpt>
      <trkpt lat="46.73204" lon="-1.98669">
        <ele>8.7</ele>
        <time>2025-01-20T09:25:30.455Z</time>
      </trkpt>
      <trkpt lat="46.73203" lon="-1.98668">
        <ele>8.8</ele>
        <time>2025-01-20T09:25:31.456Z</time>
      </trkpt>
      <trkpt lat="46.73203" lon="-1.98668">
        <ele>8.8</ele>
        <time>2025-01-20T09:25:32.455Z</time>
      </trkpt>
      <trkpt lat="46.73203" lon="-1.98668">
        <ele>8.8</ele>
        <time>2025-01-20T09:25:33.455Z</time>
      </trkpt>
      <trkpt lat="46.73203" lon="-1.98667">
        <ele>8.8</ele>
        <time>2025-01-20T09:25:34.456Z</time>
      </trkpt>
      <trkpt lat="46.73203" lon="-1.98667">
        <ele>8.8</ele>
        <time>2025-01-20T09:25:35.455Z</time>
      </trkpt>
      <trkpt lat="46.73203" lon="-1.98666">
        <ele>8.8</ele>
        <time>2025-01-20T09:25:36.455Z</time>
      </trkpt>
      <trkpt lat="46.73204" lon="-1.98665">
        <ele>8.6</ele>
        <time>2025-01-20T09:25:37.456Z</time>
      </trkpt>
      <trkpt lat="46.73204" lon="-1.98664">
        <ele>8.6</ele>
        <time>2025-01-20T09:25:38.456Z</time>
      </trkpt>
      <trkpt lat="46.73204" lon="-1.98662">
        <ele>8.6</ele>
        <time>2025-01-20T09:25:39.456Z</time>
      </trkpt>
      <trkpt lat="46.73205" lon="-1.9866">
        <ele>8.5</ele>
        <time>2025-01-20T09:25:40.456Z</time>
      </trkpt>
      <trkpt lat="46.73205" lon="-1.98659">
        <ele>8.5</ele>
        <time>2025-01-20T09:25:41.456Z</time>
      </trkpt>
      <trkpt lat="46.73205" lon="-1.98657">
        <ele>8.5</ele>
        <time>2025-01-20T09:25:42.456Z</time>
      </trkpt>
      <trkpt lat="46.73205" lon="-1.98655">
        <ele>8.5</ele>
        <time>2025-01-20T09:25:43.455Z</time>
      </trkpt>
      <trkpt lat="46.73205" lon="-1.98653">
        <ele>8.5</ele>
        <time>2025-01-20T09:25:44.455Z</time>
      </trkpt>
      <trkpt lat="46.73206" lon="-1.98652">
        <ele>8.3</ele>
        <time>2025-01-20T09:25:45.456Z</time>
      </trkpt>
      <trkpt lat="46.73205" lon="-1.9865">
        <ele>8.5</ele>
        <time>2025-01-20T09:25:46.456Z</time>
      </trkpt>
      <trkpt lat="46.73206" lon="-1.98648">
        <ele>8.3</ele>
        <time>2025-01-20T09:25:47.455Z</time>
      </trkpt>
      <trkpt lat="46.73206" lon="-1.98647">
        <ele>8.3</ele>
        <time>2025-01-20T09:25:48.455Z</time>
      </trkpt>
      <trkpt lat="46.73206" lon="-1.98645">
        <ele>8.3</ele>
        <time>2025-01-20T09:25:49.455Z</time>
      </trkpt>
      <trkpt lat="46.73207" lon="-1.98643">
        <ele>8.2</ele>
        <time>2025-01-20T09:25:50.455Z</time>
      </trkpt>
      <trkpt lat="46.73206" lon="-1.98641">
        <ele>8.3</ele>
        <time>2025-01-20T09:25:51.455Z</time>
      </trkpt>
      <trkpt lat="46.73206" lon="-1.98639">
        <ele>8.3</ele>
        <time>2025-01-20T09:25:52.456Z</time>
      </trkpt>
      <trkpt lat="46.73206" lon="-1.98637">
        <ele>8.4</ele>
        <time>2025-01-20T09:25:53.456Z</time>
      </trkpt>
      <trkpt lat="46.73206" lon="-1.98636">
        <ele>8.5</ele>
        <time>2025-01-20T09:25:54.456Z</time>
      </trkpt>
      <trkpt lat="46.73205" lon="-1.98635">
        <ele>8.7</ele>
        <time>2025-01-20T09:25:55.456Z</time>
      </trkpt>
      <trkpt lat="46.73205" lon="-1.98633">
        <ele>8.7</ele>
        <time>2025-01-20T09:25:56.456Z</time>
      </trkpt>
      <trkpt lat="46.73204" lon="-1.98632">
        <ele>8.9</ele>
        <time>2025-01-20T09:25:57.455Z</time>
      </trkpt>
      <trkpt lat="46.73204" lon="-1.9863">
        <ele>9</ele>
        <time>2025-01-20T09:25:58.455Z</time>
      </trkpt>
      <trkpt lat="46.73204" lon="-1.98628">
        <ele>9.1</ele>
        <time>2025-01-20T09:25:59.455Z</time>
      </trkpt>
      <trkpt lat="46.73203" lon="-1.98627">
        <ele>9.4</ele>
        <time>2025-01-20T09:26:00.455Z</time>
      </trkpt>
      <trkpt lat="46.73203" lon="-1.98625">
        <ele>9.5</ele>
        <time>2025-01-20T09:26:01.456Z</time>
      </trkpt>
      <trkpt lat="46.73203" lon="-1.98623">
        <ele>9.6</ele>
        <time>2025-01-20T09:26:02.456Z</time>
      </trkpt>
      <trkpt lat="46.73202" lon="-1.98621">
        <ele>9.8</ele>
        <time>2025-01-20T09:26:03.456Z</time>
      </trkpt>
      <trkpt lat="46.73201" lon="-1.98619">
        <ele>10.2</ele>
        <time>2025-01-20T09:26:04.455Z</time>
      </trkpt>
      <trkpt lat="46.73201" lon="-1.98618">
        <ele>10.2</ele>
        <time>2025-01-20T09:26:05.455Z</time>
      </trkpt>
      <trkpt lat="46.732" lon="-1.98616">
        <ele>10.5</ele>
        <time>2025-01-20T09:26:06.455Z</time>
      </trkpt>
      <trkpt lat="46.73199" lon="-1.98614">
        <ele>10.8</ele>
        <time>2025-01-20T09:26:07.455Z</time>
      </trkpt>
      <trkpt lat="46.73199" lon="-1.98612">
        <ele>11</ele>
        <time>2025-01-20T09:26:08.455Z</time>
      </trkpt>
      <trkpt lat="46.73199" lon="-1.9861">
        <ele>11</ele>
        <time>2025-01-20T09:26:09.455Z</time>
      </trkpt>
      <trkpt lat="46.73199" lon="-1.98608">
        <ele>11</ele>
        <time>2025-01-20T09:26:10.456Z</time>
      </trkpt>
      <trkpt lat="46.73199" lon="-1.98607">
        <ele>11</ele>
        <time>2025-01-20T09:26:11.456Z</time>
      </trkpt>
      <trkpt lat="46.73199" lon="-1.98605">
        <ele>11</ele>
        <time>2025-01-20T09:26:12.455Z</time>
      </trkpt>
      <trkpt lat="46.73199" lon="-1.98603">
        <ele>11</ele>
        <time>2025-01-20T09:26:13.455Z</time>
      </trkpt>
      <trkpt lat="46.73198" lon="-1.98602">
        <ele>11.2</ele>
        <time>2025-01-20T09:26:14.455Z</time>
      </trkpt>
      <trkpt lat="46.73198" lon="-1.986">
        <ele>11.2</ele>
        <time>2025-01-20T09:26:15.455Z</time>
      </trkpt>
      <trkpt lat="46.73197" lon="-1.98598">
        <ele>11.4</ele>
        <time>2025-01-20T09:26:16.455Z</time>
      </trkpt>
      <trkpt lat="46.73197" lon="-1.98596">
        <ele>11.4</ele>
        <time>2025-01-20T09:26:17.455Z</time>
      </trkpt>
      <trkpt lat="46.73196" lon="-1.98594">
        <ele>11.7</ele>
        <time>2025-01-20T09:26:18.456Z</time>
      </trkpt>
      <trkpt lat="46.73196" lon="-1.98593">
        <ele>11.7</ele>
        <time>2025-01-20T09:26:19.456Z</time>
      </trkpt>
      <trkpt lat="46.73195" lon="-1.98591">
        <ele>11.9</ele>
        <time>2025-01-20T09:26:20.455Z</time>
      </trkpt>
      <trkpt lat="46.73195" lon="-1.98589">
        <ele>11.9</ele>
        <time>2025-01-20T09:26:21.455Z</time>
      </trkpt>
      <trkpt lat="46.73195" lon="-1.98587">
        <ele>11.9</ele>
        <time>2025-01-20T09:26:22.455Z</time>
      </trkpt>
      <trkpt lat="46.73194" lon="-1.98585">
        <ele>12</ele>
        <time>2025-01-20T09:26:23.455Z</time>
      </trkpt>
      <trkpt lat="46.73193" lon="-1.98583">
        <ele>11.9</ele>
        <time>2025-01-20T09:26:24.455Z</time>
      </trkpt>
      <trkpt lat="46.73192" lon="-1.98582">
        <ele>11.9</ele>
        <time>2025-01-20T09:26:25.455Z</time>
      </trkpt>
      <trkpt lat="46.73191" lon="-1.98581">
        <ele>11.8</ele>
        <time>2025-01-20T09:26:26.456Z</time>
      </trkpt>
      <trkpt lat="46.73189" lon="-1.9858">
        <ele>11.8</ele>
        <time>2025-01-20T09:26:27.456Z</time>
      </trkpt>
      <trkpt lat="46.73188" lon="-1.98578">
        <ele>11.8</ele>
        <time>2025-01-20T09:26:28.455Z</time>
      </trkpt>
      <trkpt lat="46.73188" lon="-1.98577">
        <ele>11.8</ele>
        <time>2025-01-20T09:26:29.455Z</time>
      </trkpt>
      <trkpt lat="46.73188" lon="-1.98575">
        <ele>11.8</ele>
        <time>2025-01-20T09:26:30.455Z</time>
      </trkpt>
      <trkpt lat="46.73188" lon="-1.98574">
        <ele>11.8</ele>
        <time>2025-01-20T09:26:31.455Z</time>
      </trkpt>
      <trkpt lat="46.73187" lon="-1.98572">
        <ele>11.9</ele>
        <time>2025-01-20T09:26:32.455Z</time>
      </trkpt>
      <trkpt lat="46.73187" lon="-1.9857">
        <ele>11.9</ele>
        <time>2025-01-20T09:26:33.455Z</time>
      </trkpt>
      <trkpt lat="46.73186" lon="-1.98566">
        <ele>12</ele>
        <time>2025-01-20T09:26:34.456Z</time>
      </trkpt>
      <trkpt lat="46.73185" lon="-1.98563">
        <ele>12.2</ele>
        <time>2025-01-20T09:26:35.456Z</time>
      </trkpt>
      <trkpt lat="46.73184" lon="-1.98561">
        <ele>12.3</ele>
        <time>2025-01-20T09:26:36.455Z</time>
      </trkpt>
      <trkpt lat="46.73183" lon="-1.98558">
        <ele>12.6</ele>
        <time>2025-01-20T09:26:37.455Z</time>
      </trkpt>
      <trkpt lat="46.73182" lon="-1.98556">
        <ele>12.8</ele>
        <time>2025-01-20T09:26:38.455Z</time>
      </trkpt>
      <trkpt lat="46.73182" lon="-1.98554">
        <ele>12.7</ele>
        <time>2025-01-20T09:26:39.455Z</time>
      </trkpt>
      <trkpt lat="46.73181" lon="-1.98552">
        <ele>12.8</ele>
        <time>2025-01-20T09:26:40.455Z</time>
      </trkpt>
      <trkpt lat="46.73181" lon="-1.9855">
        <ele>12.7</ele>
        <time>2025-01-20T09:26:41.455Z</time>
      </trkpt>
      <trkpt lat="46.7318" lon="-1.98549">
        <ele>12.9</ele>
        <time>2025-01-20T09:26:42.455Z</time>
      </trkpt>
      <trkpt lat="46.73179" lon="-1.98547">
        <ele>13</ele>
        <time>2025-01-20T09:26:43.456Z</time>
      </trkpt>
      <trkpt lat="46.73178" lon="-1.98545">
        <ele>13.1</ele>
        <time>2025-01-20T09:26:44.455Z</time>
      </trkpt>
      <trkpt lat="46.73177" lon="-1.98544">
        <ele>13.3</ele>
        <time>2025-01-20T09:26:45.456Z</time>
      </trkpt>
      <trkpt lat="46.73177" lon="-1.98543">
        <ele>13.3</ele>
        <time>2025-01-20T09:26:46.455Z</time>
      </trkpt>
      <trkpt lat="46.73176" lon="-1.98542">
        <ele>13.5</ele>
        <time>2025-01-20T09:26:47.456Z</time>
      </trkpt>
      <trkpt lat="46.73176" lon="-1.98541">
        <ele>13.5</ele>
        <time>2025-01-20T09:26:48.455Z</time>
      </trkpt>
      <trkpt lat="46.73175" lon="-1.9854">
        <ele>13.7</ele>
        <time>2025-01-20T09:26:49.456Z</time>
      </trkpt>
      <trkpt lat="46.73174" lon="-1.98538">
        <ele>13.9</ele>
        <time>2025-01-20T09:26:50.455Z</time>
      </trkpt>
      <trkpt lat="46.73173" lon="-1.98537">
        <ele>14.1</ele>
        <time>2025-01-20T09:26:51.455Z</time>
      </trkpt>
      <trkpt lat="46.73172" lon="-1.98535">
        <ele>14.4</ele>
        <time>2025-01-20T09:26:52.456Z</time>
      </trkpt>
      <trkpt lat="46.73171" lon="-1.98533">
        <ele>14.7</ele>
        <time>2025-01-20T09:26:53.456Z</time>
      </trkpt>
      <trkpt lat="46.7317" lon="-1.98531">
        <ele>15</ele>
        <time>2025-01-20T09:26:54.456Z</time>
      </trkpt>
      <trkpt lat="46.73169" lon="-1.98529">
        <ele>15.3</ele>
        <time>2025-01-20T09:26:55.455Z</time>
      </trkpt>
      <trkpt lat="46.73169" lon="-1.98528">
        <ele>15.3</ele>
        <time>2025-01-20T09:26:56.456Z</time>
      </trkpt>
      <trkpt lat="46.73168" lon="-1.98527">
        <ele>15.4</ele>
        <time>2025-01-20T09:26:57.455Z</time>
      </trkpt>
      <trkpt lat="46.73167" lon="-1.98526">
        <ele>15.5</ele>
        <time>2025-01-20T09:26:58.455Z</time>
      </trkpt>
      <trkpt lat="46.73165" lon="-1.98526">
        <ele>15.5</ele>
        <time>2025-01-20T09:26:59.456Z</time>
      </trkpt>
      <trkpt lat="46.73163" lon="-1.98524">
        <ele>15</ele>
        <time>2025-01-20T09:27:00.455Z</time>
      </trkpt>
      <trkpt lat="46.73162" lon="-1.98523">
        <ele>14.8</ele>
        <time>2025-01-20T09:27:01.455Z</time>
      </trkpt>
      <trkpt lat="46.7316" lon="-1.98522">
        <ele>14.6</ele>
        <time>2025-01-20T09:27:02.456Z</time>
      </trkpt>
      <trkpt lat="46.73159" lon="-1.9852">
        <ele>14.2</ele>
        <time>2025-01-20T09:27:03.456Z</time>
      </trkpt>
      <trkpt lat="46.73157" lon="-1.98519">
        <ele>14.1</ele>
        <time>2025-01-20T09:27:04.456Z</time>
      </trkpt>
      <trkpt lat="46.73155" lon="-1.98519">
        <ele>14.2</ele>
        <time>2025-01-20T09:27:05.455Z</time>
      </trkpt>
      <trkpt lat="46.73154" lon="-1.98518">
        <ele>14</ele>
        <time>2025-01-20T09:27:06.455Z</time>
      </trkpt>
      <trkpt lat="46.73152" lon="-1.98516">
        <ele>13.8</ele>
        <time>2025-01-20T09:27:07.455Z</time>
      </trkpt>
      <trkpt lat="46.73151" lon="-1.98516">
        <ele>13.9</ele>
        <time>2025-01-20T09:27:08.455Z</time>
      </trkpt>
      <trkpt lat="46.7315" lon="-1.98514">
        <ele>13.7</ele>
        <time>2025-01-20T09:27:09.455Z</time>
      </trkpt>
      <trkpt lat="46.7315" lon="-1.98514">
        <ele>13.7</ele>
        <time>2025-01-20T09:27:10.456Z</time>
      </trkpt>
      <trkpt lat="46.73149" lon="-1.98513">
        <ele>13.7</ele>
        <time>2025-01-20T09:27:11.456Z</time>
      </trkpt>
      <trkpt lat="46.73148" lon="-1.98512">
        <ele>13.6</ele>
        <time>2025-01-20T09:27:12.456Z</time>
      </trkpt>
      <trkpt lat="46.73147" lon="-1.98511">
        <ele>13.6</ele>
        <time>2025-01-20T09:27:13.456Z</time>
      </trkpt>
      <trkpt lat="46.73146" lon="-1.98511">
        <ele>13.7</ele>
        <time>2025-01-20T09:27:14.455Z</time>
      </trkpt>
      <trkpt lat="46.73145" lon="-1.9851">
        <ele>13.7</ele>
        <time>2025-01-20T09:27:15.456Z</time>
      </trkpt>
      <trkpt lat="46.73144" lon="-1.98509">
        <ele>13.8</ele>
        <time>2025-01-20T09:27:16.456Z</time>
      </trkpt>
      <trkpt lat="46.73142" lon="-1.98508">
        <ele>13.9</ele>
        <time>2025-01-20T09:27:17.455Z</time>
      </trkpt>
      <trkpt lat="46.7314" lon="-1.98507">
        <ele>14.1</ele>
        <time>2025-01-20T09:27:18.456Z</time>
      </trkpt>
      <trkpt lat="46.73138" lon="-1.98506">
        <ele>14.2</ele>
        <time>2025-01-20T09:27:19.456Z</time>
      </trkpt>
      <trkpt lat="46.73137" lon="-1.98505">
        <ele>14.1</ele>
        <time>2025-01-20T09:27:20.455Z</time>
      </trkpt>
      <trkpt lat="46.73136" lon="-1.98505">
        <ele>14.1</ele>
        <time>2025-01-20T09:27:21.455Z</time>
      </trkpt>
      <trkpt lat="46.73135" lon="-1.98505">
        <ele>14.1</ele>
        <time>2025-01-20T09:27:22.456Z</time>
      </trkpt>
      <trkpt lat="46.73134" lon="-1.98505">
        <ele>14.1</ele>
        <time>2025-01-20T09:27:23.456Z</time>
      </trkpt>
      <trkpt lat="46.73132" lon="-1.98505">
        <ele>14.1</ele>
        <time>2025-01-20T09:27:24.456Z</time>
      </trkpt>
      <trkpt lat="46.7313" lon="-1.98505">
        <ele>14</ele>
        <time>2025-01-20T09:27:25.456Z</time>
      </trkpt>
      <trkpt lat="46.73129" lon="-1.98505">
        <ele>14</ele>
        <time>2025-01-20T09:27:26.455Z</time>
      </trkpt>
      <trkpt lat="46.73127" lon="-1.98505">
        <ele>14</ele>
        <time>2025-01-20T09:27:27.456Z</time>
      </trkpt>
      <trkpt lat="46.73126" lon="-1.98505">
        <ele>14</ele>
        <time>2025-01-20T09:27:28.456Z</time>
      </trkpt>
      <trkpt lat="46.73123" lon="-1.98506">
        <ele>14</ele>
        <time>2025-01-20T09:27:29.455Z</time>
      </trkpt>
      <trkpt lat="46.73121" lon="-1.98505">
        <ele>13.9</ele>
        <time>2025-01-20T09:27:30.456Z</time>
      </trkpt>
      <trkpt lat="46.7312" lon="-1.98507">
        <ele>14.1</ele>
        <time>2025-01-20T09:27:31.455Z</time>
      </trkpt>
      <trkpt lat="46.73118" lon="-1.98508">
        <ele>14.2</ele>
        <time>2025-01-20T09:27:32.455Z</time>
      </trkpt>
      <trkpt lat="46.73117" lon="-1.98509">
        <ele>14.3</ele>
        <time>2025-01-20T09:27:33.455Z</time>
      </trkpt>
      <trkpt lat="46.73116" lon="-1.9851">
        <ele>14.4</ele>
        <time>2025-01-20T09:27:34.456Z</time>
      </trkpt>
      <trkpt lat="46.73115" lon="-1.98511">
        <ele>14.6</ele>
        <time>2025-01-20T09:27:35.456Z</time>
      </trkpt>
      <trkpt lat="46.73114" lon="-1.98511">
        <ele>14.6</ele>
        <time>2025-01-20T09:27:36.455Z</time>
      </trkpt>
      <trkpt lat="46.73113" lon="-1.98512">
        <ele>14.7</ele>
        <time>2025-01-20T09:27:37.455Z</time>
      </trkpt>
      <trkpt lat="46.73112" lon="-1.98512">
        <ele>14.7</ele>
        <time>2025-01-20T09:27:38.456Z</time>
      </trkpt>
      <trkpt lat="46.7311" lon="-1.98512">
        <ele>14.6</ele>
        <time>2025-01-20T09:27:39.456Z</time>
      </trkpt>
      <trkpt lat="46.73109" lon="-1.98512">
        <ele>14.6</ele>
        <time>2025-01-20T09:27:40.456Z</time>
      </trkpt>
      <trkpt lat="46.73108" lon="-1.98513">
        <ele>14.6</ele>
        <time>2025-01-20T09:27:41.456Z</time>
      </trkpt>
      <trkpt lat="46.73107" lon="-1.98514">
        <ele>14.7</ele>
        <time>2025-01-20T09:27:42.456Z</time>
      </trkpt>
      <trkpt lat="46.73107" lon="-1.98513">
        <ele>14.6</ele>
        <time>2025-01-20T09:27:43.456Z</time>
      </trkpt>
      <trkpt lat="46.73106" lon="-1.98512">
        <ele>14.4</ele>
        <time>2025-01-20T09:27:44.455Z</time>
      </trkpt>
      <trkpt lat="46.73104" lon="-1.98511">
        <ele>14.1</ele>
        <time>2025-01-20T09:27:45.455Z</time>
      </trkpt>
      <trkpt lat="46.73102" lon="-1.9851">
        <ele>13.8</ele>
        <time>2025-01-20T09:27:46.455Z</time>
      </trkpt>
      <trkpt lat="46.73101" lon="-1.9851">
        <ele>13.7</ele>
        <time>2025-01-20T09:27:47.455Z</time>
      </trkpt>
      <trkpt lat="46.731" lon="-1.9851">
        <ele>13.6</ele>
        <time>2025-01-20T09:27:48.455Z</time>
      </trkpt>
      <trkpt lat="46.73099" lon="-1.9851">
        <ele>13.6</ele>
        <time>2025-01-20T09:27:49.456Z</time>
      </trkpt>
      <trkpt lat="46.73097" lon="-1.9851">
        <ele>13.4</ele>
        <time>2025-01-20T09:27:50.456Z</time>
      </trkpt>
      <trkpt lat="46.73096" lon="-1.9851">
        <ele>13.4</ele>
        <time>2025-01-20T09:27:51.456Z</time>
      </trkpt>
      <trkpt lat="46.73095" lon="-1.98511">
        <ele>13.4</ele>
        <time>2025-01-20T09:27:52.455Z</time>
      </trkpt>
      <trkpt lat="46.73093" lon="-1.98511">
        <ele>13.3</ele>
        <time>2025-01-20T09:27:53.456Z</time>
      </trkpt>
      <trkpt lat="46.73092" lon="-1.98511">
        <ele>13.2</ele>
        <time>2025-01-20T09:27:54.456Z</time>
      </trkpt>
      <trkpt lat="46.73091" lon="-1.98512">
        <ele>13.3</ele>
        <time>2025-01-20T09:27:55.455Z</time>
      </trkpt>
      <trkpt lat="46.73089" lon="-1.98513">
        <ele>13.3</ele>
        <time>2025-01-20T09:27:56.456Z</time>
      </trkpt>
      <trkpt lat="46.73087" lon="-1.98514">
        <ele>13.3</ele>
        <time>2025-01-20T09:27:57.456Z</time>
      </trkpt>
      <trkpt lat="46.73086" lon="-1.98515">
        <ele>13.4</ele>
        <time>2025-01-20T09:27:58.456Z</time>
      </trkpt>
      <trkpt lat="46.73084" lon="-1.98516">
        <ele>13.4</ele>
        <time>2025-01-20T09:27:59.455Z</time>
      </trkpt>
      <trkpt lat="46.73082" lon="-1.98517">
        <ele>13.6</ele>
        <time>2025-01-20T09:28:00.456Z</time>
      </trkpt>
      <trkpt lat="46.73081" lon="-1.98518">
        <ele>13.8</ele>
        <time>2025-01-20T09:28:01.456Z</time>
      </trkpt>
      <trkpt lat="46.7308" lon="-1.98519">
        <ele>14</ele>
        <time>2025-01-20T09:28:02.456Z</time>
      </trkpt>
      <trkpt lat="46.73079" lon="-1.9852">
        <ele>14.2</ele>
        <time>2025-01-20T09:28:03.456Z</time>
      </trkpt>
      <trkpt lat="46.73078" lon="-1.9852">
        <ele>14.2</ele>
        <time>2025-01-20T09:28:04.455Z</time>
      </trkpt>
      <trkpt lat="46.73077" lon="-1.9852">
        <ele>14.3</ele>
        <time>2025-01-20T09:28:05.455Z</time>
      </trkpt>
      <trkpt lat="46.73076" lon="-1.98521">
        <ele>14.5</ele>
        <time>2025-01-20T09:28:06.456Z</time>
      </trkpt>
      <trkpt lat="46.73075" lon="-1.98521">
        <ele>14.5</ele>
        <time>2025-01-20T09:28:07.455Z</time>
      </trkpt>
      <trkpt lat="46.73073" lon="-1.98521">
        <ele>14.7</ele>
        <time>2025-01-20T09:28:08.456Z</time>
      </trkpt>
      <trkpt lat="46.73072" lon="-1.98522">
        <ele>14.8</ele>
        <time>2025-01-20T09:28:09.455Z</time>
      </trkpt>
      <trkpt lat="46.73071" lon="-1.98522">
        <ele>14.9</ele>
        <time>2025-01-20T09:28:10.455Z</time>
      </trkpt>
      <trkpt lat="46.73069" lon="-1.98522">
        <ele>15</ele>
        <time>2025-01-20T09:28:11.455Z</time>
      </trkpt>
      <trkpt lat="46.73068" lon="-1.98522">
        <ele>15.1</ele>
        <time>2025-01-20T09:28:12.455Z</time>
      </trkpt>
      <trkpt lat="46.73067" lon="-1.98521">
        <ele>15</ele>
        <time>2025-01-20T09:28:13.455Z</time>
      </trkpt>
      <trkpt lat="46.73066" lon="-1.98521">
        <ele>15.1</ele>
        <time>2025-01-20T09:28:14.456Z</time>
      </trkpt>
      <trkpt lat="46.73065" lon="-1.9852">
        <ele>15.1</ele>
        <time>2025-01-20T09:28:15.456Z</time>
      </trkpt>
      <trkpt lat="46.73064" lon="-1.98519">
        <ele>15.1</ele>
        <time>2025-01-20T09:28:16.455Z</time>
      </trkpt>
      <trkpt lat="46.73063" lon="-1.98518">
        <ele>15.1</ele>
        <time>2025-01-20T09:28:17.455Z</time>
      </trkpt>
      <trkpt lat="46.73063" lon="-1.98516">
        <ele>15</ele>
        <time>2025-01-20T09:28:18.456Z</time>
      </trkpt>
      <trkpt lat="46.73063" lon="-1.98514">
        <ele>14.8</ele>
        <time>2025-01-20T09:28:19.456Z</time>
      </trkpt>
      <trkpt lat="46.73062" lon="-1.98512">
        <ele>14.8</ele>
        <time>2025-01-20T09:28:20.456Z</time>
      </trkpt>
      <trkpt lat="46.73062" lon="-1.9851">
        <ele>14.7</ele>
        <time>2025-01-20T09:28:21.456Z</time>
      </trkpt>
      <trkpt lat="46.73061" lon="-1.98509">
        <ele>14.7</ele>
        <time>2025-01-20T09:28:22.456Z</time>
      </trkpt>
      <trkpt lat="46.7306" lon="-1.98508">
        <ele>14.8</ele>
        <time>2025-01-20T09:28:23.455Z</time>
      </trkpt>
      <trkpt lat="46.7306" lon="-1.98507">
        <ele>14.7</ele>
        <time>2025-01-20T09:28:24.455Z</time>
      </trkpt>
      <trkpt lat="46.73059" lon="-1.98505">
        <ele>14.8</ele>
        <time>2025-01-20T09:28:25.455Z</time>
      </trkpt>
      <trkpt lat="46.73059" lon="-1.98504">
        <ele>14.7</ele>
        <time>2025-01-20T09:28:26.455Z</time>
      </trkpt>
      <trkpt lat="46.73058" lon="-1.98502">
        <ele>14.7</ele>
        <time>2025-01-20T09:28:27.456Z</time>
      </trkpt>
      <trkpt lat="46.73058" lon="-1.98501">
        <ele>14.7</ele>
        <time>2025-01-20T09:28:28.456Z</time>
      </trkpt>
      <trkpt lat="46.73057" lon="-1.98499">
        <ele>14.8</ele>
        <time>2025-01-20T09:28:29.456Z</time>
      </trkpt>
      <trkpt lat="46.73057" lon="-1.98497">
        <ele>14.7</ele>
        <time>2025-01-20T09:28:30.456Z</time>
      </trkpt>
      <trkpt lat="46.73057" lon="-1.98495">
        <ele>14.6</ele>
        <time>2025-01-20T09:28:31.455Z</time>
      </trkpt>
      <trkpt lat="46.73058" lon="-1.98493">
        <ele>14.3</ele>
        <time>2025-01-20T09:28:32.455Z</time>
      </trkpt>
      <trkpt lat="46.73058" lon="-1.98491">
        <ele>14.2</ele>
        <time>2025-01-20T09:28:33.455Z</time>
      </trkpt>
      <trkpt lat="46.73058" lon="-1.98489">
        <ele>14.1</ele>
        <time>2025-01-20T09:28:34.456Z</time>
      </trkpt>
      <trkpt lat="46.73059" lon="-1.98487">
        <ele>13.9</ele>
        <time>2025-01-20T09:28:35.456Z</time>
      </trkpt>
      <trkpt lat="46.73059" lon="-1.98486">
        <ele>13.8</ele>
        <time>2025-01-20T09:28:36.456Z</time>
      </trkpt>
      <trkpt lat="46.73059" lon="-1.98484">
        <ele>13.7</ele>
        <time>2025-01-20T09:28:37.456Z</time>
      </trkpt>
      <trkpt lat="46.73059" lon="-1.98482">
        <ele>13.6</ele>
        <time>2025-01-20T09:28:38.456Z</time>
      </trkpt>
      <trkpt lat="46.73059" lon="-1.9848">
        <ele>13.5</ele>
        <time>2025-01-20T09:28:39.455Z</time>
      </trkpt>
      <trkpt lat="46.73059" lon="-1.98479">
        <ele>13.5</ele>
        <time>2025-01-20T09:28:40.455Z</time>
      </trkpt>
      <trkpt lat="46.73059" lon="-1.98477">
        <ele>13.4</ele>
        <time>2025-01-20T09:28:41.455Z</time>
      </trkpt>
      <trkpt lat="46.73058" lon="-1.98476">
        <ele>13.6</ele>
        <time>2025-01-20T09:28:42.455Z</time>
      </trkpt>
      <trkpt lat="46.73057" lon="-1.98474">
        <ele>13.7</ele>
        <time>2025-01-20T09:28:43.456Z</time>
      </trkpt>
      <trkpt lat="46.73056" lon="-1.98472">
        <ele>13.9</ele>
        <time>2025-01-20T09:28:44.456Z</time>
      </trkpt>
      <trkpt lat="46.73054" lon="-1.9847">
        <ele>13.7</ele>
        <time>2025-01-20T09:28:45.455Z</time>
      </trkpt>
      <trkpt lat="46.73053" lon="-1.98469">
        <ele>13.6</ele>
        <time>2025-01-20T09:28:46.455Z</time>
      </trkpt>
      <trkpt lat="46.73051" lon="-1.98468">
        <ele>13.5</ele>
        <time>2025-01-20T09:28:47.456Z</time>
      </trkpt>
      <trkpt lat="46.7305" lon="-1.98467">
        <ele>13.5</ele>
        <time>2025-01-20T09:28:48.455Z</time>
      </trkpt>
      <trkpt lat="46.73049" lon="-1.98467">
        <ele>13.5</ele>
        <time>2025-01-20T09:28:49.456Z</time>
      </trkpt>
      <trkpt lat="46.73048" lon="-1.98466">
        <ele>13.4</ele>
        <time>2025-01-20T09:28:50.455Z</time>
      </trkpt>
      <trkpt lat="46.73047" lon="-1.98465">
        <ele>13.4</ele>
        <time>2025-01-20T09:28:51.456Z</time>
      </trkpt>
      <trkpt lat="46.73046" lon="-1.98464">
        <ele>13.4</ele>
        <time>2025-01-20T09:28:52.455Z</time>
      </trkpt>
      <trkpt lat="46.73044" lon="-1.98463">
        <ele>13.4</ele>
        <time>2025-01-20T09:28:53.456Z</time>
      </trkpt>
      <trkpt lat="46.73044" lon="-1.98462">
        <ele>13.4</ele>
        <time>2025-01-20T09:28:54.455Z</time>
      </trkpt>
      <trkpt lat="46.73043" lon="-1.98462">
        <ele>13.4</ele>
        <time>2025-01-20T09:28:55.456Z</time>
      </trkpt>
      <trkpt lat="46.73043" lon="-1.98461">
        <ele>13.4</ele>
        <time>2025-01-20T09:28:56.456Z</time>
      </trkpt>
      <trkpt lat="46.73042" lon="-1.9846">
        <ele>13.5</ele>
        <time>2025-01-20T09:28:57.456Z</time>
      </trkpt>
      <trkpt lat="46.73042" lon="-1.98458">
        <ele>13.5</ele>
        <time>2025-01-20T09:28:58.456Z</time>
      </trkpt>
      <trkpt lat="46.73042" lon="-1.98456">
        <ele>13.5</ele>
        <time>2025-01-20T09:28:59.455Z</time>
      </trkpt>
      <trkpt lat="46.73041" lon="-1.98455">
        <ele>13.6</ele>
        <time>2025-01-20T09:29:00.455Z</time>
      </trkpt>
      <trkpt lat="46.7304" lon="-1.98453">
        <ele>13.7</ele>
        <time>2025-01-20T09:29:01.455Z</time>
      </trkpt>
      <trkpt lat="46.73039" lon="-1.98452">
        <ele>13.8</ele>
        <time>2025-01-20T09:29:02.455Z</time>
      </trkpt>
      <trkpt lat="46.73038" lon="-1.98452">
        <ele>13.9</ele>
        <time>2025-01-20T09:29:03.456Z</time>
      </trkpt>
      <trkpt lat="46.73037" lon="-1.98452">
        <ele>14.1</ele>
        <time>2025-01-20T09:29:04.456Z</time>
      </trkpt>
      <trkpt lat="46.73034" lon="-1.98452">
        <ele>14.4</ele>
        <time>2025-01-20T09:29:05.456Z</time>
      </trkpt>
      <trkpt lat="46.73032" lon="-1.98452">
        <ele>14.7</ele>
        <time>2025-01-20T09:29:06.456Z</time>
      </trkpt>
      <trkpt lat="46.73031" lon="-1.98452">
        <ele>14.8</ele>
        <time>2025-01-20T09:29:07.455Z</time>
      </trkpt>
      <trkpt lat="46.73029" lon="-1.98453">
        <ele>14.9</ele>
        <time>2025-01-20T09:29:08.455Z</time>
      </trkpt>
      <trkpt lat="46.73028" lon="-1.98454">
        <ele>14.9</ele>
        <time>2025-01-20T09:29:09.455Z</time>
      </trkpt>
      <trkpt lat="46.73027" lon="-1.98455">
        <ele>14.9</ele>
        <time>2025-01-20T09:29:10.455Z</time>
      </trkpt>
      <trkpt lat="46.73026" lon="-1.98456">
        <ele>14.8</ele>
        <time>2025-01-20T09:29:11.456Z</time>
      </trkpt>
      <trkpt lat="46.73025" lon="-1.98458">
        <ele>14.6</ele>
        <time>2025-01-20T09:29:12.455Z</time>
      </trkpt>
      <trkpt lat="46.73024" lon="-1.98458">
        <ele>14.7</ele>
        <time>2025-01-20T09:29:13.456Z</time>
      </trkpt>
      <trkpt lat="46.73022" lon="-1.98459">
        <ele>14.7</ele>
        <time>2025-01-20T09:29:14.456Z</time>
      </trkpt>
      <trkpt lat="46.73022" lon="-1.9846">
        <ele>14.6</ele>
        <time>2025-01-20T09:29:15.455Z</time>
      </trkpt>
      <trkpt lat="46.73021" lon="-1.98462">
        <ele>14.5</ele>
        <time>2025-01-20T09:29:16.455Z</time>
      </trkpt>
      <trkpt lat="46.7302" lon="-1.98464">
        <ele>14.4</ele>
        <time>2025-01-20T09:29:17.455Z</time>
      </trkpt>
      <trkpt lat="46.73019" lon="-1.98465">
        <ele>14.4</ele>
        <time>2025-01-20T09:29:18.455Z</time>
      </trkpt>
      <trkpt lat="46.73018" lon="-1.98465">
        <ele>14.5</ele>
        <time>2025-01-20T09:29:19.456Z</time>
      </trkpt>
      <trkpt lat="46.73017" lon="-1.98467">
        <ele>14.4</ele>
        <time>2025-01-20T09:29:20.456Z</time>
      </trkpt>
      <trkpt lat="46.73015" lon="-1.98468">
        <ele>14.6</ele>
        <time>2025-01-20T09:29:21.456Z</time>
      </trkpt>
      <trkpt lat="46.73014" lon="-1.98469">
        <ele>14.6</ele>
        <time>2025-01-20T09:29:22.455Z</time>
      </trkpt>
      <trkpt lat="46.73013" lon="-1.9847">
        <ele>14.7</ele>
        <time>2025-01-20T09:29:23.456Z</time>
      </trkpt>
      <trkpt lat="46.73013" lon="-1.98471">
        <ele>14.6</ele>
        <time>2025-01-20T09:29:24.456Z</time>
      </trkpt>
      <trkpt lat="46.73012" lon="-1.98471">
        <ele>14.7</ele>
        <time>2025-01-20T09:29:25.456Z</time>
      </trkpt>
      <trkpt lat="46.73011" lon="-1.98472">
        <ele>14.8</ele>
        <time>2025-01-20T09:29:26.456Z</time>
      </trkpt>
      <trkpt lat="46.7301" lon="-1.98473">
        <ele>14.7</ele>
        <time>2025-01-20T09:29:27.455Z</time>
      </trkpt>
      <trkpt lat="46.73009" lon="-1.98475">
        <ele>14.3</ele>
        <time>2025-01-20T09:29:28.456Z</time>
      </trkpt>
      <trkpt lat="46.73008" lon="-1.98476">
        <ele>14.1</ele>
        <time>2025-01-20T09:29:29.455Z</time>
      </trkpt>
      <trkpt lat="46.73007" lon="-1.98476">
        <ele>14.2</ele>
        <time>2025-01-20T09:29:30.456Z</time>
      </trkpt>
      <trkpt lat="46.73007" lon="-1.98478">
        <ele>13.7</ele>
        <time>2025-01-20T09:29:31.456Z</time>
      </trkpt>
      <trkpt lat="46.73006" lon="-1.98479">
        <ele>13.5</ele>
        <time>2025-01-20T09:29:32.456Z</time>
      </trkpt>
      <trkpt lat="46.73006" lon="-1.98479">
        <ele>13.5</ele>
        <time>2025-01-20T09:29:33.456Z</time>
      </trkpt>
      <trkpt lat="46.73006" lon="-1.98479">
        <ele>13.5</ele>
        <time>2025-01-20T09:29:34.455Z</time>
      </trkpt>
      <trkpt lat="46.73006" lon="-1.98481">
        <ele>13</ele>
        <time>2025-01-20T09:29:35.455Z</time>
      </trkpt>
      <trkpt lat="46.73007" lon="-1.98482">
        <ele>12.6</ele>
        <time>2025-01-20T09:29:36.455Z</time>
      </trkpt>
      <trkpt lat="46.73007" lon="-1.98483">
        <ele>12.3</ele>
        <time>2025-01-20T09:29:37.455Z</time>
      </trkpt>
      <trkpt lat="46.73007" lon="-1.98484">
        <ele>12.1</ele>
        <time>2025-01-20T09:29:38.456Z</time>
      </trkpt>
      <trkpt lat="46.73006" lon="-1.98485">
        <ele>11.9</ele>
        <time>2025-01-20T09:29:39.455Z</time>
      </trkpt>
      <trkpt lat="46.73006" lon="-1.98487">
        <ele>11.3</ele>
        <time>2025-01-20T09:29:40.455Z</time>
      </trkpt>
      <trkpt lat="46.73006" lon="-1.98489">
        <ele>10.8</ele>
        <time>2025-01-20T09:29:41.455Z</time>
      </trkpt>
      <trkpt lat="46.73006" lon="-1.98491">
        <ele>10.2</ele>
        <time>2025-01-20T09:29:42.455Z</time>
      </trkpt>
      <trkpt lat="46.73006" lon="-1.98493">
        <ele>9.7</ele>
        <time>2025-01-20T09:29:43.456Z</time>
      </trkpt>
      <trkpt lat="46.73007" lon="-1.98494">
        <ele>9.4</ele>
        <time>2025-01-20T09:29:44.456Z</time>
      </trkpt>
      <trkpt lat="46.73007" lon="-1.98496">
        <ele>8.8</ele>
        <time>2025-01-20T09:29:45.456Z</time>
      </trkpt>
      <trkpt lat="46.73008" lon="-1.98497">
        <ele>8.5</ele>
        <time>2025-01-20T09:29:46.455Z</time>
      </trkpt>
      <trkpt lat="46.73008" lon="-1.98499">
        <ele>8</ele>
        <time>2025-01-20T09:29:47.455Z</time>
      </trkpt>
      <trkpt lat="46.73009" lon="-1.985">
        <ele>7.7</ele>
        <time>2025-01-20T09:29:48.455Z</time>
      </trkpt>
      <trkpt lat="46.73009" lon="-1.98502">
        <ele>7.5</ele>
        <time>2025-01-20T09:29:49.455Z</time>
      </trkpt>
      <trkpt lat="46.73009" lon="-1.98503">
        <ele>7.4</ele>
        <time>2025-01-20T09:29:50.455Z</time>
      </trkpt>
      <trkpt lat="46.73009" lon="-1.98504">
        <ele>7.3</ele>
        <time>2025-01-20T09:29:51.456Z</time>
      </trkpt>
      <trkpt lat="46.7301" lon="-1.98505">
        <ele>7.2</ele>
        <time>2025-01-20T09:29:52.456Z</time>
      </trkpt>
      <trkpt lat="46.7301" lon="-1.98507">
        <ele>7</ele>
        <time>2025-01-20T09:29:53.456Z</time>
      </trkpt>
      <trkpt lat="46.7301" lon="-1.98508">
        <ele>6.9</ele>
        <time>2025-01-20T09:29:54.456Z</time>
      </trkpt>
      <trkpt lat="46.7301" lon="-1.9851">
        <ele>6.7</ele>
        <time>2025-01-20T09:29:55.456Z</time>
      </trkpt>
      <trkpt lat="46.73011" lon="-1.98512">
        <ele>6.5</ele>
        <time>2025-01-20T09:29:56.455Z</time>
      </trkpt>
      <trkpt lat="46.73012" lon="-1.98514">
        <ele>6.3</ele>
        <time>2025-01-20T09:29:57.455Z</time>
      </trkpt>
      <trkpt lat="46.73012" lon="-1.98515">
        <ele>6.2</ele>
        <time>2025-01-20T09:29:58.455Z</time>
      </trkpt>
      <trkpt lat="46.73012" lon="-1.98518">
        <ele>5.9</ele>
        <time>2025-01-20T09:29:59.456Z</time>
      </trkpt>
      <trkpt lat="46.73012" lon="-1.9852">
        <ele>5.7</ele>
        <time>2025-01-20T09:30:00.456Z</time>
      </trkpt>
      <trkpt lat="46.73013" lon="-1.98521">
        <ele>5.6</ele>
        <time>2025-01-20T09:30:01.456Z</time>
      </trkpt>
      <trkpt lat="46.73014" lon="-1.98523">
        <ele>5.4</ele>
        <time>2025-01-20T09:30:02.456Z</time>
      </trkpt>
      <trkpt lat="46.73015" lon="-1.98524">
        <ele>5.3</ele>
        <time>2025-01-20T09:30:03.455Z</time>
      </trkpt>
      <trkpt lat="46.73015" lon="-1.98526">
        <ele>5.2</ele>
        <time>2025-01-20T09:30:04.455Z</time>
      </trkpt>
      <trkpt lat="46.73015" lon="-1.98526">
        <ele>5.2</ele>
        <time>2025-01-20T09:30:05.455Z</time>
      </trkpt>
      <trkpt lat="46.73015" lon="-1.98528">
        <ele>5</ele>
        <time>2025-01-20T09:30:06.455Z</time>
      </trkpt>
      <trkpt lat="46.73016" lon="-1.98529">
        <ele>5</ele>
        <time>2025-01-20T09:30:07.455Z</time>
      </trkpt>
      <trkpt lat="46.73016" lon="-1.98531">
        <ele>5</ele>
        <time>2025-01-20T09:30:08.455Z</time>
      </trkpt>
      <trkpt lat="46.73016" lon="-1.98532">
        <ele>4.9</ele>
        <time>2025-01-20T09:30:09.456Z</time>
      </trkpt>
      <trkpt lat="46.73016" lon="-1.98533">
        <ele>4.9</ele>
        <time>2025-01-20T09:30:10.455Z</time>
      </trkpt>
      <trkpt lat="46.73015" lon="-1.98535">
        <ele>4.9</ele>
        <time>2025-01-20T09:30:11.455Z</time>
      </trkpt>
      <trkpt lat="46.73015" lon="-1.98536">
        <ele>4.9</ele>
        <time>2025-01-20T09:30:12.455Z</time>
      </trkpt>
      <trkpt lat="46.73015" lon="-1.98538">
        <ele>4.8</ele>
        <time>2025-01-20T09:30:13.455Z</time>
      </trkpt>
      <trkpt lat="46.73014" lon="-1.9854">
        <ele>4.8</ele>
        <time>2025-01-20T09:30:14.455Z</time>
      </trkpt>
      <trkpt lat="46.73014" lon="-1.98542">
        <ele>4.7</ele>
        <time>2025-01-20T09:30:15.455Z</time>
      </trkpt>
      <trkpt lat="46.73014" lon="-1.98544">
        <ele>4.7</ele>
        <time>2025-01-20T09:30:16.455Z</time>
      </trkpt>
      <trkpt lat="46.73014" lon="-1.98545">
        <ele>4.7</ele>
        <time>2025-01-20T09:30:17.455Z</time>
      </trkpt>
      <trkpt lat="46.73014" lon="-1.98547">
        <ele>4.7</ele>
        <time>2025-01-20T09:30:18.455Z</time>
      </trkpt>
      <trkpt lat="46.73014" lon="-1.98549">
        <ele>4.6</ele>
        <time>2025-01-20T09:30:19.456Z</time>
      </trkpt>
      <trkpt lat="46.73014" lon="-1.98551">
        <ele>4.6</ele>
        <time>2025-01-20T09:30:20.455Z</time>
      </trkpt>
      <trkpt lat="46.73014" lon="-1.98553">
        <ele>4.5</ele>
        <time>2025-01-20T09:30:21.455Z</time>
      </trkpt>
      <trkpt lat="46.73015" lon="-1.98555">
        <ele>4.5</ele>
        <time>2025-01-20T09:30:22.455Z</time>
      </trkpt>
      <trkpt lat="46.73015" lon="-1.98557">
        <ele>4.6</ele>
        <time>2025-01-20T09:30:23.455Z</time>
      </trkpt>
      <trkpt lat="46.73015" lon="-1.98558">
        <ele>4.6</ele>
        <time>2025-01-20T09:30:24.456Z</time>
      </trkpt>
      <trkpt lat="46.73015" lon="-1.9856">
        <ele>4.7</ele>
        <time>2025-01-20T09:30:25.456Z</time>
      </trkpt>
      <trkpt lat="46.73015" lon="-1.98562">
        <ele>4.7</ele>
        <time>2025-01-20T09:30:26.455Z</time>
      </trkpt>
      <trkpt lat="46.73015" lon="-1.98564">
        <ele>4.8</ele>
        <time>2025-01-20T09:30:27.456Z</time>
      </trkpt>
      <trkpt lat="46.73016" lon="-1.98566">
        <ele>4.8</ele>
        <time>2025-01-20T09:30:28.455Z</time>
      </trkpt>
      <trkpt lat="46.73016" lon="-1.98567">
        <ele>4.9</ele>
        <time>2025-01-20T09:30:29.456Z</time>
      </trkpt>
      <trkpt lat="46.73016" lon="-1.98569">
        <ele>4.9</ele>
        <time>2025-01-20T09:30:30.456Z</time>
      </trkpt>
      <trkpt lat="46.73016" lon="-1.98571">
        <ele>5</ele>
        <time>2025-01-20T09:30:31.456Z</time>
      </trkpt>
      <trkpt lat="46.73017" lon="-1.98573">
        <ele>5</ele>
        <time>2025-01-20T09:30:32.456Z</time>
      </trkpt>
      <trkpt lat="46.73017" lon="-1.98575">
        <ele>5</ele>
        <time>2025-01-20T09:30:33.455Z</time>
      </trkpt>
      <trkpt lat="46.73017" lon="-1.98577">
        <ele>5</ele>
        <time>2025-01-20T09:30:34.455Z</time>
      </trkpt>
      <trkpt lat="46.73017" lon="-1.98579">
        <ele>5.1</ele>
        <time>2025-01-20T09:30:35.456Z</time>
      </trkpt>
      <trkpt lat="46.73018" lon="-1.98581">
        <ele>5</ele>
        <time>2025-01-20T09:30:36.456Z</time>
      </trkpt>
      <trkpt lat="46.73018" lon="-1.98582">
        <ele>5</ele>
        <time>2025-01-20T09:30:37.456Z</time>
      </trkpt>
      <trkpt lat="46.73018" lon="-1.98584">
        <ele>5</ele>
        <time>2025-01-20T09:30:38.455Z</time>
      </trkpt>
      <trkpt lat="46.73018" lon="-1.98586">
        <ele>5</ele>
        <time>2025-01-20T09:30:39.455Z</time>
      </trkpt>
      <trkpt lat="46.73019" lon="-1.98587">
        <ele>4.9</ele>
        <time>2025-01-20T09:30:40.455Z</time>
      </trkpt>
      <trkpt lat="46.73019" lon="-1.98589">
        <ele>4.9</ele>
        <time>2025-01-20T09:30:41.456Z</time>
      </trkpt>
      <trkpt lat="46.73019" lon="-1.9859">
        <ele>4.9</ele>
        <time>2025-01-20T09:30:42.456Z</time>
      </trkpt>
      <trkpt lat="46.73019" lon="-1.98592">
        <ele>4.8</ele>
        <time>2025-01-20T09:30:43.456Z</time>
      </trkpt>
      <trkpt lat="46.73019" lon="-1.98593">
        <ele>4.8</ele>
        <time>2025-01-20T09:30:44.456Z</time>
      </trkpt>
      <trkpt lat="46.73018" lon="-1.98594">
        <ele>4.9</ele>
        <time>2025-01-20T09:30:45.455Z</time>
      </trkpt>
      <trkpt lat="46.73018" lon="-1.98595">
        <ele>4.9</ele>
        <time>2025-01-20T09:30:46.455Z</time>
      </trkpt>
      <trkpt lat="46.73017" lon="-1.98596">
        <ele>5.1</ele>
        <time>2025-01-20T09:30:47.456Z</time>
      </trkpt>
      <trkpt lat="46.73016" lon="-1.98597">
        <ele>5.2</ele>
        <time>2025-01-20T09:30:48.456Z</time>
      </trkpt>
      <trkpt lat="46.73015" lon="-1.98597">
        <ele>5.3</ele>
        <time>2025-01-20T09:30:49.456Z</time>
      </trkpt>
      <trkpt lat="46.73014" lon="-1.98597">
        <ele>5.5</ele>
        <time>2025-01-20T09:30:50.456Z</time>
      </trkpt>
      <trkpt lat="46.73013" lon="-1.98597">
        <ele>5.6</ele>
        <time>2025-01-20T09:30:51.455Z</time>
      </trkpt>
      <trkpt lat="46.73012" lon="-1.98598">
        <ele>5.8</ele>
        <time>2025-01-20T09:30:52.455Z</time>
      </trkpt>
      <trkpt lat="46.73012" lon="-1.98598">
        <ele>5.8</ele>
        <time>2025-01-20T09:30:53.455Z</time>
      </trkpt>
      <trkpt lat="46.73011" lon="-1.98598">
        <ele>5.9</ele>
        <time>2025-01-20T09:30:54.455Z</time>
      </trkpt>
      <trkpt lat="46.7301" lon="-1.98597">
        <ele>6.1</ele>
        <time>2025-01-20T09:30:55.456Z</time>
      </trkpt>
      <trkpt lat="46.73009" lon="-1.98597">
        <ele>6.2</ele>
        <time>2025-01-20T09:30:56.456Z</time>
      </trkpt>
      <trkpt lat="46.73008" lon="-1.98597">
        <ele>6.3</ele>
        <time>2025-01-20T09:30:57.456Z</time>
      </trkpt>
      <trkpt lat="46.73007" lon="-1.98597">
        <ele>6.5</ele>
        <time>2025-01-20T09:30:58.456Z</time>
      </trkpt>
      <trkpt lat="46.73006" lon="-1.98597">
        <ele>6.6</ele>
        <time>2025-01-20T09:30:59.455Z</time>
      </trkpt>
      <trkpt lat="46.73005" lon="-1.98597">
        <ele>6.8</ele>
        <time>2025-01-20T09:31:00.455Z</time>
      </trkpt>
      <trkpt lat="46.73004" lon="-1.98597">
        <ele>6.9</ele>
        <time>2025-01-20T09:31:01.455Z</time>
      </trkpt>
      <trkpt lat="46.73003" lon="-1.98597">
        <ele>7.1</ele>
        <time>2025-01-20T09:31:02.455Z</time>
      </trkpt>
      <trkpt lat="46.73001" lon="-1.98597">
        <ele>7.3</ele>
        <time>2025-01-20T09:31:03.456Z</time>
      </trkpt>
      <trkpt lat="46.73" lon="-1.98598">
        <ele>7.5</ele>
        <time>2025-01-20T09:31:04.455Z</time>
      </trkpt>
      <trkpt lat="46.72999" lon="-1.98598">
        <ele>7.5</ele>
        <time>2025-01-20T09:31:05.456Z</time>
      </trkpt>
      <trkpt lat="46.72998" lon="-1.98598">
        <ele>7.4</ele>
        <time>2025-01-20T09:31:06.455Z</time>
      </trkpt>
      <trkpt lat="46.72998" lon="-1.98599">
        <ele>7.5</ele>
        <time>2025-01-20T09:31:07.455Z</time>
      </trkpt>
      <trkpt lat="46.72997" lon="-1.98599">
        <ele>7.4</ele>
        <time>2025-01-20T09:31:08.455Z</time>
      </trkpt>
      <trkpt lat="46.72995" lon="-1.98599">
        <ele>7.3</ele>
        <time>2025-01-20T09:31:09.455Z</time>
      </trkpt>
      <trkpt lat="46.72994" lon="-1.98599">
        <ele>7.3</ele>
        <time>2025-01-20T09:31:10.456Z</time>
      </trkpt>
      <trkpt lat="46.72993" lon="-1.986">
        <ele>7.2</ele>
        <time>2025-01-20T09:31:11.456Z</time>
      </trkpt>
      <trkpt lat="46.72992" lon="-1.98601">
        <ele>7.1</ele>
        <time>2025-01-20T09:31:12.456Z</time>
      </trkpt>
      <trkpt lat="46.72991" lon="-1.98602">
        <ele>7</ele>
        <time>2025-01-20T09:31:13.456Z</time>
      </trkpt>
      <trkpt lat="46.72991" lon="-1.98602">
        <ele>7</ele>
        <time>2025-01-20T09:31:14.456Z</time>
      </trkpt>
      <trkpt lat="46.7299" lon="-1.98603">
        <ele>6.9</ele>
        <time>2025-01-20T09:31:15.456Z</time>
      </trkpt>
      <trkpt lat="46.72989" lon="-1.98604">
        <ele>6.8</ele>
        <time>2025-01-20T09:31:16.455Z</time>
      </trkpt>
      <trkpt lat="46.72988" lon="-1.98604">
        <ele>6.7</ele>
        <time>2025-01-20T09:31:17.455Z</time>
      </trkpt>
      <trkpt lat="46.72987" lon="-1.98605">
        <ele>6.5</ele>
        <time>2025-01-20T09:31:18.455Z</time>
      </trkpt>
      <trkpt lat="46.72987" lon="-1.98605">
        <ele>6.5</ele>
        <time>2025-01-20T09:31:19.455Z</time>
      </trkpt>
      <trkpt lat="46.72987" lon="-1.98606">
        <ele>6.5</ele>
        <time>2025-01-20T09:31:20.455Z</time>
      </trkpt>
      <trkpt lat="46.72986" lon="-1.98606">
        <ele>6.4</ele>
        <time>2025-01-20T09:31:21.456Z</time>
      </trkpt>
      <trkpt lat="46.72986" lon="-1.98606">
        <ele>6.4</ele>
        <time>2025-01-20T09:31:22.455Z</time>
      </trkpt>
      <trkpt lat="46.72985" lon="-1.98606">
        <ele>6.3</ele>
        <time>2025-01-20T09:31:23.456Z</time>
      </trkpt>
      <trkpt lat="46.72985" lon="-1.98607">
        <ele>6.2</ele>
        <time>2025-01-20T09:31:24.456Z</time>
      </trkpt>
      <trkpt lat="46.72984" lon="-1.98608">
        <ele>6</ele>
        <time>2025-01-20T09:31:25.455Z</time>
      </trkpt>
      <trkpt lat="46.72984" lon="-1.98609">
        <ele>5.9</ele>
        <time>2025-01-20T09:31:26.455Z</time>
      </trkpt>
      <trkpt lat="46.72984" lon="-1.98609">
        <ele>5.9</ele>
        <time>2025-01-20T09:31:27.455Z</time>
      </trkpt>
      <trkpt lat="46.72984" lon="-1.98609">
        <ele>5.9</ele>
        <time>2025-01-20T09:31:28.455Z</time>
      </trkpt>
      <trkpt lat="46.72985" lon="-1.98608">
        <ele>6.1</ele>
        <time>2025-01-20T09:31:29.455Z</time>
      </trkpt>
      <trkpt lat="46.72985" lon="-1.98608">
        <ele>6.1</ele>
        <time>2025-01-20T09:31:30.456Z</time>
      </trkpt>
      <trkpt lat="46.72985" lon="-1.98607">
        <ele>6.2</ele>
        <time>2025-01-20T09:31:31.456Z</time>
      </trkpt>
      <trkpt lat="46.72984" lon="-1.98607">
        <ele>6.1</ele>
        <time>2025-01-20T09:31:32.456Z</time>
      </trkpt>
      <trkpt lat="46.72984" lon="-1.98607">
        <ele>6.1</ele>
        <time>2025-01-20T09:31:33.455Z</time>
      </trkpt>
      <trkpt lat="46.72984" lon="-1.98607">
        <ele>6.1</ele>
        <time>2025-01-20T09:31:34.456Z</time>
      </trkpt>
      <trkpt lat="46.72984" lon="-1.98607">
        <ele>6.1</ele>
        <time>2025-01-20T09:31:35.456Z</time>
      </trkpt>
      <trkpt lat="46.72984" lon="-1.98608">
        <ele>6</ele>
        <time>2025-01-20T09:31:36.455Z</time>
      </trkpt>
      <trkpt lat="46.72984" lon="-1.98608">
        <ele>6</ele>
        <time>2025-01-20T09:31:37.455Z</time>
      </trkpt>
      <trkpt lat="46.72984" lon="-1.98608">
        <ele>6</ele>
        <time>2025-01-20T09:31:38.455Z</time>
      </trkpt>
      <trkpt lat="46.72984" lon="-1.98608">
        <ele>6</ele>
        <time>2025-01-20T09:31:39.455Z</time>
      </trkpt>
      <trkpt lat="46.72984" lon="-1.98608">
        <ele>6</ele>
        <time>2025-01-20T09:31:40.455Z</time>
      </trkpt>
      <trkpt lat="46.72984" lon="-1.98608">
        <ele>6</ele>
        <time>2025-01-20T09:31:41.456Z</time>
      </trkpt>
      <trkpt lat="46.72984" lon="-1.98608">
        <ele>6</ele>
        <time>2025-01-20T09:31:42.456Z</time>
      </trkpt>
      <trkpt lat="46.72984" lon="-1.98608">
        <ele>6</ele>
        <time>2025-01-20T09:31:43.456Z</time>
      </trkpt>
      <trkpt lat="46.72984" lon="-1.98608">
        <ele>6</ele>
        <time>2025-01-20T09:31:44.455Z</time>
      </trkpt>
      <trkpt lat="46.72984" lon="-1.98608">
        <ele>6</ele>
        <time>2025-01-20T09:31:45.455Z</time>
      </trkpt>
      <trkpt lat="46.72984" lon="-1.98608">
        <ele>6</ele>
        <time>2025-01-20T09:31:46.455Z</time>
      </trkpt>
      <trkpt lat="46.72984" lon="-1.98608">
        <ele>6</ele>
        <time>2025-01-20T09:31:47.455Z</time>
      </trkpt>
      <trkpt lat="46.72984" lon="-1.98608">
        <ele>6</ele>
        <time>2025-01-20T09:31:48.456Z</time>
      </trkpt>
      <trkpt lat="46.72984" lon="-1.98608">
        <ele>6</ele>
        <time>2025-01-20T09:31:49.456Z</time>
      </trkpt>
      <trkpt lat="46.72984" lon="-1.98608">
        <ele>6</ele>
        <time>2025-01-20T09:31:50.456Z</time>
      </trkpt>
      <trkpt lat="46.72984" lon="-1.98608">
        <ele>6</ele>
        <time>2025-01-20T09:31:51.455Z</time>
      </trkpt>
      <trkpt lat="46.72984" lon="-1.98608">
        <ele>6</ele>
        <time>2025-01-20T09:31:52.455Z</time>
      </trkpt>
      <trkpt lat="46.72984" lon="-1.98608">
        <ele>6</ele>
        <time>2025-01-20T09:31:53.455Z</time>
      </trkpt>
      <trkpt lat="46.72984" lon="-1.98608">
        <ele>6</ele>
        <time>2025-01-20T09:31:54.456Z</time>
      </trkpt>
      <trkpt lat="46.72984" lon="-1.98608">
        <ele>6</ele>
        <time>2025-01-20T09:31:55.456Z</time>
      </trkpt>
      <trkpt lat="46.72984" lon="-1.98608">
        <ele>6</ele>
        <time>2025-01-20T09:31:56.456Z</time>
      </trkpt>
      <trkpt lat="46.72984" lon="-1.98608">
        <ele>6</ele>
        <time>2025-01-20T09:31:57.456Z</time>
      </trkpt>
      <trkpt lat="46.72984" lon="-1.98608">
        <ele>6</ele>
        <time>2025-01-20T09:31:58.455Z</time>
      </trkpt>
      <trkpt lat="46.72984" lon="-1.98609">
        <ele>5.9</ele>
        <time>2025-01-20T09:31:59.455Z</time>
      </trkpt>
      <trkpt lat="46.72984" lon="-1.98612">
        <ele>5.7</ele>
        <time>2025-01-20T09:32:00.455Z</time>
      </trkpt>
      <trkpt lat="46.72984" lon="-1.98614">
        <ele>5.8</ele>
        <time>2025-01-20T09:32:01.455Z</time>
      </trkpt>
      <trkpt lat="46.72985" lon="-1.98617">
        <ele>6.1</ele>
        <time>2025-01-20T09:32:02.456Z</time>
      </trkpt>
      <trkpt lat="46.72985" lon="-1.9862">
        <ele>6.2</ele>
        <time>2025-01-20T09:32:03.456Z</time>
      </trkpt>
      <trkpt lat="46.72985" lon="-1.98623">
        <ele>6.3</ele>
        <time>2025-01-20T09:32:04.456Z</time>
      </trkpt>
      <trkpt lat="46.72986" lon="-1.98625">
        <ele>6.5</ele>
        <time>2025-01-20T09:32:05.455Z</time>
      </trkpt>
      <trkpt lat="46.72986" lon="-1.98628">
        <ele>6.6</ele>
        <time>2025-01-20T09:32:06.456Z</time>
      </trkpt>
      <trkpt lat="46.72987" lon="-1.98631">
        <ele>6.8</ele>
        <time>2025-01-20T09:32:07.456Z</time>
      </trkpt>
      <trkpt lat="46.72987" lon="-1.98633">
        <ele>6.9</ele>
        <time>2025-01-20T09:32:08.456Z</time>
      </trkpt>
      <trkpt lat="46.72987" lon="-1.98635">
        <ele>7</ele>
        <time>2025-01-20T09:32:09.455Z</time>
      </trkpt>
      <trkpt lat="46.72987" lon="-1.98636">
        <ele>7</ele>
        <time>2025-01-20T09:32:10.456Z</time>
      </trkpt>
      <trkpt lat="46.72988" lon="-1.98638">
        <ele>7.2</ele>
        <time>2025-01-20T09:32:11.456Z</time>
      </trkpt>
      <trkpt lat="46.72988" lon="-1.98639">
        <ele>7.3</ele>
        <time>2025-01-20T09:32:12.456Z</time>
      </trkpt>
      <trkpt lat="46.72988" lon="-1.98641">
        <ele>7.3</ele>
        <time>2025-01-20T09:32:13.455Z</time>
      </trkpt>
      <trkpt lat="46.72987" lon="-1.98642">
        <ele>7.2</ele>
        <time>2025-01-20T09:32:14.455Z</time>
      </trkpt>
      <trkpt lat="46.72986" lon="-1.98643">
        <ele>7.1</ele>
        <time>2025-01-20T09:32:15.456Z</time>
      </trkpt>
      <trkpt lat="46.72985" lon="-1.98643">
        <ele>6.9</ele>
        <time>2025-01-20T09:32:16.456Z</time>
      </trkpt>
      <trkpt lat="46.72984" lon="-1.98644">
        <ele>6.8</ele>
        <time>2025-01-20T09:32:17.456Z</time>
      </trkpt>
      <trkpt lat="46.72983" lon="-1.98645">
        <ele>6.7</ele>
        <time>2025-01-20T09:32:18.456Z</time>
      </trkpt>
      <trkpt lat="46.72982" lon="-1.98647">
        <ele>6.6</ele>
        <time>2025-01-20T09:32:19.455Z</time>
      </trkpt>
      <trkpt lat="46.72981" lon="-1.98648">
        <ele>6.5</ele>
        <time>2025-01-20T09:32:20.455Z</time>
      </trkpt>
      <trkpt lat="46.72981" lon="-1.9865">
        <ele>6.5</ele>
        <time>2025-01-20T09:32:21.455Z</time>
      </trkpt>
      <trkpt lat="46.72981" lon="-1.98653">
        <ele>6.6</ele>
        <time>2025-01-20T09:32:22.456Z</time>
      </trkpt>
      <trkpt lat="46.72981" lon="-1.98655">
        <ele>6.7</ele>
        <time>2025-01-20T09:32:23.455Z</time>
      </trkpt>
      <trkpt lat="46.72982" lon="-1.98657">
        <ele>6.8</ele>
        <time>2025-01-20T09:32:24.455Z</time>
      </trkpt>
      <trkpt lat="46.72983" lon="-1.98659">
        <ele>7</ele>
        <time>2025-01-20T09:32:25.455Z</time>
      </trkpt>
      <trkpt lat="46.72983" lon="-1.98661">
        <ele>7</ele>
        <time>2025-01-20T09:32:26.455Z</time>
      </trkpt>
      <trkpt lat="46.72984" lon="-1.98663">
        <ele>7.2</ele>
        <time>2025-01-20T09:32:27.456Z</time>
      </trkpt>
      <trkpt lat="46.72984" lon="-1.98665">
        <ele>7.2</ele>
        <time>2025-01-20T09:32:28.456Z</time>
      </trkpt>
      <trkpt lat="46.72985" lon="-1.98667">
        <ele>7.4</ele>
        <time>2025-01-20T09:32:29.455Z</time>
      </trkpt>
      <trkpt lat="46.72985" lon="-1.98669">
        <ele>7.3</ele>
        <time>2025-01-20T09:32:30.456Z</time>
      </trkpt>
      <trkpt lat="46.72986" lon="-1.98671">
        <ele>7.3</ele>
        <time>2025-01-20T09:32:31.456Z</time>
      </trkpt>
      <trkpt lat="46.72987" lon="-1.98673">
        <ele>7.4</ele>
        <time>2025-01-20T09:32:32.455Z</time>
      </trkpt>
      <trkpt lat="46.72987" lon="-1.98675">
        <ele>7.3</ele>
        <time>2025-01-20T09:32:33.456Z</time>
      </trkpt>
      <trkpt lat="46.72987" lon="-1.98676">
        <ele>7.3</ele>
        <time>2025-01-20T09:32:34.456Z</time>
      </trkpt>
      <trkpt lat="46.72987" lon="-1.98678">
        <ele>7.2</ele>
        <time>2025-01-20T09:32:35.456Z</time>
      </trkpt>
      <trkpt lat="46.72986" lon="-1.98679">
        <ele>7</ele>
        <time>2025-01-20T09:32:36.456Z</time>
      </trkpt>
      <trkpt lat="46.72985" lon="-1.98681">
        <ele>6.9</ele>
        <time>2025-01-20T09:32:37.455Z</time>
      </trkpt>
      <trkpt lat="46.72985" lon="-1.98683">
        <ele>6.8</ele>
        <time>2025-01-20T09:32:38.456Z</time>
      </trkpt>
      <trkpt lat="46.72985" lon="-1.98685">
        <ele>6.7</ele>
        <time>2025-01-20T09:32:39.456Z</time>
      </trkpt>
      <trkpt lat="46.72985" lon="-1.98687">
        <ele>6.6</ele>
        <time>2025-01-20T09:32:40.456Z</time>
      </trkpt>
      <trkpt lat="46.72986" lon="-1.98689">
        <ele>6.7</ele>
        <time>2025-01-20T09:32:41.455Z</time>
      </trkpt>
      <trkpt lat="46.72987" lon="-1.98691">
        <ele>6.7</ele>
        <time>2025-01-20T09:32:42.455Z</time>
      </trkpt>
      <trkpt lat="46.72987" lon="-1.98693">
        <ele>6.6</ele>
        <time>2025-01-20T09:32:43.456Z</time>
      </trkpt>
      <trkpt lat="46.72988" lon="-1.98694">
        <ele>6.7</ele>
        <time>2025-01-20T09:32:44.455Z</time>
      </trkpt>
      <trkpt lat="46.72989" lon="-1.98696">
        <ele>6.8</ele>
        <time>2025-01-20T09:32:45.455Z</time>
      </trkpt>
      <trkpt lat="46.7299" lon="-1.98696">
        <ele>6.9</ele>
        <time>2025-01-20T09:32:46.456Z</time>
      </trkpt>
      <trkpt lat="46.72992" lon="-1.98697">
        <ele>7</ele>
        <time>2025-01-20T09:32:47.455Z</time>
      </trkpt>
      <trkpt lat="46.72992" lon="-1.98698">
        <ele>7</ele>
        <time>2025-01-20T09:32:48.455Z</time>
      </trkpt>
      <trkpt lat="46.72993" lon="-1.98699">
        <ele>7.1</ele>
        <time>2025-01-20T09:32:49.456Z</time>
      </trkpt>
      <trkpt lat="46.72994" lon="-1.987">
        <ele>7.2</ele>
        <time>2025-01-20T09:32:50.456Z</time>
      </trkpt>
      <trkpt lat="46.72994" lon="-1.98702">
        <ele>7.1</ele>
        <time>2025-01-20T09:32:51.456Z</time>
      </trkpt>
      <trkpt lat="46.72995" lon="-1.98703">
        <ele>7.2</ele>
        <time>2025-01-20T09:32:52.456Z</time>
      </trkpt>
      <trkpt lat="46.72996" lon="-1.98705">
        <ele>7.2</ele>
        <time>2025-01-20T09:32:53.455Z</time>
      </trkpt>
      <trkpt lat="46.72997" lon="-1.98706">
        <ele>7.3</ele>
        <time>2025-01-20T09:32:54.456Z</time>
      </trkpt>
      <trkpt lat="46.72998" lon="-1.98708">
        <ele>7.3</ele>
        <time>2025-01-20T09:32:55.456Z</time>
      </trkpt>
      <trkpt lat="46.72999" lon="-1.9871">
        <ele>7.3</ele>
        <time>2025-01-20T09:32:56.455Z</time>
      </trkpt>
      <trkpt lat="46.73" lon="-1.98711">
        <ele>7.4</ele>
        <time>2025-01-20T09:32:57.456Z</time>
      </trkpt>
      <trkpt lat="46.73" lon="-1.98713">
        <ele>7.3</ele>
        <time>2025-01-20T09:32:58.456Z</time>
      </trkpt>
      <trkpt lat="46.73001" lon="-1.98714">
        <ele>7.2</ele>
        <time>2025-01-20T09:32:59.455Z</time>
      </trkpt>
      <trkpt lat="46.73001" lon="-1.98716">
        <ele>7.1</ele>
        <time>2025-01-20T09:33:00.456Z</time>
      </trkpt>
      <trkpt lat="46.73002" lon="-1.98718">
        <ele>6.9</ele>
        <time>2025-01-20T09:33:01.455Z</time>
      </trkpt>
      <trkpt lat="46.73002" lon="-1.9872">
        <ele>6.9</ele>
        <time>2025-01-20T09:33:02.456Z</time>
      </trkpt>
      <trkpt lat="46.73002" lon="-1.98722">
        <ele>6.8</ele>
        <time>2025-01-20T09:33:03.455Z</time>
      </trkpt>
      <trkpt lat="46.73003" lon="-1.98724">
        <ele>6.7</ele>
        <time>2025-01-20T09:33:04.456Z</time>
      </trkpt>
      <trkpt lat="46.73003" lon="-1.98726">
        <ele>6.8</ele>
        <time>2025-01-20T09:33:05.455Z</time>
      </trkpt>
      <trkpt lat="46.73003" lon="-1.98728">
        <ele>6.9</ele>
        <time>2025-01-20T09:33:06.455Z</time>
      </trkpt>
      <trkpt lat="46.73004" lon="-1.9873">
        <ele>6.8</ele>
        <time>2025-01-20T09:33:07.456Z</time>
      </trkpt>
      <trkpt lat="46.73004" lon="-1.98731">
        <ele>6.9</ele>
        <time>2025-01-20T09:33:08.456Z</time>
      </trkpt>
      <trkpt lat="46.73004" lon="-1.98733">
        <ele>7</ele>
        <time>2025-01-20T09:33:09.455Z</time>
      </trkpt>
      <trkpt lat="46.73003" lon="-1.98735">
        <ele>7.1</ele>
        <time>2025-01-20T09:33:10.456Z</time>
      </trkpt>
      <trkpt lat="46.73003" lon="-1.98737">
        <ele>7.2</ele>
        <time>2025-01-20T09:33:11.456Z</time>
      </trkpt>
      <trkpt lat="46.73004" lon="-1.98739">
        <ele>7.2</ele>
        <time>2025-01-20T09:33:12.456Z</time>
      </trkpt>
      <trkpt lat="46.73003" lon="-1.98741">
        <ele>7.4</ele>
        <time>2025-01-20T09:33:13.455Z</time>
      </trkpt>
      <trkpt lat="46.73003" lon="-1.98743">
        <ele>7.4</ele>
        <time>2025-01-20T09:33:14.455Z</time>
      </trkpt>
      <trkpt lat="46.73003" lon="-1.98745">
        <ele>7.5</ele>
        <time>2025-01-20T09:33:15.456Z</time>
      </trkpt>
      <trkpt lat="46.73003" lon="-1.98747">
        <ele>7.6</ele>
        <time>2025-01-20T09:33:16.456Z</time>
      </trkpt>
      <trkpt lat="46.73003" lon="-1.98749">
        <ele>7.6</ele>
        <time>2025-01-20T09:33:17.456Z</time>
      </trkpt>
      <trkpt lat="46.73003" lon="-1.98751">
        <ele>7.6</ele>
        <time>2025-01-20T09:33:18.456Z</time>
      </trkpt>
      <trkpt lat="46.73003" lon="-1.98753">
        <ele>7.5</ele>
        <time>2025-01-20T09:33:19.455Z</time>
      </trkpt>
      <trkpt lat="46.73003" lon="-1.98754">
        <ele>7.4</ele>
        <time>2025-01-20T09:33:20.455Z</time>
      </trkpt>
      <trkpt lat="46.73003" lon="-1.98756">
        <ele>7.3</ele>
        <time>2025-01-20T09:33:21.455Z</time>
      </trkpt>
      <trkpt lat="46.73003" lon="-1.98758">
        <ele>7.1</ele>
        <time>2025-01-20T09:33:22.455Z</time>
      </trkpt>
      <trkpt lat="46.73002" lon="-1.98759">
        <ele>7.2</ele>
        <time>2025-01-20T09:33:23.455Z</time>
      </trkpt>
      <trkpt lat="46.73002" lon="-1.9876">
        <ele>7.1</ele>
        <time>2025-01-20T09:33:24.455Z</time>
      </trkpt>
      <trkpt lat="46.73002" lon="-1.98762">
        <ele>7</ele>
        <time>2025-01-20T09:33:25.455Z</time>
      </trkpt>
      <trkpt lat="46.73001" lon="-1.98764">
        <ele>6.9</ele>
        <time>2025-01-20T09:33:26.456Z</time>
      </trkpt>
      <trkpt lat="46.73001" lon="-1.98765">
        <ele>6.8</ele>
        <time>2025-01-20T09:33:27.456Z</time>
      </trkpt>
      <trkpt lat="46.73001" lon="-1.98767">
        <ele>6.7</ele>
        <time>2025-01-20T09:33:28.456Z</time>
      </trkpt>
      <trkpt lat="46.73001" lon="-1.98769">
        <ele>6.5</ele>
        <time>2025-01-20T09:33:29.455Z</time>
      </trkpt>
      <trkpt lat="46.73001" lon="-1.98771">
        <ele>6.4</ele>
        <time>2025-01-20T09:33:30.455Z</time>
      </trkpt>
      <trkpt lat="46.73001" lon="-1.98773">
        <ele>6.3</ele>
        <time>2025-01-20T09:33:31.455Z</time>
      </trkpt>
      <trkpt lat="46.73002" lon="-1.98776">
        <ele>6</ele>
        <time>2025-01-20T09:33:32.455Z</time>
      </trkpt>
      <trkpt lat="46.73002" lon="-1.98777">
        <ele>5.9</ele>
        <time>2025-01-20T09:33:33.455Z</time>
      </trkpt>
      <trkpt lat="46.73002" lon="-1.98779">
        <ele>5.8</ele>
        <time>2025-01-20T09:33:34.456Z</time>
      </trkpt>
      <trkpt lat="46.73003" lon="-1.98781">
        <ele>5.7</ele>
        <time>2025-01-20T09:33:35.456Z</time>
      </trkpt>
      <trkpt lat="46.73004" lon="-1.98782">
        <ele>5.6</ele>
        <time>2025-01-20T09:33:36.456Z</time>
      </trkpt>
      <trkpt lat="46.73004" lon="-1.98784">
        <ele>5.5</ele>
        <time>2025-01-20T09:33:37.456Z</time>
      </trkpt>
      <trkpt lat="46.73004" lon="-1.98786">
        <ele>5.5</ele>
        <time>2025-01-20T09:33:38.456Z</time>
      </trkpt>
      <trkpt lat="46.73004" lon="-1.98788">
        <ele>5.4</ele>
        <time>2025-01-20T09:33:39.456Z</time>
      </trkpt>
      <trkpt lat="46.73004" lon="-1.9879">
        <ele>5.3</ele>
        <time>2025-01-20T09:33:40.455Z</time>
      </trkpt>
      <trkpt lat="46.73005" lon="-1.98791">
        <ele>5.2</ele>
        <time>2025-01-20T09:33:41.455Z</time>
      </trkpt>
      <trkpt lat="46.73005" lon="-1.98793">
        <ele>5.2</ele>
        <time>2025-01-20T09:33:42.455Z</time>
      </trkpt>
      <trkpt lat="46.73005" lon="-1.98795">
        <ele>5.1</ele>
        <time>2025-01-20T09:33:43.455Z</time>
      </trkpt>
      <trkpt lat="46.73005" lon="-1.98797">
        <ele>5.1</ele>
        <time>2025-01-20T09:33:44.456Z</time>
      </trkpt>
      <trkpt lat="46.73005" lon="-1.98799">
        <ele>5</ele>
        <time>2025-01-20T09:33:45.456Z</time>
      </trkpt>
      <trkpt lat="46.73005" lon="-1.98801">
        <ele>5</ele>
        <time>2025-01-20T09:33:46.456Z</time>
      </trkpt>
      <trkpt lat="46.73005" lon="-1.98804">
        <ele>4.9</ele>
        <time>2025-01-20T09:33:47.455Z</time>
      </trkpt>
      <trkpt lat="46.73005" lon="-1.98807">
        <ele>4.9</ele>
        <time>2025-01-20T09:33:48.455Z</time>
      </trkpt>
      <trkpt lat="46.73005" lon="-1.98809">
        <ele>4.9</ele>
        <time>2025-01-20T09:33:49.455Z</time>
      </trkpt>
      <trkpt lat="46.73004" lon="-1.98811">
        <ele>5</ele>
        <time>2025-01-20T09:33:50.456Z</time>
      </trkpt>
      <trkpt lat="46.73004" lon="-1.98813">
        <ele>5.1</ele>
        <time>2025-01-20T09:33:51.456Z</time>
      </trkpt>
      <trkpt lat="46.73004" lon="-1.98814">
        <ele>5.1</ele>
        <time>2025-01-20T09:33:52.456Z</time>
      </trkpt>
      <trkpt lat="46.73004" lon="-1.98816">
        <ele>5.2</ele>
        <time>2025-01-20T09:33:53.456Z</time>
      </trkpt>
      <trkpt lat="46.73004" lon="-1.98817">
        <ele>5.2</ele>
        <time>2025-01-20T09:33:54.456Z</time>
      </trkpt>
      <trkpt lat="46.73004" lon="-1.98818">
        <ele>5.2</ele>
        <time>2025-01-20T09:33:55.456Z</time>
      </trkpt>
      <trkpt lat="46.73005" lon="-1.9882">
        <ele>5.2</ele>
        <time>2025-01-20T09:33:56.456Z</time>
      </trkpt>
      <trkpt lat="46.73005" lon="-1.98822">
        <ele>5.3</ele>
        <time>2025-01-20T09:33:57.455Z</time>
      </trkpt>
      <trkpt lat="46.73005" lon="-1.98823">
        <ele>5.3</ele>
        <time>2025-01-20T09:33:58.456Z</time>
      </trkpt>
      <trkpt lat="46.73006" lon="-1.98825">
        <ele>5.3</ele>
        <time>2025-01-20T09:33:59.455Z</time>
      </trkpt>
      <trkpt lat="46.73007" lon="-1.98827">
        <ele>5.3</ele>
        <time>2025-01-20T09:34:00.455Z</time>
      </trkpt>
      <trkpt lat="46.73007" lon="-1.9883">
        <ele>5.4</ele>
        <time>2025-01-20T09:34:01.455Z</time>
      </trkpt>
      <trkpt lat="46.73008" lon="-1.98832">
        <ele>5.4</ele>
        <time>2025-01-20T09:34:02.455Z</time>
      </trkpt>
      <trkpt lat="46.73007" lon="-1.98834">
        <ele>5.5</ele>
        <time>2025-01-20T09:34:03.455Z</time>
      </trkpt>
      <trkpt lat="46.73007" lon="-1.98836">
        <ele>5.4</ele>
        <time>2025-01-20T09:34:04.455Z</time>
      </trkpt>
      <trkpt lat="46.73007" lon="-1.98837">
        <ele>5.4</ele>
        <time>2025-01-20T09:34:05.456Z</time>
      </trkpt>
      <trkpt lat="46.73007" lon="-1.98839">
        <ele>5.3</ele>
        <time>2025-01-20T09:34:06.456Z</time>
      </trkpt>
      <trkpt lat="46.73007" lon="-1.98841">
        <ele>5.3</ele>
        <time>2025-01-20T09:34:07.456Z</time>
      </trkpt>
      <trkpt lat="46.73008" lon="-1.98844">
        <ele>5.2</ele>
        <time>2025-01-20T09:34:08.456Z</time>
      </trkpt>
      <trkpt lat="46.73008" lon="-1.98846">
        <ele>5.1</ele>
        <time>2025-01-20T09:34:09.456Z</time>
      </trkpt>
      <trkpt lat="46.73008" lon="-1.98848">
        <ele>5</ele>
        <time>2025-01-20T09:34:10.456Z</time>
      </trkpt>
      <trkpt lat="46.73009" lon="-1.98849">
        <ele>5</ele>
        <time>2025-01-20T09:34:11.456Z</time>
      </trkpt>
      <trkpt lat="46.73009" lon="-1.98851">
        <ele>4.9</ele>
        <time>2025-01-20T09:34:12.456Z</time>
      </trkpt>
      <trkpt lat="46.7301" lon="-1.98853">
        <ele>4.8</ele>
        <time>2025-01-20T09:34:13.455Z</time>
      </trkpt>
      <trkpt lat="46.7301" lon="-1.98855">
        <ele>4.8</ele>
        <time>2025-01-20T09:34:14.456Z</time>
      </trkpt>
      <trkpt lat="46.7301" lon="-1.98857">
        <ele>4.7</ele>
        <time>2025-01-20T09:34:15.456Z</time>
      </trkpt>
      <trkpt lat="46.73009" lon="-1.98859">
        <ele>4.7</ele>
        <time>2025-01-20T09:34:16.455Z</time>
      </trkpt>
      <trkpt lat="46.73009" lon="-1.9886">
        <ele>4.7</ele>
        <time>2025-01-20T09:34:17.455Z</time>
      </trkpt>
      <trkpt lat="46.73009" lon="-1.98862">
        <ele>4.7</ele>
        <time>2025-01-20T09:34:18.455Z</time>
      </trkpt>
      <trkpt lat="46.73009" lon="-1.98864">
        <ele>4.6</ele>
        <time>2025-01-20T09:34:19.455Z</time>
      </trkpt>
      <trkpt lat="46.73009" lon="-1.98866">
        <ele>4.6</ele>
        <time>2025-01-20T09:34:20.455Z</time>
      </trkpt>
      <trkpt lat="46.73009" lon="-1.98868">
        <ele>4.6</ele>
        <time>2025-01-20T09:34:21.456Z</time>
      </trkpt>
      <trkpt lat="46.73009" lon="-1.9887">
        <ele>4.6</ele>
        <time>2025-01-20T09:34:22.456Z</time>
      </trkpt>
      <trkpt lat="46.7301" lon="-1.98873">
        <ele>4.5</ele>
        <time>2025-01-20T09:34:23.456Z</time>
      </trkpt>
      <trkpt lat="46.7301" lon="-1.98875">
        <ele>4.5</ele>
        <time>2025-01-20T09:34:24.456Z</time>
      </trkpt>
      <trkpt lat="46.7301" lon="-1.98877">
        <ele>4.5</ele>
        <time>2025-01-20T09:34:25.456Z</time>
      </trkpt>
      <trkpt lat="46.73011" lon="-1.98879">
        <ele>4.5</ele>
        <time>2025-01-20T09:34:26.456Z</time>
      </trkpt>
      <trkpt lat="46.73011" lon="-1.98881">
        <ele>4.5</ele>
        <time>2025-01-20T09:34:27.455Z</time>
      </trkpt>
      <trkpt lat="46.73011" lon="-1.98882">
        <ele>4.4</ele>
        <time>2025-01-20T09:34:28.455Z</time>
      </trkpt>
      <trkpt lat="46.73012" lon="-1.98884">
        <ele>4.5</ele>
        <time>2025-01-20T09:34:29.456Z</time>
      </trkpt>
      <trkpt lat="46.73012" lon="-1.98886">
        <ele>4.4</ele>
        <time>2025-01-20T09:34:30.455Z</time>
      </trkpt>
      <trkpt lat="46.73012" lon="-1.98888">
        <ele>4.4</ele>
        <time>2025-01-20T09:34:31.456Z</time>
      </trkpt>
      <trkpt lat="46.73011" lon="-1.9889">
        <ele>4.4</ele>
        <time>2025-01-20T09:34:32.456Z</time>
      </trkpt>
      <trkpt lat="46.73011" lon="-1.98892">
        <ele>4.5</ele>
        <time>2025-01-20T09:34:33.456Z</time>
      </trkpt>
      <trkpt lat="46.7301" lon="-1.98894">
        <ele>4.6</ele>
        <time>2025-01-20T09:34:34.456Z</time>
      </trkpt>
      <trkpt lat="46.73009" lon="-1.98895">
        <ele>4.6</ele>
        <time>2025-01-20T09:34:35.455Z</time>
      </trkpt>
      <trkpt lat="46.73009" lon="-1.98896">
        <ele>4.7</ele>
        <time>2025-01-20T09:34:36.455Z</time>
      </trkpt>
      <trkpt lat="46.73009" lon="-1.98898">
        <ele>4.8</ele>
        <time>2025-01-20T09:34:37.455Z</time>
      </trkpt>
      <trkpt lat="46.73009" lon="-1.98899">
        <ele>4.8</ele>
        <time>2025-01-20T09:34:38.455Z</time>
      </trkpt>
      <trkpt lat="46.73009" lon="-1.98901">
        <ele>4.9</ele>
        <time>2025-01-20T09:34:39.455Z</time>
      </trkpt>
      <trkpt lat="46.73009" lon="-1.98903">
        <ele>5</ele>
        <time>2025-01-20T09:34:40.455Z</time>
      </trkpt>
      <trkpt lat="46.73008" lon="-1.98904">
        <ele>5.1</ele>
        <time>2025-01-20T09:34:41.456Z</time>
      </trkpt>
      <trkpt lat="46.73008" lon="-1.98906">
        <ele>5.2</ele>
        <time>2025-01-20T09:34:42.456Z</time>
      </trkpt>
      <trkpt lat="46.73007" lon="-1.98908">
        <ele>5.3</ele>
        <time>2025-01-20T09:34:43.456Z</time>
      </trkpt>
      <trkpt lat="46.73007" lon="-1.9891">
        <ele>5.4</ele>
        <time>2025-01-20T09:34:44.456Z</time>
      </trkpt>
      <trkpt lat="46.73007" lon="-1.98912">
        <ele>5.5</ele>
        <time>2025-01-20T09:34:45.456Z</time>
      </trkpt>
      <trkpt lat="46.73007" lon="-1.98913">
        <ele>5.6</ele>
        <time>2025-01-20T09:34:46.455Z</time>
      </trkpt>
      <trkpt lat="46.73007" lon="-1.98915">
        <ele>5.7</ele>
        <time>2025-01-20T09:34:47.456Z</time>
      </trkpt>
      <trkpt lat="46.73006" lon="-1.98917">
        <ele>5.8</ele>
        <time>2025-01-20T09:34:48.456Z</time>
      </trkpt>
      <trkpt lat="46.73005" lon="-1.98919">
        <ele>6</ele>
        <time>2025-01-20T09:34:49.456Z</time>
      </trkpt>
      <trkpt lat="46.73004" lon="-1.9892">
        <ele>6.1</ele>
        <time>2025-01-20T09:34:50.456Z</time>
      </trkpt>
      <trkpt lat="46.73003" lon="-1.98922">
        <ele>6.4</ele>
        <time>2025-01-20T09:34:51.456Z</time>
      </trkpt>
      <trkpt lat="46.73002" lon="-1.98923">
        <ele>6.5</ele>
        <time>2025-01-20T09:34:52.456Z</time>
      </trkpt>
      <trkpt lat="46.73002" lon="-1.98926">
        <ele>6.8</ele>
        <time>2025-01-20T09:34:53.455Z</time>
      </trkpt>
      <trkpt lat="46.73001" lon="-1.98928">
        <ele>7.1</ele>
        <time>2025-01-20T09:34:54.455Z</time>
      </trkpt>
      <trkpt lat="46.73001" lon="-1.98929">
        <ele>7.2</ele>
        <time>2025-01-20T09:34:55.455Z</time>
      </trkpt>
      <trkpt lat="46.73" lon="-1.9893">
        <ele>7.4</ele>
        <time>2025-01-20T09:34:56.455Z</time>
      </trkpt>
      <trkpt lat="46.73" lon="-1.98932">
        <ele>7.7</ele>
        <time>2025-01-20T09:34:57.455Z</time>
      </trkpt>
      <trkpt lat="46.73" lon="-1.98933">
        <ele>7.8</ele>
        <time>2025-01-20T09:34:58.456Z</time>
      </trkpt>
      <trkpt lat="46.72999" lon="-1.98935">
        <ele>7.8</ele>
        <time>2025-01-20T09:34:59.456Z</time>
      </trkpt>
      <trkpt lat="46.72998" lon="-1.98936">
        <ele>7.8</ele>
        <time>2025-01-20T09:35:00.456Z</time>
      </trkpt>
      <trkpt lat="46.72997" lon="-1.98937">
        <ele>7.7</ele>
        <time>2025-01-20T09:35:01.455Z</time>
      </trkpt>
      <trkpt lat="46.72996" lon="-1.98939">
        <ele>7.8</ele>
        <time>2025-01-20T09:35:02.455Z</time>
      </trkpt>
      <trkpt lat="46.72996" lon="-1.9894">
        <ele>7.9</ele>
        <time>2025-01-20T09:35:03.455Z</time>
      </trkpt>
      <trkpt lat="46.72995" lon="-1.98942">
        <ele>7.9</ele>
        <time>2025-01-20T09:35:04.456Z</time>
      </trkpt>
      <trkpt lat="46.72994" lon="-1.98943">
        <ele>7.8</ele>
        <time>2025-01-20T09:35:05.456Z</time>
      </trkpt>
      <trkpt lat="46.72994" lon="-1.98945">
        <ele>7.9</ele>
        <time>2025-01-20T09:35:06.456Z</time>
      </trkpt>
      <trkpt lat="46.72993" lon="-1.98946">
        <ele>7.6</ele>
        <time>2025-01-20T09:35:07.456Z</time>
      </trkpt>
      <trkpt lat="46.72992" lon="-1.98948">
        <ele>7.2</ele>
        <time>2025-01-20T09:35:08.456Z</time>
      </trkpt>
      <trkpt lat="46.72992" lon="-1.98949">
        <ele>7.1</ele>
        <time>2025-01-20T09:35:09.456Z</time>
      </trkpt>
      <trkpt lat="46.72991" lon="-1.9895">
        <ele>6.9</ele>
        <time>2025-01-20T09:35:10.455Z</time>
      </trkpt>
      <trkpt lat="46.7299" lon="-1.98951">
        <ele>6.7</ele>
        <time>2025-01-20T09:35:11.455Z</time>
      </trkpt>
      <trkpt lat="46.72989" lon="-1.98952">
        <ele>6.5</ele>
        <time>2025-01-20T09:35:12.455Z</time>
      </trkpt>
      <trkpt lat="46.72989" lon="-1.98954">
        <ele>6.3</ele>
        <time>2025-01-20T09:35:13.455Z</time>
      </trkpt>
      <trkpt lat="46.72988" lon="-1.98955">
        <ele>6.1</ele>
        <time>2025-01-20T09:35:14.455Z</time>
      </trkpt>
      <trkpt lat="46.72987" lon="-1.98956">
        <ele>6</ele>
        <time>2025-01-20T09:35:15.456Z</time>
      </trkpt>
      <trkpt lat="46.72986" lon="-1.98957">
        <ele>5.8</ele>
        <time>2025-01-20T09:35:16.456Z</time>
      </trkpt>
      <trkpt lat="46.72985" lon="-1.98958">
        <ele>5.7</ele>
        <time>2025-01-20T09:35:17.456Z</time>
      </trkpt>
      <trkpt lat="46.72985" lon="-1.9896">
        <ele>5.6</ele>
        <time>2025-01-20T09:35:18.456Z</time>
      </trkpt>
      <trkpt lat="46.72984" lon="-1.98961">
        <ele>5.5</ele>
        <time>2025-01-20T09:35:19.456Z</time>
      </trkpt>
      <trkpt lat="46.72984" lon="-1.98962">
        <ele>5.4</ele>
        <time>2025-01-20T09:35:20.456Z</time>
      </trkpt>
      <trkpt lat="46.72983" lon="-1.98963">
        <ele>5.3</ele>
        <time>2025-01-20T09:35:21.455Z</time>
      </trkpt>
      <trkpt lat="46.72981" lon="-1.98964">
        <ele>5.2</ele>
        <time>2025-01-20T09:35:22.455Z</time>
      </trkpt>
      <trkpt lat="46.7298" lon="-1.98964">
        <ele>5.1</ele>
        <time>2025-01-20T09:35:23.455Z</time>
      </trkpt>
      <trkpt lat="46.72979" lon="-1.98965">
        <ele>5.1</ele>
        <time>2025-01-20T09:35:24.455Z</time>
      </trkpt>
      <trkpt lat="46.72978" lon="-1.98966">
        <ele>5</ele>
        <time>2025-01-20T09:35:25.455Z</time>
      </trkpt>
      <trkpt lat="46.72977" lon="-1.98967">
        <ele>5</ele>
        <time>2025-01-20T09:35:26.456Z</time>
      </trkpt>
      <trkpt lat="46.72976" lon="-1.98968">
        <ele>5</ele>
        <time>2025-01-20T09:35:27.456Z</time>
      </trkpt>
      <trkpt lat="46.72975" lon="-1.98969">
        <ele>4.9</ele>
        <time>2025-01-20T09:35:28.456Z</time>
      </trkpt>
      <trkpt lat="46.72975" lon="-1.9897">
        <ele>5</ele>
        <time>2025-01-20T09:35:29.455Z</time>
      </trkpt>
      <trkpt lat="46.72974" lon="-1.98971">
        <ele>5</ele>
        <time>2025-01-20T09:35:30.456Z</time>
      </trkpt>
      <trkpt lat="46.72974" lon="-1.98972">
        <ele>5</ele>
        <time>2025-01-20T09:35:31.456Z</time>
      </trkpt>
      <trkpt lat="46.72973" lon="-1.98973">
        <ele>5</ele>
        <time>2025-01-20T09:35:32.455Z</time>
      </trkpt>
      <trkpt lat="46.72973" lon="-1.98974">
        <ele>4.9</ele>
        <time>2025-01-20T09:35:33.455Z</time>
      </trkpt>
      <trkpt lat="46.72972" lon="-1.98976">
        <ele>4.9</ele>
        <time>2025-01-20T09:35:34.455Z</time>
      </trkpt>
      <trkpt lat="46.72972" lon="-1.98977">
        <ele>4.8</ele>
        <time>2025-01-20T09:35:35.455Z</time>
      </trkpt>
      <trkpt lat="46.72971" lon="-1.98978">
        <ele>4.8</ele>
        <time>2025-01-20T09:35:36.455Z</time>
      </trkpt>
      <trkpt lat="46.7297" lon="-1.98979">
        <ele>4.7</ele>
        <time>2025-01-20T09:35:37.456Z</time>
      </trkpt>
      <trkpt lat="46.7297" lon="-1.98981">
        <ele>4.6</ele>
        <time>2025-01-20T09:35:38.455Z</time>
      </trkpt>
      <trkpt lat="46.72969" lon="-1.98982">
        <ele>4.6</ele>
        <time>2025-01-20T09:35:39.455Z</time>
      </trkpt>
      <trkpt lat="46.72968" lon="-1.98983">
        <ele>4.5</ele>
        <time>2025-01-20T09:35:40.455Z</time>
      </trkpt>
      <trkpt lat="46.72967" lon="-1.98985">
        <ele>4.4</ele>
        <time>2025-01-20T09:35:41.455Z</time>
      </trkpt>
      <trkpt lat="46.72965" lon="-1.98986">
        <ele>4.4</ele>
        <time>2025-01-20T09:35:42.456Z</time>
      </trkpt>
      <trkpt lat="46.72964" lon="-1.98987">
        <ele>4.3</ele>
        <time>2025-01-20T09:35:43.456Z</time>
      </trkpt>
      <trkpt lat="46.72963" lon="-1.98989">
        <ele>4.3</ele>
        <time>2025-01-20T09:35:44.455Z</time>
      </trkpt>
      <trkpt lat="46.72962" lon="-1.9899">
        <ele>4.2</ele>
        <time>2025-01-20T09:35:45.455Z</time>
      </trkpt>
      <trkpt lat="46.72961" lon="-1.98992">
        <ele>4.2</ele>
        <time>2025-01-20T09:35:46.455Z</time>
      </trkpt>
      <trkpt lat="46.7296" lon="-1.98993">
        <ele>4.1</ele>
        <time>2025-01-20T09:35:47.455Z</time>
      </trkpt>
      <trkpt lat="46.72959" lon="-1.98995">
        <ele>4.1</ele>
        <time>2025-01-20T09:35:48.455Z</time>
      </trkpt>
      <trkpt lat="46.72959" lon="-1.98997">
        <ele>4.1</ele>
        <time>2025-01-20T09:35:49.456Z</time>
      </trkpt>
      <trkpt lat="46.72958" lon="-1.98998">
        <ele>4</ele>
        <time>2025-01-20T09:35:50.456Z</time>
      </trkpt>
      <trkpt lat="46.72958" lon="-1.99">
        <ele>4</ele>
        <time>2025-01-20T09:35:51.456Z</time>
      </trkpt>
      <trkpt lat="46.72957" lon="-1.99002">
        <ele>4</ele>
        <time>2025-01-20T09:35:52.456Z</time>
      </trkpt>
      <trkpt lat="46.72957" lon="-1.99004">
        <ele>4</ele>
        <time>2025-01-20T09:35:53.456Z</time>
      </trkpt>
      <trkpt lat="46.72957" lon="-1.99005">
        <ele>4</ele>
        <time>2025-01-20T09:35:54.455Z</time>
      </trkpt>
      <trkpt lat="46.72957" lon="-1.99007">
        <ele>4</ele>
        <time>2025-01-20T09:35:55.455Z</time>
      </trkpt>
      <trkpt lat="46.72956" lon="-1.99008">
        <ele>4</ele>
        <time>2025-01-20T09:35:56.455Z</time>
      </trkpt>
      <trkpt lat="46.72956" lon="-1.9901">
        <ele>4.1</ele>
        <time>2025-01-20T09:35:57.455Z</time>
      </trkpt>
      <trkpt lat="46.72955" lon="-1.99011">
        <ele>4.1</ele>
        <time>2025-01-20T09:35:58.455Z</time>
      </trkpt>
      <trkpt lat="46.72955" lon="-1.99012">
        <ele>4.1</ele>
        <time>2025-01-20T09:35:59.455Z</time>
      </trkpt>
      <trkpt lat="46.72954" lon="-1.99012">
        <ele>4.1</ele>
        <time>2025-01-20T09:36:00.456Z</time>
      </trkpt>
      <trkpt lat="46.72954" lon="-1.99013">
        <ele>4.1</ele>
        <time>2025-01-20T09:36:01.456Z</time>
      </trkpt>
      <trkpt lat="46.72953" lon="-1.99013">
        <ele>4.2</ele>
        <time>2025-01-20T09:36:02.456Z</time>
      </trkpt>
      <trkpt lat="46.72952" lon="-1.99014">
        <ele>4.2</ele>
        <time>2025-01-20T09:36:03.456Z</time>
      </trkpt>
      <trkpt lat="46.72951" lon="-1.99014">
        <ele>4.3</ele>
        <time>2025-01-20T09:36:04.456Z</time>
      </trkpt>
      <trkpt lat="46.72951" lon="-1.99015">
        <ele>4.3</ele>
        <time>2025-01-20T09:36:05.455Z</time>
      </trkpt>
      <trkpt lat="46.7295" lon="-1.99016">
        <ele>4.3</ele>
        <time>2025-01-20T09:36:06.456Z</time>
      </trkpt>
      <trkpt lat="46.72949" lon="-1.99017">
        <ele>4.4</ele>
        <time>2025-01-20T09:36:07.456Z</time>
      </trkpt>
      <trkpt lat="46.72948" lon="-1.99018">
        <ele>4.5</ele>
        <time>2025-01-20T09:36:08.455Z</time>
      </trkpt>
      <trkpt lat="46.72947" lon="-1.99018">
        <ele>4.5</ele>
        <time>2025-01-20T09:36:09.455Z</time>
      </trkpt>
      <trkpt lat="46.72946" lon="-1.99019">
        <ele>4.6</ele>
        <time>2025-01-20T09:36:10.455Z</time>
      </trkpt>
      <trkpt lat="46.72945" lon="-1.9902">
        <ele>4.7</ele>
        <time>2025-01-20T09:36:11.456Z</time>
      </trkpt>
      <trkpt lat="46.72944" lon="-1.99021">
        <ele>4.7</ele>
        <time>2025-01-20T09:36:12.455Z</time>
      </trkpt>
      <trkpt lat="46.72942" lon="-1.99022">
        <ele>4.7</ele>
        <time>2025-01-20T09:36:13.455Z</time>
      </trkpt>
      <trkpt lat="46.72941" lon="-1.99023">
        <ele>4.7</ele>
        <time>2025-01-20T09:36:14.455Z</time>
      </trkpt>
      <trkpt lat="46.7294" lon="-1.99025">
        <ele>4.7</ele>
        <time>2025-01-20T09:36:15.455Z</time>
      </trkpt>
      <trkpt lat="46.72939" lon="-1.99026">
        <ele>4.7</ele>
        <time>2025-01-20T09:36:16.455Z</time>
      </trkpt>
      <trkpt lat="46.72938" lon="-1.99027">
        <ele>4.7</ele>
        <time>2025-01-20T09:36:17.456Z</time>
      </trkpt>
      <trkpt lat="46.72937" lon="-1.99029">
        <ele>4.7</ele>
        <time>2025-01-20T09:36:18.456Z</time>
      </trkpt>
      <trkpt lat="46.72936" lon="-1.9903">
        <ele>4.6</ele>
        <time>2025-01-20T09:36:19.456Z</time>
      </trkpt>
      <trkpt lat="46.72936" lon="-1.99032">
        <ele>4.5</ele>
        <time>2025-01-20T09:36:20.456Z</time>
      </trkpt>
      <trkpt lat="46.72935" lon="-1.99033">
        <ele>4.4</ele>
        <time>2025-01-20T09:36:21.456Z</time>
      </trkpt>
      <trkpt lat="46.72934" lon="-1.99035">
        <ele>4.3</ele>
        <time>2025-01-20T09:36:22.455Z</time>
      </trkpt>
      <trkpt lat="46.72934" lon="-1.99036">
        <ele>4.3</ele>
        <time>2025-01-20T09:36:23.455Z</time>
      </trkpt>
      <trkpt lat="46.72933" lon="-1.99038">
        <ele>4.2</ele>
        <time>2025-01-20T09:36:24.455Z</time>
      </trkpt>
      <trkpt lat="46.72932" lon="-1.99041">
        <ele>4</ele>
        <time>2025-01-20T09:36:25.455Z</time>
      </trkpt>
      <trkpt lat="46.72931" lon="-1.99043">
        <ele>4</ele>
        <time>2025-01-20T09:36:26.455Z</time>
      </trkpt>
      <trkpt lat="46.72931" lon="-1.99044">
        <ele>3.9</ele>
        <time>2025-01-20T09:36:27.456Z</time>
      </trkpt>
      <trkpt lat="46.7293" lon="-1.99045">
        <ele>3.9</ele>
        <time>2025-01-20T09:36:28.456Z</time>
      </trkpt>
      <trkpt lat="46.72929" lon="-1.99046">
        <ele>3.9</ele>
        <time>2025-01-20T09:36:29.456Z</time>
      </trkpt>
      <trkpt lat="46.72928" lon="-1.99047">
        <ele>3.8</ele>
        <time>2025-01-20T09:36:30.455Z</time>
      </trkpt>
      <trkpt lat="46.72927" lon="-1.99048">
        <ele>3.8</ele>
        <time>2025-01-20T09:36:31.455Z</time>
      </trkpt>
      <trkpt lat="46.72927" lon="-1.99049">
        <ele>3.8</ele>
        <time>2025-01-20T09:36:32.455Z</time>
      </trkpt>
      <trkpt lat="46.72926" lon="-1.9905">
        <ele>3.8</ele>
        <time>2025-01-20T09:36:33.456Z</time>
      </trkpt>
      <trkpt lat="46.72925" lon="-1.9905">
        <ele>3.8</ele>
        <time>2025-01-20T09:36:34.456Z</time>
      </trkpt>
      <trkpt lat="46.72924" lon="-1.9905">
        <ele>3.8</ele>
        <time>2025-01-20T09:36:35.456Z</time>
      </trkpt>
      <trkpt lat="46.72923" lon="-1.9905">
        <ele>3.9</ele>
        <time>2025-01-20T09:36:36.456Z</time>
      </trkpt>
      <trkpt lat="46.72922" lon="-1.99051">
        <ele>3.9</ele>
        <time>2025-01-20T09:36:37.456Z</time>
      </trkpt>
      <trkpt lat="46.72921" lon="-1.99051">
        <ele>3.9</ele>
        <time>2025-01-20T09:36:38.455Z</time>
      </trkpt>
      <trkpt lat="46.7292" lon="-1.99052">
        <ele>3.9</ele>
        <time>2025-01-20T09:36:39.455Z</time>
      </trkpt>
      <trkpt lat="46.72919" lon="-1.99053">
        <ele>3.9</ele>
        <time>2025-01-20T09:36:40.455Z</time>
      </trkpt>
      <trkpt lat="46.72918" lon="-1.99054">
        <ele>4</ele>
        <time>2025-01-20T09:36:41.455Z</time>
      </trkpt>
      <trkpt lat="46.72917" lon="-1.99054">
        <ele>4</ele>
        <time>2025-01-20T09:36:42.455Z</time>
      </trkpt>
      <trkpt lat="46.72916" lon="-1.99055">
        <ele>4</ele>
        <time>2025-01-20T09:36:43.456Z</time>
      </trkpt>
      <trkpt lat="46.72915" lon="-1.99056">
        <ele>3.9</ele>
        <time>2025-01-20T09:36:44.456Z</time>
      </trkpt>
      <trkpt lat="46.72913" lon="-1.99057">
        <ele>3.8</ele>
        <time>2025-01-20T09:36:45.456Z</time>
      </trkpt>
      <trkpt lat="46.72912" lon="-1.99058">
        <ele>3.8</ele>
        <time>2025-01-20T09:36:46.456Z</time>
      </trkpt>
      <trkpt lat="46.72911" lon="-1.99059">
        <ele>3.7</ele>
        <time>2025-01-20T09:36:47.456Z</time>
      </trkpt>
      <trkpt lat="46.7291" lon="-1.99059">
        <ele>3.7</ele>
        <time>2025-01-20T09:36:48.456Z</time>
      </trkpt>
      <trkpt lat="46.72908" lon="-1.9906">
        <ele>3.6</ele>
        <time>2025-01-20T09:36:49.455Z</time>
      </trkpt>
      <trkpt lat="46.72907" lon="-1.99061">
        <ele>3.6</ele>
        <time>2025-01-20T09:36:50.455Z</time>
      </trkpt>
      <trkpt lat="46.72906" lon="-1.99062">
        <ele>3.6</ele>
        <time>2025-01-20T09:36:51.455Z</time>
      </trkpt>
      <trkpt lat="46.72905" lon="-1.99063">
        <ele>3.5</ele>
        <time>2025-01-20T09:36:52.455Z</time>
      </trkpt>
      <trkpt lat="46.72903" lon="-1.99064">
        <ele>3.5</ele>
        <time>2025-01-20T09:36:53.455Z</time>
      </trkpt>
      <trkpt lat="46.72902" lon="-1.99064">
        <ele>3.5</ele>
        <time>2025-01-20T09:36:54.456Z</time>
      </trkpt>
      <trkpt lat="46.72901" lon="-1.99065">
        <ele>3.5</ele>
        <time>2025-01-20T09:36:55.456Z</time>
      </trkpt>
      <trkpt lat="46.729" lon="-1.99066">
        <ele>3.5</ele>
        <time>2025-01-20T09:36:56.455Z</time>
      </trkpt>
      <trkpt lat="46.729" lon="-1.99068">
        <ele>3.5</ele>
        <time>2025-01-20T09:36:57.456Z</time>
      </trkpt>
      <trkpt lat="46.72899" lon="-1.99069">
        <ele>3.5</ele>
        <time>2025-01-20T09:36:58.456Z</time>
      </trkpt>
      <trkpt lat="46.72898" lon="-1.9907">
        <ele>3.5</ele>
        <time>2025-01-20T09:36:59.455Z</time>
      </trkpt>
      <trkpt lat="46.72897" lon="-1.9907">
        <ele>3.5</ele>
        <time>2025-01-20T09:37:00.456Z</time>
      </trkpt>
      <trkpt lat="46.72896" lon="-1.99071">
        <ele>3.5</ele>
        <time>2025-01-20T09:37:01.455Z</time>
      </trkpt>
      <trkpt lat="46.72894" lon="-1.99072">
        <ele>3.6</ele>
        <time>2025-01-20T09:37:02.456Z</time>
      </trkpt>
      <trkpt lat="46.72893" lon="-1.99073">
        <ele>3.6</ele>
        <time>2025-01-20T09:37:03.455Z</time>
      </trkpt>
      <trkpt lat="46.72892" lon="-1.99074">
        <ele>3.6</ele>
        <time>2025-01-20T09:37:04.456Z</time>
      </trkpt>
      <trkpt lat="46.72892" lon="-1.99075">
        <ele>3.7</ele>
        <time>2025-01-20T09:37:05.456Z</time>
      </trkpt>
      <trkpt lat="46.72891" lon="-1.99076">
        <ele>3.7</ele>
        <time>2025-01-20T09:37:06.456Z</time>
      </trkpt>
      <trkpt lat="46.7289" lon="-1.99078">
        <ele>3.8</ele>
        <time>2025-01-20T09:37:07.456Z</time>
      </trkpt>
      <trkpt lat="46.72889" lon="-1.99079">
        <ele>3.8</ele>
        <time>2025-01-20T09:37:08.456Z</time>
      </trkpt>
      <trkpt lat="46.72888" lon="-1.9908">
        <ele>3.9</ele>
        <time>2025-01-20T09:37:09.456Z</time>
      </trkpt>
      <trkpt lat="46.72887" lon="-1.9908">
        <ele>3.9</ele>
        <time>2025-01-20T09:37:10.456Z</time>
      </trkpt>
      <trkpt lat="46.72886" lon="-1.99081">
        <ele>3.9</ele>
        <time>2025-01-20T09:37:11.455Z</time>
      </trkpt>
      <trkpt lat="46.72885" lon="-1.99082">
        <ele>4</ele>
        <time>2025-01-20T09:37:12.456Z</time>
      </trkpt>
      <trkpt lat="46.72884" lon="-1.99083">
        <ele>4</ele>
        <time>2025-01-20T09:37:13.455Z</time>
      </trkpt>
      <trkpt lat="46.72883" lon="-1.99084">
        <ele>4</ele>
        <time>2025-01-20T09:37:14.455Z</time>
      </trkpt>
      <trkpt lat="46.72882" lon="-1.99084">
        <ele>4</ele>
        <time>2025-01-20T09:37:15.455Z</time>
      </trkpt>
      <trkpt lat="46.72881" lon="-1.99085">
        <ele>4</ele>
        <time>2025-01-20T09:37:16.456Z</time>
      </trkpt>
      <trkpt lat="46.72879" lon="-1.99086">
        <ele>4</ele>
        <time>2025-01-20T09:37:17.456Z</time>
      </trkpt>
      <trkpt lat="46.72878" lon="-1.99086">
        <ele>4</ele>
        <time>2025-01-20T09:37:18.456Z</time>
      </trkpt>
      <trkpt lat="46.72877" lon="-1.99087">
        <ele>4</ele>
        <time>2025-01-20T09:37:19.455Z</time>
      </trkpt>
      <trkpt lat="46.72876" lon="-1.99088">
        <ele>4</ele>
        <time>2025-01-20T09:37:20.455Z</time>
      </trkpt>
      <trkpt lat="46.72874" lon="-1.99089">
        <ele>4</ele>
        <time>2025-01-20T09:37:21.455Z</time>
      </trkpt>
      <trkpt lat="46.72873" lon="-1.9909">
        <ele>4</ele>
        <time>2025-01-20T09:37:22.455Z</time>
      </trkpt>
      <trkpt lat="46.72872" lon="-1.99091">
        <ele>4</ele>
        <time>2025-01-20T09:37:23.455Z</time>
      </trkpt>
      <trkpt lat="46.72871" lon="-1.99092">
        <ele>4</ele>
        <time>2025-01-20T09:37:24.455Z</time>
      </trkpt>
      <trkpt lat="46.7287" lon="-1.99092">
        <ele>4</ele>
        <time>2025-01-20T09:37:25.455Z</time>
      </trkpt>
      <trkpt lat="46.72868" lon="-1.99093">
        <ele>4</ele>
        <time>2025-01-20T09:37:26.456Z</time>
      </trkpt>
      <trkpt lat="46.72867" lon="-1.99093">
        <ele>4</ele>
        <time>2025-01-20T09:37:27.456Z</time>
      </trkpt>
      <trkpt lat="46.72866" lon="-1.99094">
        <ele>4</ele>
        <time>2025-01-20T09:37:28.456Z</time>
      </trkpt>
      <trkpt lat="46.72865" lon="-1.99095">
        <ele>4</ele>
        <time>2025-01-20T09:37:29.456Z</time>
      </trkpt>
      <trkpt lat="46.72864" lon="-1.99095">
        <ele>4</ele>
        <time>2025-01-20T09:37:30.455Z</time>
      </trkpt>
      <trkpt lat="46.72863" lon="-1.99096">
        <ele>4</ele>
        <time>2025-01-20T09:37:31.455Z</time>
      </trkpt>
      <trkpt lat="46.72861" lon="-1.99096">
        <ele>4</ele>
        <time>2025-01-20T09:37:32.456Z</time>
      </trkpt>
      <trkpt lat="46.7286" lon="-1.99096">
        <ele>4</ele>
        <time>2025-01-20T09:37:33.456Z</time>
      </trkpt>
      <trkpt lat="46.72859" lon="-1.99096">
        <ele>4</ele>
        <time>2025-01-20T09:37:34.456Z</time>
      </trkpt>
      <trkpt lat="46.72858" lon="-1.99096">
        <ele>4.1</ele>
        <time>2025-01-20T09:37:35.456Z</time>
      </trkpt>
      <trkpt lat="46.72857" lon="-1.99096">
        <ele>4.1</ele>
        <time>2025-01-20T09:37:36.456Z</time>
      </trkpt>
      <trkpt lat="46.72857" lon="-1.99096">
        <ele>4.1</ele>
        <time>2025-01-20T09:37:37.455Z</time>
      </trkpt>
      <trkpt lat="46.72856" lon="-1.99095">
        <ele>4.1</ele>
        <time>2025-01-20T09:37:38.456Z</time>
      </trkpt>
      <trkpt lat="46.72854" lon="-1.99094">
        <ele>4.1</ele>
        <time>2025-01-20T09:37:39.455Z</time>
      </trkpt>
      <trkpt lat="46.72854" lon="-1.99093">
        <ele>4.1</ele>
        <time>2025-01-20T09:37:40.456Z</time>
      </trkpt>
      <trkpt lat="46.72853" lon="-1.99092">
        <ele>4.1</ele>
        <time>2025-01-20T09:37:41.456Z</time>
      </trkpt>
      <trkpt lat="46.72852" lon="-1.99091">
        <ele>4.1</ele>
        <time>2025-01-20T09:37:42.456Z</time>
      </trkpt>
      <trkpt lat="46.72852" lon="-1.99089">
        <ele>4.1</ele>
        <time>2025-01-20T09:37:43.455Z</time>
      </trkpt>
      <trkpt lat="46.72851" lon="-1.99087">
        <ele>4</ele>
        <time>2025-01-20T09:37:44.455Z</time>
      </trkpt>
      <trkpt lat="46.72851" lon="-1.99085">
        <ele>4</ele>
        <time>2025-01-20T09:37:45.455Z</time>
      </trkpt>
      <trkpt lat="46.7285" lon="-1.99083">
        <ele>4</ele>
        <time>2025-01-20T09:37:46.456Z</time>
      </trkpt>
      <trkpt lat="46.7285" lon="-1.99081">
        <ele>4</ele>
        <time>2025-01-20T09:37:47.456Z</time>
      </trkpt>
      <trkpt lat="46.72849" lon="-1.99079">
        <ele>4</ele>
        <time>2025-01-20T09:37:48.456Z</time>
      </trkpt>
      <trkpt lat="46.72849" lon="-1.99076">
        <ele>4</ele>
        <time>2025-01-20T09:37:49.456Z</time>
      </trkpt>
      <trkpt lat="46.72848" lon="-1.99075">
        <ele>4</ele>
        <time>2025-01-20T09:37:50.456Z</time>
      </trkpt>
      <trkpt lat="46.72848" lon="-1.99073">
        <ele>4</ele>
        <time>2025-01-20T09:37:51.456Z</time>
      </trkpt>
      <trkpt lat="46.72848" lon="-1.99071">
        <ele>4</ele>
        <time>2025-01-20T09:37:52.456Z</time>
      </trkpt>
      <trkpt lat="46.72848" lon="-1.99069">
        <ele>4</ele>
        <time>2025-01-20T09:37:53.455Z</time>
      </trkpt>
      <trkpt lat="46.72847" lon="-1.99068">
        <ele>4</ele>
        <time>2025-01-20T09:37:54.455Z</time>
      </trkpt>
      <trkpt lat="46.72847" lon="-1.99066">
        <ele>4</ele>
        <time>2025-01-20T09:37:55.455Z</time>
      </trkpt>
      <trkpt lat="46.72846" lon="-1.99064">
        <ele>4</ele>
        <time>2025-01-20T09:37:56.455Z</time>
      </trkpt>
      <trkpt lat="46.72846" lon="-1.99062">
        <ele>4</ele>
        <time>2025-01-20T09:37:57.455Z</time>
      </trkpt>
      <trkpt lat="46.72846" lon="-1.9906">
        <ele>4</ele>
        <time>2025-01-20T09:37:58.456Z</time>
      </trkpt>
      <trkpt lat="46.72846" lon="-1.99058">
        <ele>4</ele>
        <time>2025-01-20T09:37:59.456Z</time>
      </trkpt>
      <trkpt lat="46.72845" lon="-1.99056">
        <ele>4</ele>
        <time>2025-01-20T09:38:00.456Z</time>
      </trkpt>
      <trkpt lat="46.72844" lon="-1.99055">
        <ele>4</ele>
        <time>2025-01-20T09:38:01.456Z</time>
      </trkpt>
      <trkpt lat="46.72843" lon="-1.99053">
        <ele>3.9</ele>
        <time>2025-01-20T09:38:02.456Z</time>
      </trkpt>
      <trkpt lat="46.72843" lon="-1.99051">
        <ele>3.8</ele>
        <time>2025-01-20T09:38:03.456Z</time>
      </trkpt>
      <trkpt lat="46.72842" lon="-1.99049">
        <ele>3.8</ele>
        <time>2025-01-20T09:38:04.455Z</time>
      </trkpt>
      <trkpt lat="46.72842" lon="-1.99047">
        <ele>3.7</ele>
        <time>2025-01-20T09:38:05.455Z</time>
      </trkpt>
      <trkpt lat="46.72841" lon="-1.99045">
        <ele>3.6</ele>
        <time>2025-01-20T09:38:06.456Z</time>
      </trkpt>
      <trkpt lat="46.72841" lon="-1.99043">
        <ele>3.5</ele>
        <time>2025-01-20T09:38:07.456Z</time>
      </trkpt>
      <trkpt lat="46.7284" lon="-1.99041">
        <ele>3.5</ele>
        <time>2025-01-20T09:38:08.456Z</time>
      </trkpt>
      <trkpt lat="46.72839" lon="-1.99039">
        <ele>3.4</ele>
        <time>2025-01-20T09:38:09.456Z</time>
      </trkpt>
      <trkpt lat="46.72839" lon="-1.99037">
        <ele>3.3</ele>
        <time>2025-01-20T09:38:10.455Z</time>
      </trkpt>
      <trkpt lat="46.72838" lon="-1.99035">
        <ele>3.3</ele>
        <time>2025-01-20T09:38:11.455Z</time>
      </trkpt>
      <trkpt lat="46.72838" lon="-1.99033">
        <ele>3.2</ele>
        <time>2025-01-20T09:38:12.455Z</time>
      </trkpt>
      <trkpt lat="46.72837" lon="-1.99031">
        <ele>3.1</ele>
        <time>2025-01-20T09:38:13.455Z</time>
      </trkpt>
      <trkpt lat="46.72837" lon="-1.99029">
        <ele>3</ele>
        <time>2025-01-20T09:38:14.456Z</time>
      </trkpt>
      <trkpt lat="46.72837" lon="-1.99027">
        <ele>3</ele>
        <time>2025-01-20T09:38:15.455Z</time>
      </trkpt>
      <trkpt lat="46.72836" lon="-1.99025">
        <ele>3</ele>
        <time>2025-01-20T09:38:16.456Z</time>
      </trkpt>
      <trkpt lat="46.72836" lon="-1.99023">
        <ele>3</ele>
        <time>2025-01-20T09:38:17.456Z</time>
      </trkpt>
      <trkpt lat="46.72835" lon="-1.99021">
        <ele>3</ele>
        <time>2025-01-20T09:38:18.456Z</time>
      </trkpt>
      <trkpt lat="46.72835" lon="-1.99019">
        <ele>3</ele>
        <time>2025-01-20T09:38:19.455Z</time>
      </trkpt>
      <trkpt lat="46.72834" lon="-1.99017">
        <ele>3</ele>
        <time>2025-01-20T09:38:20.455Z</time>
      </trkpt>
      <trkpt lat="46.72834" lon="-1.99015">
        <ele>3</ele>
        <time>2025-01-20T09:38:21.455Z</time>
      </trkpt>
      <trkpt lat="46.72834" lon="-1.99013">
        <ele>3</ele>
        <time>2025-01-20T09:38:22.455Z</time>
      </trkpt>
      <trkpt lat="46.72834" lon="-1.99011">
        <ele>3</ele>
        <time>2025-01-20T09:38:23.455Z</time>
      </trkpt>
      <trkpt lat="46.72833" lon="-1.99009">
        <ele>3</ele>
        <time>2025-01-20T09:38:24.455Z</time>
      </trkpt>
      <trkpt lat="46.72833" lon="-1.99007">
        <ele>3</ele>
        <time>2025-01-20T09:38:25.456Z</time>
      </trkpt>
      <trkpt lat="46.72833" lon="-1.99005">
        <ele>3</ele>
        <time>2025-01-20T09:38:26.456Z</time>
      </trkpt>
      <trkpt lat="46.72833" lon="-1.99002">
        <ele>3</ele>
        <time>2025-01-20T09:38:27.456Z</time>
      </trkpt>
      <trkpt lat="46.72833" lon="-1.99001">
        <ele>3</ele>
        <time>2025-01-20T09:38:28.456Z</time>
      </trkpt>
      <trkpt lat="46.72833" lon="-1.98999">
        <ele>3</ele>
        <time>2025-01-20T09:38:29.456Z</time>
      </trkpt>
      <trkpt lat="46.72833" lon="-1.98998">
        <ele>3.1</ele>
        <time>2025-01-20T09:38:30.456Z</time>
      </trkpt>
      <trkpt lat="46.72832" lon="-1.98996">
        <ele>3.2</ele>
        <time>2025-01-20T09:38:31.455Z</time>
      </trkpt>
      <trkpt lat="46.72832" lon="-1.98994">
        <ele>3.3</ele>
        <time>2025-01-20T09:38:32.455Z</time>
      </trkpt>
      <trkpt lat="46.72832" lon="-1.98993">
        <ele>3.3</ele>
        <time>2025-01-20T09:38:33.455Z</time>
      </trkpt>
      <trkpt lat="46.72832" lon="-1.98991">
        <ele>3.4</ele>
        <time>2025-01-20T09:38:34.455Z</time>
      </trkpt>
      <trkpt lat="46.72832" lon="-1.9899">
        <ele>3.4</ele>
        <time>2025-01-20T09:38:35.456Z</time>
      </trkpt>
      <trkpt lat="46.72831" lon="-1.98988">
        <ele>3.5</ele>
        <time>2025-01-20T09:38:36.455Z</time>
      </trkpt>
      <trkpt lat="46.72831" lon="-1.98986">
        <ele>3.5</ele>
        <time>2025-01-20T09:38:37.456Z</time>
      </trkpt>
      <trkpt lat="46.72831" lon="-1.98984">
        <ele>3.6</ele>
        <time>2025-01-20T09:38:38.456Z</time>
      </trkpt>
      <trkpt lat="46.72831" lon="-1.98983">
        <ele>3.6</ele>
        <time>2025-01-20T09:38:39.456Z</time>
      </trkpt>
      <trkpt lat="46.72831" lon="-1.98982">
        <ele>3.7</ele>
        <time>2025-01-20T09:38:40.456Z</time>
      </trkpt>
      <trkpt lat="46.7283" lon="-1.9898">
        <ele>3.8</ele>
        <time>2025-01-20T09:38:41.456Z</time>
      </trkpt>
      <trkpt lat="46.7283" lon="-1.98979">
        <ele>3.8</ele>
        <time>2025-01-20T09:38:42.455Z</time>
      </trkpt>
      <trkpt lat="46.7283" lon="-1.98977">
        <ele>3.8</ele>
        <time>2025-01-20T09:38:43.455Z</time>
      </trkpt>
      <trkpt lat="46.7283" lon="-1.98975">
        <ele>3.9</ele>
        <time>2025-01-20T09:38:44.455Z</time>
      </trkpt>
      <trkpt lat="46.7283" lon="-1.98973">
        <ele>4</ele>
        <time>2025-01-20T09:38:45.455Z</time>
      </trkpt>
      <trkpt lat="46.72829" lon="-1.98971">
        <ele>4</ele>
        <time>2025-01-20T09:38:46.456Z</time>
      </trkpt>
      <trkpt lat="46.72829" lon="-1.9897">
        <ele>4</ele>
        <time>2025-01-20T09:38:47.456Z</time>
      </trkpt>
      <trkpt lat="46.72829" lon="-1.98968">
        <ele>4</ele>
        <time>2025-01-20T09:38:48.456Z</time>
      </trkpt>
      <trkpt lat="46.72828" lon="-1.98967">
        <ele>4</ele>
        <time>2025-01-20T09:38:49.456Z</time>
      </trkpt>
      <trkpt lat="46.72828" lon="-1.98965">
        <ele>4</ele>
        <time>2025-01-20T09:38:50.455Z</time>
      </trkpt>
      <trkpt lat="46.72828" lon="-1.98963">
        <ele>4.1</ele>
        <time>2025-01-20T09:38:51.455Z</time>
      </trkpt>
      <trkpt lat="46.72828" lon="-1.98961">
        <ele>4.1</ele>
        <time>2025-01-20T09:38:52.456Z</time>
      </trkpt>
      <trkpt lat="46.72827" lon="-1.98959">
        <ele>4.1</ele>
        <time>2025-01-20T09:38:53.455Z</time>
      </trkpt>
      <trkpt lat="46.72827" lon="-1.98958">
        <ele>4.1</ele>
        <time>2025-01-20T09:38:54.455Z</time>
      </trkpt>
      <trkpt lat="46.72827" lon="-1.98956">
        <ele>4.1</ele>
        <time>2025-01-20T09:38:55.455Z</time>
      </trkpt>
      <trkpt lat="46.72827" lon="-1.98954">
        <ele>4.1</ele>
        <time>2025-01-20T09:38:56.456Z</time>
      </trkpt>
      <trkpt lat="46.72827" lon="-1.98952">
        <ele>4.2</ele>
        <time>2025-01-20T09:38:57.456Z</time>
      </trkpt>
      <trkpt lat="46.72826" lon="-1.9895">
        <ele>4.2</ele>
        <time>2025-01-20T09:38:58.456Z</time>
      </trkpt>
      <trkpt lat="46.72826" lon="-1.98947">
        <ele>4.2</ele>
        <time>2025-01-20T09:38:59.456Z</time>
      </trkpt>
      <trkpt lat="46.72826" lon="-1.98945">
        <ele>4.3</ele>
        <time>2025-01-20T09:39:00.456Z</time>
      </trkpt>
      <trkpt lat="46.72825" lon="-1.98943">
        <ele>4.3</ele>
        <time>2025-01-20T09:39:01.456Z</time>
      </trkpt>
      <trkpt lat="46.72825" lon="-1.98941">
        <ele>4.3</ele>
        <time>2025-01-20T09:39:02.455Z</time>
      </trkpt>
      <trkpt lat="46.72825" lon="-1.98938">
        <ele>4.3</ele>
        <time>2025-01-20T09:39:03.455Z</time>
      </trkpt>
      <trkpt lat="46.72824" lon="-1.98936">
        <ele>4.3</ele>
        <time>2025-01-20T09:39:04.455Z</time>
      </trkpt>
      <trkpt lat="46.72824" lon="-1.98934">
        <ele>4.3</ele>
        <time>2025-01-20T09:39:05.455Z</time>
      </trkpt>
      <trkpt lat="46.72824" lon="-1.98932">
        <ele>4.3</ele>
        <time>2025-01-20T09:39:06.455Z</time>
      </trkpt>
      <trkpt lat="46.72824" lon="-1.98929">
        <ele>4.3</ele>
        <time>2025-01-20T09:39:07.456Z</time>
      </trkpt>
      <trkpt lat="46.72824" lon="-1.98927">
        <ele>4.3</ele>
        <time>2025-01-20T09:39:08.455Z</time>
      </trkpt>
      <trkpt lat="46.72824" lon="-1.98925">
        <ele>4.3</ele>
        <time>2025-01-20T09:39:09.455Z</time>
      </trkpt>
      <trkpt lat="46.72824" lon="-1.98923">
        <ele>4.3</ele>
        <time>2025-01-20T09:39:10.456Z</time>
      </trkpt>
      <trkpt lat="46.72824" lon="-1.9892">
        <ele>4.3</ele>
        <time>2025-01-20T09:39:11.456Z</time>
      </trkpt>
      <trkpt lat="46.72824" lon="-1.98917">
        <ele>4.3</ele>
        <time>2025-01-20T09:39:12.456Z</time>
      </trkpt>
      <trkpt lat="46.72824" lon="-1.98915">
        <ele>4.4</ele>
        <time>2025-01-20T09:39:13.455Z</time>
      </trkpt>
      <trkpt lat="46.72824" lon="-1.98913">
        <ele>4.4</ele>
        <time>2025-01-20T09:39:14.455Z</time>
      </trkpt>
      <trkpt lat="46.72824" lon="-1.9891">
        <ele>4.4</ele>
        <time>2025-01-20T09:39:15.455Z</time>
      </trkpt>
      <trkpt lat="46.72824" lon="-1.98909">
        <ele>4.4</ele>
        <time>2025-01-20T09:39:16.455Z</time>
      </trkpt>
      <trkpt lat="46.72824" lon="-1.98907">
        <ele>4.5</ele>
        <time>2025-01-20T09:39:17.455Z</time>
      </trkpt>
      <trkpt lat="46.72824" lon="-1.98905">
        <ele>4.5</ele>
        <time>2025-01-20T09:39:18.456Z</time>
      </trkpt>
      <trkpt lat="46.72823" lon="-1.98904">
        <ele>4.5</ele>
        <time>2025-01-20T09:39:19.456Z</time>
      </trkpt>
      <trkpt lat="46.72823" lon="-1.98901">
        <ele>4.6</ele>
        <time>2025-01-20T09:39:20.456Z</time>
      </trkpt>
      <trkpt lat="46.72822" lon="-1.989">
        <ele>4.7</ele>
        <time>2025-01-20T09:39:21.456Z</time>
      </trkpt>
      <trkpt lat="46.72822" lon="-1.98898">
        <ele>4.7</ele>
        <time>2025-01-20T09:39:22.456Z</time>
      </trkpt>
      <trkpt lat="46.72822" lon="-1.98896">
        <ele>4.7</ele>
        <time>2025-01-20T09:39:23.455Z</time>
      </trkpt>
      <trkpt lat="46.72822" lon="-1.98893">
        <ele>4.8</ele>
        <time>2025-01-20T09:39:24.455Z</time>
      </trkpt>
      <trkpt lat="46.72822" lon="-1.98891">
        <ele>4.8</ele>
        <time>2025-01-20T09:39:25.455Z</time>
      </trkpt>
      <trkpt lat="46.72821" lon="-1.9889">
        <ele>4.9</ele>
        <time>2025-01-20T09:39:26.455Z</time>
      </trkpt>
      <trkpt lat="46.7282" lon="-1.98888">
        <ele>4.9</ele>
        <time>2025-01-20T09:39:27.456Z</time>
      </trkpt>
      <trkpt lat="46.72819" lon="-1.98885">
        <ele>4.9</ele>
        <time>2025-01-20T09:39:28.455Z</time>
      </trkpt>
      <trkpt lat="46.72819" lon="-1.98884">
        <ele>4.9</ele>
        <time>2025-01-20T09:39:29.455Z</time>
      </trkpt>
      <trkpt lat="46.72818" lon="-1.98883">
        <ele>4.9</ele>
        <time>2025-01-20T09:39:30.456Z</time>
      </trkpt>
      <trkpt lat="46.72817" lon="-1.98881">
        <ele>4.9</ele>
        <time>2025-01-20T09:39:31.456Z</time>
      </trkpt>
      <trkpt lat="46.72816" lon="-1.98879">
        <ele>4.9</ele>
        <time>2025-01-20T09:39:32.456Z</time>
      </trkpt>
      <trkpt lat="46.72816" lon="-1.98878">
        <ele>4.9</ele>
        <time>2025-01-20T09:39:33.456Z</time>
      </trkpt>
      <trkpt lat="46.72815" lon="-1.98876">
        <ele>4.9</ele>
        <time>2025-01-20T09:39:34.456Z</time>
      </trkpt>
      <trkpt lat="46.72814" lon="-1.98874">
        <ele>4.9</ele>
        <time>2025-01-20T09:39:35.456Z</time>
      </trkpt>
      <trkpt lat="46.72814" lon="-1.98873">
        <ele>4.8</ele>
        <time>2025-01-20T09:39:36.456Z</time>
      </trkpt>
      <trkpt lat="46.72813" lon="-1.98871">
        <ele>4.8</ele>
        <time>2025-01-20T09:39:37.455Z</time>
      </trkpt>
      <trkpt lat="46.72813" lon="-1.98869">
        <ele>4.7</ele>
        <time>2025-01-20T09:39:38.455Z</time>
      </trkpt>
      <trkpt lat="46.72812" lon="-1.98868">
        <ele>4.8</ele>
        <time>2025-01-20T09:39:39.455Z</time>
      </trkpt>
      <trkpt lat="46.72811" lon="-1.98866">
        <ele>4.8</ele>
        <time>2025-01-20T09:39:40.455Z</time>
      </trkpt>
      <trkpt lat="46.72811" lon="-1.98865">
        <ele>4.7</ele>
        <time>2025-01-20T09:39:41.456Z</time>
      </trkpt>
      <trkpt lat="46.72809" lon="-1.98863">
        <ele>4.8</ele>
        <time>2025-01-20T09:39:42.455Z</time>
      </trkpt>
      <trkpt lat="46.72808" lon="-1.98862">
        <ele>4.9</ele>
        <time>2025-01-20T09:39:43.456Z</time>
      </trkpt>
      <trkpt lat="46.72807" lon="-1.9886">
        <ele>4.9</ele>
        <time>2025-01-20T09:39:44.455Z</time>
      </trkpt>
      <trkpt lat="46.72806" lon="-1.98859">
        <ele>4.9</ele>
        <time>2025-01-20T09:39:45.455Z</time>
      </trkpt>
      <trkpt lat="46.72805" lon="-1.98857">
        <ele>4.9</ele>
        <time>2025-01-20T09:39:46.456Z</time>
      </trkpt>
      <trkpt lat="46.72804" lon="-1.98856">
        <ele>4.9</ele>
        <time>2025-01-20T09:39:47.456Z</time>
      </trkpt>
      <trkpt lat="46.72803" lon="-1.98854">
        <ele>4.9</ele>
        <time>2025-01-20T09:39:48.456Z</time>
      </trkpt>
      <trkpt lat="46.72802" lon="-1.98853">
        <ele>5</ele>
        <time>2025-01-20T09:39:49.456Z</time>
      </trkpt>
      <trkpt lat="46.72801" lon="-1.98852">
        <ele>5</ele>
        <time>2025-01-20T09:39:50.455Z</time>
      </trkpt>
      <trkpt lat="46.72801" lon="-1.98851">
        <ele>5</ele>
        <time>2025-01-20T09:39:51.455Z</time>
      </trkpt>
      <trkpt lat="46.728" lon="-1.98849">
        <ele>5</ele>
        <time>2025-01-20T09:39:52.455Z</time>
      </trkpt>
      <trkpt lat="46.728" lon="-1.98848">
        <ele>4.9</ele>
        <time>2025-01-20T09:39:53.456Z</time>
      </trkpt>
      <trkpt lat="46.72799" lon="-1.98845">
        <ele>4.9</ele>
        <time>2025-01-20T09:39:54.456Z</time>
      </trkpt>
      <trkpt lat="46.72799" lon="-1.98843">
        <ele>4.8</ele>
        <time>2025-01-20T09:39:55.456Z</time>
      </trkpt>
      <trkpt lat="46.72798" lon="-1.98841">
        <ele>4.8</ele>
        <time>2025-01-20T09:39:56.456Z</time>
      </trkpt>
      <trkpt lat="46.72798" lon="-1.98839">
        <ele>4.7</ele>
        <time>2025-01-20T09:39:57.456Z</time>
      </trkpt>
      <trkpt lat="46.72798" lon="-1.98837">
        <ele>4.7</ele>
        <time>2025-01-20T09:39:58.455Z</time>
      </trkpt>
      <trkpt lat="46.72797" lon="-1.98835">
        <ele>4.7</ele>
        <time>2025-01-20T09:39:59.455Z</time>
      </trkpt>
      <trkpt lat="46.72797" lon="-1.98833">
        <ele>4.6</ele>
        <time>2025-01-20T09:40:00.455Z</time>
      </trkpt>
      <trkpt lat="46.72795" lon="-1.98831">
        <ele>4.7</ele>
        <time>2025-01-20T09:40:01.455Z</time>
      </trkpt>
      <trkpt lat="46.72795" lon="-1.9883">
        <ele>4.7</ele>
        <time>2025-01-20T09:40:02.456Z</time>
      </trkpt>
      <trkpt lat="46.72794" lon="-1.98828">
        <ele>4.7</ele>
        <time>2025-01-20T09:40:03.455Z</time>
      </trkpt>
      <trkpt lat="46.72792" lon="-1.98827">
        <ele>4.8</ele>
        <time>2025-01-20T09:40:04.456Z</time>
      </trkpt>
      <trkpt lat="46.72792" lon="-1.98825">
        <ele>4.7</ele>
        <time>2025-01-20T09:40:05.455Z</time>
      </trkpt>
      <trkpt lat="46.72791" lon="-1.98823">
        <ele>4.7</ele>
        <time>2025-01-20T09:40:06.455Z</time>
      </trkpt>
      <trkpt lat="46.7279" lon="-1.98821">
        <ele>4.6</ele>
        <time>2025-01-20T09:40:07.455Z</time>
      </trkpt>
      <trkpt lat="46.7279" lon="-1.98818">
        <ele>4.5</ele>
        <time>2025-01-20T09:40:08.455Z</time>
      </trkpt>
      <trkpt lat="46.72789" lon="-1.98816">
        <ele>4.4</ele>
        <time>2025-01-20T09:40:09.456Z</time>
      </trkpt>
      <trkpt lat="46.72789" lon="-1.98815">
        <ele>4.4</ele>
        <time>2025-01-20T09:40:10.456Z</time>
      </trkpt>
      <trkpt lat="46.72788" lon="-1.98813">
        <ele>4.3</ele>
        <time>2025-01-20T09:40:11.456Z</time>
      </trkpt>
      <trkpt lat="46.72787" lon="-1.98811">
        <ele>4.3</ele>
        <time>2025-01-20T09:40:12.456Z</time>
      </trkpt>
      <trkpt lat="46.72787" lon="-1.9881">
        <ele>4.2</ele>
        <time>2025-01-20T09:40:13.456Z</time>
      </trkpt>
    </trkseg>
  </trk>
</gpx>